<?xml version="1.0" encoding="UTF-8" standalone="no" ?>
<gpx xmlns="http://www.topografix.com/GPX/1/1" xmlns:xsi="http://www.w3.org/2001/XMLSchema-instance" xsi:schemaLocation="http://www.topografix.com/GPX/1/1 http://www.topografix.com/GPX/1/1/gpx.xsd" version="1.1" creator="VisuGPX - https://www.visugpx.com">
  <metadata>
    <name>mince pas de perrier</name>
    <desc><![CDATA[en ré 5 majeur]]></desc>
  </metadata>
  <trk>
    <name><![CDATA[2023 05 28 mince pas de perrier]]></name>
    <desc><![CDATA[en ré 5 majeur]]></desc>
    <trkseg>
      <trkpt lat="46.18883" lon="-1.38993">
        <ele>50.80865</ele>
        <time>2023-05-28T14:26:59.000Z</time>
      </trkpt>
      <trkpt lat="46.18883" lon="-1.39004">
        <ele>51.13541</ele>
        <time>2023-05-28T14:27:01.443Z</time>
      </trkpt>
      <trkpt lat="46.18883" lon="-1.39011">
        <ele>50.99046</ele>
        <time>2023-05-28T14:27:03.000Z</time>
      </trkpt>
      <trkpt lat="46.18883" lon="-1.39016">
        <ele>50.89215</ele>
        <time>2023-05-28T14:27:04.000Z</time>
      </trkpt>
      <trkpt lat="46.18884" lon="-1.39021">
        <ele>50.75558</ele>
        <time>2023-05-28T14:27:05.000Z</time>
      </trkpt>
      <trkpt lat="46.18884" lon="-1.39026">
        <ele>50.66667</ele>
        <time>2023-05-28T14:27:06.000Z</time>
      </trkpt>
      <trkpt lat="46.18884" lon="-1.39031">
        <ele>50.65801</ele>
        <time>2023-05-28T14:27:07.000Z</time>
      </trkpt>
      <trkpt lat="46.18885" lon="-1.39036">
        <ele>50.66466</ele>
        <time>2023-05-28T14:27:08.000Z</time>
      </trkpt>
      <trkpt lat="46.18885" lon="-1.39042">
        <ele>50.69101</ele>
        <time>2023-05-28T14:27:09.000Z</time>
      </trkpt>
      <trkpt lat="46.18885" lon="-1.39047">
        <ele>50.72208</ele>
        <time>2023-05-28T14:27:10.000Z</time>
      </trkpt>
      <trkpt lat="46.18885" lon="-1.39052">
        <ele>50.75902</ele>
        <time>2023-05-28T14:27:11.000Z</time>
      </trkpt>
      <trkpt lat="46.18885" lon="-1.39057">
        <ele>50.77665</ele>
        <time>2023-05-28T14:27:12.000Z</time>
      </trkpt>
      <trkpt lat="46.18886" lon="-1.39062">
        <ele>50.79923</ele>
        <time>2023-05-28T14:27:13.000Z</time>
      </trkpt>
      <trkpt lat="46.18886" lon="-1.39067">
        <ele>50.82504</ele>
        <time>2023-05-28T14:27:14.000Z</time>
      </trkpt>
      <trkpt lat="46.18887" lon="-1.39071">
        <ele>50.89919</ele>
        <time>2023-05-28T14:27:15.000Z</time>
      </trkpt>
      <trkpt lat="46.18887" lon="-1.39076">
        <ele>50.93983</ele>
        <time>2023-05-28T14:27:16.000Z</time>
      </trkpt>
      <trkpt lat="46.18888" lon="-1.39081">
        <ele>50.93149</ele>
        <time>2023-05-28T14:27:17.000Z</time>
      </trkpt>
      <trkpt lat="46.18889" lon="-1.39086">
        <ele>50.90783</ele>
        <time>2023-05-28T14:27:18.000Z</time>
      </trkpt>
      <trkpt lat="46.18889" lon="-1.39091">
        <ele>50.87795</ele>
        <time>2023-05-28T14:27:19.000Z</time>
      </trkpt>
      <trkpt lat="46.1889" lon="-1.39096">
        <ele>50.88395</ele>
        <time>2023-05-28T14:27:20.000Z</time>
      </trkpt>
      <trkpt lat="46.1889" lon="-1.39101">
        <ele>50.88035</ele>
        <time>2023-05-28T14:27:21.000Z</time>
      </trkpt>
      <trkpt lat="46.1889" lon="-1.39107">
        <ele>50.80291</ele>
        <time>2023-05-28T14:27:22.000Z</time>
      </trkpt>
      <trkpt lat="46.1889" lon="-1.39112">
        <ele>50.74316</ele>
        <time>2023-05-28T14:27:23.000Z</time>
      </trkpt>
      <trkpt lat="46.1889" lon="-1.39117">
        <ele>50.71896</ele>
        <time>2023-05-28T14:27:24.000Z</time>
      </trkpt>
      <trkpt lat="46.1889" lon="-1.39122">
        <ele>50.72383</ele>
        <time>2023-05-28T14:27:25.000Z</time>
      </trkpt>
      <trkpt lat="46.1889" lon="-1.39128">
        <ele>50.71585</ele>
        <time>2023-05-28T14:27:26.000Z</time>
      </trkpt>
      <trkpt lat="46.1889" lon="-1.39133">
        <ele>50.70187</ele>
        <time>2023-05-28T14:27:27.000Z</time>
      </trkpt>
      <trkpt lat="46.1889" lon="-1.39137">
        <ele>50.70722</ele>
        <time>2023-05-28T14:27:28.000Z</time>
      </trkpt>
      <trkpt lat="46.1889" lon="-1.39142">
        <ele>50.79023</ele>
        <time>2023-05-28T14:27:29.000Z</time>
      </trkpt>
      <trkpt lat="46.18891" lon="-1.39147">
        <ele>50.85386</ele>
        <time>2023-05-28T14:27:30.000Z</time>
      </trkpt>
      <trkpt lat="46.18891" lon="-1.39152">
        <ele>50.912</ele>
        <time>2023-05-28T14:27:31.000Z</time>
      </trkpt>
      <trkpt lat="46.18891" lon="-1.39157">
        <ele>50.9706</ele>
        <time>2023-05-28T14:27:32.000Z</time>
      </trkpt>
      <trkpt lat="46.18892" lon="-1.39162">
        <ele>51.03746</ele>
        <time>2023-05-28T14:27:33.000Z</time>
      </trkpt>
      <trkpt lat="46.18892" lon="-1.39166">
        <ele>51.09447</ele>
        <time>2023-05-28T14:27:34.000Z</time>
      </trkpt>
      <trkpt lat="46.18893" lon="-1.39171">
        <ele>51.13623</ele>
        <time>2023-05-28T14:27:35.000Z</time>
      </trkpt>
      <trkpt lat="46.18893" lon="-1.39174">
        <ele>51.2016</ele>
        <time>2023-05-28T14:27:36.000Z</time>
      </trkpt>
      <trkpt lat="46.18893" lon="-1.39178">
        <ele>51.24107</ele>
        <time>2023-05-28T14:27:49.000Z</time>
      </trkpt>
      <trkpt lat="46.18893" lon="-1.39183">
        <ele>51.32947</ele>
        <time>2023-05-28T14:27:51.000Z</time>
      </trkpt>
      <trkpt lat="46.18893" lon="-1.39186">
        <ele>51.43102</ele>
        <time>2023-05-28T14:27:52.000Z</time>
      </trkpt>
      <trkpt lat="46.18893" lon="-1.3919">
        <ele>51.52266</ele>
        <time>2023-05-28T14:27:53.000Z</time>
      </trkpt>
      <trkpt lat="46.18893" lon="-1.39194">
        <ele>51.64403</ele>
        <time>2023-05-28T14:27:54.000Z</time>
      </trkpt>
      <trkpt lat="46.18894" lon="-1.39198">
        <ele>51.81307</ele>
        <time>2023-05-28T14:27:55.000Z</time>
      </trkpt>
      <trkpt lat="46.18894" lon="-1.39203">
        <ele>51.99812</ele>
        <time>2023-05-28T14:27:56.000Z</time>
      </trkpt>
      <trkpt lat="46.18894" lon="-1.39208">
        <ele>52.15983</ele>
        <time>2023-05-28T14:27:57.000Z</time>
      </trkpt>
      <trkpt lat="46.18895" lon="-1.39213">
        <ele>52.33332</ele>
        <time>2023-05-28T14:27:58.000Z</time>
      </trkpt>
      <trkpt lat="46.18895" lon="-1.39218">
        <ele>52.50419</ele>
        <time>2023-05-28T14:27:59.000Z</time>
      </trkpt>
      <trkpt lat="46.18895" lon="-1.39224">
        <ele>52.67498</ele>
        <time>2023-05-28T14:28:00.000Z</time>
      </trkpt>
      <trkpt lat="46.18896" lon="-1.3923">
        <ele>52.84194</ele>
        <time>2023-05-28T14:28:01.000Z</time>
      </trkpt>
      <trkpt lat="46.18896" lon="-1.39236">
        <ele>52.87434</ele>
        <time>2023-05-28T14:28:02.000Z</time>
      </trkpt>
      <trkpt lat="46.18897" lon="-1.39242">
        <ele>52.94279</ele>
        <time>2023-05-28T14:28:03.000Z</time>
      </trkpt>
      <trkpt lat="46.18898" lon="-1.39248">
        <ele>53.00681</ele>
        <time>2023-05-28T14:28:04.000Z</time>
      </trkpt>
      <trkpt lat="46.18899" lon="-1.39253">
        <ele>53.05289</ele>
        <time>2023-05-28T14:28:05.000Z</time>
      </trkpt>
      <trkpt lat="46.18901" lon="-1.39259">
        <ele>53.09795</ele>
        <time>2023-05-28T14:28:06.000Z</time>
      </trkpt>
      <trkpt lat="46.18902" lon="-1.39265">
        <ele>53.14262</ele>
        <time>2023-05-28T14:28:07.000Z</time>
      </trkpt>
      <trkpt lat="46.18903" lon="-1.39271">
        <ele>53.16635</ele>
        <time>2023-05-28T14:28:08.000Z</time>
      </trkpt>
      <trkpt lat="46.18904" lon="-1.39277">
        <ele>53.16244</ele>
        <time>2023-05-28T14:28:09.000Z</time>
      </trkpt>
      <trkpt lat="46.18906" lon="-1.39283">
        <ele>53.19985</ele>
        <time>2023-05-28T14:28:10.000Z</time>
      </trkpt>
      <trkpt lat="46.18908" lon="-1.39289">
        <ele>53.18105</ele>
        <time>2023-05-28T14:28:11.000Z</time>
      </trkpt>
      <trkpt lat="46.18911" lon="-1.39296">
        <ele>53.13578</ele>
        <time>2023-05-28T14:28:12.000Z</time>
      </trkpt>
      <trkpt lat="46.18912" lon="-1.39302">
        <ele>53.07199</ele>
        <time>2023-05-28T14:28:13.000Z</time>
      </trkpt>
      <trkpt lat="46.18914" lon="-1.39309">
        <ele>53.02182</ele>
        <time>2023-05-28T14:28:14.000Z</time>
      </trkpt>
      <trkpt lat="46.18916" lon="-1.39315">
        <ele>52.96937</ele>
        <time>2023-05-28T14:28:15.000Z</time>
      </trkpt>
      <trkpt lat="46.18917" lon="-1.39322">
        <ele>52.91231</ele>
        <time>2023-05-28T14:28:16.000Z</time>
      </trkpt>
      <trkpt lat="46.18919" lon="-1.39327">
        <ele>52.85413</ele>
        <time>2023-05-28T14:28:17.000Z</time>
      </trkpt>
      <trkpt lat="46.18921" lon="-1.39334">
        <ele>52.79407</ele>
        <time>2023-05-28T14:28:18.000Z</time>
      </trkpt>
      <trkpt lat="46.18923" lon="-1.3934">
        <ele>52.70029</ele>
        <time>2023-05-28T14:28:19.000Z</time>
      </trkpt>
      <trkpt lat="46.18925" lon="-1.39347">
        <ele>52.59502</ele>
        <time>2023-05-28T14:28:20.000Z</time>
      </trkpt>
      <trkpt lat="46.18928" lon="-1.39353">
        <ele>52.44229</ele>
        <time>2023-05-28T14:28:21.000Z</time>
      </trkpt>
      <trkpt lat="46.1893" lon="-1.39359">
        <ele>52.4334</ele>
        <time>2023-05-28T14:28:22.000Z</time>
      </trkpt>
      <trkpt lat="46.18932" lon="-1.39365">
        <ele>52.38133</ele>
        <time>2023-05-28T14:28:23.000Z</time>
      </trkpt>
      <trkpt lat="46.18934" lon="-1.39371">
        <ele>52.34565</ele>
        <time>2023-05-28T14:28:24.000Z</time>
      </trkpt>
      <trkpt lat="46.18935" lon="-1.39377">
        <ele>52.30766</ele>
        <time>2023-05-28T14:28:25.000Z</time>
      </trkpt>
      <trkpt lat="46.18937" lon="-1.39383">
        <ele>52.25787</ele>
        <time>2023-05-28T14:28:26.000Z</time>
      </trkpt>
      <trkpt lat="46.18938" lon="-1.39388">
        <ele>52.23849</ele>
        <time>2023-05-28T14:28:27.000Z</time>
      </trkpt>
      <trkpt lat="46.18941" lon="-1.39392">
        <ele>52.15493</ele>
        <time>2023-05-28T14:28:28.000Z</time>
      </trkpt>
      <trkpt lat="46.18944" lon="-1.39397">
        <ele>52.09074</ele>
        <time>2023-05-28T14:28:29.000Z</time>
      </trkpt>
      <trkpt lat="46.18946" lon="-1.39404">
        <ele>52.0456</ele>
        <time>2023-05-28T14:28:30.000Z</time>
      </trkpt>
      <trkpt lat="46.18948" lon="-1.3941">
        <ele>52.02686</ele>
        <time>2023-05-28T14:28:31.000Z</time>
      </trkpt>
      <trkpt lat="46.18951" lon="-1.39416">
        <ele>52.02311</ele>
        <time>2023-05-28T14:28:32.000Z</time>
      </trkpt>
      <trkpt lat="46.18953" lon="-1.39422">
        <ele>52.02684</ele>
        <time>2023-05-28T14:28:33.000Z</time>
      </trkpt>
      <trkpt lat="46.18956" lon="-1.39428">
        <ele>52.00287</ele>
        <time>2023-05-28T14:28:34.000Z</time>
      </trkpt>
      <trkpt lat="46.18958" lon="-1.39433">
        <ele>51.94308</ele>
        <time>2023-05-28T14:28:35.000Z</time>
      </trkpt>
      <trkpt lat="46.1896" lon="-1.39439">
        <ele>51.87331</ele>
        <time>2023-05-28T14:28:36.000Z</time>
      </trkpt>
      <trkpt lat="46.18963" lon="-1.39446">
        <ele>51.8054</ele>
        <time>2023-05-28T14:28:37.000Z</time>
      </trkpt>
      <trkpt lat="46.18965" lon="-1.39453">
        <ele>51.69231</ele>
        <time>2023-05-28T14:28:38.000Z</time>
      </trkpt>
      <trkpt lat="46.18967" lon="-1.3946">
        <ele>51.62589</ele>
        <time>2023-05-28T14:28:39.000Z</time>
      </trkpt>
      <trkpt lat="46.18969" lon="-1.39466">
        <ele>51.59692</ele>
        <time>2023-05-28T14:28:40.000Z</time>
      </trkpt>
      <trkpt lat="46.18971" lon="-1.39472">
        <ele>51.586</ele>
        <time>2023-05-28T14:28:41.000Z</time>
      </trkpt>
      <trkpt lat="46.18974" lon="-1.39477">
        <ele>51.49543</ele>
        <time>2023-05-28T14:28:42.000Z</time>
      </trkpt>
      <trkpt lat="46.18976" lon="-1.39484">
        <ele>51.44488</ele>
        <time>2023-05-28T14:28:43.000Z</time>
      </trkpt>
      <trkpt lat="46.18979" lon="-1.3949">
        <ele>51.36171</ele>
        <time>2023-05-28T14:28:44.000Z</time>
      </trkpt>
      <trkpt lat="46.18981" lon="-1.39497">
        <ele>51.28194</ele>
        <time>2023-05-28T14:28:45.000Z</time>
      </trkpt>
      <trkpt lat="46.18983" lon="-1.39503">
        <ele>51.22149</ele>
        <time>2023-05-28T14:28:46.000Z</time>
      </trkpt>
      <trkpt lat="46.18986" lon="-1.3951">
        <ele>51.13147</ele>
        <time>2023-05-28T14:28:47.000Z</time>
      </trkpt>
      <trkpt lat="46.18989" lon="-1.39515">
        <ele>51.06138</ele>
        <time>2023-05-28T14:28:48.000Z</time>
      </trkpt>
      <trkpt lat="46.18991" lon="-1.3952">
        <ele>50.98845</ele>
        <time>2023-05-28T14:28:49.000Z</time>
      </trkpt>
      <trkpt lat="46.18993" lon="-1.39527">
        <ele>50.92883</ele>
        <time>2023-05-28T14:28:50.000Z</time>
      </trkpt>
      <trkpt lat="46.18996" lon="-1.39533">
        <ele>50.86686</ele>
        <time>2023-05-28T14:28:51.000Z</time>
      </trkpt>
      <trkpt lat="46.18999" lon="-1.39539">
        <ele>50.8386</ele>
        <time>2023-05-28T14:28:52.000Z</time>
      </trkpt>
      <trkpt lat="46.19002" lon="-1.39546">
        <ele>50.80735</ele>
        <time>2023-05-28T14:28:53.000Z</time>
      </trkpt>
      <trkpt lat="46.19005" lon="-1.39553">
        <ele>50.7823</ele>
        <time>2023-05-28T14:28:54.000Z</time>
      </trkpt>
      <trkpt lat="46.19008" lon="-1.39559">
        <ele>50.79148</ele>
        <time>2023-05-28T14:28:55.000Z</time>
      </trkpt>
      <trkpt lat="46.19011" lon="-1.39565">
        <ele>50.81729</ele>
        <time>2023-05-28T14:28:56.000Z</time>
      </trkpt>
      <trkpt lat="46.19013" lon="-1.39571">
        <ele>50.8315</ele>
        <time>2023-05-28T14:28:57.000Z</time>
      </trkpt>
      <trkpt lat="46.19016" lon="-1.39578">
        <ele>50.90935</ele>
        <time>2023-05-28T14:28:58.000Z</time>
      </trkpt>
      <trkpt lat="46.19018" lon="-1.39584">
        <ele>51.00884</ele>
        <time>2023-05-28T14:28:59.000Z</time>
      </trkpt>
      <trkpt lat="46.19022" lon="-1.39592">
        <ele>51.0263</ele>
        <time>2023-05-28T14:29:00.000Z</time>
      </trkpt>
      <trkpt lat="46.19025" lon="-1.39598">
        <ele>51.07112</ele>
        <time>2023-05-28T14:29:01.000Z</time>
      </trkpt>
      <trkpt lat="46.19027" lon="-1.39605">
        <ele>51.09261</ele>
        <time>2023-05-28T14:29:02.000Z</time>
      </trkpt>
      <trkpt lat="46.1903" lon="-1.39609">
        <ele>51.11459</ele>
        <time>2023-05-28T14:29:03.000Z</time>
      </trkpt>
      <trkpt lat="46.19034" lon="-1.39614">
        <ele>51.1408</ele>
        <time>2023-05-28T14:29:04.000Z</time>
      </trkpt>
      <trkpt lat="46.19036" lon="-1.39619">
        <ele>51.2057</ele>
        <time>2023-05-28T14:29:05.000Z</time>
      </trkpt>
      <trkpt lat="46.19037" lon="-1.39624">
        <ele>51.25938</ele>
        <time>2023-05-28T14:29:06.000Z</time>
      </trkpt>
      <trkpt lat="46.19038" lon="-1.3963">
        <ele>51.2851</ele>
        <time>2023-05-28T14:29:07.000Z</time>
      </trkpt>
      <trkpt lat="46.19039" lon="-1.39636">
        <ele>51.33477</ele>
        <time>2023-05-28T14:29:08.000Z</time>
      </trkpt>
      <trkpt lat="46.19039" lon="-1.3964">
        <ele>51.43213</ele>
        <time>2023-05-28T14:29:09.000Z</time>
      </trkpt>
      <trkpt lat="46.1904" lon="-1.39646">
        <ele>51.52142</ele>
        <time>2023-05-28T14:29:10.000Z</time>
      </trkpt>
      <trkpt lat="46.19042" lon="-1.39652">
        <ele>51.62443</ele>
        <time>2023-05-28T14:29:11.000Z</time>
      </trkpt>
      <trkpt lat="46.19045" lon="-1.39658">
        <ele>51.68203</ele>
        <time>2023-05-28T14:29:12.000Z</time>
      </trkpt>
      <trkpt lat="46.19046" lon="-1.39663">
        <ele>51.73608</ele>
        <time>2023-05-28T14:29:13.000Z</time>
      </trkpt>
      <trkpt lat="46.19048" lon="-1.39671">
        <ele>51.78624</ele>
        <time>2023-05-28T14:29:14.000Z</time>
      </trkpt>
      <trkpt lat="46.1905" lon="-1.39676">
        <ele>51.833</ele>
        <time>2023-05-28T14:29:15.000Z</time>
      </trkpt>
      <trkpt lat="46.19052" lon="-1.39683">
        <ele>51.88079</ele>
        <time>2023-05-28T14:29:16.000Z</time>
      </trkpt>
      <trkpt lat="46.19053" lon="-1.39689">
        <ele>51.94672</ele>
        <time>2023-05-28T14:29:17.000Z</time>
      </trkpt>
      <trkpt lat="46.19054" lon="-1.39694">
        <ele>51.99387</ele>
        <time>2023-05-28T14:29:18.000Z</time>
      </trkpt>
      <trkpt lat="46.19057" lon="-1.397">
        <ele>52.03441</ele>
        <time>2023-05-28T14:29:19.000Z</time>
      </trkpt>
      <trkpt lat="46.19059" lon="-1.39706">
        <ele>52.10334</ele>
        <time>2023-05-28T14:29:20.000Z</time>
      </trkpt>
      <trkpt lat="46.1906" lon="-1.39712">
        <ele>52.14783</ele>
        <time>2023-05-28T14:29:21.000Z</time>
      </trkpt>
      <trkpt lat="46.19063" lon="-1.39719">
        <ele>52.23647</ele>
        <time>2023-05-28T14:29:22.000Z</time>
      </trkpt>
      <trkpt lat="46.19065" lon="-1.39724">
        <ele>52.29831</ele>
        <time>2023-05-28T14:29:23.000Z</time>
      </trkpt>
      <trkpt lat="46.19067" lon="-1.39731">
        <ele>52.3693</ele>
        <time>2023-05-28T14:29:24.000Z</time>
      </trkpt>
      <trkpt lat="46.1907" lon="-1.39737">
        <ele>52.41166</ele>
        <time>2023-05-28T14:29:25.000Z</time>
      </trkpt>
      <trkpt lat="46.19072" lon="-1.39744">
        <ele>52.42119</ele>
        <time>2023-05-28T14:29:26.000Z</time>
      </trkpt>
      <trkpt lat="46.19074" lon="-1.3975">
        <ele>52.45595</ele>
        <time>2023-05-28T14:29:27.000Z</time>
      </trkpt>
      <trkpt lat="46.19077" lon="-1.39756">
        <ele>52.50616</ele>
        <time>2023-05-28T14:29:28.000Z</time>
      </trkpt>
      <trkpt lat="46.19079" lon="-1.39763">
        <ele>52.51711</ele>
        <time>2023-05-28T14:29:29.000Z</time>
      </trkpt>
      <trkpt lat="46.19081" lon="-1.39769">
        <ele>52.51649</ele>
        <time>2023-05-28T14:29:30.000Z</time>
      </trkpt>
      <trkpt lat="46.19083" lon="-1.39775">
        <ele>52.51357</ele>
        <time>2023-05-28T14:29:31.000Z</time>
      </trkpt>
      <trkpt lat="46.19085" lon="-1.39781">
        <ele>52.54894</ele>
        <time>2023-05-28T14:29:32.000Z</time>
      </trkpt>
      <trkpt lat="46.19088" lon="-1.39787">
        <ele>52.57288</ele>
        <time>2023-05-28T14:29:33.000Z</time>
      </trkpt>
      <trkpt lat="46.1909" lon="-1.39793">
        <ele>52.58041</ele>
        <time>2023-05-28T14:29:34.000Z</time>
      </trkpt>
      <trkpt lat="46.19092" lon="-1.39799">
        <ele>52.58426</ele>
        <time>2023-05-28T14:29:35.000Z</time>
      </trkpt>
      <trkpt lat="46.19094" lon="-1.39805">
        <ele>52.58601</ele>
        <time>2023-05-28T14:29:36.000Z</time>
      </trkpt>
      <trkpt lat="46.19097" lon="-1.39811">
        <ele>52.59428</ele>
        <time>2023-05-28T14:29:37.000Z</time>
      </trkpt>
      <trkpt lat="46.19099" lon="-1.39817">
        <ele>52.57838</ele>
        <time>2023-05-28T14:29:38.000Z</time>
      </trkpt>
      <trkpt lat="46.19101" lon="-1.39823">
        <ele>52.55159</ele>
        <time>2023-05-28T14:29:39.000Z</time>
      </trkpt>
      <trkpt lat="46.19103" lon="-1.39828">
        <ele>52.54015</ele>
        <time>2023-05-28T14:29:40.000Z</time>
      </trkpt>
      <trkpt lat="46.19105" lon="-1.39834">
        <ele>52.55794</ele>
        <time>2023-05-28T14:29:41.000Z</time>
      </trkpt>
      <trkpt lat="46.19108" lon="-1.3984">
        <ele>52.52197</ele>
        <time>2023-05-28T14:29:42.000Z</time>
      </trkpt>
      <trkpt lat="46.1911" lon="-1.39846">
        <ele>52.48515</ele>
        <time>2023-05-28T14:29:43.000Z</time>
      </trkpt>
      <trkpt lat="46.19113" lon="-1.39854">
        <ele>52.44835</ele>
        <time>2023-05-28T14:29:44.000Z</time>
      </trkpt>
      <trkpt lat="46.19115" lon="-1.3986">
        <ele>52.41913</ele>
        <time>2023-05-28T14:29:45.000Z</time>
      </trkpt>
      <trkpt lat="46.19117" lon="-1.39867">
        <ele>52.42078</ele>
        <time>2023-05-28T14:29:46.000Z</time>
      </trkpt>
      <trkpt lat="46.1912" lon="-1.39875">
        <ele>52.42936</ele>
        <time>2023-05-28T14:29:47.000Z</time>
      </trkpt>
      <trkpt lat="46.19123" lon="-1.39882">
        <ele>52.45961</ele>
        <time>2023-05-28T14:29:48.000Z</time>
      </trkpt>
      <trkpt lat="46.19124" lon="-1.39889">
        <ele>52.49611</ele>
        <time>2023-05-28T14:29:49.000Z</time>
      </trkpt>
      <trkpt lat="46.19127" lon="-1.39896">
        <ele>52.55152</ele>
        <time>2023-05-28T14:29:50.000Z</time>
      </trkpt>
      <trkpt lat="46.19129" lon="-1.39904">
        <ele>52.59186</ele>
        <time>2023-05-28T14:29:51.000Z</time>
      </trkpt>
      <trkpt lat="46.19132" lon="-1.39912">
        <ele>52.59439</ele>
        <time>2023-05-28T14:29:52.000Z</time>
      </trkpt>
      <trkpt lat="46.19134" lon="-1.39919">
        <ele>52.57753</ele>
        <time>2023-05-28T14:29:53.000Z</time>
      </trkpt>
      <trkpt lat="46.19137" lon="-1.39928">
        <ele>52.56527</ele>
        <time>2023-05-28T14:29:54.000Z</time>
      </trkpt>
      <trkpt lat="46.19139" lon="-1.39936">
        <ele>52.54932</ele>
        <time>2023-05-28T14:29:55.000Z</time>
      </trkpt>
      <trkpt lat="46.19142" lon="-1.39944">
        <ele>52.52817</ele>
        <time>2023-05-28T14:29:56.000Z</time>
      </trkpt>
      <trkpt lat="46.19145" lon="-1.39951">
        <ele>52.44878</ele>
        <time>2023-05-28T14:29:57.000Z</time>
      </trkpt>
      <trkpt lat="46.19147" lon="-1.39958">
        <ele>52.37724</ele>
        <time>2023-05-28T14:29:58.000Z</time>
      </trkpt>
      <trkpt lat="46.1915" lon="-1.39964">
        <ele>52.25397</ele>
        <time>2023-05-28T14:29:59.000Z</time>
      </trkpt>
      <trkpt lat="46.19152" lon="-1.39972">
        <ele>52.14732</ele>
        <time>2023-05-28T14:30:00.000Z</time>
      </trkpt>
      <trkpt lat="46.19154" lon="-1.3998">
        <ele>52.01438</ele>
        <time>2023-05-28T14:30:01.000Z</time>
      </trkpt>
      <trkpt lat="46.19156" lon="-1.39988">
        <ele>51.90279</ele>
        <time>2023-05-28T14:30:02.000Z</time>
      </trkpt>
      <trkpt lat="46.19158" lon="-1.39995">
        <ele>51.80382</ele>
        <time>2023-05-28T14:30:03.000Z</time>
      </trkpt>
      <trkpt lat="46.1916" lon="-1.40004">
        <ele>51.72156</ele>
        <time>2023-05-28T14:30:04.000Z</time>
      </trkpt>
      <trkpt lat="46.19162" lon="-1.40012">
        <ele>51.63317</ele>
        <time>2023-05-28T14:30:05.000Z</time>
      </trkpt>
      <trkpt lat="46.19165" lon="-1.4002">
        <ele>51.55736</ele>
        <time>2023-05-28T14:30:06.000Z</time>
      </trkpt>
      <trkpt lat="46.19167" lon="-1.40028">
        <ele>51.4317</ele>
        <time>2023-05-28T14:30:07.000Z</time>
      </trkpt>
      <trkpt lat="46.19169" lon="-1.40035">
        <ele>51.2834</ele>
        <time>2023-05-28T14:30:08.000Z</time>
      </trkpt>
      <trkpt lat="46.19172" lon="-1.40043">
        <ele>51.13922</ele>
        <time>2023-05-28T14:30:09.000Z</time>
      </trkpt>
      <trkpt lat="46.19173" lon="-1.40051">
        <ele>50.99629</ele>
        <time>2023-05-28T14:30:10.000Z</time>
      </trkpt>
      <trkpt lat="46.19175" lon="-1.40059">
        <ele>50.86272</ele>
        <time>2023-05-28T14:30:11.000Z</time>
      </trkpt>
      <trkpt lat="46.19177" lon="-1.40067">
        <ele>50.75375</ele>
        <time>2023-05-28T14:30:12.000Z</time>
      </trkpt>
      <trkpt lat="46.19179" lon="-1.40075">
        <ele>50.69747</ele>
        <time>2023-05-28T14:30:13.000Z</time>
      </trkpt>
      <trkpt lat="46.19181" lon="-1.40084">
        <ele>50.66205</ele>
        <time>2023-05-28T14:30:14.000Z</time>
      </trkpt>
      <trkpt lat="46.19183" lon="-1.40092">
        <ele>50.62667</ele>
        <time>2023-05-28T14:30:15.000Z</time>
      </trkpt>
      <trkpt lat="46.19185" lon="-1.401">
        <ele>50.63931</ele>
        <time>2023-05-28T14:30:16.000Z</time>
      </trkpt>
      <trkpt lat="46.19187" lon="-1.40108">
        <ele>50.67636</ele>
        <time>2023-05-28T14:30:17.000Z</time>
      </trkpt>
      <trkpt lat="46.19189" lon="-1.40115">
        <ele>50.70993</ele>
        <time>2023-05-28T14:30:18.000Z</time>
      </trkpt>
      <trkpt lat="46.19192" lon="-1.40122">
        <ele>50.76645</ele>
        <time>2023-05-28T14:30:19.000Z</time>
      </trkpt>
      <trkpt lat="46.19193" lon="-1.40131">
        <ele>50.81649</ele>
        <time>2023-05-28T14:30:20.000Z</time>
      </trkpt>
      <trkpt lat="46.19195" lon="-1.40138">
        <ele>50.87105</ele>
        <time>2023-05-28T14:30:21.000Z</time>
      </trkpt>
      <trkpt lat="46.19197" lon="-1.40144">
        <ele>50.95681</ele>
        <time>2023-05-28T14:30:22.000Z</time>
      </trkpt>
      <trkpt lat="46.19199" lon="-1.40151">
        <ele>50.99657</ele>
        <time>2023-05-28T14:30:23.000Z</time>
      </trkpt>
      <trkpt lat="46.192" lon="-1.40158">
        <ele>51.03971</ele>
        <time>2023-05-28T14:30:24.000Z</time>
      </trkpt>
      <trkpt lat="46.19201" lon="-1.40163">
        <ele>51.091</ele>
        <time>2023-05-28T14:30:25.000Z</time>
      </trkpt>
      <trkpt lat="46.19202" lon="-1.40169">
        <ele>51.13579</ele>
        <time>2023-05-28T14:30:26.000Z</time>
      </trkpt>
      <trkpt lat="46.19204" lon="-1.40174">
        <ele>51.22041</ele>
        <time>2023-05-28T14:30:27.000Z</time>
      </trkpt>
      <trkpt lat="46.19206" lon="-1.40178">
        <ele>51.29078</ele>
        <time>2023-05-28T14:30:28.000Z</time>
      </trkpt>
      <trkpt lat="46.19207" lon="-1.40183">
        <ele>51.32794</ele>
        <time>2023-05-28T14:30:29.000Z</time>
      </trkpt>
      <trkpt lat="46.19209" lon="-1.40188">
        <ele>51.32515</ele>
        <time>2023-05-28T14:30:30.000Z</time>
      </trkpt>
      <trkpt lat="46.19212" lon="-1.40194">
        <ele>51.26888</ele>
        <time>2023-05-28T14:30:31.000Z</time>
      </trkpt>
      <trkpt lat="46.19212" lon="-1.40198">
        <ele>51.21636</ele>
        <time>2023-05-28T14:30:32.000Z</time>
      </trkpt>
      <trkpt lat="46.19213" lon="-1.40202">
        <ele>51.1603</ele>
        <time>2023-05-28T14:30:33.000Z</time>
      </trkpt>
      <trkpt lat="46.19214" lon="-1.40207">
        <ele>51.08482</ele>
        <time>2023-05-28T14:30:34.000Z</time>
      </trkpt>
      <trkpt lat="46.19215" lon="-1.40212">
        <ele>51.00165</ele>
        <time>2023-05-28T14:30:35.000Z</time>
      </trkpt>
      <trkpt lat="46.19216" lon="-1.40217">
        <ele>50.85777</ele>
        <time>2023-05-28T14:30:36.000Z</time>
      </trkpt>
      <trkpt lat="46.19218" lon="-1.40222">
        <ele>50.74591</ele>
        <time>2023-05-28T14:30:37.000Z</time>
      </trkpt>
      <trkpt lat="46.19219" lon="-1.40226">
        <ele>50.63495</ele>
        <time>2023-05-28T14:30:38.000Z</time>
      </trkpt>
      <trkpt lat="46.1922" lon="-1.40231">
        <ele>50.55231</ele>
        <time>2023-05-28T14:30:39.000Z</time>
      </trkpt>
      <trkpt lat="46.19222" lon="-1.40236">
        <ele>50.45499</ele>
        <time>2023-05-28T14:30:40.000Z</time>
      </trkpt>
      <trkpt lat="46.19223" lon="-1.40241">
        <ele>50.35951</ele>
        <time>2023-05-28T14:30:41.000Z</time>
      </trkpt>
      <trkpt lat="46.19224" lon="-1.40245">
        <ele>50.21434</ele>
        <time>2023-05-28T14:30:42.000Z</time>
      </trkpt>
      <trkpt lat="46.19225" lon="-1.4025">
        <ele>50.09611</ele>
        <time>2023-05-28T14:30:43.000Z</time>
      </trkpt>
      <trkpt lat="46.19227" lon="-1.40255">
        <ele>49.99087</ele>
        <time>2023-05-28T14:30:44.000Z</time>
      </trkpt>
      <trkpt lat="46.19228" lon="-1.4026">
        <ele>49.905</ele>
        <time>2023-05-28T14:30:45.000Z</time>
      </trkpt>
      <trkpt lat="46.19228" lon="-1.40265">
        <ele>49.78889</ele>
        <time>2023-05-28T14:30:46.000Z</time>
      </trkpt>
      <trkpt lat="46.19229" lon="-1.4027">
        <ele>49.68544</ele>
        <time>2023-05-28T14:30:47.000Z</time>
      </trkpt>
      <trkpt lat="46.19231" lon="-1.40274">
        <ele>49.58304</ele>
        <time>2023-05-28T14:30:48.000Z</time>
      </trkpt>
      <trkpt lat="46.19232" lon="-1.40279">
        <ele>49.51242</ele>
        <time>2023-05-28T14:30:49.000Z</time>
      </trkpt>
      <trkpt lat="46.19234" lon="-1.40284">
        <ele>49.47649</ele>
        <time>2023-05-28T14:30:50.000Z</time>
      </trkpt>
      <trkpt lat="46.19235" lon="-1.40289">
        <ele>49.51163</ele>
        <time>2023-05-28T14:30:51.000Z</time>
      </trkpt>
      <trkpt lat="46.19236" lon="-1.40294">
        <ele>49.55006</ele>
        <time>2023-05-28T14:30:52.000Z</time>
      </trkpt>
      <trkpt lat="46.19237" lon="-1.40299">
        <ele>49.56419</ele>
        <time>2023-05-28T14:30:53.000Z</time>
      </trkpt>
      <trkpt lat="46.19239" lon="-1.40304">
        <ele>49.57053</ele>
        <time>2023-05-28T14:30:54.000Z</time>
      </trkpt>
      <trkpt lat="46.1924" lon="-1.40309">
        <ele>49.60142</ele>
        <time>2023-05-28T14:30:55.000Z</time>
      </trkpt>
      <trkpt lat="46.19242" lon="-1.40314">
        <ele>49.67806</ele>
        <time>2023-05-28T14:30:56.000Z</time>
      </trkpt>
      <trkpt lat="46.19243" lon="-1.40319">
        <ele>49.74346</ele>
        <time>2023-05-28T14:30:57.000Z</time>
      </trkpt>
      <trkpt lat="46.19244" lon="-1.40324">
        <ele>49.8092</ele>
        <time>2023-05-28T14:30:58.000Z</time>
      </trkpt>
      <trkpt lat="46.19245" lon="-1.40329">
        <ele>49.87664</ele>
        <time>2023-05-28T14:30:59.000Z</time>
      </trkpt>
      <trkpt lat="46.19246" lon="-1.40334">
        <ele>49.94764</ele>
        <time>2023-05-28T14:31:00.000Z</time>
      </trkpt>
      <trkpt lat="46.19248" lon="-1.40339">
        <ele>50.0275</ele>
        <time>2023-05-28T14:31:01.000Z</time>
      </trkpt>
      <trkpt lat="46.19249" lon="-1.40343">
        <ele>50.11541</ele>
        <time>2023-05-28T14:31:02.000Z</time>
      </trkpt>
      <trkpt lat="46.1925" lon="-1.40348">
        <ele>50.22272</ele>
        <time>2023-05-28T14:31:03.000Z</time>
      </trkpt>
      <trkpt lat="46.19251" lon="-1.40353">
        <ele>50.30141</ele>
        <time>2023-05-28T14:31:04.000Z</time>
      </trkpt>
      <trkpt lat="46.19253" lon="-1.40358">
        <ele>50.36366</ele>
        <time>2023-05-28T14:31:05.000Z</time>
      </trkpt>
      <trkpt lat="46.19254" lon="-1.40363">
        <ele>50.44161</ele>
        <time>2023-05-28T14:31:06.000Z</time>
      </trkpt>
      <trkpt lat="46.19255" lon="-1.40368">
        <ele>50.51253</ele>
        <time>2023-05-28T14:31:07.000Z</time>
      </trkpt>
      <trkpt lat="46.19256" lon="-1.40373">
        <ele>50.59941</ele>
        <time>2023-05-28T14:31:08.000Z</time>
      </trkpt>
      <trkpt lat="46.19257" lon="-1.40378">
        <ele>50.67526</ele>
        <time>2023-05-28T14:31:09.000Z</time>
      </trkpt>
      <trkpt lat="46.19259" lon="-1.40383">
        <ele>50.73966</ele>
        <time>2023-05-28T14:31:10.000Z</time>
      </trkpt>
      <trkpt lat="46.1926" lon="-1.40388">
        <ele>50.77965</ele>
        <time>2023-05-28T14:31:11.000Z</time>
      </trkpt>
      <trkpt lat="46.19262" lon="-1.40393">
        <ele>50.80356</ele>
        <time>2023-05-28T14:31:12.000Z</time>
      </trkpt>
      <trkpt lat="46.19263" lon="-1.40398">
        <ele>50.83028</ele>
        <time>2023-05-28T14:31:13.000Z</time>
      </trkpt>
      <trkpt lat="46.19264" lon="-1.40403">
        <ele>50.86882</ele>
        <time>2023-05-28T14:31:14.000Z</time>
      </trkpt>
      <trkpt lat="46.19265" lon="-1.40408">
        <ele>50.89375</ele>
        <time>2023-05-28T14:31:15.000Z</time>
      </trkpt>
      <trkpt lat="46.19266" lon="-1.40413">
        <ele>50.89088</ele>
        <time>2023-05-28T14:31:16.000Z</time>
      </trkpt>
      <trkpt lat="46.19267" lon="-1.40417">
        <ele>50.88351</ele>
        <time>2023-05-28T14:31:17.000Z</time>
      </trkpt>
      <trkpt lat="46.19268" lon="-1.40422">
        <ele>50.87162</ele>
        <time>2023-05-28T14:31:18.000Z</time>
      </trkpt>
      <trkpt lat="46.19269" lon="-1.40426">
        <ele>50.85131</ele>
        <time>2023-05-28T14:31:19.000Z</time>
      </trkpt>
      <trkpt lat="46.1927" lon="-1.4043">
        <ele>50.81284</ele>
        <time>2023-05-28T14:31:20.000Z</time>
      </trkpt>
      <trkpt lat="46.19271" lon="-1.40434">
        <ele>50.76558</ele>
        <time>2023-05-28T14:31:21.000Z</time>
      </trkpt>
      <trkpt lat="46.19272" lon="-1.40437">
        <ele>50.74503</ele>
        <time>2023-05-28T14:31:22.000Z</time>
      </trkpt>
      <trkpt lat="46.19273" lon="-1.40441">
        <ele>50.72525</ele>
        <time>2023-05-28T14:31:23.000Z</time>
      </trkpt>
      <trkpt lat="46.19273" lon="-1.40444">
        <ele>50.71983</ele>
        <time>2023-05-28T14:31:24.000Z</time>
      </trkpt>
      <trkpt lat="46.19274" lon="-1.40447">
        <ele>50.72032</ele>
        <time>2023-05-28T14:31:25.000Z</time>
      </trkpt>
      <trkpt lat="46.19275" lon="-1.40451">
        <ele>50.73804</ele>
        <time>2023-05-28T14:31:26.000Z</time>
      </trkpt>
      <trkpt lat="46.19276" lon="-1.40454">
        <ele>50.74789</ele>
        <time>2023-05-28T14:31:27.000Z</time>
      </trkpt>
      <trkpt lat="46.19277" lon="-1.40457">
        <ele>50.76366</ele>
        <time>2023-05-28T14:31:28.000Z</time>
      </trkpt>
      <trkpt lat="46.19277" lon="-1.4046">
        <ele>50.7875</ele>
        <time>2023-05-28T14:31:29.000Z</time>
      </trkpt>
      <trkpt lat="46.19278" lon="-1.40463">
        <ele>50.81088</ele>
        <time>2023-05-28T14:31:30.000Z</time>
      </trkpt>
      <trkpt lat="46.19279" lon="-1.40465">
        <ele>50.82312</ele>
        <time>2023-05-28T14:31:33.000Z</time>
      </trkpt>
      <trkpt lat="46.19281" lon="-1.40468">
        <ele>50.74238</ele>
        <time>2023-05-28T14:32:34.000Z</time>
      </trkpt>
      <trkpt lat="46.19282" lon="-1.40472">
        <ele>50.65742</ele>
        <time>2023-05-28T14:32:36.000Z</time>
      </trkpt>
      <trkpt lat="46.19282" lon="-1.40475">
        <ele>50.57946</ele>
        <time>2023-05-28T14:32:37.000Z</time>
      </trkpt>
      <trkpt lat="46.19283" lon="-1.40478">
        <ele>50.49636</ele>
        <time>2023-05-28T14:32:38.000Z</time>
      </trkpt>
      <trkpt lat="46.19283" lon="-1.40481">
        <ele>50.42024</ele>
        <time>2023-05-28T14:32:39.000Z</time>
      </trkpt>
      <trkpt lat="46.19283" lon="-1.40485">
        <ele>50.33743</ele>
        <time>2023-05-28T14:32:40.000Z</time>
      </trkpt>
      <trkpt lat="46.19284" lon="-1.40489">
        <ele>50.24692</ele>
        <time>2023-05-28T14:32:41.000Z</time>
      </trkpt>
      <trkpt lat="46.19285" lon="-1.40493">
        <ele>50.14114</ele>
        <time>2023-05-28T14:32:42.000Z</time>
      </trkpt>
      <trkpt lat="46.19286" lon="-1.40497">
        <ele>50.06205</ele>
        <time>2023-05-28T14:32:43.000Z</time>
      </trkpt>
      <trkpt lat="46.19288" lon="-1.40502">
        <ele>49.99478</ele>
        <time>2023-05-28T14:32:44.000Z</time>
      </trkpt>
      <trkpt lat="46.19289" lon="-1.40507">
        <ele>49.89819</ele>
        <time>2023-05-28T14:32:45.000Z</time>
      </trkpt>
      <trkpt lat="46.1929" lon="-1.40512">
        <ele>49.81431</ele>
        <time>2023-05-28T14:32:46.000Z</time>
      </trkpt>
      <trkpt lat="46.19291" lon="-1.40517">
        <ele>49.70882</ele>
        <time>2023-05-28T14:32:47.000Z</time>
      </trkpt>
      <trkpt lat="46.19293" lon="-1.40523">
        <ele>49.59578</ele>
        <time>2023-05-28T14:32:48.000Z</time>
      </trkpt>
      <trkpt lat="46.19294" lon="-1.40529">
        <ele>49.44074</ele>
        <time>2023-05-28T14:32:49.000Z</time>
      </trkpt>
      <trkpt lat="46.19295" lon="-1.40535">
        <ele>49.31271</ele>
        <time>2023-05-28T14:32:50.000Z</time>
      </trkpt>
      <trkpt lat="46.19296" lon="-1.40543">
        <ele>49.17626</ele>
        <time>2023-05-28T14:32:51.000Z</time>
      </trkpt>
      <trkpt lat="46.19299" lon="-1.4055">
        <ele>49.03334</ele>
        <time>2023-05-28T14:32:52.000Z</time>
      </trkpt>
      <trkpt lat="46.19301" lon="-1.40559">
        <ele>48.88648</ele>
        <time>2023-05-28T14:32:53.000Z</time>
      </trkpt>
      <trkpt lat="46.19304" lon="-1.40568">
        <ele>48.77864</ele>
        <time>2023-05-28T14:32:54.000Z</time>
      </trkpt>
      <trkpt lat="46.19306" lon="-1.40577">
        <ele>48.74395</ele>
        <time>2023-05-28T14:32:55.000Z</time>
      </trkpt>
      <trkpt lat="46.19308" lon="-1.40586">
        <ele>48.73978</ele>
        <time>2023-05-28T14:32:56.000Z</time>
      </trkpt>
      <trkpt lat="46.1931" lon="-1.40594">
        <ele>48.73335</ele>
        <time>2023-05-28T14:32:57.000Z</time>
      </trkpt>
      <trkpt lat="46.19312" lon="-1.40603">
        <ele>48.74771</ele>
        <time>2023-05-28T14:32:58.000Z</time>
      </trkpt>
      <trkpt lat="46.19315" lon="-1.40612">
        <ele>48.74048</ele>
        <time>2023-05-28T14:32:59.000Z</time>
      </trkpt>
      <trkpt lat="46.19317" lon="-1.4062">
        <ele>48.76166</ele>
        <time>2023-05-28T14:33:00.000Z</time>
      </trkpt>
      <trkpt lat="46.19319" lon="-1.40629">
        <ele>48.77797</ele>
        <time>2023-05-28T14:33:01.000Z</time>
      </trkpt>
      <trkpt lat="46.1932" lon="-1.40639">
        <ele>48.81059</ele>
        <time>2023-05-28T14:33:02.000Z</time>
      </trkpt>
      <trkpt lat="46.19322" lon="-1.40647">
        <ele>48.84105</ele>
        <time>2023-05-28T14:33:03.000Z</time>
      </trkpt>
      <trkpt lat="46.19324" lon="-1.40657">
        <ele>48.86893</ele>
        <time>2023-05-28T14:33:04.000Z</time>
      </trkpt>
      <trkpt lat="46.19326" lon="-1.40666">
        <ele>48.90203</ele>
        <time>2023-05-28T14:33:05.000Z</time>
      </trkpt>
      <trkpt lat="46.19328" lon="-1.40675">
        <ele>48.92173</ele>
        <time>2023-05-28T14:33:06.000Z</time>
      </trkpt>
      <trkpt lat="46.1933" lon="-1.40682">
        <ele>48.95785</ele>
        <time>2023-05-28T14:33:07.000Z</time>
      </trkpt>
      <trkpt lat="46.19331" lon="-1.40689">
        <ele>49.00401</ele>
        <time>2023-05-28T14:33:08.000Z</time>
      </trkpt>
      <trkpt lat="46.19332" lon="-1.40696">
        <ele>49.0966</ele>
        <time>2023-05-28T14:33:09.000Z</time>
      </trkpt>
      <trkpt lat="46.19334" lon="-1.40703">
        <ele>49.18278</ele>
        <time>2023-05-28T14:33:10.000Z</time>
      </trkpt>
      <trkpt lat="46.19337" lon="-1.4071">
        <ele>49.26624</ele>
        <time>2023-05-28T14:33:11.000Z</time>
      </trkpt>
      <trkpt lat="46.19339" lon="-1.40717">
        <ele>49.27888</ele>
        <time>2023-05-28T14:33:12.000Z</time>
      </trkpt>
      <trkpt lat="46.1934" lon="-1.40726">
        <ele>49.32966</ele>
        <time>2023-05-28T14:33:13.000Z</time>
      </trkpt>
      <trkpt lat="46.19343" lon="-1.40734">
        <ele>49.35114</ele>
        <time>2023-05-28T14:33:14.000Z</time>
      </trkpt>
      <trkpt lat="46.19344" lon="-1.40741">
        <ele>49.3978</ele>
        <time>2023-05-28T14:33:15.000Z</time>
      </trkpt>
      <trkpt lat="46.19346" lon="-1.40749">
        <ele>49.41711</ele>
        <time>2023-05-28T14:33:16.000Z</time>
      </trkpt>
      <trkpt lat="46.19349" lon="-1.40756">
        <ele>49.39962</ele>
        <time>2023-05-28T14:33:17.000Z</time>
      </trkpt>
      <trkpt lat="46.19351" lon="-1.40764">
        <ele>49.33648</ele>
        <time>2023-05-28T14:33:18.000Z</time>
      </trkpt>
      <trkpt lat="46.19353" lon="-1.40772">
        <ele>49.27738</ele>
        <time>2023-05-28T14:33:19.000Z</time>
      </trkpt>
      <trkpt lat="46.19355" lon="-1.4078">
        <ele>49.19515</ele>
        <time>2023-05-28T14:33:20.000Z</time>
      </trkpt>
      <trkpt lat="46.19357" lon="-1.40787">
        <ele>49.13357</ele>
        <time>2023-05-28T14:33:21.000Z</time>
      </trkpt>
      <trkpt lat="46.19359" lon="-1.40795">
        <ele>49.0663</ele>
        <time>2023-05-28T14:33:22.000Z</time>
      </trkpt>
      <trkpt lat="46.19361" lon="-1.40802">
        <ele>48.98865</ele>
        <time>2023-05-28T14:33:23.000Z</time>
      </trkpt>
      <trkpt lat="46.19363" lon="-1.40809">
        <ele>48.91123</ele>
        <time>2023-05-28T14:33:24.000Z</time>
      </trkpt>
      <trkpt lat="46.19364" lon="-1.40817">
        <ele>48.82393</ele>
        <time>2023-05-28T14:33:25.000Z</time>
      </trkpt>
      <trkpt lat="46.19365" lon="-1.40824">
        <ele>48.7389</ele>
        <time>2023-05-28T14:33:26.000Z</time>
      </trkpt>
      <trkpt lat="46.19367" lon="-1.4083">
        <ele>48.63993</ele>
        <time>2023-05-28T14:33:27.000Z</time>
      </trkpt>
      <trkpt lat="46.19369" lon="-1.40836">
        <ele>48.54797</ele>
        <time>2023-05-28T14:33:28.000Z</time>
      </trkpt>
      <trkpt lat="46.1937" lon="-1.40842">
        <ele>48.44413</ele>
        <time>2023-05-28T14:33:29.000Z</time>
      </trkpt>
      <trkpt lat="46.19372" lon="-1.40847">
        <ele>48.30792</ele>
        <time>2023-05-28T14:33:30.000Z</time>
      </trkpt>
      <trkpt lat="46.19373" lon="-1.40853">
        <ele>48.18099</ele>
        <time>2023-05-28T14:33:31.000Z</time>
      </trkpt>
      <trkpt lat="46.19374" lon="-1.4086">
        <ele>48.14087</ele>
        <time>2023-05-28T14:33:32.000Z</time>
      </trkpt>
      <trkpt lat="46.19376" lon="-1.40866">
        <ele>48.13875</ele>
        <time>2023-05-28T14:33:33.000Z</time>
      </trkpt>
      <trkpt lat="46.19377" lon="-1.40872">
        <ele>48.11369</ele>
        <time>2023-05-28T14:33:34.000Z</time>
      </trkpt>
      <trkpt lat="46.19378" lon="-1.40879">
        <ele>48.0879</ele>
        <time>2023-05-28T14:33:35.000Z</time>
      </trkpt>
      <trkpt lat="46.19379" lon="-1.40885">
        <ele>48.06976</ele>
        <time>2023-05-28T14:33:36.000Z</time>
      </trkpt>
      <trkpt lat="46.1938" lon="-1.40891">
        <ele>48.09272</ele>
        <time>2023-05-28T14:33:37.000Z</time>
      </trkpt>
      <trkpt lat="46.19382" lon="-1.40897">
        <ele>48.15216</ele>
        <time>2023-05-28T14:33:38.000Z</time>
      </trkpt>
      <trkpt lat="46.19383" lon="-1.40904">
        <ele>48.22298</ele>
        <time>2023-05-28T14:33:39.000Z</time>
      </trkpt>
      <trkpt lat="46.19384" lon="-1.40911">
        <ele>48.27043</ele>
        <time>2023-05-28T14:33:40.000Z</time>
      </trkpt>
      <trkpt lat="46.19386" lon="-1.40919">
        <ele>48.28321</ele>
        <time>2023-05-28T14:33:41.000Z</time>
      </trkpt>
      <trkpt lat="46.19388" lon="-1.40926">
        <ele>48.29298</ele>
        <time>2023-05-28T14:33:42.000Z</time>
      </trkpt>
      <trkpt lat="46.1939" lon="-1.40934">
        <ele>48.30202</ele>
        <time>2023-05-28T14:33:43.000Z</time>
      </trkpt>
      <trkpt lat="46.19392" lon="-1.40941">
        <ele>48.31048</ele>
        <time>2023-05-28T14:33:44.000Z</time>
      </trkpt>
      <trkpt lat="46.19394" lon="-1.40949">
        <ele>48.35445</ele>
        <time>2023-05-28T14:33:45.000Z</time>
      </trkpt>
      <trkpt lat="46.19396" lon="-1.40957">
        <ele>48.3828</ele>
        <time>2023-05-28T14:33:46.000Z</time>
      </trkpt>
      <trkpt lat="46.19397" lon="-1.40964">
        <ele>48.42723</ele>
        <time>2023-05-28T14:33:47.000Z</time>
      </trkpt>
      <trkpt lat="46.19399" lon="-1.40971">
        <ele>48.46576</ele>
        <time>2023-05-28T14:33:48.000Z</time>
      </trkpt>
      <trkpt lat="46.19401" lon="-1.40979">
        <ele>48.47964</ele>
        <time>2023-05-28T14:33:49.000Z</time>
      </trkpt>
      <trkpt lat="46.19403" lon="-1.40986">
        <ele>48.55265</ele>
        <time>2023-05-28T14:33:50.000Z</time>
      </trkpt>
      <trkpt lat="46.19405" lon="-1.40993">
        <ele>48.59934</ele>
        <time>2023-05-28T14:33:51.000Z</time>
      </trkpt>
      <trkpt lat="46.19407" lon="-1.40999">
        <ele>48.62275</ele>
        <time>2023-05-28T14:33:52.000Z</time>
      </trkpt>
      <trkpt lat="46.19409" lon="-1.41006">
        <ele>48.59619</ele>
        <time>2023-05-28T14:33:53.000Z</time>
      </trkpt>
      <trkpt lat="46.19411" lon="-1.41013">
        <ele>48.61602</ele>
        <time>2023-05-28T14:33:54.000Z</time>
      </trkpt>
      <trkpt lat="46.19413" lon="-1.4102">
        <ele>48.63813</ele>
        <time>2023-05-28T14:33:55.000Z</time>
      </trkpt>
      <trkpt lat="46.19414" lon="-1.41028">
        <ele>48.66692</ele>
        <time>2023-05-28T14:33:56.000Z</time>
      </trkpt>
      <trkpt lat="46.19416" lon="-1.41036">
        <ele>48.68927</ele>
        <time>2023-05-28T14:33:57.000Z</time>
      </trkpt>
      <trkpt lat="46.19417" lon="-1.41043">
        <ele>48.71452</ele>
        <time>2023-05-28T14:33:58.000Z</time>
      </trkpt>
      <trkpt lat="46.1942" lon="-1.4105">
        <ele>48.74053</ele>
        <time>2023-05-28T14:33:59.000Z</time>
      </trkpt>
      <trkpt lat="46.19421" lon="-1.41056">
        <ele>48.78735</ele>
        <time>2023-05-28T14:34:00.000Z</time>
      </trkpt>
      <trkpt lat="46.19419" lon="-1.41064">
        <ele>48.87319</ele>
        <time>2023-05-28T14:34:01.000Z</time>
      </trkpt>
      <trkpt lat="46.19418" lon="-1.41071">
        <ele>48.95288</ele>
        <time>2023-05-28T14:34:02.000Z</time>
      </trkpt>
      <trkpt lat="46.19417" lon="-1.41078">
        <ele>49.01196</ele>
        <time>2023-05-28T14:34:03.000Z</time>
      </trkpt>
      <trkpt lat="46.19416" lon="-1.41085">
        <ele>49.07273</ele>
        <time>2023-05-28T14:34:04.000Z</time>
      </trkpt>
      <trkpt lat="46.19414" lon="-1.41091">
        <ele>49.07568</ele>
        <time>2023-05-28T14:34:05.000Z</time>
      </trkpt>
      <trkpt lat="46.19413" lon="-1.41097">
        <ele>49.11314</ele>
        <time>2023-05-28T14:34:06.000Z</time>
      </trkpt>
      <trkpt lat="46.19411" lon="-1.41103">
        <ele>49.14984</ele>
        <time>2023-05-28T14:34:07.000Z</time>
      </trkpt>
      <trkpt lat="46.19409" lon="-1.4111">
        <ele>49.15478</ele>
        <time>2023-05-28T14:34:08.000Z</time>
      </trkpt>
      <trkpt lat="46.19407" lon="-1.41117">
        <ele>49.20577</ele>
        <time>2023-05-28T14:34:09.000Z</time>
      </trkpt>
      <trkpt lat="46.19405" lon="-1.41123">
        <ele>49.22552</ele>
        <time>2023-05-28T14:34:10.000Z</time>
      </trkpt>
      <trkpt lat="46.19403" lon="-1.41129">
        <ele>49.26496</ele>
        <time>2023-05-28T14:34:11.000Z</time>
      </trkpt>
      <trkpt lat="46.19401" lon="-1.41134">
        <ele>49.30751</ele>
        <time>2023-05-28T14:34:12.000Z</time>
      </trkpt>
      <trkpt lat="46.194" lon="-1.4114">
        <ele>49.31467</ele>
        <time>2023-05-28T14:34:13.000Z</time>
      </trkpt>
      <trkpt lat="46.19398" lon="-1.41146">
        <ele>49.30862</ele>
        <time>2023-05-28T14:34:14.000Z</time>
      </trkpt>
      <trkpt lat="46.19397" lon="-1.41152">
        <ele>49.27306</ele>
        <time>2023-05-28T14:34:15.000Z</time>
      </trkpt>
      <trkpt lat="46.19395" lon="-1.41159">
        <ele>49.2224</ele>
        <time>2023-05-28T14:34:16.000Z</time>
      </trkpt>
      <trkpt lat="46.19393" lon="-1.41165">
        <ele>49.18352</ele>
        <time>2023-05-28T14:34:17.000Z</time>
      </trkpt>
      <trkpt lat="46.19392" lon="-1.41171">
        <ele>49.1074</ele>
        <time>2023-05-28T14:34:18.000Z</time>
      </trkpt>
      <trkpt lat="46.19392" lon="-1.41179">
        <ele>49.00473</ele>
        <time>2023-05-28T14:34:19.000Z</time>
      </trkpt>
      <trkpt lat="46.19391" lon="-1.41186">
        <ele>48.90419</ele>
        <time>2023-05-28T14:34:20.000Z</time>
      </trkpt>
      <trkpt lat="46.1939" lon="-1.41193">
        <ele>48.79664</ele>
        <time>2023-05-28T14:34:21.000Z</time>
      </trkpt>
      <trkpt lat="46.19389" lon="-1.412">
        <ele>48.70241</ele>
        <time>2023-05-28T14:34:22.000Z</time>
      </trkpt>
      <trkpt lat="46.19388" lon="-1.41207">
        <ele>48.64717</ele>
        <time>2023-05-28T14:34:23.000Z</time>
      </trkpt>
      <trkpt lat="46.19387" lon="-1.41213">
        <ele>48.59196</ele>
        <time>2023-05-28T14:34:24.000Z</time>
      </trkpt>
      <trkpt lat="46.19386" lon="-1.4122">
        <ele>48.5819</ele>
        <time>2023-05-28T14:34:25.000Z</time>
      </trkpt>
      <trkpt lat="46.19386" lon="-1.41226">
        <ele>48.52402</ele>
        <time>2023-05-28T14:34:26.000Z</time>
      </trkpt>
      <trkpt lat="46.19385" lon="-1.41234">
        <ele>48.46884</ele>
        <time>2023-05-28T14:34:27.000Z</time>
      </trkpt>
      <trkpt lat="46.19385" lon="-1.41241">
        <ele>48.41227</ele>
        <time>2023-05-28T14:34:28.000Z</time>
      </trkpt>
      <trkpt lat="46.19384" lon="-1.41248">
        <ele>48.32955</ele>
        <time>2023-05-28T14:34:29.000Z</time>
      </trkpt>
      <trkpt lat="46.19383" lon="-1.41254">
        <ele>48.2675</ele>
        <time>2023-05-28T14:34:30.000Z</time>
      </trkpt>
      <trkpt lat="46.19382" lon="-1.4126">
        <ele>48.21848</ele>
        <time>2023-05-28T14:34:31.000Z</time>
      </trkpt>
      <trkpt lat="46.1938" lon="-1.41267">
        <ele>48.18615</ele>
        <time>2023-05-28T14:34:32.000Z</time>
      </trkpt>
      <trkpt lat="46.19379" lon="-1.41273">
        <ele>48.16446</ele>
        <time>2023-05-28T14:34:33.000Z</time>
      </trkpt>
      <trkpt lat="46.19376" lon="-1.41279">
        <ele>48.16991</ele>
        <time>2023-05-28T14:34:34.000Z</time>
      </trkpt>
      <trkpt lat="46.19374" lon="-1.41285">
        <ele>48.1904</ele>
        <time>2023-05-28T14:34:35.000Z</time>
      </trkpt>
      <trkpt lat="46.19372" lon="-1.41291">
        <ele>48.19381</ele>
        <time>2023-05-28T14:34:36.000Z</time>
      </trkpt>
      <trkpt lat="46.19369" lon="-1.41296">
        <ele>48.21302</ele>
        <time>2023-05-28T14:34:37.000Z</time>
      </trkpt>
      <trkpt lat="46.19367" lon="-1.41301">
        <ele>48.28316</ele>
        <time>2023-05-28T14:34:38.000Z</time>
      </trkpt>
      <trkpt lat="46.19365" lon="-1.41307">
        <ele>48.36456</ele>
        <time>2023-05-28T14:34:39.000Z</time>
      </trkpt>
      <trkpt lat="46.19363" lon="-1.41312">
        <ele>48.44088</ele>
        <time>2023-05-28T14:34:40.000Z</time>
      </trkpt>
      <trkpt lat="46.1936" lon="-1.41316">
        <ele>48.55227</ele>
        <time>2023-05-28T14:34:41.000Z</time>
      </trkpt>
      <trkpt lat="46.19358" lon="-1.41321">
        <ele>48.6759</ele>
        <time>2023-05-28T14:34:42.000Z</time>
      </trkpt>
      <trkpt lat="46.19355" lon="-1.41326">
        <ele>48.80143</ele>
        <time>2023-05-28T14:34:43.000Z</time>
      </trkpt>
      <trkpt lat="46.19353" lon="-1.4133">
        <ele>48.89746</ele>
        <time>2023-05-28T14:34:44.000Z</time>
      </trkpt>
      <trkpt lat="46.19351" lon="-1.41334">
        <ele>48.97913</ele>
        <time>2023-05-28T14:34:45.000Z</time>
      </trkpt>
      <trkpt lat="46.19349" lon="-1.41339">
        <ele>49.09165</ele>
        <time>2023-05-28T14:34:46.000Z</time>
      </trkpt>
      <trkpt lat="46.19347" lon="-1.41344">
        <ele>49.18875</ele>
        <time>2023-05-28T14:34:47.000Z</time>
      </trkpt>
      <trkpt lat="46.19346" lon="-1.41348">
        <ele>49.34202</ele>
        <time>2023-05-28T14:34:48.000Z</time>
      </trkpt>
      <trkpt lat="46.19345" lon="-1.41353">
        <ele>49.49603</ele>
        <time>2023-05-28T14:34:49.000Z</time>
      </trkpt>
      <trkpt lat="46.19344" lon="-1.41358">
        <ele>49.62434</ele>
        <time>2023-05-28T14:34:50.000Z</time>
      </trkpt>
      <trkpt lat="46.19344" lon="-1.41362">
        <ele>49.73547</ele>
        <time>2023-05-28T14:34:51.000Z</time>
      </trkpt>
      <trkpt lat="46.19343" lon="-1.41367">
        <ele>49.80265</ele>
        <time>2023-05-28T14:34:52.000Z</time>
      </trkpt>
      <trkpt lat="46.19342" lon="-1.41371">
        <ele>49.88265</ele>
        <time>2023-05-28T14:34:53.000Z</time>
      </trkpt>
      <trkpt lat="46.19342" lon="-1.41375">
        <ele>49.96234</ele>
        <time>2023-05-28T14:34:54.000Z</time>
      </trkpt>
      <trkpt lat="46.19342" lon="-1.41379">
        <ele>50.05459</ele>
        <time>2023-05-28T14:34:55.000Z</time>
      </trkpt>
      <trkpt lat="46.19342" lon="-1.41384">
        <ele>50.12736</ele>
        <time>2023-05-28T14:34:56.000Z</time>
      </trkpt>
      <trkpt lat="46.19344" lon="-1.41388">
        <ele>50.1672</ele>
        <time>2023-05-28T14:34:57.000Z</time>
      </trkpt>
      <trkpt lat="46.19344" lon="-1.41392">
        <ele>50.17811</ele>
        <time>2023-05-28T14:34:58.000Z</time>
      </trkpt>
      <trkpt lat="46.19345" lon="-1.41395">
        <ele>50.20428</ele>
        <time>2023-05-28T14:34:59.000Z</time>
      </trkpt>
      <trkpt lat="46.19345" lon="-1.41399">
        <ele>50.20413</ele>
        <time>2023-05-28T14:35:00.000Z</time>
      </trkpt>
      <trkpt lat="46.19345" lon="-1.41403">
        <ele>50.17373</ele>
        <time>2023-05-28T14:35:01.000Z</time>
      </trkpt>
      <trkpt lat="46.19346" lon="-1.41407">
        <ele>50.10739</ele>
        <time>2023-05-28T14:35:02.000Z</time>
      </trkpt>
      <trkpt lat="46.19347" lon="-1.41411">
        <ele>50.01636</ele>
        <time>2023-05-28T14:35:03.000Z</time>
      </trkpt>
      <trkpt lat="46.19348" lon="-1.41414">
        <ele>49.95708</ele>
        <time>2023-05-28T14:35:04.000Z</time>
      </trkpt>
      <trkpt lat="46.19349" lon="-1.41418">
        <ele>49.88709</ele>
        <time>2023-05-28T14:35:05.000Z</time>
      </trkpt>
      <trkpt lat="46.1935" lon="-1.41422">
        <ele>49.80692</ele>
        <time>2023-05-28T14:35:06.000Z</time>
      </trkpt>
      <trkpt lat="46.1935" lon="-1.41426">
        <ele>49.70411</ele>
        <time>2023-05-28T14:35:07.000Z</time>
      </trkpt>
      <trkpt lat="46.19351" lon="-1.4143">
        <ele>49.58074</ele>
        <time>2023-05-28T14:35:08.000Z</time>
      </trkpt>
      <trkpt lat="46.19352" lon="-1.41433">
        <ele>49.4641</ele>
        <time>2023-05-28T14:35:09.000Z</time>
      </trkpt>
      <trkpt lat="46.19352" lon="-1.41437">
        <ele>49.37722</ele>
        <time>2023-05-28T14:35:10.000Z</time>
      </trkpt>
      <trkpt lat="46.19353" lon="-1.41441">
        <ele>49.31047</ele>
        <time>2023-05-28T14:35:11.000Z</time>
      </trkpt>
      <trkpt lat="46.19353" lon="-1.41444">
        <ele>49.28924</ele>
        <time>2023-05-28T14:35:12.000Z</time>
      </trkpt>
      <trkpt lat="46.19353" lon="-1.41448">
        <ele>49.27097</ele>
        <time>2023-05-28T14:35:13.000Z</time>
      </trkpt>
      <trkpt lat="46.19354" lon="-1.41452">
        <ele>49.23863</ele>
        <time>2023-05-28T14:35:14.000Z</time>
      </trkpt>
      <trkpt lat="46.19354" lon="-1.41455">
        <ele>49.21199</ele>
        <time>2023-05-28T14:35:15.000Z</time>
      </trkpt>
      <trkpt lat="46.19354" lon="-1.41459">
        <ele>49.23081</ele>
        <time>2023-05-28T14:35:16.000Z</time>
      </trkpt>
      <trkpt lat="46.19355" lon="-1.41463">
        <ele>49.25739</ele>
        <time>2023-05-28T14:35:17.000Z</time>
      </trkpt>
      <trkpt lat="46.19356" lon="-1.41467">
        <ele>49.30886</ele>
        <time>2023-05-28T14:35:18.000Z</time>
      </trkpt>
      <trkpt lat="46.19357" lon="-1.41471">
        <ele>49.3279</ele>
        <time>2023-05-28T14:35:19.000Z</time>
      </trkpt>
      <trkpt lat="46.19358" lon="-1.41475">
        <ele>49.34499</ele>
        <time>2023-05-28T14:35:20.000Z</time>
      </trkpt>
      <trkpt lat="46.1936" lon="-1.41479">
        <ele>49.33599</ele>
        <time>2023-05-28T14:35:21.000Z</time>
      </trkpt>
      <trkpt lat="46.19361" lon="-1.41483">
        <ele>49.36184</ele>
        <time>2023-05-28T14:35:22.000Z</time>
      </trkpt>
      <trkpt lat="46.19362" lon="-1.41487">
        <ele>49.40651</ele>
        <time>2023-05-28T14:35:23.000Z</time>
      </trkpt>
      <trkpt lat="46.19363" lon="-1.41491">
        <ele>49.47297</ele>
        <time>2023-05-28T14:35:24.000Z</time>
      </trkpt>
      <trkpt lat="46.19364" lon="-1.41495">
        <ele>49.56905</ele>
        <time>2023-05-28T14:35:25.000Z</time>
      </trkpt>
      <trkpt lat="46.19366" lon="-1.41499">
        <ele>49.66711</ele>
        <time>2023-05-28T14:35:26.000Z</time>
      </trkpt>
      <trkpt lat="46.19367" lon="-1.41503">
        <ele>49.78196</ele>
        <time>2023-05-28T14:35:27.000Z</time>
      </trkpt>
      <trkpt lat="46.19368" lon="-1.41508">
        <ele>49.87959</ele>
        <time>2023-05-28T14:35:28.000Z</time>
      </trkpt>
      <trkpt lat="46.19369" lon="-1.41512">
        <ele>49.97556</ele>
        <time>2023-05-28T14:35:29.000Z</time>
      </trkpt>
      <trkpt lat="46.19369" lon="-1.41517">
        <ele>50.04028</ele>
        <time>2023-05-28T14:35:30.000Z</time>
      </trkpt>
      <trkpt lat="46.1937" lon="-1.41522">
        <ele>50.08466</ele>
        <time>2023-05-28T14:35:31.000Z</time>
      </trkpt>
      <trkpt lat="46.19371" lon="-1.41527">
        <ele>50.11489</ele>
        <time>2023-05-28T14:35:32.000Z</time>
      </trkpt>
      <trkpt lat="46.19371" lon="-1.41531">
        <ele>50.13771</ele>
        <time>2023-05-28T14:35:33.000Z</time>
      </trkpt>
      <trkpt lat="46.19372" lon="-1.41536">
        <ele>50.12855</ele>
        <time>2023-05-28T14:35:34.000Z</time>
      </trkpt>
      <trkpt lat="46.19372" lon="-1.41541">
        <ele>50.11443</ele>
        <time>2023-05-28T14:35:35.000Z</time>
      </trkpt>
      <trkpt lat="46.19373" lon="-1.41546">
        <ele>50.10725</ele>
        <time>2023-05-28T14:35:36.000Z</time>
      </trkpt>
      <trkpt lat="46.19373" lon="-1.41551">
        <ele>50.07837</ele>
        <time>2023-05-28T14:35:37.000Z</time>
      </trkpt>
      <trkpt lat="46.19373" lon="-1.41556">
        <ele>50.0389</ele>
        <time>2023-05-28T14:35:38.000Z</time>
      </trkpt>
      <trkpt lat="46.19374" lon="-1.41561">
        <ele>50.03444</ele>
        <time>2023-05-28T14:35:39.000Z</time>
      </trkpt>
      <trkpt lat="46.19374" lon="-1.41565">
        <ele>50.06152</ele>
        <time>2023-05-28T14:35:40.000Z</time>
      </trkpt>
      <trkpt lat="46.19374" lon="-1.41569">
        <ele>50.11094</ele>
        <time>2023-05-28T14:35:41.000Z</time>
      </trkpt>
      <trkpt lat="46.19375" lon="-1.41574">
        <ele>50.17452</ele>
        <time>2023-05-28T14:35:42.000Z</time>
      </trkpt>
      <trkpt lat="46.19375" lon="-1.41579">
        <ele>50.19178</ele>
        <time>2023-05-28T14:35:43.000Z</time>
      </trkpt>
      <trkpt lat="46.19375" lon="-1.41584">
        <ele>50.16284</ele>
        <time>2023-05-28T14:35:44.000Z</time>
      </trkpt>
      <trkpt lat="46.19376" lon="-1.41588">
        <ele>50.14408</ele>
        <time>2023-05-28T14:35:45.000Z</time>
      </trkpt>
      <trkpt lat="46.19376" lon="-1.41593">
        <ele>50.11189</ele>
        <time>2023-05-28T14:35:46.000Z</time>
      </trkpt>
      <trkpt lat="46.19376" lon="-1.41598">
        <ele>50.08972</ele>
        <time>2023-05-28T14:35:47.000Z</time>
      </trkpt>
      <trkpt lat="46.19377" lon="-1.41602">
        <ele>50.07671</ele>
        <time>2023-05-28T14:35:48.000Z</time>
      </trkpt>
      <trkpt lat="46.19377" lon="-1.41607">
        <ele>50.03968</ele>
        <time>2023-05-28T14:35:49.000Z</time>
      </trkpt>
      <trkpt lat="46.19378" lon="-1.41612">
        <ele>50.00368</ele>
        <time>2023-05-28T14:35:50.000Z</time>
      </trkpt>
      <trkpt lat="46.19378" lon="-1.41617">
        <ele>49.9481</ele>
        <time>2023-05-28T14:35:51.000Z</time>
      </trkpt>
      <trkpt lat="46.19379" lon="-1.41621">
        <ele>49.91138</ele>
        <time>2023-05-28T14:35:52.000Z</time>
      </trkpt>
      <trkpt lat="46.19379" lon="-1.41626">
        <ele>49.91642</ele>
        <time>2023-05-28T14:35:53.000Z</time>
      </trkpt>
      <trkpt lat="46.1938" lon="-1.4163">
        <ele>49.95912</ele>
        <time>2023-05-28T14:35:54.000Z</time>
      </trkpt>
      <trkpt lat="46.19381" lon="-1.41634">
        <ele>49.98403</ele>
        <time>2023-05-28T14:35:55.000Z</time>
      </trkpt>
      <trkpt lat="46.19381" lon="-1.41639">
        <ele>50.00794</ele>
        <time>2023-05-28T14:35:56.000Z</time>
      </trkpt>
      <trkpt lat="46.19382" lon="-1.41644">
        <ele>50.05518</ele>
        <time>2023-05-28T14:35:57.000Z</time>
      </trkpt>
      <trkpt lat="46.19384" lon="-1.41648">
        <ele>50.08094</ele>
        <time>2023-05-28T14:35:58.000Z</time>
      </trkpt>
      <trkpt lat="46.19385" lon="-1.41653">
        <ele>50.09263</ele>
        <time>2023-05-28T14:35:59.000Z</time>
      </trkpt>
      <trkpt lat="46.19387" lon="-1.41657">
        <ele>50.0841</ele>
        <time>2023-05-28T14:36:00.000Z</time>
      </trkpt>
      <trkpt lat="46.19389" lon="-1.41661">
        <ele>50.07107</ele>
        <time>2023-05-28T14:36:01.000Z</time>
      </trkpt>
      <trkpt lat="46.19391" lon="-1.41665">
        <ele>50.04285</ele>
        <time>2023-05-28T14:36:02.000Z</time>
      </trkpt>
      <trkpt lat="46.19392" lon="-1.4167">
        <ele>50.05441</ele>
        <time>2023-05-28T14:36:03.000Z</time>
      </trkpt>
      <trkpt lat="46.19394" lon="-1.41674">
        <ele>50.06929</ele>
        <time>2023-05-28T14:36:04.000Z</time>
      </trkpt>
      <trkpt lat="46.19396" lon="-1.41678">
        <ele>50.06278</ele>
        <time>2023-05-28T14:36:05.000Z</time>
      </trkpt>
      <trkpt lat="46.19398" lon="-1.41682">
        <ele>50.08049</ele>
        <time>2023-05-28T14:36:06.000Z</time>
      </trkpt>
      <trkpt lat="46.19399" lon="-1.41686">
        <ele>50.08564</ele>
        <time>2023-05-28T14:36:07.000Z</time>
      </trkpt>
      <trkpt lat="46.19401" lon="-1.4169">
        <ele>50.07053</ele>
        <time>2023-05-28T14:36:08.000Z</time>
      </trkpt>
      <trkpt lat="46.19403" lon="-1.41694">
        <ele>50.08416</ele>
        <time>2023-05-28T14:36:09.000Z</time>
      </trkpt>
      <trkpt lat="46.19404" lon="-1.41698">
        <ele>50.09861</ele>
        <time>2023-05-28T14:36:10.000Z</time>
      </trkpt>
      <trkpt lat="46.19406" lon="-1.41702">
        <ele>50.12828</ele>
        <time>2023-05-28T14:36:11.000Z</time>
      </trkpt>
      <trkpt lat="46.19409" lon="-1.41706">
        <ele>50.15238</ele>
        <time>2023-05-28T14:36:12.000Z</time>
      </trkpt>
      <trkpt lat="46.19411" lon="-1.41709">
        <ele>50.14341</ele>
        <time>2023-05-28T14:36:13.000Z</time>
      </trkpt>
      <trkpt lat="46.19413" lon="-1.41713">
        <ele>50.11845</ele>
        <time>2023-05-28T14:36:14.000Z</time>
      </trkpt>
      <trkpt lat="46.19414" lon="-1.41717">
        <ele>50.08375</ele>
        <time>2023-05-28T14:36:15.000Z</time>
      </trkpt>
      <trkpt lat="46.19414" lon="-1.41722">
        <ele>50.0258</ele>
        <time>2023-05-28T14:36:16.000Z</time>
      </trkpt>
      <trkpt lat="46.19415" lon="-1.41727">
        <ele>49.94604</ele>
        <time>2023-05-28T14:36:17.000Z</time>
      </trkpt>
      <trkpt lat="46.19415" lon="-1.41731">
        <ele>49.90097</ele>
        <time>2023-05-28T14:36:18.000Z</time>
      </trkpt>
      <trkpt lat="46.19416" lon="-1.41736">
        <ele>49.86312</ele>
        <time>2023-05-28T14:36:19.000Z</time>
      </trkpt>
      <trkpt lat="46.19417" lon="-1.4174">
        <ele>49.84655</ele>
        <time>2023-05-28T14:36:20.000Z</time>
      </trkpt>
      <trkpt lat="46.19418" lon="-1.41745">
        <ele>49.80117</ele>
        <time>2023-05-28T14:36:21.000Z</time>
      </trkpt>
      <trkpt lat="46.19419" lon="-1.41749">
        <ele>49.76446</ele>
        <time>2023-05-28T14:36:22.000Z</time>
      </trkpt>
      <trkpt lat="46.1942" lon="-1.41754">
        <ele>49.71386</ele>
        <time>2023-05-28T14:36:23.000Z</time>
      </trkpt>
      <trkpt lat="46.1942" lon="-1.41759">
        <ele>49.69501</ele>
        <time>2023-05-28T14:36:24.000Z</time>
      </trkpt>
      <trkpt lat="46.1942" lon="-1.41763">
        <ele>49.67321</ele>
        <time>2023-05-28T14:36:25.000Z</time>
      </trkpt>
      <trkpt lat="46.19421" lon="-1.41768">
        <ele>49.63698</ele>
        <time>2023-05-28T14:36:26.000Z</time>
      </trkpt>
      <trkpt lat="46.19422" lon="-1.41773">
        <ele>49.61282</ele>
        <time>2023-05-28T14:36:27.000Z</time>
      </trkpt>
      <trkpt lat="46.19422" lon="-1.41778">
        <ele>49.60687</ele>
        <time>2023-05-28T14:36:28.000Z</time>
      </trkpt>
      <trkpt lat="46.19423" lon="-1.41784">
        <ele>49.57941</ele>
        <time>2023-05-28T14:36:29.000Z</time>
      </trkpt>
      <trkpt lat="46.19424" lon="-1.41789">
        <ele>49.56608</ele>
        <time>2023-05-28T14:36:30.000Z</time>
      </trkpt>
      <trkpt lat="46.19424" lon="-1.41793">
        <ele>49.54961</ele>
        <time>2023-05-28T14:36:31.000Z</time>
      </trkpt>
      <trkpt lat="46.19424" lon="-1.41798">
        <ele>49.52363</ele>
        <time>2023-05-28T14:36:32.000Z</time>
      </trkpt>
      <trkpt lat="46.19424" lon="-1.41803">
        <ele>49.46851</ele>
        <time>2023-05-28T14:36:33.000Z</time>
      </trkpt>
      <trkpt lat="46.19424" lon="-1.41807">
        <ele>49.4002</ele>
        <time>2023-05-28T14:36:34.000Z</time>
      </trkpt>
      <trkpt lat="46.19424" lon="-1.41811">
        <ele>49.35615</ele>
        <time>2023-05-28T14:36:35.000Z</time>
      </trkpt>
      <trkpt lat="46.19424" lon="-1.41816">
        <ele>49.32258</ele>
        <time>2023-05-28T14:36:36.000Z</time>
      </trkpt>
      <trkpt lat="46.19423" lon="-1.4182">
        <ele>49.30984</ele>
        <time>2023-05-28T14:36:37.000Z</time>
      </trkpt>
      <trkpt lat="46.19423" lon="-1.41825">
        <ele>49.28643</ele>
        <time>2023-05-28T14:36:38.000Z</time>
      </trkpt>
      <trkpt lat="46.19422" lon="-1.4183">
        <ele>49.25391</ele>
        <time>2023-05-28T14:36:39.000Z</time>
      </trkpt>
      <trkpt lat="46.19421" lon="-1.41834">
        <ele>49.21254</ele>
        <time>2023-05-28T14:36:40.000Z</time>
      </trkpt>
      <trkpt lat="46.19421" lon="-1.41838">
        <ele>49.20206</ele>
        <time>2023-05-28T14:36:41.000Z</time>
      </trkpt>
      <trkpt lat="46.1942" lon="-1.41843">
        <ele>49.17813</ele>
        <time>2023-05-28T14:36:42.000Z</time>
      </trkpt>
      <trkpt lat="46.19419" lon="-1.41847">
        <ele>49.18703</ele>
        <time>2023-05-28T14:36:43.000Z</time>
      </trkpt>
      <trkpt lat="46.19418" lon="-1.41852">
        <ele>49.1713</ele>
        <time>2023-05-28T14:36:44.000Z</time>
      </trkpt>
      <trkpt lat="46.19416" lon="-1.41856">
        <ele>49.15416</ele>
        <time>2023-05-28T14:36:45.000Z</time>
      </trkpt>
      <trkpt lat="46.19415" lon="-1.4186">
        <ele>49.13182</ele>
        <time>2023-05-28T14:36:46.000Z</time>
      </trkpt>
      <trkpt lat="46.19414" lon="-1.41863">
        <ele>49.11393</ele>
        <time>2023-05-28T14:36:47.000Z</time>
      </trkpt>
      <trkpt lat="46.19412" lon="-1.41866">
        <ele>49.09105</ele>
        <time>2023-05-28T14:36:48.000Z</time>
      </trkpt>
      <trkpt lat="46.19411" lon="-1.4187">
        <ele>49.05853</ele>
        <time>2023-05-28T14:36:49.000Z</time>
      </trkpt>
      <trkpt lat="46.1941" lon="-1.41873">
        <ele>48.9974</ele>
        <time>2023-05-28T14:36:50.000Z</time>
      </trkpt>
      <trkpt lat="46.19408" lon="-1.41876">
        <ele>48.96735</ele>
        <time>2023-05-28T14:36:51.000Z</time>
      </trkpt>
      <trkpt lat="46.19407" lon="-1.41879">
        <ele>48.92466</ele>
        <time>2023-05-28T14:36:52.000Z</time>
      </trkpt>
      <trkpt lat="46.19405" lon="-1.41882">
        <ele>48.90714</ele>
        <time>2023-05-28T14:36:53.000Z</time>
      </trkpt>
      <trkpt lat="46.19403" lon="-1.41885">
        <ele>48.89877</ele>
        <time>2023-05-28T14:36:54.000Z</time>
      </trkpt>
      <trkpt lat="46.19402" lon="-1.41888">
        <ele>48.87985</ele>
        <time>2023-05-28T14:36:55.000Z</time>
      </trkpt>
      <trkpt lat="46.194" lon="-1.4189">
        <ele>48.86914</ele>
        <time>2023-05-28T14:36:56.000Z</time>
      </trkpt>
      <trkpt lat="46.19398" lon="-1.41892">
        <ele>48.86748</ele>
        <time>2023-05-28T14:36:57.000Z</time>
      </trkpt>
      <trkpt lat="46.19397" lon="-1.41895">
        <ele>48.82694</ele>
        <time>2023-05-28T14:36:58.000Z</time>
      </trkpt>
      <trkpt lat="46.19396" lon="-1.41898">
        <ele>48.81617</ele>
        <time>2023-05-28T14:36:59.000Z</time>
      </trkpt>
      <trkpt lat="46.19395" lon="-1.41901">
        <ele>48.80573</ele>
        <time>2023-05-28T14:37:00.000Z</time>
      </trkpt>
      <trkpt lat="46.19394" lon="-1.41903">
        <ele>48.78719</ele>
        <time>2023-05-28T14:37:01.000Z</time>
      </trkpt>
      <trkpt lat="46.19393" lon="-1.41906">
        <ele>48.76749</ele>
        <time>2023-05-28T14:37:02.000Z</time>
      </trkpt>
      <trkpt lat="46.19392" lon="-1.41907">
        <ele>48.71449</ele>
        <time>2023-05-28T14:37:03.000Z</time>
      </trkpt>
      <trkpt lat="46.1939" lon="-1.4191">
        <ele>48.62812</ele>
        <time>2023-05-28T14:37:04.000Z</time>
      </trkpt>
      <trkpt lat="46.19389" lon="-1.41912">
        <ele>48.55242</ele>
        <time>2023-05-28T14:37:05.000Z</time>
      </trkpt>
      <trkpt lat="46.19387" lon="-1.41915">
        <ele>48.49914</ele>
        <time>2023-05-28T14:37:06.000Z</time>
      </trkpt>
      <trkpt lat="46.19386" lon="-1.41919">
        <ele>48.45758</ele>
        <time>2023-05-28T14:37:07.000Z</time>
      </trkpt>
      <trkpt lat="46.19384" lon="-1.41922">
        <ele>48.41993</ele>
        <time>2023-05-28T14:37:08.000Z</time>
      </trkpt>
      <trkpt lat="46.19383" lon="-1.41924">
        <ele>48.40099</ele>
        <time>2023-05-28T14:37:09.000Z</time>
      </trkpt>
      <trkpt lat="46.19381" lon="-1.41927">
        <ele>48.40401</ele>
        <time>2023-05-28T14:37:10.000Z</time>
      </trkpt>
      <trkpt lat="46.1938" lon="-1.4193">
        <ele>48.38733</ele>
        <time>2023-05-28T14:37:11.000Z</time>
      </trkpt>
      <trkpt lat="46.19378" lon="-1.41933">
        <ele>48.35225</ele>
        <time>2023-05-28T14:37:12.000Z</time>
      </trkpt>
      <trkpt lat="46.19377" lon="-1.41936">
        <ele>48.32293</ele>
        <time>2023-05-28T14:37:13.000Z</time>
      </trkpt>
      <trkpt lat="46.19375" lon="-1.41938">
        <ele>48.26678</ele>
        <time>2023-05-28T14:37:14.000Z</time>
      </trkpt>
      <trkpt lat="46.19373" lon="-1.41941">
        <ele>48.21981</ele>
        <time>2023-05-28T14:37:15.000Z</time>
      </trkpt>
      <trkpt lat="46.19372" lon="-1.41943">
        <ele>48.16984</ele>
        <time>2023-05-28T14:37:16.000Z</time>
      </trkpt>
      <trkpt lat="46.1937" lon="-1.41945">
        <ele>48.09711</ele>
        <time>2023-05-28T14:37:17.000Z</time>
      </trkpt>
      <trkpt lat="46.19369" lon="-1.41948">
        <ele>48.06049</ele>
        <time>2023-05-28T14:37:18.000Z</time>
      </trkpt>
      <trkpt lat="46.19368" lon="-1.4195">
        <ele>48.01336</ele>
        <time>2023-05-28T14:37:19.000Z</time>
      </trkpt>
      <trkpt lat="46.19368" lon="-1.41953">
        <ele>47.97124</ele>
        <time>2023-05-28T14:37:20.000Z</time>
      </trkpt>
      <trkpt lat="46.19368" lon="-1.41956">
        <ele>47.94425</ele>
        <time>2023-05-28T14:37:21.000Z</time>
      </trkpt>
      <trkpt lat="46.19368" lon="-1.41958">
        <ele>47.8795</ele>
        <time>2023-05-28T14:37:22.000Z</time>
      </trkpt>
      <trkpt lat="46.19367" lon="-1.4196">
        <ele>47.83664</ele>
        <time>2023-05-28T14:37:23.000Z</time>
      </trkpt>
      <trkpt lat="46.19365" lon="-1.41963">
        <ele>47.82995</ele>
        <time>2023-05-28T14:37:25.000Z</time>
      </trkpt>
      <trkpt lat="46.19362" lon="-1.41962">
        <ele>47.8127</ele>
        <time>2023-05-28T14:37:30.000Z</time>
      </trkpt>
      <trkpt lat="46.1936" lon="-1.41959">
        <ele>47.80666</ele>
        <time>2023-05-28T14:37:31.000Z</time>
      </trkpt>
      <trkpt lat="46.19361" lon="-1.41956">
        <ele>47.78869</ele>
        <time>2023-05-28T14:37:32.000Z</time>
      </trkpt>
      <trkpt lat="46.19363" lon="-1.41953">
        <ele>47.77771</ele>
        <time>2023-05-28T14:37:33.000Z</time>
      </trkpt>
      <trkpt lat="46.19367" lon="-1.41953">
        <ele>47.77858</ele>
        <time>2023-05-28T14:37:34.000Z</time>
      </trkpt>
      <trkpt lat="46.19371" lon="-1.41954">
        <ele>47.79378</ele>
        <time>2023-05-28T14:37:35.000Z</time>
      </trkpt>
      <trkpt lat="46.19374" lon="-1.41957">
        <ele>47.82076</ele>
        <time>2023-05-28T14:37:36.000Z</time>
      </trkpt>
      <trkpt lat="46.19377" lon="-1.4196">
        <ele>47.88091</ele>
        <time>2023-05-28T14:37:37.000Z</time>
      </trkpt>
      <trkpt lat="46.1938" lon="-1.41963">
        <ele>47.9408</ele>
        <time>2023-05-28T14:37:38.000Z</time>
      </trkpt>
      <trkpt lat="46.19382" lon="-1.41966">
        <ele>48.03032</ele>
        <time>2023-05-28T14:37:39.000Z</time>
      </trkpt>
      <trkpt lat="46.19385" lon="-1.41969">
        <ele>48.13063</ele>
        <time>2023-05-28T14:37:40.000Z</time>
      </trkpt>
      <trkpt lat="46.19387" lon="-1.41972">
        <ele>48.21442</ele>
        <time>2023-05-28T14:37:41.000Z</time>
      </trkpt>
      <trkpt lat="46.19389" lon="-1.41974">
        <ele>48.30833</ele>
        <time>2023-05-28T14:37:42.000Z</time>
      </trkpt>
      <trkpt lat="46.19391" lon="-1.41976">
        <ele>48.39711</ele>
        <time>2023-05-28T14:37:43.000Z</time>
      </trkpt>
      <trkpt lat="46.19393" lon="-1.41979">
        <ele>48.47623</ele>
        <time>2023-05-28T14:37:44.000Z</time>
      </trkpt>
      <trkpt lat="46.19395" lon="-1.41981">
        <ele>48.52924</ele>
        <time>2023-05-28T14:37:45.000Z</time>
      </trkpt>
      <trkpt lat="46.19397" lon="-1.41984">
        <ele>48.56536</ele>
        <time>2023-05-28T14:37:46.000Z</time>
      </trkpt>
      <trkpt lat="46.19399" lon="-1.41988">
        <ele>48.64223</ele>
        <time>2023-05-28T14:37:47.000Z</time>
      </trkpt>
      <trkpt lat="46.19401" lon="-1.41991">
        <ele>48.71709</ele>
        <time>2023-05-28T14:37:48.000Z</time>
      </trkpt>
      <trkpt lat="46.19402" lon="-1.41995">
        <ele>48.81037</ele>
        <time>2023-05-28T14:37:49.000Z</time>
      </trkpt>
      <trkpt lat="46.19404" lon="-1.41999">
        <ele>48.91026</ele>
        <time>2023-05-28T14:37:50.000Z</time>
      </trkpt>
      <trkpt lat="46.19406" lon="-1.42003">
        <ele>48.97026</ele>
        <time>2023-05-28T14:37:51.000Z</time>
      </trkpt>
      <trkpt lat="46.19407" lon="-1.42008">
        <ele>49.04187</ele>
        <time>2023-05-28T14:37:52.000Z</time>
      </trkpt>
      <trkpt lat="46.19409" lon="-1.42012">
        <ele>49.11172</ele>
        <time>2023-05-28T14:37:53.000Z</time>
      </trkpt>
      <trkpt lat="46.19411" lon="-1.42016">
        <ele>49.16639</ele>
        <time>2023-05-28T14:37:54.000Z</time>
      </trkpt>
      <trkpt lat="46.19413" lon="-1.4202">
        <ele>49.19406</ele>
        <time>2023-05-28T14:37:55.000Z</time>
      </trkpt>
      <trkpt lat="46.19415" lon="-1.42024">
        <ele>49.20926</ele>
        <time>2023-05-28T14:37:56.000Z</time>
      </trkpt>
      <trkpt lat="46.19416" lon="-1.42027">
        <ele>49.21514</ele>
        <time>2023-05-28T14:37:57.000Z</time>
      </trkpt>
      <trkpt lat="46.19418" lon="-1.42031">
        <ele>49.2053</ele>
        <time>2023-05-28T14:37:58.000Z</time>
      </trkpt>
      <trkpt lat="46.19419" lon="-1.42034">
        <ele>49.19678</ele>
        <time>2023-05-28T14:37:59.000Z</time>
      </trkpt>
      <trkpt lat="46.19421" lon="-1.42038">
        <ele>49.16477</ele>
        <time>2023-05-28T14:38:00.000Z</time>
      </trkpt>
      <trkpt lat="46.19423" lon="-1.42042">
        <ele>49.14481</ele>
        <time>2023-05-28T14:38:01.000Z</time>
      </trkpt>
      <trkpt lat="46.19424" lon="-1.42046">
        <ele>49.10176</ele>
        <time>2023-05-28T14:38:02.000Z</time>
      </trkpt>
      <trkpt lat="46.19426" lon="-1.42049">
        <ele>49.0587</ele>
        <time>2023-05-28T14:38:03.000Z</time>
      </trkpt>
      <trkpt lat="46.19428" lon="-1.42053">
        <ele>49.00019</ele>
        <time>2023-05-28T14:38:04.000Z</time>
      </trkpt>
      <trkpt lat="46.1943" lon="-1.42057">
        <ele>48.97136</ele>
        <time>2023-05-28T14:38:05.000Z</time>
      </trkpt>
      <trkpt lat="46.19431" lon="-1.42062">
        <ele>48.93656</ele>
        <time>2023-05-28T14:38:06.000Z</time>
      </trkpt>
      <trkpt lat="46.19433" lon="-1.42066">
        <ele>48.9069</ele>
        <time>2023-05-28T14:38:07.000Z</time>
      </trkpt>
      <trkpt lat="46.19435" lon="-1.4207">
        <ele>48.85935</ele>
        <time>2023-05-28T14:38:08.000Z</time>
      </trkpt>
      <trkpt lat="46.19437" lon="-1.42073">
        <ele>48.80716</ele>
        <time>2023-05-28T14:38:09.000Z</time>
      </trkpt>
      <trkpt lat="46.19439" lon="-1.42077">
        <ele>48.76104</ele>
        <time>2023-05-28T14:38:10.000Z</time>
      </trkpt>
      <trkpt lat="46.19441" lon="-1.42081">
        <ele>48.72391</ele>
        <time>2023-05-28T14:38:11.000Z</time>
      </trkpt>
      <trkpt lat="46.19443" lon="-1.42084">
        <ele>48.68734</ele>
        <time>2023-05-28T14:38:12.000Z</time>
      </trkpt>
      <trkpt lat="46.19445" lon="-1.42088">
        <ele>48.64913</ele>
        <time>2023-05-28T14:38:13.000Z</time>
      </trkpt>
      <trkpt lat="46.19447" lon="-1.42091">
        <ele>48.62598</ele>
        <time>2023-05-28T14:38:14.000Z</time>
      </trkpt>
      <trkpt lat="46.19449" lon="-1.42094">
        <ele>48.6129</ele>
        <time>2023-05-28T14:38:15.000Z</time>
      </trkpt>
      <trkpt lat="46.19451" lon="-1.42098">
        <ele>48.62988</ele>
        <time>2023-05-28T14:38:16.000Z</time>
      </trkpt>
      <trkpt lat="46.19453" lon="-1.421">
        <ele>48.64589</ele>
        <time>2023-05-28T14:38:17.000Z</time>
      </trkpt>
      <trkpt lat="46.19454" lon="-1.42103">
        <ele>48.68923</ele>
        <time>2023-05-28T14:38:18.000Z</time>
      </trkpt>
      <trkpt lat="46.19457" lon="-1.42105">
        <ele>48.67379</ele>
        <time>2023-05-28T14:38:19.000Z</time>
      </trkpt>
      <trkpt lat="46.19459" lon="-1.42108">
        <ele>48.69811</ele>
        <time>2023-05-28T14:38:20.000Z</time>
      </trkpt>
      <trkpt lat="46.19461" lon="-1.42111">
        <ele>48.73189</ele>
        <time>2023-05-28T14:38:21.000Z</time>
      </trkpt>
      <trkpt lat="46.19463" lon="-1.42114">
        <ele>48.80695</ele>
        <time>2023-05-28T14:38:22.000Z</time>
      </trkpt>
      <trkpt lat="46.19465" lon="-1.42117">
        <ele>48.87431</ele>
        <time>2023-05-28T14:38:23.000Z</time>
      </trkpt>
      <trkpt lat="46.19467" lon="-1.4212">
        <ele>48.97639</ele>
        <time>2023-05-28T14:38:24.000Z</time>
      </trkpt>
      <trkpt lat="46.19469" lon="-1.42123">
        <ele>49.06082</ele>
        <time>2023-05-28T14:38:25.000Z</time>
      </trkpt>
      <trkpt lat="46.19471" lon="-1.42126">
        <ele>49.14917</ele>
        <time>2023-05-28T14:38:26.000Z</time>
      </trkpt>
      <trkpt lat="46.19473" lon="-1.42128">
        <ele>49.23384</ele>
        <time>2023-05-28T14:38:27.000Z</time>
      </trkpt>
      <trkpt lat="46.19474" lon="-1.42131">
        <ele>49.32867</ele>
        <time>2023-05-28T14:38:28.000Z</time>
      </trkpt>
      <trkpt lat="46.19476" lon="-1.42134">
        <ele>49.40396</ele>
        <time>2023-05-28T14:38:29.000Z</time>
      </trkpt>
      <trkpt lat="46.19478" lon="-1.42137">
        <ele>49.47335</ele>
        <time>2023-05-28T14:38:30.000Z</time>
      </trkpt>
      <trkpt lat="46.19479" lon="-1.42139">
        <ele>49.5563</ele>
        <time>2023-05-28T14:38:31.000Z</time>
      </trkpt>
      <trkpt lat="46.19481" lon="-1.42142">
        <ele>49.62646</ele>
        <time>2023-05-28T14:38:32.000Z</time>
      </trkpt>
      <trkpt lat="46.19483" lon="-1.42143">
        <ele>49.69462</ele>
        <time>2023-05-28T14:38:33.000Z</time>
      </trkpt>
      <trkpt lat="46.19484" lon="-1.42145">
        <ele>49.7384</ele>
        <time>2023-05-28T14:38:34.000Z</time>
      </trkpt>
      <trkpt lat="46.19486" lon="-1.42148">
        <ele>49.79575</ele>
        <time>2023-05-28T14:38:35.000Z</time>
      </trkpt>
      <trkpt lat="46.19487" lon="-1.42151">
        <ele>49.84954</ele>
        <time>2023-05-28T14:38:36.000Z</time>
      </trkpt>
      <trkpt lat="46.19489" lon="-1.42154">
        <ele>49.88962</ele>
        <time>2023-05-28T14:38:37.000Z</time>
      </trkpt>
      <trkpt lat="46.1949" lon="-1.42156">
        <ele>49.90806</ele>
        <time>2023-05-28T14:38:38.000Z</time>
      </trkpt>
      <trkpt lat="46.19492" lon="-1.42158">
        <ele>49.97811</ele>
        <time>2023-05-28T14:38:39.000Z</time>
      </trkpt>
      <trkpt lat="46.19494" lon="-1.42161">
        <ele>50.04031</ele>
        <time>2023-05-28T14:38:40.000Z</time>
      </trkpt>
      <trkpt lat="46.19496" lon="-1.42163">
        <ele>50.08064</ele>
        <time>2023-05-28T14:38:41.000Z</time>
      </trkpt>
      <trkpt lat="46.19497" lon="-1.42166">
        <ele>50.11191</ele>
        <time>2023-05-28T14:38:42.000Z</time>
      </trkpt>
      <trkpt lat="46.19498" lon="-1.42169">
        <ele>50.15639</ele>
        <time>2023-05-28T14:38:43.000Z</time>
      </trkpt>
      <trkpt lat="46.19499" lon="-1.42172">
        <ele>50.15941</ele>
        <time>2023-05-28T14:38:44.000Z</time>
      </trkpt>
      <trkpt lat="46.19499" lon="-1.42175">
        <ele>50.1594</ele>
        <time>2023-05-28T14:38:45.000Z</time>
      </trkpt>
      <trkpt lat="46.19499" lon="-1.42178">
        <ele>50.18934</ele>
        <time>2023-05-28T14:38:46.000Z</time>
      </trkpt>
      <trkpt lat="46.19498" lon="-1.42182">
        <ele>50.21243</ele>
        <time>2023-05-28T14:38:47.000Z</time>
      </trkpt>
      <trkpt lat="46.19498" lon="-1.42185">
        <ele>50.23599</ele>
        <time>2023-05-28T14:38:48.000Z</time>
      </trkpt>
      <trkpt lat="46.19497" lon="-1.42189">
        <ele>50.25532</ele>
        <time>2023-05-28T14:38:49.000Z</time>
      </trkpt>
      <trkpt lat="46.19496" lon="-1.42193">
        <ele>50.27559</ele>
        <time>2023-05-28T14:38:50.000Z</time>
      </trkpt>
      <trkpt lat="46.19495" lon="-1.42197">
        <ele>50.29832</ele>
        <time>2023-05-28T14:38:51.000Z</time>
      </trkpt>
      <trkpt lat="46.19495" lon="-1.42201">
        <ele>50.34013</ele>
        <time>2023-05-28T14:38:52.000Z</time>
      </trkpt>
      <trkpt lat="46.19495" lon="-1.42204">
        <ele>50.38456</ele>
        <time>2023-05-28T14:38:53.000Z</time>
      </trkpt>
      <trkpt lat="46.19494" lon="-1.42208">
        <ele>50.45237</ele>
        <time>2023-05-28T14:38:54.000Z</time>
      </trkpt>
      <trkpt lat="46.19494" lon="-1.42212">
        <ele>50.50211</ele>
        <time>2023-05-28T14:38:55.000Z</time>
      </trkpt>
      <trkpt lat="46.19493" lon="-1.42216">
        <ele>50.51645</ele>
        <time>2023-05-28T14:38:56.000Z</time>
      </trkpt>
      <trkpt lat="46.19492" lon="-1.4222">
        <ele>50.54144</ele>
        <time>2023-05-28T14:38:57.000Z</time>
      </trkpt>
      <trkpt lat="46.19491" lon="-1.42225">
        <ele>50.56474</ele>
        <time>2023-05-28T14:38:58.000Z</time>
      </trkpt>
      <trkpt lat="46.1949" lon="-1.42229">
        <ele>50.58107</ele>
        <time>2023-05-28T14:38:59.000Z</time>
      </trkpt>
      <trkpt lat="46.19489" lon="-1.42233">
        <ele>50.58167</ele>
        <time>2023-05-28T14:39:00.000Z</time>
      </trkpt>
      <trkpt lat="46.19488" lon="-1.42238">
        <ele>50.5784</ele>
        <time>2023-05-28T14:39:01.000Z</time>
      </trkpt>
      <trkpt lat="46.19487" lon="-1.42243">
        <ele>50.56488</ele>
        <time>2023-05-28T14:39:02.000Z</time>
      </trkpt>
      <trkpt lat="46.19486" lon="-1.42247">
        <ele>50.53471</ele>
        <time>2023-05-28T14:39:03.000Z</time>
      </trkpt>
      <trkpt lat="46.19485" lon="-1.42251">
        <ele>50.54301</ele>
        <time>2023-05-28T14:39:04.000Z</time>
      </trkpt>
      <trkpt lat="46.19484" lon="-1.42255">
        <ele>50.57979</ele>
        <time>2023-05-28T14:39:05.000Z</time>
      </trkpt>
      <trkpt lat="46.19482" lon="-1.42258">
        <ele>50.57958</ele>
        <time>2023-05-28T14:39:06.000Z</time>
      </trkpt>
      <trkpt lat="46.19481" lon="-1.42262">
        <ele>50.57637</ele>
        <time>2023-05-28T14:39:07.000Z</time>
      </trkpt>
      <trkpt lat="46.1948" lon="-1.42267">
        <ele>50.56771</ele>
        <time>2023-05-28T14:39:08.000Z</time>
      </trkpt>
      <trkpt lat="46.19478" lon="-1.42271">
        <ele>50.58662</ele>
        <time>2023-05-28T14:39:09.000Z</time>
      </trkpt>
      <trkpt lat="46.19477" lon="-1.42275">
        <ele>50.59781</ele>
        <time>2023-05-28T14:39:10.000Z</time>
      </trkpt>
      <trkpt lat="46.19476" lon="-1.42279">
        <ele>50.598</ele>
        <time>2023-05-28T14:39:11.000Z</time>
      </trkpt>
      <trkpt lat="46.19475" lon="-1.42284">
        <ele>50.57357</ele>
        <time>2023-05-28T14:39:12.000Z</time>
      </trkpt>
      <trkpt lat="46.19474" lon="-1.42288">
        <ele>50.54581</ele>
        <time>2023-05-28T14:39:13.000Z</time>
      </trkpt>
      <trkpt lat="46.19472" lon="-1.42292">
        <ele>50.4842</ele>
        <time>2023-05-28T14:39:14.000Z</time>
      </trkpt>
      <trkpt lat="46.19471" lon="-1.42295">
        <ele>50.42676</ele>
        <time>2023-05-28T14:39:15.000Z</time>
      </trkpt>
      <trkpt lat="46.1947" lon="-1.42298">
        <ele>50.40037</ele>
        <time>2023-05-28T14:39:16.000Z</time>
      </trkpt>
      <trkpt lat="46.19469" lon="-1.42301">
        <ele>50.37823</ele>
        <time>2023-05-28T14:39:17.000Z</time>
      </trkpt>
      <trkpt lat="46.19468" lon="-1.42305">
        <ele>50.36582</ele>
        <time>2023-05-28T14:39:18.000Z</time>
      </trkpt>
      <trkpt lat="46.19466" lon="-1.42308">
        <ele>50.36857</ele>
        <time>2023-05-28T14:39:19.000Z</time>
      </trkpt>
      <trkpt lat="46.19465" lon="-1.42311">
        <ele>50.35334</ele>
        <time>2023-05-28T14:39:20.000Z</time>
      </trkpt>
      <trkpt lat="46.19464" lon="-1.42314">
        <ele>50.38532</ele>
        <time>2023-05-28T14:39:21.000Z</time>
      </trkpt>
      <trkpt lat="46.19462" lon="-1.42318">
        <ele>50.40432</ele>
        <time>2023-05-28T14:39:22.000Z</time>
      </trkpt>
      <trkpt lat="46.19461" lon="-1.42322">
        <ele>50.40401</ele>
        <time>2023-05-28T14:39:23.000Z</time>
      </trkpt>
      <trkpt lat="46.1946" lon="-1.42325">
        <ele>50.37385</ele>
        <time>2023-05-28T14:39:24.000Z</time>
      </trkpt>
      <trkpt lat="46.19459" lon="-1.42328">
        <ele>50.34905</ele>
        <time>2023-05-28T14:39:25.000Z</time>
      </trkpt>
      <trkpt lat="46.19458" lon="-1.42332">
        <ele>50.36234</ele>
        <time>2023-05-28T14:39:26.000Z</time>
      </trkpt>
      <trkpt lat="46.19457" lon="-1.42336">
        <ele>50.38897</ele>
        <time>2023-05-28T14:39:27.000Z</time>
      </trkpt>
      <trkpt lat="46.19456" lon="-1.42339">
        <ele>50.4095</ele>
        <time>2023-05-28T14:39:28.000Z</time>
      </trkpt>
      <trkpt lat="46.19454" lon="-1.42342">
        <ele>50.42363</ele>
        <time>2023-05-28T14:39:29.000Z</time>
      </trkpt>
      <trkpt lat="46.19453" lon="-1.42345">
        <ele>50.43738</ele>
        <time>2023-05-28T14:39:30.000Z</time>
      </trkpt>
      <trkpt lat="46.19451" lon="-1.42349">
        <ele>50.46458</ele>
        <time>2023-05-28T14:39:31.000Z</time>
      </trkpt>
      <trkpt lat="46.1945" lon="-1.42353">
        <ele>50.47863</ele>
        <time>2023-05-28T14:39:32.000Z</time>
      </trkpt>
      <trkpt lat="46.1945" lon="-1.42357">
        <ele>50.45628</ele>
        <time>2023-05-28T14:39:33.000Z</time>
      </trkpt>
      <trkpt lat="46.19449" lon="-1.42362">
        <ele>50.47179</ele>
        <time>2023-05-28T14:39:34.000Z</time>
      </trkpt>
      <trkpt lat="46.19448" lon="-1.42365">
        <ele>50.48616</ele>
        <time>2023-05-28T14:39:35.000Z</time>
      </trkpt>
      <trkpt lat="46.19447" lon="-1.42369">
        <ele>50.48235</ele>
        <time>2023-05-28T14:39:36.000Z</time>
      </trkpt>
      <trkpt lat="46.19446" lon="-1.42372">
        <ele>50.48643</ele>
        <time>2023-05-28T14:39:37.000Z</time>
      </trkpt>
      <trkpt lat="46.19445" lon="-1.42374">
        <ele>50.4817</ele>
        <time>2023-05-28T14:39:38.000Z</time>
      </trkpt>
      <trkpt lat="46.19443" lon="-1.42378">
        <ele>50.49218</ele>
        <time>2023-05-28T14:39:40.000Z</time>
      </trkpt>
      <trkpt lat="46.19442" lon="-1.42381">
        <ele>50.52377</ele>
        <time>2023-05-28T14:39:41.000Z</time>
      </trkpt>
      <trkpt lat="46.19441" lon="-1.42383">
        <ele>50.52605</ele>
        <time>2023-05-28T14:39:42.000Z</time>
      </trkpt>
      <trkpt lat="46.1944" lon="-1.42386">
        <ele>50.52828</ele>
        <time>2023-05-28T14:39:43.000Z</time>
      </trkpt>
      <trkpt lat="46.19439" lon="-1.42388">
        <ele>50.58291</ele>
        <time>2023-05-28T14:39:44.000Z</time>
      </trkpt>
      <trkpt lat="46.19437" lon="-1.4239">
        <ele>50.67131</ele>
        <time>2023-05-28T14:39:45.000Z</time>
      </trkpt>
      <trkpt lat="46.19436" lon="-1.42392">
        <ele>50.73996</ele>
        <time>2023-05-28T14:39:46.000Z</time>
      </trkpt>
      <trkpt lat="46.19434" lon="-1.42393">
        <ele>50.7696</ele>
        <time>2023-05-28T14:39:47.000Z</time>
      </trkpt>
      <trkpt lat="46.19433" lon="-1.42395">
        <ele>50.76667</ele>
        <time>2023-05-28T14:39:48.000Z</time>
      </trkpt>
      <trkpt lat="46.19431" lon="-1.42398">
        <ele>50.78439</ele>
        <time>2023-05-28T14:39:50.000Z</time>
      </trkpt>
      <trkpt lat="46.1943" lon="-1.42402">
        <ele>50.7888</ele>
        <time>2023-05-28T14:39:52.000Z</time>
      </trkpt>
      <trkpt lat="46.1943" lon="-1.42407">
        <ele>50.79225</ele>
        <time>2023-05-28T14:39:54.000Z</time>
      </trkpt>
      <trkpt lat="46.1943" lon="-1.42409">
        <ele>50.7877</ele>
        <time>2023-05-28T14:39:55.000Z</time>
      </trkpt>
      <trkpt lat="46.19429" lon="-1.42412">
        <ele>50.80315</ele>
        <time>2023-05-28T14:39:56.000Z</time>
      </trkpt>
      <trkpt lat="46.19429" lon="-1.42415">
        <ele>50.87053</ele>
        <time>2023-05-28T14:39:57.000Z</time>
      </trkpt>
      <trkpt lat="46.19428" lon="-1.42418">
        <ele>50.91221</ele>
        <time>2023-05-28T14:39:58.000Z</time>
      </trkpt>
      <trkpt lat="46.19427" lon="-1.42421">
        <ele>50.9288</ele>
        <time>2023-05-28T14:39:59.000Z</time>
      </trkpt>
      <trkpt lat="46.19427" lon="-1.42424">
        <ele>50.95288</ele>
        <time>2023-05-28T14:40:00.000Z</time>
      </trkpt>
      <trkpt lat="46.19426" lon="-1.42427">
        <ele>50.98291</ele>
        <time>2023-05-28T14:40:01.000Z</time>
      </trkpt>
      <trkpt lat="46.19425" lon="-1.4243">
        <ele>50.99938</ele>
        <time>2023-05-28T14:40:02.000Z</time>
      </trkpt>
      <trkpt lat="46.19424" lon="-1.42433">
        <ele>50.88424</ele>
        <time>2023-05-28T14:40:03.000Z</time>
      </trkpt>
      <trkpt lat="46.19424" lon="-1.42436">
        <ele>50.8024</ele>
        <time>2023-05-28T14:40:04.000Z</time>
      </trkpt>
      <trkpt lat="46.19423" lon="-1.42439">
        <ele>50.71094</ele>
        <time>2023-05-28T14:40:05.000Z</time>
      </trkpt>
      <trkpt lat="46.19422" lon="-1.42442">
        <ele>50.62547</ele>
        <time>2023-05-28T14:40:06.000Z</time>
      </trkpt>
      <trkpt lat="46.19421" lon="-1.42445">
        <ele>50.50296</ele>
        <time>2023-05-28T14:40:07.000Z</time>
      </trkpt>
      <trkpt lat="46.1942" lon="-1.42448">
        <ele>50.37669</ele>
        <time>2023-05-28T14:40:08.000Z</time>
      </trkpt>
      <trkpt lat="46.19419" lon="-1.42451">
        <ele>50.25439</ele>
        <time>2023-05-28T14:40:09.000Z</time>
      </trkpt>
      <trkpt lat="46.19418" lon="-1.42453">
        <ele>50.16985</ele>
        <time>2023-05-28T14:40:10.000Z</time>
      </trkpt>
      <trkpt lat="46.19416" lon="-1.42455">
        <ele>50.08987</ele>
        <time>2023-05-28T14:40:11.000Z</time>
      </trkpt>
      <trkpt lat="46.19415" lon="-1.42457">
        <ele>50.08608</ele>
        <time>2023-05-28T14:40:13.000Z</time>
      </trkpt>
      <trkpt lat="46.19416" lon="-1.42456">
        <ele>50.09039</ele>
        <time>2023-05-28T14:40:18.000Z</time>
      </trkpt>
      <trkpt lat="46.19417" lon="-1.4246">
        <ele>50.06567</ele>
        <time>2023-05-28T14:40:51.000Z</time>
      </trkpt>
      <trkpt lat="46.19417" lon="-1.42463">
        <ele>50.00436</ele>
        <time>2023-05-28T14:40:54.000Z</time>
      </trkpt>
      <trkpt lat="46.19416" lon="-1.42466">
        <ele>49.90952</ele>
        <time>2023-05-28T14:40:56.000Z</time>
      </trkpt>
      <trkpt lat="46.19416" lon="-1.4247">
        <ele>49.7846</ele>
        <time>2023-05-28T14:40:58.000Z</time>
      </trkpt>
      <trkpt lat="46.19416" lon="-1.42475">
        <ele>49.70118</ele>
        <time>2023-05-28T14:41:00.000Z</time>
      </trkpt>
      <trkpt lat="46.19416" lon="-1.4248">
        <ele>49.60247</ele>
        <time>2023-05-28T14:41:02.000Z</time>
      </trkpt>
      <trkpt lat="46.19418" lon="-1.42482">
        <ele>49.51128</ele>
        <time>2023-05-28T14:41:03.000Z</time>
      </trkpt>
      <trkpt lat="46.1942" lon="-1.42484">
        <ele>49.49908</ele>
        <time>2023-05-28T14:41:04.000Z</time>
      </trkpt>
      <trkpt lat="46.19423" lon="-1.42486">
        <ele>49.46656</ele>
        <time>2023-05-28T14:41:05.000Z</time>
      </trkpt>
      <trkpt lat="46.19426" lon="-1.42487">
        <ele>49.53149</ele>
        <time>2023-05-28T14:41:06.000Z</time>
      </trkpt>
      <trkpt lat="46.19428" lon="-1.42488">
        <ele>49.56651</ele>
        <time>2023-05-28T14:41:07.000Z</time>
      </trkpt>
      <trkpt lat="46.1943" lon="-1.42489">
        <ele>49.59179</ele>
        <time>2023-05-28T14:41:08.000Z</time>
      </trkpt>
      <trkpt lat="46.19433" lon="-1.42491">
        <ele>49.62249</ele>
        <time>2023-05-28T14:41:09.000Z</time>
      </trkpt>
      <trkpt lat="46.19435" lon="-1.42492">
        <ele>49.64161</ele>
        <time>2023-05-28T14:41:10.000Z</time>
      </trkpt>
      <trkpt lat="46.19436" lon="-1.42493">
        <ele>49.61761</ele>
        <time>2023-05-28T14:41:11.000Z</time>
      </trkpt>
      <trkpt lat="46.19438" lon="-1.42495">
        <ele>49.60762</ele>
        <time>2023-05-28T14:41:12.000Z</time>
      </trkpt>
      <trkpt lat="46.1944" lon="-1.42496">
        <ele>49.58992</ele>
        <time>2023-05-28T14:41:13.000Z</time>
      </trkpt>
      <trkpt lat="46.19442" lon="-1.42497">
        <ele>49.6206</ele>
        <time>2023-05-28T14:41:15.000Z</time>
      </trkpt>
      <trkpt lat="46.19444" lon="-1.42501">
        <ele>49.57104</ele>
        <time>2023-05-28T14:41:48.000Z</time>
      </trkpt>
      <trkpt lat="46.19446" lon="-1.42502">
        <ele>49.52351</ele>
        <time>2023-05-28T14:41:49.000Z</time>
      </trkpt>
      <trkpt lat="46.19449" lon="-1.42503">
        <ele>49.49973</ele>
        <time>2023-05-28T14:41:50.000Z</time>
      </trkpt>
      <trkpt lat="46.19452" lon="-1.42505">
        <ele>49.50384</ele>
        <time>2023-05-28T14:41:51.000Z</time>
      </trkpt>
      <trkpt lat="46.19456" lon="-1.42507">
        <ele>49.5336</ele>
        <time>2023-05-28T14:41:52.000Z</time>
      </trkpt>
      <trkpt lat="46.19459" lon="-1.42509">
        <ele>49.57903</ele>
        <time>2023-05-28T14:41:53.000Z</time>
      </trkpt>
      <trkpt lat="46.19462" lon="-1.42511">
        <ele>49.59612</ele>
        <time>2023-05-28T14:41:54.000Z</time>
      </trkpt>
      <trkpt lat="46.19466" lon="-1.42514">
        <ele>49.65682</ele>
        <time>2023-05-28T14:41:55.000Z</time>
      </trkpt>
      <trkpt lat="46.1947" lon="-1.42516">
        <ele>49.68307</ele>
        <time>2023-05-28T14:41:56.000Z</time>
      </trkpt>
      <trkpt lat="46.19475" lon="-1.42518">
        <ele>49.61318</ele>
        <time>2023-05-28T14:41:57.000Z</time>
      </trkpt>
      <trkpt lat="46.19479" lon="-1.4252">
        <ele>49.59943</ele>
        <time>2023-05-28T14:41:58.000Z</time>
      </trkpt>
      <trkpt lat="46.19484" lon="-1.42522">
        <ele>49.58307</ele>
        <time>2023-05-28T14:41:59.000Z</time>
      </trkpt>
      <trkpt lat="46.19489" lon="-1.42523">
        <ele>49.60091</ele>
        <time>2023-05-28T14:42:00.000Z</time>
      </trkpt>
      <trkpt lat="46.19494" lon="-1.42525">
        <ele>49.65367</ele>
        <time>2023-05-28T14:42:01.000Z</time>
      </trkpt>
      <trkpt lat="46.19499" lon="-1.42527">
        <ele>49.71454</ele>
        <time>2023-05-28T14:42:02.000Z</time>
      </trkpt>
      <trkpt lat="46.19504" lon="-1.42528">
        <ele>49.82847</ele>
        <time>2023-05-28T14:42:03.000Z</time>
      </trkpt>
      <trkpt lat="46.19509" lon="-1.42528">
        <ele>49.94693</ele>
        <time>2023-05-28T14:42:04.000Z</time>
      </trkpt>
      <trkpt lat="46.19515" lon="-1.4253">
        <ele>50.04487</ele>
        <time>2023-05-28T14:42:05.000Z</time>
      </trkpt>
      <trkpt lat="46.19519" lon="-1.4253">
        <ele>50.14474</ele>
        <time>2023-05-28T14:42:06.000Z</time>
      </trkpt>
      <trkpt lat="46.19524" lon="-1.42533">
        <ele>50.2333</ele>
        <time>2023-05-28T14:42:07.000Z</time>
      </trkpt>
      <trkpt lat="46.19529" lon="-1.42536">
        <ele>50.28658</ele>
        <time>2023-05-28T14:42:08.000Z</time>
      </trkpt>
      <trkpt lat="46.19534" lon="-1.42539">
        <ele>50.31499</ele>
        <time>2023-05-28T14:42:09.000Z</time>
      </trkpt>
      <trkpt lat="46.19539" lon="-1.42542">
        <ele>50.32875</ele>
        <time>2023-05-28T14:42:10.000Z</time>
      </trkpt>
      <trkpt lat="46.19542" lon="-1.42547">
        <ele>50.31839</ele>
        <time>2023-05-28T14:42:11.000Z</time>
      </trkpt>
      <trkpt lat="46.19546" lon="-1.42553">
        <ele>50.27591</ele>
        <time>2023-05-28T14:42:12.000Z</time>
      </trkpt>
      <trkpt lat="46.19549" lon="-1.42558">
        <ele>50.27609</ele>
        <time>2023-05-28T14:42:13.000Z</time>
      </trkpt>
      <trkpt lat="46.19553" lon="-1.42564">
        <ele>50.22924</ele>
        <time>2023-05-28T14:42:14.000Z</time>
      </trkpt>
      <trkpt lat="46.19557" lon="-1.42569">
        <ele>50.16171</ele>
        <time>2023-05-28T14:42:15.000Z</time>
      </trkpt>
      <trkpt lat="46.1956" lon="-1.42576">
        <ele>50.11516</ele>
        <time>2023-05-28T14:42:16.000Z</time>
      </trkpt>
      <trkpt lat="46.19564" lon="-1.42582">
        <ele>50.08344</ele>
        <time>2023-05-28T14:42:17.000Z</time>
      </trkpt>
      <trkpt lat="46.19568" lon="-1.42588">
        <ele>50.0539</ele>
        <time>2023-05-28T14:42:18.000Z</time>
      </trkpt>
      <trkpt lat="46.19572" lon="-1.42595">
        <ele>50.0569</ele>
        <time>2023-05-28T14:42:19.000Z</time>
      </trkpt>
      <trkpt lat="46.19576" lon="-1.42602">
        <ele>50.0269</ele>
        <time>2023-05-28T14:42:20.000Z</time>
      </trkpt>
      <trkpt lat="46.19579" lon="-1.42609">
        <ele>49.97347</ele>
        <time>2023-05-28T14:42:21.000Z</time>
      </trkpt>
      <trkpt lat="46.19584" lon="-1.42616">
        <ele>49.89417</ele>
        <time>2023-05-28T14:42:22.000Z</time>
      </trkpt>
      <trkpt lat="46.19588" lon="-1.42622">
        <ele>49.80554</ele>
        <time>2023-05-28T14:42:23.000Z</time>
      </trkpt>
      <trkpt lat="46.19593" lon="-1.42625">
        <ele>49.75492</ele>
        <time>2023-05-28T14:42:24.000Z</time>
      </trkpt>
      <trkpt lat="46.196" lon="-1.42627">
        <ele>49.70315</ele>
        <time>2023-05-28T14:42:25.000Z</time>
      </trkpt>
      <trkpt lat="46.19606" lon="-1.42628">
        <ele>49.63927</ele>
        <time>2023-05-28T14:42:26.000Z</time>
      </trkpt>
      <trkpt lat="46.19612" lon="-1.42629">
        <ele>49.59417</ele>
        <time>2023-05-28T14:42:27.000Z</time>
      </trkpt>
      <trkpt lat="46.19619" lon="-1.42629">
        <ele>49.58181</ele>
        <time>2023-05-28T14:42:28.000Z</time>
      </trkpt>
      <trkpt lat="46.19625" lon="-1.42629">
        <ele>49.56232</ele>
        <time>2023-05-28T14:42:29.000Z</time>
      </trkpt>
      <trkpt lat="46.19631" lon="-1.42629">
        <ele>49.57771</ele>
        <time>2023-05-28T14:42:30.000Z</time>
      </trkpt>
      <trkpt lat="46.19636" lon="-1.42627">
        <ele>49.56979</ele>
        <time>2023-05-28T14:42:31.000Z</time>
      </trkpt>
      <trkpt lat="46.19639" lon="-1.42626">
        <ele>49.58881</ele>
        <time>2023-05-28T14:42:32.000Z</time>
      </trkpt>
      <trkpt lat="46.19641" lon="-1.42625">
        <ele>49.54793</ele>
        <time>2023-05-28T14:42:33.000Z</time>
      </trkpt>
      <trkpt lat="46.19643" lon="-1.42622">
        <ele>49.58748</ele>
        <time>2023-05-28T14:42:34.000Z</time>
      </trkpt>
      <trkpt lat="46.19646" lon="-1.42619">
        <ele>49.62118</ele>
        <time>2023-05-28T14:42:36.000Z</time>
      </trkpt>
      <trkpt lat="46.19647" lon="-1.42617">
        <ele>49.66099</ele>
        <time>2023-05-28T14:42:37.000Z</time>
      </trkpt>
      <trkpt lat="46.1965" lon="-1.42613">
        <ele>49.67099</ele>
        <time>2023-05-28T14:42:39.000Z</time>
      </trkpt>
      <trkpt lat="46.19652" lon="-1.42611">
        <ele>49.6143</ele>
        <time>2023-05-28T14:42:41.000Z</time>
      </trkpt>
      <trkpt lat="46.19654" lon="-1.42608">
        <ele>49.51095</ele>
        <time>2023-05-28T14:42:43.000Z</time>
      </trkpt>
      <trkpt lat="46.19656" lon="-1.42605">
        <ele>49.41486</ele>
        <time>2023-05-28T14:42:45.000Z</time>
      </trkpt>
      <trkpt lat="46.19658" lon="-1.42602">
        <ele>49.325</ele>
        <time>2023-05-28T14:42:47.000Z</time>
      </trkpt>
      <trkpt lat="46.19661" lon="-1.42599">
        <ele>49.2819</ele>
        <time>2023-05-28T14:42:49.000Z</time>
      </trkpt>
      <trkpt lat="46.19662" lon="-1.42597">
        <ele>49.20206</ele>
        <time>2023-05-28T14:42:50.000Z</time>
      </trkpt>
      <trkpt lat="46.19665" lon="-1.42594">
        <ele>49.1065</ele>
        <time>2023-05-28T14:42:52.000Z</time>
      </trkpt>
      <trkpt lat="46.19668" lon="-1.42592">
        <ele>49.03065</ele>
        <time>2023-05-28T14:42:54.000Z</time>
      </trkpt>
      <trkpt lat="46.1967" lon="-1.42589">
        <ele>48.94212</ele>
        <time>2023-05-28T14:42:56.000Z</time>
      </trkpt>
      <trkpt lat="46.19671" lon="-1.42585">
        <ele>48.8328</ele>
        <time>2023-05-28T14:42:58.000Z</time>
      </trkpt>
      <trkpt lat="46.19672" lon="-1.42583">
        <ele>48.70777</ele>
        <time>2023-05-28T14:42:59.000Z</time>
      </trkpt>
      <trkpt lat="46.19673" lon="-1.4258">
        <ele>48.60065</ele>
        <time>2023-05-28T14:43:00.000Z</time>
      </trkpt>
      <trkpt lat="46.19674" lon="-1.42578">
        <ele>48.5098</ele>
        <time>2023-05-28T14:43:01.000Z</time>
      </trkpt>
      <trkpt lat="46.19676" lon="-1.42575">
        <ele>48.48093</ele>
        <time>2023-05-28T14:43:02.000Z</time>
      </trkpt>
      <trkpt lat="46.19678" lon="-1.42572">
        <ele>48.46593</ele>
        <time>2023-05-28T14:43:03.000Z</time>
      </trkpt>
      <trkpt lat="46.1968" lon="-1.4257">
        <ele>48.48005</ele>
        <time>2023-05-28T14:43:04.000Z</time>
      </trkpt>
      <trkpt lat="46.19682" lon="-1.42567">
        <ele>48.45715</ele>
        <time>2023-05-28T14:43:05.000Z</time>
      </trkpt>
      <trkpt lat="46.19684" lon="-1.42565">
        <ele>48.42929</ele>
        <time>2023-05-28T14:43:06.000Z</time>
      </trkpt>
      <trkpt lat="46.19687" lon="-1.42563">
        <ele>48.38498</ele>
        <time>2023-05-28T14:43:07.000Z</time>
      </trkpt>
      <trkpt lat="46.19689" lon="-1.42561">
        <ele>48.33789</ele>
        <time>2023-05-28T14:43:08.000Z</time>
      </trkpt>
      <trkpt lat="46.19691" lon="-1.42558">
        <ele>48.351</ele>
        <time>2023-05-28T14:43:09.000Z</time>
      </trkpt>
      <trkpt lat="46.19693" lon="-1.42555">
        <ele>48.36675</ele>
        <time>2023-05-28T14:43:10.000Z</time>
      </trkpt>
      <trkpt lat="46.19695" lon="-1.42552">
        <ele>48.37827</ele>
        <time>2023-05-28T14:43:11.000Z</time>
      </trkpt>
      <trkpt lat="46.19697" lon="-1.42549">
        <ele>48.38419</ele>
        <time>2023-05-28T14:43:12.000Z</time>
      </trkpt>
      <trkpt lat="46.19699" lon="-1.42546">
        <ele>48.34834</ele>
        <time>2023-05-28T14:43:13.000Z</time>
      </trkpt>
      <trkpt lat="46.19701" lon="-1.42543">
        <ele>48.33421</ele>
        <time>2023-05-28T14:43:14.000Z</time>
      </trkpt>
      <trkpt lat="46.19703" lon="-1.42541">
        <ele>48.33325</ele>
        <time>2023-05-28T14:43:15.000Z</time>
      </trkpt>
      <trkpt lat="46.19705" lon="-1.42538">
        <ele>48.33004</ele>
        <time>2023-05-28T14:43:16.000Z</time>
      </trkpt>
      <trkpt lat="46.19707" lon="-1.42538">
        <ele>48.33837</ele>
        <time>2023-05-28T14:43:28.000Z</time>
      </trkpt>
      <trkpt lat="46.19708" lon="-1.42533">
        <ele>48.3758</ele>
        <time>2023-05-28T14:43:44.000Z</time>
      </trkpt>
      <trkpt lat="46.19709" lon="-1.42531">
        <ele>48.39941</ele>
        <time>2023-05-28T14:43:45.000Z</time>
      </trkpt>
      <trkpt lat="46.19711" lon="-1.42528">
        <ele>48.44044</ele>
        <time>2023-05-28T14:43:46.000Z</time>
      </trkpt>
      <trkpt lat="46.19714" lon="-1.42525">
        <ele>48.45158</ele>
        <time>2023-05-28T14:43:47.000Z</time>
      </trkpt>
      <trkpt lat="46.19716" lon="-1.42522">
        <ele>48.45292</ele>
        <time>2023-05-28T14:43:48.000Z</time>
      </trkpt>
      <trkpt lat="46.19719" lon="-1.42518">
        <ele>48.44655</ele>
        <time>2023-05-28T14:43:49.000Z</time>
      </trkpt>
      <trkpt lat="46.19721" lon="-1.42515">
        <ele>48.43031</ele>
        <time>2023-05-28T14:43:50.000Z</time>
      </trkpt>
      <trkpt lat="46.19723" lon="-1.42511">
        <ele>48.40649</ele>
        <time>2023-05-28T14:43:51.000Z</time>
      </trkpt>
      <trkpt lat="46.19726" lon="-1.42507">
        <ele>48.39872</ele>
        <time>2023-05-28T14:43:52.000Z</time>
      </trkpt>
      <trkpt lat="46.19728" lon="-1.42503">
        <ele>48.40218</ele>
        <time>2023-05-28T14:43:53.000Z</time>
      </trkpt>
      <trkpt lat="46.1973" lon="-1.425">
        <ele>48.43222</ele>
        <time>2023-05-28T14:43:54.000Z</time>
      </trkpt>
      <trkpt lat="46.19733" lon="-1.42497">
        <ele>48.44318</ele>
        <time>2023-05-28T14:43:55.000Z</time>
      </trkpt>
      <trkpt lat="46.19735" lon="-1.42494">
        <ele>48.46441</ele>
        <time>2023-05-28T14:43:56.000Z</time>
      </trkpt>
      <trkpt lat="46.19737" lon="-1.42491">
        <ele>48.48338</ele>
        <time>2023-05-28T14:43:57.000Z</time>
      </trkpt>
      <trkpt lat="46.19739" lon="-1.42488">
        <ele>48.50166</ele>
        <time>2023-05-28T14:43:58.000Z</time>
      </trkpt>
      <trkpt lat="46.19741" lon="-1.42486">
        <ele>48.53259</ele>
        <time>2023-05-28T14:43:59.000Z</time>
      </trkpt>
      <trkpt lat="46.19744" lon="-1.42485">
        <ele>48.56957</ele>
        <time>2023-05-28T14:44:01.000Z</time>
      </trkpt>
      <trkpt lat="46.19746" lon="-1.42485">
        <ele>48.5947</ele>
        <time>2023-05-28T14:44:02.000Z</time>
      </trkpt>
      <trkpt lat="46.19748" lon="-1.42486">
        <ele>48.59756</ele>
        <time>2023-05-28T14:44:03.000Z</time>
      </trkpt>
      <trkpt lat="46.19749" lon="-1.42488">
        <ele>48.59951</ele>
        <time>2023-05-28T14:44:04.000Z</time>
      </trkpt>
      <trkpt lat="46.19751" lon="-1.4249">
        <ele>48.55999</ele>
        <time>2023-05-28T14:44:05.000Z</time>
      </trkpt>
      <trkpt lat="46.19752" lon="-1.42493">
        <ele>48.54598</ele>
        <time>2023-05-28T14:44:06.000Z</time>
      </trkpt>
      <trkpt lat="46.19754" lon="-1.42497">
        <ele>48.50208</ele>
        <time>2023-05-28T14:44:07.000Z</time>
      </trkpt>
      <trkpt lat="46.19757" lon="-1.425">
        <ele>48.45289</ele>
        <time>2023-05-28T14:44:08.000Z</time>
      </trkpt>
      <trkpt lat="46.19759" lon="-1.42503">
        <ele>48.3845</ele>
        <time>2023-05-28T14:44:09.000Z</time>
      </trkpt>
      <trkpt lat="46.19762" lon="-1.42506">
        <ele>48.31104</ele>
        <time>2023-05-28T14:44:10.000Z</time>
      </trkpt>
      <trkpt lat="46.19765" lon="-1.42509">
        <ele>48.23492</ele>
        <time>2023-05-28T14:44:11.000Z</time>
      </trkpt>
      <trkpt lat="46.19767" lon="-1.42513">
        <ele>48.17229</ele>
        <time>2023-05-28T14:44:12.000Z</time>
      </trkpt>
      <trkpt lat="46.19769" lon="-1.42517">
        <ele>48.12315</ele>
        <time>2023-05-28T14:44:13.000Z</time>
      </trkpt>
      <trkpt lat="46.19771" lon="-1.42521">
        <ele>48.07032</ele>
        <time>2023-05-28T14:44:14.000Z</time>
      </trkpt>
      <trkpt lat="46.19774" lon="-1.42524">
        <ele>48.02653</ele>
        <time>2023-05-28T14:44:15.000Z</time>
      </trkpt>
      <trkpt lat="46.19776" lon="-1.42527">
        <ele>48.00278</ele>
        <time>2023-05-28T14:44:16.000Z</time>
      </trkpt>
      <trkpt lat="46.19779" lon="-1.4253">
        <ele>47.98795</ele>
        <time>2023-05-28T14:44:17.000Z</time>
      </trkpt>
      <trkpt lat="46.19781" lon="-1.42533">
        <ele>47.95113</ele>
        <time>2023-05-28T14:44:18.000Z</time>
      </trkpt>
      <trkpt lat="46.19784" lon="-1.42536">
        <ele>47.92246</ele>
        <time>2023-05-28T14:44:19.000Z</time>
      </trkpt>
      <trkpt lat="46.19786" lon="-1.4254">
        <ele>47.9053</ele>
        <time>2023-05-28T14:44:20.000Z</time>
      </trkpt>
      <trkpt lat="46.19789" lon="-1.42542">
        <ele>47.8864</ele>
        <time>2023-05-28T14:44:21.000Z</time>
      </trkpt>
      <trkpt lat="46.19791" lon="-1.42545">
        <ele>47.87511</ele>
        <time>2023-05-28T14:44:22.000Z</time>
      </trkpt>
      <trkpt lat="46.19793" lon="-1.42548">
        <ele>47.86579</ele>
        <time>2023-05-28T14:44:23.000Z</time>
      </trkpt>
      <trkpt lat="46.19796" lon="-1.42551">
        <ele>47.85316</ele>
        <time>2023-05-28T14:44:24.000Z</time>
      </trkpt>
      <trkpt lat="46.19798" lon="-1.42554">
        <ele>47.84825</ele>
        <time>2023-05-28T14:44:25.000Z</time>
      </trkpt>
      <trkpt lat="46.198" lon="-1.42557">
        <ele>47.83992</ele>
        <time>2023-05-28T14:44:26.000Z</time>
      </trkpt>
      <trkpt lat="46.19802" lon="-1.4256">
        <ele>47.83773</ele>
        <time>2023-05-28T14:44:27.000Z</time>
      </trkpt>
      <trkpt lat="46.19804" lon="-1.42562">
        <ele>47.82669</ele>
        <time>2023-05-28T14:44:28.000Z</time>
      </trkpt>
      <trkpt lat="46.19806" lon="-1.42565">
        <ele>47.82821</ele>
        <time>2023-05-28T14:44:29.000Z</time>
      </trkpt>
      <trkpt lat="46.19808" lon="-1.42568">
        <ele>47.85916</ele>
        <time>2023-05-28T14:44:30.000Z</time>
      </trkpt>
      <trkpt lat="46.1981" lon="-1.42571">
        <ele>47.87885</ele>
        <time>2023-05-28T14:44:31.000Z</time>
      </trkpt>
      <trkpt lat="46.19812" lon="-1.42574">
        <ele>47.91559</ele>
        <time>2023-05-28T14:44:32.000Z</time>
      </trkpt>
      <trkpt lat="46.19815" lon="-1.42577">
        <ele>47.95052</ele>
        <time>2023-05-28T14:44:33.000Z</time>
      </trkpt>
      <trkpt lat="46.19817" lon="-1.4258">
        <ele>47.99644</ele>
        <time>2023-05-28T14:44:34.000Z</time>
      </trkpt>
      <trkpt lat="46.19819" lon="-1.42583">
        <ele>48.02021</ele>
        <time>2023-05-28T14:44:35.000Z</time>
      </trkpt>
      <trkpt lat="46.19821" lon="-1.42585">
        <ele>48.01679</ele>
        <time>2023-05-28T14:44:36.000Z</time>
      </trkpt>
      <trkpt lat="46.19823" lon="-1.42587">
        <ele>48.02172</ele>
        <time>2023-05-28T14:44:37.000Z</time>
      </trkpt>
      <trkpt lat="46.19825" lon="-1.42588">
        <ele>48.01807</ele>
        <time>2023-05-28T14:44:38.000Z</time>
      </trkpt>
      <trkpt lat="46.19827" lon="-1.42589">
        <ele>48.01575</ele>
        <time>2023-05-28T14:44:40.000Z</time>
      </trkpt>
      <trkpt lat="46.1983" lon="-1.4259">
        <ele>48.01684</ele>
        <time>2023-05-28T14:44:42.000Z</time>
      </trkpt>
      <trkpt lat="46.19832" lon="-1.42593">
        <ele>48.01546</ele>
        <time>2023-05-28T14:44:44.000Z</time>
      </trkpt>
      <trkpt lat="46.19834" lon="-1.42597">
        <ele>48.01914</ele>
        <time>2023-05-28T14:44:46.000Z</time>
      </trkpt>
      <trkpt lat="46.19835" lon="-1.426">
        <ele>48.02473</ele>
        <time>2023-05-28T14:44:48.000Z</time>
      </trkpt>
      <trkpt lat="46.19837" lon="-1.42604">
        <ele>48.05328</ele>
        <time>2023-05-28T14:44:50.000Z</time>
      </trkpt>
      <trkpt lat="46.19837" lon="-1.42609">
        <ele>48.07481</ele>
        <time>2023-05-28T14:44:52.000Z</time>
      </trkpt>
      <trkpt lat="46.19836" lon="-1.42611">
        <ele>48.09398</ele>
        <time>2023-05-28T14:44:53.000Z</time>
      </trkpt>
      <trkpt lat="46.19835" lon="-1.42613">
        <ele>48.14974</ele>
        <time>2023-05-28T14:44:54.000Z</time>
      </trkpt>
      <trkpt lat="46.19832" lon="-1.42617">
        <ele>48.21299</ele>
        <time>2023-05-28T14:44:56.000Z</time>
      </trkpt>
      <trkpt lat="46.19831" lon="-1.42622">
        <ele>48.26641</ele>
        <time>2023-05-28T14:44:58.000Z</time>
      </trkpt>
      <trkpt lat="46.19832" lon="-1.42625">
        <ele>48.30357</ele>
        <time>2023-05-28T14:44:59.000Z</time>
      </trkpt>
      <trkpt lat="46.19833" lon="-1.42627">
        <ele>48.356</ele>
        <time>2023-05-28T14:45:00.000Z</time>
      </trkpt>
      <trkpt lat="46.19835" lon="-1.42629">
        <ele>48.3773</ele>
        <time>2023-05-28T14:45:02.000Z</time>
      </trkpt>
      <trkpt lat="46.19839" lon="-1.42629">
        <ele>48.40798</ele>
        <time>2023-05-28T14:45:05.000Z</time>
      </trkpt>
      <trkpt lat="46.19841" lon="-1.42626">
        <ele>48.45285</ele>
        <time>2023-05-28T14:45:07.000Z</time>
      </trkpt>
      <trkpt lat="46.19841" lon="-1.42623">
        <ele>48.49118</ele>
        <time>2023-05-28T14:45:09.000Z</time>
      </trkpt>
      <trkpt lat="46.19842" lon="-1.42618">
        <ele>48.54552</ele>
        <time>2023-05-28T14:45:11.000Z</time>
      </trkpt>
      <trkpt lat="46.19844" lon="-1.42616">
        <ele>48.59638</ele>
        <time>2023-05-28T14:45:12.000Z</time>
      </trkpt>
      <trkpt lat="46.19846" lon="-1.42614">
        <ele>48.68293</ele>
        <time>2023-05-28T14:45:13.000Z</time>
      </trkpt>
      <trkpt lat="46.19849" lon="-1.42615">
        <ele>48.73589</ele>
        <time>2023-05-28T14:45:14.000Z</time>
      </trkpt>
      <trkpt lat="46.19852" lon="-1.42617">
        <ele>48.77699</ele>
        <time>2023-05-28T14:45:15.000Z</time>
      </trkpt>
      <trkpt lat="46.19854" lon="-1.42619">
        <ele>48.83445</ele>
        <time>2023-05-28T14:45:16.000Z</time>
      </trkpt>
      <trkpt lat="46.19856" lon="-1.42622">
        <ele>48.88474</ele>
        <time>2023-05-28T14:45:17.000Z</time>
      </trkpt>
      <trkpt lat="46.19858" lon="-1.42625">
        <ele>48.9444</ele>
        <time>2023-05-28T14:45:18.000Z</time>
      </trkpt>
      <trkpt lat="46.1986" lon="-1.42629">
        <ele>48.98253</ele>
        <time>2023-05-28T14:45:19.000Z</time>
      </trkpt>
      <trkpt lat="46.19862" lon="-1.42633">
        <ele>48.99934</ele>
        <time>2023-05-28T14:45:20.000Z</time>
      </trkpt>
      <trkpt lat="46.19864" lon="-1.42636">
        <ele>49.01807</ele>
        <time>2023-05-28T14:45:21.000Z</time>
      </trkpt>
      <trkpt lat="46.19865" lon="-1.42639">
        <ele>48.99224</ele>
        <time>2023-05-28T14:45:22.000Z</time>
      </trkpt>
      <trkpt lat="46.19866" lon="-1.42642">
        <ele>48.97264</ele>
        <time>2023-05-28T14:45:23.000Z</time>
      </trkpt>
      <trkpt lat="46.19867" lon="-1.42645">
        <ele>48.94691</ele>
        <time>2023-05-28T14:45:24.000Z</time>
      </trkpt>
      <trkpt lat="46.19868" lon="-1.42648">
        <ele>48.90789</ele>
        <time>2023-05-28T14:45:25.000Z</time>
      </trkpt>
      <trkpt lat="46.19869" lon="-1.42652">
        <ele>48.85834</ele>
        <time>2023-05-28T14:45:26.000Z</time>
      </trkpt>
      <trkpt lat="46.1987" lon="-1.42655">
        <ele>48.77685</ele>
        <time>2023-05-28T14:45:27.000Z</time>
      </trkpt>
      <trkpt lat="46.19871" lon="-1.42659">
        <ele>48.68144</ele>
        <time>2023-05-28T14:45:28.000Z</time>
      </trkpt>
      <trkpt lat="46.19872" lon="-1.42662">
        <ele>48.56518</ele>
        <time>2023-05-28T14:45:29.000Z</time>
      </trkpt>
      <trkpt lat="46.19872" lon="-1.42666">
        <ele>48.49842</ele>
        <time>2023-05-28T14:45:30.000Z</time>
      </trkpt>
      <trkpt lat="46.19873" lon="-1.4267">
        <ele>48.43302</ele>
        <time>2023-05-28T14:45:31.000Z</time>
      </trkpt>
      <trkpt lat="46.19874" lon="-1.42673">
        <ele>48.38017</ele>
        <time>2023-05-28T14:45:32.000Z</time>
      </trkpt>
      <trkpt lat="46.19874" lon="-1.42677">
        <ele>48.31466</ele>
        <time>2023-05-28T14:45:33.000Z</time>
      </trkpt>
      <trkpt lat="46.19875" lon="-1.42681">
        <ele>48.28655</ele>
        <time>2023-05-28T14:45:34.000Z</time>
      </trkpt>
      <trkpt lat="46.19876" lon="-1.42686">
        <ele>48.2559</ele>
        <time>2023-05-28T14:45:35.000Z</time>
      </trkpt>
      <trkpt lat="46.19876" lon="-1.4269">
        <ele>48.22171</ele>
        <time>2023-05-28T14:45:36.000Z</time>
      </trkpt>
      <trkpt lat="46.19877" lon="-1.42694">
        <ele>48.1832</ele>
        <time>2023-05-28T14:45:37.000Z</time>
      </trkpt>
      <trkpt lat="46.19878" lon="-1.42698">
        <ele>48.13854</ele>
        <time>2023-05-28T14:45:38.000Z</time>
      </trkpt>
      <trkpt lat="46.19879" lon="-1.42703">
        <ele>48.07986</ele>
        <time>2023-05-28T14:45:39.000Z</time>
      </trkpt>
      <trkpt lat="46.1988" lon="-1.42707">
        <ele>48.04988</ele>
        <time>2023-05-28T14:45:40.000Z</time>
      </trkpt>
      <trkpt lat="46.19881" lon="-1.42712">
        <ele>48.00943</ele>
        <time>2023-05-28T14:45:41.000Z</time>
      </trkpt>
      <trkpt lat="46.19883" lon="-1.42716">
        <ele>47.9683</ele>
        <time>2023-05-28T14:45:42.000Z</time>
      </trkpt>
      <trkpt lat="46.19884" lon="-1.42719">
        <ele>47.91305</ele>
        <time>2023-05-28T14:45:43.000Z</time>
      </trkpt>
      <trkpt lat="46.19886" lon="-1.42723">
        <ele>47.89874</ele>
        <time>2023-05-28T14:45:44.000Z</time>
      </trkpt>
      <trkpt lat="46.19888" lon="-1.42726">
        <ele>47.85929</ele>
        <time>2023-05-28T14:45:45.000Z</time>
      </trkpt>
      <trkpt lat="46.1989" lon="-1.42729">
        <ele>47.81308</ele>
        <time>2023-05-28T14:45:46.000Z</time>
      </trkpt>
      <trkpt lat="46.19893" lon="-1.42732">
        <ele>47.80751</ele>
        <time>2023-05-28T14:45:47.000Z</time>
      </trkpt>
      <trkpt lat="46.19895" lon="-1.42735">
        <ele>47.81261</ele>
        <time>2023-05-28T14:45:48.000Z</time>
      </trkpt>
      <trkpt lat="46.19898" lon="-1.42737">
        <ele>47.80975</ele>
        <time>2023-05-28T14:45:49.000Z</time>
      </trkpt>
      <trkpt lat="46.199" lon="-1.42739">
        <ele>47.78498</ele>
        <time>2023-05-28T14:45:50.000Z</time>
      </trkpt>
      <trkpt lat="46.19903" lon="-1.42741">
        <ele>47.73476</ele>
        <time>2023-05-28T14:45:51.000Z</time>
      </trkpt>
      <trkpt lat="46.19905" lon="-1.42743">
        <ele>47.67476</ele>
        <time>2023-05-28T14:45:52.000Z</time>
      </trkpt>
      <trkpt lat="46.19908" lon="-1.42745">
        <ele>47.57246</ele>
        <time>2023-05-28T14:45:53.000Z</time>
      </trkpt>
      <trkpt lat="46.1991" lon="-1.42747">
        <ele>47.47669</ele>
        <time>2023-05-28T14:45:54.000Z</time>
      </trkpt>
      <trkpt lat="46.19913" lon="-1.42748">
        <ele>47.38361</ele>
        <time>2023-05-28T14:45:55.000Z</time>
      </trkpt>
      <trkpt lat="46.19915" lon="-1.42749">
        <ele>47.27338</ele>
        <time>2023-05-28T14:45:56.000Z</time>
      </trkpt>
      <trkpt lat="46.19918" lon="-1.42749">
        <ele>47.14947</ele>
        <time>2023-05-28T14:45:57.000Z</time>
      </trkpt>
      <trkpt lat="46.1992" lon="-1.42749">
        <ele>47.03542</ele>
        <time>2023-05-28T14:45:58.000Z</time>
      </trkpt>
      <trkpt lat="46.19923" lon="-1.42749">
        <ele>46.95127</ele>
        <time>2023-05-28T14:45:59.000Z</time>
      </trkpt>
      <trkpt lat="46.19925" lon="-1.4275">
        <ele>46.86278</ele>
        <time>2023-05-28T14:46:00.000Z</time>
      </trkpt>
      <trkpt lat="46.19928" lon="-1.42749">
        <ele>46.79279</ele>
        <time>2023-05-28T14:46:01.000Z</time>
      </trkpt>
      <trkpt lat="46.19931" lon="-1.42749">
        <ele>46.76573</ele>
        <time>2023-05-28T14:46:02.000Z</time>
      </trkpt>
      <trkpt lat="46.19933" lon="-1.42748">
        <ele>46.76422</ele>
        <time>2023-05-28T14:46:03.000Z</time>
      </trkpt>
      <trkpt lat="46.19936" lon="-1.42747">
        <ele>46.74762</ele>
        <time>2023-05-28T14:46:04.000Z</time>
      </trkpt>
      <trkpt lat="46.19939" lon="-1.42746">
        <ele>46.75769</ele>
        <time>2023-05-28T14:46:05.000Z</time>
      </trkpt>
      <trkpt lat="46.19942" lon="-1.42745">
        <ele>46.79283</ele>
        <time>2023-05-28T14:46:06.000Z</time>
      </trkpt>
      <trkpt lat="46.19944" lon="-1.42743">
        <ele>46.82225</ele>
        <time>2023-05-28T14:46:07.000Z</time>
      </trkpt>
      <trkpt lat="46.19947" lon="-1.42742">
        <ele>46.84365</ele>
        <time>2023-05-28T14:46:08.000Z</time>
      </trkpt>
      <trkpt lat="46.1995" lon="-1.4274">
        <ele>46.87613</ele>
        <time>2023-05-28T14:46:09.000Z</time>
      </trkpt>
      <trkpt lat="46.19953" lon="-1.42739">
        <ele>46.91172</ele>
        <time>2023-05-28T14:46:10.000Z</time>
      </trkpt>
      <trkpt lat="46.19956" lon="-1.42738">
        <ele>46.97166</ele>
        <time>2023-05-28T14:46:11.000Z</time>
      </trkpt>
      <trkpt lat="46.19959" lon="-1.42737">
        <ele>47.00679</ele>
        <time>2023-05-28T14:46:12.000Z</time>
      </trkpt>
      <trkpt lat="46.19962" lon="-1.42737">
        <ele>47.08596</ele>
        <time>2023-05-28T14:46:13.000Z</time>
      </trkpt>
      <trkpt lat="46.19965" lon="-1.42736">
        <ele>47.13223</ele>
        <time>2023-05-28T14:46:14.000Z</time>
      </trkpt>
      <trkpt lat="46.19968" lon="-1.42737">
        <ele>47.17504</ele>
        <time>2023-05-28T14:46:15.000Z</time>
      </trkpt>
      <trkpt lat="46.19971" lon="-1.42737">
        <ele>47.24256</ele>
        <time>2023-05-28T14:46:16.000Z</time>
      </trkpt>
      <trkpt lat="46.19975" lon="-1.42738">
        <ele>47.3545</ele>
        <time>2023-05-28T14:46:17.000Z</time>
      </trkpt>
      <trkpt lat="46.19978" lon="-1.42738">
        <ele>47.47776</ele>
        <time>2023-05-28T14:46:18.000Z</time>
      </trkpt>
      <trkpt lat="46.19982" lon="-1.42739">
        <ele>47.58698</ele>
        <time>2023-05-28T14:46:19.000Z</time>
      </trkpt>
      <trkpt lat="46.19986" lon="-1.4274">
        <ele>47.69419</ele>
        <time>2023-05-28T14:46:20.000Z</time>
      </trkpt>
      <trkpt lat="46.1999" lon="-1.42742">
        <ele>47.82038</ele>
        <time>2023-05-28T14:46:21.000Z</time>
      </trkpt>
      <trkpt lat="46.19991" lon="-1.42748">
        <ele>47.92132</ele>
        <time>2023-05-28T14:46:22.000Z</time>
      </trkpt>
      <trkpt lat="46.19992" lon="-1.42754">
        <ele>48.00981</ele>
        <time>2023-05-28T14:46:23.000Z</time>
      </trkpt>
      <trkpt lat="46.19994" lon="-1.42759">
        <ele>48.09345</ele>
        <time>2023-05-28T14:46:24.000Z</time>
      </trkpt>
      <trkpt lat="46.19996" lon="-1.42765">
        <ele>48.19066</ele>
        <time>2023-05-28T14:46:25.000Z</time>
      </trkpt>
      <trkpt lat="46.19998" lon="-1.4277">
        <ele>48.29731</ele>
        <time>2023-05-28T14:46:26.000Z</time>
      </trkpt>
      <trkpt lat="46.20001" lon="-1.42775">
        <ele>48.39699</ele>
        <time>2023-05-28T14:46:27.000Z</time>
      </trkpt>
      <trkpt lat="46.20003" lon="-1.4278">
        <ele>48.50343</ele>
        <time>2023-05-28T14:46:28.000Z</time>
      </trkpt>
      <trkpt lat="46.20006" lon="-1.42786">
        <ele>48.62597</ele>
        <time>2023-05-28T14:46:29.000Z</time>
      </trkpt>
      <trkpt lat="46.20008" lon="-1.42791">
        <ele>48.73138</ele>
        <time>2023-05-28T14:46:30.000Z</time>
      </trkpt>
      <trkpt lat="46.2001" lon="-1.42795">
        <ele>48.81576</ele>
        <time>2023-05-28T14:46:31.000Z</time>
      </trkpt>
      <trkpt lat="46.20011" lon="-1.42801">
        <ele>48.89919</ele>
        <time>2023-05-28T14:46:32.000Z</time>
      </trkpt>
      <trkpt lat="46.20013" lon="-1.42806">
        <ele>48.96902</ele>
        <time>2023-05-28T14:46:33.000Z</time>
      </trkpt>
      <trkpt lat="46.20016" lon="-1.42811">
        <ele>49.04287</ele>
        <time>2023-05-28T14:46:34.000Z</time>
      </trkpt>
      <trkpt lat="46.20018" lon="-1.42816">
        <ele>49.1907</ele>
        <time>2023-05-28T14:46:35.000Z</time>
      </trkpt>
      <trkpt lat="46.2002" lon="-1.42821">
        <ele>49.31591</ele>
        <time>2023-05-28T14:46:36.000Z</time>
      </trkpt>
      <trkpt lat="46.20021" lon="-1.42825">
        <ele>49.40948</ele>
        <time>2023-05-28T14:46:37.000Z</time>
      </trkpt>
      <trkpt lat="46.20023" lon="-1.4283">
        <ele>49.47125</ele>
        <time>2023-05-28T14:46:38.000Z</time>
      </trkpt>
      <trkpt lat="46.20025" lon="-1.42834">
        <ele>49.52142</ele>
        <time>2023-05-28T14:46:39.000Z</time>
      </trkpt>
      <trkpt lat="46.20027" lon="-1.42838">
        <ele>49.58344</ele>
        <time>2023-05-28T14:46:40.000Z</time>
      </trkpt>
      <trkpt lat="46.20029" lon="-1.42843">
        <ele>49.62744</ele>
        <time>2023-05-28T14:46:41.000Z</time>
      </trkpt>
      <trkpt lat="46.20031" lon="-1.42848">
        <ele>49.67543</ele>
        <time>2023-05-28T14:46:42.000Z</time>
      </trkpt>
      <trkpt lat="46.20034" lon="-1.42854">
        <ele>49.68858</ele>
        <time>2023-05-28T14:46:43.000Z</time>
      </trkpt>
      <trkpt lat="46.20036" lon="-1.42859">
        <ele>49.69847</ele>
        <time>2023-05-28T14:46:44.000Z</time>
      </trkpt>
      <trkpt lat="46.20038" lon="-1.42864">
        <ele>49.71141</ele>
        <time>2023-05-28T14:46:45.000Z</time>
      </trkpt>
      <trkpt lat="46.2004" lon="-1.4287">
        <ele>49.68947</ele>
        <time>2023-05-28T14:46:46.000Z</time>
      </trkpt>
      <trkpt lat="46.20042" lon="-1.42875">
        <ele>49.67138</ele>
        <time>2023-05-28T14:46:47.000Z</time>
      </trkpt>
      <trkpt lat="46.20044" lon="-1.4288">
        <ele>49.64451</ele>
        <time>2023-05-28T14:46:48.000Z</time>
      </trkpt>
      <trkpt lat="46.20047" lon="-1.42885">
        <ele>49.63021</ele>
        <time>2023-05-28T14:46:49.000Z</time>
      </trkpt>
      <trkpt lat="46.20049" lon="-1.42891">
        <ele>49.60915</ele>
        <time>2023-05-28T14:46:50.000Z</time>
      </trkpt>
      <trkpt lat="46.20051" lon="-1.42896">
        <ele>49.58056</ele>
        <time>2023-05-28T14:46:51.000Z</time>
      </trkpt>
      <trkpt lat="46.20052" lon="-1.42901">
        <ele>49.5824</ele>
        <time>2023-05-28T14:46:52.000Z</time>
      </trkpt>
      <trkpt lat="46.20054" lon="-1.42906">
        <ele>49.59938</ele>
        <time>2023-05-28T14:46:53.000Z</time>
      </trkpt>
      <trkpt lat="46.20055" lon="-1.4291">
        <ele>49.6231</ele>
        <time>2023-05-28T14:46:54.000Z</time>
      </trkpt>
      <trkpt lat="46.20058" lon="-1.42915">
        <ele>49.52871</ele>
        <time>2023-05-28T14:46:55.000Z</time>
      </trkpt>
      <trkpt lat="46.2006" lon="-1.4292">
        <ele>49.42617</ele>
        <time>2023-05-28T14:46:56.000Z</time>
      </trkpt>
      <trkpt lat="46.20062" lon="-1.42925">
        <ele>49.35735</ele>
        <time>2023-05-28T14:46:57.000Z</time>
      </trkpt>
      <trkpt lat="46.20064" lon="-1.42931">
        <ele>49.3008</ele>
        <time>2023-05-28T14:46:58.000Z</time>
      </trkpt>
      <trkpt lat="46.20066" lon="-1.42936">
        <ele>49.26527</ele>
        <time>2023-05-28T14:46:59.000Z</time>
      </trkpt>
      <trkpt lat="46.20068" lon="-1.42941">
        <ele>49.20157</ele>
        <time>2023-05-28T14:47:00.000Z</time>
      </trkpt>
      <trkpt lat="46.20071" lon="-1.42947">
        <ele>49.15138</ele>
        <time>2023-05-28T14:47:01.000Z</time>
      </trkpt>
      <trkpt lat="46.20073" lon="-1.42952">
        <ele>49.08018</ele>
        <time>2023-05-28T14:47:02.000Z</time>
      </trkpt>
      <trkpt lat="46.20075" lon="-1.42958">
        <ele>49.04071</ele>
        <time>2023-05-28T14:47:03.000Z</time>
      </trkpt>
      <trkpt lat="46.20077" lon="-1.42963">
        <ele>49.01919</ele>
        <time>2023-05-28T14:47:04.000Z</time>
      </trkpt>
      <trkpt lat="46.20079" lon="-1.42969">
        <ele>48.9745</ele>
        <time>2023-05-28T14:47:05.000Z</time>
      </trkpt>
      <trkpt lat="46.20081" lon="-1.42975">
        <ele>48.93554</ele>
        <time>2023-05-28T14:47:06.000Z</time>
      </trkpt>
      <trkpt lat="46.20084" lon="-1.4298">
        <ele>48.88583</ele>
        <time>2023-05-28T14:47:07.000Z</time>
      </trkpt>
      <trkpt lat="46.20086" lon="-1.42986">
        <ele>48.84408</ele>
        <time>2023-05-28T14:47:08.000Z</time>
      </trkpt>
      <trkpt lat="46.20087" lon="-1.42991">
        <ele>48.74058</ele>
        <time>2023-05-28T14:47:09.000Z</time>
      </trkpt>
      <trkpt lat="46.2009" lon="-1.42997">
        <ele>48.63723</ele>
        <time>2023-05-28T14:47:10.000Z</time>
      </trkpt>
      <trkpt lat="46.20093" lon="-1.43001">
        <ele>48.53734</ele>
        <time>2023-05-28T14:47:11.000Z</time>
      </trkpt>
      <trkpt lat="46.20095" lon="-1.43005">
        <ele>48.40967</ele>
        <time>2023-05-28T14:47:12.000Z</time>
      </trkpt>
      <trkpt lat="46.20097" lon="-1.4301">
        <ele>48.29213</ele>
        <time>2023-05-28T14:47:13.000Z</time>
      </trkpt>
      <trkpt lat="46.20099" lon="-1.43014">
        <ele>48.14923</ele>
        <time>2023-05-28T14:47:14.000Z</time>
      </trkpt>
      <trkpt lat="46.201" lon="-1.43018">
        <ele>48.0415</ele>
        <time>2023-05-28T14:47:15.000Z</time>
      </trkpt>
      <trkpt lat="46.201" lon="-1.43022">
        <ele>48.01169</ele>
        <time>2023-05-28T14:47:41.000Z</time>
      </trkpt>
      <trkpt lat="46.20101" lon="-1.43025">
        <ele>47.92313</ele>
        <time>2023-05-28T14:47:42.000Z</time>
      </trkpt>
      <trkpt lat="46.20102" lon="-1.43029">
        <ele>47.80758</ele>
        <time>2023-05-28T14:47:43.000Z</time>
      </trkpt>
      <trkpt lat="46.20104" lon="-1.43033">
        <ele>47.68034</ele>
        <time>2023-05-28T14:47:44.000Z</time>
      </trkpt>
      <trkpt lat="46.20106" lon="-1.43038">
        <ele>47.57365</ele>
        <time>2023-05-28T14:47:45.000Z</time>
      </trkpt>
      <trkpt lat="46.20108" lon="-1.43042">
        <ele>47.47087</ele>
        <time>2023-05-28T14:47:46.000Z</time>
      </trkpt>
      <trkpt lat="46.20109" lon="-1.43047">
        <ele>47.39237</ele>
        <time>2023-05-28T14:47:47.000Z</time>
      </trkpt>
      <trkpt lat="46.20112" lon="-1.43052">
        <ele>47.3055</ele>
        <time>2023-05-28T14:47:48.000Z</time>
      </trkpt>
      <trkpt lat="46.20115" lon="-1.43058">
        <ele>47.21894</ele>
        <time>2023-05-28T14:47:49.000Z</time>
      </trkpt>
      <trkpt lat="46.20117" lon="-1.43064">
        <ele>47.15719</ele>
        <time>2023-05-28T14:47:50.000Z</time>
      </trkpt>
      <trkpt lat="46.2012" lon="-1.43069">
        <ele>47.09521</ele>
        <time>2023-05-28T14:47:51.000Z</time>
      </trkpt>
      <trkpt lat="46.20121" lon="-1.43075">
        <ele>47.04895</ele>
        <time>2023-05-28T14:47:52.000Z</time>
      </trkpt>
      <trkpt lat="46.20124" lon="-1.4308">
        <ele>46.98106</ele>
        <time>2023-05-28T14:47:53.000Z</time>
      </trkpt>
      <trkpt lat="46.20126" lon="-1.43086">
        <ele>46.98183</ele>
        <time>2023-05-28T14:47:54.000Z</time>
      </trkpt>
      <trkpt lat="46.20128" lon="-1.43091">
        <ele>46.98364</ele>
        <time>2023-05-28T14:47:55.000Z</time>
      </trkpt>
      <trkpt lat="46.2013" lon="-1.43097">
        <ele>46.98604</ele>
        <time>2023-05-28T14:47:56.000Z</time>
      </trkpt>
      <trkpt lat="46.20132" lon="-1.43102">
        <ele>47.02465</ele>
        <time>2023-05-28T14:47:57.000Z</time>
      </trkpt>
      <trkpt lat="46.20134" lon="-1.43107">
        <ele>47.03883</ele>
        <time>2023-05-28T14:47:58.000Z</time>
      </trkpt>
      <trkpt lat="46.20136" lon="-1.43114">
        <ele>47.08553</ele>
        <time>2023-05-28T14:47:59.000Z</time>
      </trkpt>
      <trkpt lat="46.20138" lon="-1.43119">
        <ele>47.14396</ele>
        <time>2023-05-28T14:48:00.000Z</time>
      </trkpt>
      <trkpt lat="46.20141" lon="-1.43125">
        <ele>47.12237</ele>
        <time>2023-05-28T14:48:01.000Z</time>
      </trkpt>
      <trkpt lat="46.20143" lon="-1.43131">
        <ele>47.14072</ele>
        <time>2023-05-28T14:48:02.000Z</time>
      </trkpt>
      <trkpt lat="46.20145" lon="-1.43137">
        <ele>47.163</ele>
        <time>2023-05-28T14:48:03.000Z</time>
      </trkpt>
      <trkpt lat="46.20148" lon="-1.43142">
        <ele>47.2051</ele>
        <time>2023-05-28T14:48:04.000Z</time>
      </trkpt>
      <trkpt lat="46.2015" lon="-1.43148">
        <ele>47.25919</ele>
        <time>2023-05-28T14:48:05.000Z</time>
      </trkpt>
      <trkpt lat="46.20152" lon="-1.43154">
        <ele>47.28651</ele>
        <time>2023-05-28T14:48:06.000Z</time>
      </trkpt>
      <trkpt lat="46.20155" lon="-1.4316">
        <ele>47.30183</ele>
        <time>2023-05-28T14:48:07.000Z</time>
      </trkpt>
      <trkpt lat="46.20158" lon="-1.43165">
        <ele>47.30307</ele>
        <time>2023-05-28T14:48:08.000Z</time>
      </trkpt>
      <trkpt lat="46.20161" lon="-1.43171">
        <ele>47.25712</ele>
        <time>2023-05-28T14:48:09.000Z</time>
      </trkpt>
      <trkpt lat="46.20163" lon="-1.43177">
        <ele>47.21644</ele>
        <time>2023-05-28T14:48:10.000Z</time>
      </trkpt>
      <trkpt lat="46.20165" lon="-1.43183">
        <ele>47.23743</ele>
        <time>2023-05-28T14:48:11.000Z</time>
      </trkpt>
      <trkpt lat="46.20167" lon="-1.43189">
        <ele>47.24906</ele>
        <time>2023-05-28T14:48:12.000Z</time>
      </trkpt>
      <trkpt lat="46.20169" lon="-1.43194">
        <ele>47.27418</ele>
        <time>2023-05-28T14:48:13.000Z</time>
      </trkpt>
      <trkpt lat="46.20172" lon="-1.43199">
        <ele>47.24628</ele>
        <time>2023-05-28T14:48:14.000Z</time>
      </trkpt>
      <trkpt lat="46.20174" lon="-1.43205">
        <ele>47.23108</ele>
        <time>2023-05-28T14:48:15.000Z</time>
      </trkpt>
      <trkpt lat="46.20176" lon="-1.4321">
        <ele>47.2881</ele>
        <time>2023-05-28T14:48:16.000Z</time>
      </trkpt>
      <trkpt lat="46.20177" lon="-1.43216">
        <ele>47.33786</ele>
        <time>2023-05-28T14:48:17.000Z</time>
      </trkpt>
      <trkpt lat="46.20179" lon="-1.43221">
        <ele>47.37907</ele>
        <time>2023-05-28T14:48:18.000Z</time>
      </trkpt>
      <trkpt lat="46.20181" lon="-1.43227">
        <ele>47.41502</ele>
        <time>2023-05-28T14:48:19.000Z</time>
      </trkpt>
      <trkpt lat="46.20182" lon="-1.43231">
        <ele>47.45494</ele>
        <time>2023-05-28T14:48:20.000Z</time>
      </trkpt>
      <trkpt lat="46.20185" lon="-1.43236">
        <ele>47.46941</ele>
        <time>2023-05-28T14:48:21.000Z</time>
      </trkpt>
      <trkpt lat="46.20187" lon="-1.4324">
        <ele>47.4743</ele>
        <time>2023-05-28T14:48:22.000Z</time>
      </trkpt>
      <trkpt lat="46.20188" lon="-1.43244">
        <ele>47.52127</ele>
        <time>2023-05-28T14:48:23.000Z</time>
      </trkpt>
      <trkpt lat="46.2019" lon="-1.43248">
        <ele>47.55025</ele>
        <time>2023-05-28T14:48:24.000Z</time>
      </trkpt>
      <trkpt lat="46.20192" lon="-1.43252">
        <ele>47.53303</ele>
        <time>2023-05-28T14:48:25.000Z</time>
      </trkpt>
      <trkpt lat="46.20193" lon="-1.43256">
        <ele>47.51964</ele>
        <time>2023-05-28T14:48:26.000Z</time>
      </trkpt>
      <trkpt lat="46.20195" lon="-1.43261">
        <ele>47.50985</ele>
        <time>2023-05-28T14:48:27.000Z</time>
      </trkpt>
      <trkpt lat="46.20197" lon="-1.43265">
        <ele>47.5293</ele>
        <time>2023-05-28T14:48:28.000Z</time>
      </trkpt>
      <trkpt lat="46.20199" lon="-1.43269">
        <ele>47.5815</ele>
        <time>2023-05-28T14:48:29.000Z</time>
      </trkpt>
      <trkpt lat="46.20201" lon="-1.43274">
        <ele>47.62152</ele>
        <time>2023-05-28T14:48:30.000Z</time>
      </trkpt>
      <trkpt lat="46.20203" lon="-1.43278">
        <ele>47.62994</ele>
        <time>2023-05-28T14:48:31.000Z</time>
      </trkpt>
      <trkpt lat="46.20205" lon="-1.43283">
        <ele>47.68063</ele>
        <time>2023-05-28T14:48:32.000Z</time>
      </trkpt>
      <trkpt lat="46.20206" lon="-1.43287">
        <ele>47.71642</ele>
        <time>2023-05-28T14:48:33.000Z</time>
      </trkpt>
      <trkpt lat="46.20208" lon="-1.43292">
        <ele>47.77491</ele>
        <time>2023-05-28T14:48:34.000Z</time>
      </trkpt>
      <trkpt lat="46.2021" lon="-1.43296">
        <ele>47.80647</ele>
        <time>2023-05-28T14:48:35.000Z</time>
      </trkpt>
      <trkpt lat="46.20211" lon="-1.43301">
        <ele>47.81016</ele>
        <time>2023-05-28T14:48:36.000Z</time>
      </trkpt>
      <trkpt lat="46.20213" lon="-1.43305">
        <ele>47.80968</ele>
        <time>2023-05-28T14:48:37.000Z</time>
      </trkpt>
      <trkpt lat="46.20215" lon="-1.4331">
        <ele>47.84013</ele>
        <time>2023-05-28T14:48:38.000Z</time>
      </trkpt>
      <trkpt lat="46.20217" lon="-1.43314">
        <ele>47.87331</ele>
        <time>2023-05-28T14:48:39.000Z</time>
      </trkpt>
      <trkpt lat="46.20219" lon="-1.43319">
        <ele>47.90487</ele>
        <time>2023-05-28T14:48:40.000Z</time>
      </trkpt>
      <trkpt lat="46.2022" lon="-1.43323">
        <ele>47.96862</ele>
        <time>2023-05-28T14:48:41.000Z</time>
      </trkpt>
      <trkpt lat="46.20222" lon="-1.43328">
        <ele>48.01408</ele>
        <time>2023-05-28T14:48:42.000Z</time>
      </trkpt>
      <trkpt lat="46.20224" lon="-1.43332">
        <ele>48.02882</ele>
        <time>2023-05-28T14:48:43.000Z</time>
      </trkpt>
      <trkpt lat="46.20227" lon="-1.43336">
        <ele>48.0467</ele>
        <time>2023-05-28T14:48:44.000Z</time>
      </trkpt>
      <trkpt lat="46.20229" lon="-1.43341">
        <ele>48.07267</ele>
        <time>2023-05-28T14:48:45.000Z</time>
      </trkpt>
      <trkpt lat="46.20232" lon="-1.43346">
        <ele>48.12316</ele>
        <time>2023-05-28T14:48:46.000Z</time>
      </trkpt>
      <trkpt lat="46.20234" lon="-1.4335">
        <ele>48.17994</ele>
        <time>2023-05-28T14:48:47.000Z</time>
      </trkpt>
      <trkpt lat="46.20235" lon="-1.43355">
        <ele>48.25587</ele>
        <time>2023-05-28T14:48:48.000Z</time>
      </trkpt>
      <trkpt lat="46.20237" lon="-1.4336">
        <ele>48.33781</ele>
        <time>2023-05-28T14:48:49.000Z</time>
      </trkpt>
      <trkpt lat="46.20239" lon="-1.43365">
        <ele>48.42011</ele>
        <time>2023-05-28T14:48:50.000Z</time>
      </trkpt>
      <trkpt lat="46.20241" lon="-1.43369">
        <ele>48.48505</ele>
        <time>2023-05-28T14:48:51.000Z</time>
      </trkpt>
      <trkpt lat="46.20242" lon="-1.43374">
        <ele>48.52276</ele>
        <time>2023-05-28T14:48:52.000Z</time>
      </trkpt>
      <trkpt lat="46.20244" lon="-1.43379">
        <ele>48.58857</ele>
        <time>2023-05-28T14:48:53.000Z</time>
      </trkpt>
      <trkpt lat="46.20246" lon="-1.43384">
        <ele>48.63891</ele>
        <time>2023-05-28T14:48:54.000Z</time>
      </trkpt>
      <trkpt lat="46.20247" lon="-1.43389">
        <ele>48.69373</ele>
        <time>2023-05-28T14:48:55.000Z</time>
      </trkpt>
      <trkpt lat="46.20249" lon="-1.43393">
        <ele>48.71872</ele>
        <time>2023-05-28T14:48:56.000Z</time>
      </trkpt>
      <trkpt lat="46.2025" lon="-1.43397">
        <ele>48.75099</ele>
        <time>2023-05-28T14:48:57.000Z</time>
      </trkpt>
      <trkpt lat="46.20252" lon="-1.43402">
        <ele>48.77758</ele>
        <time>2023-05-28T14:48:58.000Z</time>
      </trkpt>
      <trkpt lat="46.20254" lon="-1.43406">
        <ele>48.79729</ele>
        <time>2023-05-28T14:48:59.000Z</time>
      </trkpt>
      <trkpt lat="46.20255" lon="-1.4341">
        <ele>48.81082</ele>
        <time>2023-05-28T14:49:00.000Z</time>
      </trkpt>
      <trkpt lat="46.20257" lon="-1.43415">
        <ele>48.92176</ele>
        <time>2023-05-28T14:49:01.000Z</time>
      </trkpt>
      <trkpt lat="46.20258" lon="-1.43419">
        <ele>49.02136</ele>
        <time>2023-05-28T14:49:02.000Z</time>
      </trkpt>
      <trkpt lat="46.2026" lon="-1.43424">
        <ele>49.12388</ele>
        <time>2023-05-28T14:49:03.000Z</time>
      </trkpt>
      <trkpt lat="46.20262" lon="-1.43429">
        <ele>49.22176</ele>
        <time>2023-05-28T14:49:04.000Z</time>
      </trkpt>
      <trkpt lat="46.20264" lon="-1.43433">
        <ele>49.34891</ele>
        <time>2023-05-28T14:49:05.000Z</time>
      </trkpt>
      <trkpt lat="46.20265" lon="-1.43437">
        <ele>49.45971</ele>
        <time>2023-05-28T14:49:06.000Z</time>
      </trkpt>
      <trkpt lat="46.20267" lon="-1.43442">
        <ele>49.57384</ele>
        <time>2023-05-28T14:49:07.000Z</time>
      </trkpt>
      <trkpt lat="46.20269" lon="-1.43446">
        <ele>49.67376</ele>
        <time>2023-05-28T14:49:08.000Z</time>
      </trkpt>
      <trkpt lat="46.2027" lon="-1.43451">
        <ele>49.76218</ele>
        <time>2023-05-28T14:49:09.000Z</time>
      </trkpt>
      <trkpt lat="46.20272" lon="-1.43456">
        <ele>49.83403</ele>
        <time>2023-05-28T14:49:10.000Z</time>
      </trkpt>
      <trkpt lat="46.20274" lon="-1.43461">
        <ele>49.87695</ele>
        <time>2023-05-28T14:49:11.000Z</time>
      </trkpt>
      <trkpt lat="46.20276" lon="-1.43465">
        <ele>49.91472</ele>
        <time>2023-05-28T14:49:12.000Z</time>
      </trkpt>
      <trkpt lat="46.20278" lon="-1.4347">
        <ele>49.94215</ele>
        <time>2023-05-28T14:49:13.000Z</time>
      </trkpt>
      <trkpt lat="46.2028" lon="-1.43474">
        <ele>49.94924</ele>
        <time>2023-05-28T14:49:14.000Z</time>
      </trkpt>
      <trkpt lat="46.20281" lon="-1.43479">
        <ele>49.98384</ele>
        <time>2023-05-28T14:49:15.000Z</time>
      </trkpt>
      <trkpt lat="46.20283" lon="-1.43484">
        <ele>50.0205</ele>
        <time>2023-05-28T14:49:16.000Z</time>
      </trkpt>
      <trkpt lat="46.20285" lon="-1.43489">
        <ele>50.10567</ele>
        <time>2023-05-28T14:49:17.000Z</time>
      </trkpt>
      <trkpt lat="46.20288" lon="-1.43495">
        <ele>50.16001</ele>
        <time>2023-05-28T14:49:18.000Z</time>
      </trkpt>
      <trkpt lat="46.2029" lon="-1.43499">
        <ele>50.20773</ele>
        <time>2023-05-28T14:49:19.000Z</time>
      </trkpt>
      <trkpt lat="46.20291" lon="-1.43504">
        <ele>50.26719</ele>
        <time>2023-05-28T14:49:20.000Z</time>
      </trkpt>
      <trkpt lat="46.20292" lon="-1.43507">
        <ele>50.23672</ele>
        <time>2023-05-28T14:49:21.000Z</time>
      </trkpt>
      <trkpt lat="46.20294" lon="-1.43512">
        <ele>50.22788</ele>
        <time>2023-05-28T14:49:22.000Z</time>
      </trkpt>
      <trkpt lat="46.20296" lon="-1.43516">
        <ele>50.21836</ele>
        <time>2023-05-28T14:49:23.000Z</time>
      </trkpt>
      <trkpt lat="46.20299" lon="-1.43521">
        <ele>50.19838</ele>
        <time>2023-05-28T14:49:24.000Z</time>
      </trkpt>
      <trkpt lat="46.203" lon="-1.43526">
        <ele>50.16364</ele>
        <time>2023-05-28T14:49:25.000Z</time>
      </trkpt>
      <trkpt lat="46.20302" lon="-1.4353">
        <ele>50.13259</ele>
        <time>2023-05-28T14:49:26.000Z</time>
      </trkpt>
      <trkpt lat="46.20304" lon="-1.43535">
        <ele>50.08825</ele>
        <time>2023-05-28T14:49:27.000Z</time>
      </trkpt>
      <trkpt lat="46.20306" lon="-1.43539">
        <ele>50.0305</ele>
        <time>2023-05-28T14:49:28.000Z</time>
      </trkpt>
      <trkpt lat="46.20308" lon="-1.43545">
        <ele>49.96428</ele>
        <time>2023-05-28T14:49:29.000Z</time>
      </trkpt>
      <trkpt lat="46.20309" lon="-1.43549">
        <ele>49.92354</ele>
        <time>2023-05-28T14:49:30.000Z</time>
      </trkpt>
      <trkpt lat="46.20311" lon="-1.43554">
        <ele>49.92881</ele>
        <time>2023-05-28T14:49:31.000Z</time>
      </trkpt>
      <trkpt lat="46.20312" lon="-1.43558">
        <ele>49.91925</ele>
        <time>2023-05-28T14:49:32.000Z</time>
      </trkpt>
      <trkpt lat="46.20314" lon="-1.43563">
        <ele>49.91801</ele>
        <time>2023-05-28T14:49:33.000Z</time>
      </trkpt>
      <trkpt lat="46.20316" lon="-1.43568">
        <ele>49.93631</ele>
        <time>2023-05-28T14:49:34.000Z</time>
      </trkpt>
      <trkpt lat="46.20318" lon="-1.43572">
        <ele>49.94147</ele>
        <time>2023-05-28T14:49:35.000Z</time>
      </trkpt>
      <trkpt lat="46.20319" lon="-1.43576">
        <ele>49.95581</ele>
        <time>2023-05-28T14:49:36.000Z</time>
      </trkpt>
      <trkpt lat="46.20321" lon="-1.4358">
        <ele>49.86092</ele>
        <time>2023-05-28T14:49:37.000Z</time>
      </trkpt>
      <trkpt lat="46.20323" lon="-1.43585">
        <ele>49.7743</ele>
        <time>2023-05-28T14:49:38.000Z</time>
      </trkpt>
      <trkpt lat="46.20325" lon="-1.43589">
        <ele>49.69022</ele>
        <time>2023-05-28T14:49:39.000Z</time>
      </trkpt>
      <trkpt lat="46.20327" lon="-1.43593">
        <ele>49.66956</ele>
        <time>2023-05-28T14:49:40.000Z</time>
      </trkpt>
      <trkpt lat="46.20329" lon="-1.43598">
        <ele>49.64372</ele>
        <time>2023-05-28T14:49:41.000Z</time>
      </trkpt>
      <trkpt lat="46.20332" lon="-1.43603">
        <ele>49.58605</ele>
        <time>2023-05-28T14:49:42.000Z</time>
      </trkpt>
      <trkpt lat="46.20333" lon="-1.43607">
        <ele>49.54276</ele>
        <time>2023-05-28T14:49:43.000Z</time>
      </trkpt>
      <trkpt lat="46.20335" lon="-1.43611">
        <ele>49.53233</ele>
        <time>2023-05-28T14:49:44.000Z</time>
      </trkpt>
      <trkpt lat="46.20337" lon="-1.43616">
        <ele>49.54232</ele>
        <time>2023-05-28T14:49:45.000Z</time>
      </trkpt>
      <trkpt lat="46.20339" lon="-1.4362">
        <ele>49.54158</ele>
        <time>2023-05-28T14:49:46.000Z</time>
      </trkpt>
      <trkpt lat="46.20341" lon="-1.43625">
        <ele>49.54815</ele>
        <time>2023-05-28T14:49:47.000Z</time>
      </trkpt>
      <trkpt lat="46.20342" lon="-1.4363">
        <ele>49.52679</ele>
        <time>2023-05-28T14:49:48.000Z</time>
      </trkpt>
      <trkpt lat="46.20344" lon="-1.43635">
        <ele>49.52111</ele>
        <time>2023-05-28T14:49:49.000Z</time>
      </trkpt>
      <trkpt lat="46.20346" lon="-1.43639">
        <ele>49.49645</ele>
        <time>2023-05-28T14:49:50.000Z</time>
      </trkpt>
      <trkpt lat="46.20347" lon="-1.43644">
        <ele>49.42253</ele>
        <time>2023-05-28T14:49:51.000Z</time>
      </trkpt>
      <trkpt lat="46.20349" lon="-1.43648">
        <ele>49.35961</ele>
        <time>2023-05-28T14:49:52.000Z</time>
      </trkpt>
      <trkpt lat="46.20351" lon="-1.43653">
        <ele>49.3135</ele>
        <time>2023-05-28T14:49:53.000Z</time>
      </trkpt>
      <trkpt lat="46.20353" lon="-1.43658">
        <ele>49.26775</ele>
        <time>2023-05-28T14:49:54.000Z</time>
      </trkpt>
      <trkpt lat="46.20354" lon="-1.43664">
        <ele>49.23783</ele>
        <time>2023-05-28T14:49:55.000Z</time>
      </trkpt>
      <trkpt lat="46.20355" lon="-1.4367">
        <ele>49.19653</ele>
        <time>2023-05-28T14:49:56.000Z</time>
      </trkpt>
      <trkpt lat="46.20358" lon="-1.43677">
        <ele>49.19973</ele>
        <time>2023-05-28T14:49:57.000Z</time>
      </trkpt>
      <trkpt lat="46.2036" lon="-1.43683">
        <ele>49.22291</ele>
        <time>2023-05-28T14:49:58.000Z</time>
      </trkpt>
      <trkpt lat="46.20363" lon="-1.43687">
        <ele>49.23605</ele>
        <time>2023-05-28T14:49:59.000Z</time>
      </trkpt>
      <trkpt lat="46.20365" lon="-1.43692">
        <ele>49.17194</ele>
        <time>2023-05-28T14:50:00.000Z</time>
      </trkpt>
      <trkpt lat="46.20368" lon="-1.43698">
        <ele>49.08067</ele>
        <time>2023-05-28T14:50:01.000Z</time>
      </trkpt>
      <trkpt lat="46.2037" lon="-1.43704">
        <ele>49.02223</ele>
        <time>2023-05-28T14:50:02.000Z</time>
      </trkpt>
      <trkpt lat="46.20372" lon="-1.43709">
        <ele>48.95518</ele>
        <time>2023-05-28T14:50:03.000Z</time>
      </trkpt>
      <trkpt lat="46.20375" lon="-1.43714">
        <ele>48.88099</ele>
        <time>2023-05-28T14:50:04.000Z</time>
      </trkpt>
      <trkpt lat="46.20377" lon="-1.4372">
        <ele>48.78814</ele>
        <time>2023-05-28T14:50:05.000Z</time>
      </trkpt>
      <trkpt lat="46.20381" lon="-1.43726">
        <ele>48.73298</ele>
        <time>2023-05-28T14:50:06.000Z</time>
      </trkpt>
      <trkpt lat="46.20383" lon="-1.43732">
        <ele>48.69864</ele>
        <time>2023-05-28T14:50:07.000Z</time>
      </trkpt>
      <trkpt lat="46.20386" lon="-1.43738">
        <ele>48.6972</ele>
        <time>2023-05-28T14:50:08.000Z</time>
      </trkpt>
      <trkpt lat="46.20388" lon="-1.43745">
        <ele>48.66284</ele>
        <time>2023-05-28T14:50:09.000Z</time>
      </trkpt>
      <trkpt lat="46.2039" lon="-1.4375">
        <ele>48.62418</ele>
        <time>2023-05-28T14:50:10.000Z</time>
      </trkpt>
      <trkpt lat="46.20393" lon="-1.43757">
        <ele>48.62441</ele>
        <time>2023-05-28T14:50:11.000Z</time>
      </trkpt>
      <trkpt lat="46.20395" lon="-1.43763">
        <ele>48.63005</ele>
        <time>2023-05-28T14:50:12.000Z</time>
      </trkpt>
      <trkpt lat="46.20397" lon="-1.4377">
        <ele>48.5949</ele>
        <time>2023-05-28T14:50:13.000Z</time>
      </trkpt>
      <trkpt lat="46.20401" lon="-1.43775">
        <ele>48.5619</ele>
        <time>2023-05-28T14:50:14.000Z</time>
      </trkpt>
      <trkpt lat="46.20403" lon="-1.4378">
        <ele>48.52921</ele>
        <time>2023-05-28T14:50:15.000Z</time>
      </trkpt>
      <trkpt lat="46.20405" lon="-1.43787">
        <ele>48.50326</ele>
        <time>2023-05-28T14:50:16.000Z</time>
      </trkpt>
      <trkpt lat="46.20407" lon="-1.43794">
        <ele>48.4766</ele>
        <time>2023-05-28T14:50:17.000Z</time>
      </trkpt>
      <trkpt lat="46.20409" lon="-1.438">
        <ele>48.5174</ele>
        <time>2023-05-28T14:50:18.000Z</time>
      </trkpt>
      <trkpt lat="46.20412" lon="-1.43806">
        <ele>48.55742</ele>
        <time>2023-05-28T14:50:19.000Z</time>
      </trkpt>
      <trkpt lat="46.20415" lon="-1.43812">
        <ele>48.60218</ele>
        <time>2023-05-28T14:50:20.000Z</time>
      </trkpt>
      <trkpt lat="46.20417" lon="-1.43818">
        <ele>48.65623</ele>
        <time>2023-05-28T14:50:21.000Z</time>
      </trkpt>
      <trkpt lat="46.20419" lon="-1.43824">
        <ele>48.72128</ele>
        <time>2023-05-28T14:50:22.000Z</time>
      </trkpt>
      <trkpt lat="46.20422" lon="-1.43829">
        <ele>48.81839</ele>
        <time>2023-05-28T14:50:23.000Z</time>
      </trkpt>
      <trkpt lat="46.20424" lon="-1.43835">
        <ele>48.91704</ele>
        <time>2023-05-28T14:50:24.000Z</time>
      </trkpt>
      <trkpt lat="46.20426" lon="-1.4384">
        <ele>49.03253</ele>
        <time>2023-05-28T14:50:25.000Z</time>
      </trkpt>
      <trkpt lat="46.20428" lon="-1.43846">
        <ele>49.10221</ele>
        <time>2023-05-28T14:50:26.000Z</time>
      </trkpt>
      <trkpt lat="46.20431" lon="-1.43851">
        <ele>49.17902</ele>
        <time>2023-05-28T14:50:27.000Z</time>
      </trkpt>
      <trkpt lat="46.20433" lon="-1.43857">
        <ele>49.2504</ele>
        <time>2023-05-28T14:50:28.000Z</time>
      </trkpt>
      <trkpt lat="46.20436" lon="-1.43863">
        <ele>49.33366</ele>
        <time>2023-05-28T14:50:29.000Z</time>
      </trkpt>
      <trkpt lat="46.20439" lon="-1.43869">
        <ele>49.42978</ele>
        <time>2023-05-28T14:50:30.000Z</time>
      </trkpt>
      <trkpt lat="46.20441" lon="-1.43875">
        <ele>49.53776</ele>
        <time>2023-05-28T14:50:31.000Z</time>
      </trkpt>
      <trkpt lat="46.20443" lon="-1.43881">
        <ele>49.60967</ele>
        <time>2023-05-28T14:50:32.000Z</time>
      </trkpt>
      <trkpt lat="46.20446" lon="-1.43888">
        <ele>49.68712</ele>
        <time>2023-05-28T14:50:33.000Z</time>
      </trkpt>
      <trkpt lat="46.20448" lon="-1.43894">
        <ele>49.76273</ele>
        <time>2023-05-28T14:50:34.000Z</time>
      </trkpt>
      <trkpt lat="46.2045" lon="-1.43901">
        <ele>49.83572</ele>
        <time>2023-05-28T14:50:35.000Z</time>
      </trkpt>
      <trkpt lat="46.20453" lon="-1.43907">
        <ele>49.90179</ele>
        <time>2023-05-28T14:50:36.000Z</time>
      </trkpt>
      <trkpt lat="46.20455" lon="-1.43913">
        <ele>49.96124</ele>
        <time>2023-05-28T14:50:37.000Z</time>
      </trkpt>
      <trkpt lat="46.20457" lon="-1.4392">
        <ele>49.94169</ele>
        <time>2023-05-28T14:50:38.000Z</time>
      </trkpt>
      <trkpt lat="46.20459" lon="-1.43926">
        <ele>49.91956</ele>
        <time>2023-05-28T14:50:39.000Z</time>
      </trkpt>
      <trkpt lat="46.20461" lon="-1.43932">
        <ele>49.95821</ele>
        <time>2023-05-28T14:50:40.000Z</time>
      </trkpt>
      <trkpt lat="46.20463" lon="-1.43938">
        <ele>49.99677</ele>
        <time>2023-05-28T14:50:41.000Z</time>
      </trkpt>
      <trkpt lat="46.20466" lon="-1.43943">
        <ele>50.04345</ele>
        <time>2023-05-28T14:50:42.000Z</time>
      </trkpt>
      <trkpt lat="46.20468" lon="-1.43949">
        <ele>50.08323</ele>
        <time>2023-05-28T14:50:43.000Z</time>
      </trkpt>
      <trkpt lat="46.20471" lon="-1.43955">
        <ele>50.10975</ele>
        <time>2023-05-28T14:50:44.000Z</time>
      </trkpt>
      <trkpt lat="46.20474" lon="-1.43961">
        <ele>50.13697</ele>
        <time>2023-05-28T14:50:45.000Z</time>
      </trkpt>
      <trkpt lat="46.20476" lon="-1.43967">
        <ele>50.17474</ele>
        <time>2023-05-28T14:50:46.000Z</time>
      </trkpt>
      <trkpt lat="46.20478" lon="-1.43973">
        <ele>50.17339</ele>
        <time>2023-05-28T14:50:47.000Z</time>
      </trkpt>
      <trkpt lat="46.20481" lon="-1.43979">
        <ele>50.17122</ele>
        <time>2023-05-28T14:50:48.000Z</time>
      </trkpt>
      <trkpt lat="46.20482" lon="-1.43986">
        <ele>50.18953</ele>
        <time>2023-05-28T14:50:49.000Z</time>
      </trkpt>
      <trkpt lat="46.20485" lon="-1.43993">
        <ele>50.20615</ele>
        <time>2023-05-28T14:50:50.000Z</time>
      </trkpt>
      <trkpt lat="46.20488" lon="-1.43999">
        <ele>50.18084</ele>
        <time>2023-05-28T14:50:51.000Z</time>
      </trkpt>
      <trkpt lat="46.20491" lon="-1.44004">
        <ele>50.18848</ele>
        <time>2023-05-28T14:50:52.000Z</time>
      </trkpt>
      <trkpt lat="46.20493" lon="-1.4401">
        <ele>50.2112</ele>
        <time>2023-05-28T14:50:53.000Z</time>
      </trkpt>
      <trkpt lat="46.20495" lon="-1.44016">
        <ele>50.25817</ele>
        <time>2023-05-28T14:50:54.000Z</time>
      </trkpt>
      <trkpt lat="46.20497" lon="-1.44022">
        <ele>50.31266</ele>
        <time>2023-05-28T14:50:55.000Z</time>
      </trkpt>
      <trkpt lat="46.205" lon="-1.44027">
        <ele>50.36028</ele>
        <time>2023-05-28T14:50:56.000Z</time>
      </trkpt>
      <trkpt lat="46.20502" lon="-1.44032">
        <ele>50.40849</ele>
        <time>2023-05-28T14:50:57.000Z</time>
      </trkpt>
      <trkpt lat="46.20503" lon="-1.44037">
        <ele>50.46824</ele>
        <time>2023-05-28T14:50:58.000Z</time>
      </trkpt>
      <trkpt lat="46.20505" lon="-1.44042">
        <ele>50.56741</ele>
        <time>2023-05-28T14:50:59.000Z</time>
      </trkpt>
      <trkpt lat="46.20507" lon="-1.44047">
        <ele>50.59573</ele>
        <time>2023-05-28T14:51:00.000Z</time>
      </trkpt>
      <trkpt lat="46.20509" lon="-1.44053">
        <ele>50.63859</ele>
        <time>2023-05-28T14:51:01.000Z</time>
      </trkpt>
      <trkpt lat="46.20511" lon="-1.44057">
        <ele>50.62895</ele>
        <time>2023-05-28T14:51:02.000Z</time>
      </trkpt>
      <trkpt lat="46.20513" lon="-1.44062">
        <ele>50.59172</ele>
        <time>2023-05-28T14:51:03.000Z</time>
      </trkpt>
      <trkpt lat="46.20515" lon="-1.44067">
        <ele>50.65488</ele>
        <time>2023-05-28T14:51:04.000Z</time>
      </trkpt>
      <trkpt lat="46.20517" lon="-1.44072">
        <ele>50.6656</ele>
        <time>2023-05-28T14:51:05.000Z</time>
      </trkpt>
      <trkpt lat="46.20519" lon="-1.44077">
        <ele>50.66986</ele>
        <time>2023-05-28T14:51:06.000Z</time>
      </trkpt>
      <trkpt lat="46.20521" lon="-1.44083">
        <ele>50.65094</ele>
        <time>2023-05-28T14:51:07.000Z</time>
      </trkpt>
      <trkpt lat="46.20523" lon="-1.44088">
        <ele>50.63107</ele>
        <time>2023-05-28T14:51:08.000Z</time>
      </trkpt>
      <trkpt lat="46.20525" lon="-1.44095">
        <ele>50.61177</ele>
        <time>2023-05-28T14:51:09.000Z</time>
      </trkpt>
      <trkpt lat="46.20526" lon="-1.44101">
        <ele>50.60788</ele>
        <time>2023-05-28T14:51:10.000Z</time>
      </trkpt>
      <trkpt lat="46.20529" lon="-1.44106">
        <ele>50.62632</ele>
        <time>2023-05-28T14:51:11.000Z</time>
      </trkpt>
      <trkpt lat="46.20532" lon="-1.44111">
        <ele>50.61426</ele>
        <time>2023-05-28T14:51:12.000Z</time>
      </trkpt>
      <trkpt lat="46.20534" lon="-1.44117">
        <ele>50.60036</ele>
        <time>2023-05-28T14:51:13.000Z</time>
      </trkpt>
      <trkpt lat="46.20536" lon="-1.44122">
        <ele>50.54701</ele>
        <time>2023-05-28T14:51:14.000Z</time>
      </trkpt>
      <trkpt lat="46.20538" lon="-1.44128">
        <ele>50.48783</ele>
        <time>2023-05-28T14:51:15.000Z</time>
      </trkpt>
      <trkpt lat="46.20541" lon="-1.44133">
        <ele>50.46295</ele>
        <time>2023-05-28T14:51:16.000Z</time>
      </trkpt>
      <trkpt lat="46.20543" lon="-1.44138">
        <ele>50.44379</ele>
        <time>2023-05-28T14:51:17.000Z</time>
      </trkpt>
      <trkpt lat="46.20546" lon="-1.44143">
        <ele>50.41949</ele>
        <time>2023-05-28T14:51:18.000Z</time>
      </trkpt>
      <trkpt lat="46.20547" lon="-1.44148">
        <ele>50.37217</ele>
        <time>2023-05-28T14:51:19.000Z</time>
      </trkpt>
      <trkpt lat="46.20549" lon="-1.44153">
        <ele>50.33061</ele>
        <time>2023-05-28T14:51:20.000Z</time>
      </trkpt>
      <trkpt lat="46.20551" lon="-1.44159">
        <ele>50.27499</ele>
        <time>2023-05-28T14:51:21.000Z</time>
      </trkpt>
      <trkpt lat="46.20554" lon="-1.44164">
        <ele>50.25598</ele>
        <time>2023-05-28T14:51:22.000Z</time>
      </trkpt>
      <trkpt lat="46.20556" lon="-1.44171">
        <ele>50.25518</ele>
        <time>2023-05-28T14:51:23.000Z</time>
      </trkpt>
      <trkpt lat="46.20558" lon="-1.44177">
        <ele>50.1511</ele>
        <time>2023-05-28T14:51:24.000Z</time>
      </trkpt>
      <trkpt lat="46.2056" lon="-1.44183">
        <ele>50.09406</ele>
        <time>2023-05-28T14:51:25.000Z</time>
      </trkpt>
      <trkpt lat="46.20563" lon="-1.44189">
        <ele>50.03038</ele>
        <time>2023-05-28T14:51:26.000Z</time>
      </trkpt>
      <trkpt lat="46.20565" lon="-1.44197">
        <ele>49.95934</ele>
        <time>2023-05-28T14:51:27.000Z</time>
      </trkpt>
      <trkpt lat="46.20569" lon="-1.44205">
        <ele>49.90137</ele>
        <time>2023-05-28T14:51:28.000Z</time>
      </trkpt>
      <trkpt lat="46.20572" lon="-1.44213">
        <ele>49.83999</ele>
        <time>2023-05-28T14:51:29.000Z</time>
      </trkpt>
      <trkpt lat="46.20576" lon="-1.44221">
        <ele>49.74741</ele>
        <time>2023-05-28T14:51:30.000Z</time>
      </trkpt>
      <trkpt lat="46.20579" lon="-1.44228">
        <ele>49.68138</ele>
        <time>2023-05-28T14:51:31.000Z</time>
      </trkpt>
      <trkpt lat="46.20582" lon="-1.44236">
        <ele>49.64538</ele>
        <time>2023-05-28T14:51:32.000Z</time>
      </trkpt>
      <trkpt lat="46.20585" lon="-1.44243">
        <ele>49.62347</ele>
        <time>2023-05-28T14:51:33.000Z</time>
      </trkpt>
      <trkpt lat="46.20588" lon="-1.44251">
        <ele>49.5544</ele>
        <time>2023-05-28T14:51:34.000Z</time>
      </trkpt>
      <trkpt lat="46.2059" lon="-1.44258">
        <ele>49.5196</ele>
        <time>2023-05-28T14:51:35.000Z</time>
      </trkpt>
      <trkpt lat="46.20592" lon="-1.44266">
        <ele>49.46875</ele>
        <time>2023-05-28T14:51:36.000Z</time>
      </trkpt>
      <trkpt lat="46.20595" lon="-1.44273">
        <ele>49.4097</ele>
        <time>2023-05-28T14:51:37.000Z</time>
      </trkpt>
      <trkpt lat="46.20597" lon="-1.4428">
        <ele>49.35765</ele>
        <time>2023-05-28T14:51:38.000Z</time>
      </trkpt>
      <trkpt lat="46.20599" lon="-1.44287">
        <ele>49.33566</ele>
        <time>2023-05-28T14:51:39.000Z</time>
      </trkpt>
      <trkpt lat="46.20601" lon="-1.44293">
        <ele>49.31944</ele>
        <time>2023-05-28T14:51:40.000Z</time>
      </trkpt>
      <trkpt lat="46.20604" lon="-1.44301">
        <ele>49.32936</ele>
        <time>2023-05-28T14:51:41.000Z</time>
      </trkpt>
      <trkpt lat="46.20606" lon="-1.44308">
        <ele>49.33125</ele>
        <time>2023-05-28T14:51:42.000Z</time>
      </trkpt>
      <trkpt lat="46.20609" lon="-1.44314">
        <ele>49.32119</ele>
        <time>2023-05-28T14:51:43.000Z</time>
      </trkpt>
      <trkpt lat="46.20612" lon="-1.44321">
        <ele>49.33651</ele>
        <time>2023-05-28T14:51:44.000Z</time>
      </trkpt>
      <trkpt lat="46.20614" lon="-1.44327">
        <ele>49.34244</ele>
        <time>2023-05-28T14:51:45.000Z</time>
      </trkpt>
      <trkpt lat="46.20616" lon="-1.44334">
        <ele>49.35383</ele>
        <time>2023-05-28T14:51:46.000Z</time>
      </trkpt>
      <trkpt lat="46.20618" lon="-1.4434">
        <ele>49.42749</ele>
        <time>2023-05-28T14:51:47.000Z</time>
      </trkpt>
      <trkpt lat="46.2062" lon="-1.44347">
        <ele>49.49349</ele>
        <time>2023-05-28T14:51:48.000Z</time>
      </trkpt>
      <trkpt lat="46.20623" lon="-1.44353">
        <ele>49.55989</ele>
        <time>2023-05-28T14:51:49.000Z</time>
      </trkpt>
      <trkpt lat="46.20624" lon="-1.44358">
        <ele>49.61565</ele>
        <time>2023-05-28T14:51:50.000Z</time>
      </trkpt>
      <trkpt lat="46.20626" lon="-1.44365">
        <ele>49.63052</ele>
        <time>2023-05-28T14:51:51.000Z</time>
      </trkpt>
      <trkpt lat="46.20628" lon="-1.4437">
        <ele>49.64565</ele>
        <time>2023-05-28T14:51:52.000Z</time>
      </trkpt>
      <trkpt lat="46.2063" lon="-1.44376">
        <ele>49.65386</ele>
        <time>2023-05-28T14:51:53.000Z</time>
      </trkpt>
      <trkpt lat="46.20633" lon="-1.4438">
        <ele>49.69417</ele>
        <time>2023-05-28T14:51:54.000Z</time>
      </trkpt>
      <trkpt lat="46.20634" lon="-1.44383">
        <ele>49.67246</ele>
        <time>2023-05-28T14:51:55.000Z</time>
      </trkpt>
      <trkpt lat="46.20636" lon="-1.44386">
        <ele>49.71427</ele>
        <time>2023-05-28T14:51:57.000Z</time>
      </trkpt>
      <trkpt lat="46.20637" lon="-1.44389">
        <ele>49.72727</ele>
        <time>2023-05-28T14:51:59.000Z</time>
      </trkpt>
      <trkpt lat="46.20637" lon="-1.44386">
        <ele>49.74714</ele>
        <time>2023-05-28T14:53:20.000Z</time>
      </trkpt>
      <trkpt lat="46.20639" lon="-1.44387">
        <ele>49.72901</ele>
        <time>2023-05-28T14:54:10.000Z</time>
      </trkpt>
      <trkpt lat="46.2064" lon="-1.44391">
        <ele>49.70648</ele>
        <time>2023-05-28T14:54:12.000Z</time>
      </trkpt>
      <trkpt lat="46.20641" lon="-1.44394">
        <ele>49.64927</ele>
        <time>2023-05-28T14:54:13.000Z</time>
      </trkpt>
      <trkpt lat="46.20642" lon="-1.44397">
        <ele>49.59892</ele>
        <time>2023-05-28T14:54:14.000Z</time>
      </trkpt>
      <trkpt lat="46.20642" lon="-1.444">
        <ele>49.59047</ele>
        <time>2023-05-28T14:54:15.000Z</time>
      </trkpt>
      <trkpt lat="46.20641" lon="-1.44404">
        <ele>49.5623</ele>
        <time>2023-05-28T14:54:16.000Z</time>
      </trkpt>
      <trkpt lat="46.20641" lon="-1.44408">
        <ele>49.53927</ele>
        <time>2023-05-28T14:54:17.000Z</time>
      </trkpt>
      <trkpt lat="46.20641" lon="-1.44411">
        <ele>49.51888</ele>
        <time>2023-05-28T14:54:18.000Z</time>
      </trkpt>
      <trkpt lat="46.20642" lon="-1.44414">
        <ele>49.47495</ele>
        <time>2023-05-28T14:54:19.000Z</time>
      </trkpt>
      <trkpt lat="46.20643" lon="-1.44418">
        <ele>49.44064</ele>
        <time>2023-05-28T14:54:20.000Z</time>
      </trkpt>
      <trkpt lat="46.20645" lon="-1.44422">
        <ele>49.41389</ele>
        <time>2023-05-28T14:54:21.000Z</time>
      </trkpt>
      <trkpt lat="46.20646" lon="-1.44425">
        <ele>49.46978</ele>
        <time>2023-05-28T14:54:22.000Z</time>
      </trkpt>
      <trkpt lat="46.20647" lon="-1.44429">
        <ele>49.51659</ele>
        <time>2023-05-28T14:54:23.000Z</time>
      </trkpt>
      <trkpt lat="46.20648" lon="-1.44432">
        <ele>49.58622</ele>
        <time>2023-05-28T14:54:24.000Z</time>
      </trkpt>
      <trkpt lat="46.2065" lon="-1.44436">
        <ele>49.6179</ele>
        <time>2023-05-28T14:54:25.000Z</time>
      </trkpt>
      <trkpt lat="46.20651" lon="-1.44439">
        <ele>49.68697</ele>
        <time>2023-05-28T14:54:26.000Z</time>
      </trkpt>
      <trkpt lat="46.20652" lon="-1.44443">
        <ele>49.77774</ele>
        <time>2023-05-28T14:54:27.000Z</time>
      </trkpt>
      <trkpt lat="46.20653" lon="-1.44447">
        <ele>49.80223</ele>
        <time>2023-05-28T14:54:28.000Z</time>
      </trkpt>
      <trkpt lat="46.20655" lon="-1.44451">
        <ele>49.87801</ele>
        <time>2023-05-28T14:54:29.000Z</time>
      </trkpt>
      <trkpt lat="46.20656" lon="-1.44454">
        <ele>49.90737</ele>
        <time>2023-05-28T14:54:30.000Z</time>
      </trkpt>
      <trkpt lat="46.20658" lon="-1.44458">
        <ele>49.96785</ele>
        <time>2023-05-28T14:54:31.000Z</time>
      </trkpt>
      <trkpt lat="46.20659" lon="-1.44462">
        <ele>50.03697</ele>
        <time>2023-05-28T14:54:32.000Z</time>
      </trkpt>
      <trkpt lat="46.2066" lon="-1.44466">
        <ele>50.11067</ele>
        <time>2023-05-28T14:54:33.000Z</time>
      </trkpt>
      <trkpt lat="46.20662" lon="-1.4447">
        <ele>50.19936</ele>
        <time>2023-05-28T14:54:34.000Z</time>
      </trkpt>
      <trkpt lat="46.20663" lon="-1.44475">
        <ele>50.2515</ele>
        <time>2023-05-28T14:54:35.000Z</time>
      </trkpt>
      <trkpt lat="46.20664" lon="-1.44479">
        <ele>50.32479</ele>
        <time>2023-05-28T14:54:36.000Z</time>
      </trkpt>
      <trkpt lat="46.20666" lon="-1.44484">
        <ele>50.39857</ele>
        <time>2023-05-28T14:54:37.000Z</time>
      </trkpt>
      <trkpt lat="46.20667" lon="-1.44488">
        <ele>50.48124</ele>
        <time>2023-05-28T14:54:38.000Z</time>
      </trkpt>
      <trkpt lat="46.20669" lon="-1.44493">
        <ele>50.57406</ele>
        <time>2023-05-28T14:54:39.000Z</time>
      </trkpt>
      <trkpt lat="46.2067" lon="-1.44498">
        <ele>50.67307</ele>
        <time>2023-05-28T14:54:40.000Z</time>
      </trkpt>
      <trkpt lat="46.20671" lon="-1.44503">
        <ele>50.76312</ele>
        <time>2023-05-28T14:54:41.000Z</time>
      </trkpt>
      <trkpt lat="46.20673" lon="-1.44508">
        <ele>50.7757</ele>
        <time>2023-05-28T14:54:42.000Z</time>
      </trkpt>
      <trkpt lat="46.20675" lon="-1.44513">
        <ele>50.78793</ele>
        <time>2023-05-28T14:54:43.000Z</time>
      </trkpt>
      <trkpt lat="46.20677" lon="-1.44518">
        <ele>50.76844</ele>
        <time>2023-05-28T14:54:44.000Z</time>
      </trkpt>
      <trkpt lat="46.20678" lon="-1.44523">
        <ele>50.76928</ele>
        <time>2023-05-28T14:54:45.000Z</time>
      </trkpt>
      <trkpt lat="46.2068" lon="-1.44528">
        <ele>50.78574</ele>
        <time>2023-05-28T14:54:46.000Z</time>
      </trkpt>
      <trkpt lat="46.20682" lon="-1.44532">
        <ele>50.78819</ele>
        <time>2023-05-28T14:54:47.000Z</time>
      </trkpt>
      <trkpt lat="46.20683" lon="-1.44537">
        <ele>50.78867</ele>
        <time>2023-05-28T14:54:48.000Z</time>
      </trkpt>
      <trkpt lat="46.20685" lon="-1.44542">
        <ele>50.77059</ele>
        <time>2023-05-28T14:54:49.000Z</time>
      </trkpt>
      <trkpt lat="46.20686" lon="-1.44547">
        <ele>50.78759</ele>
        <time>2023-05-28T14:54:50.000Z</time>
      </trkpt>
      <trkpt lat="46.20688" lon="-1.44552">
        <ele>50.78832</ele>
        <time>2023-05-28T14:54:51.000Z</time>
      </trkpt>
      <trkpt lat="46.2069" lon="-1.44557">
        <ele>50.79188</ele>
        <time>2023-05-28T14:54:52.000Z</time>
      </trkpt>
      <trkpt lat="46.20691" lon="-1.44562">
        <ele>50.81585</ele>
        <time>2023-05-28T14:54:53.000Z</time>
      </trkpt>
      <trkpt lat="46.20693" lon="-1.44567">
        <ele>50.82974</ele>
        <time>2023-05-28T14:54:54.000Z</time>
      </trkpt>
      <trkpt lat="46.20695" lon="-1.44572">
        <ele>50.82905</ele>
        <time>2023-05-28T14:54:55.000Z</time>
      </trkpt>
      <trkpt lat="46.20697" lon="-1.44578">
        <ele>50.79464</ele>
        <time>2023-05-28T14:54:56.000Z</time>
      </trkpt>
      <trkpt lat="46.20699" lon="-1.44583">
        <ele>50.77342</ele>
        <time>2023-05-28T14:54:57.000Z</time>
      </trkpt>
      <trkpt lat="46.20701" lon="-1.44589">
        <ele>50.72132</ele>
        <time>2023-05-28T14:54:58.000Z</time>
      </trkpt>
      <trkpt lat="46.20702" lon="-1.44595">
        <ele>50.65741</ele>
        <time>2023-05-28T14:54:59.000Z</time>
      </trkpt>
      <trkpt lat="46.20705" lon="-1.44601">
        <ele>50.57637</ele>
        <time>2023-05-28T14:55:00.000Z</time>
      </trkpt>
      <trkpt lat="46.20707" lon="-1.44607">
        <ele>50.52607</ele>
        <time>2023-05-28T14:55:01.000Z</time>
      </trkpt>
      <trkpt lat="46.20709" lon="-1.44614">
        <ele>50.49386</ele>
        <time>2023-05-28T14:55:02.000Z</time>
      </trkpt>
      <trkpt lat="46.20711" lon="-1.4462">
        <ele>50.49981</ele>
        <time>2023-05-28T14:55:03.000Z</time>
      </trkpt>
      <trkpt lat="46.20712" lon="-1.44627">
        <ele>50.53035</ele>
        <time>2023-05-28T14:55:04.000Z</time>
      </trkpt>
      <trkpt lat="46.20715" lon="-1.44634">
        <ele>50.56524</ele>
        <time>2023-05-28T14:55:05.000Z</time>
      </trkpt>
      <trkpt lat="46.20717" lon="-1.4464">
        <ele>50.59455</ele>
        <time>2023-05-28T14:55:06.000Z</time>
      </trkpt>
      <trkpt lat="46.20719" lon="-1.44647">
        <ele>50.61724</ele>
        <time>2023-05-28T14:55:07.000Z</time>
      </trkpt>
      <trkpt lat="46.20722" lon="-1.44653">
        <ele>50.64264</ele>
        <time>2023-05-28T14:55:08.000Z</time>
      </trkpt>
      <trkpt lat="46.20723" lon="-1.44659">
        <ele>50.68441</ele>
        <time>2023-05-28T14:55:09.000Z</time>
      </trkpt>
      <trkpt lat="46.20726" lon="-1.44666">
        <ele>50.72195</ele>
        <time>2023-05-28T14:55:10.000Z</time>
      </trkpt>
      <trkpt lat="46.20728" lon="-1.44672">
        <ele>50.77065</ele>
        <time>2023-05-28T14:55:11.000Z</time>
      </trkpt>
      <trkpt lat="46.2073" lon="-1.44679">
        <ele>50.81649</ele>
        <time>2023-05-28T14:55:12.000Z</time>
      </trkpt>
      <trkpt lat="46.20732" lon="-1.44685">
        <ele>50.85844</ele>
        <time>2023-05-28T14:55:13.000Z</time>
      </trkpt>
      <trkpt lat="46.20734" lon="-1.44692">
        <ele>50.90452</ele>
        <time>2023-05-28T14:55:14.000Z</time>
      </trkpt>
      <trkpt lat="46.20736" lon="-1.44697">
        <ele>50.98254</ele>
        <time>2023-05-28T14:55:15.000Z</time>
      </trkpt>
      <trkpt lat="46.20739" lon="-1.44703">
        <ele>51.04939</ele>
        <time>2023-05-28T14:55:16.000Z</time>
      </trkpt>
      <trkpt lat="46.2074" lon="-1.4471">
        <ele>51.1267</ele>
        <time>2023-05-28T14:55:17.000Z</time>
      </trkpt>
      <trkpt lat="46.20742" lon="-1.44716">
        <ele>51.21282</ele>
        <time>2023-05-28T14:55:18.000Z</time>
      </trkpt>
      <trkpt lat="46.20744" lon="-1.44722">
        <ele>51.31653</ele>
        <time>2023-05-28T14:55:19.000Z</time>
      </trkpt>
      <trkpt lat="46.20747" lon="-1.44729">
        <ele>51.41994</ele>
        <time>2023-05-28T14:55:20.000Z</time>
      </trkpt>
      <trkpt lat="46.20749" lon="-1.44736">
        <ele>51.50225</ele>
        <time>2023-05-28T14:55:21.000Z</time>
      </trkpt>
      <trkpt lat="46.2075" lon="-1.44742">
        <ele>51.58131</ele>
        <time>2023-05-28T14:55:22.000Z</time>
      </trkpt>
      <trkpt lat="46.20752" lon="-1.44748">
        <ele>51.63359</ele>
        <time>2023-05-28T14:55:23.000Z</time>
      </trkpt>
      <trkpt lat="46.20754" lon="-1.44754">
        <ele>51.65299</ele>
        <time>2023-05-28T14:55:24.000Z</time>
      </trkpt>
      <trkpt lat="46.20756" lon="-1.44761">
        <ele>51.66285</ele>
        <time>2023-05-28T14:55:25.000Z</time>
      </trkpt>
      <trkpt lat="46.20758" lon="-1.44768">
        <ele>51.67278</ele>
        <time>2023-05-28T14:55:26.000Z</time>
      </trkpt>
      <trkpt lat="46.20761" lon="-1.44774">
        <ele>51.6985</ele>
        <time>2023-05-28T14:55:27.000Z</time>
      </trkpt>
      <trkpt lat="46.20763" lon="-1.44781">
        <ele>51.72404</ele>
        <time>2023-05-28T14:55:28.000Z</time>
      </trkpt>
      <trkpt lat="46.20765" lon="-1.44787">
        <ele>51.77901</ele>
        <time>2023-05-28T14:55:29.000Z</time>
      </trkpt>
      <trkpt lat="46.20767" lon="-1.44793">
        <ele>51.8324</ele>
        <time>2023-05-28T14:55:30.000Z</time>
      </trkpt>
      <trkpt lat="46.20769" lon="-1.448">
        <ele>51.89359</ele>
        <time>2023-05-28T14:55:31.000Z</time>
      </trkpt>
      <trkpt lat="46.20772" lon="-1.44805">
        <ele>51.97173</ele>
        <time>2023-05-28T14:55:32.000Z</time>
      </trkpt>
      <trkpt lat="46.20774" lon="-1.44812">
        <ele>52.05416</ele>
        <time>2023-05-28T14:55:33.000Z</time>
      </trkpt>
      <trkpt lat="46.20776" lon="-1.44818">
        <ele>52.11505</ele>
        <time>2023-05-28T14:55:34.000Z</time>
      </trkpt>
      <trkpt lat="46.20778" lon="-1.44825">
        <ele>52.15413</ele>
        <time>2023-05-28T14:55:35.000Z</time>
      </trkpt>
      <trkpt lat="46.20781" lon="-1.44831">
        <ele>52.23628</ele>
        <time>2023-05-28T14:55:36.000Z</time>
      </trkpt>
      <trkpt lat="46.20783" lon="-1.44837">
        <ele>52.25674</ele>
        <time>2023-05-28T14:55:37.000Z</time>
      </trkpt>
      <trkpt lat="46.20784" lon="-1.44843">
        <ele>52.27275</ele>
        <time>2023-05-28T14:55:38.000Z</time>
      </trkpt>
      <trkpt lat="46.20787" lon="-1.44849">
        <ele>52.26009</ele>
        <time>2023-05-28T14:55:39.000Z</time>
      </trkpt>
      <trkpt lat="46.20788" lon="-1.44856">
        <ele>52.25403</ele>
        <time>2023-05-28T14:55:40.000Z</time>
      </trkpt>
      <trkpt lat="46.2079" lon="-1.44862">
        <ele>52.2228</ele>
        <time>2023-05-28T14:55:41.000Z</time>
      </trkpt>
      <trkpt lat="46.20791" lon="-1.44868">
        <ele>52.19033</ele>
        <time>2023-05-28T14:55:42.000Z</time>
      </trkpt>
      <trkpt lat="46.20794" lon="-1.44874">
        <ele>52.1556</ele>
        <time>2023-05-28T14:55:43.000Z</time>
      </trkpt>
      <trkpt lat="46.20796" lon="-1.44881">
        <ele>52.15417</ele>
        <time>2023-05-28T14:55:44.000Z</time>
      </trkpt>
      <trkpt lat="46.20798" lon="-1.44887">
        <ele>52.19242</ele>
        <time>2023-05-28T14:55:45.000Z</time>
      </trkpt>
      <trkpt lat="46.208" lon="-1.44893">
        <ele>52.22166</ele>
        <time>2023-05-28T14:55:46.000Z</time>
      </trkpt>
      <trkpt lat="46.20803" lon="-1.44898">
        <ele>52.24155</ele>
        <time>2023-05-28T14:55:47.000Z</time>
      </trkpt>
      <trkpt lat="46.20805" lon="-1.44904">
        <ele>52.25736</ele>
        <time>2023-05-28T14:55:48.000Z</time>
      </trkpt>
      <trkpt lat="46.20806" lon="-1.44911">
        <ele>52.23088</ele>
        <time>2023-05-28T14:55:49.000Z</time>
      </trkpt>
      <trkpt lat="46.20809" lon="-1.44918">
        <ele>52.18419</ele>
        <time>2023-05-28T14:55:50.000Z</time>
      </trkpt>
      <trkpt lat="46.20811" lon="-1.44925">
        <ele>52.13692</ele>
        <time>2023-05-28T14:55:51.000Z</time>
      </trkpt>
      <trkpt lat="46.20813" lon="-1.44931">
        <ele>52.06838</ele>
        <time>2023-05-28T14:55:52.000Z</time>
      </trkpt>
      <trkpt lat="46.20815" lon="-1.44938">
        <ele>51.99302</ele>
        <time>2023-05-28T14:55:53.000Z</time>
      </trkpt>
      <trkpt lat="46.20818" lon="-1.44945">
        <ele>51.92882</ele>
        <time>2023-05-28T14:55:54.000Z</time>
      </trkpt>
      <trkpt lat="46.2082" lon="-1.44951">
        <ele>51.86915</ele>
        <time>2023-05-28T14:55:55.000Z</time>
      </trkpt>
      <trkpt lat="46.20822" lon="-1.44958">
        <ele>51.80405</ele>
        <time>2023-05-28T14:55:56.000Z</time>
      </trkpt>
      <trkpt lat="46.20824" lon="-1.44964">
        <ele>51.77313</ele>
        <time>2023-05-28T14:55:57.000Z</time>
      </trkpt>
      <trkpt lat="46.20827" lon="-1.44971">
        <ele>51.72565</ele>
        <time>2023-05-28T14:55:58.000Z</time>
      </trkpt>
      <trkpt lat="46.20829" lon="-1.44978">
        <ele>51.68678</ele>
        <time>2023-05-28T14:55:59.000Z</time>
      </trkpt>
      <trkpt lat="46.20831" lon="-1.44985">
        <ele>51.65545</ele>
        <time>2023-05-28T14:56:00.000Z</time>
      </trkpt>
      <trkpt lat="46.20833" lon="-1.44992">
        <ele>51.64117</ele>
        <time>2023-05-28T14:56:01.000Z</time>
      </trkpt>
      <trkpt lat="46.20836" lon="-1.44998">
        <ele>51.63461</ele>
        <time>2023-05-28T14:56:02.000Z</time>
      </trkpt>
      <trkpt lat="46.20838" lon="-1.45005">
        <ele>51.63372</ele>
        <time>2023-05-28T14:56:03.000Z</time>
      </trkpt>
      <trkpt lat="46.2084" lon="-1.45013">
        <ele>51.61826</ele>
        <time>2023-05-28T14:56:04.000Z</time>
      </trkpt>
      <trkpt lat="46.20843" lon="-1.45019">
        <ele>51.56804</ele>
        <time>2023-05-28T14:56:05.000Z</time>
      </trkpt>
      <trkpt lat="46.20845" lon="-1.45026">
        <ele>51.50776</ele>
        <time>2023-05-28T14:56:06.000Z</time>
      </trkpt>
      <trkpt lat="46.20847" lon="-1.45033">
        <ele>51.45587</ele>
        <time>2023-05-28T14:56:07.000Z</time>
      </trkpt>
      <trkpt lat="46.2085" lon="-1.4504">
        <ele>51.39809</ele>
        <time>2023-05-28T14:56:08.000Z</time>
      </trkpt>
      <trkpt lat="46.20852" lon="-1.45047">
        <ele>51.33433</ele>
        <time>2023-05-28T14:56:09.000Z</time>
      </trkpt>
      <trkpt lat="46.20854" lon="-1.45053">
        <ele>51.28974</ele>
        <time>2023-05-28T14:56:10.000Z</time>
      </trkpt>
      <trkpt lat="46.20856" lon="-1.4506">
        <ele>51.22927</ele>
        <time>2023-05-28T14:56:11.000Z</time>
      </trkpt>
      <trkpt lat="46.20858" lon="-1.45067">
        <ele>51.17214</ele>
        <time>2023-05-28T14:56:12.000Z</time>
      </trkpt>
      <trkpt lat="46.2086" lon="-1.45074">
        <ele>51.12082</ele>
        <time>2023-05-28T14:56:13.000Z</time>
      </trkpt>
      <trkpt lat="46.20862" lon="-1.4508">
        <ele>51.07618</ele>
        <time>2023-05-28T14:56:14.000Z</time>
      </trkpt>
      <trkpt lat="46.20865" lon="-1.45087">
        <ele>51.01936</ele>
        <time>2023-05-28T14:56:15.000Z</time>
      </trkpt>
      <trkpt lat="46.20867" lon="-1.45094">
        <ele>50.94312</ele>
        <time>2023-05-28T14:56:16.000Z</time>
      </trkpt>
      <trkpt lat="46.20869" lon="-1.45101">
        <ele>50.86298</ele>
        <time>2023-05-28T14:56:17.000Z</time>
      </trkpt>
      <trkpt lat="46.20871" lon="-1.45108">
        <ele>50.82748</ele>
        <time>2023-05-28T14:56:18.000Z</time>
      </trkpt>
      <trkpt lat="46.20874" lon="-1.45115">
        <ele>50.78706</ele>
        <time>2023-05-28T14:56:19.000Z</time>
      </trkpt>
      <trkpt lat="46.20876" lon="-1.45121">
        <ele>50.73978</ele>
        <time>2023-05-28T14:56:20.000Z</time>
      </trkpt>
      <trkpt lat="46.20879" lon="-1.45128">
        <ele>50.71337</ele>
        <time>2023-05-28T14:56:21.000Z</time>
      </trkpt>
      <trkpt lat="46.20881" lon="-1.45134">
        <ele>50.66375</ele>
        <time>2023-05-28T14:56:22.000Z</time>
      </trkpt>
      <trkpt lat="46.20883" lon="-1.45141">
        <ele>50.62682</ele>
        <time>2023-05-28T14:56:23.000Z</time>
      </trkpt>
      <trkpt lat="46.20885" lon="-1.45148">
        <ele>50.60667</ele>
        <time>2023-05-28T14:56:24.000Z</time>
      </trkpt>
      <trkpt lat="46.20888" lon="-1.45155">
        <ele>50.60825</ele>
        <time>2023-05-28T14:56:25.000Z</time>
      </trkpt>
      <trkpt lat="46.2089" lon="-1.45162">
        <ele>50.62346</ele>
        <time>2023-05-28T14:56:26.000Z</time>
      </trkpt>
      <trkpt lat="46.20892" lon="-1.45168">
        <ele>50.65551</ele>
        <time>2023-05-28T14:56:27.000Z</time>
      </trkpt>
      <trkpt lat="46.20894" lon="-1.45174">
        <ele>50.70713</ele>
        <time>2023-05-28T14:56:28.000Z</time>
      </trkpt>
      <trkpt lat="46.20897" lon="-1.45181">
        <ele>50.74041</ele>
        <time>2023-05-28T14:56:29.000Z</time>
      </trkpt>
      <trkpt lat="46.20899" lon="-1.45188">
        <ele>50.77399</ele>
        <time>2023-05-28T14:56:30.000Z</time>
      </trkpt>
      <trkpt lat="46.209" lon="-1.45194">
        <ele>50.78527</ele>
        <time>2023-05-28T14:56:31.000Z</time>
      </trkpt>
      <trkpt lat="46.20903" lon="-1.45201">
        <ele>50.77142</ele>
        <time>2023-05-28T14:56:32.000Z</time>
      </trkpt>
      <trkpt lat="46.20905" lon="-1.45208">
        <ele>50.755</ele>
        <time>2023-05-28T14:56:33.000Z</time>
      </trkpt>
      <trkpt lat="46.20908" lon="-1.45215">
        <ele>50.73153</ele>
        <time>2023-05-28T14:56:34.000Z</time>
      </trkpt>
      <trkpt lat="46.2091" lon="-1.45222">
        <ele>50.72424</ele>
        <time>2023-05-28T14:56:35.000Z</time>
      </trkpt>
      <trkpt lat="46.20911" lon="-1.45229">
        <ele>50.71534</ele>
        <time>2023-05-28T14:56:36.000Z</time>
      </trkpt>
      <trkpt lat="46.20913" lon="-1.45235">
        <ele>50.70822</ele>
        <time>2023-05-28T14:56:37.000Z</time>
      </trkpt>
      <trkpt lat="46.20916" lon="-1.45241">
        <ele>50.66253</ele>
        <time>2023-05-28T14:56:38.000Z</time>
      </trkpt>
      <trkpt lat="46.20918" lon="-1.45247">
        <ele>50.64452</ele>
        <time>2023-05-28T14:56:39.000Z</time>
      </trkpt>
      <trkpt lat="46.2092" lon="-1.45254">
        <ele>50.65373</ele>
        <time>2023-05-28T14:56:40.000Z</time>
      </trkpt>
      <trkpt lat="46.20922" lon="-1.45261">
        <ele>50.64152</ele>
        <time>2023-05-28T14:56:41.000Z</time>
      </trkpt>
      <trkpt lat="46.20925" lon="-1.45266">
        <ele>50.64367</ele>
        <time>2023-05-28T14:56:42.000Z</time>
      </trkpt>
      <trkpt lat="46.20927" lon="-1.45273">
        <ele>50.64721</ele>
        <time>2023-05-28T14:56:43.000Z</time>
      </trkpt>
      <trkpt lat="46.20929" lon="-1.45279">
        <ele>50.64074</ele>
        <time>2023-05-28T14:56:44.000Z</time>
      </trkpt>
      <trkpt lat="46.20931" lon="-1.45286">
        <ele>50.61129</ele>
        <time>2023-05-28T14:56:45.000Z</time>
      </trkpt>
      <trkpt lat="46.20933" lon="-1.45293">
        <ele>50.56812</ele>
        <time>2023-05-28T14:56:46.000Z</time>
      </trkpt>
      <trkpt lat="46.20936" lon="-1.453">
        <ele>50.51269</ele>
        <time>2023-05-28T14:56:47.000Z</time>
      </trkpt>
      <trkpt lat="46.20938" lon="-1.45307">
        <ele>50.45147</ele>
        <time>2023-05-28T14:56:48.000Z</time>
      </trkpt>
      <trkpt lat="46.2094" lon="-1.45314">
        <ele>50.42185</ele>
        <time>2023-05-28T14:56:49.000Z</time>
      </trkpt>
      <trkpt lat="46.20944" lon="-1.4532">
        <ele>50.36452</ele>
        <time>2023-05-28T14:56:50.000Z</time>
      </trkpt>
      <trkpt lat="46.20946" lon="-1.45326">
        <ele>50.32005</ele>
        <time>2023-05-28T14:56:51.000Z</time>
      </trkpt>
      <trkpt lat="46.20948" lon="-1.45332">
        <ele>50.30131</ele>
        <time>2023-05-28T14:56:52.000Z</time>
      </trkpt>
      <trkpt lat="46.2095" lon="-1.45339">
        <ele>50.29819</ele>
        <time>2023-05-28T14:56:53.000Z</time>
      </trkpt>
      <trkpt lat="46.20952" lon="-1.45345">
        <ele>50.31108</ele>
        <time>2023-05-28T14:56:54.000Z</time>
      </trkpt>
      <trkpt lat="46.20953" lon="-1.45352">
        <ele>50.33905</ele>
        <time>2023-05-28T14:56:55.000Z</time>
      </trkpt>
      <trkpt lat="46.20955" lon="-1.45359">
        <ele>50.36289</ele>
        <time>2023-05-28T14:56:56.000Z</time>
      </trkpt>
      <trkpt lat="46.20957" lon="-1.45365">
        <ele>50.38391</ele>
        <time>2023-05-28T14:56:57.000Z</time>
      </trkpt>
      <trkpt lat="46.2096" lon="-1.45373">
        <ele>50.43</ele>
        <time>2023-05-28T14:56:58.000Z</time>
      </trkpt>
      <trkpt lat="46.20961" lon="-1.4538">
        <ele>50.44422</ele>
        <time>2023-05-28T14:56:59.000Z</time>
      </trkpt>
      <trkpt lat="46.20962" lon="-1.45387">
        <ele>50.42965</ele>
        <time>2023-05-28T14:57:00.000Z</time>
      </trkpt>
      <trkpt lat="46.20963" lon="-1.45393">
        <ele>50.42553</ele>
        <time>2023-05-28T14:57:01.000Z</time>
      </trkpt>
      <trkpt lat="46.20963" lon="-1.454">
        <ele>50.43029</ele>
        <time>2023-05-28T14:57:02.000Z</time>
      </trkpt>
      <trkpt lat="46.20965" lon="-1.45406">
        <ele>50.42126</ele>
        <time>2023-05-28T14:57:03.000Z</time>
      </trkpt>
      <trkpt lat="46.20967" lon="-1.45412">
        <ele>50.39748</ele>
        <time>2023-05-28T14:57:04.000Z</time>
      </trkpt>
      <trkpt lat="46.2097" lon="-1.45418">
        <ele>50.37707</ele>
        <time>2023-05-28T14:57:05.000Z</time>
      </trkpt>
      <trkpt lat="46.20972" lon="-1.45425">
        <ele>50.37849</ele>
        <time>2023-05-28T14:57:06.000Z</time>
      </trkpt>
      <trkpt lat="46.20975" lon="-1.45431">
        <ele>50.36979</ele>
        <time>2023-05-28T14:57:07.000Z</time>
      </trkpt>
      <trkpt lat="46.20977" lon="-1.45438">
        <ele>50.35425</ele>
        <time>2023-05-28T14:57:08.000Z</time>
      </trkpt>
      <trkpt lat="46.2098" lon="-1.45444">
        <ele>50.33362</ele>
        <time>2023-05-28T14:57:09.000Z</time>
      </trkpt>
      <trkpt lat="46.20982" lon="-1.4545">
        <ele>50.35778</ele>
        <time>2023-05-28T14:57:10.000Z</time>
      </trkpt>
      <trkpt lat="46.20984" lon="-1.45456">
        <ele>50.38118</ele>
        <time>2023-05-28T14:57:11.000Z</time>
      </trkpt>
      <trkpt lat="46.20987" lon="-1.45462">
        <ele>50.41942</ele>
        <time>2023-05-28T14:57:12.000Z</time>
      </trkpt>
      <trkpt lat="46.20989" lon="-1.45469">
        <ele>50.4556</ele>
        <time>2023-05-28T14:57:13.000Z</time>
      </trkpt>
      <trkpt lat="46.20991" lon="-1.45476">
        <ele>50.47439</ele>
        <time>2023-05-28T14:57:14.000Z</time>
      </trkpt>
      <trkpt lat="46.20993" lon="-1.45483">
        <ele>50.46976</ele>
        <time>2023-05-28T14:57:15.000Z</time>
      </trkpt>
      <trkpt lat="46.20995" lon="-1.4549">
        <ele>50.49091</ele>
        <time>2023-05-28T14:57:16.000Z</time>
      </trkpt>
      <trkpt lat="46.20997" lon="-1.45497">
        <ele>50.50711</ele>
        <time>2023-05-28T14:57:17.000Z</time>
      </trkpt>
      <trkpt lat="46.20999" lon="-1.45504">
        <ele>50.52006</ele>
        <time>2023-05-28T14:57:18.000Z</time>
      </trkpt>
      <trkpt lat="46.21001" lon="-1.4551">
        <ele>50.54659</ele>
        <time>2023-05-28T14:57:19.000Z</time>
      </trkpt>
      <trkpt lat="46.21004" lon="-1.45516">
        <ele>50.576</ele>
        <time>2023-05-28T14:57:20.000Z</time>
      </trkpt>
      <trkpt lat="46.21006" lon="-1.45523">
        <ele>50.58434</ele>
        <time>2023-05-28T14:57:21.000Z</time>
      </trkpt>
      <trkpt lat="46.21009" lon="-1.45531">
        <ele>50.57623</ele>
        <time>2023-05-28T14:57:22.000Z</time>
      </trkpt>
      <trkpt lat="46.21011" lon="-1.45538">
        <ele>50.5547</ele>
        <time>2023-05-28T14:57:23.000Z</time>
      </trkpt>
      <trkpt lat="46.21013" lon="-1.45545">
        <ele>50.54883</ele>
        <time>2023-05-28T14:57:24.000Z</time>
      </trkpt>
      <trkpt lat="46.21015" lon="-1.45552">
        <ele>50.53125</ele>
        <time>2023-05-28T14:57:25.000Z</time>
      </trkpt>
      <trkpt lat="46.21017" lon="-1.4556">
        <ele>50.4935</ele>
        <time>2023-05-28T14:57:26.000Z</time>
      </trkpt>
      <trkpt lat="46.21019" lon="-1.45566">
        <ele>50.45253</ele>
        <time>2023-05-28T14:57:27.000Z</time>
      </trkpt>
      <trkpt lat="46.21021" lon="-1.45571">
        <ele>50.4036</ele>
        <time>2023-05-28T14:57:28.000Z</time>
      </trkpt>
      <trkpt lat="46.21024" lon="-1.45578">
        <ele>50.34727</ele>
        <time>2023-05-28T14:57:29.000Z</time>
      </trkpt>
      <trkpt lat="46.21026" lon="-1.45586">
        <ele>50.28223</ele>
        <time>2023-05-28T14:57:30.000Z</time>
      </trkpt>
      <trkpt lat="46.21027" lon="-1.45592">
        <ele>50.23122</ele>
        <time>2023-05-28T14:57:31.000Z</time>
      </trkpt>
      <trkpt lat="46.2103" lon="-1.45599">
        <ele>50.187</ele>
        <time>2023-05-28T14:57:32.000Z</time>
      </trkpt>
      <trkpt lat="46.21032" lon="-1.45606">
        <ele>50.14133</ele>
        <time>2023-05-28T14:57:33.000Z</time>
      </trkpt>
      <trkpt lat="46.21034" lon="-1.45613">
        <ele>50.1148</ele>
        <time>2023-05-28T14:57:34.000Z</time>
      </trkpt>
      <trkpt lat="46.21036" lon="-1.4562">
        <ele>50.08775</ele>
        <time>2023-05-28T14:57:35.000Z</time>
      </trkpt>
      <trkpt lat="46.21037" lon="-1.45628">
        <ele>50.03879</ele>
        <time>2023-05-28T14:57:36.000Z</time>
      </trkpt>
      <trkpt lat="46.21039" lon="-1.45635">
        <ele>50.00396</ele>
        <time>2023-05-28T14:57:37.000Z</time>
      </trkpt>
      <trkpt lat="46.2104" lon="-1.45642">
        <ele>49.98765</ele>
        <time>2023-05-28T14:57:38.000Z</time>
      </trkpt>
      <trkpt lat="46.21041" lon="-1.4565">
        <ele>49.97364</ele>
        <time>2023-05-28T14:57:39.000Z</time>
      </trkpt>
      <trkpt lat="46.21042" lon="-1.45657">
        <ele>49.95155</ele>
        <time>2023-05-28T14:57:40.000Z</time>
      </trkpt>
      <trkpt lat="46.21043" lon="-1.45664">
        <ele>49.95332</ele>
        <time>2023-05-28T14:57:41.000Z</time>
      </trkpt>
      <trkpt lat="46.21044" lon="-1.45672">
        <ele>49.9319</ele>
        <time>2023-05-28T14:57:42.000Z</time>
      </trkpt>
      <trkpt lat="46.21045" lon="-1.45678">
        <ele>49.95241</ele>
        <time>2023-05-28T14:57:43.000Z</time>
      </trkpt>
      <trkpt lat="46.21047" lon="-1.45686">
        <ele>49.98028</ele>
        <time>2023-05-28T14:57:44.000Z</time>
      </trkpt>
      <trkpt lat="46.21048" lon="-1.45693">
        <ele>50.04144</ele>
        <time>2023-05-28T14:57:45.000Z</time>
      </trkpt>
      <trkpt lat="46.2105" lon="-1.457">
        <ele>50.11008</ele>
        <time>2023-05-28T14:57:46.000Z</time>
      </trkpt>
      <trkpt lat="46.21052" lon="-1.45708">
        <ele>50.19114</ele>
        <time>2023-05-28T14:57:47.000Z</time>
      </trkpt>
      <trkpt lat="46.21053" lon="-1.45715">
        <ele>50.28512</ele>
        <time>2023-05-28T14:57:48.000Z</time>
      </trkpt>
      <trkpt lat="46.21054" lon="-1.45723">
        <ele>50.38102</ele>
        <time>2023-05-28T14:57:49.000Z</time>
      </trkpt>
      <trkpt lat="46.21056" lon="-1.45731">
        <ele>50.48758</ele>
        <time>2023-05-28T14:57:50.000Z</time>
      </trkpt>
      <trkpt lat="46.21058" lon="-1.45737">
        <ele>50.57964</ele>
        <time>2023-05-28T14:57:51.000Z</time>
      </trkpt>
      <trkpt lat="46.21059" lon="-1.45744">
        <ele>50.62432</ele>
        <time>2023-05-28T14:57:52.000Z</time>
      </trkpt>
      <trkpt lat="46.21061" lon="-1.45752">
        <ele>50.65022</ele>
        <time>2023-05-28T14:57:53.000Z</time>
      </trkpt>
      <trkpt lat="46.21062" lon="-1.4576">
        <ele>50.65902</ele>
        <time>2023-05-28T14:57:54.000Z</time>
      </trkpt>
      <trkpt lat="46.21064" lon="-1.45767">
        <ele>50.67228</ele>
        <time>2023-05-28T14:57:55.000Z</time>
      </trkpt>
      <trkpt lat="46.21066" lon="-1.45774">
        <ele>50.67513</ele>
        <time>2023-05-28T14:57:56.000Z</time>
      </trkpt>
      <trkpt lat="46.21067" lon="-1.45782">
        <ele>50.67226</ele>
        <time>2023-05-28T14:57:57.000Z</time>
      </trkpt>
      <trkpt lat="46.21068" lon="-1.45789">
        <ele>50.66674</ele>
        <time>2023-05-28T14:57:58.000Z</time>
      </trkpt>
      <trkpt lat="46.2107" lon="-1.45797">
        <ele>50.65688</ele>
        <time>2023-05-28T14:57:59.000Z</time>
      </trkpt>
      <trkpt lat="46.21071" lon="-1.45804">
        <ele>50.64757</ele>
        <time>2023-05-28T14:58:00.000Z</time>
      </trkpt>
      <trkpt lat="46.21073" lon="-1.45812">
        <ele>50.63115</ele>
        <time>2023-05-28T14:58:01.000Z</time>
      </trkpt>
      <trkpt lat="46.21074" lon="-1.45819">
        <ele>50.64309</ele>
        <time>2023-05-28T14:58:02.000Z</time>
      </trkpt>
      <trkpt lat="46.21076" lon="-1.45827">
        <ele>50.63957</ele>
        <time>2023-05-28T14:58:03.000Z</time>
      </trkpt>
      <trkpt lat="46.21077" lon="-1.45834">
        <ele>50.61154</ele>
        <time>2023-05-28T14:58:04.000Z</time>
      </trkpt>
      <trkpt lat="46.21079" lon="-1.45841">
        <ele>50.57146</ele>
        <time>2023-05-28T14:58:05.000Z</time>
      </trkpt>
      <trkpt lat="46.2108" lon="-1.45849">
        <ele>50.49769</ele>
        <time>2023-05-28T14:58:06.000Z</time>
      </trkpt>
      <trkpt lat="46.21081" lon="-1.45857">
        <ele>50.44392</ele>
        <time>2023-05-28T14:58:07.000Z</time>
      </trkpt>
      <trkpt lat="46.21082" lon="-1.45864">
        <ele>50.38298</ele>
        <time>2023-05-28T14:58:08.000Z</time>
      </trkpt>
      <trkpt lat="46.21083" lon="-1.45872">
        <ele>50.31909</ele>
        <time>2023-05-28T14:58:09.000Z</time>
      </trkpt>
      <trkpt lat="46.21084" lon="-1.45879">
        <ele>50.23207</ele>
        <time>2023-05-28T14:58:10.000Z</time>
      </trkpt>
      <trkpt lat="46.21085" lon="-1.45887">
        <ele>50.14229</ele>
        <time>2023-05-28T14:58:11.000Z</time>
      </trkpt>
      <trkpt lat="46.21086" lon="-1.45895">
        <ele>50.09444</ele>
        <time>2023-05-28T14:58:12.000Z</time>
      </trkpt>
      <trkpt lat="46.21086" lon="-1.45902">
        <ele>50.07006</ele>
        <time>2023-05-28T14:58:13.000Z</time>
      </trkpt>
      <trkpt lat="46.21087" lon="-1.45909">
        <ele>50.05213</ele>
        <time>2023-05-28T14:58:14.000Z</time>
      </trkpt>
      <trkpt lat="46.21088" lon="-1.45916">
        <ele>50.02021</ele>
        <time>2023-05-28T14:58:15.000Z</time>
      </trkpt>
      <trkpt lat="46.21089" lon="-1.45924">
        <ele>49.99495</ele>
        <time>2023-05-28T14:58:16.000Z</time>
      </trkpt>
      <trkpt lat="46.2109" lon="-1.45931">
        <ele>49.96622</ele>
        <time>2023-05-28T14:58:17.000Z</time>
      </trkpt>
      <trkpt lat="46.21092" lon="-1.45939">
        <ele>49.93784</ele>
        <time>2023-05-28T14:58:18.000Z</time>
      </trkpt>
      <trkpt lat="46.21093" lon="-1.45944">
        <ele>49.92455</ele>
        <time>2023-05-28T14:58:19.000Z</time>
      </trkpt>
      <trkpt lat="46.21094" lon="-1.45951">
        <ele>49.93265</ele>
        <time>2023-05-28T14:58:20.000Z</time>
      </trkpt>
      <trkpt lat="46.21095" lon="-1.45956">
        <ele>49.94815</ele>
        <time>2023-05-28T14:58:21.000Z</time>
      </trkpt>
      <trkpt lat="46.21097" lon="-1.4596">
        <ele>49.97293</ele>
        <time>2023-05-28T14:58:22.000Z</time>
      </trkpt>
      <trkpt lat="46.21099" lon="-1.45964">
        <ele>50.00121</ele>
        <time>2023-05-28T14:58:23.000Z</time>
      </trkpt>
      <trkpt lat="46.211" lon="-1.45967">
        <ele>50.03711</ele>
        <time>2023-05-28T14:58:24.000Z</time>
      </trkpt>
      <trkpt lat="46.21102" lon="-1.45971">
        <ele>50.07821</ele>
        <time>2023-05-28T14:58:25.000Z</time>
      </trkpt>
      <trkpt lat="46.21103" lon="-1.45974">
        <ele>50.16743</ele>
        <time>2023-05-28T14:58:26.000Z</time>
      </trkpt>
      <trkpt lat="46.21104" lon="-1.45976">
        <ele>50.24169</ele>
        <time>2023-05-28T15:00:04.000Z</time>
      </trkpt>
      <trkpt lat="46.21105" lon="-1.45981">
        <ele>50.30358</ele>
        <time>2023-05-28T15:00:06.000Z</time>
      </trkpt>
      <trkpt lat="46.21106" lon="-1.45983">
        <ele>50.37359</ele>
        <time>2023-05-28T15:00:07.000Z</time>
      </trkpt>
      <trkpt lat="46.21106" lon="-1.45986">
        <ele>50.4367</ele>
        <time>2023-05-28T15:00:08.000Z</time>
      </trkpt>
      <trkpt lat="46.21107" lon="-1.45989">
        <ele>50.5146</ele>
        <time>2023-05-28T15:00:09.000Z</time>
      </trkpt>
      <trkpt lat="46.21107" lon="-1.45992">
        <ele>50.58398</ele>
        <time>2023-05-28T15:00:10.000Z</time>
      </trkpt>
      <trkpt lat="46.21107" lon="-1.45995">
        <ele>50.63116</ele>
        <time>2023-05-28T15:00:11.000Z</time>
      </trkpt>
      <trkpt lat="46.21108" lon="-1.45998">
        <ele>50.68002</ele>
        <time>2023-05-28T15:00:12.000Z</time>
      </trkpt>
      <trkpt lat="46.21109" lon="-1.46">
        <ele>50.7489</ele>
        <time>2023-05-28T15:00:13.000Z</time>
      </trkpt>
      <trkpt lat="46.2111" lon="-1.46004">
        <ele>50.80474</ele>
        <time>2023-05-28T15:00:15.000Z</time>
      </trkpt>
      <trkpt lat="46.21112" lon="-1.46006">
        <ele>50.86761</ele>
        <time>2023-05-28T15:00:20.000Z</time>
      </trkpt>
      <trkpt lat="46.21114" lon="-1.46009">
        <ele>50.93511</ele>
        <time>2023-05-28T15:00:22.000Z</time>
      </trkpt>
      <trkpt lat="46.21115" lon="-1.46011">
        <ele>50.98827</ele>
        <time>2023-05-28T15:00:23.000Z</time>
      </trkpt>
      <trkpt lat="46.21117" lon="-1.46013">
        <ele>51.02747</ele>
        <time>2023-05-28T15:00:24.000Z</time>
      </trkpt>
      <trkpt lat="46.21119" lon="-1.46015">
        <ele>51.05202</ele>
        <time>2023-05-28T15:00:25.000Z</time>
      </trkpt>
      <trkpt lat="46.21122" lon="-1.46016">
        <ele>51.06376</ele>
        <time>2023-05-28T15:00:26.000Z</time>
      </trkpt>
      <trkpt lat="46.21124" lon="-1.46016">
        <ele>51.04315</ele>
        <time>2023-05-28T15:00:27.000Z</time>
      </trkpt>
      <trkpt lat="46.21127" lon="-1.46017">
        <ele>51.04557</ele>
        <time>2023-05-28T15:00:28.000Z</time>
      </trkpt>
      <trkpt lat="46.21128" lon="-1.46019">
        <ele>51.06379</ele>
        <time>2023-05-28T15:00:29.000Z</time>
      </trkpt>
      <trkpt lat="46.21128" lon="-1.46024">
        <ele>51.04685</ele>
        <time>2023-05-28T15:00:31.000Z</time>
      </trkpt>
      <trkpt lat="46.21126" lon="-1.46027">
        <ele>51.02567</ele>
        <time>2023-05-28T15:00:32.000Z</time>
      </trkpt>
      <trkpt lat="46.21124" lon="-1.46031">
        <ele>51.01675</ele>
        <time>2023-05-28T15:00:33.000Z</time>
      </trkpt>
      <trkpt lat="46.21124" lon="-1.46034">
        <ele>51.00253</ele>
        <time>2023-05-28T15:00:34.000Z</time>
      </trkpt>
      <trkpt lat="46.21123" lon="-1.46038">
        <ele>50.99128</ele>
        <time>2023-05-28T15:00:35.000Z</time>
      </trkpt>
      <trkpt lat="46.21123" lon="-1.46042">
        <ele>50.99281</ele>
        <time>2023-05-28T15:00:36.000Z</time>
      </trkpt>
      <trkpt lat="46.21124" lon="-1.46046">
        <ele>50.97953</ele>
        <time>2023-05-28T15:00:37.000Z</time>
      </trkpt>
      <trkpt lat="46.21124" lon="-1.46051">
        <ele>50.97163</ele>
        <time>2023-05-28T15:00:38.000Z</time>
      </trkpt>
      <trkpt lat="46.21124" lon="-1.46055">
        <ele>51.01691</ele>
        <time>2023-05-28T15:00:39.000Z</time>
      </trkpt>
      <trkpt lat="46.21124" lon="-1.46059">
        <ele>51.05389</ele>
        <time>2023-05-28T15:00:40.000Z</time>
      </trkpt>
      <trkpt lat="46.21124" lon="-1.46064">
        <ele>51.11736</ele>
        <time>2023-05-28T15:00:41.000Z</time>
      </trkpt>
      <trkpt lat="46.21124" lon="-1.46068">
        <ele>51.1789</ele>
        <time>2023-05-28T15:00:42.000Z</time>
      </trkpt>
      <trkpt lat="46.21123" lon="-1.46073">
        <ele>51.22506</ele>
        <time>2023-05-28T15:00:43.000Z</time>
      </trkpt>
      <trkpt lat="46.21123" lon="-1.46078">
        <ele>51.24702</ele>
        <time>2023-05-28T15:00:44.000Z</time>
      </trkpt>
      <trkpt lat="46.21123" lon="-1.46083">
        <ele>51.24032</ele>
        <time>2023-05-28T15:00:45.000Z</time>
      </trkpt>
      <trkpt lat="46.21123" lon="-1.46088">
        <ele>51.23723</ele>
        <time>2023-05-28T15:00:46.000Z</time>
      </trkpt>
      <trkpt lat="46.21123" lon="-1.46093">
        <ele>51.28762</ele>
        <time>2023-05-28T15:00:47.000Z</time>
      </trkpt>
      <trkpt lat="46.21123" lon="-1.46098">
        <ele>51.34</ele>
        <time>2023-05-28T15:00:48.000Z</time>
      </trkpt>
      <trkpt lat="46.21124" lon="-1.46103">
        <ele>51.35702</ele>
        <time>2023-05-28T15:00:49.000Z</time>
      </trkpt>
      <trkpt lat="46.21124" lon="-1.46108">
        <ele>51.35321</ele>
        <time>2023-05-28T15:00:50.000Z</time>
      </trkpt>
      <trkpt lat="46.21125" lon="-1.46114">
        <ele>51.33352</ele>
        <time>2023-05-28T15:00:51.000Z</time>
      </trkpt>
      <trkpt lat="46.21125" lon="-1.4612">
        <ele>51.31968</ele>
        <time>2023-05-28T15:00:52.000Z</time>
      </trkpt>
      <trkpt lat="46.21125" lon="-1.46126">
        <ele>51.29403</ele>
        <time>2023-05-28T15:00:53.000Z</time>
      </trkpt>
      <trkpt lat="46.21125" lon="-1.46132">
        <ele>51.27389</ele>
        <time>2023-05-28T15:00:54.000Z</time>
      </trkpt>
      <trkpt lat="46.21125" lon="-1.46138">
        <ele>51.24703</ele>
        <time>2023-05-28T15:00:55.000Z</time>
      </trkpt>
      <trkpt lat="46.21125" lon="-1.46144">
        <ele>51.19715</ele>
        <time>2023-05-28T15:00:56.000Z</time>
      </trkpt>
      <trkpt lat="46.21125" lon="-1.4615">
        <ele>51.16137</ele>
        <time>2023-05-28T15:00:57.000Z</time>
      </trkpt>
      <trkpt lat="46.21125" lon="-1.46156">
        <ele>51.1203</ele>
        <time>2023-05-28T15:00:58.000Z</time>
      </trkpt>
      <trkpt lat="46.21124" lon="-1.46161">
        <ele>51.03704</ele>
        <time>2023-05-28T15:00:59.000Z</time>
      </trkpt>
      <trkpt lat="46.21123" lon="-1.46167">
        <ele>50.9695</ele>
        <time>2023-05-28T15:01:00.000Z</time>
      </trkpt>
      <trkpt lat="46.21122" lon="-1.46172">
        <ele>50.91375</ele>
        <time>2023-05-28T15:01:01.000Z</time>
      </trkpt>
      <trkpt lat="46.21121" lon="-1.46178">
        <ele>50.86247</ele>
        <time>2023-05-28T15:01:02.000Z</time>
      </trkpt>
      <trkpt lat="46.21119" lon="-1.46183">
        <ele>50.81441</ele>
        <time>2023-05-28T15:01:03.000Z</time>
      </trkpt>
      <trkpt lat="46.21118" lon="-1.46188">
        <ele>50.78389</ele>
        <time>2023-05-28T15:01:04.000Z</time>
      </trkpt>
      <trkpt lat="46.21117" lon="-1.46193">
        <ele>50.77579</ele>
        <time>2023-05-28T15:01:05.000Z</time>
      </trkpt>
      <trkpt lat="46.21115" lon="-1.46198">
        <ele>50.7814</ele>
        <time>2023-05-28T15:01:06.000Z</time>
      </trkpt>
      <trkpt lat="46.21114" lon="-1.46203">
        <ele>50.74285</ele>
        <time>2023-05-28T15:01:07.000Z</time>
      </trkpt>
      <trkpt lat="46.21112" lon="-1.46207">
        <ele>50.75907</ele>
        <time>2023-05-28T15:01:08.000Z</time>
      </trkpt>
      <trkpt lat="46.2111" lon="-1.46212">
        <ele>50.76682</ele>
        <time>2023-05-28T15:01:09.000Z</time>
      </trkpt>
      <trkpt lat="46.21109" lon="-1.46217">
        <ele>50.77521</ele>
        <time>2023-05-28T15:01:10.000Z</time>
      </trkpt>
      <trkpt lat="46.21108" lon="-1.46222">
        <ele>50.82704</ele>
        <time>2023-05-28T15:01:11.000Z</time>
      </trkpt>
      <trkpt lat="46.21107" lon="-1.46227">
        <ele>50.88026</ele>
        <time>2023-05-28T15:01:12.000Z</time>
      </trkpt>
      <trkpt lat="46.21106" lon="-1.46233">
        <ele>50.93884</ele>
        <time>2023-05-28T15:01:13.000Z</time>
      </trkpt>
      <trkpt lat="46.21106" lon="-1.46238">
        <ele>50.98213</ele>
        <time>2023-05-28T15:01:14.000Z</time>
      </trkpt>
      <trkpt lat="46.21105" lon="-1.46244">
        <ele>51.04453</ele>
        <time>2023-05-28T15:01:15.000Z</time>
      </trkpt>
      <trkpt lat="46.21104" lon="-1.4625">
        <ele>51.11124</ele>
        <time>2023-05-28T15:01:16.000Z</time>
      </trkpt>
      <trkpt lat="46.21103" lon="-1.46255">
        <ele>51.15495</ele>
        <time>2023-05-28T15:01:17.000Z</time>
      </trkpt>
      <trkpt lat="46.21101" lon="-1.46261">
        <ele>51.18347</ele>
        <time>2023-05-28T15:01:18.000Z</time>
      </trkpt>
      <trkpt lat="46.211" lon="-1.46267">
        <ele>51.19915</ele>
        <time>2023-05-28T15:01:19.000Z</time>
      </trkpt>
      <trkpt lat="46.21099" lon="-1.46273">
        <ele>51.21207</ele>
        <time>2023-05-28T15:01:20.000Z</time>
      </trkpt>
      <trkpt lat="46.21098" lon="-1.46279">
        <ele>51.20045</ele>
        <time>2023-05-28T15:01:21.000Z</time>
      </trkpt>
      <trkpt lat="46.21098" lon="-1.46285">
        <ele>51.19312</ele>
        <time>2023-05-28T15:01:22.000Z</time>
      </trkpt>
      <trkpt lat="46.21097" lon="-1.4629">
        <ele>51.21028</ele>
        <time>2023-05-28T15:01:23.000Z</time>
      </trkpt>
      <trkpt lat="46.21096" lon="-1.46296">
        <ele>51.23735</ele>
        <time>2023-05-28T15:01:24.000Z</time>
      </trkpt>
      <trkpt lat="46.21094" lon="-1.46301">
        <ele>51.25542</ele>
        <time>2023-05-28T15:01:25.000Z</time>
      </trkpt>
      <trkpt lat="46.21093" lon="-1.46306">
        <ele>51.24751</ele>
        <time>2023-05-28T15:01:26.000Z</time>
      </trkpt>
      <trkpt lat="46.21092" lon="-1.46312">
        <ele>51.24592</ele>
        <time>2023-05-28T15:01:27.000Z</time>
      </trkpt>
      <trkpt lat="46.2109" lon="-1.46317">
        <ele>51.20294</ele>
        <time>2023-05-28T15:01:28.000Z</time>
      </trkpt>
      <trkpt lat="46.21089" lon="-1.46322">
        <ele>51.19592</ele>
        <time>2023-05-28T15:01:29.000Z</time>
      </trkpt>
      <trkpt lat="46.21088" lon="-1.46328">
        <ele>51.17852</ele>
        <time>2023-05-28T15:01:30.000Z</time>
      </trkpt>
      <trkpt lat="46.21087" lon="-1.46333">
        <ele>51.15782</ele>
        <time>2023-05-28T15:01:31.000Z</time>
      </trkpt>
      <trkpt lat="46.21086" lon="-1.46338">
        <ele>51.13046</ele>
        <time>2023-05-28T15:01:32.000Z</time>
      </trkpt>
      <trkpt lat="46.21085" lon="-1.46343">
        <ele>51.09638</ele>
        <time>2023-05-28T15:01:33.000Z</time>
      </trkpt>
      <trkpt lat="46.21083" lon="-1.46349">
        <ele>51.07509</ele>
        <time>2023-05-28T15:01:34.000Z</time>
      </trkpt>
      <trkpt lat="46.21082" lon="-1.46355">
        <ele>51.05118</ele>
        <time>2023-05-28T15:01:35.000Z</time>
      </trkpt>
      <trkpt lat="46.21081" lon="-1.46361">
        <ele>51.03812</ele>
        <time>2023-05-28T15:01:36.000Z</time>
      </trkpt>
      <trkpt lat="46.21081" lon="-1.46367">
        <ele>51.04025</ele>
        <time>2023-05-28T15:01:37.000Z</time>
      </trkpt>
      <trkpt lat="46.2108" lon="-1.46373">
        <ele>51.0675</ele>
        <time>2023-05-28T15:01:38.000Z</time>
      </trkpt>
      <trkpt lat="46.21079" lon="-1.4638">
        <ele>51.09679</ele>
        <time>2023-05-28T15:01:39.000Z</time>
      </trkpt>
      <trkpt lat="46.21079" lon="-1.46387">
        <ele>51.10438</ele>
        <time>2023-05-28T15:01:40.000Z</time>
      </trkpt>
      <trkpt lat="46.21079" lon="-1.46394">
        <ele>51.12367</ele>
        <time>2023-05-28T15:01:41.000Z</time>
      </trkpt>
      <trkpt lat="46.21079" lon="-1.46402">
        <ele>51.10171</ele>
        <time>2023-05-28T15:01:42.000Z</time>
      </trkpt>
      <trkpt lat="46.21079" lon="-1.4641">
        <ele>51.04929</ele>
        <time>2023-05-28T15:01:43.000Z</time>
      </trkpt>
      <trkpt lat="46.21077" lon="-1.46416">
        <ele>50.96259</ele>
        <time>2023-05-28T15:01:44.000Z</time>
      </trkpt>
      <trkpt lat="46.21076" lon="-1.46423">
        <ele>50.86465</ele>
        <time>2023-05-28T15:01:45.000Z</time>
      </trkpt>
      <trkpt lat="46.21075" lon="-1.46429">
        <ele>50.8111</ele>
        <time>2023-05-28T15:01:46.000Z</time>
      </trkpt>
      <trkpt lat="46.21074" lon="-1.46436">
        <ele>50.75303</ele>
        <time>2023-05-28T15:01:47.000Z</time>
      </trkpt>
      <trkpt lat="46.21073" lon="-1.46442">
        <ele>50.68831</ele>
        <time>2023-05-28T15:01:48.000Z</time>
      </trkpt>
      <trkpt lat="46.21072" lon="-1.46449">
        <ele>50.63754</ele>
        <time>2023-05-28T15:01:49.000Z</time>
      </trkpt>
      <trkpt lat="46.21071" lon="-1.46456">
        <ele>50.60295</ele>
        <time>2023-05-28T15:01:50.000Z</time>
      </trkpt>
      <trkpt lat="46.21072" lon="-1.46462">
        <ele>50.60013</ele>
        <time>2023-05-28T15:01:51.000Z</time>
      </trkpt>
      <trkpt lat="46.21072" lon="-1.46469">
        <ele>50.61883</ele>
        <time>2023-05-28T15:01:52.000Z</time>
      </trkpt>
      <trkpt lat="46.21072" lon="-1.46476">
        <ele>50.61684</ele>
        <time>2023-05-28T15:01:53.000Z</time>
      </trkpt>
      <trkpt lat="46.21072" lon="-1.46483">
        <ele>50.58897</ele>
        <time>2023-05-28T15:01:54.000Z</time>
      </trkpt>
      <trkpt lat="46.21071" lon="-1.46489">
        <ele>50.56564</ele>
        <time>2023-05-28T15:01:55.000Z</time>
      </trkpt>
      <trkpt lat="46.2107" lon="-1.46497">
        <ele>50.53188</ele>
        <time>2023-05-28T15:01:56.000Z</time>
      </trkpt>
      <trkpt lat="46.21069" lon="-1.46504">
        <ele>50.46753</ele>
        <time>2023-05-28T15:01:57.000Z</time>
      </trkpt>
      <trkpt lat="46.21069" lon="-1.46511">
        <ele>50.40201</ele>
        <time>2023-05-28T15:01:58.000Z</time>
      </trkpt>
      <trkpt lat="46.2107" lon="-1.46518">
        <ele>50.33063</ele>
        <time>2023-05-28T15:01:59.000Z</time>
      </trkpt>
      <trkpt lat="46.2107" lon="-1.46526">
        <ele>50.27691</ele>
        <time>2023-05-28T15:02:00.000Z</time>
      </trkpt>
      <trkpt lat="46.21069" lon="-1.46533">
        <ele>50.21706</ele>
        <time>2023-05-28T15:02:01.000Z</time>
      </trkpt>
      <trkpt lat="46.21068" lon="-1.46538">
        <ele>50.20271</ele>
        <time>2023-05-28T15:02:02.000Z</time>
      </trkpt>
      <trkpt lat="46.21066" lon="-1.46546">
        <ele>50.18839</ele>
        <time>2023-05-28T15:02:03.000Z</time>
      </trkpt>
      <trkpt lat="46.21066" lon="-1.46553">
        <ele>50.1918</ele>
        <time>2023-05-28T15:02:04.000Z</time>
      </trkpt>
      <trkpt lat="46.21065" lon="-1.4656">
        <ele>50.22396</ele>
        <time>2023-05-28T15:02:05.000Z</time>
      </trkpt>
      <trkpt lat="46.21064" lon="-1.46567">
        <ele>50.19867</ele>
        <time>2023-05-28T15:02:06.000Z</time>
      </trkpt>
      <trkpt lat="46.21064" lon="-1.46573">
        <ele>50.16228</ele>
        <time>2023-05-28T15:02:07.000Z</time>
      </trkpt>
      <trkpt lat="46.21065" lon="-1.46579">
        <ele>50.13171</ele>
        <time>2023-05-28T15:02:08.000Z</time>
      </trkpt>
      <trkpt lat="46.21066" lon="-1.46585">
        <ele>50.08175</ele>
        <time>2023-05-28T15:02:09.000Z</time>
      </trkpt>
      <trkpt lat="46.21067" lon="-1.46592">
        <ele>50.05652</ele>
        <time>2023-05-28T15:02:10.000Z</time>
      </trkpt>
      <trkpt lat="46.21067" lon="-1.46598">
        <ele>49.98633</ele>
        <time>2023-05-28T15:02:11.000Z</time>
      </trkpt>
      <trkpt lat="46.21066" lon="-1.46605">
        <ele>49.86908</ele>
        <time>2023-05-28T15:02:12.000Z</time>
      </trkpt>
      <trkpt lat="46.21065" lon="-1.46611">
        <ele>49.80164</ele>
        <time>2023-05-28T15:02:13.000Z</time>
      </trkpt>
      <trkpt lat="46.21064" lon="-1.46617">
        <ele>49.74974</ele>
        <time>2023-05-28T15:02:14.000Z</time>
      </trkpt>
      <trkpt lat="46.21063" lon="-1.46624">
        <ele>49.69356</ele>
        <time>2023-05-28T15:02:15.000Z</time>
      </trkpt>
      <trkpt lat="46.21062" lon="-1.4663">
        <ele>49.63298</ele>
        <time>2023-05-28T15:02:16.000Z</time>
      </trkpt>
      <trkpt lat="46.21061" lon="-1.46637">
        <ele>49.60126</ele>
        <time>2023-05-28T15:02:17.000Z</time>
      </trkpt>
      <trkpt lat="46.21062" lon="-1.46643">
        <ele>49.54781</ele>
        <time>2023-05-28T15:02:18.000Z</time>
      </trkpt>
      <trkpt lat="46.21062" lon="-1.46649">
        <ele>49.49435</ele>
        <time>2023-05-28T15:02:19.000Z</time>
      </trkpt>
      <trkpt lat="46.2106" lon="-1.46656">
        <ele>49.43438</ele>
        <time>2023-05-28T15:02:20.000Z</time>
      </trkpt>
      <trkpt lat="46.21058" lon="-1.46662">
        <ele>49.40116</ele>
        <time>2023-05-28T15:02:21.000Z</time>
      </trkpt>
      <trkpt lat="46.21057" lon="-1.46669">
        <ele>49.34499</ele>
        <time>2023-05-28T15:02:22.000Z</time>
      </trkpt>
      <trkpt lat="46.21055" lon="-1.46675">
        <ele>49.28651</ele>
        <time>2023-05-28T15:02:23.000Z</time>
      </trkpt>
      <trkpt lat="46.21054" lon="-1.46681">
        <ele>49.24385</ele>
        <time>2023-05-28T15:02:24.000Z</time>
      </trkpt>
      <trkpt lat="46.21052" lon="-1.46687">
        <ele>49.22825</ele>
        <time>2023-05-28T15:02:25.000Z</time>
      </trkpt>
      <trkpt lat="46.2105" lon="-1.46693">
        <ele>49.2397</ele>
        <time>2023-05-28T15:02:26.000Z</time>
      </trkpt>
      <trkpt lat="46.21049" lon="-1.467">
        <ele>49.26241</ele>
        <time>2023-05-28T15:02:27.000Z</time>
      </trkpt>
      <trkpt lat="46.21048" lon="-1.46706">
        <ele>49.28865</ele>
        <time>2023-05-28T15:02:28.000Z</time>
      </trkpt>
      <trkpt lat="46.21047" lon="-1.46712">
        <ele>49.31924</ele>
        <time>2023-05-28T15:02:29.000Z</time>
      </trkpt>
      <trkpt lat="46.21044" lon="-1.46718">
        <ele>49.2772</ele>
        <time>2023-05-28T15:02:30.000Z</time>
      </trkpt>
      <trkpt lat="46.21042" lon="-1.46722">
        <ele>49.23664</ele>
        <time>2023-05-28T15:02:31.000Z</time>
      </trkpt>
      <trkpt lat="46.21041" lon="-1.46727">
        <ele>49.22589</ele>
        <time>2023-05-28T15:02:32.000Z</time>
      </trkpt>
      <trkpt lat="46.2104" lon="-1.46732">
        <ele>49.20349</ele>
        <time>2023-05-28T15:02:33.000Z</time>
      </trkpt>
      <trkpt lat="46.21038" lon="-1.46737">
        <ele>49.1978</ele>
        <time>2023-05-28T15:02:34.000Z</time>
      </trkpt>
      <trkpt lat="46.21036" lon="-1.46741">
        <ele>49.20728</ele>
        <time>2023-05-28T15:02:35.000Z</time>
      </trkpt>
      <trkpt lat="46.21034" lon="-1.46746">
        <ele>49.22863</ele>
        <time>2023-05-28T15:02:36.000Z</time>
      </trkpt>
      <trkpt lat="46.21032" lon="-1.46751">
        <ele>49.23308</ele>
        <time>2023-05-28T15:02:37.000Z</time>
      </trkpt>
      <trkpt lat="46.21029" lon="-1.46756">
        <ele>49.26376</ele>
        <time>2023-05-28T15:02:38.000Z</time>
      </trkpt>
      <trkpt lat="46.21027" lon="-1.4676">
        <ele>49.28752</ele>
        <time>2023-05-28T15:02:39.000Z</time>
      </trkpt>
      <trkpt lat="46.21025" lon="-1.46765">
        <ele>49.31544</ele>
        <time>2023-05-28T15:02:40.000Z</time>
      </trkpt>
      <trkpt lat="46.21022" lon="-1.46769">
        <ele>49.31056</ele>
        <time>2023-05-28T15:02:41.000Z</time>
      </trkpt>
      <trkpt lat="46.21019" lon="-1.46774">
        <ele>49.30552</ele>
        <time>2023-05-28T15:02:42.000Z</time>
      </trkpt>
      <trkpt lat="46.21017" lon="-1.46778">
        <ele>49.30006</ele>
        <time>2023-05-28T15:02:43.000Z</time>
      </trkpt>
      <trkpt lat="46.21013" lon="-1.46782">
        <ele>49.28941</ele>
        <time>2023-05-28T15:02:44.000Z</time>
      </trkpt>
      <trkpt lat="46.21011" lon="-1.46787">
        <ele>49.24963</ele>
        <time>2023-05-28T15:02:45.000Z</time>
      </trkpt>
      <trkpt lat="46.21009" lon="-1.46792">
        <ele>49.21089</ele>
        <time>2023-05-28T15:02:46.000Z</time>
      </trkpt>
      <trkpt lat="46.21008" lon="-1.46798">
        <ele>49.17277</ele>
        <time>2023-05-28T15:02:47.000Z</time>
      </trkpt>
      <trkpt lat="46.21006" lon="-1.46805">
        <ele>49.14968</ele>
        <time>2023-05-28T15:02:48.000Z</time>
      </trkpt>
      <trkpt lat="46.21006" lon="-1.46811">
        <ele>49.10917</ele>
        <time>2023-05-28T15:02:49.000Z</time>
      </trkpt>
      <trkpt lat="46.21004" lon="-1.46817">
        <ele>49.11423</ele>
        <time>2023-05-28T15:02:50.000Z</time>
      </trkpt>
      <trkpt lat="46.21002" lon="-1.46824">
        <ele>49.13044</ele>
        <time>2023-05-28T15:02:51.000Z</time>
      </trkpt>
      <trkpt lat="46.21" lon="-1.4683">
        <ele>49.1434</ele>
        <time>2023-05-28T15:02:52.000Z</time>
      </trkpt>
      <trkpt lat="46.20997" lon="-1.46834">
        <ele>49.16125</ele>
        <time>2023-05-28T15:02:53.000Z</time>
      </trkpt>
      <trkpt lat="46.20994" lon="-1.46839">
        <ele>49.17933</ele>
        <time>2023-05-28T15:02:54.000Z</time>
      </trkpt>
      <trkpt lat="46.2099" lon="-1.46843">
        <ele>49.18145</ele>
        <time>2023-05-28T15:02:55.000Z</time>
      </trkpt>
      <trkpt lat="46.20987" lon="-1.46847">
        <ele>49.18963</ele>
        <time>2023-05-28T15:02:56.000Z</time>
      </trkpt>
      <trkpt lat="46.20983" lon="-1.46852">
        <ele>49.22984</ele>
        <time>2023-05-28T15:02:57.000Z</time>
      </trkpt>
      <trkpt lat="46.20979" lon="-1.46855">
        <ele>49.2705</ele>
        <time>2023-05-28T15:02:58.000Z</time>
      </trkpt>
      <trkpt lat="46.20974" lon="-1.46859">
        <ele>49.32224</ele>
        <time>2023-05-28T15:02:59.000Z</time>
      </trkpt>
      <trkpt lat="46.2097" lon="-1.46863">
        <ele>49.34368</ele>
        <time>2023-05-28T15:03:00.000Z</time>
      </trkpt>
      <trkpt lat="46.20966" lon="-1.46866">
        <ele>49.37315</ele>
        <time>2023-05-28T15:03:01.000Z</time>
      </trkpt>
      <trkpt lat="46.20962" lon="-1.46869">
        <ele>49.41168</ele>
        <time>2023-05-28T15:03:02.000Z</time>
      </trkpt>
      <trkpt lat="46.20958" lon="-1.46872">
        <ele>49.45242</ele>
        <time>2023-05-28T15:03:03.000Z</time>
      </trkpt>
      <trkpt lat="46.20954" lon="-1.46875">
        <ele>49.49301</ele>
        <time>2023-05-28T15:03:04.000Z</time>
      </trkpt>
      <trkpt lat="46.2095" lon="-1.46878">
        <ele>49.52772</ele>
        <time>2023-05-28T15:03:05.000Z</time>
      </trkpt>
      <trkpt lat="46.20946" lon="-1.46882">
        <ele>49.56188</ele>
        <time>2023-05-28T15:03:06.000Z</time>
      </trkpt>
      <trkpt lat="46.20942" lon="-1.46885">
        <ele>49.60803</ele>
        <time>2023-05-28T15:03:07.000Z</time>
      </trkpt>
      <trkpt lat="46.20938" lon="-1.4689">
        <ele>49.6375</ele>
        <time>2023-05-28T15:03:08.000Z</time>
      </trkpt>
      <trkpt lat="46.20934" lon="-1.46892">
        <ele>49.68946</ele>
        <time>2023-05-28T15:03:09.000Z</time>
      </trkpt>
      <trkpt lat="46.2093" lon="-1.46895">
        <ele>49.74583</ele>
        <time>2023-05-28T15:03:10.000Z</time>
      </trkpt>
      <trkpt lat="46.20926" lon="-1.46897">
        <ele>49.78164</ele>
        <time>2023-05-28T15:03:11.000Z</time>
      </trkpt>
      <trkpt lat="46.20922" lon="-1.469">
        <ele>49.81304</ele>
        <time>2023-05-28T15:03:12.000Z</time>
      </trkpt>
      <trkpt lat="46.20917" lon="-1.46903">
        <ele>49.82523</ele>
        <time>2023-05-28T15:03:13.000Z</time>
      </trkpt>
      <trkpt lat="46.20913" lon="-1.46906">
        <ele>49.83908</ele>
        <time>2023-05-28T15:03:14.000Z</time>
      </trkpt>
      <trkpt lat="46.20908" lon="-1.4691">
        <ele>49.87539</ele>
        <time>2023-05-28T15:03:15.000Z</time>
      </trkpt>
      <trkpt lat="46.20905" lon="-1.46913">
        <ele>49.88819</ele>
        <time>2023-05-28T15:03:16.000Z</time>
      </trkpt>
      <trkpt lat="46.209" lon="-1.46917">
        <ele>49.87027</ele>
        <time>2023-05-28T15:03:17.000Z</time>
      </trkpt>
      <trkpt lat="46.20895" lon="-1.4692">
        <ele>49.86024</ele>
        <time>2023-05-28T15:03:18.000Z</time>
      </trkpt>
      <trkpt lat="46.20891" lon="-1.46924">
        <ele>49.83686</ele>
        <time>2023-05-28T15:03:19.000Z</time>
      </trkpt>
      <trkpt lat="46.20886" lon="-1.46927">
        <ele>49.82848</ele>
        <time>2023-05-28T15:03:20.000Z</time>
      </trkpt>
      <trkpt lat="46.20882" lon="-1.4693">
        <ele>49.84034</ele>
        <time>2023-05-28T15:03:21.000Z</time>
      </trkpt>
      <trkpt lat="46.20878" lon="-1.46933">
        <ele>49.85316</ele>
        <time>2023-05-28T15:03:22.000Z</time>
      </trkpt>
      <trkpt lat="46.20874" lon="-1.46937">
        <ele>49.87817</ele>
        <time>2023-05-28T15:03:23.000Z</time>
      </trkpt>
      <trkpt lat="46.2087" lon="-1.4694">
        <ele>49.91057</ele>
        <time>2023-05-28T15:03:24.000Z</time>
      </trkpt>
      <trkpt lat="46.20866" lon="-1.46943">
        <ele>49.94289</ele>
        <time>2023-05-28T15:03:25.000Z</time>
      </trkpt>
      <trkpt lat="46.20862" lon="-1.46946">
        <ele>49.95942</ele>
        <time>2023-05-28T15:03:26.000Z</time>
      </trkpt>
      <trkpt lat="46.20857" lon="-1.4695">
        <ele>49.97812</ele>
        <time>2023-05-28T15:03:27.000Z</time>
      </trkpt>
      <trkpt lat="46.20853" lon="-1.46954">
        <ele>49.993</ele>
        <time>2023-05-28T15:03:28.000Z</time>
      </trkpt>
      <trkpt lat="46.20848" lon="-1.46957">
        <ele>49.99189</ele>
        <time>2023-05-28T15:03:29.000Z</time>
      </trkpt>
      <trkpt lat="46.20845" lon="-1.46962">
        <ele>49.95948</ele>
        <time>2023-05-28T15:03:30.000Z</time>
      </trkpt>
      <trkpt lat="46.20841" lon="-1.46965">
        <ele>49.95097</ele>
        <time>2023-05-28T15:03:31.000Z</time>
      </trkpt>
      <trkpt lat="46.20837" lon="-1.46968">
        <ele>49.96997</ele>
        <time>2023-05-28T15:03:32.000Z</time>
      </trkpt>
      <trkpt lat="46.20833" lon="-1.46971">
        <ele>49.98751</ele>
        <time>2023-05-28T15:03:33.000Z</time>
      </trkpt>
      <trkpt lat="46.20829" lon="-1.46974">
        <ele>49.9998</ele>
        <time>2023-05-28T15:03:34.000Z</time>
      </trkpt>
      <trkpt lat="46.20824" lon="-1.46978">
        <ele>49.97834</ele>
        <time>2023-05-28T15:03:35.000Z</time>
      </trkpt>
      <trkpt lat="46.2082" lon="-1.4698">
        <ele>49.98228</ele>
        <time>2023-05-28T15:03:36.000Z</time>
      </trkpt>
      <trkpt lat="46.20816" lon="-1.46983">
        <ele>49.98993</ele>
        <time>2023-05-28T15:03:37.000Z</time>
      </trkpt>
      <trkpt lat="46.20813" lon="-1.46986">
        <ele>50.00942</ele>
        <time>2023-05-28T15:03:38.000Z</time>
      </trkpt>
      <trkpt lat="46.20808" lon="-1.46989">
        <ele>50.03891</ele>
        <time>2023-05-28T15:03:39.000Z</time>
      </trkpt>
      <trkpt lat="46.20804" lon="-1.46993">
        <ele>50.065</ele>
        <time>2023-05-28T15:03:40.000Z</time>
      </trkpt>
      <trkpt lat="46.208" lon="-1.46997">
        <ele>50.06481</ele>
        <time>2023-05-28T15:03:41.000Z</time>
      </trkpt>
      <trkpt lat="46.20795" lon="-1.47001">
        <ele>50.07235</ele>
        <time>2023-05-28T15:03:42.000Z</time>
      </trkpt>
      <trkpt lat="46.20791" lon="-1.47004">
        <ele>50.05882</ele>
        <time>2023-05-28T15:03:43.000Z</time>
      </trkpt>
      <trkpt lat="46.20786" lon="-1.47008">
        <ele>50.03916</ele>
        <time>2023-05-28T15:03:44.000Z</time>
      </trkpt>
      <trkpt lat="46.20781" lon="-1.47011">
        <ele>50.05282</ele>
        <time>2023-05-28T15:03:45.000Z</time>
      </trkpt>
      <trkpt lat="46.20776" lon="-1.47013">
        <ele>50.06658</ele>
        <time>2023-05-28T15:03:46.000Z</time>
      </trkpt>
      <trkpt lat="46.20771" lon="-1.47017">
        <ele>50.0615</ele>
        <time>2023-05-28T15:03:47.000Z</time>
      </trkpt>
      <trkpt lat="46.20767" lon="-1.47021">
        <ele>50.06181</ele>
        <time>2023-05-28T15:03:48.000Z</time>
      </trkpt>
      <trkpt lat="46.20763" lon="-1.47025">
        <ele>50.06205</ele>
        <time>2023-05-28T15:03:49.000Z</time>
      </trkpt>
      <trkpt lat="46.20758" lon="-1.47029">
        <ele>50.08835</ele>
        <time>2023-05-28T15:03:50.000Z</time>
      </trkpt>
      <trkpt lat="46.20754" lon="-1.47032">
        <ele>50.11966</ele>
        <time>2023-05-28T15:03:51.000Z</time>
      </trkpt>
      <trkpt lat="46.20749" lon="-1.47035">
        <ele>50.12968</ele>
        <time>2023-05-28T15:03:52.000Z</time>
      </trkpt>
      <trkpt lat="46.20745" lon="-1.47039">
        <ele>50.16568</ele>
        <time>2023-05-28T15:03:53.000Z</time>
      </trkpt>
      <trkpt lat="46.20741" lon="-1.47043">
        <ele>50.21037</ele>
        <time>2023-05-28T15:03:54.000Z</time>
      </trkpt>
      <trkpt lat="46.20736" lon="-1.47046">
        <ele>50.25059</ele>
        <time>2023-05-28T15:03:55.000Z</time>
      </trkpt>
      <trkpt lat="46.20732" lon="-1.47048">
        <ele>50.27347</ele>
        <time>2023-05-28T15:03:56.000Z</time>
      </trkpt>
      <trkpt lat="46.20727" lon="-1.4705">
        <ele>50.29764</ele>
        <time>2023-05-28T15:03:57.000Z</time>
      </trkpt>
      <trkpt lat="46.20722" lon="-1.47052">
        <ele>50.32725</ele>
        <time>2023-05-28T15:03:58.000Z</time>
      </trkpt>
      <trkpt lat="46.20717" lon="-1.47053">
        <ele>50.37402</ele>
        <time>2023-05-28T15:03:59.000Z</time>
      </trkpt>
      <trkpt lat="46.20712" lon="-1.47053">
        <ele>50.45145</ele>
        <time>2023-05-28T15:04:00.000Z</time>
      </trkpt>
      <trkpt lat="46.20708" lon="-1.47054">
        <ele>50.53426</ele>
        <time>2023-05-28T15:04:01.000Z</time>
      </trkpt>
      <trkpt lat="46.20703" lon="-1.47055">
        <ele>50.60636</ele>
        <time>2023-05-28T15:04:02.000Z</time>
      </trkpt>
      <trkpt lat="46.20697" lon="-1.47055">
        <ele>50.70885</ele>
        <time>2023-05-28T15:04:03.000Z</time>
      </trkpt>
      <trkpt lat="46.20692" lon="-1.47057">
        <ele>50.80514</ele>
        <time>2023-05-28T15:04:04.000Z</time>
      </trkpt>
      <trkpt lat="46.20687" lon="-1.47058">
        <ele>50.86777</ele>
        <time>2023-05-28T15:04:05.000Z</time>
      </trkpt>
      <trkpt lat="46.20683" lon="-1.47059">
        <ele>50.94695</ele>
        <time>2023-05-28T15:04:06.000Z</time>
      </trkpt>
      <trkpt lat="46.20677" lon="-1.4706">
        <ele>51.00791</ele>
        <time>2023-05-28T15:04:07.000Z</time>
      </trkpt>
      <trkpt lat="46.20672" lon="-1.47062">
        <ele>51.04269</ele>
        <time>2023-05-28T15:04:08.000Z</time>
      </trkpt>
      <trkpt lat="46.20667" lon="-1.47063">
        <ele>51.08105</ele>
        <time>2023-05-28T15:04:09.000Z</time>
      </trkpt>
      <trkpt lat="46.20661" lon="-1.47066">
        <ele>51.08582</ele>
        <time>2023-05-28T15:04:10.000Z</time>
      </trkpt>
      <trkpt lat="46.20656" lon="-1.47069">
        <ele>51.07209</ele>
        <time>2023-05-28T15:04:11.000Z</time>
      </trkpt>
      <trkpt lat="46.20652" lon="-1.47071">
        <ele>51.03305</ele>
        <time>2023-05-28T15:04:12.000Z</time>
      </trkpt>
      <trkpt lat="46.20647" lon="-1.47074">
        <ele>51.02546</ele>
        <time>2023-05-28T15:04:13.000Z</time>
      </trkpt>
      <trkpt lat="46.20642" lon="-1.47077">
        <ele>50.98</ele>
        <time>2023-05-28T15:04:14.000Z</time>
      </trkpt>
      <trkpt lat="46.20638" lon="-1.4708">
        <ele>50.95699</ele>
        <time>2023-05-28T15:04:15.000Z</time>
      </trkpt>
      <trkpt lat="46.20634" lon="-1.47084">
        <ele>50.90713</ele>
        <time>2023-05-28T15:04:16.000Z</time>
      </trkpt>
      <trkpt lat="46.2063" lon="-1.47087">
        <ele>50.8573</ele>
        <time>2023-05-28T15:04:17.000Z</time>
      </trkpt>
      <trkpt lat="46.20626" lon="-1.47091">
        <ele>50.78973</ele>
        <time>2023-05-28T15:04:18.000Z</time>
      </trkpt>
      <trkpt lat="46.20622" lon="-1.47095">
        <ele>50.7045</ele>
        <time>2023-05-28T15:04:19.000Z</time>
      </trkpt>
      <trkpt lat="46.20617" lon="-1.47098">
        <ele>50.58905</ele>
        <time>2023-05-28T15:04:20.000Z</time>
      </trkpt>
      <trkpt lat="46.20615" lon="-1.47099">
        <ele>50.49076</ele>
        <time>2023-05-28T15:04:21.000Z</time>
      </trkpt>
      <trkpt lat="46.20611" lon="-1.47101">
        <ele>50.36855</ele>
        <time>2023-05-28T15:04:22.000Z</time>
      </trkpt>
      <trkpt lat="46.20608" lon="-1.47104">
        <ele>50.24238</ele>
        <time>2023-05-28T15:04:23.000Z</time>
      </trkpt>
      <trkpt lat="46.20607" lon="-1.47106">
        <ele>50.09058</ele>
        <time>2023-05-28T15:04:24.000Z</time>
      </trkpt>
      <trkpt lat="46.20603" lon="-1.47108">
        <ele>49.92744</ele>
        <time>2023-05-28T15:04:25.000Z</time>
      </trkpt>
      <trkpt lat="46.20599" lon="-1.47111">
        <ele>49.72799</ele>
        <time>2023-05-28T15:04:26.000Z</time>
      </trkpt>
      <trkpt lat="46.20595" lon="-1.47113">
        <ele>49.51213</ele>
        <time>2023-05-28T15:04:27.000Z</time>
      </trkpt>
      <trkpt lat="46.20592" lon="-1.47114">
        <ele>49.36102</ele>
        <time>2023-05-28T15:04:28.000Z</time>
      </trkpt>
      <trkpt lat="46.20588" lon="-1.47119">
        <ele>49.18574</ele>
        <time>2023-05-28T15:04:29.000Z</time>
      </trkpt>
      <trkpt lat="46.20584" lon="-1.4712">
        <ele>49.04835</ele>
        <time>2023-05-28T15:04:30.000Z</time>
      </trkpt>
      <trkpt lat="46.20581" lon="-1.47122">
        <ele>48.91422</ele>
        <time>2023-05-28T15:04:31.000Z</time>
      </trkpt>
      <trkpt lat="46.20579" lon="-1.47123">
        <ele>48.84427</ele>
        <time>2023-05-28T15:04:32.000Z</time>
      </trkpt>
      <trkpt lat="46.20576" lon="-1.47124">
        <ele>48.73322</ele>
        <time>2023-05-28T15:04:33.000Z</time>
      </trkpt>
      <trkpt lat="46.20574" lon="-1.47125">
        <ele>48.6325</ele>
        <time>2023-05-28T15:04:34.000Z</time>
      </trkpt>
      <trkpt lat="46.20572" lon="-1.47127">
        <ele>48.53122</ele>
        <time>2023-05-28T15:04:35.000Z</time>
      </trkpt>
      <trkpt lat="46.2057" lon="-1.47129">
        <ele>48.45306</ele>
        <time>2023-05-28T15:04:36.000Z</time>
      </trkpt>
      <trkpt lat="46.2057" lon="-1.47132">
        <ele>48.38152</ele>
        <time>2023-05-28T15:04:37.000Z</time>
      </trkpt>
      <trkpt lat="46.20569" lon="-1.47135">
        <ele>48.30339</ele>
        <time>2023-05-28T15:04:38.000Z</time>
      </trkpt>
      <trkpt lat="46.2057" lon="-1.4714">
        <ele>48.27996</ele>
        <time>2023-05-28T15:04:40.000Z</time>
      </trkpt>
      <trkpt lat="46.20572" lon="-1.47144">
        <ele>48.3238</ele>
        <time>2023-05-28T15:04:42.000Z</time>
      </trkpt>
      <trkpt lat="46.20573" lon="-1.47146">
        <ele>48.33102</ele>
        <time>2023-05-28T15:04:43.000Z</time>
      </trkpt>
      <trkpt lat="46.20574" lon="-1.4715">
        <ele>48.37552</ele>
        <time>2023-05-28T15:04:44.000Z</time>
      </trkpt>
      <trkpt lat="46.20575" lon="-1.47153">
        <ele>48.40765</ele>
        <time>2023-05-28T15:04:45.000Z</time>
      </trkpt>
      <trkpt lat="46.20575" lon="-1.47156">
        <ele>48.46624</ele>
        <time>2023-05-28T15:04:46.000Z</time>
      </trkpt>
      <trkpt lat="46.20576" lon="-1.47159">
        <ele>48.53767</ele>
        <time>2023-05-28T15:04:47.000Z</time>
      </trkpt>
      <trkpt lat="46.20577" lon="-1.47162">
        <ele>48.62859</ele>
        <time>2023-05-28T15:04:48.000Z</time>
      </trkpt>
      <trkpt lat="46.20578" lon="-1.47166">
        <ele>48.78243</ele>
        <time>2023-05-28T15:04:49.000Z</time>
      </trkpt>
      <trkpt lat="46.20578" lon="-1.47169">
        <ele>48.91486</ele>
        <time>2023-05-28T15:04:50.000Z</time>
      </trkpt>
      <trkpt lat="46.20579" lon="-1.47172">
        <ele>49.035</ele>
        <time>2023-05-28T15:04:51.000Z</time>
      </trkpt>
      <trkpt lat="46.2058" lon="-1.47175">
        <ele>49.13866</ele>
        <time>2023-05-28T15:04:52.000Z</time>
      </trkpt>
      <trkpt lat="46.20581" lon="-1.47179">
        <ele>49.25584</ele>
        <time>2023-05-28T15:04:53.000Z</time>
      </trkpt>
      <trkpt lat="46.20582" lon="-1.47184">
        <ele>49.3504</ele>
        <time>2023-05-28T15:04:54.000Z</time>
      </trkpt>
      <trkpt lat="46.20583" lon="-1.47188">
        <ele>49.4746</ele>
        <time>2023-05-28T15:04:55.000Z</time>
      </trkpt>
      <trkpt lat="46.20583" lon="-1.47192">
        <ele>49.61027</ele>
        <time>2023-05-28T15:04:56.000Z</time>
      </trkpt>
      <trkpt lat="46.20584" lon="-1.47197">
        <ele>49.77752</ele>
        <time>2023-05-28T15:04:57.000Z</time>
      </trkpt>
      <trkpt lat="46.20584" lon="-1.47202">
        <ele>49.97416</ele>
        <time>2023-05-28T15:04:58.000Z</time>
      </trkpt>
      <trkpt lat="46.20584" lon="-1.47206">
        <ele>50.15818</ele>
        <time>2023-05-28T15:04:59.000Z</time>
      </trkpt>
      <trkpt lat="46.20584" lon="-1.47211">
        <ele>50.34513</ele>
        <time>2023-05-28T15:05:00.000Z</time>
      </trkpt>
      <trkpt lat="46.20585" lon="-1.47215">
        <ele>50.46574</ele>
        <time>2023-05-28T15:05:01.000Z</time>
      </trkpt>
      <trkpt lat="46.20586" lon="-1.47218">
        <ele>50.50174</ele>
        <time>2023-05-28T15:05:02.000Z</time>
      </trkpt>
      <trkpt lat="46.20587" lon="-1.47222">
        <ele>50.57558</ele>
        <time>2023-05-28T15:05:03.000Z</time>
      </trkpt>
      <trkpt lat="46.20588" lon="-1.47226">
        <ele>50.65192</ele>
        <time>2023-05-28T15:05:04.000Z</time>
      </trkpt>
      <trkpt lat="46.20588" lon="-1.4723">
        <ele>50.70458</ele>
        <time>2023-05-28T15:05:05.000Z</time>
      </trkpt>
      <trkpt lat="46.20589" lon="-1.47235">
        <ele>50.75023</ele>
        <time>2023-05-28T15:05:06.000Z</time>
      </trkpt>
      <trkpt lat="46.20591" lon="-1.4724">
        <ele>50.77243</ele>
        <time>2023-05-28T15:05:07.000Z</time>
      </trkpt>
      <trkpt lat="46.20594" lon="-1.47244">
        <ele>50.82028</ele>
        <time>2023-05-28T15:05:08.000Z</time>
      </trkpt>
      <trkpt lat="46.20597" lon="-1.47246">
        <ele>50.85717</ele>
        <time>2023-05-28T15:05:09.000Z</time>
      </trkpt>
      <trkpt lat="46.20601" lon="-1.47248">
        <ele>50.8628</ele>
        <time>2023-05-28T15:05:10.000Z</time>
      </trkpt>
      <trkpt lat="46.20605" lon="-1.47249">
        <ele>50.91196</ele>
        <time>2023-05-28T15:05:11.000Z</time>
      </trkpt>
      <trkpt lat="46.20608" lon="-1.4725">
        <ele>50.95089</ele>
        <time>2023-05-28T15:05:12.000Z</time>
      </trkpt>
      <trkpt lat="46.20612" lon="-1.47251">
        <ele>51.00148</ele>
        <time>2023-05-28T15:05:13.000Z</time>
      </trkpt>
      <trkpt lat="46.20616" lon="-1.47252">
        <ele>50.98936</ele>
        <time>2023-05-28T15:05:14.000Z</time>
      </trkpt>
      <trkpt lat="46.2062" lon="-1.47253">
        <ele>50.94193</ele>
        <time>2023-05-28T15:05:15.000Z</time>
      </trkpt>
      <trkpt lat="46.20624" lon="-1.47256">
        <ele>50.89127</ele>
        <time>2023-05-28T15:05:16.000Z</time>
      </trkpt>
      <trkpt lat="46.20627" lon="-1.4726">
        <ele>50.76432</ele>
        <time>2023-05-28T15:05:17.000Z</time>
      </trkpt>
      <trkpt lat="46.2063" lon="-1.47264">
        <ele>50.62135</ele>
        <time>2023-05-28T15:05:18.000Z</time>
      </trkpt>
      <trkpt lat="46.20632" lon="-1.47268">
        <ele>50.5146</ele>
        <time>2023-05-28T15:05:19.000Z</time>
      </trkpt>
      <trkpt lat="46.20634" lon="-1.47271">
        <ele>50.40735</ele>
        <time>2023-05-28T15:05:20.000Z</time>
      </trkpt>
      <trkpt lat="46.20636" lon="-1.47275">
        <ele>50.29536</ele>
        <time>2023-05-28T15:05:21.000Z</time>
      </trkpt>
      <trkpt lat="46.20639" lon="-1.47279">
        <ele>50.24189</ele>
        <time>2023-05-28T15:05:22.000Z</time>
      </trkpt>
      <trkpt lat="46.20641" lon="-1.47283">
        <ele>50.17535</ele>
        <time>2023-05-28T15:05:23.000Z</time>
      </trkpt>
      <trkpt lat="46.20643" lon="-1.47287">
        <ele>50.14133</ele>
        <time>2023-05-28T15:05:24.000Z</time>
      </trkpt>
      <trkpt lat="46.20646" lon="-1.47291">
        <ele>50.09428</ele>
        <time>2023-05-28T15:05:25.000Z</time>
      </trkpt>
      <trkpt lat="46.20648" lon="-1.47294">
        <ele>50.08513</ele>
        <time>2023-05-28T15:05:26.000Z</time>
      </trkpt>
      <trkpt lat="46.2065" lon="-1.47297">
        <ele>50.08353</ele>
        <time>2023-05-28T15:05:27.000Z</time>
      </trkpt>
      <trkpt lat="46.20653" lon="-1.473">
        <ele>50.06209</ele>
        <time>2023-05-28T15:05:28.000Z</time>
      </trkpt>
      <trkpt lat="46.20655" lon="-1.47302">
        <ele>50.01367</ele>
        <time>2023-05-28T15:05:29.000Z</time>
      </trkpt>
      <trkpt lat="46.20657" lon="-1.47305">
        <ele>49.98672</ele>
        <time>2023-05-28T15:05:30.000Z</time>
      </trkpt>
      <trkpt lat="46.20659" lon="-1.47309">
        <ele>49.94625</ele>
        <time>2023-05-28T15:05:31.000Z</time>
      </trkpt>
      <trkpt lat="46.20661" lon="-1.47311">
        <ele>49.9244</ele>
        <time>2023-05-28T15:05:32.000Z</time>
      </trkpt>
      <trkpt lat="46.20663" lon="-1.47314">
        <ele>49.87308</ele>
        <time>2023-05-28T15:05:33.000Z</time>
      </trkpt>
      <trkpt lat="46.20665" lon="-1.47318">
        <ele>49.86192</ele>
        <time>2023-05-28T15:05:34.000Z</time>
      </trkpt>
      <trkpt lat="46.20669" lon="-1.47322">
        <ele>49.86599</ele>
        <time>2023-05-28T15:05:35.000Z</time>
      </trkpt>
      <trkpt lat="46.20672" lon="-1.47326">
        <ele>49.89124</ele>
        <time>2023-05-28T15:05:36.000Z</time>
      </trkpt>
      <trkpt lat="46.20676" lon="-1.4733">
        <ele>49.96865</ele>
        <time>2023-05-28T15:05:37.000Z</time>
      </trkpt>
      <trkpt lat="46.20679" lon="-1.47332">
        <ele>50.00838</ele>
        <time>2023-05-28T15:05:38.000Z</time>
      </trkpt>
      <trkpt lat="46.20683" lon="-1.47334">
        <ele>50.04245</ele>
        <time>2023-05-28T15:05:39.000Z</time>
      </trkpt>
      <trkpt lat="46.20687" lon="-1.47336">
        <ele>50.06666</ele>
        <time>2023-05-28T15:05:40.000Z</time>
      </trkpt>
      <trkpt lat="46.20691" lon="-1.47339">
        <ele>50.10395</ele>
        <time>2023-05-28T15:05:41.000Z</time>
      </trkpt>
      <trkpt lat="46.20695" lon="-1.47341">
        <ele>50.12763</ele>
        <time>2023-05-28T15:05:42.000Z</time>
      </trkpt>
      <trkpt lat="46.20698" lon="-1.47344">
        <ele>50.14488</ele>
        <time>2023-05-28T15:05:43.000Z</time>
      </trkpt>
      <trkpt lat="46.20701" lon="-1.47348">
        <ele>50.11403</ele>
        <time>2023-05-28T15:05:44.000Z</time>
      </trkpt>
      <trkpt lat="46.20704" lon="-1.47352">
        <ele>50.12208</ele>
        <time>2023-05-28T15:05:45.000Z</time>
      </trkpt>
      <trkpt lat="46.20707" lon="-1.47356">
        <ele>50.09559</ele>
        <time>2023-05-28T15:05:46.000Z</time>
      </trkpt>
      <trkpt lat="46.2071" lon="-1.47361">
        <ele>50.0927</ele>
        <time>2023-05-28T15:05:47.000Z</time>
      </trkpt>
      <trkpt lat="46.20713" lon="-1.47365">
        <ele>50.08373</ele>
        <time>2023-05-28T15:05:48.000Z</time>
      </trkpt>
      <trkpt lat="46.20716" lon="-1.47369">
        <ele>50.09509</ele>
        <time>2023-05-28T15:05:49.000Z</time>
      </trkpt>
      <trkpt lat="46.20719" lon="-1.47373">
        <ele>50.12207</ele>
        <time>2023-05-28T15:05:50.000Z</time>
      </trkpt>
      <trkpt lat="46.20722" lon="-1.47376">
        <ele>50.16422</ele>
        <time>2023-05-28T15:05:51.000Z</time>
      </trkpt>
      <trkpt lat="46.20726" lon="-1.47379">
        <ele>50.19025</ele>
        <time>2023-05-28T15:05:52.000Z</time>
      </trkpt>
      <trkpt lat="46.20728" lon="-1.47382">
        <ele>50.22348</ele>
        <time>2023-05-28T15:05:53.000Z</time>
      </trkpt>
      <trkpt lat="46.20729" lon="-1.47385">
        <ele>50.24413</ele>
        <time>2023-05-28T15:05:54.000Z</time>
      </trkpt>
      <trkpt lat="46.2073" lon="-1.4739">
        <ele>50.24168</ele>
        <time>2023-05-28T15:05:56.000Z</time>
      </trkpt>
      <trkpt lat="46.20729" lon="-1.47393">
        <ele>50.23281</ele>
        <time>2023-05-28T15:05:57.000Z</time>
      </trkpt>
      <trkpt lat="46.20728" lon="-1.47396">
        <ele>50.22577</ele>
        <time>2023-05-28T15:05:58.000Z</time>
      </trkpt>
      <trkpt lat="46.20726" lon="-1.47398">
        <ele>50.2271</ele>
        <time>2023-05-28T15:05:59.000Z</time>
      </trkpt>
      <trkpt lat="46.20723" lon="-1.47399">
        <ele>50.21162</ele>
        <time>2023-05-28T15:06:00.000Z</time>
      </trkpt>
      <trkpt lat="46.20721" lon="-1.474">
        <ele>50.19737</ele>
        <time>2023-05-28T15:06:01.000Z</time>
      </trkpt>
      <trkpt lat="46.20718" lon="-1.474">
        <ele>50.17936</ele>
        <time>2023-05-28T15:06:02.000Z</time>
      </trkpt>
      <trkpt lat="46.20715" lon="-1.47401">
        <ele>50.13894</ele>
        <time>2023-05-28T15:06:03.000Z</time>
      </trkpt>
      <trkpt lat="46.20712" lon="-1.47402">
        <ele>50.10465</ele>
        <time>2023-05-28T15:06:04.000Z</time>
      </trkpt>
      <trkpt lat="46.20709" lon="-1.47402">
        <ele>50.08223</ele>
        <time>2023-05-28T15:06:05.000Z</time>
      </trkpt>
      <trkpt lat="46.20705" lon="-1.47403">
        <ele>50.06347</ele>
        <time>2023-05-28T15:06:06.000Z</time>
      </trkpt>
      <trkpt lat="46.20702" lon="-1.47403">
        <ele>50.0615</ele>
        <time>2023-05-28T15:06:07.000Z</time>
      </trkpt>
      <trkpt lat="46.20698" lon="-1.47404">
        <ele>50.0624</ele>
        <time>2023-05-28T15:06:08.000Z</time>
      </trkpt>
      <trkpt lat="46.20694" lon="-1.47404">
        <ele>50.05835</ele>
        <time>2023-05-28T15:06:09.000Z</time>
      </trkpt>
      <trkpt lat="46.20691" lon="-1.47405">
        <ele>50.06096</ele>
        <time>2023-05-28T15:06:10.000Z</time>
      </trkpt>
      <trkpt lat="46.20687" lon="-1.47405">
        <ele>50.04906</ele>
        <time>2023-05-28T15:06:11.000Z</time>
      </trkpt>
      <trkpt lat="46.20683" lon="-1.47406">
        <ele>50.04676</ele>
        <time>2023-05-28T15:06:12.000Z</time>
      </trkpt>
      <trkpt lat="46.20679" lon="-1.47406">
        <ele>50.05227</ele>
        <time>2023-05-28T15:06:13.000Z</time>
      </trkpt>
      <trkpt lat="46.20675" lon="-1.47407">
        <ele>50.06688</ele>
        <time>2023-05-28T15:06:14.000Z</time>
      </trkpt>
      <trkpt lat="46.20671" lon="-1.47407">
        <ele>50.10132</ele>
        <time>2023-05-28T15:06:15.000Z</time>
      </trkpt>
      <trkpt lat="46.20666" lon="-1.47408">
        <ele>50.10698</ele>
        <time>2023-05-28T15:06:16.000Z</time>
      </trkpt>
      <trkpt lat="46.20662" lon="-1.47409">
        <ele>50.10351</ele>
        <time>2023-05-28T15:06:17.000Z</time>
      </trkpt>
      <trkpt lat="46.20658" lon="-1.4741">
        <ele>50.08444</ele>
        <time>2023-05-28T15:06:18.000Z</time>
      </trkpt>
      <trkpt lat="46.20653" lon="-1.47411">
        <ele>50.08053</ele>
        <time>2023-05-28T15:06:19.000Z</time>
      </trkpt>
      <trkpt lat="46.20649" lon="-1.47411">
        <ele>50.10271</ele>
        <time>2023-05-28T15:06:20.000Z</time>
      </trkpt>
      <trkpt lat="46.20644" lon="-1.47412">
        <ele>50.13227</ele>
        <time>2023-05-28T15:06:21.000Z</time>
      </trkpt>
      <trkpt lat="46.2064" lon="-1.47413">
        <ele>50.19275</ele>
        <time>2023-05-28T15:06:22.000Z</time>
      </trkpt>
      <trkpt lat="46.20635" lon="-1.47413">
        <ele>50.25162</ele>
        <time>2023-05-28T15:06:23.000Z</time>
      </trkpt>
      <trkpt lat="46.20631" lon="-1.47415">
        <ele>50.30588</ele>
        <time>2023-05-28T15:06:24.000Z</time>
      </trkpt>
      <trkpt lat="46.20626" lon="-1.47416">
        <ele>50.36102</ele>
        <time>2023-05-28T15:06:25.000Z</time>
      </trkpt>
      <trkpt lat="46.20622" lon="-1.47418">
        <ele>50.39359</ele>
        <time>2023-05-28T15:06:26.000Z</time>
      </trkpt>
      <trkpt lat="46.20618" lon="-1.47419">
        <ele>50.42551</ele>
        <time>2023-05-28T15:06:27.000Z</time>
      </trkpt>
      <trkpt lat="46.20613" lon="-1.47421">
        <ele>50.42114</ele>
        <time>2023-05-28T15:06:28.000Z</time>
      </trkpt>
      <trkpt lat="46.20609" lon="-1.47422">
        <ele>50.45649</ele>
        <time>2023-05-28T15:06:29.000Z</time>
      </trkpt>
      <trkpt lat="46.20605" lon="-1.47425">
        <ele>50.47467</ele>
        <time>2023-05-28T15:06:30.000Z</time>
      </trkpt>
      <trkpt lat="46.20601" lon="-1.47427">
        <ele>50.47626</ele>
        <time>2023-05-28T15:06:31.000Z</time>
      </trkpt>
      <trkpt lat="46.20596" lon="-1.4743">
        <ele>50.42513</ele>
        <time>2023-05-28T15:06:32.000Z</time>
      </trkpt>
      <trkpt lat="46.20593" lon="-1.47432">
        <ele>50.38802</ele>
        <time>2023-05-28T15:06:33.000Z</time>
      </trkpt>
      <trkpt lat="46.20588" lon="-1.47436">
        <ele>50.32951</ele>
        <time>2023-05-28T15:06:34.000Z</time>
      </trkpt>
      <trkpt lat="46.20583" lon="-1.47439">
        <ele>50.25807</ele>
        <time>2023-05-28T15:06:35.000Z</time>
      </trkpt>
      <trkpt lat="46.20579" lon="-1.47442">
        <ele>50.23746</ele>
        <time>2023-05-28T15:06:36.000Z</time>
      </trkpt>
      <trkpt lat="46.20575" lon="-1.47445">
        <ele>50.23923</ele>
        <time>2023-05-28T15:06:37.000Z</time>
      </trkpt>
      <trkpt lat="46.2057" lon="-1.47447">
        <ele>50.24969</ele>
        <time>2023-05-28T15:06:38.000Z</time>
      </trkpt>
      <trkpt lat="46.20566" lon="-1.47451">
        <ele>50.26579</ele>
        <time>2023-05-28T15:06:39.000Z</time>
      </trkpt>
      <trkpt lat="46.20562" lon="-1.47454">
        <ele>50.25488</ele>
        <time>2023-05-28T15:06:40.000Z</time>
      </trkpt>
      <trkpt lat="46.20557" lon="-1.47458">
        <ele>50.2388</ele>
        <time>2023-05-28T15:06:41.000Z</time>
      </trkpt>
      <trkpt lat="46.20553" lon="-1.47461">
        <ele>50.2045</ele>
        <time>2023-05-28T15:06:42.000Z</time>
      </trkpt>
      <trkpt lat="46.20549" lon="-1.47465">
        <ele>50.15692</ele>
        <time>2023-05-28T15:06:43.000Z</time>
      </trkpt>
      <trkpt lat="46.20545" lon="-1.47469">
        <ele>50.10672</ele>
        <time>2023-05-28T15:06:44.000Z</time>
      </trkpt>
      <trkpt lat="46.20542" lon="-1.47475">
        <ele>50.04334</ele>
        <time>2023-05-28T15:06:45.000Z</time>
      </trkpt>
      <trkpt lat="46.20539" lon="-1.47481">
        <ele>49.98642</ele>
        <time>2023-05-28T15:06:46.000Z</time>
      </trkpt>
      <trkpt lat="46.20537" lon="-1.47488">
        <ele>49.91429</ele>
        <time>2023-05-28T15:06:47.000Z</time>
      </trkpt>
      <trkpt lat="46.20534" lon="-1.47495">
        <ele>49.9304</ele>
        <time>2023-05-28T15:06:48.000Z</time>
      </trkpt>
      <trkpt lat="46.20532" lon="-1.475">
        <ele>49.92929</ele>
        <time>2023-05-28T15:06:49.000Z</time>
      </trkpt>
      <trkpt lat="46.20529" lon="-1.47507">
        <ele>49.94008</ele>
        <time>2023-05-28T15:06:50.000Z</time>
      </trkpt>
      <trkpt lat="46.20526" lon="-1.47513">
        <ele>49.96468</ele>
        <time>2023-05-28T15:06:51.000Z</time>
      </trkpt>
      <trkpt lat="46.20523" lon="-1.47518">
        <ele>49.96125</ele>
        <time>2023-05-28T15:06:52.000Z</time>
      </trkpt>
      <trkpt lat="46.2052" lon="-1.47524">
        <ele>49.95889</ele>
        <time>2023-05-28T15:06:53.000Z</time>
      </trkpt>
      <trkpt lat="46.20517" lon="-1.4753">
        <ele>49.97332</ele>
        <time>2023-05-28T15:06:54.000Z</time>
      </trkpt>
      <trkpt lat="46.20514" lon="-1.47535">
        <ele>49.97852</ele>
        <time>2023-05-28T15:06:55.000Z</time>
      </trkpt>
      <trkpt lat="46.20511" lon="-1.4754">
        <ele>49.97594</ele>
        <time>2023-05-28T15:06:56.000Z</time>
      </trkpt>
      <trkpt lat="46.20508" lon="-1.47545">
        <ele>49.9692</ele>
        <time>2023-05-28T15:06:57.000Z</time>
      </trkpt>
      <trkpt lat="46.20505" lon="-1.4755">
        <ele>49.97451</ele>
        <time>2023-05-28T15:06:58.000Z</time>
      </trkpt>
      <trkpt lat="46.20502" lon="-1.47556">
        <ele>49.97334</ele>
        <time>2023-05-28T15:06:59.000Z</time>
      </trkpt>
      <trkpt lat="46.205" lon="-1.47562">
        <ele>49.96941</ele>
        <time>2023-05-28T15:07:00.000Z</time>
      </trkpt>
      <trkpt lat="46.20498" lon="-1.47568">
        <ele>49.95175</ele>
        <time>2023-05-28T15:07:01.000Z</time>
      </trkpt>
      <trkpt lat="46.20495" lon="-1.47573">
        <ele>49.90924</ele>
        <time>2023-05-28T15:07:02.000Z</time>
      </trkpt>
      <trkpt lat="46.20492" lon="-1.47578">
        <ele>49.90117</ele>
        <time>2023-05-28T15:07:03.000Z</time>
      </trkpt>
      <trkpt lat="46.20489" lon="-1.47583">
        <ele>49.91668</ele>
        <time>2023-05-28T15:07:04.000Z</time>
      </trkpt>
      <trkpt lat="46.20486" lon="-1.47588">
        <ele>49.9389</ele>
        <time>2023-05-28T15:07:05.000Z</time>
      </trkpt>
      <trkpt lat="46.20483" lon="-1.47592">
        <ele>49.97928</ele>
        <time>2023-05-28T15:07:06.000Z</time>
      </trkpt>
      <trkpt lat="46.2048" lon="-1.47597">
        <ele>50.03658</ele>
        <time>2023-05-28T15:07:07.000Z</time>
      </trkpt>
      <trkpt lat="46.20476" lon="-1.47599">
        <ele>50.01997</ele>
        <time>2023-05-28T15:07:08.000Z</time>
      </trkpt>
      <trkpt lat="46.20473" lon="-1.47605">
        <ele>50.00844</ele>
        <time>2023-05-28T15:07:09.000Z</time>
      </trkpt>
      <trkpt lat="46.2047" lon="-1.4761">
        <ele>49.9911</ele>
        <time>2023-05-28T15:07:10.000Z</time>
      </trkpt>
      <trkpt lat="46.20467" lon="-1.47614">
        <ele>49.97939</ele>
        <time>2023-05-28T15:07:11.000Z</time>
      </trkpt>
      <trkpt lat="46.20463" lon="-1.47617">
        <ele>50.04319</ele>
        <time>2023-05-28T15:07:12.000Z</time>
      </trkpt>
      <trkpt lat="46.20459" lon="-1.47621">
        <ele>50.08273</ele>
        <time>2023-05-28T15:07:13.000Z</time>
      </trkpt>
      <trkpt lat="46.20455" lon="-1.47624">
        <ele>50.1253</ele>
        <time>2023-05-28T15:07:14.000Z</time>
      </trkpt>
      <trkpt lat="46.20452" lon="-1.47628">
        <ele>50.16787</ele>
        <time>2023-05-28T15:07:15.000Z</time>
      </trkpt>
      <trkpt lat="46.20449" lon="-1.47633">
        <ele>50.21416</ele>
        <time>2023-05-28T15:07:16.000Z</time>
      </trkpt>
      <trkpt lat="46.20447" lon="-1.47637">
        <ele>50.22948</ele>
        <time>2023-05-28T15:07:17.000Z</time>
      </trkpt>
      <trkpt lat="46.20445" lon="-1.47644">
        <ele>50.22547</ele>
        <time>2023-05-28T15:07:18.000Z</time>
      </trkpt>
      <trkpt lat="46.20444" lon="-1.4765">
        <ele>50.25995</ele>
        <time>2023-05-28T15:07:19.000Z</time>
      </trkpt>
      <trkpt lat="46.20444" lon="-1.47657">
        <ele>50.28624</ele>
        <time>2023-05-28T15:07:20.000Z</time>
      </trkpt>
      <trkpt lat="46.20442" lon="-1.47664">
        <ele>50.31971</ele>
        <time>2023-05-28T15:07:21.000Z</time>
      </trkpt>
      <trkpt lat="46.2044" lon="-1.4767">
        <ele>50.37177</ele>
        <time>2023-05-28T15:07:22.000Z</time>
      </trkpt>
      <trkpt lat="46.2044" lon="-1.47676">
        <ele>50.39183</ele>
        <time>2023-05-28T15:07:23.000Z</time>
      </trkpt>
      <trkpt lat="46.20438" lon="-1.47683">
        <ele>50.38558</ele>
        <time>2023-05-28T15:07:24.000Z</time>
      </trkpt>
      <trkpt lat="46.20436" lon="-1.4769">
        <ele>50.37366</ele>
        <time>2023-05-28T15:07:25.000Z</time>
      </trkpt>
      <trkpt lat="46.20435" lon="-1.47697">
        <ele>50.35992</ele>
        <time>2023-05-28T15:07:26.000Z</time>
      </trkpt>
      <trkpt lat="46.20433" lon="-1.47704">
        <ele>50.33325</ele>
        <time>2023-05-28T15:07:27.000Z</time>
      </trkpt>
      <trkpt lat="46.20431" lon="-1.4771">
        <ele>50.33372</ele>
        <time>2023-05-28T15:07:28.000Z</time>
      </trkpt>
      <trkpt lat="46.2043" lon="-1.47716">
        <ele>50.32864</ele>
        <time>2023-05-28T15:07:29.000Z</time>
      </trkpt>
      <trkpt lat="46.20428" lon="-1.47723">
        <ele>50.33652</ele>
        <time>2023-05-28T15:07:30.000Z</time>
      </trkpt>
      <trkpt lat="46.20427" lon="-1.47729">
        <ele>50.31952</ele>
        <time>2023-05-28T15:07:31.000Z</time>
      </trkpt>
      <trkpt lat="46.20425" lon="-1.47736">
        <ele>50.28111</ele>
        <time>2023-05-28T15:07:32.000Z</time>
      </trkpt>
      <trkpt lat="46.20423" lon="-1.47743">
        <ele>50.2231</ele>
        <time>2023-05-28T15:07:33.000Z</time>
      </trkpt>
      <trkpt lat="46.20422" lon="-1.4775">
        <ele>50.17172</ele>
        <time>2023-05-28T15:07:34.000Z</time>
      </trkpt>
      <trkpt lat="46.2042" lon="-1.47758">
        <ele>50.11557</ele>
        <time>2023-05-28T15:07:35.000Z</time>
      </trkpt>
      <trkpt lat="46.20419" lon="-1.47765">
        <ele>50.05394</ele>
        <time>2023-05-28T15:07:36.000Z</time>
      </trkpt>
      <trkpt lat="46.20417" lon="-1.47772">
        <ele>50.01667</ele>
        <time>2023-05-28T15:07:37.000Z</time>
      </trkpt>
      <trkpt lat="46.20416" lon="-1.47779">
        <ele>49.97847</ele>
        <time>2023-05-28T15:07:38.000Z</time>
      </trkpt>
      <trkpt lat="46.20414" lon="-1.47787">
        <ele>49.92728</ele>
        <time>2023-05-28T15:07:39.000Z</time>
      </trkpt>
      <trkpt lat="46.20411" lon="-1.47795">
        <ele>49.8717</ele>
        <time>2023-05-28T15:07:40.000Z</time>
      </trkpt>
      <trkpt lat="46.2041" lon="-1.47802">
        <ele>49.88871</ele>
        <time>2023-05-28T15:07:41.000Z</time>
      </trkpt>
      <trkpt lat="46.20407" lon="-1.47807">
        <ele>49.93365</ele>
        <time>2023-05-28T15:07:42.000Z</time>
      </trkpt>
      <trkpt lat="46.20405" lon="-1.47814">
        <ele>49.99707</ele>
        <time>2023-05-28T15:07:43.000Z</time>
      </trkpt>
      <trkpt lat="46.20403" lon="-1.4782">
        <ele>50.06298</ele>
        <time>2023-05-28T15:07:44.000Z</time>
      </trkpt>
      <trkpt lat="46.204" lon="-1.47827">
        <ele>50.12574</ele>
        <time>2023-05-28T15:07:45.000Z</time>
      </trkpt>
      <trkpt lat="46.20398" lon="-1.47834">
        <ele>50.19052</ele>
        <time>2023-05-28T15:07:46.000Z</time>
      </trkpt>
      <trkpt lat="46.20395" lon="-1.47841">
        <ele>50.24196</ele>
        <time>2023-05-28T15:07:47.000Z</time>
      </trkpt>
      <trkpt lat="46.20393" lon="-1.47847">
        <ele>50.26338</ele>
        <time>2023-05-28T15:07:48.000Z</time>
      </trkpt>
      <trkpt lat="46.20389" lon="-1.47854">
        <ele>50.27861</ele>
        <time>2023-05-28T15:07:49.000Z</time>
      </trkpt>
      <trkpt lat="46.20385" lon="-1.47861">
        <ele>50.28966</ele>
        <time>2023-05-28T15:07:50.000Z</time>
      </trkpt>
      <trkpt lat="46.20383" lon="-1.47868">
        <ele>50.31171</ele>
        <time>2023-05-28T15:07:51.000Z</time>
      </trkpt>
      <trkpt lat="46.2038" lon="-1.47874">
        <ele>50.36291</ele>
        <time>2023-05-28T15:07:52.000Z</time>
      </trkpt>
      <trkpt lat="46.20378" lon="-1.47881">
        <ele>50.46051</ele>
        <time>2023-05-28T15:07:53.000Z</time>
      </trkpt>
      <trkpt lat="46.20375" lon="-1.47887">
        <ele>50.53907</ele>
        <time>2023-05-28T15:07:54.000Z</time>
      </trkpt>
      <trkpt lat="46.20372" lon="-1.47895">
        <ele>50.61876</ele>
        <time>2023-05-28T15:07:55.000Z</time>
      </trkpt>
      <trkpt lat="46.2037" lon="-1.47902">
        <ele>50.69206</ele>
        <time>2023-05-28T15:07:56.000Z</time>
      </trkpt>
      <trkpt lat="46.20366" lon="-1.4791">
        <ele>50.74845</ele>
        <time>2023-05-28T15:07:57.000Z</time>
      </trkpt>
      <trkpt lat="46.20362" lon="-1.47917">
        <ele>50.81813</ele>
        <time>2023-05-28T15:07:58.000Z</time>
      </trkpt>
      <trkpt lat="46.2036" lon="-1.47924">
        <ele>50.88522</ele>
        <time>2023-05-28T15:07:59.000Z</time>
      </trkpt>
      <trkpt lat="46.20357" lon="-1.47931">
        <ele>50.98735</ele>
        <time>2023-05-28T15:08:00.000Z</time>
      </trkpt>
      <trkpt lat="46.20354" lon="-1.47938">
        <ele>51.02424</ele>
        <time>2023-05-28T15:08:01.000Z</time>
      </trkpt>
      <trkpt lat="46.20351" lon="-1.47945">
        <ele>51.03292</ele>
        <time>2023-05-28T15:08:02.000Z</time>
      </trkpt>
      <trkpt lat="46.20348" lon="-1.47952">
        <ele>51.04505</ele>
        <time>2023-05-28T15:08:03.000Z</time>
      </trkpt>
      <trkpt lat="46.20345" lon="-1.47959">
        <ele>51.05791</ele>
        <time>2023-05-28T15:08:04.000Z</time>
      </trkpt>
      <trkpt lat="46.20342" lon="-1.47966">
        <ele>51.05799</ele>
        <time>2023-05-28T15:08:05.000Z</time>
      </trkpt>
      <trkpt lat="46.20339" lon="-1.47974">
        <ele>51.04068</ele>
        <time>2023-05-28T15:08:06.000Z</time>
      </trkpt>
      <trkpt lat="46.20336" lon="-1.47982">
        <ele>51.02533</ele>
        <time>2023-05-28T15:08:07.000Z</time>
      </trkpt>
      <trkpt lat="46.20333" lon="-1.47989">
        <ele>51.03389</ele>
        <time>2023-05-28T15:08:08.000Z</time>
      </trkpt>
      <trkpt lat="46.20329" lon="-1.47996">
        <ele>51.02387</ele>
        <time>2023-05-28T15:08:09.000Z</time>
      </trkpt>
      <trkpt lat="46.20325" lon="-1.48003">
        <ele>51.00979</ele>
        <time>2023-05-28T15:08:10.000Z</time>
      </trkpt>
      <trkpt lat="46.20322" lon="-1.4801">
        <ele>51.00736</ele>
        <time>2023-05-28T15:08:11.000Z</time>
      </trkpt>
      <trkpt lat="46.20319" lon="-1.48017">
        <ele>50.96729</ele>
        <time>2023-05-28T15:08:12.000Z</time>
      </trkpt>
      <trkpt lat="46.20316" lon="-1.48023">
        <ele>50.89126</ele>
        <time>2023-05-28T15:08:13.000Z</time>
      </trkpt>
      <trkpt lat="46.20312" lon="-1.4803">
        <ele>50.81992</ele>
        <time>2023-05-28T15:08:14.000Z</time>
      </trkpt>
      <trkpt lat="46.20309" lon="-1.48037">
        <ele>50.7504</ele>
        <time>2023-05-28T15:08:15.000Z</time>
      </trkpt>
      <trkpt lat="46.20307" lon="-1.48044">
        <ele>50.71655</ele>
        <time>2023-05-28T15:08:16.000Z</time>
      </trkpt>
      <trkpt lat="46.20303" lon="-1.48051">
        <ele>50.67951</ele>
        <time>2023-05-28T15:08:17.000Z</time>
      </trkpt>
      <trkpt lat="46.20301" lon="-1.48058">
        <ele>50.63776</ele>
        <time>2023-05-28T15:08:18.000Z</time>
      </trkpt>
      <trkpt lat="46.20298" lon="-1.48065">
        <ele>50.5948</ele>
        <time>2023-05-28T15:08:19.000Z</time>
      </trkpt>
      <trkpt lat="46.20294" lon="-1.48072">
        <ele>50.53951</ele>
        <time>2023-05-28T15:08:20.000Z</time>
      </trkpt>
      <trkpt lat="46.20291" lon="-1.48079">
        <ele>50.49554</ele>
        <time>2023-05-28T15:08:21.000Z</time>
      </trkpt>
      <trkpt lat="46.20287" lon="-1.48086">
        <ele>50.45592</ele>
        <time>2023-05-28T15:08:22.000Z</time>
      </trkpt>
      <trkpt lat="46.20283" lon="-1.48094">
        <ele>50.40888</ele>
        <time>2023-05-28T15:08:23.000Z</time>
      </trkpt>
      <trkpt lat="46.2028" lon="-1.48101">
        <ele>50.35726</ele>
        <time>2023-05-28T15:08:24.000Z</time>
      </trkpt>
      <trkpt lat="46.20277" lon="-1.48109">
        <ele>50.33047</ele>
        <time>2023-05-28T15:08:25.000Z</time>
      </trkpt>
      <trkpt lat="46.20274" lon="-1.48116">
        <ele>50.31738</ele>
        <time>2023-05-28T15:08:26.000Z</time>
      </trkpt>
      <trkpt lat="46.20271" lon="-1.48123">
        <ele>50.31774</ele>
        <time>2023-05-28T15:08:27.000Z</time>
      </trkpt>
      <trkpt lat="46.20268" lon="-1.48131">
        <ele>50.3206</ele>
        <time>2023-05-28T15:08:28.000Z</time>
      </trkpt>
      <trkpt lat="46.20265" lon="-1.48138">
        <ele>50.34214</ele>
        <time>2023-05-28T15:08:29.000Z</time>
      </trkpt>
      <trkpt lat="46.20263" lon="-1.48145">
        <ele>50.34847</ele>
        <time>2023-05-28T15:08:30.000Z</time>
      </trkpt>
      <trkpt lat="46.20261" lon="-1.48153">
        <ele>50.3484</ele>
        <time>2023-05-28T15:08:31.000Z</time>
      </trkpt>
      <trkpt lat="46.20259" lon="-1.4816">
        <ele>50.37434</ele>
        <time>2023-05-28T15:08:32.000Z</time>
      </trkpt>
      <trkpt lat="46.20257" lon="-1.48167">
        <ele>50.4228</ele>
        <time>2023-05-28T15:08:33.000Z</time>
      </trkpt>
      <trkpt lat="46.20256" lon="-1.48173">
        <ele>50.47793</ele>
        <time>2023-05-28T15:08:34.000Z</time>
      </trkpt>
      <trkpt lat="46.20254" lon="-1.4818">
        <ele>50.54644</ele>
        <time>2023-05-28T15:08:35.000Z</time>
      </trkpt>
      <trkpt lat="46.20252" lon="-1.48186">
        <ele>50.58306</ele>
        <time>2023-05-28T15:08:36.000Z</time>
      </trkpt>
      <trkpt lat="46.20251" lon="-1.48192">
        <ele>50.62994</ele>
        <time>2023-05-28T15:08:37.000Z</time>
      </trkpt>
      <trkpt lat="46.20249" lon="-1.48198">
        <ele>50.64336</ele>
        <time>2023-05-28T15:08:38.000Z</time>
      </trkpt>
      <trkpt lat="46.20248" lon="-1.48203">
        <ele>50.65498</ele>
        <time>2023-05-28T15:08:39.000Z</time>
      </trkpt>
      <trkpt lat="46.20247" lon="-1.48209">
        <ele>50.6336</ele>
        <time>2023-05-28T15:08:40.000Z</time>
      </trkpt>
      <trkpt lat="46.20246" lon="-1.48215">
        <ele>50.60354</ele>
        <time>2023-05-28T15:08:41.000Z</time>
      </trkpt>
      <trkpt lat="46.20245" lon="-1.4822">
        <ele>50.58573</ele>
        <time>2023-05-28T15:08:42.000Z</time>
      </trkpt>
      <trkpt lat="46.20244" lon="-1.48226">
        <ele>50.57238</ele>
        <time>2023-05-28T15:08:43.000Z</time>
      </trkpt>
      <trkpt lat="46.20243" lon="-1.48231">
        <ele>50.56649</ele>
        <time>2023-05-28T15:08:44.000Z</time>
      </trkpt>
      <trkpt lat="46.20242" lon="-1.48237">
        <ele>50.56135</ele>
        <time>2023-05-28T15:08:45.000Z</time>
      </trkpt>
      <trkpt lat="46.20241" lon="-1.48242">
        <ele>50.55885</ele>
        <time>2023-05-28T15:08:46.000Z</time>
      </trkpt>
      <trkpt lat="46.2024" lon="-1.48248">
        <ele>50.56227</ele>
        <time>2023-05-28T15:08:47.000Z</time>
      </trkpt>
      <trkpt lat="46.20239" lon="-1.48254">
        <ele>50.55424</ele>
        <time>2023-05-28T15:08:48.000Z</time>
      </trkpt>
      <trkpt lat="46.20238" lon="-1.4826">
        <ele>50.54703</ele>
        <time>2023-05-28T15:08:49.000Z</time>
      </trkpt>
      <trkpt lat="46.20237" lon="-1.48266">
        <ele>50.56766</ele>
        <time>2023-05-28T15:08:50.000Z</time>
      </trkpt>
      <trkpt lat="46.20236" lon="-1.48272">
        <ele>50.60966</ele>
        <time>2023-05-28T15:08:51.000Z</time>
      </trkpt>
      <trkpt lat="46.20235" lon="-1.48278">
        <ele>50.63315</ele>
        <time>2023-05-28T15:08:52.000Z</time>
      </trkpt>
      <trkpt lat="46.20234" lon="-1.48284">
        <ele>50.64159</ele>
        <time>2023-05-28T15:08:53.000Z</time>
      </trkpt>
      <trkpt lat="46.20233" lon="-1.48291">
        <ele>50.65525</ele>
        <time>2023-05-28T15:08:54.000Z</time>
      </trkpt>
      <trkpt lat="46.20233" lon="-1.48296">
        <ele>50.67397</ele>
        <time>2023-05-28T15:08:55.000Z</time>
      </trkpt>
      <trkpt lat="46.20231" lon="-1.48301">
        <ele>50.69536</ele>
        <time>2023-05-28T15:08:56.000Z</time>
      </trkpt>
      <trkpt lat="46.2023" lon="-1.48307">
        <ele>50.7116</ele>
        <time>2023-05-28T15:08:57.000Z</time>
      </trkpt>
      <trkpt lat="46.20229" lon="-1.48313">
        <ele>50.7435</ele>
        <time>2023-05-28T15:08:58.000Z</time>
      </trkpt>
      <trkpt lat="46.20227" lon="-1.48319">
        <ele>50.76948</ele>
        <time>2023-05-28T15:08:59.000Z</time>
      </trkpt>
      <trkpt lat="46.20226" lon="-1.48324">
        <ele>50.83519</ele>
        <time>2023-05-28T15:09:00.000Z</time>
      </trkpt>
      <trkpt lat="46.20225" lon="-1.4833">
        <ele>50.92377</ele>
        <time>2023-05-28T15:09:01.000Z</time>
      </trkpt>
      <trkpt lat="46.20224" lon="-1.48334">
        <ele>51.02156</ele>
        <time>2023-05-28T15:09:02.000Z</time>
      </trkpt>
      <trkpt lat="46.20223" lon="-1.48336">
        <ele>51.13428</ele>
        <time>2023-05-28T15:09:03.000Z</time>
      </trkpt>
      <trkpt lat="46.20223" lon="-1.4834">
        <ele>51.2589</ele>
        <time>2023-05-28T15:09:04.000Z</time>
      </trkpt>
      <trkpt lat="46.20223" lon="-1.48343">
        <ele>51.36781</ele>
        <time>2023-05-28T15:09:05.000Z</time>
      </trkpt>
      <trkpt lat="46.20224" lon="-1.48345">
        <ele>51.45267</ele>
        <time>2023-05-28T15:09:24.000Z</time>
      </trkpt>
      <trkpt lat="46.20224" lon="-1.48349">
        <ele>51.54329</ele>
        <time>2023-05-28T15:09:26.000Z</time>
      </trkpt>
      <trkpt lat="46.20224" lon="-1.48352">
        <ele>51.63163</ele>
        <time>2023-05-28T15:09:28.000Z</time>
      </trkpt>
      <trkpt lat="46.20223" lon="-1.4835">
        <ele>51.68904</ele>
        <time>2023-05-28T15:09:33.000Z</time>
      </trkpt>
      <trkpt lat="46.20223" lon="-1.48345">
        <ele>51.71072</ele>
        <time>2023-05-28T15:09:35.000Z</time>
      </trkpt>
      <trkpt lat="46.20222" lon="-1.48342">
        <ele>51.71276</ele>
        <time>2023-05-28T15:09:36.000Z</time>
      </trkpt>
      <trkpt lat="46.20221" lon="-1.48338">
        <ele>51.72156</ele>
        <time>2023-05-28T15:09:37.000Z</time>
      </trkpt>
      <trkpt lat="46.2022" lon="-1.48334">
        <ele>51.70778</ele>
        <time>2023-05-28T15:09:38.000Z</time>
      </trkpt>
      <trkpt lat="46.2022" lon="-1.48329">
        <ele>51.68822</ele>
        <time>2023-05-28T15:09:39.000Z</time>
      </trkpt>
      <trkpt lat="46.20221" lon="-1.48326">
        <ele>51.65149</ele>
        <time>2023-05-28T15:09:40.000Z</time>
      </trkpt>
      <trkpt lat="46.20222" lon="-1.48322">
        <ele>51.61552</ele>
        <time>2023-05-28T15:09:41.000Z</time>
      </trkpt>
      <trkpt lat="46.20223" lon="-1.48318">
        <ele>51.58894</ele>
        <time>2023-05-28T15:09:42.000Z</time>
      </trkpt>
      <trkpt lat="46.20225" lon="-1.48314">
        <ele>51.57869</ele>
        <time>2023-05-28T15:09:43.000Z</time>
      </trkpt>
      <trkpt lat="46.20226" lon="-1.48309">
        <ele>51.58693</ele>
        <time>2023-05-28T15:09:44.000Z</time>
      </trkpt>
      <trkpt lat="46.20227" lon="-1.48305">
        <ele>51.57777</ele>
        <time>2023-05-28T15:09:45.000Z</time>
      </trkpt>
      <trkpt lat="46.20229" lon="-1.48301">
        <ele>51.51939</ele>
        <time>2023-05-28T15:09:46.000Z</time>
      </trkpt>
      <trkpt lat="46.2023" lon="-1.48297">
        <ele>51.47649</ele>
        <time>2023-05-28T15:09:47.000Z</time>
      </trkpt>
      <trkpt lat="46.20231" lon="-1.48293">
        <ele>51.4143</ele>
        <time>2023-05-28T15:09:48.000Z</time>
      </trkpt>
      <trkpt lat="46.20232" lon="-1.48289">
        <ele>51.3231</ele>
        <time>2023-05-28T15:09:49.000Z</time>
      </trkpt>
      <trkpt lat="46.20233" lon="-1.48285">
        <ele>51.21584</ele>
        <time>2023-05-28T15:09:50.000Z</time>
      </trkpt>
      <trkpt lat="46.20233" lon="-1.48281">
        <ele>51.12513</ele>
        <time>2023-05-28T15:09:51.000Z</time>
      </trkpt>
      <trkpt lat="46.20233" lon="-1.48278">
        <ele>51.02505</ele>
        <time>2023-05-28T15:09:52.000Z</time>
      </trkpt>
      <trkpt lat="46.20233" lon="-1.48274">
        <ele>50.92862</ele>
        <time>2023-05-28T15:09:53.000Z</time>
      </trkpt>
      <trkpt lat="46.20233" lon="-1.48269">
        <ele>50.8645</ele>
        <time>2023-05-28T15:09:54.000Z</time>
      </trkpt>
      <trkpt lat="46.20234" lon="-1.48264">
        <ele>50.83455</ele>
        <time>2023-05-28T15:09:55.000Z</time>
      </trkpt>
      <trkpt lat="46.20236" lon="-1.48259">
        <ele>50.82373</ele>
        <time>2023-05-28T15:09:56.000Z</time>
      </trkpt>
      <trkpt lat="46.20237" lon="-1.48255">
        <ele>50.78512</ele>
        <time>2023-05-28T15:09:57.000Z</time>
      </trkpt>
      <trkpt lat="46.20238" lon="-1.4825">
        <ele>50.78022</ele>
        <time>2023-05-28T15:09:58.000Z</time>
      </trkpt>
      <trkpt lat="46.20239" lon="-1.48245">
        <ele>50.76546</ele>
        <time>2023-05-28T15:09:59.000Z</time>
      </trkpt>
      <trkpt lat="46.20239" lon="-1.4824">
        <ele>50.77817</ele>
        <time>2023-05-28T15:10:00.000Z</time>
      </trkpt>
      <trkpt lat="46.2024" lon="-1.48236">
        <ele>50.78173</ele>
        <time>2023-05-28T15:10:01.000Z</time>
      </trkpt>
      <trkpt lat="46.20241" lon="-1.48232">
        <ele>50.77038</ele>
        <time>2023-05-28T15:10:02.000Z</time>
      </trkpt>
      <trkpt lat="46.20242" lon="-1.48227">
        <ele>50.75857</ele>
        <time>2023-05-28T15:10:03.000Z</time>
      </trkpt>
      <trkpt lat="46.20243" lon="-1.48223">
        <ele>50.70741</ele>
        <time>2023-05-28T15:10:04.000Z</time>
      </trkpt>
      <trkpt lat="46.20244" lon="-1.48218">
        <ele>50.66964</ele>
        <time>2023-05-28T15:10:05.000Z</time>
      </trkpt>
      <trkpt lat="46.20245" lon="-1.48214">
        <ele>50.66921</ele>
        <time>2023-05-28T15:10:06.000Z</time>
      </trkpt>
      <trkpt lat="46.20244" lon="-1.4821">
        <ele>50.63657</ele>
        <time>2023-05-28T15:10:07.000Z</time>
      </trkpt>
      <trkpt lat="46.20243" lon="-1.48206">
        <ele>50.59692</ele>
        <time>2023-05-28T15:10:08.000Z</time>
      </trkpt>
      <trkpt lat="46.2024" lon="-1.48204">
        <ele>50.58689</ele>
        <time>2023-05-28T15:10:09.000Z</time>
      </trkpt>
      <trkpt lat="46.20237" lon="-1.48204">
        <ele>50.5943</ele>
        <time>2023-05-28T15:10:10.000Z</time>
      </trkpt>
      <trkpt lat="46.20234" lon="-1.48204">
        <ele>50.55172</ele>
        <time>2023-05-28T15:10:11.000Z</time>
      </trkpt>
      <trkpt lat="46.20231" lon="-1.48204">
        <ele>50.56074</ele>
        <time>2023-05-28T15:10:12.000Z</time>
      </trkpt>
      <trkpt lat="46.20228" lon="-1.48204">
        <ele>50.57668</ele>
        <time>2023-05-28T15:10:13.000Z</time>
      </trkpt>
      <trkpt lat="46.20226" lon="-1.48205">
        <ele>50.59408</ele>
        <time>2023-05-28T15:10:14.000Z</time>
      </trkpt>
      <trkpt lat="46.20224" lon="-1.48208">
        <ele>50.59042</ele>
        <time>2023-05-28T15:10:15.000Z</time>
      </trkpt>
      <trkpt lat="46.20222" lon="-1.48212">
        <ele>50.56757</ele>
        <time>2023-05-28T15:10:16.000Z</time>
      </trkpt>
      <trkpt lat="46.20223" lon="-1.48215">
        <ele>50.59194</ele>
        <time>2023-05-28T15:10:17.000Z</time>
      </trkpt>
      <trkpt lat="46.20225" lon="-1.48215">
        <ele>50.62434</ele>
        <time>2023-05-28T15:10:19.000Z</time>
      </trkpt>
      <trkpt lat="46.20227" lon="-1.48214">
        <ele>50.64259</ele>
        <time>2023-05-28T15:21:17.000Z</time>
      </trkpt>
      <trkpt lat="46.20228" lon="-1.48212">
        <ele>50.65573</ele>
        <time>2023-05-28T15:21:52.000Z</time>
      </trkpt>
      <trkpt lat="46.20228" lon="-1.48208">
        <ele>50.66567</ele>
        <time>2023-05-28T15:21:54.000Z</time>
      </trkpt>
      <trkpt lat="46.20229" lon="-1.48205">
        <ele>50.68894</ele>
        <time>2023-05-28T15:21:56.000Z</time>
      </trkpt>
      <trkpt lat="46.20229" lon="-1.48203">
        <ele>50.6544</ele>
        <time>2023-05-28T15:21:59.000Z</time>
      </trkpt>
      <trkpt lat="46.20229" lon="-1.48205">
        <ele>50.63031</ele>
        <time>2023-05-28T15:22:02.000Z</time>
      </trkpt>
      <trkpt lat="46.20231" lon="-1.48209">
        <ele>50.64202</ele>
        <time>2023-05-28T15:22:19.000Z</time>
      </trkpt>
      <trkpt lat="46.20234" lon="-1.48211">
        <ele>50.65592</ele>
        <time>2023-05-28T15:22:21.000Z</time>
      </trkpt>
      <trkpt lat="46.20236" lon="-1.48211">
        <ele>50.668</ele>
        <time>2023-05-28T15:22:23.000Z</time>
      </trkpt>
      <trkpt lat="46.20239" lon="-1.4821">
        <ele>50.69403</ele>
        <time>2023-05-28T15:22:25.000Z</time>
      </trkpt>
      <trkpt lat="46.2024" lon="-1.48208">
        <ele>50.68673</ele>
        <time>2023-05-28T15:22:28.000Z</time>
      </trkpt>
      <trkpt lat="46.20243" lon="-1.48208">
        <ele>50.673</ele>
        <time>2023-05-28T15:22:38.000Z</time>
      </trkpt>
      <trkpt lat="46.20244" lon="-1.48211">
        <ele>50.69408</ele>
        <time>2023-05-28T15:22:39.000Z</time>
      </trkpt>
      <trkpt lat="46.20244" lon="-1.48214">
        <ele>50.66658</ele>
        <time>2023-05-28T15:22:40.000Z</time>
      </trkpt>
      <trkpt lat="46.20244" lon="-1.48217">
        <ele>50.56261</ele>
        <time>2023-05-28T15:22:41.000Z</time>
      </trkpt>
      <trkpt lat="46.20243" lon="-1.4822">
        <ele>50.4577</ele>
        <time>2023-05-28T15:22:42.000Z</time>
      </trkpt>
      <trkpt lat="46.20243" lon="-1.48224">
        <ele>50.35852</ele>
        <time>2023-05-28T15:22:43.000Z</time>
      </trkpt>
      <trkpt lat="46.20243" lon="-1.48227">
        <ele>50.29957</ele>
        <time>2023-05-28T15:22:44.000Z</time>
      </trkpt>
      <trkpt lat="46.20243" lon="-1.48231">
        <ele>50.21659</ele>
        <time>2023-05-28T15:22:45.000Z</time>
      </trkpt>
      <trkpt lat="46.20243" lon="-1.48234">
        <ele>50.12056</ele>
        <time>2023-05-28T15:22:46.000Z</time>
      </trkpt>
      <trkpt lat="46.20242" lon="-1.48238">
        <ele>50.03455</ele>
        <time>2023-05-28T15:22:47.000Z</time>
      </trkpt>
      <trkpt lat="46.20242" lon="-1.48242">
        <ele>49.94128</ele>
        <time>2023-05-28T15:22:48.000Z</time>
      </trkpt>
      <trkpt lat="46.20241" lon="-1.48245">
        <ele>49.86823</ele>
        <time>2023-05-28T15:22:49.000Z</time>
      </trkpt>
      <trkpt lat="46.2024" lon="-1.48249">
        <ele>49.78209</ele>
        <time>2023-05-28T15:22:50.000Z</time>
      </trkpt>
      <trkpt lat="46.20239" lon="-1.48253">
        <ele>49.76092</ele>
        <time>2023-05-28T15:22:51.000Z</time>
      </trkpt>
      <trkpt lat="46.20238" lon="-1.48256">
        <ele>49.73253</ele>
        <time>2023-05-28T15:22:52.000Z</time>
      </trkpt>
      <trkpt lat="46.20237" lon="-1.4826">
        <ele>49.66993</ele>
        <time>2023-05-28T15:22:53.000Z</time>
      </trkpt>
      <trkpt lat="46.20237" lon="-1.48263">
        <ele>49.61444</ele>
        <time>2023-05-28T15:22:54.000Z</time>
      </trkpt>
      <trkpt lat="46.20236" lon="-1.48268">
        <ele>49.5387</ele>
        <time>2023-05-28T15:22:55.000Z</time>
      </trkpt>
      <trkpt lat="46.20236" lon="-1.48273">
        <ele>49.4754</ele>
        <time>2023-05-28T15:22:56.000Z</time>
      </trkpt>
      <trkpt lat="46.20235" lon="-1.48278">
        <ele>49.44734</ele>
        <time>2023-05-28T15:22:57.000Z</time>
      </trkpt>
      <trkpt lat="46.20233" lon="-1.48283">
        <ele>49.41488</ele>
        <time>2023-05-28T15:22:58.000Z</time>
      </trkpt>
      <trkpt lat="46.20232" lon="-1.48289">
        <ele>49.3951</ele>
        <time>2023-05-28T15:22:59.000Z</time>
      </trkpt>
      <trkpt lat="46.20231" lon="-1.48294">
        <ele>49.36933</ele>
        <time>2023-05-28T15:23:00.000Z</time>
      </trkpt>
      <trkpt lat="46.2023" lon="-1.483">
        <ele>49.4023</ele>
        <time>2023-05-28T15:23:01.000Z</time>
      </trkpt>
      <trkpt lat="46.20229" lon="-1.48305">
        <ele>49.43752</ele>
        <time>2023-05-28T15:23:02.000Z</time>
      </trkpt>
      <trkpt lat="46.20228" lon="-1.48311">
        <ele>49.48734</ele>
        <time>2023-05-28T15:23:03.000Z</time>
      </trkpt>
      <trkpt lat="46.20227" lon="-1.48317">
        <ele>49.48195</ele>
        <time>2023-05-28T15:23:04.000Z</time>
      </trkpt>
      <trkpt lat="46.20226" lon="-1.48323">
        <ele>49.4744</ele>
        <time>2023-05-28T15:23:05.000Z</time>
      </trkpt>
      <trkpt lat="46.20225" lon="-1.4833">
        <ele>49.48225</ele>
        <time>2023-05-28T15:23:06.000Z</time>
      </trkpt>
      <trkpt lat="46.20223" lon="-1.48337">
        <ele>49.50121</ele>
        <time>2023-05-28T15:23:07.000Z</time>
      </trkpt>
      <trkpt lat="46.20222" lon="-1.48344">
        <ele>49.50741</ele>
        <time>2023-05-28T15:23:08.000Z</time>
      </trkpt>
      <trkpt lat="46.20222" lon="-1.4835">
        <ele>49.4983</ele>
        <time>2023-05-28T15:23:09.000Z</time>
      </trkpt>
      <trkpt lat="46.20222" lon="-1.48357">
        <ele>49.53847</ele>
        <time>2023-05-28T15:23:10.000Z</time>
      </trkpt>
      <trkpt lat="46.20221" lon="-1.48362">
        <ele>49.56834</ele>
        <time>2023-05-28T15:23:11.000Z</time>
      </trkpt>
      <trkpt lat="46.20221" lon="-1.48369">
        <ele>49.61618</ele>
        <time>2023-05-28T15:23:12.000Z</time>
      </trkpt>
      <trkpt lat="46.2022" lon="-1.48375">
        <ele>49.6305</ele>
        <time>2023-05-28T15:23:13.000Z</time>
      </trkpt>
      <trkpt lat="46.2022" lon="-1.48382">
        <ele>49.63323</ele>
        <time>2023-05-28T15:23:14.000Z</time>
      </trkpt>
      <trkpt lat="46.20219" lon="-1.48387">
        <ele>49.65774</ele>
        <time>2023-05-28T15:23:15.000Z</time>
      </trkpt>
      <trkpt lat="46.20219" lon="-1.48393">
        <ele>49.6628</ele>
        <time>2023-05-28T15:23:16.000Z</time>
      </trkpt>
      <trkpt lat="46.20218" lon="-1.48398">
        <ele>49.67022</ele>
        <time>2023-05-28T15:23:17.000Z</time>
      </trkpt>
      <trkpt lat="46.20217" lon="-1.48403">
        <ele>49.69798</ele>
        <time>2023-05-28T15:23:18.000Z</time>
      </trkpt>
      <trkpt lat="46.20215" lon="-1.48409">
        <ele>49.73617</ele>
        <time>2023-05-28T15:23:19.000Z</time>
      </trkpt>
      <trkpt lat="46.20214" lon="-1.48414">
        <ele>49.78715</ele>
        <time>2023-05-28T15:23:20.000Z</time>
      </trkpt>
      <trkpt lat="46.20213" lon="-1.4842">
        <ele>49.86889</ele>
        <time>2023-05-28T15:23:21.000Z</time>
      </trkpt>
      <trkpt lat="46.20212" lon="-1.48425">
        <ele>49.94655</ele>
        <time>2023-05-28T15:23:22.000Z</time>
      </trkpt>
      <trkpt lat="46.20211" lon="-1.48429">
        <ele>50.00919</ele>
        <time>2023-05-28T15:23:23.000Z</time>
      </trkpt>
      <trkpt lat="46.2021" lon="-1.48435">
        <ele>50.07968</ele>
        <time>2023-05-28T15:23:24.000Z</time>
      </trkpt>
      <trkpt lat="46.20209" lon="-1.4844">
        <ele>50.1636</ele>
        <time>2023-05-28T15:23:25.000Z</time>
      </trkpt>
      <trkpt lat="46.20208" lon="-1.48445">
        <ele>50.23809</ele>
        <time>2023-05-28T15:23:26.000Z</time>
      </trkpt>
      <trkpt lat="46.20207" lon="-1.48451">
        <ele>50.28917</ele>
        <time>2023-05-28T15:23:27.000Z</time>
      </trkpt>
      <trkpt lat="46.20206" lon="-1.48458">
        <ele>50.34092</ele>
        <time>2023-05-28T15:23:28.000Z</time>
      </trkpt>
      <trkpt lat="46.20205" lon="-1.48464">
        <ele>50.40356</ele>
        <time>2023-05-28T15:23:29.000Z</time>
      </trkpt>
      <trkpt lat="46.20204" lon="-1.4847">
        <ele>50.43285</ele>
        <time>2023-05-28T15:23:30.000Z</time>
      </trkpt>
      <trkpt lat="46.20203" lon="-1.48475">
        <ele>50.44936</ele>
        <time>2023-05-28T15:23:31.000Z</time>
      </trkpt>
      <trkpt lat="46.20202" lon="-1.48481">
        <ele>50.46879</ele>
        <time>2023-05-28T15:23:32.000Z</time>
      </trkpt>
      <trkpt lat="46.20201" lon="-1.48487">
        <ele>50.51868</ele>
        <time>2023-05-28T15:23:33.000Z</time>
      </trkpt>
      <trkpt lat="46.202" lon="-1.48493">
        <ele>50.53728</ele>
        <time>2023-05-28T15:23:34.000Z</time>
      </trkpt>
      <trkpt lat="46.20198" lon="-1.48499">
        <ele>50.55701</ele>
        <time>2023-05-28T15:23:35.000Z</time>
      </trkpt>
      <trkpt lat="46.20198" lon="-1.48505">
        <ele>50.59821</ele>
        <time>2023-05-28T15:23:36.000Z</time>
      </trkpt>
      <trkpt lat="46.20196" lon="-1.48511">
        <ele>50.62474</ele>
        <time>2023-05-28T15:23:37.000Z</time>
      </trkpt>
      <trkpt lat="46.20195" lon="-1.48517">
        <ele>50.62679</ele>
        <time>2023-05-28T15:23:38.000Z</time>
      </trkpt>
      <trkpt lat="46.20194" lon="-1.48523">
        <ele>50.60278</ele>
        <time>2023-05-28T15:23:39.000Z</time>
      </trkpt>
      <trkpt lat="46.20192" lon="-1.48529">
        <ele>50.55079</ele>
        <time>2023-05-28T15:23:40.000Z</time>
      </trkpt>
      <trkpt lat="46.20191" lon="-1.48535">
        <ele>50.48734</ele>
        <time>2023-05-28T15:23:41.000Z</time>
      </trkpt>
      <trkpt lat="46.20189" lon="-1.4854">
        <ele>50.41763</ele>
        <time>2023-05-28T15:23:42.000Z</time>
      </trkpt>
      <trkpt lat="46.20187" lon="-1.48546">
        <ele>50.33906</ele>
        <time>2023-05-28T15:23:43.000Z</time>
      </trkpt>
      <trkpt lat="46.20185" lon="-1.48551">
        <ele>50.26356</ele>
        <time>2023-05-28T15:23:44.000Z</time>
      </trkpt>
      <trkpt lat="46.20183" lon="-1.48556">
        <ele>50.18936</ele>
        <time>2023-05-28T15:23:45.000Z</time>
      </trkpt>
      <trkpt lat="46.20181" lon="-1.48562">
        <ele>50.12762</ele>
        <time>2023-05-28T15:23:46.000Z</time>
      </trkpt>
      <trkpt lat="46.20179" lon="-1.48568">
        <ele>50.07771</ele>
        <time>2023-05-28T15:23:47.000Z</time>
      </trkpt>
      <trkpt lat="46.20176" lon="-1.48573">
        <ele>50.0329</ele>
        <time>2023-05-28T15:23:48.000Z</time>
      </trkpt>
      <trkpt lat="46.20174" lon="-1.48578">
        <ele>49.98932</ele>
        <time>2023-05-28T15:23:49.000Z</time>
      </trkpt>
      <trkpt lat="46.20172" lon="-1.48584">
        <ele>49.94406</ele>
        <time>2023-05-28T15:23:50.000Z</time>
      </trkpt>
      <trkpt lat="46.2017" lon="-1.4859">
        <ele>49.90685</ele>
        <time>2023-05-28T15:23:51.000Z</time>
      </trkpt>
      <trkpt lat="46.20168" lon="-1.48595">
        <ele>49.86622</ele>
        <time>2023-05-28T15:23:52.000Z</time>
      </trkpt>
      <trkpt lat="46.20166" lon="-1.486">
        <ele>49.83175</ele>
        <time>2023-05-28T15:23:53.000Z</time>
      </trkpt>
      <trkpt lat="46.20164" lon="-1.48605">
        <ele>49.81091</ele>
        <time>2023-05-28T15:23:54.000Z</time>
      </trkpt>
      <trkpt lat="46.20162" lon="-1.4861">
        <ele>49.79131</ele>
        <time>2023-05-28T15:23:55.000Z</time>
      </trkpt>
      <trkpt lat="46.2016" lon="-1.48615">
        <ele>49.77135</ele>
        <time>2023-05-28T15:23:56.000Z</time>
      </trkpt>
      <trkpt lat="46.20158" lon="-1.4862">
        <ele>49.73772</ele>
        <time>2023-05-28T15:23:57.000Z</time>
      </trkpt>
      <trkpt lat="46.20156" lon="-1.48625">
        <ele>49.72768</ele>
        <time>2023-05-28T15:23:58.000Z</time>
      </trkpt>
      <trkpt lat="46.20153" lon="-1.4863">
        <ele>49.73777</ele>
        <time>2023-05-28T15:23:59.000Z</time>
      </trkpt>
      <trkpt lat="46.20151" lon="-1.48635">
        <ele>49.76241</ele>
        <time>2023-05-28T15:24:00.000Z</time>
      </trkpt>
      <trkpt lat="46.20148" lon="-1.4864">
        <ele>49.77246</ele>
        <time>2023-05-28T15:24:01.000Z</time>
      </trkpt>
      <trkpt lat="46.20146" lon="-1.48645">
        <ele>49.78516</ele>
        <time>2023-05-28T15:24:02.000Z</time>
      </trkpt>
      <trkpt lat="46.20143" lon="-1.48649">
        <ele>49.78452</ele>
        <time>2023-05-28T15:24:03.000Z</time>
      </trkpt>
      <trkpt lat="46.2014" lon="-1.48654">
        <ele>49.78452</ele>
        <time>2023-05-28T15:24:04.000Z</time>
      </trkpt>
      <trkpt lat="46.20136" lon="-1.48658">
        <ele>49.77764</ele>
        <time>2023-05-28T15:24:05.000Z</time>
      </trkpt>
      <trkpt lat="46.20133" lon="-1.48662">
        <ele>49.75665</ele>
        <time>2023-05-28T15:24:06.000Z</time>
      </trkpt>
      <trkpt lat="46.2013" lon="-1.48666">
        <ele>49.7515</ele>
        <time>2023-05-28T15:24:07.000Z</time>
      </trkpt>
      <trkpt lat="46.20127" lon="-1.48671">
        <ele>49.77121</ele>
        <time>2023-05-28T15:24:08.000Z</time>
      </trkpt>
      <trkpt lat="46.20124" lon="-1.48675">
        <ele>49.78009</ele>
        <time>2023-05-28T15:24:09.000Z</time>
      </trkpt>
      <trkpt lat="46.20121" lon="-1.48679">
        <ele>49.78096</ele>
        <time>2023-05-28T15:24:10.000Z</time>
      </trkpt>
      <trkpt lat="46.20118" lon="-1.48684">
        <ele>49.78996</ele>
        <time>2023-05-28T15:24:11.000Z</time>
      </trkpt>
      <trkpt lat="46.20115" lon="-1.48688">
        <ele>49.80603</ele>
        <time>2023-05-28T15:24:12.000Z</time>
      </trkpt>
      <trkpt lat="46.20112" lon="-1.48692">
        <ele>49.80694</ele>
        <time>2023-05-28T15:24:13.000Z</time>
      </trkpt>
      <trkpt lat="46.20109" lon="-1.48695">
        <ele>49.81416</ele>
        <time>2023-05-28T15:24:14.000Z</time>
      </trkpt>
      <trkpt lat="46.20106" lon="-1.48696">
        <ele>49.84051</ele>
        <time>2023-05-28T15:24:15.000Z</time>
      </trkpt>
      <trkpt lat="46.20103" lon="-1.48698">
        <ele>49.84919</ele>
        <time>2023-05-28T15:24:16.000Z</time>
      </trkpt>
      <trkpt lat="46.20101" lon="-1.48701">
        <ele>49.86376</ele>
        <time>2023-05-28T15:24:17.000Z</time>
      </trkpt>
      <trkpt lat="46.20101" lon="-1.48704">
        <ele>49.87804</ele>
        <time>2023-05-28T15:24:18.000Z</time>
      </trkpt>
      <trkpt lat="46.20104" lon="-1.48707">
        <ele>49.90803</ele>
        <time>2023-05-28T15:24:20.000Z</time>
      </trkpt>
      <trkpt lat="46.20105" lon="-1.48709">
        <ele>49.94395</ele>
        <time>2023-05-28T15:24:21.000Z</time>
      </trkpt>
      <trkpt lat="46.20106" lon="-1.48711">
        <ele>49.98767</ele>
        <time>2023-05-28T15:24:22.000Z</time>
      </trkpt>
      <trkpt lat="46.20107" lon="-1.48714">
        <ele>50.0387</ele>
        <time>2023-05-28T15:24:23.000Z</time>
      </trkpt>
      <trkpt lat="46.20107" lon="-1.48719">
        <ele>50.08111</ele>
        <time>2023-05-28T15:24:24.000Z</time>
      </trkpt>
      <trkpt lat="46.20107" lon="-1.48723">
        <ele>50.11744</ele>
        <time>2023-05-28T15:24:25.000Z</time>
      </trkpt>
      <trkpt lat="46.20106" lon="-1.48727">
        <ele>50.15215</ele>
        <time>2023-05-28T15:24:26.000Z</time>
      </trkpt>
      <trkpt lat="46.20105" lon="-1.48731">
        <ele>50.18501</ele>
        <time>2023-05-28T15:24:27.000Z</time>
      </trkpt>
      <trkpt lat="46.20104" lon="-1.48737">
        <ele>50.19019</ele>
        <time>2023-05-28T15:24:28.000Z</time>
      </trkpt>
      <trkpt lat="46.20102" lon="-1.48742">
        <ele>50.18453</ele>
        <time>2023-05-28T15:24:29.000Z</time>
      </trkpt>
      <trkpt lat="46.20101" lon="-1.48747">
        <ele>50.22732</ele>
        <time>2023-05-28T15:24:30.000Z</time>
      </trkpt>
      <trkpt lat="46.20101" lon="-1.48753">
        <ele>50.2748</ele>
        <time>2023-05-28T15:24:31.000Z</time>
      </trkpt>
      <trkpt lat="46.201" lon="-1.48759">
        <ele>50.30562</ele>
        <time>2023-05-28T15:24:32.000Z</time>
      </trkpt>
      <trkpt lat="46.201" lon="-1.48765">
        <ele>50.32168</ele>
        <time>2023-05-28T15:24:33.000Z</time>
      </trkpt>
      <trkpt lat="46.201" lon="-1.48771">
        <ele>50.34602</ele>
        <time>2023-05-28T15:24:34.000Z</time>
      </trkpt>
      <trkpt lat="46.201" lon="-1.48777">
        <ele>50.38452</ele>
        <time>2023-05-28T15:24:35.000Z</time>
      </trkpt>
      <trkpt lat="46.20102" lon="-1.48783">
        <ele>50.37851</ele>
        <time>2023-05-28T15:24:36.000Z</time>
      </trkpt>
      <trkpt lat="46.20103" lon="-1.48791">
        <ele>50.36567</ele>
        <time>2023-05-28T15:24:37.000Z</time>
      </trkpt>
      <trkpt lat="46.20104" lon="-1.48798">
        <ele>50.34771</ele>
        <time>2023-05-28T15:24:38.000Z</time>
      </trkpt>
      <trkpt lat="46.20105" lon="-1.48805">
        <ele>50.33074</ele>
        <time>2023-05-28T15:24:39.000Z</time>
      </trkpt>
      <trkpt lat="46.20107" lon="-1.48811">
        <ele>50.29197</ele>
        <time>2023-05-28T15:24:40.000Z</time>
      </trkpt>
      <trkpt lat="46.20109" lon="-1.48817">
        <ele>50.24196</ele>
        <time>2023-05-28T15:24:41.000Z</time>
      </trkpt>
      <trkpt lat="46.2011" lon="-1.48824">
        <ele>50.19701</ele>
        <time>2023-05-28T15:24:42.000Z</time>
      </trkpt>
      <trkpt lat="46.20112" lon="-1.48831">
        <ele>50.15269</ele>
        <time>2023-05-28T15:24:43.000Z</time>
      </trkpt>
      <trkpt lat="46.20114" lon="-1.48837">
        <ele>50.11669</ele>
        <time>2023-05-28T15:24:44.000Z</time>
      </trkpt>
      <trkpt lat="46.20118" lon="-1.48844">
        <ele>50.0527</ele>
        <time>2023-05-28T15:24:45.000Z</time>
      </trkpt>
      <trkpt lat="46.20119" lon="-1.48851">
        <ele>49.9798</ele>
        <time>2023-05-28T15:24:46.000Z</time>
      </trkpt>
      <trkpt lat="46.20121" lon="-1.48858">
        <ele>49.9143</ele>
        <time>2023-05-28T15:24:47.000Z</time>
      </trkpt>
      <trkpt lat="46.20123" lon="-1.48864">
        <ele>49.89893</ele>
        <time>2023-05-28T15:24:48.000Z</time>
      </trkpt>
      <trkpt lat="46.20126" lon="-1.48871">
        <ele>49.86521</ele>
        <time>2023-05-28T15:24:49.000Z</time>
      </trkpt>
      <trkpt lat="46.20127" lon="-1.48878">
        <ele>49.78599</ele>
        <time>2023-05-28T15:24:50.000Z</time>
      </trkpt>
      <trkpt lat="46.20129" lon="-1.48885">
        <ele>49.69155</ele>
        <time>2023-05-28T15:24:51.000Z</time>
      </trkpt>
      <trkpt lat="46.2013" lon="-1.48892">
        <ele>49.61174</ele>
        <time>2023-05-28T15:24:52.000Z</time>
      </trkpt>
      <trkpt lat="46.20132" lon="-1.489">
        <ele>49.53673</ele>
        <time>2023-05-28T15:24:53.000Z</time>
      </trkpt>
      <trkpt lat="46.20134" lon="-1.48907">
        <ele>49.47193</ele>
        <time>2023-05-28T15:24:54.000Z</time>
      </trkpt>
      <trkpt lat="46.20137" lon="-1.48913">
        <ele>49.39821</ele>
        <time>2023-05-28T15:24:55.000Z</time>
      </trkpt>
      <trkpt lat="46.20139" lon="-1.4892">
        <ele>49.32155</ele>
        <time>2023-05-28T15:24:56.000Z</time>
      </trkpt>
      <trkpt lat="46.20141" lon="-1.48926">
        <ele>49.26325</ele>
        <time>2023-05-28T15:24:57.000Z</time>
      </trkpt>
      <trkpt lat="46.20143" lon="-1.48934">
        <ele>49.2112</ele>
        <time>2023-05-28T15:24:58.000Z</time>
      </trkpt>
      <trkpt lat="46.20145" lon="-1.48941">
        <ele>49.16941</ele>
        <time>2023-05-28T15:24:59.000Z</time>
      </trkpt>
      <trkpt lat="46.20146" lon="-1.48947">
        <ele>49.12223</ele>
        <time>2023-05-28T15:25:00.000Z</time>
      </trkpt>
      <trkpt lat="46.20149" lon="-1.48955">
        <ele>49.07634</ele>
        <time>2023-05-28T15:25:01.000Z</time>
      </trkpt>
      <trkpt lat="46.20151" lon="-1.48962">
        <ele>49.03884</ele>
        <time>2023-05-28T15:25:02.000Z</time>
      </trkpt>
      <trkpt lat="46.20153" lon="-1.48969">
        <ele>48.98394</ele>
        <time>2023-05-28T15:25:03.000Z</time>
      </trkpt>
      <trkpt lat="46.20155" lon="-1.48976">
        <ele>48.95294</ele>
        <time>2023-05-28T15:25:04.000Z</time>
      </trkpt>
      <trkpt lat="46.20157" lon="-1.48983">
        <ele>48.98082</ele>
        <time>2023-05-28T15:25:05.000Z</time>
      </trkpt>
      <trkpt lat="46.20159" lon="-1.48989">
        <ele>49.01124</ele>
        <time>2023-05-28T15:25:06.000Z</time>
      </trkpt>
      <trkpt lat="46.20161" lon="-1.48997">
        <ele>49.04302</ele>
        <time>2023-05-28T15:25:07.000Z</time>
      </trkpt>
      <trkpt lat="46.20163" lon="-1.49004">
        <ele>49.03913</ele>
        <time>2023-05-28T15:25:08.000Z</time>
      </trkpt>
      <trkpt lat="46.20165" lon="-1.4901">
        <ele>49.04465</ele>
        <time>2023-05-28T15:25:09.000Z</time>
      </trkpt>
      <trkpt lat="46.20167" lon="-1.49017">
        <ele>49.03662</ele>
        <time>2023-05-28T15:25:10.000Z</time>
      </trkpt>
      <trkpt lat="46.20168" lon="-1.49024">
        <ele>49.04278</ele>
        <time>2023-05-28T15:25:11.000Z</time>
      </trkpt>
      <trkpt lat="46.2017" lon="-1.49031">
        <ele>49.02142</ele>
        <time>2023-05-28T15:25:12.000Z</time>
      </trkpt>
      <trkpt lat="46.20172" lon="-1.49037">
        <ele>48.97337</ele>
        <time>2023-05-28T15:25:13.000Z</time>
      </trkpt>
      <trkpt lat="46.20174" lon="-1.49044">
        <ele>48.88781</ele>
        <time>2023-05-28T15:25:14.000Z</time>
      </trkpt>
      <trkpt lat="46.20176" lon="-1.49051">
        <ele>48.8073</ele>
        <time>2023-05-28T15:25:15.000Z</time>
      </trkpt>
      <trkpt lat="46.20179" lon="-1.49058">
        <ele>48.772</ele>
        <time>2023-05-28T15:25:16.000Z</time>
      </trkpt>
      <trkpt lat="46.20182" lon="-1.49066">
        <ele>48.70662</ele>
        <time>2023-05-28T15:25:17.000Z</time>
      </trkpt>
      <trkpt lat="46.20183" lon="-1.49072">
        <ele>48.6535</ele>
        <time>2023-05-28T15:25:18.000Z</time>
      </trkpt>
      <trkpt lat="46.20185" lon="-1.49079">
        <ele>48.58981</ele>
        <time>2023-05-28T15:25:19.000Z</time>
      </trkpt>
      <trkpt lat="46.20187" lon="-1.49087">
        <ele>48.52814</ele>
        <time>2023-05-28T15:25:20.000Z</time>
      </trkpt>
      <trkpt lat="46.20189" lon="-1.49096">
        <ele>48.45907</ele>
        <time>2023-05-28T15:25:21.000Z</time>
      </trkpt>
      <trkpt lat="46.20191" lon="-1.49103">
        <ele>48.42283</ele>
        <time>2023-05-28T15:25:22.000Z</time>
      </trkpt>
      <trkpt lat="46.20194" lon="-1.4911">
        <ele>48.3973</ele>
        <time>2023-05-28T15:25:23.000Z</time>
      </trkpt>
      <trkpt lat="46.20196" lon="-1.49117">
        <ele>48.38047</ele>
        <time>2023-05-28T15:25:24.000Z</time>
      </trkpt>
      <trkpt lat="46.20198" lon="-1.49125">
        <ele>48.3248</ele>
        <time>2023-05-28T15:25:25.000Z</time>
      </trkpt>
      <trkpt lat="46.202" lon="-1.49132">
        <ele>48.27776</ele>
        <time>2023-05-28T15:25:26.000Z</time>
      </trkpt>
      <trkpt lat="46.20202" lon="-1.4914">
        <ele>48.22919</ele>
        <time>2023-05-28T15:25:27.000Z</time>
      </trkpt>
      <trkpt lat="46.20205" lon="-1.49147">
        <ele>48.19769</ele>
        <time>2023-05-28T15:25:28.000Z</time>
      </trkpt>
      <trkpt lat="46.20206" lon="-1.49153">
        <ele>48.17715</ele>
        <time>2023-05-28T15:25:29.000Z</time>
      </trkpt>
      <trkpt lat="46.20208" lon="-1.49161">
        <ele>48.1338</ele>
        <time>2023-05-28T15:25:30.000Z</time>
      </trkpt>
      <trkpt lat="46.2021" lon="-1.49167">
        <ele>48.09618</ele>
        <time>2023-05-28T15:25:31.000Z</time>
      </trkpt>
      <trkpt lat="46.20212" lon="-1.49174">
        <ele>48.07884</ele>
        <time>2023-05-28T15:25:32.000Z</time>
      </trkpt>
      <trkpt lat="46.20214" lon="-1.49182">
        <ele>48.08867</ele>
        <time>2023-05-28T15:25:33.000Z</time>
      </trkpt>
      <trkpt lat="46.20216" lon="-1.4919">
        <ele>48.08895</ele>
        <time>2023-05-28T15:25:34.000Z</time>
      </trkpt>
      <trkpt lat="46.20218" lon="-1.49197">
        <ele>48.08817</ele>
        <time>2023-05-28T15:25:35.000Z</time>
      </trkpt>
      <trkpt lat="46.20219" lon="-1.49203">
        <ele>48.05684</ele>
        <time>2023-05-28T15:25:36.000Z</time>
      </trkpt>
      <trkpt lat="46.20221" lon="-1.4921">
        <ele>48.07249</ele>
        <time>2023-05-28T15:25:37.000Z</time>
      </trkpt>
      <trkpt lat="46.20222" lon="-1.49216">
        <ele>48.1002</ele>
        <time>2023-05-28T15:25:38.000Z</time>
      </trkpt>
      <trkpt lat="46.20224" lon="-1.49223">
        <ele>48.10785</ele>
        <time>2023-05-28T15:25:39.000Z</time>
      </trkpt>
      <trkpt lat="46.20225" lon="-1.4923">
        <ele>48.13628</ele>
        <time>2023-05-28T15:25:40.000Z</time>
      </trkpt>
      <trkpt lat="46.20226" lon="-1.49237">
        <ele>48.15905</ele>
        <time>2023-05-28T15:25:41.000Z</time>
      </trkpt>
      <trkpt lat="46.20225" lon="-1.49244">
        <ele>48.13909</ele>
        <time>2023-05-28T15:25:42.000Z</time>
      </trkpt>
      <trkpt lat="46.20225" lon="-1.49249">
        <ele>48.12853</ele>
        <time>2023-05-28T15:25:43.000Z</time>
      </trkpt>
      <trkpt lat="46.20226" lon="-1.49252">
        <ele>48.09137</ele>
        <time>2023-05-28T15:25:44.000Z</time>
      </trkpt>
      <trkpt lat="46.20225" lon="-1.49255">
        <ele>48.07664</ele>
        <time>2023-05-28T15:25:45.000Z</time>
      </trkpt>
      <trkpt lat="46.20225" lon="-1.49259">
        <ele>48.05755</ele>
        <time>2023-05-28T15:25:46.000Z</time>
      </trkpt>
      <trkpt lat="46.20227" lon="-1.49264">
        <ele>48.02726</ele>
        <time>2023-05-28T15:25:48.000Z</time>
      </trkpt>
      <trkpt lat="46.20226" lon="-1.49267">
        <ele>47.97181</ele>
        <time>2023-05-28T15:25:49.000Z</time>
      </trkpt>
      <trkpt lat="46.20226" lon="-1.4927">
        <ele>47.91012</ele>
        <time>2023-05-28T15:25:50.000Z</time>
      </trkpt>
      <trkpt lat="46.20226" lon="-1.49273">
        <ele>47.87455</ele>
        <time>2023-05-28T15:25:51.000Z</time>
      </trkpt>
      <trkpt lat="46.20224" lon="-1.49276">
        <ele>47.86428</ele>
        <time>2023-05-28T15:26:11.000Z</time>
      </trkpt>
      <trkpt lat="46.20223" lon="-1.49279">
        <ele>47.85759</ele>
        <time>2023-05-28T15:26:12.000Z</time>
      </trkpt>
      <trkpt lat="46.20223" lon="-1.49282">
        <ele>47.82233</ele>
        <time>2023-05-28T15:26:13.000Z</time>
      </trkpt>
      <trkpt lat="46.20223" lon="-1.49285">
        <ele>47.81419</ele>
        <time>2023-05-28T15:26:14.000Z</time>
      </trkpt>
      <trkpt lat="46.20222" lon="-1.49288">
        <ele>47.80508</ele>
        <time>2023-05-28T15:26:15.000Z</time>
      </trkpt>
      <trkpt lat="46.20221" lon="-1.49292">
        <ele>47.79052</ele>
        <time>2023-05-28T15:26:16.000Z</time>
      </trkpt>
      <trkpt lat="46.2022" lon="-1.49296">
        <ele>47.76626</ele>
        <time>2023-05-28T15:26:17.000Z</time>
      </trkpt>
      <trkpt lat="46.20219" lon="-1.49301">
        <ele>47.72213</ele>
        <time>2023-05-28T15:26:18.000Z</time>
      </trkpt>
      <trkpt lat="46.20218" lon="-1.49306">
        <ele>47.70616</ele>
        <time>2023-05-28T15:26:19.000Z</time>
      </trkpt>
      <trkpt lat="46.20217" lon="-1.49311">
        <ele>47.6787</ele>
        <time>2023-05-28T15:26:20.000Z</time>
      </trkpt>
      <trkpt lat="46.20216" lon="-1.49316">
        <ele>47.69386</ele>
        <time>2023-05-28T15:26:21.000Z</time>
      </trkpt>
      <trkpt lat="46.20215" lon="-1.49321">
        <ele>47.71375</ele>
        <time>2023-05-28T15:26:22.000Z</time>
      </trkpt>
      <trkpt lat="46.20214" lon="-1.49327">
        <ele>47.72857</ele>
        <time>2023-05-28T15:26:23.000Z</time>
      </trkpt>
      <trkpt lat="46.20213" lon="-1.49332">
        <ele>47.74786</ele>
        <time>2023-05-28T15:26:24.000Z</time>
      </trkpt>
      <trkpt lat="46.20212" lon="-1.49338">
        <ele>47.77558</ele>
        <time>2023-05-28T15:26:25.000Z</time>
      </trkpt>
      <trkpt lat="46.20211" lon="-1.49344">
        <ele>47.82435</ele>
        <time>2023-05-28T15:26:26.000Z</time>
      </trkpt>
      <trkpt lat="46.2021" lon="-1.4935">
        <ele>47.88768</ele>
        <time>2023-05-28T15:26:27.000Z</time>
      </trkpt>
      <trkpt lat="46.2021" lon="-1.49357">
        <ele>47.92824</ele>
        <time>2023-05-28T15:26:28.000Z</time>
      </trkpt>
      <trkpt lat="46.2021" lon="-1.49364">
        <ele>47.98428</ele>
        <time>2023-05-28T15:26:29.000Z</time>
      </trkpt>
      <trkpt lat="46.2021" lon="-1.4937">
        <ele>48.03825</ele>
        <time>2023-05-28T15:26:30.000Z</time>
      </trkpt>
      <trkpt lat="46.20211" lon="-1.49377">
        <ele>48.07018</ele>
        <time>2023-05-28T15:26:31.000Z</time>
      </trkpt>
      <trkpt lat="46.20211" lon="-1.49384">
        <ele>48.10699</ele>
        <time>2023-05-28T15:26:32.000Z</time>
      </trkpt>
      <trkpt lat="46.20212" lon="-1.49391">
        <ele>48.17455</ele>
        <time>2023-05-28T15:26:33.000Z</time>
      </trkpt>
      <trkpt lat="46.20213" lon="-1.49397">
        <ele>48.25738</ele>
        <time>2023-05-28T15:26:34.000Z</time>
      </trkpt>
      <trkpt lat="46.20214" lon="-1.49405">
        <ele>48.31445</ele>
        <time>2023-05-28T15:26:35.000Z</time>
      </trkpt>
      <trkpt lat="46.20216" lon="-1.49411">
        <ele>48.40192</ele>
        <time>2023-05-28T15:26:36.000Z</time>
      </trkpt>
      <trkpt lat="46.20218" lon="-1.49419">
        <ele>48.44662</ele>
        <time>2023-05-28T15:26:37.000Z</time>
      </trkpt>
      <trkpt lat="46.20219" lon="-1.49425">
        <ele>48.48613</ele>
        <time>2023-05-28T15:26:38.000Z</time>
      </trkpt>
      <trkpt lat="46.20222" lon="-1.49432">
        <ele>48.51316</ele>
        <time>2023-05-28T15:26:39.000Z</time>
      </trkpt>
      <trkpt lat="46.20224" lon="-1.49438">
        <ele>48.55809</ele>
        <time>2023-05-28T15:26:40.000Z</time>
      </trkpt>
      <trkpt lat="46.20226" lon="-1.49444">
        <ele>48.58701</ele>
        <time>2023-05-28T15:26:41.000Z</time>
      </trkpt>
      <trkpt lat="46.20228" lon="-1.4945">
        <ele>48.6109</ele>
        <time>2023-05-28T15:26:42.000Z</time>
      </trkpt>
      <trkpt lat="46.2023" lon="-1.49456">
        <ele>48.63117</ele>
        <time>2023-05-28T15:26:43.000Z</time>
      </trkpt>
      <trkpt lat="46.20233" lon="-1.49462">
        <ele>48.68929</ele>
        <time>2023-05-28T15:26:44.000Z</time>
      </trkpt>
      <trkpt lat="46.20235" lon="-1.49468">
        <ele>48.75315</ele>
        <time>2023-05-28T15:26:45.000Z</time>
      </trkpt>
      <trkpt lat="46.20236" lon="-1.49476">
        <ele>48.79786</ele>
        <time>2023-05-28T15:26:46.000Z</time>
      </trkpt>
      <trkpt lat="46.20239" lon="-1.49482">
        <ele>48.84773</ele>
        <time>2023-05-28T15:26:47.000Z</time>
      </trkpt>
      <trkpt lat="46.20242" lon="-1.49488">
        <ele>48.93036</ele>
        <time>2023-05-28T15:26:48.000Z</time>
      </trkpt>
      <trkpt lat="46.20245" lon="-1.49494">
        <ele>48.99689</ele>
        <time>2023-05-28T15:26:49.000Z</time>
      </trkpt>
      <trkpt lat="46.20247" lon="-1.49501">
        <ele>49.0814</ele>
        <time>2023-05-28T15:26:50.000Z</time>
      </trkpt>
      <trkpt lat="46.2025" lon="-1.49508">
        <ele>49.15637</ele>
        <time>2023-05-28T15:26:51.000Z</time>
      </trkpt>
      <trkpt lat="46.20253" lon="-1.49514">
        <ele>49.22396</ele>
        <time>2023-05-28T15:26:52.000Z</time>
      </trkpt>
      <trkpt lat="46.20255" lon="-1.4952">
        <ele>49.27299</ele>
        <time>2023-05-28T15:26:53.000Z</time>
      </trkpt>
      <trkpt lat="46.20258" lon="-1.49527">
        <ele>49.28373</ele>
        <time>2023-05-28T15:26:54.000Z</time>
      </trkpt>
      <trkpt lat="46.2026" lon="-1.49534">
        <ele>49.31227</ele>
        <time>2023-05-28T15:26:55.000Z</time>
      </trkpt>
      <trkpt lat="46.20263" lon="-1.49542">
        <ele>49.3054</ele>
        <time>2023-05-28T15:26:56.000Z</time>
      </trkpt>
      <trkpt lat="46.20265" lon="-1.49548">
        <ele>49.33233</ele>
        <time>2023-05-28T15:26:57.000Z</time>
      </trkpt>
      <trkpt lat="46.20268" lon="-1.49555">
        <ele>49.36903</ele>
        <time>2023-05-28T15:26:58.000Z</time>
      </trkpt>
      <trkpt lat="46.20271" lon="-1.49562">
        <ele>49.40445</ele>
        <time>2023-05-28T15:26:59.000Z</time>
      </trkpt>
      <trkpt lat="46.20273" lon="-1.4957">
        <ele>49.4388</ele>
        <time>2023-05-28T15:27:00.000Z</time>
      </trkpt>
      <trkpt lat="46.20276" lon="-1.49578">
        <ele>49.44186</ele>
        <time>2023-05-28T15:27:01.000Z</time>
      </trkpt>
      <trkpt lat="46.20279" lon="-1.49586">
        <ele>49.43023</ele>
        <time>2023-05-28T15:27:02.000Z</time>
      </trkpt>
      <trkpt lat="46.20282" lon="-1.49592">
        <ele>49.44395</ele>
        <time>2023-05-28T15:27:03.000Z</time>
      </trkpt>
      <trkpt lat="46.20284" lon="-1.496">
        <ele>49.45351</ele>
        <time>2023-05-28T15:27:04.000Z</time>
      </trkpt>
      <trkpt lat="46.20287" lon="-1.49608">
        <ele>49.45103</ele>
        <time>2023-05-28T15:27:05.000Z</time>
      </trkpt>
      <trkpt lat="46.2029" lon="-1.49615">
        <ele>49.45441</ele>
        <time>2023-05-28T15:27:06.000Z</time>
      </trkpt>
      <trkpt lat="46.20294" lon="-1.49622">
        <ele>49.41812</ele>
        <time>2023-05-28T15:27:07.000Z</time>
      </trkpt>
      <trkpt lat="46.20298" lon="-1.4963">
        <ele>49.37041</ele>
        <time>2023-05-28T15:27:08.000Z</time>
      </trkpt>
      <trkpt lat="46.203" lon="-1.49637">
        <ele>49.32417</ele>
        <time>2023-05-28T15:27:09.000Z</time>
      </trkpt>
      <trkpt lat="46.20303" lon="-1.49644">
        <ele>49.30394</ele>
        <time>2023-05-28T15:27:10.000Z</time>
      </trkpt>
      <trkpt lat="46.20307" lon="-1.49651">
        <ele>49.28925</ele>
        <time>2023-05-28T15:27:11.000Z</time>
      </trkpt>
      <trkpt lat="46.2031" lon="-1.49657">
        <ele>49.26329</ele>
        <time>2023-05-28T15:27:12.000Z</time>
      </trkpt>
      <trkpt lat="46.20313" lon="-1.49665">
        <ele>49.27769</ele>
        <time>2023-05-28T15:27:13.000Z</time>
      </trkpt>
      <trkpt lat="46.20315" lon="-1.49672">
        <ele>49.30143</ele>
        <time>2023-05-28T15:27:14.000Z</time>
      </trkpt>
      <trkpt lat="46.20318" lon="-1.49679">
        <ele>49.36857</ele>
        <time>2023-05-28T15:27:15.000Z</time>
      </trkpt>
      <trkpt lat="46.20322" lon="-1.49687">
        <ele>49.45507</ele>
        <time>2023-05-28T15:27:16.000Z</time>
      </trkpt>
      <trkpt lat="46.20325" lon="-1.49694">
        <ele>49.55032</ele>
        <time>2023-05-28T15:27:17.000Z</time>
      </trkpt>
      <trkpt lat="46.20329" lon="-1.49699">
        <ele>49.63995</ele>
        <time>2023-05-28T15:27:18.000Z</time>
      </trkpt>
      <trkpt lat="46.20333" lon="-1.49706">
        <ele>49.70855</ele>
        <time>2023-05-28T15:27:19.000Z</time>
      </trkpt>
      <trkpt lat="46.20338" lon="-1.49712">
        <ele>49.75773</ele>
        <time>2023-05-28T15:27:20.000Z</time>
      </trkpt>
      <trkpt lat="46.20341" lon="-1.49718">
        <ele>49.82476</ele>
        <time>2023-05-28T15:27:21.000Z</time>
      </trkpt>
      <trkpt lat="46.20346" lon="-1.49724">
        <ele>49.90171</ele>
        <time>2023-05-28T15:27:22.000Z</time>
      </trkpt>
      <trkpt lat="46.2035" lon="-1.49729">
        <ele>49.95199</ele>
        <time>2023-05-28T15:27:23.000Z</time>
      </trkpt>
      <trkpt lat="46.20355" lon="-1.49735">
        <ele>49.97326</ele>
        <time>2023-05-28T15:27:24.000Z</time>
      </trkpt>
      <trkpt lat="46.2036" lon="-1.49741">
        <ele>49.98891</ele>
        <time>2023-05-28T15:27:25.000Z</time>
      </trkpt>
      <trkpt lat="46.20364" lon="-1.49746">
        <ele>49.99026</ele>
        <time>2023-05-28T15:27:26.000Z</time>
      </trkpt>
      <trkpt lat="46.20369" lon="-1.49752">
        <ele>50.00326</ele>
        <time>2023-05-28T15:27:27.000Z</time>
      </trkpt>
      <trkpt lat="46.20374" lon="-1.49758">
        <ele>50.00478</ele>
        <time>2023-05-28T15:27:28.000Z</time>
      </trkpt>
      <trkpt lat="46.20378" lon="-1.49764">
        <ele>49.99657</ele>
        <time>2023-05-28T15:27:29.000Z</time>
      </trkpt>
      <trkpt lat="46.20382" lon="-1.49771">
        <ele>49.94441</ele>
        <time>2023-05-28T15:27:30.000Z</time>
      </trkpt>
      <trkpt lat="46.20387" lon="-1.49777">
        <ele>49.87909</ele>
        <time>2023-05-28T15:27:31.000Z</time>
      </trkpt>
      <trkpt lat="46.2039" lon="-1.49784">
        <ele>49.8309</ele>
        <time>2023-05-28T15:27:32.000Z</time>
      </trkpt>
      <trkpt lat="46.20393" lon="-1.49791">
        <ele>49.75009</ele>
        <time>2023-05-28T15:27:33.000Z</time>
      </trkpt>
      <trkpt lat="46.20396" lon="-1.49798">
        <ele>49.69865</ele>
        <time>2023-05-28T15:27:34.000Z</time>
      </trkpt>
      <trkpt lat="46.20398" lon="-1.49805">
        <ele>49.59476</ele>
        <time>2023-05-28T15:27:35.000Z</time>
      </trkpt>
      <trkpt lat="46.20401" lon="-1.49813">
        <ele>49.48716</ele>
        <time>2023-05-28T15:27:36.000Z</time>
      </trkpt>
      <trkpt lat="46.20402" lon="-1.49821">
        <ele>49.37032</ele>
        <time>2023-05-28T15:27:37.000Z</time>
      </trkpt>
      <trkpt lat="46.20403" lon="-1.49829">
        <ele>49.27347</ele>
        <time>2023-05-28T15:27:38.000Z</time>
      </trkpt>
      <trkpt lat="46.20405" lon="-1.49838">
        <ele>49.18584</ele>
        <time>2023-05-28T15:27:39.000Z</time>
      </trkpt>
      <trkpt lat="46.20406" lon="-1.49846">
        <ele>49.12056</ele>
        <time>2023-05-28T15:27:40.000Z</time>
      </trkpt>
      <trkpt lat="46.20407" lon="-1.49855">
        <ele>49.06306</ele>
        <time>2023-05-28T15:27:41.000Z</time>
      </trkpt>
      <trkpt lat="46.20408" lon="-1.49864">
        <ele>49.00541</ele>
        <time>2023-05-28T15:27:42.000Z</time>
      </trkpt>
      <trkpt lat="46.20409" lon="-1.49872">
        <ele>48.94712</ele>
        <time>2023-05-28T15:27:43.000Z</time>
      </trkpt>
      <trkpt lat="46.2041" lon="-1.49881">
        <ele>48.88167</ele>
        <time>2023-05-28T15:27:44.000Z</time>
      </trkpt>
      <trkpt lat="46.2041" lon="-1.49889">
        <ele>48.80307</ele>
        <time>2023-05-28T15:27:45.000Z</time>
      </trkpt>
      <trkpt lat="46.2041" lon="-1.49897">
        <ele>48.7367</ele>
        <time>2023-05-28T15:27:46.000Z</time>
      </trkpt>
      <trkpt lat="46.20411" lon="-1.49905">
        <ele>48.69908</ele>
        <time>2023-05-28T15:27:47.000Z</time>
      </trkpt>
      <trkpt lat="46.20411" lon="-1.49914">
        <ele>48.68822</ele>
        <time>2023-05-28T15:27:48.000Z</time>
      </trkpt>
      <trkpt lat="46.20411" lon="-1.49922">
        <ele>48.68896</ele>
        <time>2023-05-28T15:27:49.000Z</time>
      </trkpt>
      <trkpt lat="46.20412" lon="-1.49931">
        <ele>48.71076</ele>
        <time>2023-05-28T15:27:50.000Z</time>
      </trkpt>
      <trkpt lat="46.20412" lon="-1.49939">
        <ele>48.74549</ele>
        <time>2023-05-28T15:27:51.000Z</time>
      </trkpt>
      <trkpt lat="46.20412" lon="-1.49947">
        <ele>48.77663</ele>
        <time>2023-05-28T15:27:52.000Z</time>
      </trkpt>
      <trkpt lat="46.20411" lon="-1.49954">
        <ele>48.81873</ele>
        <time>2023-05-28T15:27:53.000Z</time>
      </trkpt>
      <trkpt lat="46.20409" lon="-1.49961">
        <ele>48.84157</ele>
        <time>2023-05-28T15:27:54.000Z</time>
      </trkpt>
      <trkpt lat="46.20407" lon="-1.49968">
        <ele>48.86593</ele>
        <time>2023-05-28T15:27:55.000Z</time>
      </trkpt>
      <trkpt lat="46.20406" lon="-1.49976">
        <ele>48.89674</ele>
        <time>2023-05-28T15:27:56.000Z</time>
      </trkpt>
      <trkpt lat="46.20404" lon="-1.49983">
        <ele>48.93024</ele>
        <time>2023-05-28T15:27:57.000Z</time>
      </trkpt>
      <trkpt lat="46.20403" lon="-1.49991">
        <ele>48.96467</ele>
        <time>2023-05-28T15:27:58.000Z</time>
      </trkpt>
      <trkpt lat="46.20402" lon="-1.49997">
        <ele>49.01471</ele>
        <time>2023-05-28T15:27:59.000Z</time>
      </trkpt>
      <trkpt lat="46.20401" lon="-1.50005">
        <ele>49.03798</ele>
        <time>2023-05-28T15:28:00.000Z</time>
      </trkpt>
      <trkpt lat="46.204" lon="-1.50012">
        <ele>49.05868</ele>
        <time>2023-05-28T15:28:01.000Z</time>
      </trkpt>
      <trkpt lat="46.204" lon="-1.50019">
        <ele>49.08195</ele>
        <time>2023-05-28T15:28:02.000Z</time>
      </trkpt>
      <trkpt lat="46.204" lon="-1.50026">
        <ele>49.106</ele>
        <time>2023-05-28T15:28:03.000Z</time>
      </trkpt>
      <trkpt lat="46.20399" lon="-1.50033">
        <ele>49.12757</ele>
        <time>2023-05-28T15:28:04.000Z</time>
      </trkpt>
      <trkpt lat="46.20399" lon="-1.5004">
        <ele>49.17026</ele>
        <time>2023-05-28T15:28:05.000Z</time>
      </trkpt>
      <trkpt lat="46.204" lon="-1.50048">
        <ele>49.21289</ele>
        <time>2023-05-28T15:28:06.000Z</time>
      </trkpt>
      <trkpt lat="46.204" lon="-1.50055">
        <ele>49.24317</ele>
        <time>2023-05-28T15:28:07.000Z</time>
      </trkpt>
      <trkpt lat="46.204" lon="-1.50062">
        <ele>49.27041</ele>
        <time>2023-05-28T15:28:08.000Z</time>
      </trkpt>
      <trkpt lat="46.204" lon="-1.5007">
        <ele>49.29186</ele>
        <time>2023-05-28T15:28:09.000Z</time>
      </trkpt>
      <trkpt lat="46.204" lon="-1.50077">
        <ele>49.29527</ele>
        <time>2023-05-28T15:28:10.000Z</time>
      </trkpt>
      <trkpt lat="46.20401" lon="-1.50084">
        <ele>49.29789</ele>
        <time>2023-05-28T15:28:11.000Z</time>
      </trkpt>
      <trkpt lat="46.20401" lon="-1.50092">
        <ele>49.29941</ele>
        <time>2023-05-28T15:28:12.000Z</time>
      </trkpt>
      <trkpt lat="46.20401" lon="-1.50099">
        <ele>49.29753</ele>
        <time>2023-05-28T15:28:13.000Z</time>
      </trkpt>
      <trkpt lat="46.20401" lon="-1.50106">
        <ele>49.30467</ele>
        <time>2023-05-28T15:28:14.000Z</time>
      </trkpt>
      <trkpt lat="46.20401" lon="-1.50114">
        <ele>49.31057</ele>
        <time>2023-05-28T15:28:15.000Z</time>
      </trkpt>
      <trkpt lat="46.20401" lon="-1.50121">
        <ele>49.30958</ele>
        <time>2023-05-28T15:28:16.000Z</time>
      </trkpt>
      <trkpt lat="46.20402" lon="-1.50128">
        <ele>49.29288</ele>
        <time>2023-05-28T15:28:17.000Z</time>
      </trkpt>
      <trkpt lat="46.20402" lon="-1.50136">
        <ele>49.2539</ele>
        <time>2023-05-28T15:28:18.000Z</time>
      </trkpt>
      <trkpt lat="46.20402" lon="-1.50142">
        <ele>49.23384</ele>
        <time>2023-05-28T15:28:19.000Z</time>
      </trkpt>
      <trkpt lat="46.20402" lon="-1.50149">
        <ele>49.22396</ele>
        <time>2023-05-28T15:28:20.000Z</time>
      </trkpt>
      <trkpt lat="46.20402" lon="-1.50156">
        <ele>49.20443</ele>
        <time>2023-05-28T15:28:21.000Z</time>
      </trkpt>
      <trkpt lat="46.20402" lon="-1.50163">
        <ele>49.17364</ele>
        <time>2023-05-28T15:28:22.000Z</time>
      </trkpt>
      <trkpt lat="46.20402" lon="-1.50169">
        <ele>49.1413</ele>
        <time>2023-05-28T15:28:23.000Z</time>
      </trkpt>
      <trkpt lat="46.20403" lon="-1.50176">
        <ele>49.12309</ele>
        <time>2023-05-28T15:28:24.000Z</time>
      </trkpt>
      <trkpt lat="46.20402" lon="-1.50182">
        <ele>49.09247</ele>
        <time>2023-05-28T15:28:25.000Z</time>
      </trkpt>
      <trkpt lat="46.20402" lon="-1.50189">
        <ele>49.06214</ele>
        <time>2023-05-28T15:28:26.000Z</time>
      </trkpt>
      <trkpt lat="46.20403" lon="-1.50196">
        <ele>49.0369</ele>
        <time>2023-05-28T15:28:27.000Z</time>
      </trkpt>
      <trkpt lat="46.20404" lon="-1.50203">
        <ele>49.01053</ele>
        <time>2023-05-28T15:28:28.000Z</time>
      </trkpt>
      <trkpt lat="46.20405" lon="-1.50209">
        <ele>48.98689</ele>
        <time>2023-05-28T15:28:29.000Z</time>
      </trkpt>
      <trkpt lat="46.20405" lon="-1.50217">
        <ele>48.97793</ele>
        <time>2023-05-28T15:28:30.000Z</time>
      </trkpt>
      <trkpt lat="46.20407" lon="-1.50224">
        <ele>48.97948</ele>
        <time>2023-05-28T15:28:31.000Z</time>
      </trkpt>
      <trkpt lat="46.20408" lon="-1.5023">
        <ele>48.97353</ele>
        <time>2023-05-28T15:28:32.000Z</time>
      </trkpt>
      <trkpt lat="46.20409" lon="-1.50238">
        <ele>48.97404</ele>
        <time>2023-05-28T15:28:33.000Z</time>
      </trkpt>
      <trkpt lat="46.20411" lon="-1.50246">
        <ele>48.95174</ele>
        <time>2023-05-28T15:28:34.000Z</time>
      </trkpt>
      <trkpt lat="46.20412" lon="-1.50252">
        <ele>48.94437</ele>
        <time>2023-05-28T15:28:35.000Z</time>
      </trkpt>
      <trkpt lat="46.20413" lon="-1.50259">
        <ele>48.93313</ele>
        <time>2023-05-28T15:28:36.000Z</time>
      </trkpt>
      <trkpt lat="46.20415" lon="-1.50265">
        <ele>48.93998</ele>
        <time>2023-05-28T15:28:37.000Z</time>
      </trkpt>
      <trkpt lat="46.20416" lon="-1.50272">
        <ele>48.96186</ele>
        <time>2023-05-28T15:28:38.000Z</time>
      </trkpt>
      <trkpt lat="46.20418" lon="-1.50278">
        <ele>48.97931</ele>
        <time>2023-05-28T15:28:39.000Z</time>
      </trkpt>
      <trkpt lat="46.20421" lon="-1.50287">
        <ele>48.97421</ele>
        <time>2023-05-28T15:28:40.000Z</time>
      </trkpt>
      <trkpt lat="46.20423" lon="-1.50293">
        <ele>48.95307</ele>
        <time>2023-05-28T15:28:41.000Z</time>
      </trkpt>
      <trkpt lat="46.20425" lon="-1.503">
        <ele>48.91489</ele>
        <time>2023-05-28T15:28:42.000Z</time>
      </trkpt>
      <trkpt lat="46.20428" lon="-1.50306">
        <ele>48.88604</ele>
        <time>2023-05-28T15:28:43.000Z</time>
      </trkpt>
      <trkpt lat="46.20431" lon="-1.50311">
        <ele>48.85974</ele>
        <time>2023-05-28T15:28:44.000Z</time>
      </trkpt>
      <trkpt lat="46.20433" lon="-1.50317">
        <ele>48.82996</ele>
        <time>2023-05-28T15:28:45.000Z</time>
      </trkpt>
      <trkpt lat="46.20436" lon="-1.50324">
        <ele>48.80753</ele>
        <time>2023-05-28T15:28:46.000Z</time>
      </trkpt>
      <trkpt lat="46.20439" lon="-1.5033">
        <ele>48.79659</ele>
        <time>2023-05-28T15:28:47.000Z</time>
      </trkpt>
      <trkpt lat="46.20442" lon="-1.50334">
        <ele>48.7914</ele>
        <time>2023-05-28T15:28:48.000Z</time>
      </trkpt>
      <trkpt lat="46.20445" lon="-1.5034">
        <ele>48.74085</ele>
        <time>2023-05-28T15:28:49.000Z</time>
      </trkpt>
      <trkpt lat="46.20448" lon="-1.50346">
        <ele>48.6843</ele>
        <time>2023-05-28T15:28:50.000Z</time>
      </trkpt>
      <trkpt lat="46.20451" lon="-1.50351">
        <ele>48.61779</ele>
        <time>2023-05-28T15:28:51.000Z</time>
      </trkpt>
      <trkpt lat="46.20454" lon="-1.50357">
        <ele>48.54125</ele>
        <time>2023-05-28T15:28:52.000Z</time>
      </trkpt>
      <trkpt lat="46.20458" lon="-1.50362">
        <ele>48.46242</ele>
        <time>2023-05-28T15:28:53.000Z</time>
      </trkpt>
      <trkpt lat="46.20462" lon="-1.50366">
        <ele>48.38665</ele>
        <time>2023-05-28T15:28:54.000Z</time>
      </trkpt>
      <trkpt lat="46.20466" lon="-1.50371">
        <ele>48.31047</ele>
        <time>2023-05-28T15:28:55.000Z</time>
      </trkpt>
      <trkpt lat="46.2047" lon="-1.50375">
        <ele>48.24393</ele>
        <time>2023-05-28T15:28:56.000Z</time>
      </trkpt>
      <trkpt lat="46.20473" lon="-1.5038">
        <ele>48.16724</ele>
        <time>2023-05-28T15:28:57.000Z</time>
      </trkpt>
      <trkpt lat="46.20477" lon="-1.50384">
        <ele>48.0926</ele>
        <time>2023-05-28T15:28:58.000Z</time>
      </trkpt>
      <trkpt lat="46.2048" lon="-1.50388">
        <ele>48.00319</ele>
        <time>2023-05-28T15:28:59.000Z</time>
      </trkpt>
      <trkpt lat="46.20484" lon="-1.50393">
        <ele>47.92753</ele>
        <time>2023-05-28T15:29:00.000Z</time>
      </trkpt>
      <trkpt lat="46.20488" lon="-1.50397">
        <ele>47.88556</ele>
        <time>2023-05-28T15:29:01.000Z</time>
      </trkpt>
      <trkpt lat="46.20491" lon="-1.50401">
        <ele>47.86258</ele>
        <time>2023-05-28T15:29:02.000Z</time>
      </trkpt>
      <trkpt lat="46.20495" lon="-1.50405">
        <ele>47.8293</ele>
        <time>2023-05-28T15:29:03.000Z</time>
      </trkpt>
      <trkpt lat="46.20498" lon="-1.50411">
        <ele>47.78107</ele>
        <time>2023-05-28T15:29:04.000Z</time>
      </trkpt>
      <trkpt lat="46.20501" lon="-1.50416">
        <ele>47.74937</ele>
        <time>2023-05-28T15:29:05.000Z</time>
      </trkpt>
      <trkpt lat="46.20503" lon="-1.50422">
        <ele>47.7192</ele>
        <time>2023-05-28T15:29:06.000Z</time>
      </trkpt>
      <trkpt lat="46.20506" lon="-1.50426">
        <ele>47.67442</ele>
        <time>2023-05-28T15:29:07.000Z</time>
      </trkpt>
      <trkpt lat="46.20509" lon="-1.5043">
        <ele>47.6146</ele>
        <time>2023-05-28T15:29:08.000Z</time>
      </trkpt>
      <trkpt lat="46.20511" lon="-1.50435">
        <ele>47.60973</ele>
        <time>2023-05-28T15:29:09.000Z</time>
      </trkpt>
      <trkpt lat="46.20513" lon="-1.5044">
        <ele>47.59923</ele>
        <time>2023-05-28T15:29:10.000Z</time>
      </trkpt>
      <trkpt lat="46.20514" lon="-1.50444">
        <ele>47.59307</ele>
        <time>2023-05-28T15:29:11.000Z</time>
      </trkpt>
      <trkpt lat="46.20516" lon="-1.50448">
        <ele>47.61662</ele>
        <time>2023-05-28T15:29:12.000Z</time>
      </trkpt>
      <trkpt lat="46.20518" lon="-1.50452">
        <ele>47.64066</ele>
        <time>2023-05-28T15:29:13.000Z</time>
      </trkpt>
      <trkpt lat="46.2052" lon="-1.50455">
        <ele>47.68797</ele>
        <time>2023-05-28T15:29:14.000Z</time>
      </trkpt>
      <trkpt lat="46.20522" lon="-1.50458">
        <ele>47.74502</ele>
        <time>2023-05-28T15:29:15.000Z</time>
      </trkpt>
      <trkpt lat="46.20525" lon="-1.50461">
        <ele>47.79167</ele>
        <time>2023-05-28T15:29:16.000Z</time>
      </trkpt>
      <trkpt lat="46.20528" lon="-1.50464">
        <ele>47.8284</ele>
        <time>2023-05-28T15:29:17.000Z</time>
      </trkpt>
      <trkpt lat="46.2053" lon="-1.50467">
        <ele>47.84442</ele>
        <time>2023-05-28T15:29:18.000Z</time>
      </trkpt>
      <trkpt lat="46.20533" lon="-1.5047">
        <ele>47.85351</ele>
        <time>2023-05-28T15:29:19.000Z</time>
      </trkpt>
      <trkpt lat="46.20536" lon="-1.50473">
        <ele>47.86462</ele>
        <time>2023-05-28T15:29:20.000Z</time>
      </trkpt>
      <trkpt lat="46.20539" lon="-1.50476">
        <ele>47.83645</ele>
        <time>2023-05-28T15:29:21.000Z</time>
      </trkpt>
      <trkpt lat="46.20541" lon="-1.50479">
        <ele>47.82353</ele>
        <time>2023-05-28T15:29:22.000Z</time>
      </trkpt>
      <trkpt lat="46.20544" lon="-1.50481">
        <ele>47.80602</ele>
        <time>2023-05-28T15:29:23.000Z</time>
      </trkpt>
      <trkpt lat="46.20547" lon="-1.50483">
        <ele>47.81387</ele>
        <time>2023-05-28T15:29:24.000Z</time>
      </trkpt>
      <trkpt lat="46.2055" lon="-1.50485">
        <ele>47.79583</ele>
        <time>2023-05-28T15:29:25.000Z</time>
      </trkpt>
      <trkpt lat="46.20553" lon="-1.50487">
        <ele>47.7998</ele>
        <time>2023-05-28T15:29:26.000Z</time>
      </trkpt>
      <trkpt lat="46.20555" lon="-1.50488">
        <ele>47.81765</ele>
        <time>2023-05-28T15:29:27.000Z</time>
      </trkpt>
      <trkpt lat="46.20558" lon="-1.5049">
        <ele>47.84776</ele>
        <time>2023-05-28T15:29:28.000Z</time>
      </trkpt>
      <trkpt lat="46.20561" lon="-1.50491">
        <ele>47.86992</ele>
        <time>2023-05-28T15:29:29.000Z</time>
      </trkpt>
      <trkpt lat="46.20563" lon="-1.50493">
        <ele>47.87275</ele>
        <time>2023-05-28T15:29:30.000Z</time>
      </trkpt>
      <trkpt lat="46.20566" lon="-1.50495">
        <ele>47.8715</ele>
        <time>2023-05-28T15:29:31.000Z</time>
      </trkpt>
      <trkpt lat="46.20569" lon="-1.50496">
        <ele>47.83868</ele>
        <time>2023-05-28T15:29:32.000Z</time>
      </trkpt>
      <trkpt lat="46.20572" lon="-1.50498">
        <ele>47.79398</ele>
        <time>2023-05-28T15:29:33.000Z</time>
      </trkpt>
      <trkpt lat="46.20574" lon="-1.50499">
        <ele>47.74174</ele>
        <time>2023-05-28T15:29:34.000Z</time>
      </trkpt>
      <trkpt lat="46.20577" lon="-1.50501">
        <ele>47.68238</ele>
        <time>2023-05-28T15:29:35.000Z</time>
      </trkpt>
      <trkpt lat="46.2058" lon="-1.50502">
        <ele>47.6057</ele>
        <time>2023-05-28T15:29:36.000Z</time>
      </trkpt>
      <trkpt lat="46.20582" lon="-1.50503">
        <ele>47.54746</ele>
        <time>2023-05-28T15:29:37.000Z</time>
      </trkpt>
      <trkpt lat="46.20584" lon="-1.50505">
        <ele>47.50062</ele>
        <time>2023-05-28T15:29:38.000Z</time>
      </trkpt>
      <trkpt lat="46.20587" lon="-1.50506">
        <ele>47.41903</ele>
        <time>2023-05-28T15:29:39.000Z</time>
      </trkpt>
      <trkpt lat="46.20589" lon="-1.50507">
        <ele>47.36027</ele>
        <time>2023-05-28T15:29:40.000Z</time>
      </trkpt>
      <trkpt lat="46.20592" lon="-1.50508">
        <ele>47.33577</ele>
        <time>2023-05-28T15:29:41.000Z</time>
      </trkpt>
      <trkpt lat="46.20594" lon="-1.50509">
        <ele>47.32381</ele>
        <time>2023-05-28T15:29:42.000Z</time>
      </trkpt>
      <trkpt lat="46.20596" lon="-1.50511">
        <ele>47.35714</ele>
        <time>2023-05-28T15:29:43.000Z</time>
      </trkpt>
      <trkpt lat="46.20599" lon="-1.50512">
        <ele>47.37388</ele>
        <time>2023-05-28T15:29:44.000Z</time>
      </trkpt>
      <trkpt lat="46.20601" lon="-1.50514">
        <ele>47.41081</ele>
        <time>2023-05-28T15:29:45.000Z</time>
      </trkpt>
      <trkpt lat="46.20603" lon="-1.50515">
        <ele>47.42623</ele>
        <time>2023-05-28T15:29:46.000Z</time>
      </trkpt>
      <trkpt lat="46.20605" lon="-1.50516">
        <ele>47.42062</ele>
        <time>2023-05-28T15:29:47.000Z</time>
      </trkpt>
      <trkpt lat="46.20607" lon="-1.50518">
        <ele>47.40619</ele>
        <time>2023-05-28T15:29:48.000Z</time>
      </trkpt>
      <trkpt lat="46.20609" lon="-1.50519">
        <ele>47.39373</ele>
        <time>2023-05-28T15:29:49.000Z</time>
      </trkpt>
      <trkpt lat="46.20611" lon="-1.5052">
        <ele>47.38181</ele>
        <time>2023-05-28T15:29:50.000Z</time>
      </trkpt>
      <trkpt lat="46.20612" lon="-1.50521">
        <ele>47.3936</ele>
        <time>2023-05-28T15:29:52.000Z</time>
      </trkpt>
      <trkpt lat="46.20614" lon="-1.50524">
        <ele>47.46662</ele>
        <time>2023-05-28T15:30:24.000Z</time>
      </trkpt>
      <trkpt lat="46.20616" lon="-1.50524">
        <ele>47.56135</ele>
        <time>2023-05-28T15:30:25.000Z</time>
      </trkpt>
      <trkpt lat="46.20618" lon="-1.50525">
        <ele>47.66474</ele>
        <time>2023-05-28T15:30:26.000Z</time>
      </trkpt>
      <trkpt lat="46.20621" lon="-1.50526">
        <ele>47.76928</ele>
        <time>2023-05-28T15:30:27.000Z</time>
      </trkpt>
      <trkpt lat="46.20622" lon="-1.50527">
        <ele>47.90322</ele>
        <time>2023-05-28T15:30:28.000Z</time>
      </trkpt>
      <trkpt lat="46.20624" lon="-1.50528">
        <ele>48.03321</ele>
        <time>2023-05-28T15:30:29.000Z</time>
      </trkpt>
      <trkpt lat="46.20627" lon="-1.5053">
        <ele>48.1417</ele>
        <time>2023-05-28T15:30:30.000Z</time>
      </trkpt>
      <trkpt lat="46.2063" lon="-1.50532">
        <ele>48.29031</ele>
        <time>2023-05-28T15:30:31.000Z</time>
      </trkpt>
      <trkpt lat="46.20634" lon="-1.50535">
        <ele>48.43044</ele>
        <time>2023-05-28T15:30:32.000Z</time>
      </trkpt>
      <trkpt lat="46.20636" lon="-1.50539">
        <ele>48.5611</ele>
        <time>2023-05-28T15:30:33.000Z</time>
      </trkpt>
      <trkpt lat="46.2064" lon="-1.50541">
        <ele>48.67721</ele>
        <time>2023-05-28T15:30:34.000Z</time>
      </trkpt>
      <trkpt lat="46.20643" lon="-1.50544">
        <ele>48.76764</ele>
        <time>2023-05-28T15:30:35.000Z</time>
      </trkpt>
      <trkpt lat="46.20646" lon="-1.50546">
        <ele>48.85832</ele>
        <time>2023-05-28T15:30:36.000Z</time>
      </trkpt>
      <trkpt lat="46.20649" lon="-1.50549">
        <ele>48.95212</ele>
        <time>2023-05-28T15:30:37.000Z</time>
      </trkpt>
      <trkpt lat="46.20653" lon="-1.50552">
        <ele>49.02225</ele>
        <time>2023-05-28T15:30:38.000Z</time>
      </trkpt>
      <trkpt lat="46.20656" lon="-1.50555">
        <ele>49.10087</ele>
        <time>2023-05-28T15:30:39.000Z</time>
      </trkpt>
      <trkpt lat="46.2066" lon="-1.50557">
        <ele>49.18845</ele>
        <time>2023-05-28T15:30:40.000Z</time>
      </trkpt>
      <trkpt lat="46.20664" lon="-1.5056">
        <ele>49.27082</ele>
        <time>2023-05-28T15:30:41.000Z</time>
      </trkpt>
      <trkpt lat="46.20667" lon="-1.50564">
        <ele>49.37612</ele>
        <time>2023-05-28T15:30:42.000Z</time>
      </trkpt>
      <trkpt lat="46.20671" lon="-1.50568">
        <ele>49.44474</ele>
        <time>2023-05-28T15:30:43.000Z</time>
      </trkpt>
      <trkpt lat="46.20674" lon="-1.50571">
        <ele>49.47788</ele>
        <time>2023-05-28T15:30:44.000Z</time>
      </trkpt>
      <trkpt lat="46.20677" lon="-1.50576">
        <ele>49.49741</ele>
        <time>2023-05-28T15:30:45.000Z</time>
      </trkpt>
      <trkpt lat="46.2068" lon="-1.5058">
        <ele>49.50694</ele>
        <time>2023-05-28T15:30:46.000Z</time>
      </trkpt>
      <trkpt lat="46.20683" lon="-1.50585">
        <ele>49.4959</ele>
        <time>2023-05-28T15:30:47.000Z</time>
      </trkpt>
      <trkpt lat="46.20686" lon="-1.5059">
        <ele>49.48473</ele>
        <time>2023-05-28T15:30:48.000Z</time>
      </trkpt>
      <trkpt lat="46.20689" lon="-1.50595">
        <ele>49.44599</ele>
        <time>2023-05-28T15:30:49.000Z</time>
      </trkpt>
      <trkpt lat="46.20691" lon="-1.506">
        <ele>49.41427</ele>
        <time>2023-05-28T15:30:50.000Z</time>
      </trkpt>
      <trkpt lat="46.20693" lon="-1.50606">
        <ele>49.38414</ele>
        <time>2023-05-28T15:30:51.000Z</time>
      </trkpt>
      <trkpt lat="46.20695" lon="-1.50611">
        <ele>49.34048</ele>
        <time>2023-05-28T15:30:52.000Z</time>
      </trkpt>
      <trkpt lat="46.20696" lon="-1.50618">
        <ele>49.31171</ele>
        <time>2023-05-28T15:30:53.000Z</time>
      </trkpt>
      <trkpt lat="46.20698" lon="-1.50625">
        <ele>49.25779</ele>
        <time>2023-05-28T15:30:54.000Z</time>
      </trkpt>
      <trkpt lat="46.20699" lon="-1.50631">
        <ele>49.20638</ele>
        <time>2023-05-28T15:30:55.000Z</time>
      </trkpt>
      <trkpt lat="46.20699" lon="-1.50637">
        <ele>49.16029</ele>
        <time>2023-05-28T15:30:56.000Z</time>
      </trkpt>
      <trkpt lat="46.207" lon="-1.50643">
        <ele>49.10424</ele>
        <time>2023-05-28T15:30:57.000Z</time>
      </trkpt>
      <trkpt lat="46.20701" lon="-1.5065">
        <ele>49.06632</ele>
        <time>2023-05-28T15:30:58.000Z</time>
      </trkpt>
      <trkpt lat="46.20702" lon="-1.50656">
        <ele>49.02882</ele>
        <time>2023-05-28T15:30:59.000Z</time>
      </trkpt>
      <trkpt lat="46.20703" lon="-1.50662">
        <ele>49.00296</ele>
        <time>2023-05-28T15:31:00.000Z</time>
      </trkpt>
      <trkpt lat="46.20704" lon="-1.50667">
        <ele>49.01331</ele>
        <time>2023-05-28T15:31:01.000Z</time>
      </trkpt>
      <trkpt lat="46.20704" lon="-1.50674">
        <ele>49.02033</ele>
        <time>2023-05-28T15:31:02.000Z</time>
      </trkpt>
      <trkpt lat="46.20705" lon="-1.50681">
        <ele>49.06892</ele>
        <time>2023-05-28T15:31:03.000Z</time>
      </trkpt>
      <trkpt lat="46.20705" lon="-1.50687">
        <ele>49.1063</ele>
        <time>2023-05-28T15:31:04.000Z</time>
      </trkpt>
      <trkpt lat="46.20706" lon="-1.50694">
        <ele>49.13771</ele>
        <time>2023-05-28T15:31:05.000Z</time>
      </trkpt>
      <trkpt lat="46.20707" lon="-1.50702">
        <ele>49.1683</ele>
        <time>2023-05-28T15:31:06.000Z</time>
      </trkpt>
      <trkpt lat="46.20707" lon="-1.50708">
        <ele>49.2195</ele>
        <time>2023-05-28T15:31:07.000Z</time>
      </trkpt>
      <trkpt lat="46.20708" lon="-1.50714">
        <ele>49.26674</ele>
        <time>2023-05-28T15:31:08.000Z</time>
      </trkpt>
      <trkpt lat="46.20709" lon="-1.5072">
        <ele>49.31896</ele>
        <time>2023-05-28T15:31:09.000Z</time>
      </trkpt>
      <trkpt lat="46.20711" lon="-1.50725">
        <ele>49.36143</ele>
        <time>2023-05-28T15:31:10.000Z</time>
      </trkpt>
      <trkpt lat="46.20712" lon="-1.50731">
        <ele>49.4175</ele>
        <time>2023-05-28T15:31:11.000Z</time>
      </trkpt>
      <trkpt lat="46.20712" lon="-1.50737">
        <ele>49.48748</ele>
        <time>2023-05-28T15:31:12.000Z</time>
      </trkpt>
      <trkpt lat="46.20713" lon="-1.50742">
        <ele>49.56511</ele>
        <time>2023-05-28T15:31:13.000Z</time>
      </trkpt>
      <trkpt lat="46.20713" lon="-1.50747">
        <ele>49.65141</ele>
        <time>2023-05-28T15:31:14.000Z</time>
      </trkpt>
      <trkpt lat="46.20714" lon="-1.50752">
        <ele>49.74141</ele>
        <time>2023-05-28T15:31:15.000Z</time>
      </trkpt>
      <trkpt lat="46.20713" lon="-1.50758">
        <ele>49.81367</ele>
        <time>2023-05-28T15:31:16.000Z</time>
      </trkpt>
      <trkpt lat="46.20713" lon="-1.50763">
        <ele>49.8896</ele>
        <time>2023-05-28T15:31:17.000Z</time>
      </trkpt>
      <trkpt lat="46.20713" lon="-1.50768">
        <ele>49.96389</ele>
        <time>2023-05-28T15:31:18.000Z</time>
      </trkpt>
      <trkpt lat="46.20713" lon="-1.50773">
        <ele>50.03619</ele>
        <time>2023-05-28T15:31:19.000Z</time>
      </trkpt>
      <trkpt lat="46.20714" lon="-1.50777">
        <ele>50.08813</ele>
        <time>2023-05-28T15:31:20.000Z</time>
      </trkpt>
      <trkpt lat="46.20715" lon="-1.50782">
        <ele>50.12156</ele>
        <time>2023-05-28T15:31:21.000Z</time>
      </trkpt>
      <trkpt lat="46.20717" lon="-1.50787">
        <ele>50.15466</ele>
        <time>2023-05-28T15:31:22.000Z</time>
      </trkpt>
      <trkpt lat="46.20719" lon="-1.50791">
        <ele>50.15307</ele>
        <time>2023-05-28T15:31:23.000Z</time>
      </trkpt>
      <trkpt lat="46.20721" lon="-1.50796">
        <ele>50.18221</ele>
        <time>2023-05-28T15:31:24.000Z</time>
      </trkpt>
      <trkpt lat="46.20724" lon="-1.508">
        <ele>50.21402</ele>
        <time>2023-05-28T15:31:25.000Z</time>
      </trkpt>
      <trkpt lat="46.20726" lon="-1.50804">
        <ele>50.24587</ele>
        <time>2023-05-28T15:31:26.000Z</time>
      </trkpt>
      <trkpt lat="46.20729" lon="-1.50808">
        <ele>50.26281</ele>
        <time>2023-05-28T15:31:27.000Z</time>
      </trkpt>
      <trkpt lat="46.20731" lon="-1.50813">
        <ele>50.24976</ele>
        <time>2023-05-28T15:31:28.000Z</time>
      </trkpt>
      <trkpt lat="46.20733" lon="-1.50817">
        <ele>50.24492</ele>
        <time>2023-05-28T15:31:29.000Z</time>
      </trkpt>
      <trkpt lat="46.20735" lon="-1.50822">
        <ele>50.26736</ele>
        <time>2023-05-28T15:31:30.000Z</time>
      </trkpt>
      <trkpt lat="46.20738" lon="-1.50826">
        <ele>50.26258</ele>
        <time>2023-05-28T15:31:31.000Z</time>
      </trkpt>
      <trkpt lat="46.2074" lon="-1.5083">
        <ele>50.24587</ele>
        <time>2023-05-28T15:31:32.000Z</time>
      </trkpt>
      <trkpt lat="46.20742" lon="-1.50834">
        <ele>50.22669</ele>
        <time>2023-05-28T15:31:33.000Z</time>
      </trkpt>
      <trkpt lat="46.20745" lon="-1.50838">
        <ele>50.22187</ele>
        <time>2023-05-28T15:31:34.000Z</time>
      </trkpt>
      <trkpt lat="46.20747" lon="-1.50842">
        <ele>50.19408</ele>
        <time>2023-05-28T15:31:35.000Z</time>
      </trkpt>
      <trkpt lat="46.2075" lon="-1.50846">
        <ele>50.18287</ele>
        <time>2023-05-28T15:31:36.000Z</time>
      </trkpt>
      <trkpt lat="46.20753" lon="-1.5085">
        <ele>50.16963</ele>
        <time>2023-05-28T15:31:37.000Z</time>
      </trkpt>
      <trkpt lat="46.20756" lon="-1.50854">
        <ele>50.14371</ele>
        <time>2023-05-28T15:31:38.000Z</time>
      </trkpt>
      <trkpt lat="46.20759" lon="-1.50857">
        <ele>50.12247</ele>
        <time>2023-05-28T15:31:39.000Z</time>
      </trkpt>
      <trkpt lat="46.20762" lon="-1.5086">
        <ele>50.11755</ele>
        <time>2023-05-28T15:31:40.000Z</time>
      </trkpt>
      <trkpt lat="46.20764" lon="-1.50864">
        <ele>50.11318</ele>
        <time>2023-05-28T15:31:41.000Z</time>
      </trkpt>
      <trkpt lat="46.20767" lon="-1.50868">
        <ele>50.12366</ele>
        <time>2023-05-28T15:31:42.000Z</time>
      </trkpt>
      <trkpt lat="46.2077" lon="-1.50872">
        <ele>50.14162</ele>
        <time>2023-05-28T15:31:43.000Z</time>
      </trkpt>
      <trkpt lat="46.20774" lon="-1.50876">
        <ele>50.13143</ele>
        <time>2023-05-28T15:31:44.000Z</time>
      </trkpt>
      <trkpt lat="46.20777" lon="-1.5088">
        <ele>50.12506</ele>
        <time>2023-05-28T15:31:45.000Z</time>
      </trkpt>
      <trkpt lat="46.20782" lon="-1.50883">
        <ele>50.11053</ele>
        <time>2023-05-28T15:31:46.000Z</time>
      </trkpt>
      <trkpt lat="46.20785" lon="-1.50887">
        <ele>50.09752</ele>
        <time>2023-05-28T15:31:47.000Z</time>
      </trkpt>
      <trkpt lat="46.20789" lon="-1.50891">
        <ele>50.11092</ele>
        <time>2023-05-28T15:31:48.000Z</time>
      </trkpt>
      <trkpt lat="46.20792" lon="-1.50895">
        <ele>50.13186</ele>
        <time>2023-05-28T15:31:49.000Z</time>
      </trkpt>
      <trkpt lat="46.20795" lon="-1.50898">
        <ele>50.13565</ele>
        <time>2023-05-28T15:31:50.000Z</time>
      </trkpt>
      <trkpt lat="46.20798" lon="-1.50902">
        <ele>50.14878</ele>
        <time>2023-05-28T15:31:51.000Z</time>
      </trkpt>
      <trkpt lat="46.20801" lon="-1.50906">
        <ele>50.16085</ele>
        <time>2023-05-28T15:31:52.000Z</time>
      </trkpt>
      <trkpt lat="46.20804" lon="-1.50909">
        <ele>50.15938</ele>
        <time>2023-05-28T15:31:53.000Z</time>
      </trkpt>
      <trkpt lat="46.20807" lon="-1.50912">
        <ele>50.14923</ele>
        <time>2023-05-28T15:31:54.000Z</time>
      </trkpt>
      <trkpt lat="46.2081" lon="-1.50916">
        <ele>50.13732</ele>
        <time>2023-05-28T15:31:55.000Z</time>
      </trkpt>
      <trkpt lat="46.20812" lon="-1.50919">
        <ele>50.12348</ele>
        <time>2023-05-28T15:31:56.000Z</time>
      </trkpt>
      <trkpt lat="46.20815" lon="-1.50923">
        <ele>50.10573</ele>
        <time>2023-05-28T15:31:57.000Z</time>
      </trkpt>
      <trkpt lat="46.20817" lon="-1.50927">
        <ele>50.10334</ele>
        <time>2023-05-28T15:31:58.000Z</time>
      </trkpt>
      <trkpt lat="46.2082" lon="-1.50929">
        <ele>50.08468</ele>
        <time>2023-05-28T15:31:59.000Z</time>
      </trkpt>
      <trkpt lat="46.20822" lon="-1.50932">
        <ele>50.06249</ele>
        <time>2023-05-28T15:32:00.000Z</time>
      </trkpt>
      <trkpt lat="46.20825" lon="-1.50935">
        <ele>50.00904</ele>
        <time>2023-05-28T15:32:01.000Z</time>
      </trkpt>
      <trkpt lat="46.20827" lon="-1.50938">
        <ele>49.95374</ele>
        <time>2023-05-28T15:32:02.000Z</time>
      </trkpt>
      <trkpt lat="46.20829" lon="-1.50941">
        <ele>49.90775</ele>
        <time>2023-05-28T15:32:03.000Z</time>
      </trkpt>
      <trkpt lat="46.20832" lon="-1.50945">
        <ele>49.88959</ele>
        <time>2023-05-28T15:32:04.000Z</time>
      </trkpt>
      <trkpt lat="46.20835" lon="-1.5095">
        <ele>49.85412</ele>
        <time>2023-05-28T15:32:05.000Z</time>
      </trkpt>
      <trkpt lat="46.20838" lon="-1.50954">
        <ele>49.83387</ele>
        <time>2023-05-28T15:32:06.000Z</time>
      </trkpt>
      <trkpt lat="46.20841" lon="-1.50958">
        <ele>49.81733</ele>
        <time>2023-05-28T15:32:07.000Z</time>
      </trkpt>
      <trkpt lat="46.20844" lon="-1.50962">
        <ele>49.79515</ele>
        <time>2023-05-28T15:32:08.000Z</time>
      </trkpt>
      <trkpt lat="46.20846" lon="-1.50966">
        <ele>49.77728</ele>
        <time>2023-05-28T15:32:09.000Z</time>
      </trkpt>
      <trkpt lat="46.20849" lon="-1.5097">
        <ele>49.78638</ele>
        <time>2023-05-28T15:32:10.000Z</time>
      </trkpt>
      <trkpt lat="46.20852" lon="-1.50974">
        <ele>49.79322</ele>
        <time>2023-05-28T15:32:11.000Z</time>
      </trkpt>
      <trkpt lat="46.20855" lon="-1.50979">
        <ele>49.79573</ele>
        <time>2023-05-28T15:32:12.000Z</time>
      </trkpt>
      <trkpt lat="46.20857" lon="-1.50983">
        <ele>49.81117</ele>
        <time>2023-05-28T15:32:13.000Z</time>
      </trkpt>
      <trkpt lat="46.2086" lon="-1.50987">
        <ele>49.82911</ele>
        <time>2023-05-28T15:32:14.000Z</time>
      </trkpt>
      <trkpt lat="46.20863" lon="-1.50991">
        <ele>49.85276</ele>
        <time>2023-05-28T15:32:15.000Z</time>
      </trkpt>
      <trkpt lat="46.20865" lon="-1.50995">
        <ele>49.87913</ele>
        <time>2023-05-28T15:32:16.000Z</time>
      </trkpt>
      <trkpt lat="46.20868" lon="-1.50999">
        <ele>49.91811</ele>
        <time>2023-05-28T15:32:17.000Z</time>
      </trkpt>
      <trkpt lat="46.2087" lon="-1.51004">
        <ele>49.959</ele>
        <time>2023-05-28T15:32:18.000Z</time>
      </trkpt>
      <trkpt lat="46.20873" lon="-1.51008">
        <ele>49.99125</ele>
        <time>2023-05-28T15:32:19.000Z</time>
      </trkpt>
      <trkpt lat="46.20876" lon="-1.51012">
        <ele>50.02351</ele>
        <time>2023-05-28T15:32:20.000Z</time>
      </trkpt>
      <trkpt lat="46.20878" lon="-1.51017">
        <ele>50.04571</ele>
        <time>2023-05-28T15:32:21.000Z</time>
      </trkpt>
      <trkpt lat="46.2088" lon="-1.51021">
        <ele>50.04865</ele>
        <time>2023-05-28T15:32:22.000Z</time>
      </trkpt>
      <trkpt lat="46.20882" lon="-1.51026">
        <ele>50.04835</ele>
        <time>2023-05-28T15:32:23.000Z</time>
      </trkpt>
      <trkpt lat="46.20884" lon="-1.51031">
        <ele>50.01835</ele>
        <time>2023-05-28T15:32:24.000Z</time>
      </trkpt>
      <trkpt lat="46.20885" lon="-1.51036">
        <ele>50.00019</ele>
        <time>2023-05-28T15:32:25.000Z</time>
      </trkpt>
      <trkpt lat="46.20887" lon="-1.51041">
        <ele>49.97699</ele>
        <time>2023-05-28T15:32:26.000Z</time>
      </trkpt>
      <trkpt lat="46.20888" lon="-1.51047">
        <ele>49.95982</ele>
        <time>2023-05-28T15:32:27.000Z</time>
      </trkpt>
      <trkpt lat="46.20889" lon="-1.51052">
        <ele>49.94859</ele>
        <time>2023-05-28T15:32:28.000Z</time>
      </trkpt>
      <trkpt lat="46.2089" lon="-1.51057">
        <ele>49.92832</ele>
        <time>2023-05-28T15:32:29.000Z</time>
      </trkpt>
      <trkpt lat="46.2089" lon="-1.51063">
        <ele>49.89302</ele>
        <time>2023-05-28T15:32:30.000Z</time>
      </trkpt>
      <trkpt lat="46.20891" lon="-1.51069">
        <ele>49.87762</ele>
        <time>2023-05-28T15:32:31.000Z</time>
      </trkpt>
      <trkpt lat="46.20892" lon="-1.51075">
        <ele>49.8508</ele>
        <time>2023-05-28T15:32:32.000Z</time>
      </trkpt>
      <trkpt lat="46.20894" lon="-1.5108">
        <ele>49.81847</ele>
        <time>2023-05-28T15:32:33.000Z</time>
      </trkpt>
      <trkpt lat="46.20896" lon="-1.51086">
        <ele>49.80884</ele>
        <time>2023-05-28T15:32:34.000Z</time>
      </trkpt>
      <trkpt lat="46.20897" lon="-1.51091">
        <ele>49.79609</ele>
        <time>2023-05-28T15:32:35.000Z</time>
      </trkpt>
      <trkpt lat="46.20899" lon="-1.51095">
        <ele>49.78224</ele>
        <time>2023-05-28T15:32:36.000Z</time>
      </trkpt>
      <trkpt lat="46.20901" lon="-1.51099">
        <ele>49.76209</ele>
        <time>2023-05-28T15:32:37.000Z</time>
      </trkpt>
      <trkpt lat="46.20903" lon="-1.51103">
        <ele>49.73197</ele>
        <time>2023-05-28T15:32:38.000Z</time>
      </trkpt>
      <trkpt lat="46.20906" lon="-1.51107">
        <ele>49.71476</ele>
        <time>2023-05-28T15:32:39.000Z</time>
      </trkpt>
      <trkpt lat="46.20908" lon="-1.5111">
        <ele>49.68652</ele>
        <time>2023-05-28T15:32:40.000Z</time>
      </trkpt>
      <trkpt lat="46.2091" lon="-1.51113">
        <ele>49.68601</ele>
        <time>2023-05-28T15:32:41.000Z</time>
      </trkpt>
      <trkpt lat="46.20912" lon="-1.51115">
        <ele>49.7009</ele>
        <time>2023-05-28T15:32:42.000Z</time>
      </trkpt>
      <trkpt lat="46.20914" lon="-1.51116">
        <ele>49.68643</ele>
        <time>2023-05-28T15:32:43.000Z</time>
      </trkpt>
      <trkpt lat="46.20917" lon="-1.51118">
        <ele>49.68517</ele>
        <time>2023-05-28T15:32:44.000Z</time>
      </trkpt>
      <trkpt lat="46.20918" lon="-1.51119">
        <ele>49.69244</ele>
        <time>2023-05-28T15:32:45.000Z</time>
      </trkpt>
      <trkpt lat="46.2092" lon="-1.51122">
        <ele>49.71056</ele>
        <time>2023-05-28T15:32:46.000Z</time>
      </trkpt>
      <trkpt lat="46.20921" lon="-1.51125">
        <ele>49.71471</ele>
        <time>2023-05-28T15:32:47.000Z</time>
      </trkpt>
      <trkpt lat="46.20922" lon="-1.51128">
        <ele>49.71342</ele>
        <time>2023-05-28T15:32:48.000Z</time>
      </trkpt>
      <trkpt lat="46.20923" lon="-1.51131">
        <ele>49.70714</ele>
        <time>2023-05-28T15:32:49.000Z</time>
      </trkpt>
      <trkpt lat="46.20924" lon="-1.51134">
        <ele>49.70797</ele>
        <time>2023-05-28T15:32:50.000Z</time>
      </trkpt>
      <trkpt lat="46.20926" lon="-1.51138">
        <ele>49.70214</ele>
        <time>2023-05-28T15:32:51.000Z</time>
      </trkpt>
      <trkpt lat="46.20928" lon="-1.51141">
        <ele>49.72649</ele>
        <time>2023-05-28T15:32:52.000Z</time>
      </trkpt>
      <trkpt lat="46.2093" lon="-1.51144">
        <ele>49.7609</ele>
        <time>2023-05-28T15:32:53.000Z</time>
      </trkpt>
      <trkpt lat="46.20933" lon="-1.51147">
        <ele>49.77867</ele>
        <time>2023-05-28T15:32:54.000Z</time>
      </trkpt>
      <trkpt lat="46.20936" lon="-1.5115">
        <ele>49.81404</ele>
        <time>2023-05-28T15:32:55.000Z</time>
      </trkpt>
      <trkpt lat="46.20939" lon="-1.51153">
        <ele>49.85114</ele>
        <time>2023-05-28T15:32:56.000Z</time>
      </trkpt>
      <trkpt lat="46.20941" lon="-1.51155">
        <ele>49.87894</ele>
        <time>2023-05-28T15:32:57.000Z</time>
      </trkpt>
      <trkpt lat="46.20944" lon="-1.51158">
        <ele>49.87417</ele>
        <time>2023-05-28T15:32:58.000Z</time>
      </trkpt>
      <trkpt lat="46.20946" lon="-1.51162">
        <ele>49.88752</ele>
        <time>2023-05-28T15:32:59.000Z</time>
      </trkpt>
      <trkpt lat="46.20949" lon="-1.51165">
        <ele>49.9025</ele>
        <time>2023-05-28T15:33:00.000Z</time>
      </trkpt>
      <trkpt lat="46.20951" lon="-1.51168">
        <ele>49.90722</ele>
        <time>2023-05-28T15:33:01.000Z</time>
      </trkpt>
      <trkpt lat="46.20953" lon="-1.51171">
        <ele>49.89825</ele>
        <time>2023-05-28T15:33:02.000Z</time>
      </trkpt>
      <trkpt lat="46.20956" lon="-1.51174">
        <ele>49.9096</ele>
        <time>2023-05-28T15:33:03.000Z</time>
      </trkpt>
      <trkpt lat="46.20958" lon="-1.51177">
        <ele>49.89855</ele>
        <time>2023-05-28T15:33:04.000Z</time>
      </trkpt>
      <trkpt lat="46.2096" lon="-1.5118">
        <ele>49.85578</ele>
        <time>2023-05-28T15:33:05.000Z</time>
      </trkpt>
      <trkpt lat="46.20961" lon="-1.51184">
        <ele>49.79905</ele>
        <time>2023-05-28T15:33:06.000Z</time>
      </trkpt>
      <trkpt lat="46.20962" lon="-1.51188">
        <ele>49.75035</ele>
        <time>2023-05-28T15:33:07.000Z</time>
      </trkpt>
      <trkpt lat="46.20963" lon="-1.51192">
        <ele>49.69478</ele>
        <time>2023-05-28T15:33:08.000Z</time>
      </trkpt>
      <trkpt lat="46.20964" lon="-1.51194">
        <ele>49.66697</ele>
        <time>2023-05-28T15:33:09.000Z</time>
      </trkpt>
      <trkpt lat="46.20966" lon="-1.51197">
        <ele>49.6235</ele>
        <time>2023-05-28T15:33:10.000Z</time>
      </trkpt>
      <trkpt lat="46.20968" lon="-1.512">
        <ele>49.54582</ele>
        <time>2023-05-28T15:33:11.000Z</time>
      </trkpt>
      <trkpt lat="46.20969" lon="-1.51203">
        <ele>49.4689</ele>
        <time>2023-05-28T15:33:12.000Z</time>
      </trkpt>
      <trkpt lat="46.20971" lon="-1.51206">
        <ele>49.39082</ele>
        <time>2023-05-28T15:33:13.000Z</time>
      </trkpt>
      <trkpt lat="46.20973" lon="-1.51208">
        <ele>49.33139</ele>
        <time>2023-05-28T15:33:14.000Z</time>
      </trkpt>
      <trkpt lat="46.20975" lon="-1.5121">
        <ele>49.27757</ele>
        <time>2023-05-28T15:33:15.000Z</time>
      </trkpt>
      <trkpt lat="46.20977" lon="-1.51211">
        <ele>49.23869</ele>
        <time>2023-05-28T15:33:16.000Z</time>
      </trkpt>
      <trkpt lat="46.20979" lon="-1.51213">
        <ele>49.1688</ele>
        <time>2023-05-28T15:33:17.000Z</time>
      </trkpt>
      <trkpt lat="46.20981" lon="-1.51215">
        <ele>49.14211</ele>
        <time>2023-05-28T15:33:18.000Z</time>
      </trkpt>
      <trkpt lat="46.20983" lon="-1.51216">
        <ele>49.1033</ele>
        <time>2023-05-28T15:33:19.000Z</time>
      </trkpt>
      <trkpt lat="46.20985" lon="-1.51218">
        <ele>49.06257</ele>
        <time>2023-05-28T15:33:20.000Z</time>
      </trkpt>
      <trkpt lat="46.20987" lon="-1.51219">
        <ele>49.0264</ele>
        <time>2023-05-28T15:33:21.000Z</time>
      </trkpt>
      <trkpt lat="46.20989" lon="-1.51221">
        <ele>49.0042</ele>
        <time>2023-05-28T15:33:22.000Z</time>
      </trkpt>
      <trkpt lat="46.20991" lon="-1.51223">
        <ele>48.96445</ele>
        <time>2023-05-28T15:33:23.000Z</time>
      </trkpt>
      <trkpt lat="46.20993" lon="-1.51224">
        <ele>48.94869</ele>
        <time>2023-05-28T15:33:24.000Z</time>
      </trkpt>
      <trkpt lat="46.20996" lon="-1.51226">
        <ele>48.97628</ele>
        <time>2023-05-28T15:33:25.000Z</time>
      </trkpt>
      <trkpt lat="46.20999" lon="-1.51227">
        <ele>49.04426</ele>
        <time>2023-05-28T15:33:26.000Z</time>
      </trkpt>
      <trkpt lat="46.21002" lon="-1.51229">
        <ele>49.10268</ele>
        <time>2023-05-28T15:33:27.000Z</time>
      </trkpt>
      <trkpt lat="46.21005" lon="-1.5123">
        <ele>49.16982</ele>
        <time>2023-05-28T15:33:28.000Z</time>
      </trkpt>
      <trkpt lat="46.21009" lon="-1.5123">
        <ele>49.23904</ele>
        <time>2023-05-28T15:33:29.000Z</time>
      </trkpt>
      <trkpt lat="46.21012" lon="-1.51231">
        <ele>49.30979</ele>
        <time>2023-05-28T15:33:30.000Z</time>
      </trkpt>
      <trkpt lat="46.21015" lon="-1.51231">
        <ele>49.404</ele>
        <time>2023-05-28T15:33:31.000Z</time>
      </trkpt>
      <trkpt lat="46.21017" lon="-1.51232">
        <ele>49.48859</ele>
        <time>2023-05-28T15:33:32.000Z</time>
      </trkpt>
      <trkpt lat="46.21019" lon="-1.51232">
        <ele>49.55914</ele>
        <time>2023-05-28T15:33:33.000Z</time>
      </trkpt>
      <trkpt lat="46.21021" lon="-1.51233">
        <ele>49.60929</ele>
        <time>2023-05-28T15:33:34.000Z</time>
      </trkpt>
      <trkpt lat="46.21023" lon="-1.51233">
        <ele>49.64663</ele>
        <time>2023-05-28T15:33:35.000Z</time>
      </trkpt>
      <trkpt lat="46.21026" lon="-1.51233">
        <ele>49.67005</ele>
        <time>2023-05-28T15:33:36.000Z</time>
      </trkpt>
      <trkpt lat="46.21028" lon="-1.51232">
        <ele>49.73345</ele>
        <time>2023-05-28T15:33:37.000Z</time>
      </trkpt>
      <trkpt lat="46.21031" lon="-1.51232">
        <ele>49.78046</ele>
        <time>2023-05-28T15:33:38.000Z</time>
      </trkpt>
      <trkpt lat="46.21034" lon="-1.51231">
        <ele>49.82189</ele>
        <time>2023-05-28T15:33:39.000Z</time>
      </trkpt>
      <trkpt lat="46.21037" lon="-1.51229">
        <ele>49.86565</ele>
        <time>2023-05-28T15:33:40.000Z</time>
      </trkpt>
      <trkpt lat="46.21039" lon="-1.51227">
        <ele>49.90638</ele>
        <time>2023-05-28T15:33:41.000Z</time>
      </trkpt>
      <trkpt lat="46.21042" lon="-1.51226">
        <ele>49.9462</ele>
        <time>2023-05-28T15:33:42.000Z</time>
      </trkpt>
      <trkpt lat="46.21044" lon="-1.51224">
        <ele>50.01022</ele>
        <time>2023-05-28T15:33:43.000Z</time>
      </trkpt>
      <trkpt lat="46.21046" lon="-1.51222">
        <ele>50.07101</ele>
        <time>2023-05-28T15:33:44.000Z</time>
      </trkpt>
      <trkpt lat="46.21048" lon="-1.5122">
        <ele>50.12732</ele>
        <time>2023-05-28T15:33:45.000Z</time>
      </trkpt>
      <trkpt lat="46.21051" lon="-1.51219">
        <ele>50.14394</ele>
        <time>2023-05-28T15:33:46.000Z</time>
      </trkpt>
      <trkpt lat="46.21052" lon="-1.51217">
        <ele>50.17071</ele>
        <time>2023-05-28T15:33:47.000Z</time>
      </trkpt>
      <trkpt lat="46.21054" lon="-1.51216">
        <ele>50.20905</ele>
        <time>2023-05-28T15:33:48.000Z</time>
      </trkpt>
      <trkpt lat="46.21056" lon="-1.51214">
        <ele>50.23147</ele>
        <time>2023-05-28T15:33:49.000Z</time>
      </trkpt>
      <trkpt lat="46.21058" lon="-1.51213">
        <ele>50.26546</ele>
        <time>2023-05-28T15:33:50.000Z</time>
      </trkpt>
      <trkpt lat="46.2106" lon="-1.51211">
        <ele>50.30303</ele>
        <time>2023-05-28T15:33:51.000Z</time>
      </trkpt>
      <trkpt lat="46.21062" lon="-1.51211">
        <ele>50.32844</ele>
        <time>2023-05-28T15:33:52.000Z</time>
      </trkpt>
      <trkpt lat="46.21064" lon="-1.51211">
        <ele>50.35527</ele>
        <time>2023-05-28T15:33:53.000Z</time>
      </trkpt>
      <trkpt lat="46.21067" lon="-1.51211">
        <ele>50.37685</ele>
        <time>2023-05-28T15:33:55.000Z</time>
      </trkpt>
      <trkpt lat="46.2107" lon="-1.51211">
        <ele>50.36127</ele>
        <time>2023-05-28T15:33:57.000Z</time>
      </trkpt>
      <trkpt lat="46.21072" lon="-1.51212">
        <ele>50.34209</ele>
        <time>2023-05-28T15:33:59.000Z</time>
      </trkpt>
      <trkpt lat="46.2107" lon="-1.51211">
        <ele>50.44442</ele>
        <time>2023-05-28T15:34:17.000Z</time>
      </trkpt>
      <trkpt lat="46.21073" lon="-1.5121">
        <ele>50.56724</ele>
        <time>2023-05-28T15:34:40.000Z</time>
      </trkpt>
      <trkpt lat="46.21073" lon="-1.51214">
        <ele>50.71337</ele>
        <time>2023-05-28T15:34:42.000Z</time>
      </trkpt>
      <trkpt lat="46.21071" lon="-1.51214">
        <ele>50.85614</ele>
        <time>2023-05-28T15:34:44.000Z</time>
      </trkpt>
      <trkpt lat="46.21069" lon="-1.5121">
        <ele>50.99286</ele>
        <time>2023-05-28T15:34:46.000Z</time>
      </trkpt>
      <trkpt lat="46.21067" lon="-1.51208">
        <ele>51.06149</ele>
        <time>2023-05-28T15:34:48.000Z</time>
      </trkpt>
      <trkpt lat="46.21065" lon="-1.5121">
        <ele>51.08892</ele>
        <time>2023-05-28T15:35:44.000Z</time>
      </trkpt>
      <trkpt lat="46.21063" lon="-1.51213">
        <ele>51.10548</ele>
        <time>2023-05-28T15:35:46.000Z</time>
      </trkpt>
      <trkpt lat="46.21065" lon="-1.51218">
        <ele>51.10223</ele>
        <time>2023-05-28T15:35:48.000Z</time>
      </trkpt>
      <trkpt lat="46.21067" lon="-1.5122">
        <ele>51.11728</ele>
        <time>2023-05-28T15:35:49.000Z</time>
      </trkpt>
      <trkpt lat="46.21069" lon="-1.51222">
        <ele>51.14773</ele>
        <time>2023-05-28T15:35:50.000Z</time>
      </trkpt>
      <trkpt lat="46.21069" lon="-1.51225">
        <ele>51.1608</ele>
        <time>2023-05-28T15:35:51.000Z</time>
      </trkpt>
      <trkpt lat="46.2107" lon="-1.51228">
        <ele>51.15002</ele>
        <time>2023-05-28T15:35:52.000Z</time>
      </trkpt>
      <trkpt lat="46.2107" lon="-1.51231">
        <ele>51.12899</ele>
        <time>2023-05-28T15:35:53.000Z</time>
      </trkpt>
      <trkpt lat="46.21071" lon="-1.51234">
        <ele>51.11716</ele>
        <time>2023-05-28T15:35:54.000Z</time>
      </trkpt>
      <trkpt lat="46.21072" lon="-1.51237">
        <ele>51.12189</ele>
        <time>2023-05-28T15:35:55.000Z</time>
      </trkpt>
      <trkpt lat="46.21072" lon="-1.51239">
        <ele>51.12615</ele>
        <time>2023-05-28T15:35:56.000Z</time>
      </trkpt>
      <trkpt lat="46.2107" lon="-1.51243">
        <ele>51.11191</ele>
        <time>2023-05-28T15:35:58.000Z</time>
      </trkpt>
      <trkpt lat="46.21067" lon="-1.51243">
        <ele>51.13294</ele>
        <time>2023-05-28T15:36:00.000Z</time>
      </trkpt>
      <trkpt lat="46.21067" lon="-1.51243">
        <ele>51.13294</ele>
        <time>2023-05-28T15:36:00.000Z</time>
      </trkpt>
      <trkpt lat="46.21065" lon="-1.51246">
        <ele>51.15254</ele>
        <time>2023-05-28T16:25:26.000Z</time>
      </trkpt>
      <trkpt lat="46.21065" lon="-1.51246">
        <ele>51.15254</ele>
        <time>2023-05-28T16:25:26.000Z</time>
      </trkpt>
      <trkpt lat="46.21067" lon="-1.51245">
        <ele>51.04044</ele>
        <time>2023-05-28T16:25:49.000Z</time>
      </trkpt>
      <trkpt lat="46.21067" lon="-1.51248">
        <ele>50.85368</ele>
        <time>2023-05-28T16:25:53.000Z</time>
      </trkpt>
      <trkpt lat="46.21069" lon="-1.5125">
        <ele>50.66606</ele>
        <time>2023-05-28T16:25:55.000Z</time>
      </trkpt>
      <trkpt lat="46.21068" lon="-1.51246">
        <ele>50.55548</ele>
        <time>2023-05-28T16:26:09.000Z</time>
      </trkpt>
      <trkpt lat="46.21068" lon="-1.51242">
        <ele>50.45773</ele>
        <time>2023-05-28T16:26:10.000Z</time>
      </trkpt>
      <trkpt lat="46.21068" lon="-1.51239">
        <ele>50.43002</ele>
        <time>2023-05-28T16:26:11.000Z</time>
      </trkpt>
      <trkpt lat="46.21068" lon="-1.51236">
        <ele>50.42625</ele>
        <time>2023-05-28T16:26:12.000Z</time>
      </trkpt>
      <trkpt lat="46.21067" lon="-1.51232">
        <ele>50.42855</ele>
        <time>2023-05-28T16:26:13.000Z</time>
      </trkpt>
      <trkpt lat="46.21066" lon="-1.51228">
        <ele>50.45389</ele>
        <time>2023-05-28T16:26:14.000Z</time>
      </trkpt>
      <trkpt lat="46.21065" lon="-1.51224">
        <ele>50.44482</ele>
        <time>2023-05-28T16:26:15.000Z</time>
      </trkpt>
      <trkpt lat="46.21063" lon="-1.51221">
        <ele>50.45574</ele>
        <time>2023-05-28T16:26:16.000Z</time>
      </trkpt>
      <trkpt lat="46.2106" lon="-1.51219">
        <ele>50.4833</ele>
        <time>2023-05-28T16:26:17.000Z</time>
      </trkpt>
      <trkpt lat="46.21057" lon="-1.51219">
        <ele>50.52958</ele>
        <time>2023-05-28T16:26:18.000Z</time>
      </trkpt>
      <trkpt lat="46.21054" lon="-1.5122">
        <ele>50.56921</ele>
        <time>2023-05-28T16:26:19.000Z</time>
      </trkpt>
      <trkpt lat="46.21051" lon="-1.51221">
        <ele>50.58428</ele>
        <time>2023-05-28T16:26:20.000Z</time>
      </trkpt>
      <trkpt lat="46.21047" lon="-1.51223">
        <ele>50.60605</ele>
        <time>2023-05-28T16:26:21.000Z</time>
      </trkpt>
      <trkpt lat="46.21044" lon="-1.51225">
        <ele>50.6208</ele>
        <time>2023-05-28T16:26:22.000Z</time>
      </trkpt>
      <trkpt lat="46.21041" lon="-1.51227">
        <ele>50.65928</ele>
        <time>2023-05-28T16:26:23.000Z</time>
      </trkpt>
      <trkpt lat="46.21039" lon="-1.5123">
        <ele>50.69755</ele>
        <time>2023-05-28T16:26:24.000Z</time>
      </trkpt>
      <trkpt lat="46.21036" lon="-1.51233">
        <ele>50.74339</ele>
        <time>2023-05-28T16:26:25.000Z</time>
      </trkpt>
      <trkpt lat="46.21033" lon="-1.51236">
        <ele>50.79649</ele>
        <time>2023-05-28T16:26:26.000Z</time>
      </trkpt>
      <trkpt lat="46.2103" lon="-1.51237">
        <ele>50.93189</ele>
        <time>2023-05-28T16:26:27.000Z</time>
      </trkpt>
      <trkpt lat="46.21027" lon="-1.51239">
        <ele>51.06849</ele>
        <time>2023-05-28T16:26:28.000Z</time>
      </trkpt>
      <trkpt lat="46.21025" lon="-1.5124">
        <ele>51.12287</ele>
        <time>2023-05-28T16:26:29.000Z</time>
      </trkpt>
      <trkpt lat="46.21022" lon="-1.51241">
        <ele>51.17646</ele>
        <time>2023-05-28T16:26:30.000Z</time>
      </trkpt>
      <trkpt lat="46.2102" lon="-1.51241">
        <ele>51.21288</ele>
        <time>2023-05-28T16:26:31.000Z</time>
      </trkpt>
      <trkpt lat="46.21018" lon="-1.51242">
        <ele>51.28385</ele>
        <time>2023-05-28T16:26:33.000Z</time>
      </trkpt>
      <trkpt lat="46.21015" lon="-1.51241">
        <ele>51.37107</ele>
        <time>2023-05-28T16:26:50.000Z</time>
      </trkpt>
      <trkpt lat="46.21011" lon="-1.5124">
        <ele>51.45528</ele>
        <time>2023-05-28T16:26:52.000Z</time>
      </trkpt>
      <trkpt lat="46.21009" lon="-1.51239">
        <ele>51.55924</ele>
        <time>2023-05-28T16:26:53.000Z</time>
      </trkpt>
      <trkpt lat="46.21006" lon="-1.51237">
        <ele>51.62981</ele>
        <time>2023-05-28T16:26:54.000Z</time>
      </trkpt>
      <trkpt lat="46.21003" lon="-1.51236">
        <ele>51.7286</ele>
        <time>2023-05-28T16:26:55.000Z</time>
      </trkpt>
      <trkpt lat="46.21" lon="-1.51235">
        <ele>51.81339</ele>
        <time>2023-05-28T16:26:56.000Z</time>
      </trkpt>
      <trkpt lat="46.20996" lon="-1.51234">
        <ele>51.9233</ele>
        <time>2023-05-28T16:26:57.000Z</time>
      </trkpt>
      <trkpt lat="46.20993" lon="-1.51232">
        <ele>52.04881</ele>
        <time>2023-05-28T16:26:58.000Z</time>
      </trkpt>
      <trkpt lat="46.20989" lon="-1.5123">
        <ele>52.15895</ele>
        <time>2023-05-28T16:26:59.000Z</time>
      </trkpt>
      <trkpt lat="46.20986" lon="-1.51228">
        <ele>52.25037</ele>
        <time>2023-05-28T16:27:00.000Z</time>
      </trkpt>
      <trkpt lat="46.20982" lon="-1.51225">
        <ele>52.3375</ele>
        <time>2023-05-28T16:27:01.000Z</time>
      </trkpt>
      <trkpt lat="46.20979" lon="-1.51222">
        <ele>52.42167</ele>
        <time>2023-05-28T16:27:02.000Z</time>
      </trkpt>
      <trkpt lat="46.20976" lon="-1.51218">
        <ele>52.50039</ele>
        <time>2023-05-28T16:27:03.000Z</time>
      </trkpt>
      <trkpt lat="46.20972" lon="-1.51214">
        <ele>52.5746</ele>
        <time>2023-05-28T16:27:04.000Z</time>
      </trkpt>
      <trkpt lat="46.20969" lon="-1.5121">
        <ele>52.64075</ele>
        <time>2023-05-28T16:27:05.000Z</time>
      </trkpt>
      <trkpt lat="46.20966" lon="-1.51205">
        <ele>52.6639</ele>
        <time>2023-05-28T16:27:06.000Z</time>
      </trkpt>
      <trkpt lat="46.20963" lon="-1.512">
        <ele>52.69022</ele>
        <time>2023-05-28T16:27:07.000Z</time>
      </trkpt>
      <trkpt lat="46.20959" lon="-1.51195">
        <ele>52.70092</ele>
        <time>2023-05-28T16:27:08.000Z</time>
      </trkpt>
      <trkpt lat="46.20956" lon="-1.5119">
        <ele>52.71168</ele>
        <time>2023-05-28T16:27:09.000Z</time>
      </trkpt>
      <trkpt lat="46.20953" lon="-1.51186">
        <ele>52.68554</ele>
        <time>2023-05-28T16:27:10.000Z</time>
      </trkpt>
      <trkpt lat="46.2095" lon="-1.51181">
        <ele>52.63665</ele>
        <time>2023-05-28T16:27:11.000Z</time>
      </trkpt>
      <trkpt lat="46.20946" lon="-1.51176">
        <ele>52.58098</ele>
        <time>2023-05-28T16:27:12.000Z</time>
      </trkpt>
      <trkpt lat="46.20943" lon="-1.51171">
        <ele>52.5317</ele>
        <time>2023-05-28T16:27:13.000Z</time>
      </trkpt>
      <trkpt lat="46.2094" lon="-1.51167">
        <ele>52.48478</ele>
        <time>2023-05-28T16:27:14.000Z</time>
      </trkpt>
      <trkpt lat="46.20937" lon="-1.51161">
        <ele>52.39575</ele>
        <time>2023-05-28T16:27:15.000Z</time>
      </trkpt>
      <trkpt lat="46.20934" lon="-1.51156">
        <ele>52.32506</ele>
        <time>2023-05-28T16:27:16.000Z</time>
      </trkpt>
      <trkpt lat="46.20931" lon="-1.51151">
        <ele>52.22675</ele>
        <time>2023-05-28T16:27:17.000Z</time>
      </trkpt>
      <trkpt lat="46.20927" lon="-1.51146">
        <ele>52.13817</ele>
        <time>2023-05-28T16:27:18.000Z</time>
      </trkpt>
      <trkpt lat="46.20924" lon="-1.51141">
        <ele>52.05172</ele>
        <time>2023-05-28T16:27:19.000Z</time>
      </trkpt>
      <trkpt lat="46.2092" lon="-1.51137">
        <ele>51.98363</ele>
        <time>2023-05-28T16:27:20.000Z</time>
      </trkpt>
      <trkpt lat="46.20916" lon="-1.51133">
        <ele>51.91204</ele>
        <time>2023-05-28T16:27:21.000Z</time>
      </trkpt>
      <trkpt lat="46.20913" lon="-1.51128">
        <ele>51.86145</ele>
        <time>2023-05-28T16:27:22.000Z</time>
      </trkpt>
      <trkpt lat="46.2091" lon="-1.51122">
        <ele>51.80198</ele>
        <time>2023-05-28T16:27:23.000Z</time>
      </trkpt>
      <trkpt lat="46.20907" lon="-1.51116">
        <ele>51.75613</ele>
        <time>2023-05-28T16:27:24.000Z</time>
      </trkpt>
      <trkpt lat="46.20903" lon="-1.51111">
        <ele>51.70116</ele>
        <time>2023-05-28T16:27:25.000Z</time>
      </trkpt>
      <trkpt lat="46.209" lon="-1.51105">
        <ele>51.68782</ele>
        <time>2023-05-28T16:27:26.000Z</time>
      </trkpt>
      <trkpt lat="46.20898" lon="-1.51099">
        <ele>51.69389</ele>
        <time>2023-05-28T16:27:27.000Z</time>
      </trkpt>
      <trkpt lat="46.20895" lon="-1.51093">
        <ele>51.72166</ele>
        <time>2023-05-28T16:27:28.000Z</time>
      </trkpt>
      <trkpt lat="46.20892" lon="-1.51086">
        <ele>51.7632</ele>
        <time>2023-05-28T16:27:29.000Z</time>
      </trkpt>
      <trkpt lat="46.2089" lon="-1.51079">
        <ele>51.81531</ele>
        <time>2023-05-28T16:27:30.000Z</time>
      </trkpt>
      <trkpt lat="46.20888" lon="-1.51069">
        <ele>51.8106</ele>
        <time>2023-05-28T16:27:31.000Z</time>
      </trkpt>
      <trkpt lat="46.20887" lon="-1.51062">
        <ele>51.80312</ele>
        <time>2023-05-28T16:27:32.000Z</time>
      </trkpt>
      <trkpt lat="46.20885" lon="-1.51054">
        <ele>51.78748</ele>
        <time>2023-05-28T16:27:33.000Z</time>
      </trkpt>
      <trkpt lat="46.20884" lon="-1.51046">
        <ele>51.77239</ele>
        <time>2023-05-28T16:27:34.000Z</time>
      </trkpt>
      <trkpt lat="46.20883" lon="-1.51039">
        <ele>51.76789</ele>
        <time>2023-05-28T16:27:35.000Z</time>
      </trkpt>
      <trkpt lat="46.20881" lon="-1.51031">
        <ele>51.76672</ele>
        <time>2023-05-28T16:27:36.000Z</time>
      </trkpt>
      <trkpt lat="46.20879" lon="-1.51024">
        <ele>51.76614</ele>
        <time>2023-05-28T16:27:37.000Z</time>
      </trkpt>
      <trkpt lat="46.20877" lon="-1.51018">
        <ele>51.77264</ele>
        <time>2023-05-28T16:27:38.000Z</time>
      </trkpt>
      <trkpt lat="46.20873" lon="-1.51013">
        <ele>51.79026</ele>
        <time>2023-05-28T16:27:39.000Z</time>
      </trkpt>
      <trkpt lat="46.2087" lon="-1.51008">
        <ele>51.83978</ele>
        <time>2023-05-28T16:27:40.000Z</time>
      </trkpt>
      <trkpt lat="46.20867" lon="-1.51003">
        <ele>51.89525</ele>
        <time>2023-05-28T16:27:41.000Z</time>
      </trkpt>
      <trkpt lat="46.20863" lon="-1.50998">
        <ele>51.95012</ele>
        <time>2023-05-28T16:27:42.000Z</time>
      </trkpt>
      <trkpt lat="46.2086" lon="-1.50993">
        <ele>52.03262</ele>
        <time>2023-05-28T16:27:43.000Z</time>
      </trkpt>
      <trkpt lat="46.20857" lon="-1.50988">
        <ele>52.10737</ele>
        <time>2023-05-28T16:27:44.000Z</time>
      </trkpt>
      <trkpt lat="46.20854" lon="-1.50983">
        <ele>52.17695</ele>
        <time>2023-05-28T16:27:45.000Z</time>
      </trkpt>
      <trkpt lat="46.20851" lon="-1.50978">
        <ele>52.24152</ele>
        <time>2023-05-28T16:27:46.000Z</time>
      </trkpt>
      <trkpt lat="46.20849" lon="-1.50973">
        <ele>52.27576</ele>
        <time>2023-05-28T16:27:47.000Z</time>
      </trkpt>
      <trkpt lat="46.20845" lon="-1.50969">
        <ele>52.30662</ele>
        <time>2023-05-28T16:27:48.000Z</time>
      </trkpt>
      <trkpt lat="46.20842" lon="-1.50966">
        <ele>52.3466</ele>
        <time>2023-05-28T16:27:49.000Z</time>
      </trkpt>
      <trkpt lat="46.20839" lon="-1.50962">
        <ele>52.40487</ele>
        <time>2023-05-28T16:27:50.000Z</time>
      </trkpt>
      <trkpt lat="46.20836" lon="-1.50958">
        <ele>52.53894</ele>
        <time>2023-05-28T16:27:51.000Z</time>
      </trkpt>
      <trkpt lat="46.20832" lon="-1.50954">
        <ele>52.67175</ele>
        <time>2023-05-28T16:27:52.000Z</time>
      </trkpt>
      <trkpt lat="46.20829" lon="-1.5095">
        <ele>52.81657</ele>
        <time>2023-05-28T16:27:53.000Z</time>
      </trkpt>
      <trkpt lat="46.20826" lon="-1.50945">
        <ele>52.95398</ele>
        <time>2023-05-28T16:27:54.000Z</time>
      </trkpt>
      <trkpt lat="46.20824" lon="-1.5094">
        <ele>53.07561</ele>
        <time>2023-05-28T16:27:55.000Z</time>
      </trkpt>
      <trkpt lat="46.20821" lon="-1.50935">
        <ele>53.18453</ele>
        <time>2023-05-28T16:27:56.000Z</time>
      </trkpt>
      <trkpt lat="46.20818" lon="-1.5093">
        <ele>53.28771</ele>
        <time>2023-05-28T16:27:57.000Z</time>
      </trkpt>
      <trkpt lat="46.20815" lon="-1.50926">
        <ele>53.38275</ele>
        <time>2023-05-28T16:27:58.000Z</time>
      </trkpt>
      <trkpt lat="46.20812" lon="-1.50921">
        <ele>53.46223</ele>
        <time>2023-05-28T16:27:59.000Z</time>
      </trkpt>
      <trkpt lat="46.20808" lon="-1.50918">
        <ele>53.51598</ele>
        <time>2023-05-28T16:28:00.000Z</time>
      </trkpt>
      <trkpt lat="46.20804" lon="-1.50914">
        <ele>53.568</ele>
        <time>2023-05-28T16:28:01.000Z</time>
      </trkpt>
      <trkpt lat="46.20801" lon="-1.50911">
        <ele>53.59316</ele>
        <time>2023-05-28T16:28:02.000Z</time>
      </trkpt>
      <trkpt lat="46.20797" lon="-1.50908">
        <ele>53.60734</ele>
        <time>2023-05-28T16:28:03.000Z</time>
      </trkpt>
      <trkpt lat="46.20792" lon="-1.50905">
        <ele>53.6036</ele>
        <time>2023-05-28T16:28:04.000Z</time>
      </trkpt>
      <trkpt lat="46.20788" lon="-1.50901">
        <ele>53.6006</ele>
        <time>2023-05-28T16:28:05.000Z</time>
      </trkpt>
      <trkpt lat="46.20785" lon="-1.50898">
        <ele>53.58558</ele>
        <time>2023-05-28T16:28:06.000Z</time>
      </trkpt>
      <trkpt lat="46.20782" lon="-1.50893">
        <ele>53.5948</ele>
        <time>2023-05-28T16:28:07.000Z</time>
      </trkpt>
      <trkpt lat="46.20779" lon="-1.50889">
        <ele>53.60188</ele>
        <time>2023-05-28T16:28:08.000Z</time>
      </trkpt>
      <trkpt lat="46.20776" lon="-1.50884">
        <ele>53.59201</ele>
        <time>2023-05-28T16:28:09.000Z</time>
      </trkpt>
      <trkpt lat="46.20772" lon="-1.5088">
        <ele>53.5555</ele>
        <time>2023-05-28T16:28:10.000Z</time>
      </trkpt>
      <trkpt lat="46.2077" lon="-1.50875">
        <ele>53.48256</ele>
        <time>2023-05-28T16:28:11.000Z</time>
      </trkpt>
      <trkpt lat="46.20768" lon="-1.5087">
        <ele>53.3958</ele>
        <time>2023-05-28T16:28:12.000Z</time>
      </trkpt>
      <trkpt lat="46.20765" lon="-1.50863">
        <ele>53.31956</ele>
        <time>2023-05-28T16:28:13.000Z</time>
      </trkpt>
      <trkpt lat="46.20763" lon="-1.50858">
        <ele>53.23529</ele>
        <time>2023-05-28T16:28:14.000Z</time>
      </trkpt>
      <trkpt lat="46.2076" lon="-1.50852">
        <ele>53.15132</ele>
        <time>2023-05-28T16:28:15.000Z</time>
      </trkpt>
      <trkpt lat="46.20757" lon="-1.50848">
        <ele>53.06869</ele>
        <time>2023-05-28T16:28:16.000Z</time>
      </trkpt>
      <trkpt lat="46.20753" lon="-1.50843">
        <ele>53.00788</ele>
        <time>2023-05-28T16:28:17.000Z</time>
      </trkpt>
      <trkpt lat="46.20751" lon="-1.50838">
        <ele>52.93307</ele>
        <time>2023-05-28T16:28:18.000Z</time>
      </trkpt>
      <trkpt lat="46.20748" lon="-1.50834">
        <ele>52.87201</ele>
        <time>2023-05-28T16:28:19.000Z</time>
      </trkpt>
      <trkpt lat="46.20746" lon="-1.50836">
        <ele>52.80703</ele>
        <time>2023-05-28T16:28:20.000Z</time>
      </trkpt>
      <trkpt lat="46.20746" lon="-1.50839">
        <ele>52.7301</ele>
        <time>2023-05-28T16:28:21.000Z</time>
      </trkpt>
      <trkpt lat="46.20748" lon="-1.50843">
        <ele>52.63442</ele>
        <time>2023-05-28T16:28:23.000Z</time>
      </trkpt>
      <trkpt lat="46.20749" lon="-1.50844">
        <ele>52.57671</ele>
        <time>2023-05-28T16:28:24.000Z</time>
      </trkpt>
      <trkpt lat="46.20751" lon="-1.50847">
        <ele>52.54608</ele>
        <time>2023-05-28T16:28:26.000Z</time>
      </trkpt>
      <trkpt lat="46.20754" lon="-1.50851">
        <ele>52.51166</ele>
        <time>2023-05-28T16:28:28.000Z</time>
      </trkpt>
      <trkpt lat="46.20756" lon="-1.5085">
        <ele>52.43861</ele>
        <time>2023-05-28T16:28:29.000Z</time>
      </trkpt>
      <trkpt lat="46.20758" lon="-1.50848">
        <ele>52.35394</ele>
        <time>2023-05-28T16:28:30.000Z</time>
      </trkpt>
      <trkpt lat="46.20759" lon="-1.50845">
        <ele>52.28133</ele>
        <time>2023-05-28T16:28:31.000Z</time>
      </trkpt>
      <trkpt lat="46.20757" lon="-1.50841">
        <ele>52.21732</ele>
        <time>2023-05-28T16:28:32.000Z</time>
      </trkpt>
      <trkpt lat="46.20754" lon="-1.50838">
        <ele>52.15933</ele>
        <time>2023-05-28T16:28:33.000Z</time>
      </trkpt>
      <trkpt lat="46.2075" lon="-1.50836">
        <ele>52.1296</ele>
        <time>2023-05-28T16:28:34.000Z</time>
      </trkpt>
      <trkpt lat="46.20747" lon="-1.50834">
        <ele>52.1108</ele>
        <time>2023-05-28T16:28:35.000Z</time>
      </trkpt>
      <trkpt lat="46.20743" lon="-1.50831">
        <ele>52.08358</ele>
        <time>2023-05-28T16:28:36.000Z</time>
      </trkpt>
      <trkpt lat="46.2074" lon="-1.50827">
        <ele>52.06719</ele>
        <time>2023-05-28T16:28:37.000Z</time>
      </trkpt>
      <trkpt lat="46.20737" lon="-1.50823">
        <ele>52.07517</ele>
        <time>2023-05-28T16:28:38.000Z</time>
      </trkpt>
      <trkpt lat="46.20735" lon="-1.50819">
        <ele>52.07323</ele>
        <time>2023-05-28T16:28:39.000Z</time>
      </trkpt>
      <trkpt lat="46.20733" lon="-1.50815">
        <ele>52.06591</ele>
        <time>2023-05-28T16:28:40.000Z</time>
      </trkpt>
      <trkpt lat="46.20731" lon="-1.50811">
        <ele>52.06915</ele>
        <time>2023-05-28T16:28:41.000Z</time>
      </trkpt>
      <trkpt lat="46.20729" lon="-1.50807">
        <ele>52.06342</ele>
        <time>2023-05-28T16:28:42.000Z</time>
      </trkpt>
      <trkpt lat="46.20727" lon="-1.50804">
        <ele>52.06359</ele>
        <time>2023-05-28T16:28:43.000Z</time>
      </trkpt>
      <trkpt lat="46.20725" lon="-1.50801">
        <ele>52.06636</ele>
        <time>2023-05-28T16:28:44.000Z</time>
      </trkpt>
      <trkpt lat="46.20723" lon="-1.50798">
        <ele>52.08683</ele>
        <time>2023-05-28T16:28:45.000Z</time>
      </trkpt>
      <trkpt lat="46.20721" lon="-1.50794">
        <ele>52.06041</ele>
        <time>2023-05-28T16:28:46.000Z</time>
      </trkpt>
      <trkpt lat="46.2072" lon="-1.50791">
        <ele>52.01405</ele>
        <time>2023-05-28T16:28:47.000Z</time>
      </trkpt>
      <trkpt lat="46.20718" lon="-1.50787">
        <ele>51.96862</ele>
        <time>2023-05-28T16:28:48.000Z</time>
      </trkpt>
      <trkpt lat="46.20717" lon="-1.50784">
        <ele>51.95989</ele>
        <time>2023-05-28T16:28:49.000Z</time>
      </trkpt>
      <trkpt lat="46.20716" lon="-1.5078">
        <ele>51.95828</ele>
        <time>2023-05-28T16:28:50.000Z</time>
      </trkpt>
      <trkpt lat="46.20715" lon="-1.50777">
        <ele>51.9391</ele>
        <time>2023-05-28T16:28:51.000Z</time>
      </trkpt>
      <trkpt lat="46.20714" lon="-1.50774">
        <ele>51.90922</ele>
        <time>2023-05-28T16:28:52.000Z</time>
      </trkpt>
      <trkpt lat="46.20713" lon="-1.5077">
        <ele>51.88152</ele>
        <time>2023-05-28T16:28:53.000Z</time>
      </trkpt>
      <trkpt lat="46.20712" lon="-1.50767">
        <ele>51.85641</ele>
        <time>2023-05-28T16:28:54.000Z</time>
      </trkpt>
      <trkpt lat="46.20712" lon="-1.50763">
        <ele>51.83368</ele>
        <time>2023-05-28T16:28:55.000Z</time>
      </trkpt>
      <trkpt lat="46.20712" lon="-1.50758">
        <ele>51.79635</ele>
        <time>2023-05-28T16:28:56.000Z</time>
      </trkpt>
      <trkpt lat="46.20713" lon="-1.50754">
        <ele>51.75713</ele>
        <time>2023-05-28T16:28:57.000Z</time>
      </trkpt>
      <trkpt lat="46.20713" lon="-1.5075">
        <ele>51.70463</ele>
        <time>2023-05-28T16:28:58.000Z</time>
      </trkpt>
      <trkpt lat="46.20714" lon="-1.50746">
        <ele>51.67023</ele>
        <time>2023-05-28T16:28:59.000Z</time>
      </trkpt>
      <trkpt lat="46.20714" lon="-1.50742">
        <ele>51.62656</ele>
        <time>2023-05-28T16:29:00.000Z</time>
      </trkpt>
      <trkpt lat="46.20714" lon="-1.50737">
        <ele>51.6091</ele>
        <time>2023-05-28T16:29:01.000Z</time>
      </trkpt>
      <trkpt lat="46.20713" lon="-1.50733">
        <ele>51.57609</ele>
        <time>2023-05-28T16:29:02.000Z</time>
      </trkpt>
      <trkpt lat="46.20713" lon="-1.50729">
        <ele>51.55023</ele>
        <time>2023-05-28T16:29:03.000Z</time>
      </trkpt>
      <trkpt lat="46.20712" lon="-1.50725">
        <ele>51.52036</ele>
        <time>2023-05-28T16:29:04.000Z</time>
      </trkpt>
      <trkpt lat="46.20711" lon="-1.50721">
        <ele>51.51673</ele>
        <time>2023-05-28T16:29:05.000Z</time>
      </trkpt>
      <trkpt lat="46.20709" lon="-1.50717">
        <ele>51.50542</ele>
        <time>2023-05-28T16:29:06.000Z</time>
      </trkpt>
      <trkpt lat="46.20708" lon="-1.50712">
        <ele>51.5023</ele>
        <time>2023-05-28T16:29:07.000Z</time>
      </trkpt>
      <trkpt lat="46.20707" lon="-1.50707">
        <ele>51.4996</ele>
        <time>2023-05-28T16:29:08.000Z</time>
      </trkpt>
      <trkpt lat="46.20706" lon="-1.50703">
        <ele>51.49668</ele>
        <time>2023-05-28T16:29:09.000Z</time>
      </trkpt>
      <trkpt lat="46.20705" lon="-1.50698">
        <ele>51.50512</ele>
        <time>2023-05-28T16:29:10.000Z</time>
      </trkpt>
      <trkpt lat="46.20705" lon="-1.50693">
        <ele>51.50751</ele>
        <time>2023-05-28T16:29:11.000Z</time>
      </trkpt>
      <trkpt lat="46.20704" lon="-1.50688">
        <ele>51.49932</ele>
        <time>2023-05-28T16:29:12.000Z</time>
      </trkpt>
      <trkpt lat="46.20703" lon="-1.50684">
        <ele>51.48524</ele>
        <time>2023-05-28T16:29:13.000Z</time>
      </trkpt>
      <trkpt lat="46.20703" lon="-1.50679">
        <ele>51.46407</ele>
        <time>2023-05-28T16:29:14.000Z</time>
      </trkpt>
      <trkpt lat="46.20702" lon="-1.50674">
        <ele>51.47269</ele>
        <time>2023-05-28T16:29:15.000Z</time>
      </trkpt>
      <trkpt lat="46.20702" lon="-1.50669">
        <ele>51.47326</ele>
        <time>2023-05-28T16:29:16.000Z</time>
      </trkpt>
      <trkpt lat="46.20701" lon="-1.50664">
        <ele>51.4634</ele>
        <time>2023-05-28T16:29:17.000Z</time>
      </trkpt>
      <trkpt lat="46.20701" lon="-1.50659">
        <ele>51.4435</ele>
        <time>2023-05-28T16:29:18.000Z</time>
      </trkpt>
      <trkpt lat="46.207" lon="-1.50655">
        <ele>51.43077</ele>
        <time>2023-05-28T16:29:19.000Z</time>
      </trkpt>
      <trkpt lat="46.20699" lon="-1.5065">
        <ele>51.42239</ele>
        <time>2023-05-28T16:29:20.000Z</time>
      </trkpt>
      <trkpt lat="46.20698" lon="-1.50645">
        <ele>51.38176</ele>
        <time>2023-05-28T16:29:21.000Z</time>
      </trkpt>
      <trkpt lat="46.20697" lon="-1.5064">
        <ele>51.35262</ele>
        <time>2023-05-28T16:29:22.000Z</time>
      </trkpt>
      <trkpt lat="46.20696" lon="-1.50635">
        <ele>51.31557</ele>
        <time>2023-05-28T16:29:23.000Z</time>
      </trkpt>
      <trkpt lat="46.20695" lon="-1.5063">
        <ele>51.29002</ele>
        <time>2023-05-28T16:29:24.000Z</time>
      </trkpt>
      <trkpt lat="46.20694" lon="-1.50625">
        <ele>51.24218</ele>
        <time>2023-05-28T16:29:25.000Z</time>
      </trkpt>
      <trkpt lat="46.20693" lon="-1.5062">
        <ele>51.20093</ele>
        <time>2023-05-28T16:29:26.000Z</time>
      </trkpt>
      <trkpt lat="46.20691" lon="-1.50616">
        <ele>51.15469</ele>
        <time>2023-05-28T16:29:27.000Z</time>
      </trkpt>
      <trkpt lat="46.2069" lon="-1.50611">
        <ele>51.13078</ele>
        <time>2023-05-28T16:29:28.000Z</time>
      </trkpt>
      <trkpt lat="46.20689" lon="-1.50607">
        <ele>51.12048</ele>
        <time>2023-05-28T16:29:29.000Z</time>
      </trkpt>
      <trkpt lat="46.20687" lon="-1.50602">
        <ele>51.08107</ele>
        <time>2023-05-28T16:29:30.000Z</time>
      </trkpt>
      <trkpt lat="46.20685" lon="-1.50598">
        <ele>51.04432</ele>
        <time>2023-05-28T16:29:31.000Z</time>
      </trkpt>
      <trkpt lat="46.20683" lon="-1.50594">
        <ele>51.03141</ele>
        <time>2023-05-28T16:29:32.000Z</time>
      </trkpt>
      <trkpt lat="46.20681" lon="-1.5059">
        <ele>51.03369</ele>
        <time>2023-05-28T16:29:33.000Z</time>
      </trkpt>
      <trkpt lat="46.20678" lon="-1.50586">
        <ele>51.0154</ele>
        <time>2023-05-28T16:29:34.000Z</time>
      </trkpt>
      <trkpt lat="46.20676" lon="-1.50582">
        <ele>50.96532</ele>
        <time>2023-05-28T16:29:35.000Z</time>
      </trkpt>
      <trkpt lat="46.20674" lon="-1.50577">
        <ele>50.92862</ele>
        <time>2023-05-28T16:29:36.000Z</time>
      </trkpt>
      <trkpt lat="46.20672" lon="-1.50574">
        <ele>50.94384</ele>
        <time>2023-05-28T16:29:37.000Z</time>
      </trkpt>
      <trkpt lat="46.20669" lon="-1.5057">
        <ele>50.97198</ele>
        <time>2023-05-28T16:29:38.000Z</time>
      </trkpt>
      <trkpt lat="46.20667" lon="-1.50567">
        <ele>50.99184</ele>
        <time>2023-05-28T16:29:39.000Z</time>
      </trkpt>
      <trkpt lat="46.20664" lon="-1.50563">
        <ele>51.02929</ele>
        <time>2023-05-28T16:29:40.000Z</time>
      </trkpt>
      <trkpt lat="46.20661" lon="-1.5056">
        <ele>51.05927</ele>
        <time>2023-05-28T16:29:41.000Z</time>
      </trkpt>
      <trkpt lat="46.20659" lon="-1.50557">
        <ele>51.09558</ele>
        <time>2023-05-28T16:29:42.000Z</time>
      </trkpt>
      <trkpt lat="46.20656" lon="-1.50555">
        <ele>51.13765</ele>
        <time>2023-05-28T16:29:43.000Z</time>
      </trkpt>
      <trkpt lat="46.20653" lon="-1.50552">
        <ele>51.16747</ele>
        <time>2023-05-28T16:29:44.000Z</time>
      </trkpt>
      <trkpt lat="46.2065" lon="-1.5055">
        <ele>51.20604</ele>
        <time>2023-05-28T16:29:45.000Z</time>
      </trkpt>
      <trkpt lat="46.20647" lon="-1.50547">
        <ele>51.2469</ele>
        <time>2023-05-28T16:29:46.000Z</time>
      </trkpt>
      <trkpt lat="46.20644" lon="-1.50545">
        <ele>51.29428</ele>
        <time>2023-05-28T16:29:47.000Z</time>
      </trkpt>
      <trkpt lat="46.2064" lon="-1.50542">
        <ele>51.33199</ele>
        <time>2023-05-28T16:29:48.000Z</time>
      </trkpt>
      <trkpt lat="46.20637" lon="-1.5054">
        <ele>51.36106</ele>
        <time>2023-05-28T16:29:49.000Z</time>
      </trkpt>
      <trkpt lat="46.20634" lon="-1.50538">
        <ele>51.42158</ele>
        <time>2023-05-28T16:29:50.000Z</time>
      </trkpt>
      <trkpt lat="46.2063" lon="-1.50536">
        <ele>51.47734</ele>
        <time>2023-05-28T16:29:51.000Z</time>
      </trkpt>
      <trkpt lat="46.20627" lon="-1.50533">
        <ele>51.51699</ele>
        <time>2023-05-28T16:29:52.000Z</time>
      </trkpt>
      <trkpt lat="46.20623" lon="-1.50531">
        <ele>51.53679</ele>
        <time>2023-05-28T16:29:53.000Z</time>
      </trkpt>
      <trkpt lat="46.2062" lon="-1.50529">
        <ele>51.61951</ele>
        <time>2023-05-28T16:29:54.000Z</time>
      </trkpt>
      <trkpt lat="46.20617" lon="-1.50527">
        <ele>51.71281</ele>
        <time>2023-05-28T16:29:55.000Z</time>
      </trkpt>
      <trkpt lat="46.20613" lon="-1.50525">
        <ele>51.79607</ele>
        <time>2023-05-28T16:29:56.000Z</time>
      </trkpt>
      <trkpt lat="46.2061" lon="-1.50522">
        <ele>51.87901</ele>
        <time>2023-05-28T16:29:57.000Z</time>
      </trkpt>
      <trkpt lat="46.20607" lon="-1.5052">
        <ele>51.94634</ele>
        <time>2023-05-28T16:29:58.000Z</time>
      </trkpt>
      <trkpt lat="46.20604" lon="-1.50517">
        <ele>52.01647</ele>
        <time>2023-05-28T16:29:59.000Z</time>
      </trkpt>
      <trkpt lat="46.206" lon="-1.50515">
        <ele>52.06531</ele>
        <time>2023-05-28T16:30:00.000Z</time>
      </trkpt>
      <trkpt lat="46.20597" lon="-1.50512">
        <ele>52.11489</ele>
        <time>2023-05-28T16:30:01.000Z</time>
      </trkpt>
      <trkpt lat="46.20594" lon="-1.5051">
        <ele>52.15889</ele>
        <time>2023-05-28T16:30:02.000Z</time>
      </trkpt>
      <trkpt lat="46.2059" lon="-1.50509">
        <ele>52.19769</ele>
        <time>2023-05-28T16:30:03.000Z</time>
      </trkpt>
      <trkpt lat="46.20586" lon="-1.50507">
        <ele>52.24139</ele>
        <time>2023-05-28T16:30:04.000Z</time>
      </trkpt>
      <trkpt lat="46.20583" lon="-1.50505">
        <ele>52.27168</ele>
        <time>2023-05-28T16:30:05.000Z</time>
      </trkpt>
      <trkpt lat="46.2058" lon="-1.50503">
        <ele>52.28481</ele>
        <time>2023-05-28T16:30:06.000Z</time>
      </trkpt>
      <trkpt lat="46.20576" lon="-1.50501">
        <ele>52.29</ele>
        <time>2023-05-28T16:30:07.000Z</time>
      </trkpt>
      <trkpt lat="46.20573" lon="-1.50499">
        <ele>52.28111</ele>
        <time>2023-05-28T16:30:08.000Z</time>
      </trkpt>
      <trkpt lat="46.2057" lon="-1.50498">
        <ele>52.27743</ele>
        <time>2023-05-28T16:30:09.000Z</time>
      </trkpt>
      <trkpt lat="46.20566" lon="-1.50496">
        <ele>52.27427</ele>
        <time>2023-05-28T16:30:10.000Z</time>
      </trkpt>
      <trkpt lat="46.20563" lon="-1.50494">
        <ele>52.29542</ele>
        <time>2023-05-28T16:30:11.000Z</time>
      </trkpt>
      <trkpt lat="46.2056" lon="-1.50492">
        <ele>52.3182</ele>
        <time>2023-05-28T16:30:12.000Z</time>
      </trkpt>
      <trkpt lat="46.20557" lon="-1.5049">
        <ele>52.36053</ele>
        <time>2023-05-28T16:30:13.000Z</time>
      </trkpt>
      <trkpt lat="46.20553" lon="-1.50488">
        <ele>52.33674</ele>
        <time>2023-05-28T16:30:14.000Z</time>
      </trkpt>
      <trkpt lat="46.2055" lon="-1.50486">
        <ele>52.31673</ele>
        <time>2023-05-28T16:30:15.000Z</time>
      </trkpt>
      <trkpt lat="46.20547" lon="-1.50483">
        <ele>52.31065</ele>
        <time>2023-05-28T16:30:16.000Z</time>
      </trkpt>
      <trkpt lat="46.20543" lon="-1.50481">
        <ele>52.2785</ele>
        <time>2023-05-28T16:30:17.000Z</time>
      </trkpt>
      <trkpt lat="46.2054" lon="-1.50478">
        <ele>52.25311</ele>
        <time>2023-05-28T16:30:18.000Z</time>
      </trkpt>
      <trkpt lat="46.20537" lon="-1.50476">
        <ele>52.20966</ele>
        <time>2023-05-28T16:30:19.000Z</time>
      </trkpt>
      <trkpt lat="46.20533" lon="-1.50473">
        <ele>52.15978</ele>
        <time>2023-05-28T16:30:20.000Z</time>
      </trkpt>
      <trkpt lat="46.2053" lon="-1.5047">
        <ele>52.12682</ele>
        <time>2023-05-28T16:30:21.000Z</time>
      </trkpt>
      <trkpt lat="46.20528" lon="-1.50466">
        <ele>52.09839</ele>
        <time>2023-05-28T16:30:22.000Z</time>
      </trkpt>
      <trkpt lat="46.20525" lon="-1.50462">
        <ele>52.06033</ele>
        <time>2023-05-28T16:30:23.000Z</time>
      </trkpt>
      <trkpt lat="46.20523" lon="-1.50458">
        <ele>52.04711</ele>
        <time>2023-05-28T16:30:24.000Z</time>
      </trkpt>
      <trkpt lat="46.2052" lon="-1.50454">
        <ele>52.04078</ele>
        <time>2023-05-28T16:30:25.000Z</time>
      </trkpt>
      <trkpt lat="46.20518" lon="-1.5045">
        <ele>52.05195</ele>
        <time>2023-05-28T16:30:26.000Z</time>
      </trkpt>
      <trkpt lat="46.20515" lon="-1.50446">
        <ele>52.06038</ele>
        <time>2023-05-28T16:30:27.000Z</time>
      </trkpt>
      <trkpt lat="46.20512" lon="-1.50441">
        <ele>52.05132</ele>
        <time>2023-05-28T16:30:28.000Z</time>
      </trkpt>
      <trkpt lat="46.20509" lon="-1.50437">
        <ele>52.03252</ele>
        <time>2023-05-28T16:30:29.000Z</time>
      </trkpt>
      <trkpt lat="46.20506" lon="-1.50432">
        <ele>51.99717</ele>
        <time>2023-05-28T16:30:30.000Z</time>
      </trkpt>
      <trkpt lat="46.20503" lon="-1.50427">
        <ele>51.95194</ele>
        <time>2023-05-28T16:30:31.000Z</time>
      </trkpt>
      <trkpt lat="46.20501" lon="-1.50422">
        <ele>51.92223</ele>
        <time>2023-05-28T16:30:32.000Z</time>
      </trkpt>
      <trkpt lat="46.20498" lon="-1.50417">
        <ele>51.89273</ele>
        <time>2023-05-28T16:30:33.000Z</time>
      </trkpt>
      <trkpt lat="46.20496" lon="-1.50413">
        <ele>51.86624</ele>
        <time>2023-05-28T16:30:34.000Z</time>
      </trkpt>
      <trkpt lat="46.20492" lon="-1.50409">
        <ele>51.83062</ele>
        <time>2023-05-28T16:30:35.000Z</time>
      </trkpt>
      <trkpt lat="46.20489" lon="-1.50405">
        <ele>51.77798</ele>
        <time>2023-05-28T16:30:36.000Z</time>
      </trkpt>
      <trkpt lat="46.20486" lon="-1.50401">
        <ele>51.70182</ele>
        <time>2023-05-28T16:30:37.000Z</time>
      </trkpt>
      <trkpt lat="46.20483" lon="-1.50397">
        <ele>51.6525</ele>
        <time>2023-05-28T16:30:38.000Z</time>
      </trkpt>
      <trkpt lat="46.2048" lon="-1.50394">
        <ele>51.62374</ele>
        <time>2023-05-28T16:30:39.000Z</time>
      </trkpt>
      <trkpt lat="46.20477" lon="-1.50391">
        <ele>51.60404</ele>
        <time>2023-05-28T16:30:40.000Z</time>
      </trkpt>
      <trkpt lat="46.20474" lon="-1.50387">
        <ele>51.57556</ele>
        <time>2023-05-28T16:30:41.000Z</time>
      </trkpt>
      <trkpt lat="46.20471" lon="-1.50383">
        <ele>51.54352</ele>
        <time>2023-05-28T16:30:42.000Z</time>
      </trkpt>
      <trkpt lat="46.20468" lon="-1.5038">
        <ele>51.51638</ele>
        <time>2023-05-28T16:30:43.000Z</time>
      </trkpt>
      <trkpt lat="46.20465" lon="-1.50376">
        <ele>51.46909</ele>
        <time>2023-05-28T16:30:44.000Z</time>
      </trkpt>
      <trkpt lat="46.20462" lon="-1.50373">
        <ele>51.43274</ele>
        <time>2023-05-28T16:30:45.000Z</time>
      </trkpt>
      <trkpt lat="46.20459" lon="-1.50369">
        <ele>51.39607</ele>
        <time>2023-05-28T16:30:46.000Z</time>
      </trkpt>
      <trkpt lat="46.20456" lon="-1.50365">
        <ele>51.37239</ele>
        <time>2023-05-28T16:30:47.000Z</time>
      </trkpt>
      <trkpt lat="46.20453" lon="-1.50361">
        <ele>51.3918</ele>
        <time>2023-05-28T16:30:48.000Z</time>
      </trkpt>
      <trkpt lat="46.2045" lon="-1.50356">
        <ele>51.42056</ele>
        <time>2023-05-28T16:30:49.000Z</time>
      </trkpt>
      <trkpt lat="46.20448" lon="-1.50352">
        <ele>51.44637</ele>
        <time>2023-05-28T16:30:50.000Z</time>
      </trkpt>
      <trkpt lat="46.20445" lon="-1.50348">
        <ele>51.46968</ele>
        <time>2023-05-28T16:30:51.000Z</time>
      </trkpt>
      <trkpt lat="46.20443" lon="-1.50343">
        <ele>51.49664</ele>
        <time>2023-05-28T16:30:52.000Z</time>
      </trkpt>
      <trkpt lat="46.2044" lon="-1.50338">
        <ele>51.50866</ele>
        <time>2023-05-28T16:30:53.000Z</time>
      </trkpt>
      <trkpt lat="46.20438" lon="-1.50334">
        <ele>51.54036</ele>
        <time>2023-05-28T16:30:54.000Z</time>
      </trkpt>
      <trkpt lat="46.20436" lon="-1.50329">
        <ele>51.58119</ele>
        <time>2023-05-28T16:30:55.000Z</time>
      </trkpt>
      <trkpt lat="46.20433" lon="-1.50324">
        <ele>51.63854</ele>
        <time>2023-05-28T16:30:56.000Z</time>
      </trkpt>
      <trkpt lat="46.20431" lon="-1.5032">
        <ele>51.69782</ele>
        <time>2023-05-28T16:30:57.000Z</time>
      </trkpt>
      <trkpt lat="46.20429" lon="-1.50315">
        <ele>51.7411</ele>
        <time>2023-05-28T16:30:58.000Z</time>
      </trkpt>
      <trkpt lat="46.20427" lon="-1.5031">
        <ele>51.76296</ele>
        <time>2023-05-28T16:30:59.000Z</time>
      </trkpt>
      <trkpt lat="46.20425" lon="-1.50305">
        <ele>51.79918</ele>
        <time>2023-05-28T16:31:00.000Z</time>
      </trkpt>
      <trkpt lat="46.20423" lon="-1.503">
        <ele>51.83168</ele>
        <time>2023-05-28T16:31:01.000Z</time>
      </trkpt>
      <trkpt lat="46.20421" lon="-1.50295">
        <ele>51.86526</ele>
        <time>2023-05-28T16:31:02.000Z</time>
      </trkpt>
      <trkpt lat="46.20419" lon="-1.5029">
        <ele>51.90577</ele>
        <time>2023-05-28T16:31:03.000Z</time>
      </trkpt>
      <trkpt lat="46.20417" lon="-1.50285">
        <ele>51.94096</ele>
        <time>2023-05-28T16:31:04.000Z</time>
      </trkpt>
      <trkpt lat="46.20416" lon="-1.5028">
        <ele>51.95811</ele>
        <time>2023-05-28T16:31:05.000Z</time>
      </trkpt>
      <trkpt lat="46.20414" lon="-1.50274">
        <ele>51.97091</ele>
        <time>2023-05-28T16:31:06.000Z</time>
      </trkpt>
      <trkpt lat="46.20413" lon="-1.50269">
        <ele>51.9878</ele>
        <time>2023-05-28T16:31:07.000Z</time>
      </trkpt>
      <trkpt lat="46.20411" lon="-1.50263">
        <ele>51.96973</ele>
        <time>2023-05-28T16:31:08.000Z</time>
      </trkpt>
      <trkpt lat="46.2041" lon="-1.50257">
        <ele>51.9398</ele>
        <time>2023-05-28T16:31:09.000Z</time>
      </trkpt>
      <trkpt lat="46.20409" lon="-1.50251">
        <ele>51.91341</ele>
        <time>2023-05-28T16:31:10.000Z</time>
      </trkpt>
      <trkpt lat="46.20408" lon="-1.50245">
        <ele>51.87975</ele>
        <time>2023-05-28T16:31:11.000Z</time>
      </trkpt>
      <trkpt lat="46.20407" lon="-1.5024">
        <ele>51.83259</ele>
        <time>2023-05-28T16:31:12.000Z</time>
      </trkpt>
      <trkpt lat="46.20406" lon="-1.50234">
        <ele>51.79505</ele>
        <time>2023-05-28T16:31:13.000Z</time>
      </trkpt>
      <trkpt lat="46.20405" lon="-1.50228">
        <ele>51.75492</ele>
        <time>2023-05-28T16:31:14.000Z</time>
      </trkpt>
      <trkpt lat="46.20404" lon="-1.50222">
        <ele>51.69191</ele>
        <time>2023-05-28T16:31:15.000Z</time>
      </trkpt>
      <trkpt lat="46.20403" lon="-1.50216">
        <ele>51.61423</ele>
        <time>2023-05-28T16:31:16.000Z</time>
      </trkpt>
      <trkpt lat="46.20403" lon="-1.50211">
        <ele>51.54316</ele>
        <time>2023-05-28T16:31:17.000Z</time>
      </trkpt>
      <trkpt lat="46.20402" lon="-1.50206">
        <ele>51.47079</ele>
        <time>2023-05-28T16:31:18.000Z</time>
      </trkpt>
      <trkpt lat="46.20402" lon="-1.502">
        <ele>51.42086</ele>
        <time>2023-05-28T16:31:19.000Z</time>
      </trkpt>
      <trkpt lat="46.20401" lon="-1.50194">
        <ele>51.37222</ele>
        <time>2023-05-28T16:31:20.000Z</time>
      </trkpt>
      <trkpt lat="46.204" lon="-1.50189">
        <ele>51.34283</ele>
        <time>2023-05-28T16:31:21.000Z</time>
      </trkpt>
      <trkpt lat="46.204" lon="-1.50183">
        <ele>51.2944</ele>
        <time>2023-05-28T16:31:22.000Z</time>
      </trkpt>
      <trkpt lat="46.204" lon="-1.50177">
        <ele>51.24258</ele>
        <time>2023-05-28T16:31:23.000Z</time>
      </trkpt>
      <trkpt lat="46.204" lon="-1.50172">
        <ele>51.18897</ele>
        <time>2023-05-28T16:31:24.000Z</time>
      </trkpt>
      <trkpt lat="46.204" lon="-1.50166">
        <ele>51.15268</ele>
        <time>2023-05-28T16:31:25.000Z</time>
      </trkpt>
      <trkpt lat="46.204" lon="-1.5016">
        <ele>51.12301</ele>
        <time>2023-05-28T16:31:26.000Z</time>
      </trkpt>
      <trkpt lat="46.204" lon="-1.50154">
        <ele>51.08978</ele>
        <time>2023-05-28T16:31:27.000Z</time>
      </trkpt>
      <trkpt lat="46.204" lon="-1.50149">
        <ele>51.05545</ele>
        <time>2023-05-28T16:31:28.000Z</time>
      </trkpt>
      <trkpt lat="46.204" lon="-1.50143">
        <ele>51.03144</ele>
        <time>2023-05-28T16:31:29.000Z</time>
      </trkpt>
      <trkpt lat="46.20399" lon="-1.50137">
        <ele>51.01375</ele>
        <time>2023-05-28T16:31:30.000Z</time>
      </trkpt>
      <trkpt lat="46.20399" lon="-1.5013">
        <ele>51.00338</ele>
        <time>2023-05-28T16:31:31.000Z</time>
      </trkpt>
      <trkpt lat="46.20399" lon="-1.50124">
        <ele>50.99285</ele>
        <time>2023-05-28T16:31:32.000Z</time>
      </trkpt>
      <trkpt lat="46.20398" lon="-1.50118">
        <ele>50.94968</ele>
        <time>2023-05-28T16:31:33.000Z</time>
      </trkpt>
      <trkpt lat="46.20398" lon="-1.50111">
        <ele>50.90459</ele>
        <time>2023-05-28T16:31:34.000Z</time>
      </trkpt>
      <trkpt lat="46.20398" lon="-1.50105">
        <ele>50.8744</ele>
        <time>2023-05-28T16:31:35.000Z</time>
      </trkpt>
      <trkpt lat="46.20398" lon="-1.50099">
        <ele>50.8519</ele>
        <time>2023-05-28T16:31:36.000Z</time>
      </trkpt>
      <trkpt lat="46.20398" lon="-1.50092">
        <ele>50.84246</ele>
        <time>2023-05-28T16:31:37.000Z</time>
      </trkpt>
      <trkpt lat="46.20398" lon="-1.50087">
        <ele>50.83892</ele>
        <time>2023-05-28T16:31:38.000Z</time>
      </trkpt>
      <trkpt lat="46.20398" lon="-1.50081">
        <ele>50.83308</ele>
        <time>2023-05-28T16:31:39.000Z</time>
      </trkpt>
      <trkpt lat="46.20398" lon="-1.50074">
        <ele>50.81215</ele>
        <time>2023-05-28T16:31:40.000Z</time>
      </trkpt>
      <trkpt lat="46.20399" lon="-1.50067">
        <ele>50.78337</ele>
        <time>2023-05-28T16:31:41.000Z</time>
      </trkpt>
      <trkpt lat="46.20398" lon="-1.50058">
        <ele>50.76188</ele>
        <time>2023-05-28T16:31:42.000Z</time>
      </trkpt>
      <trkpt lat="46.20398" lon="-1.50049">
        <ele>50.73824</ele>
        <time>2023-05-28T16:31:43.000Z</time>
      </trkpt>
      <trkpt lat="46.20399" lon="-1.50041">
        <ele>50.72577</ele>
        <time>2023-05-28T16:31:44.000Z</time>
      </trkpt>
      <trkpt lat="46.20399" lon="-1.50034">
        <ele>50.72108</ele>
        <time>2023-05-28T16:31:45.000Z</time>
      </trkpt>
      <trkpt lat="46.20398" lon="-1.50025">
        <ele>50.70023</ele>
        <time>2023-05-28T16:31:46.000Z</time>
      </trkpt>
      <trkpt lat="46.20398" lon="-1.50018">
        <ele>50.68604</ele>
        <time>2023-05-28T16:31:47.000Z</time>
      </trkpt>
      <trkpt lat="46.20399" lon="-1.50012">
        <ele>50.69661</ele>
        <time>2023-05-28T16:31:48.000Z</time>
      </trkpt>
      <trkpt lat="46.204" lon="-1.50006">
        <ele>50.68567</ele>
        <time>2023-05-28T16:31:49.000Z</time>
      </trkpt>
      <trkpt lat="46.20401" lon="-1.50001">
        <ele>50.67022</ele>
        <time>2023-05-28T16:31:50.000Z</time>
      </trkpt>
      <trkpt lat="46.20403" lon="-1.49995">
        <ele>50.6016</ele>
        <time>2023-05-28T16:31:51.000Z</time>
      </trkpt>
      <trkpt lat="46.20404" lon="-1.49989">
        <ele>50.5341</ele>
        <time>2023-05-28T16:31:52.000Z</time>
      </trkpt>
      <trkpt lat="46.20405" lon="-1.49984">
        <ele>50.51432</ele>
        <time>2023-05-28T16:31:53.000Z</time>
      </trkpt>
      <trkpt lat="46.20405" lon="-1.49979">
        <ele>50.49449</ele>
        <time>2023-05-28T16:31:54.000Z</time>
      </trkpt>
      <trkpt lat="46.20406" lon="-1.49974">
        <ele>50.4623</ele>
        <time>2023-05-28T16:31:55.000Z</time>
      </trkpt>
      <trkpt lat="46.20405" lon="-1.49968">
        <ele>50.43428</ele>
        <time>2023-05-28T16:31:56.000Z</time>
      </trkpt>
      <trkpt lat="46.20405" lon="-1.49963">
        <ele>50.40903</ele>
        <time>2023-05-28T16:31:57.000Z</time>
      </trkpt>
      <trkpt lat="46.20406" lon="-1.49958">
        <ele>50.3601</ele>
        <time>2023-05-28T16:31:58.000Z</time>
      </trkpt>
      <trkpt lat="46.20407" lon="-1.49954">
        <ele>50.29075</ele>
        <time>2023-05-28T16:31:59.000Z</time>
      </trkpt>
      <trkpt lat="46.20408" lon="-1.49949">
        <ele>50.25335</ele>
        <time>2023-05-28T16:32:00.000Z</time>
      </trkpt>
      <trkpt lat="46.20408" lon="-1.49946">
        <ele>50.16234</ele>
        <time>2023-05-28T16:32:01.000Z</time>
      </trkpt>
      <trkpt lat="46.20409" lon="-1.49943">
        <ele>50.09734</ele>
        <time>2023-05-28T16:32:02.000Z</time>
      </trkpt>
      <trkpt lat="46.2041" lon="-1.49939">
        <ele>50.05312</ele>
        <time>2023-05-28T16:32:04.000Z</time>
      </trkpt>
      <trkpt lat="46.2041" lon="-1.49934">
        <ele>50.02061</ele>
        <time>2023-05-28T16:32:06.000Z</time>
      </trkpt>
      <trkpt lat="46.20409" lon="-1.49931">
        <ele>49.97677</ele>
        <time>2023-05-28T16:32:07.000Z</time>
      </trkpt>
      <trkpt lat="46.20409" lon="-1.49928">
        <ele>49.9687</ele>
        <time>2023-05-28T16:32:08.000Z</time>
      </trkpt>
      <trkpt lat="46.20409" lon="-1.49925">
        <ele>49.94589</ele>
        <time>2023-05-28T16:32:09.000Z</time>
      </trkpt>
      <trkpt lat="46.20409" lon="-1.49921">
        <ele>49.91512</ele>
        <time>2023-05-28T16:32:10.000Z</time>
      </trkpt>
      <trkpt lat="46.20409" lon="-1.49917">
        <ele>49.9002</ele>
        <time>2023-05-28T16:32:11.000Z</time>
      </trkpt>
      <trkpt lat="46.20408" lon="-1.49913">
        <ele>49.86444</ele>
        <time>2023-05-28T16:32:12.000Z</time>
      </trkpt>
      <trkpt lat="46.20408" lon="-1.49908">
        <ele>49.87749</ele>
        <time>2023-05-28T16:32:13.000Z</time>
      </trkpt>
      <trkpt lat="46.20408" lon="-1.49904">
        <ele>49.88091</ele>
        <time>2023-05-28T16:32:14.000Z</time>
      </trkpt>
      <trkpt lat="46.20408" lon="-1.49899">
        <ele>49.88214</ele>
        <time>2023-05-28T16:32:15.000Z</time>
      </trkpt>
      <trkpt lat="46.20408" lon="-1.49894">
        <ele>49.89473</ele>
        <time>2023-05-28T16:32:16.000Z</time>
      </trkpt>
      <trkpt lat="46.20408" lon="-1.49889">
        <ele>49.91666</ele>
        <time>2023-05-28T16:32:17.000Z</time>
      </trkpt>
      <trkpt lat="46.20407" lon="-1.49884">
        <ele>49.91496</ele>
        <time>2023-05-28T16:32:18.000Z</time>
      </trkpt>
      <trkpt lat="46.20407" lon="-1.49878">
        <ele>49.90437</ele>
        <time>2023-05-28T16:32:19.000Z</time>
      </trkpt>
      <trkpt lat="46.20406" lon="-1.49872">
        <ele>49.91215</ele>
        <time>2023-05-28T16:32:20.000Z</time>
      </trkpt>
      <trkpt lat="46.20406" lon="-1.49866">
        <ele>49.94446</ele>
        <time>2023-05-28T16:32:21.000Z</time>
      </trkpt>
      <trkpt lat="46.20405" lon="-1.49861">
        <ele>49.95295</ele>
        <time>2023-05-28T16:32:22.000Z</time>
      </trkpt>
      <trkpt lat="46.20404" lon="-1.49855">
        <ele>50.01292</ele>
        <time>2023-05-28T16:32:23.000Z</time>
      </trkpt>
      <trkpt lat="46.20404" lon="-1.49849">
        <ele>50.05111</ele>
        <time>2023-05-28T16:32:24.000Z</time>
      </trkpt>
      <trkpt lat="46.20403" lon="-1.49844">
        <ele>50.07486</ele>
        <time>2023-05-28T16:32:25.000Z</time>
      </trkpt>
      <trkpt lat="46.20403" lon="-1.49838">
        <ele>50.09905</ele>
        <time>2023-05-28T16:32:26.000Z</time>
      </trkpt>
      <trkpt lat="46.20402" lon="-1.49832">
        <ele>50.12358</ele>
        <time>2023-05-28T16:32:27.000Z</time>
      </trkpt>
      <trkpt lat="46.20401" lon="-1.49826">
        <ele>50.13472</ele>
        <time>2023-05-28T16:32:28.000Z</time>
      </trkpt>
      <trkpt lat="46.204" lon="-1.4982">
        <ele>50.14407</ele>
        <time>2023-05-28T16:32:29.000Z</time>
      </trkpt>
      <trkpt lat="46.20398" lon="-1.49815">
        <ele>50.14708</ele>
        <time>2023-05-28T16:32:30.000Z</time>
      </trkpt>
      <trkpt lat="46.20397" lon="-1.49809">
        <ele>50.14807</ele>
        <time>2023-05-28T16:32:31.000Z</time>
      </trkpt>
      <trkpt lat="46.20395" lon="-1.49803">
        <ele>50.16607</ele>
        <time>2023-05-28T16:32:32.000Z</time>
      </trkpt>
      <trkpt lat="46.20393" lon="-1.49796">
        <ele>50.19925</ele>
        <time>2023-05-28T16:32:33.000Z</time>
      </trkpt>
      <trkpt lat="46.20391" lon="-1.49791">
        <ele>50.20796</ele>
        <time>2023-05-28T16:32:34.000Z</time>
      </trkpt>
      <trkpt lat="46.20388" lon="-1.49786">
        <ele>50.19265</ele>
        <time>2023-05-28T16:32:35.000Z</time>
      </trkpt>
      <trkpt lat="46.20385" lon="-1.49781">
        <ele>50.16399</ele>
        <time>2023-05-28T16:32:36.000Z</time>
      </trkpt>
      <trkpt lat="46.20383" lon="-1.49776">
        <ele>50.14374</ele>
        <time>2023-05-28T16:32:37.000Z</time>
      </trkpt>
      <trkpt lat="46.20379" lon="-1.49772">
        <ele>50.17824</ele>
        <time>2023-05-28T16:32:38.000Z</time>
      </trkpt>
      <trkpt lat="46.20376" lon="-1.49768">
        <ele>50.20289</ele>
        <time>2023-05-28T16:32:39.000Z</time>
      </trkpt>
      <trkpt lat="46.20374" lon="-1.49764">
        <ele>50.25183</ele>
        <time>2023-05-28T16:32:40.000Z</time>
      </trkpt>
      <trkpt lat="46.20371" lon="-1.4976">
        <ele>50.27295</ele>
        <time>2023-05-28T16:32:41.000Z</time>
      </trkpt>
      <trkpt lat="46.20368" lon="-1.49756">
        <ele>50.28859</ele>
        <time>2023-05-28T16:32:42.000Z</time>
      </trkpt>
      <trkpt lat="46.20365" lon="-1.49752">
        <ele>50.31546</ele>
        <time>2023-05-28T16:32:43.000Z</time>
      </trkpt>
      <trkpt lat="46.20362" lon="-1.49749">
        <ele>50.35604</ele>
        <time>2023-05-28T16:32:44.000Z</time>
      </trkpt>
      <trkpt lat="46.20359" lon="-1.49746">
        <ele>50.39388</ele>
        <time>2023-05-28T16:32:45.000Z</time>
      </trkpt>
      <trkpt lat="46.20356" lon="-1.49742">
        <ele>50.43296</ele>
        <time>2023-05-28T16:32:46.000Z</time>
      </trkpt>
      <trkpt lat="46.20353" lon="-1.49738">
        <ele>50.45907</ele>
        <time>2023-05-28T16:32:47.000Z</time>
      </trkpt>
      <trkpt lat="46.2035" lon="-1.49733">
        <ele>50.48656</ele>
        <time>2023-05-28T16:32:48.000Z</time>
      </trkpt>
      <trkpt lat="46.20346" lon="-1.4973">
        <ele>50.51281</ele>
        <time>2023-05-28T16:32:49.000Z</time>
      </trkpt>
      <trkpt lat="46.20343" lon="-1.49725">
        <ele>50.54328</ele>
        <time>2023-05-28T16:32:50.000Z</time>
      </trkpt>
      <trkpt lat="46.2034" lon="-1.49721">
        <ele>50.56964</ele>
        <time>2023-05-28T16:32:51.000Z</time>
      </trkpt>
      <trkpt lat="46.20336" lon="-1.49716">
        <ele>50.60239</ele>
        <time>2023-05-28T16:32:52.000Z</time>
      </trkpt>
      <trkpt lat="46.20333" lon="-1.4971">
        <ele>50.6178</ele>
        <time>2023-05-28T16:32:53.000Z</time>
      </trkpt>
      <trkpt lat="46.2033" lon="-1.49706">
        <ele>50.65007</ele>
        <time>2023-05-28T16:32:54.000Z</time>
      </trkpt>
      <trkpt lat="46.20327" lon="-1.49701">
        <ele>50.69448</ele>
        <time>2023-05-28T16:32:55.000Z</time>
      </trkpt>
      <trkpt lat="46.20325" lon="-1.49696">
        <ele>50.74354</ele>
        <time>2023-05-28T16:32:56.000Z</time>
      </trkpt>
      <trkpt lat="46.20322" lon="-1.49693">
        <ele>50.75995</ele>
        <time>2023-05-28T16:32:57.000Z</time>
      </trkpt>
      <trkpt lat="46.20319" lon="-1.49688">
        <ele>50.74522</ele>
        <time>2023-05-28T16:32:58.000Z</time>
      </trkpt>
      <trkpt lat="46.20317" lon="-1.49683">
        <ele>50.72095</ele>
        <time>2023-05-28T16:32:59.000Z</time>
      </trkpt>
      <trkpt lat="46.20315" lon="-1.49677">
        <ele>50.66373</ele>
        <time>2023-05-28T16:33:00.000Z</time>
      </trkpt>
      <trkpt lat="46.20312" lon="-1.49672">
        <ele>50.61496</ele>
        <time>2023-05-28T16:33:01.000Z</time>
      </trkpt>
      <trkpt lat="46.2031" lon="-1.49666">
        <ele>50.56639</ele>
        <time>2023-05-28T16:33:02.000Z</time>
      </trkpt>
      <trkpt lat="46.20308" lon="-1.49661">
        <ele>50.50791</ele>
        <time>2023-05-28T16:33:03.000Z</time>
      </trkpt>
      <trkpt lat="46.20306" lon="-1.49655">
        <ele>50.43313</ele>
        <time>2023-05-28T16:33:04.000Z</time>
      </trkpt>
      <trkpt lat="46.20304" lon="-1.4965">
        <ele>50.34823</ele>
        <time>2023-05-28T16:33:05.000Z</time>
      </trkpt>
      <trkpt lat="46.20301" lon="-1.49645">
        <ele>50.25011</ele>
        <time>2023-05-28T16:33:06.000Z</time>
      </trkpt>
      <trkpt lat="46.20299" lon="-1.4964">
        <ele>50.1593</ele>
        <time>2023-05-28T16:33:07.000Z</time>
      </trkpt>
      <trkpt lat="46.20296" lon="-1.49635">
        <ele>50.06515</ele>
        <time>2023-05-28T16:33:08.000Z</time>
      </trkpt>
      <trkpt lat="46.20294" lon="-1.4963">
        <ele>49.98079</ele>
        <time>2023-05-28T16:33:09.000Z</time>
      </trkpt>
      <trkpt lat="46.20292" lon="-1.49624">
        <ele>49.89888</ele>
        <time>2023-05-28T16:33:10.000Z</time>
      </trkpt>
      <trkpt lat="46.2029" lon="-1.49619">
        <ele>49.82587</ele>
        <time>2023-05-28T16:33:11.000Z</time>
      </trkpt>
      <trkpt lat="46.20288" lon="-1.49614">
        <ele>49.7464</ele>
        <time>2023-05-28T16:33:12.000Z</time>
      </trkpt>
      <trkpt lat="46.20285" lon="-1.49609">
        <ele>49.69118</ele>
        <time>2023-05-28T16:33:13.000Z</time>
      </trkpt>
      <trkpt lat="46.20283" lon="-1.49604">
        <ele>49.65427</ele>
        <time>2023-05-28T16:33:14.000Z</time>
      </trkpt>
      <trkpt lat="46.20281" lon="-1.496">
        <ele>49.60566</ele>
        <time>2023-05-28T16:33:15.000Z</time>
      </trkpt>
      <trkpt lat="46.20279" lon="-1.49595">
        <ele>49.56654</ele>
        <time>2023-05-28T16:33:16.000Z</time>
      </trkpt>
      <trkpt lat="46.20277" lon="-1.4959">
        <ele>49.55493</ele>
        <time>2023-05-28T16:33:17.000Z</time>
      </trkpt>
      <trkpt lat="46.20275" lon="-1.49585">
        <ele>49.54788</ele>
        <time>2023-05-28T16:33:18.000Z</time>
      </trkpt>
      <trkpt lat="46.20273" lon="-1.4958">
        <ele>49.55394</ele>
        <time>2023-05-28T16:33:19.000Z</time>
      </trkpt>
      <trkpt lat="46.20271" lon="-1.49575">
        <ele>49.56413</ele>
        <time>2023-05-28T16:33:20.000Z</time>
      </trkpt>
      <trkpt lat="46.20269" lon="-1.4957">
        <ele>49.57281</ele>
        <time>2023-05-28T16:33:21.000Z</time>
      </trkpt>
      <trkpt lat="46.20267" lon="-1.49565">
        <ele>49.58368</ele>
        <time>2023-05-28T16:33:22.000Z</time>
      </trkpt>
      <trkpt lat="46.20265" lon="-1.4956">
        <ele>49.59645</ele>
        <time>2023-05-28T16:33:23.000Z</time>
      </trkpt>
      <trkpt lat="46.20262" lon="-1.49555">
        <ele>49.61695</ele>
        <time>2023-05-28T16:33:24.000Z</time>
      </trkpt>
      <trkpt lat="46.20261" lon="-1.49549">
        <ele>49.64223</ele>
        <time>2023-05-28T16:33:25.000Z</time>
      </trkpt>
      <trkpt lat="46.20259" lon="-1.49544">
        <ele>49.69734</ele>
        <time>2023-05-28T16:33:26.000Z</time>
      </trkpt>
      <trkpt lat="46.20257" lon="-1.49539">
        <ele>49.74932</ele>
        <time>2023-05-28T16:33:27.000Z</time>
      </trkpt>
      <trkpt lat="46.20255" lon="-1.49533">
        <ele>49.78756</ele>
        <time>2023-05-28T16:33:28.000Z</time>
      </trkpt>
      <trkpt lat="46.20253" lon="-1.49528">
        <ele>49.83202</ele>
        <time>2023-05-28T16:33:29.000Z</time>
      </trkpt>
      <trkpt lat="46.20251" lon="-1.49523">
        <ele>49.86755</ele>
        <time>2023-05-28T16:33:30.000Z</time>
      </trkpt>
      <trkpt lat="46.2025" lon="-1.49517">
        <ele>49.88271</ele>
        <time>2023-05-28T16:33:31.000Z</time>
      </trkpt>
      <trkpt lat="46.20248" lon="-1.49512">
        <ele>49.901</ele>
        <time>2023-05-28T16:33:32.000Z</time>
      </trkpt>
      <trkpt lat="46.20246" lon="-1.49506">
        <ele>49.90534</ele>
        <time>2023-05-28T16:33:33.000Z</time>
      </trkpt>
      <trkpt lat="46.20244" lon="-1.49501">
        <ele>49.90056</ele>
        <time>2023-05-28T16:33:34.000Z</time>
      </trkpt>
      <trkpt lat="46.20242" lon="-1.49495">
        <ele>49.90917</ele>
        <time>2023-05-28T16:33:35.000Z</time>
      </trkpt>
      <trkpt lat="46.2024" lon="-1.4949">
        <ele>49.92939</ele>
        <time>2023-05-28T16:33:36.000Z</time>
      </trkpt>
      <trkpt lat="46.20238" lon="-1.49485">
        <ele>49.93375</ele>
        <time>2023-05-28T16:33:37.000Z</time>
      </trkpt>
      <trkpt lat="46.20237" lon="-1.49479">
        <ele>49.93182</ele>
        <time>2023-05-28T16:33:38.000Z</time>
      </trkpt>
      <trkpt lat="46.20235" lon="-1.49474">
        <ele>49.93826</ele>
        <time>2023-05-28T16:33:39.000Z</time>
      </trkpt>
      <trkpt lat="46.20233" lon="-1.49469">
        <ele>49.94153</ele>
        <time>2023-05-28T16:33:40.000Z</time>
      </trkpt>
      <trkpt lat="46.20231" lon="-1.49464">
        <ele>49.96274</ele>
        <time>2023-05-28T16:33:41.000Z</time>
      </trkpt>
      <trkpt lat="46.20229" lon="-1.49458">
        <ele>49.97342</ele>
        <time>2023-05-28T16:33:42.000Z</time>
      </trkpt>
      <trkpt lat="46.20227" lon="-1.49453">
        <ele>49.96947</ele>
        <time>2023-05-28T16:33:43.000Z</time>
      </trkpt>
      <trkpt lat="46.20225" lon="-1.49447">
        <ele>49.94781</ele>
        <time>2023-05-28T16:33:44.000Z</time>
      </trkpt>
      <trkpt lat="46.20223" lon="-1.49442">
        <ele>49.9376</ele>
        <time>2023-05-28T16:33:45.000Z</time>
      </trkpt>
      <trkpt lat="46.2022" lon="-1.49436">
        <ele>49.89616</ele>
        <time>2023-05-28T16:33:46.000Z</time>
      </trkpt>
      <trkpt lat="46.20218" lon="-1.4943">
        <ele>49.86767</ele>
        <time>2023-05-28T16:33:47.000Z</time>
      </trkpt>
      <trkpt lat="46.20216" lon="-1.49424">
        <ele>49.84743</ele>
        <time>2023-05-28T16:33:48.000Z</time>
      </trkpt>
      <trkpt lat="46.20215" lon="-1.49419">
        <ele>49.82704</ele>
        <time>2023-05-28T16:33:49.000Z</time>
      </trkpt>
      <trkpt lat="46.20213" lon="-1.49412">
        <ele>49.80548</ele>
        <time>2023-05-28T16:33:50.000Z</time>
      </trkpt>
      <trkpt lat="46.20211" lon="-1.49406">
        <ele>49.79901</ele>
        <time>2023-05-28T16:33:51.000Z</time>
      </trkpt>
      <trkpt lat="46.2021" lon="-1.494">
        <ele>49.79425</ele>
        <time>2023-05-28T16:33:52.000Z</time>
      </trkpt>
      <trkpt lat="46.20208" lon="-1.49394">
        <ele>49.77692</ele>
        <time>2023-05-28T16:33:53.000Z</time>
      </trkpt>
      <trkpt lat="46.20207" lon="-1.49387">
        <ele>49.76711</ele>
        <time>2023-05-28T16:33:54.000Z</time>
      </trkpt>
      <trkpt lat="46.20206" lon="-1.4938">
        <ele>49.74672</ele>
        <time>2023-05-28T16:33:55.000Z</time>
      </trkpt>
      <trkpt lat="46.20206" lon="-1.49374">
        <ele>49.72993</ele>
        <time>2023-05-28T16:33:56.000Z</time>
      </trkpt>
      <trkpt lat="46.20206" lon="-1.49367">
        <ele>49.76265</ele>
        <time>2023-05-28T16:33:57.000Z</time>
      </trkpt>
      <trkpt lat="46.20207" lon="-1.49361">
        <ele>49.7774</ele>
        <time>2023-05-28T16:33:58.000Z</time>
      </trkpt>
      <trkpt lat="46.20207" lon="-1.49354">
        <ele>49.79657</ele>
        <time>2023-05-28T16:33:59.000Z</time>
      </trkpt>
      <trkpt lat="46.20208" lon="-1.49348">
        <ele>49.81464</ele>
        <time>2023-05-28T16:34:00.000Z</time>
      </trkpt>
      <trkpt lat="46.20209" lon="-1.49342">
        <ele>49.83164</ele>
        <time>2023-05-28T16:34:01.000Z</time>
      </trkpt>
      <trkpt lat="46.20209" lon="-1.49336">
        <ele>49.85595</ele>
        <time>2023-05-28T16:34:02.000Z</time>
      </trkpt>
      <trkpt lat="46.2021" lon="-1.49329">
        <ele>49.89115</ele>
        <time>2023-05-28T16:34:03.000Z</time>
      </trkpt>
      <trkpt lat="46.20211" lon="-1.49322">
        <ele>49.92302</ele>
        <time>2023-05-28T16:34:04.000Z</time>
      </trkpt>
      <trkpt lat="46.20212" lon="-1.49316">
        <ele>49.91955</ele>
        <time>2023-05-28T16:34:05.000Z</time>
      </trkpt>
      <trkpt lat="46.20214" lon="-1.4931">
        <ele>49.91792</ele>
        <time>2023-05-28T16:34:06.000Z</time>
      </trkpt>
      <trkpt lat="46.20214" lon="-1.49304">
        <ele>49.90277</ele>
        <time>2023-05-28T16:34:07.000Z</time>
      </trkpt>
      <trkpt lat="46.20215" lon="-1.49298">
        <ele>49.89583</ele>
        <time>2023-05-28T16:34:08.000Z</time>
      </trkpt>
      <trkpt lat="46.20216" lon="-1.49292">
        <ele>49.88035</ele>
        <time>2023-05-28T16:34:09.000Z</time>
      </trkpt>
      <trkpt lat="46.20218" lon="-1.49286">
        <ele>49.86988</ele>
        <time>2023-05-28T16:34:10.000Z</time>
      </trkpt>
      <trkpt lat="46.20219" lon="-1.4928">
        <ele>49.8652</ele>
        <time>2023-05-28T16:34:11.000Z</time>
      </trkpt>
      <trkpt lat="46.2022" lon="-1.49273">
        <ele>49.86945</ele>
        <time>2023-05-28T16:34:12.000Z</time>
      </trkpt>
      <trkpt lat="46.2022" lon="-1.49267">
        <ele>49.81876</ele>
        <time>2023-05-28T16:34:13.000Z</time>
      </trkpt>
      <trkpt lat="46.2022" lon="-1.4926">
        <ele>49.76447</ele>
        <time>2023-05-28T16:34:14.000Z</time>
      </trkpt>
      <trkpt lat="46.20221" lon="-1.49254">
        <ele>49.71061</ele>
        <time>2023-05-28T16:34:15.000Z</time>
      </trkpt>
      <trkpt lat="46.20221" lon="-1.49248">
        <ele>49.64065</ele>
        <time>2023-05-28T16:34:16.000Z</time>
      </trkpt>
      <trkpt lat="46.2022" lon="-1.49242">
        <ele>49.53273</ele>
        <time>2023-05-28T16:34:17.000Z</time>
      </trkpt>
      <trkpt lat="46.2022" lon="-1.49236">
        <ele>49.4572</ele>
        <time>2023-05-28T16:34:18.000Z</time>
      </trkpt>
      <trkpt lat="46.20219" lon="-1.4923">
        <ele>49.36665</ele>
        <time>2023-05-28T16:34:19.000Z</time>
      </trkpt>
      <trkpt lat="46.20219" lon="-1.49223">
        <ele>49.26846</ele>
        <time>2023-05-28T16:34:20.000Z</time>
      </trkpt>
      <trkpt lat="46.20219" lon="-1.49217">
        <ele>49.17523</ele>
        <time>2023-05-28T16:34:21.000Z</time>
      </trkpt>
      <trkpt lat="46.20218" lon="-1.49211">
        <ele>49.09602</ele>
        <time>2023-05-28T16:34:22.000Z</time>
      </trkpt>
      <trkpt lat="46.20217" lon="-1.49205">
        <ele>49.00579</ele>
        <time>2023-05-28T16:34:23.000Z</time>
      </trkpt>
      <trkpt lat="46.20215" lon="-1.492">
        <ele>48.94844</ele>
        <time>2023-05-28T16:34:24.000Z</time>
      </trkpt>
      <trkpt lat="46.20214" lon="-1.49194">
        <ele>48.92765</ele>
        <time>2023-05-28T16:34:25.000Z</time>
      </trkpt>
      <trkpt lat="46.20212" lon="-1.49188">
        <ele>48.89437</ele>
        <time>2023-05-28T16:34:26.000Z</time>
      </trkpt>
      <trkpt lat="46.20211" lon="-1.49182">
        <ele>48.87669</ele>
        <time>2023-05-28T16:34:27.000Z</time>
      </trkpt>
      <trkpt lat="46.20209" lon="-1.49177">
        <ele>48.86089</ele>
        <time>2023-05-28T16:34:28.000Z</time>
      </trkpt>
      <trkpt lat="46.20207" lon="-1.49171">
        <ele>48.84699</ele>
        <time>2023-05-28T16:34:29.000Z</time>
      </trkpt>
      <trkpt lat="46.20206" lon="-1.49166">
        <ele>48.83728</ele>
        <time>2023-05-28T16:34:30.000Z</time>
      </trkpt>
      <trkpt lat="46.20204" lon="-1.4916">
        <ele>48.84993</ele>
        <time>2023-05-28T16:34:31.000Z</time>
      </trkpt>
      <trkpt lat="46.20203" lon="-1.49155">
        <ele>48.84492</ele>
        <time>2023-05-28T16:34:32.000Z</time>
      </trkpt>
      <trkpt lat="46.20202" lon="-1.4915">
        <ele>48.90242</ele>
        <time>2023-05-28T16:34:33.000Z</time>
      </trkpt>
      <trkpt lat="46.20201" lon="-1.49145">
        <ele>48.95849</ele>
        <time>2023-05-28T16:34:34.000Z</time>
      </trkpt>
      <trkpt lat="46.20199" lon="-1.49139">
        <ele>49.0299</ele>
        <time>2023-05-28T16:34:35.000Z</time>
      </trkpt>
      <trkpt lat="46.20198" lon="-1.49133">
        <ele>49.09476</ele>
        <time>2023-05-28T16:34:36.000Z</time>
      </trkpt>
      <trkpt lat="46.20197" lon="-1.49128">
        <ele>49.15127</ele>
        <time>2023-05-28T16:34:37.000Z</time>
      </trkpt>
      <trkpt lat="46.20195" lon="-1.49123">
        <ele>49.19402</ele>
        <time>2023-05-28T16:34:38.000Z</time>
      </trkpt>
      <trkpt lat="46.20193" lon="-1.49117">
        <ele>49.23933</ele>
        <time>2023-05-28T16:34:39.000Z</time>
      </trkpt>
      <trkpt lat="46.20192" lon="-1.49112">
        <ele>49.30087</ele>
        <time>2023-05-28T16:34:40.000Z</time>
      </trkpt>
      <trkpt lat="46.2019" lon="-1.49106">
        <ele>49.36533</ele>
        <time>2023-05-28T16:34:41.000Z</time>
      </trkpt>
      <trkpt lat="46.20187" lon="-1.491">
        <ele>49.42446</ele>
        <time>2023-05-28T16:34:42.000Z</time>
      </trkpt>
      <trkpt lat="46.20186" lon="-1.49093">
        <ele>49.48826</ele>
        <time>2023-05-28T16:34:43.000Z</time>
      </trkpt>
      <trkpt lat="46.20185" lon="-1.49088">
        <ele>49.57897</ele>
        <time>2023-05-28T16:34:44.000Z</time>
      </trkpt>
      <trkpt lat="46.20183" lon="-1.49082">
        <ele>49.65215</ele>
        <time>2023-05-28T16:34:45.000Z</time>
      </trkpt>
      <trkpt lat="46.20181" lon="-1.49076">
        <ele>49.70256</ele>
        <time>2023-05-28T16:34:46.000Z</time>
      </trkpt>
      <trkpt lat="46.2018" lon="-1.4907">
        <ele>49.74786</ele>
        <time>2023-05-28T16:34:47.000Z</time>
      </trkpt>
      <trkpt lat="46.20178" lon="-1.49064">
        <ele>49.78326</ele>
        <time>2023-05-28T16:34:48.000Z</time>
      </trkpt>
      <trkpt lat="46.20176" lon="-1.49058">
        <ele>49.82701</ele>
        <time>2023-05-28T16:34:49.000Z</time>
      </trkpt>
      <trkpt lat="46.20174" lon="-1.49052">
        <ele>49.83599</ele>
        <time>2023-05-28T16:34:50.000Z</time>
      </trkpt>
      <trkpt lat="46.20173" lon="-1.49046">
        <ele>49.82605</ele>
        <time>2023-05-28T16:34:51.000Z</time>
      </trkpt>
      <trkpt lat="46.20171" lon="-1.4904">
        <ele>49.82762</ele>
        <time>2023-05-28T16:34:52.000Z</time>
      </trkpt>
      <trkpt lat="46.2017" lon="-1.49034">
        <ele>49.83546</ele>
        <time>2023-05-28T16:34:53.000Z</time>
      </trkpt>
      <trkpt lat="46.20168" lon="-1.49028">
        <ele>49.84021</ele>
        <time>2023-05-28T16:34:54.000Z</time>
      </trkpt>
      <trkpt lat="46.20167" lon="-1.49022">
        <ele>49.83908</ele>
        <time>2023-05-28T16:34:55.000Z</time>
      </trkpt>
      <trkpt lat="46.20165" lon="-1.49016">
        <ele>49.85583</ele>
        <time>2023-05-28T16:34:56.000Z</time>
      </trkpt>
      <trkpt lat="46.20163" lon="-1.4901">
        <ele>49.88313</ele>
        <time>2023-05-28T16:34:57.000Z</time>
      </trkpt>
      <trkpt lat="46.20161" lon="-1.49005">
        <ele>49.91636</ele>
        <time>2023-05-28T16:34:58.000Z</time>
      </trkpt>
      <trkpt lat="46.2016" lon="-1.48999">
        <ele>49.95635</ele>
        <time>2023-05-28T16:34:59.000Z</time>
      </trkpt>
      <trkpt lat="46.20158" lon="-1.48993">
        <ele>49.9999</ele>
        <time>2023-05-28T16:35:00.000Z</time>
      </trkpt>
      <trkpt lat="46.20157" lon="-1.48988">
        <ele>50.04164</ele>
        <time>2023-05-28T16:35:01.000Z</time>
      </trkpt>
      <trkpt lat="46.20155" lon="-1.48982">
        <ele>50.07581</ele>
        <time>2023-05-28T16:35:02.000Z</time>
      </trkpt>
      <trkpt lat="46.20153" lon="-1.48977">
        <ele>50.10397</ele>
        <time>2023-05-28T16:35:03.000Z</time>
      </trkpt>
      <trkpt lat="46.20152" lon="-1.48971">
        <ele>50.09338</ele>
        <time>2023-05-28T16:35:04.000Z</time>
      </trkpt>
      <trkpt lat="46.2015" lon="-1.48965">
        <ele>50.08009</ele>
        <time>2023-05-28T16:35:05.000Z</time>
      </trkpt>
      <trkpt lat="46.20148" lon="-1.4896">
        <ele>50.10348</ele>
        <time>2023-05-28T16:35:06.000Z</time>
      </trkpt>
      <trkpt lat="46.20146" lon="-1.48954">
        <ele>50.12056</ele>
        <time>2023-05-28T16:35:07.000Z</time>
      </trkpt>
      <trkpt lat="46.20145" lon="-1.48948">
        <ele>50.14013</ele>
        <time>2023-05-28T16:35:08.000Z</time>
      </trkpt>
      <trkpt lat="46.20143" lon="-1.48942">
        <ele>50.14629</ele>
        <time>2023-05-28T16:35:09.000Z</time>
      </trkpt>
      <trkpt lat="46.20141" lon="-1.48937">
        <ele>50.17827</ele>
        <time>2023-05-28T16:35:10.000Z</time>
      </trkpt>
      <trkpt lat="46.20139" lon="-1.48932">
        <ele>50.19411</ele>
        <time>2023-05-28T16:35:11.000Z</time>
      </trkpt>
      <trkpt lat="46.20138" lon="-1.48926">
        <ele>50.20427</ele>
        <time>2023-05-28T16:35:12.000Z</time>
      </trkpt>
      <trkpt lat="46.20136" lon="-1.4892">
        <ele>50.23138</ele>
        <time>2023-05-28T16:35:13.000Z</time>
      </trkpt>
      <trkpt lat="46.20134" lon="-1.48914">
        <ele>50.2506</ele>
        <time>2023-05-28T16:35:14.000Z</time>
      </trkpt>
      <trkpt lat="46.20133" lon="-1.48908">
        <ele>50.26579</ele>
        <time>2023-05-28T16:35:15.000Z</time>
      </trkpt>
      <trkpt lat="46.20131" lon="-1.48902">
        <ele>50.24512</ele>
        <time>2023-05-28T16:35:16.000Z</time>
      </trkpt>
      <trkpt lat="46.2013" lon="-1.48896">
        <ele>50.2279</ele>
        <time>2023-05-28T16:35:17.000Z</time>
      </trkpt>
      <trkpt lat="46.20128" lon="-1.48891">
        <ele>50.20846</ele>
        <time>2023-05-28T16:35:18.000Z</time>
      </trkpt>
      <trkpt lat="46.20127" lon="-1.48885">
        <ele>50.18194</ele>
        <time>2023-05-28T16:35:19.000Z</time>
      </trkpt>
      <trkpt lat="46.20125" lon="-1.48879">
        <ele>50.1341</ele>
        <time>2023-05-28T16:35:20.000Z</time>
      </trkpt>
      <trkpt lat="46.20123" lon="-1.48873">
        <ele>50.10059</ele>
        <time>2023-05-28T16:35:21.000Z</time>
      </trkpt>
      <trkpt lat="46.20121" lon="-1.48868">
        <ele>50.0719</ele>
        <time>2023-05-28T16:35:22.000Z</time>
      </trkpt>
      <trkpt lat="46.20119" lon="-1.48863">
        <ele>50.07772</ele>
        <time>2023-05-28T16:35:23.000Z</time>
      </trkpt>
      <trkpt lat="46.20118" lon="-1.48857">
        <ele>50.08939</ele>
        <time>2023-05-28T16:35:24.000Z</time>
      </trkpt>
      <trkpt lat="46.20116" lon="-1.48852">
        <ele>50.11032</ele>
        <time>2023-05-28T16:35:25.000Z</time>
      </trkpt>
      <trkpt lat="46.20115" lon="-1.48846">
        <ele>50.13081</ele>
        <time>2023-05-28T16:35:26.000Z</time>
      </trkpt>
      <trkpt lat="46.20113" lon="-1.48841">
        <ele>50.16347</ele>
        <time>2023-05-28T16:35:27.000Z</time>
      </trkpt>
      <trkpt lat="46.20111" lon="-1.48835">
        <ele>50.20316</ele>
        <time>2023-05-28T16:35:28.000Z</time>
      </trkpt>
      <trkpt lat="46.20109" lon="-1.4883">
        <ele>50.24226</ele>
        <time>2023-05-28T16:35:29.000Z</time>
      </trkpt>
      <trkpt lat="46.20108" lon="-1.48825">
        <ele>50.29027</ele>
        <time>2023-05-28T16:35:30.000Z</time>
      </trkpt>
      <trkpt lat="46.20106" lon="-1.4882">
        <ele>50.3413</ele>
        <time>2023-05-28T16:35:31.000Z</time>
      </trkpt>
      <trkpt lat="46.20105" lon="-1.48816">
        <ele>50.39948</ele>
        <time>2023-05-28T16:35:32.000Z</time>
      </trkpt>
      <trkpt lat="46.20103" lon="-1.48811">
        <ele>50.43182</ele>
        <time>2023-05-28T16:35:33.000Z</time>
      </trkpt>
      <trkpt lat="46.20101" lon="-1.48806">
        <ele>50.49598</ele>
        <time>2023-05-28T16:35:34.000Z</time>
      </trkpt>
      <trkpt lat="46.201" lon="-1.48801">
        <ele>50.56255</ele>
        <time>2023-05-28T16:35:35.000Z</time>
      </trkpt>
      <trkpt lat="46.20099" lon="-1.48796">
        <ele>50.64942</ele>
        <time>2023-05-28T16:35:36.000Z</time>
      </trkpt>
      <trkpt lat="46.20098" lon="-1.48791">
        <ele>50.73176</ele>
        <time>2023-05-28T16:35:37.000Z</time>
      </trkpt>
      <trkpt lat="46.20097" lon="-1.48785">
        <ele>50.8168</ele>
        <time>2023-05-28T16:35:38.000Z</time>
      </trkpt>
      <trkpt lat="46.20096" lon="-1.4878">
        <ele>50.93365</ele>
        <time>2023-05-28T16:35:39.000Z</time>
      </trkpt>
      <trkpt lat="46.20096" lon="-1.48774">
        <ele>51.05616</ele>
        <time>2023-05-28T16:35:40.000Z</time>
      </trkpt>
      <trkpt lat="46.20096" lon="-1.48769">
        <ele>51.15644</ele>
        <time>2023-05-28T16:35:41.000Z</time>
      </trkpt>
      <trkpt lat="46.20097" lon="-1.48763">
        <ele>51.27007</ele>
        <time>2023-05-28T16:35:42.000Z</time>
      </trkpt>
      <trkpt lat="46.20097" lon="-1.48757">
        <ele>51.36173</ele>
        <time>2023-05-28T16:35:43.000Z</time>
      </trkpt>
      <trkpt lat="46.20098" lon="-1.48751">
        <ele>51.44422</ele>
        <time>2023-05-28T16:35:44.000Z</time>
      </trkpt>
      <trkpt lat="46.20098" lon="-1.48745">
        <ele>51.52633</ele>
        <time>2023-05-28T16:35:45.000Z</time>
      </trkpt>
      <trkpt lat="46.20099" lon="-1.4874">
        <ele>51.61467</ele>
        <time>2023-05-28T16:35:46.000Z</time>
      </trkpt>
      <trkpt lat="46.201" lon="-1.48734">
        <ele>51.70023</ele>
        <time>2023-05-28T16:35:47.000Z</time>
      </trkpt>
      <trkpt lat="46.20101" lon="-1.48728">
        <ele>51.70512</ele>
        <time>2023-05-28T16:35:48.000Z</time>
      </trkpt>
      <trkpt lat="46.20102" lon="-1.48722">
        <ele>51.70189</ele>
        <time>2023-05-28T16:35:49.000Z</time>
      </trkpt>
      <trkpt lat="46.20103" lon="-1.48717">
        <ele>51.71621</ele>
        <time>2023-05-28T16:35:50.000Z</time>
      </trkpt>
      <trkpt lat="46.20104" lon="-1.48712">
        <ele>51.74981</ele>
        <time>2023-05-28T16:35:51.000Z</time>
      </trkpt>
      <trkpt lat="46.20105" lon="-1.48706">
        <ele>51.76417</ele>
        <time>2023-05-28T16:35:52.000Z</time>
      </trkpt>
      <trkpt lat="46.20106" lon="-1.48701">
        <ele>51.75664</ele>
        <time>2023-05-28T16:35:53.000Z</time>
      </trkpt>
      <trkpt lat="46.20107" lon="-1.48695">
        <ele>51.71003</ele>
        <time>2023-05-28T16:35:54.000Z</time>
      </trkpt>
      <trkpt lat="46.20109" lon="-1.4869">
        <ele>51.67117</ele>
        <time>2023-05-28T16:35:55.000Z</time>
      </trkpt>
      <trkpt lat="46.20111" lon="-1.48686">
        <ele>51.63683</ele>
        <time>2023-05-28T16:35:56.000Z</time>
      </trkpt>
      <trkpt lat="46.20114" lon="-1.48681">
        <ele>51.61621</ele>
        <time>2023-05-28T16:35:57.000Z</time>
      </trkpt>
      <trkpt lat="46.20117" lon="-1.48676">
        <ele>51.58403</ele>
        <time>2023-05-28T16:35:58.000Z</time>
      </trkpt>
      <trkpt lat="46.2012" lon="-1.48672">
        <ele>51.56596</ele>
        <time>2023-05-28T16:35:59.000Z</time>
      </trkpt>
      <trkpt lat="46.20123" lon="-1.48668">
        <ele>51.54995</ele>
        <time>2023-05-28T16:36:00.000Z</time>
      </trkpt>
      <trkpt lat="46.20126" lon="-1.48664">
        <ele>51.54261</ele>
        <time>2023-05-28T16:36:01.000Z</time>
      </trkpt>
      <trkpt lat="46.2013" lon="-1.4866">
        <ele>51.52142</ele>
        <time>2023-05-28T16:36:02.000Z</time>
      </trkpt>
      <trkpt lat="46.20133" lon="-1.48656">
        <ele>51.5012</ele>
        <time>2023-05-28T16:36:03.000Z</time>
      </trkpt>
      <trkpt lat="46.20136" lon="-1.48652">
        <ele>51.48955</ele>
        <time>2023-05-28T16:36:04.000Z</time>
      </trkpt>
      <trkpt lat="46.20139" lon="-1.48649">
        <ele>51.474</ele>
        <time>2023-05-28T16:36:05.000Z</time>
      </trkpt>
      <trkpt lat="46.20142" lon="-1.48645">
        <ele>51.46355</ele>
        <time>2023-05-28T16:36:06.000Z</time>
      </trkpt>
      <trkpt lat="46.20145" lon="-1.48641">
        <ele>51.44678</ele>
        <time>2023-05-28T16:36:07.000Z</time>
      </trkpt>
      <trkpt lat="46.20148" lon="-1.48636">
        <ele>51.51347</ele>
        <time>2023-05-28T16:36:08.000Z</time>
      </trkpt>
      <trkpt lat="46.20151" lon="-1.48631">
        <ele>51.57225</ele>
        <time>2023-05-28T16:36:09.000Z</time>
      </trkpt>
      <trkpt lat="46.20154" lon="-1.48626">
        <ele>51.61714</ele>
        <time>2023-05-28T16:36:10.000Z</time>
      </trkpt>
      <trkpt lat="46.20157" lon="-1.48621">
        <ele>51.63877</ele>
        <time>2023-05-28T16:36:11.000Z</time>
      </trkpt>
      <trkpt lat="46.20159" lon="-1.48616">
        <ele>51.68329</ele>
        <time>2023-05-28T16:36:12.000Z</time>
      </trkpt>
      <trkpt lat="46.20162" lon="-1.48611">
        <ele>51.75756</ele>
        <time>2023-05-28T16:36:13.000Z</time>
      </trkpt>
      <trkpt lat="46.20164" lon="-1.48606">
        <ele>51.85855</ele>
        <time>2023-05-28T16:36:14.000Z</time>
      </trkpt>
      <trkpt lat="46.20165" lon="-1.48601">
        <ele>51.94109</ele>
        <time>2023-05-28T16:36:15.000Z</time>
      </trkpt>
      <trkpt lat="46.20167" lon="-1.48595">
        <ele>52.01805</ele>
        <time>2023-05-28T16:36:16.000Z</time>
      </trkpt>
      <trkpt lat="46.20169" lon="-1.4859">
        <ele>52.08472</ele>
        <time>2023-05-28T16:36:17.000Z</time>
      </trkpt>
      <trkpt lat="46.20171" lon="-1.48584">
        <ele>52.15837</ele>
        <time>2023-05-28T16:36:18.000Z</time>
      </trkpt>
      <trkpt lat="46.20173" lon="-1.48579">
        <ele>52.19697</ele>
        <time>2023-05-28T16:36:19.000Z</time>
      </trkpt>
      <trkpt lat="46.20176" lon="-1.48574">
        <ele>52.22526</ele>
        <time>2023-05-28T16:36:20.000Z</time>
      </trkpt>
      <trkpt lat="46.20178" lon="-1.48569">
        <ele>52.23571</ele>
        <time>2023-05-28T16:36:21.000Z</time>
      </trkpt>
      <trkpt lat="46.20179" lon="-1.48564">
        <ele>52.2452</ele>
        <time>2023-05-28T16:36:22.000Z</time>
      </trkpt>
      <trkpt lat="46.20181" lon="-1.48559">
        <ele>52.22827</ele>
        <time>2023-05-28T16:36:23.000Z</time>
      </trkpt>
      <trkpt lat="46.20183" lon="-1.48553">
        <ele>52.22994</ele>
        <time>2023-05-28T16:36:24.000Z</time>
      </trkpt>
      <trkpt lat="46.20185" lon="-1.48548">
        <ele>52.23869</ele>
        <time>2023-05-28T16:36:25.000Z</time>
      </trkpt>
      <trkpt lat="46.20187" lon="-1.48543">
        <ele>52.25872</ele>
        <time>2023-05-28T16:36:26.000Z</time>
      </trkpt>
      <trkpt lat="46.20189" lon="-1.48537">
        <ele>52.27775</ele>
        <time>2023-05-28T16:36:27.000Z</time>
      </trkpt>
      <trkpt lat="46.2019" lon="-1.48532">
        <ele>52.2783</ele>
        <time>2023-05-28T16:36:28.000Z</time>
      </trkpt>
      <trkpt lat="46.20192" lon="-1.48527">
        <ele>52.29252</ele>
        <time>2023-05-28T16:36:29.000Z</time>
      </trkpt>
      <trkpt lat="46.20193" lon="-1.48521">
        <ele>52.30402</ele>
        <time>2023-05-28T16:36:30.000Z</time>
      </trkpt>
      <trkpt lat="46.20195" lon="-1.48515">
        <ele>52.31624</ele>
        <time>2023-05-28T16:36:31.000Z</time>
      </trkpt>
      <trkpt lat="46.20196" lon="-1.48509">
        <ele>52.32323</ele>
        <time>2023-05-28T16:36:32.000Z</time>
      </trkpt>
      <trkpt lat="46.20198" lon="-1.48503">
        <ele>52.33109</ele>
        <time>2023-05-28T16:36:33.000Z</time>
      </trkpt>
      <trkpt lat="46.20198" lon="-1.48497">
        <ele>52.36211</ele>
        <time>2023-05-28T16:36:34.000Z</time>
      </trkpt>
      <trkpt lat="46.20199" lon="-1.4849">
        <ele>52.40863</ele>
        <time>2023-05-28T16:36:35.000Z</time>
      </trkpt>
      <trkpt lat="46.20201" lon="-1.48484">
        <ele>52.44872</ele>
        <time>2023-05-28T16:36:36.000Z</time>
      </trkpt>
      <trkpt lat="46.20202" lon="-1.48478">
        <ele>52.47509</ele>
        <time>2023-05-28T16:36:37.000Z</time>
      </trkpt>
      <trkpt lat="46.20203" lon="-1.48472">
        <ele>52.4935</ele>
        <time>2023-05-28T16:36:38.000Z</time>
      </trkpt>
      <trkpt lat="46.20204" lon="-1.48465">
        <ele>52.47616</ele>
        <time>2023-05-28T16:36:39.000Z</time>
      </trkpt>
      <trkpt lat="46.20206" lon="-1.48459">
        <ele>52.47272</ele>
        <time>2023-05-28T16:36:40.000Z</time>
      </trkpt>
      <trkpt lat="46.20206" lon="-1.48453">
        <ele>52.49772</ele>
        <time>2023-05-28T16:36:41.000Z</time>
      </trkpt>
      <trkpt lat="46.20207" lon="-1.48447">
        <ele>52.51904</ele>
        <time>2023-05-28T16:36:42.000Z</time>
      </trkpt>
      <trkpt lat="46.20208" lon="-1.48441">
        <ele>52.59658</ele>
        <time>2023-05-28T16:36:43.000Z</time>
      </trkpt>
      <trkpt lat="46.20209" lon="-1.48436">
        <ele>52.65278</ele>
        <time>2023-05-28T16:36:44.000Z</time>
      </trkpt>
      <trkpt lat="46.2021" lon="-1.48431">
        <ele>52.7016</ele>
        <time>2023-05-28T16:36:45.000Z</time>
      </trkpt>
      <trkpt lat="46.2021" lon="-1.48425">
        <ele>52.72075</ele>
        <time>2023-05-28T16:36:46.000Z</time>
      </trkpt>
      <trkpt lat="46.20212" lon="-1.48419">
        <ele>52.72892</ele>
        <time>2023-05-28T16:36:47.000Z</time>
      </trkpt>
      <trkpt lat="46.20213" lon="-1.48413">
        <ele>52.74225</ele>
        <time>2023-05-28T16:36:48.000Z</time>
      </trkpt>
      <trkpt lat="46.20214" lon="-1.48408">
        <ele>52.79237</ele>
        <time>2023-05-28T16:36:49.000Z</time>
      </trkpt>
      <trkpt lat="46.20215" lon="-1.48402">
        <ele>52.83394</ele>
        <time>2023-05-28T16:36:50.000Z</time>
      </trkpt>
      <trkpt lat="46.20216" lon="-1.48396">
        <ele>52.88562</ele>
        <time>2023-05-28T16:36:51.000Z</time>
      </trkpt>
      <trkpt lat="46.20217" lon="-1.4839">
        <ele>52.94484</ele>
        <time>2023-05-28T16:36:52.000Z</time>
      </trkpt>
      <trkpt lat="46.20219" lon="-1.48384">
        <ele>52.9967</ele>
        <time>2023-05-28T16:36:53.000Z</time>
      </trkpt>
      <trkpt lat="46.2022" lon="-1.48378">
        <ele>53.01237</ele>
        <time>2023-05-28T16:36:54.000Z</time>
      </trkpt>
      <trkpt lat="46.2022" lon="-1.48372">
        <ele>53.01316</ele>
        <time>2023-05-28T16:36:55.000Z</time>
      </trkpt>
      <trkpt lat="46.20221" lon="-1.48366">
        <ele>53.01432</ele>
        <time>2023-05-28T16:36:56.000Z</time>
      </trkpt>
      <trkpt lat="46.20221" lon="-1.4836">
        <ele>52.99823</ele>
        <time>2023-05-28T16:36:57.000Z</time>
      </trkpt>
      <trkpt lat="46.20221" lon="-1.48354">
        <ele>52.99457</ele>
        <time>2023-05-28T16:36:58.000Z</time>
      </trkpt>
      <trkpt lat="46.20221" lon="-1.48348">
        <ele>52.99977</ele>
        <time>2023-05-28T16:36:59.000Z</time>
      </trkpt>
      <trkpt lat="46.20221" lon="-1.48342">
        <ele>53.00765</ele>
        <time>2023-05-28T16:37:00.000Z</time>
      </trkpt>
      <trkpt lat="46.20221" lon="-1.48336">
        <ele>53.00975</ele>
        <time>2023-05-28T16:37:01.000Z</time>
      </trkpt>
      <trkpt lat="46.20222" lon="-1.4833">
        <ele>53.019</ele>
        <time>2023-05-28T16:37:02.000Z</time>
      </trkpt>
      <trkpt lat="46.20223" lon="-1.48324">
        <ele>52.9913</ele>
        <time>2023-05-28T16:37:03.000Z</time>
      </trkpt>
      <trkpt lat="46.20225" lon="-1.48318">
        <ele>52.97109</ele>
        <time>2023-05-28T16:37:04.000Z</time>
      </trkpt>
      <trkpt lat="46.20227" lon="-1.48311">
        <ele>52.94503</ele>
        <time>2023-05-28T16:37:05.000Z</time>
      </trkpt>
      <trkpt lat="46.20229" lon="-1.48305">
        <ele>52.92628</ele>
        <time>2023-05-28T16:37:06.000Z</time>
      </trkpt>
      <trkpt lat="46.2023" lon="-1.48298">
        <ele>52.90054</ele>
        <time>2023-05-28T16:37:07.000Z</time>
      </trkpt>
      <trkpt lat="46.20231" lon="-1.48292">
        <ele>52.88659</ele>
        <time>2023-05-28T16:37:08.000Z</time>
      </trkpt>
      <trkpt lat="46.20233" lon="-1.48287">
        <ele>52.85206</ele>
        <time>2023-05-28T16:37:09.000Z</time>
      </trkpt>
      <trkpt lat="46.20234" lon="-1.48281">
        <ele>52.8261</ele>
        <time>2023-05-28T16:37:10.000Z</time>
      </trkpt>
      <trkpt lat="46.20235" lon="-1.48275">
        <ele>52.79022</ele>
        <time>2023-05-28T16:37:11.000Z</time>
      </trkpt>
      <trkpt lat="46.20236" lon="-1.48269">
        <ele>52.73097</ele>
        <time>2023-05-28T16:37:12.000Z</time>
      </trkpt>
      <trkpt lat="46.20237" lon="-1.48263">
        <ele>52.66735</ele>
        <time>2023-05-28T16:37:13.000Z</time>
      </trkpt>
      <trkpt lat="46.20238" lon="-1.48257">
        <ele>52.61048</ele>
        <time>2023-05-28T16:37:14.000Z</time>
      </trkpt>
      <trkpt lat="46.20239" lon="-1.48251">
        <ele>52.54757</ele>
        <time>2023-05-28T16:37:15.000Z</time>
      </trkpt>
      <trkpt lat="46.2024" lon="-1.48244">
        <ele>52.48861</ele>
        <time>2023-05-28T16:37:16.000Z</time>
      </trkpt>
      <trkpt lat="46.20241" lon="-1.48238">
        <ele>52.43233</ele>
        <time>2023-05-28T16:37:17.000Z</time>
      </trkpt>
      <trkpt lat="46.20241" lon="-1.48232">
        <ele>52.36623</ele>
        <time>2023-05-28T16:37:18.000Z</time>
      </trkpt>
      <trkpt lat="46.20242" lon="-1.48226">
        <ele>52.31985</ele>
        <time>2023-05-28T16:37:19.000Z</time>
      </trkpt>
      <trkpt lat="46.20243" lon="-1.48221">
        <ele>52.27294</ele>
        <time>2023-05-28T16:37:20.000Z</time>
      </trkpt>
      <trkpt lat="46.20244" lon="-1.48215">
        <ele>52.18938</ele>
        <time>2023-05-28T16:37:21.000Z</time>
      </trkpt>
      <trkpt lat="46.20244" lon="-1.4821">
        <ele>52.09098</ele>
        <time>2023-05-28T16:37:22.000Z</time>
      </trkpt>
      <trkpt lat="46.20245" lon="-1.48204">
        <ele>51.9837</ele>
        <time>2023-05-28T16:37:23.000Z</time>
      </trkpt>
      <trkpt lat="46.20246" lon="-1.48199">
        <ele>51.87058</ele>
        <time>2023-05-28T16:37:24.000Z</time>
      </trkpt>
      <trkpt lat="46.20247" lon="-1.48194">
        <ele>51.76043</ele>
        <time>2023-05-28T16:37:25.000Z</time>
      </trkpt>
      <trkpt lat="46.20248" lon="-1.48189">
        <ele>51.64452</ele>
        <time>2023-05-28T16:37:26.000Z</time>
      </trkpt>
      <trkpt lat="46.20249" lon="-1.48185">
        <ele>51.53823</ele>
        <time>2023-05-28T16:37:27.000Z</time>
      </trkpt>
      <trkpt lat="46.20251" lon="-1.4818">
        <ele>51.40594</ele>
        <time>2023-05-28T16:37:28.000Z</time>
      </trkpt>
      <trkpt lat="46.20252" lon="-1.48174">
        <ele>51.26807</ele>
        <time>2023-05-28T16:37:29.000Z</time>
      </trkpt>
      <trkpt lat="46.20254" lon="-1.48169">
        <ele>51.1157</ele>
        <time>2023-05-28T16:37:30.000Z</time>
      </trkpt>
      <trkpt lat="46.20255" lon="-1.48164">
        <ele>50.9767</ele>
        <time>2023-05-28T16:37:31.000Z</time>
      </trkpt>
      <trkpt lat="46.20257" lon="-1.48158">
        <ele>50.85174</ele>
        <time>2023-05-28T16:37:32.000Z</time>
      </trkpt>
      <trkpt lat="46.20258" lon="-1.48153">
        <ele>50.74584</ele>
        <time>2023-05-28T16:37:33.000Z</time>
      </trkpt>
      <trkpt lat="46.2026" lon="-1.48148">
        <ele>50.65058</ele>
        <time>2023-05-28T16:37:34.000Z</time>
      </trkpt>
      <trkpt lat="46.20261" lon="-1.48143">
        <ele>50.59275</ele>
        <time>2023-05-28T16:37:35.000Z</time>
      </trkpt>
      <trkpt lat="46.20263" lon="-1.48138">
        <ele>50.53907</ele>
        <time>2023-05-28T16:37:36.000Z</time>
      </trkpt>
      <trkpt lat="46.20265" lon="-1.48132">
        <ele>50.50216</ele>
        <time>2023-05-28T16:37:37.000Z</time>
      </trkpt>
      <trkpt lat="46.20267" lon="-1.48128">
        <ele>50.47344</ele>
        <time>2023-05-28T16:37:38.000Z</time>
      </trkpt>
      <trkpt lat="46.2027" lon="-1.48123">
        <ele>50.43946</ele>
        <time>2023-05-28T16:37:39.000Z</time>
      </trkpt>
      <trkpt lat="46.20272" lon="-1.48118">
        <ele>50.39949</ele>
        <time>2023-05-28T16:37:40.000Z</time>
      </trkpt>
      <trkpt lat="46.20274" lon="-1.48113">
        <ele>50.39289</ele>
        <time>2023-05-28T16:37:41.000Z</time>
      </trkpt>
      <trkpt lat="46.20276" lon="-1.48109">
        <ele>50.40823</ele>
        <time>2023-05-28T16:37:42.000Z</time>
      </trkpt>
      <trkpt lat="46.20279" lon="-1.48105">
        <ele>50.458</ele>
        <time>2023-05-28T16:37:43.000Z</time>
      </trkpt>
      <trkpt lat="46.20281" lon="-1.481">
        <ele>50.50819</ele>
        <time>2023-05-28T16:37:44.000Z</time>
      </trkpt>
      <trkpt lat="46.20283" lon="-1.48096">
        <ele>50.5925</ele>
        <time>2023-05-28T16:37:45.000Z</time>
      </trkpt>
      <trkpt lat="46.20285" lon="-1.48091">
        <ele>50.67977</ele>
        <time>2023-05-28T16:37:46.000Z</time>
      </trkpt>
      <trkpt lat="46.20287" lon="-1.48087">
        <ele>50.80184</ele>
        <time>2023-05-28T16:37:47.000Z</time>
      </trkpt>
      <trkpt lat="46.20289" lon="-1.48082">
        <ele>50.95663</ele>
        <time>2023-05-28T16:37:48.000Z</time>
      </trkpt>
      <trkpt lat="46.20291" lon="-1.48077">
        <ele>51.11459</ele>
        <time>2023-05-28T16:37:49.000Z</time>
      </trkpt>
      <trkpt lat="46.20293" lon="-1.48072">
        <ele>51.30643</ele>
        <time>2023-05-28T16:37:50.000Z</time>
      </trkpt>
      <trkpt lat="46.20296" lon="-1.48068">
        <ele>51.49387</ele>
        <time>2023-05-28T16:37:51.000Z</time>
      </trkpt>
      <trkpt lat="46.20297" lon="-1.48063">
        <ele>51.68563</ele>
        <time>2023-05-28T16:37:52.000Z</time>
      </trkpt>
      <trkpt lat="46.20299" lon="-1.48059">
        <ele>51.86095</ele>
        <time>2023-05-28T16:37:53.000Z</time>
      </trkpt>
      <trkpt lat="46.20302" lon="-1.48055">
        <ele>52.02385</ele>
        <time>2023-05-28T16:37:54.000Z</time>
      </trkpt>
      <trkpt lat="46.20304" lon="-1.48051">
        <ele>52.15406</ele>
        <time>2023-05-28T16:37:55.000Z</time>
      </trkpt>
      <trkpt lat="46.20305" lon="-1.48046">
        <ele>52.28777</ele>
        <time>2023-05-28T16:37:56.000Z</time>
      </trkpt>
      <trkpt lat="46.20307" lon="-1.4804">
        <ele>52.42896</ele>
        <time>2023-05-28T16:37:57.000Z</time>
      </trkpt>
      <trkpt lat="46.20309" lon="-1.48035">
        <ele>52.5591</ele>
        <time>2023-05-28T16:37:58.000Z</time>
      </trkpt>
      <trkpt lat="46.20312" lon="-1.4803">
        <ele>52.6874</ele>
        <time>2023-05-28T16:37:59.000Z</time>
      </trkpt>
      <trkpt lat="46.20314" lon="-1.48026">
        <ele>52.8153</ele>
        <time>2023-05-28T16:38:00.000Z</time>
      </trkpt>
      <trkpt lat="46.20316" lon="-1.48021">
        <ele>52.92333</ele>
        <time>2023-05-28T16:38:01.000Z</time>
      </trkpt>
      <trkpt lat="46.20318" lon="-1.48016">
        <ele>52.99857</ele>
        <time>2023-05-28T16:38:02.000Z</time>
      </trkpt>
      <trkpt lat="46.2032" lon="-1.48011">
        <ele>53.02729</ele>
        <time>2023-05-28T16:38:03.000Z</time>
      </trkpt>
      <trkpt lat="46.20322" lon="-1.48006">
        <ele>53.03959</ele>
        <time>2023-05-28T16:38:04.000Z</time>
      </trkpt>
      <trkpt lat="46.20325" lon="-1.48002">
        <ele>53.03063</ele>
        <time>2023-05-28T16:38:05.000Z</time>
      </trkpt>
      <trkpt lat="46.20327" lon="-1.47997">
        <ele>53.0056</ele>
        <time>2023-05-28T16:38:06.000Z</time>
      </trkpt>
      <trkpt lat="46.20329" lon="-1.47992">
        <ele>52.9347</ele>
        <time>2023-05-28T16:38:07.000Z</time>
      </trkpt>
      <trkpt lat="46.20331" lon="-1.47987">
        <ele>52.85641</ele>
        <time>2023-05-28T16:38:08.000Z</time>
      </trkpt>
      <trkpt lat="46.20333" lon="-1.47982">
        <ele>52.77811</ele>
        <time>2023-05-28T16:38:09.000Z</time>
      </trkpt>
      <trkpt lat="46.20335" lon="-1.47978">
        <ele>52.67151</ele>
        <time>2023-05-28T16:38:10.000Z</time>
      </trkpt>
      <trkpt lat="46.20337" lon="-1.47973">
        <ele>52.56541</ele>
        <time>2023-05-28T16:38:11.000Z</time>
      </trkpt>
      <trkpt lat="46.20339" lon="-1.47968">
        <ele>52.45511</ele>
        <time>2023-05-28T16:38:12.000Z</time>
      </trkpt>
      <trkpt lat="46.20341" lon="-1.47963">
        <ele>52.33784</ele>
        <time>2023-05-28T16:38:13.000Z</time>
      </trkpt>
      <trkpt lat="46.20343" lon="-1.47959">
        <ele>52.22908</ele>
        <time>2023-05-28T16:38:14.000Z</time>
      </trkpt>
      <trkpt lat="46.20345" lon="-1.47954">
        <ele>52.13403</ele>
        <time>2023-05-28T16:38:15.000Z</time>
      </trkpt>
      <trkpt lat="46.20347" lon="-1.47949">
        <ele>52.03806</ele>
        <time>2023-05-28T16:38:16.000Z</time>
      </trkpt>
      <trkpt lat="46.20349" lon="-1.47944">
        <ele>51.93718</ele>
        <time>2023-05-28T16:38:17.000Z</time>
      </trkpt>
      <trkpt lat="46.20351" lon="-1.47939">
        <ele>51.83486</ele>
        <time>2023-05-28T16:38:18.000Z</time>
      </trkpt>
      <trkpt lat="46.20353" lon="-1.47934">
        <ele>51.75874</ele>
        <time>2023-05-28T16:38:19.000Z</time>
      </trkpt>
      <trkpt lat="46.20355" lon="-1.47929">
        <ele>51.6887</ele>
        <time>2023-05-28T16:38:20.000Z</time>
      </trkpt>
      <trkpt lat="46.20358" lon="-1.47924">
        <ele>51.63884</ele>
        <time>2023-05-28T16:38:21.000Z</time>
      </trkpt>
      <trkpt lat="46.2036" lon="-1.47919">
        <ele>51.60577</ele>
        <time>2023-05-28T16:38:22.000Z</time>
      </trkpt>
      <trkpt lat="46.20362" lon="-1.47914">
        <ele>51.58704</ele>
        <time>2023-05-28T16:38:23.000Z</time>
      </trkpt>
      <trkpt lat="46.20364" lon="-1.4791">
        <ele>51.57658</ele>
        <time>2023-05-28T16:38:24.000Z</time>
      </trkpt>
      <trkpt lat="46.20366" lon="-1.47905">
        <ele>51.57119</ele>
        <time>2023-05-28T16:38:25.000Z</time>
      </trkpt>
      <trkpt lat="46.20369" lon="-1.479">
        <ele>51.58282</ele>
        <time>2023-05-28T16:38:26.000Z</time>
      </trkpt>
      <trkpt lat="46.20371" lon="-1.47895">
        <ele>51.61451</ele>
        <time>2023-05-28T16:38:27.000Z</time>
      </trkpt>
      <trkpt lat="46.20372" lon="-1.4789">
        <ele>51.64775</ele>
        <time>2023-05-28T16:38:28.000Z</time>
      </trkpt>
      <trkpt lat="46.20374" lon="-1.47886">
        <ele>51.67787</ele>
        <time>2023-05-28T16:38:29.000Z</time>
      </trkpt>
      <trkpt lat="46.20376" lon="-1.47881">
        <ele>51.71393</ele>
        <time>2023-05-28T16:38:30.000Z</time>
      </trkpt>
      <trkpt lat="46.20378" lon="-1.47877">
        <ele>51.73859</ele>
        <time>2023-05-28T16:38:31.000Z</time>
      </trkpt>
      <trkpt lat="46.20379" lon="-1.47873">
        <ele>51.76609</ele>
        <time>2023-05-28T16:38:32.000Z</time>
      </trkpt>
      <trkpt lat="46.20381" lon="-1.47869">
        <ele>51.80167</ele>
        <time>2023-05-28T16:38:33.000Z</time>
      </trkpt>
      <trkpt lat="46.20383" lon="-1.47866">
        <ele>51.83865</ele>
        <time>2023-05-28T16:38:34.000Z</time>
      </trkpt>
      <trkpt lat="46.20385" lon="-1.47863">
        <ele>51.86623</ele>
        <time>2023-05-28T16:38:35.000Z</time>
      </trkpt>
      <trkpt lat="46.20388" lon="-1.47859">
        <ele>51.88731</ele>
        <time>2023-05-28T16:38:36.000Z</time>
      </trkpt>
      <trkpt lat="46.20389" lon="-1.47854">
        <ele>51.91558</ele>
        <time>2023-05-28T16:38:37.000Z</time>
      </trkpt>
      <trkpt lat="46.20391" lon="-1.4785">
        <ele>51.95058</ele>
        <time>2023-05-28T16:38:38.000Z</time>
      </trkpt>
      <trkpt lat="46.20392" lon="-1.47846">
        <ele>51.96206</ele>
        <time>2023-05-28T16:38:39.000Z</time>
      </trkpt>
      <trkpt lat="46.20394" lon="-1.47841">
        <ele>51.97755</ele>
        <time>2023-05-28T16:38:40.000Z</time>
      </trkpt>
      <trkpt lat="46.20396" lon="-1.47837">
        <ele>51.98328</ele>
        <time>2023-05-28T16:38:41.000Z</time>
      </trkpt>
      <trkpt lat="46.20398" lon="-1.47832">
        <ele>52.01498</ele>
        <time>2023-05-28T16:38:42.000Z</time>
      </trkpt>
      <trkpt lat="46.20399" lon="-1.47828">
        <ele>52.06191</ele>
        <time>2023-05-28T16:38:43.000Z</time>
      </trkpt>
      <trkpt lat="46.20402" lon="-1.47823">
        <ele>52.07931</ele>
        <time>2023-05-28T16:38:44.000Z</time>
      </trkpt>
      <trkpt lat="46.20404" lon="-1.47818">
        <ele>52.0918</ele>
        <time>2023-05-28T16:38:45.000Z</time>
      </trkpt>
      <trkpt lat="46.20405" lon="-1.47814">
        <ele>52.10795</ele>
        <time>2023-05-28T16:38:46.000Z</time>
      </trkpt>
      <trkpt lat="46.20407" lon="-1.47809">
        <ele>52.12551</ele>
        <time>2023-05-28T16:38:47.000Z</time>
      </trkpt>
      <trkpt lat="46.20408" lon="-1.47803">
        <ele>52.13478</ele>
        <time>2023-05-28T16:38:48.000Z</time>
      </trkpt>
      <trkpt lat="46.20409" lon="-1.47798">
        <ele>52.13982</ele>
        <time>2023-05-28T16:38:49.000Z</time>
      </trkpt>
      <trkpt lat="46.2041" lon="-1.47794">
        <ele>52.15195</ele>
        <time>2023-05-28T16:38:50.000Z</time>
      </trkpt>
      <trkpt lat="46.20412" lon="-1.47789">
        <ele>52.18467</ele>
        <time>2023-05-28T16:38:51.000Z</time>
      </trkpt>
      <trkpt lat="46.20413" lon="-1.47784">
        <ele>52.22327</ele>
        <time>2023-05-28T16:38:52.000Z</time>
      </trkpt>
      <trkpt lat="46.20415" lon="-1.47779">
        <ele>52.26007</ele>
        <time>2023-05-28T16:38:53.000Z</time>
      </trkpt>
      <trkpt lat="46.20416" lon="-1.47774">
        <ele>52.29641</ele>
        <time>2023-05-28T16:38:54.000Z</time>
      </trkpt>
      <trkpt lat="46.20417" lon="-1.47768">
        <ele>52.34056</ele>
        <time>2023-05-28T16:38:55.000Z</time>
      </trkpt>
      <trkpt lat="46.20418" lon="-1.47763">
        <ele>52.38467</ele>
        <time>2023-05-28T16:38:56.000Z</time>
      </trkpt>
      <trkpt lat="46.20419" lon="-1.47758">
        <ele>52.44791</ele>
        <time>2023-05-28T16:38:57.000Z</time>
      </trkpt>
      <trkpt lat="46.2042" lon="-1.47754">
        <ele>52.52163</ele>
        <time>2023-05-28T16:38:58.000Z</time>
      </trkpt>
      <trkpt lat="46.20422" lon="-1.47749">
        <ele>52.59989</ele>
        <time>2023-05-28T16:38:59.000Z</time>
      </trkpt>
      <trkpt lat="46.20424" lon="-1.47745">
        <ele>52.65688</ele>
        <time>2023-05-28T16:39:00.000Z</time>
      </trkpt>
      <trkpt lat="46.20425" lon="-1.4774">
        <ele>52.7163</ele>
        <time>2023-05-28T16:39:01.000Z</time>
      </trkpt>
      <trkpt lat="46.20427" lon="-1.47735">
        <ele>52.73845</ele>
        <time>2023-05-28T16:39:02.000Z</time>
      </trkpt>
      <trkpt lat="46.20428" lon="-1.4773">
        <ele>52.76842</ele>
        <time>2023-05-28T16:39:03.000Z</time>
      </trkpt>
      <trkpt lat="46.20428" lon="-1.47726">
        <ele>52.8218</ele>
        <time>2023-05-28T16:39:04.000Z</time>
      </trkpt>
      <trkpt lat="46.20429" lon="-1.47721">
        <ele>52.86481</ele>
        <time>2023-05-28T16:39:05.000Z</time>
      </trkpt>
      <trkpt lat="46.20429" lon="-1.47716">
        <ele>52.90065</ele>
        <time>2023-05-28T16:39:06.000Z</time>
      </trkpt>
      <trkpt lat="46.20431" lon="-1.47711">
        <ele>52.94065</ele>
        <time>2023-05-28T16:39:07.000Z</time>
      </trkpt>
      <trkpt lat="46.20432" lon="-1.47706">
        <ele>52.96837</ele>
        <time>2023-05-28T16:39:08.000Z</time>
      </trkpt>
      <trkpt lat="46.20433" lon="-1.47701">
        <ele>52.9865</ele>
        <time>2023-05-28T16:39:09.000Z</time>
      </trkpt>
      <trkpt lat="46.20434" lon="-1.47696">
        <ele>52.94094</ele>
        <time>2023-05-28T16:39:10.000Z</time>
      </trkpt>
      <trkpt lat="46.20436" lon="-1.47691">
        <ele>52.88655</ele>
        <time>2023-05-28T16:39:11.000Z</time>
      </trkpt>
      <trkpt lat="46.20437" lon="-1.47686">
        <ele>52.80585</ele>
        <time>2023-05-28T16:39:12.000Z</time>
      </trkpt>
      <trkpt lat="46.20438" lon="-1.47681">
        <ele>52.72142</ele>
        <time>2023-05-28T16:39:13.000Z</time>
      </trkpt>
      <trkpt lat="46.20438" lon="-1.47676">
        <ele>52.59794</ele>
        <time>2023-05-28T16:39:14.000Z</time>
      </trkpt>
      <trkpt lat="46.20439" lon="-1.4767">
        <ele>52.47202</ele>
        <time>2023-05-28T16:39:15.000Z</time>
      </trkpt>
      <trkpt lat="46.2044" lon="-1.47665">
        <ele>52.33129</ele>
        <time>2023-05-28T16:39:16.000Z</time>
      </trkpt>
      <trkpt lat="46.20442" lon="-1.4766">
        <ele>52.18046</ele>
        <time>2023-05-28T16:39:17.000Z</time>
      </trkpt>
      <trkpt lat="46.20443" lon="-1.47654">
        <ele>52.01457</ele>
        <time>2023-05-28T16:39:18.000Z</time>
      </trkpt>
      <trkpt lat="46.20444" lon="-1.47649">
        <ele>51.84986</ele>
        <time>2023-05-28T16:39:19.000Z</time>
      </trkpt>
      <trkpt lat="46.20445" lon="-1.47644">
        <ele>51.69205</ele>
        <time>2023-05-28T16:39:20.000Z</time>
      </trkpt>
      <trkpt lat="46.20447" lon="-1.47638">
        <ele>51.5319</ele>
        <time>2023-05-28T16:39:21.000Z</time>
      </trkpt>
      <trkpt lat="46.20449" lon="-1.47633">
        <ele>51.41704</ele>
        <time>2023-05-28T16:39:22.000Z</time>
      </trkpt>
      <trkpt lat="46.20451" lon="-1.47628">
        <ele>51.27744</ele>
        <time>2023-05-28T16:39:23.000Z</time>
      </trkpt>
      <trkpt lat="46.20454" lon="-1.47624">
        <ele>51.1684</ele>
        <time>2023-05-28T16:39:24.000Z</time>
      </trkpt>
      <trkpt lat="46.20458" lon="-1.47622">
        <ele>51.05766</ele>
        <time>2023-05-28T16:39:25.000Z</time>
      </trkpt>
      <trkpt lat="46.20462" lon="-1.47619">
        <ele>50.94308</ele>
        <time>2023-05-28T16:39:26.000Z</time>
      </trkpt>
      <trkpt lat="46.20465" lon="-1.47617">
        <ele>50.85459</ele>
        <time>2023-05-28T16:39:27.000Z</time>
      </trkpt>
      <trkpt lat="46.20468" lon="-1.47614">
        <ele>50.76365</ele>
        <time>2023-05-28T16:39:28.000Z</time>
      </trkpt>
      <trkpt lat="46.20472" lon="-1.4761">
        <ele>50.67481</ele>
        <time>2023-05-28T16:39:29.000Z</time>
      </trkpt>
      <trkpt lat="46.20474" lon="-1.47607">
        <ele>50.65325</ele>
        <time>2023-05-28T16:39:30.000Z</time>
      </trkpt>
      <trkpt lat="46.20477" lon="-1.47602">
        <ele>50.62794</ele>
        <time>2023-05-28T16:39:31.000Z</time>
      </trkpt>
      <trkpt lat="46.2048" lon="-1.47598">
        <ele>50.63656</ele>
        <time>2023-05-28T16:39:32.000Z</time>
      </trkpt>
      <trkpt lat="46.20483" lon="-1.47594">
        <ele>50.62212</ele>
        <time>2023-05-28T16:39:33.000Z</time>
      </trkpt>
      <trkpt lat="46.20485" lon="-1.4759">
        <ele>50.65289</ele>
        <time>2023-05-28T16:39:34.000Z</time>
      </trkpt>
      <trkpt lat="46.20488" lon="-1.47586">
        <ele>50.69424</ele>
        <time>2023-05-28T16:39:35.000Z</time>
      </trkpt>
      <trkpt lat="46.2049" lon="-1.47581">
        <ele>50.74834</ele>
        <time>2023-05-28T16:39:36.000Z</time>
      </trkpt>
      <trkpt lat="46.20492" lon="-1.47577">
        <ele>50.81491</ele>
        <time>2023-05-28T16:39:37.000Z</time>
      </trkpt>
      <trkpt lat="46.20495" lon="-1.47572">
        <ele>50.89414</ele>
        <time>2023-05-28T16:39:38.000Z</time>
      </trkpt>
      <trkpt lat="46.20498" lon="-1.47568">
        <ele>50.98042</ele>
        <time>2023-05-28T16:39:39.000Z</time>
      </trkpt>
      <trkpt lat="46.205" lon="-1.47563">
        <ele>51.05064</ele>
        <time>2023-05-28T16:39:40.000Z</time>
      </trkpt>
      <trkpt lat="46.20502" lon="-1.47559">
        <ele>51.10455</ele>
        <time>2023-05-28T16:39:41.000Z</time>
      </trkpt>
      <trkpt lat="46.20503" lon="-1.47554">
        <ele>51.13721</ele>
        <time>2023-05-28T16:39:42.000Z</time>
      </trkpt>
      <trkpt lat="46.20505" lon="-1.47549">
        <ele>51.14023</ele>
        <time>2023-05-28T16:39:43.000Z</time>
      </trkpt>
      <trkpt lat="46.20507" lon="-1.47544">
        <ele>51.12796</ele>
        <time>2023-05-28T16:39:44.000Z</time>
      </trkpt>
      <trkpt lat="46.20509" lon="-1.4754">
        <ele>51.13566</ele>
        <time>2023-05-28T16:39:45.000Z</time>
      </trkpt>
      <trkpt lat="46.20512" lon="-1.47536">
        <ele>51.14813</ele>
        <time>2023-05-28T16:39:46.000Z</time>
      </trkpt>
      <trkpt lat="46.20515" lon="-1.47532">
        <ele>51.12967</ele>
        <time>2023-05-28T16:39:47.000Z</time>
      </trkpt>
      <trkpt lat="46.20517" lon="-1.47527">
        <ele>51.12062</ele>
        <time>2023-05-28T16:39:48.000Z</time>
      </trkpt>
      <trkpt lat="46.20519" lon="-1.47523">
        <ele>51.10601</ele>
        <time>2023-05-28T16:39:49.000Z</time>
      </trkpt>
      <trkpt lat="46.20521" lon="-1.47518">
        <ele>51.07102</ele>
        <time>2023-05-28T16:39:50.000Z</time>
      </trkpt>
      <trkpt lat="46.20523" lon="-1.47514">
        <ele>51.0387</ele>
        <time>2023-05-28T16:39:51.000Z</time>
      </trkpt>
      <trkpt lat="46.20526" lon="-1.47509">
        <ele>50.99619</ele>
        <time>2023-05-28T16:39:52.000Z</time>
      </trkpt>
      <trkpt lat="46.20528" lon="-1.47504">
        <ele>50.97681</ele>
        <time>2023-05-28T16:39:53.000Z</time>
      </trkpt>
      <trkpt lat="46.20531" lon="-1.475">
        <ele>50.96081</ele>
        <time>2023-05-28T16:39:54.000Z</time>
      </trkpt>
      <trkpt lat="46.20533" lon="-1.47495">
        <ele>50.93724</ele>
        <time>2023-05-28T16:39:55.000Z</time>
      </trkpt>
      <trkpt lat="46.20535" lon="-1.47489">
        <ele>50.90332</ele>
        <time>2023-05-28T16:39:56.000Z</time>
      </trkpt>
      <trkpt lat="46.20538" lon="-1.47484">
        <ele>50.83808</ele>
        <time>2023-05-28T16:39:57.000Z</time>
      </trkpt>
      <trkpt lat="46.2054" lon="-1.47479">
        <ele>50.77401</ele>
        <time>2023-05-28T16:39:58.000Z</time>
      </trkpt>
      <trkpt lat="46.20542" lon="-1.47474">
        <ele>50.69944</ele>
        <time>2023-05-28T16:39:59.000Z</time>
      </trkpt>
      <trkpt lat="46.20545" lon="-1.47469">
        <ele>50.65461</ele>
        <time>2023-05-28T16:40:00.000Z</time>
      </trkpt>
      <trkpt lat="46.20548" lon="-1.47466">
        <ele>50.61453</ele>
        <time>2023-05-28T16:40:01.000Z</time>
      </trkpt>
      <trkpt lat="46.20552" lon="-1.47462">
        <ele>50.56678</ele>
        <time>2023-05-28T16:40:02.000Z</time>
      </trkpt>
      <trkpt lat="46.20555" lon="-1.47459">
        <ele>50.55146</ele>
        <time>2023-05-28T16:40:03.000Z</time>
      </trkpt>
      <trkpt lat="46.20559" lon="-1.47456">
        <ele>50.54522</ele>
        <time>2023-05-28T16:40:04.000Z</time>
      </trkpt>
      <trkpt lat="46.20563" lon="-1.47454">
        <ele>50.53293</ele>
        <time>2023-05-28T16:40:05.000Z</time>
      </trkpt>
      <trkpt lat="46.20566" lon="-1.47451">
        <ele>50.54249</ele>
        <time>2023-05-28T16:40:06.000Z</time>
      </trkpt>
      <trkpt lat="46.2057" lon="-1.47448">
        <ele>50.54955</ele>
        <time>2023-05-28T16:40:07.000Z</time>
      </trkpt>
      <trkpt lat="46.20574" lon="-1.47446">
        <ele>50.56298</ele>
        <time>2023-05-28T16:40:08.000Z</time>
      </trkpt>
      <trkpt lat="46.20577" lon="-1.47445">
        <ele>50.59972</ele>
        <time>2023-05-28T16:40:09.000Z</time>
      </trkpt>
      <trkpt lat="46.20581" lon="-1.47443">
        <ele>50.65961</ele>
        <time>2023-05-28T16:40:10.000Z</time>
      </trkpt>
      <trkpt lat="46.20585" lon="-1.47442">
        <ele>50.74037</ele>
        <time>2023-05-28T16:40:11.000Z</time>
      </trkpt>
      <trkpt lat="46.20589" lon="-1.4744">
        <ele>50.81459</ele>
        <time>2023-05-28T16:40:12.000Z</time>
      </trkpt>
      <trkpt lat="46.20592" lon="-1.47438">
        <ele>50.90186</ele>
        <time>2023-05-28T16:40:13.000Z</time>
      </trkpt>
      <trkpt lat="46.20596" lon="-1.47436">
        <ele>50.98814</ele>
        <time>2023-05-28T16:40:14.000Z</time>
      </trkpt>
      <trkpt lat="46.20599" lon="-1.47433">
        <ele>51.06564</ele>
        <time>2023-05-28T16:40:15.000Z</time>
      </trkpt>
      <trkpt lat="46.20602" lon="-1.4743">
        <ele>51.15731</ele>
        <time>2023-05-28T16:40:16.000Z</time>
      </trkpt>
      <trkpt lat="46.20605" lon="-1.47428">
        <ele>51.2799</ele>
        <time>2023-05-28T16:40:17.000Z</time>
      </trkpt>
      <trkpt lat="46.20608" lon="-1.47424">
        <ele>51.35524</ele>
        <time>2023-05-28T16:40:18.000Z</time>
      </trkpt>
      <trkpt lat="46.20612" lon="-1.47421">
        <ele>51.43444</ele>
        <time>2023-05-28T16:40:19.000Z</time>
      </trkpt>
      <trkpt lat="46.20615" lon="-1.47419">
        <ele>51.54524</ele>
        <time>2023-05-28T16:40:20.000Z</time>
      </trkpt>
      <trkpt lat="46.20619" lon="-1.47417">
        <ele>51.64201</ele>
        <time>2023-05-28T16:40:21.000Z</time>
      </trkpt>
      <trkpt lat="46.20623" lon="-1.47415">
        <ele>51.75389</ele>
        <time>2023-05-28T16:40:22.000Z</time>
      </trkpt>
      <trkpt lat="46.20627" lon="-1.47414">
        <ele>51.89095</ele>
        <time>2023-05-28T16:40:23.000Z</time>
      </trkpt>
      <trkpt lat="46.20631" lon="-1.47413">
        <ele>52.02449</ele>
        <time>2023-05-28T16:40:24.000Z</time>
      </trkpt>
      <trkpt lat="46.20635" lon="-1.47412">
        <ele>52.14165</ele>
        <time>2023-05-28T16:40:25.000Z</time>
      </trkpt>
      <trkpt lat="46.2064" lon="-1.4741">
        <ele>52.26043</ele>
        <time>2023-05-28T16:40:26.000Z</time>
      </trkpt>
      <trkpt lat="46.20644" lon="-1.47409">
        <ele>52.38578</ele>
        <time>2023-05-28T16:40:27.000Z</time>
      </trkpt>
      <trkpt lat="46.20648" lon="-1.47408">
        <ele>52.49012</ele>
        <time>2023-05-28T16:40:28.000Z</time>
      </trkpt>
      <trkpt lat="46.20652" lon="-1.47409">
        <ele>52.58778</ele>
        <time>2023-05-28T16:40:29.000Z</time>
      </trkpt>
      <trkpt lat="46.20656" lon="-1.47407">
        <ele>52.69669</ele>
        <time>2023-05-28T16:40:30.000Z</time>
      </trkpt>
      <trkpt lat="46.20661" lon="-1.47407">
        <ele>52.76552</ele>
        <time>2023-05-28T16:40:31.000Z</time>
      </trkpt>
      <trkpt lat="46.20666" lon="-1.47406">
        <ele>52.83223</ele>
        <time>2023-05-28T16:40:32.000Z</time>
      </trkpt>
      <trkpt lat="46.20671" lon="-1.47405">
        <ele>52.90815</ele>
        <time>2023-05-28T16:40:33.000Z</time>
      </trkpt>
      <trkpt lat="46.20676" lon="-1.47405">
        <ele>52.94854</ele>
        <time>2023-05-28T16:40:34.000Z</time>
      </trkpt>
      <trkpt lat="46.20681" lon="-1.47404">
        <ele>52.98047</ele>
        <time>2023-05-28T16:40:35.000Z</time>
      </trkpt>
      <trkpt lat="46.20685" lon="-1.47403">
        <ele>53.01746</ele>
        <time>2023-05-28T16:40:36.000Z</time>
      </trkpt>
      <trkpt lat="46.2069" lon="-1.47404">
        <ele>53.02799</ele>
        <time>2023-05-28T16:40:37.000Z</time>
      </trkpt>
      <trkpt lat="46.20695" lon="-1.47403">
        <ele>53.0751</ele>
        <time>2023-05-28T16:40:38.000Z</time>
      </trkpt>
      <trkpt lat="46.20699" lon="-1.47404">
        <ele>53.11589</ele>
        <time>2023-05-28T16:40:39.000Z</time>
      </trkpt>
      <trkpt lat="46.20703" lon="-1.47403">
        <ele>53.11766</ele>
        <time>2023-05-28T16:40:40.000Z</time>
      </trkpt>
      <trkpt lat="46.20708" lon="-1.47402">
        <ele>53.14288</ele>
        <time>2023-05-28T16:40:41.000Z</time>
      </trkpt>
      <trkpt lat="46.20713" lon="-1.47401">
        <ele>53.13736</ele>
        <time>2023-05-28T16:40:42.000Z</time>
      </trkpt>
      <trkpt lat="46.20717" lon="-1.47398">
        <ele>53.11854</ele>
        <time>2023-05-28T16:40:43.000Z</time>
      </trkpt>
      <trkpt lat="46.2072" lon="-1.47395">
        <ele>53.08459</ele>
        <time>2023-05-28T16:40:44.000Z</time>
      </trkpt>
      <trkpt lat="46.20721" lon="-1.4739">
        <ele>53.0797</ele>
        <time>2023-05-28T16:40:45.000Z</time>
      </trkpt>
      <trkpt lat="46.20721" lon="-1.47384">
        <ele>53.04061</ele>
        <time>2023-05-28T16:40:46.000Z</time>
      </trkpt>
      <trkpt lat="46.20719" lon="-1.47381">
        <ele>53.02167</ele>
        <time>2023-05-28T16:40:47.000Z</time>
      </trkpt>
      <trkpt lat="46.20717" lon="-1.47377">
        <ele>53.02337</ele>
        <time>2023-05-28T16:40:48.000Z</time>
      </trkpt>
      <trkpt lat="46.20715" lon="-1.47373">
        <ele>53.01847</ele>
        <time>2023-05-28T16:40:49.000Z</time>
      </trkpt>
      <trkpt lat="46.20713" lon="-1.47371">
        <ele>52.9811</ele>
        <time>2023-05-28T16:40:50.000Z</time>
      </trkpt>
      <trkpt lat="46.20711" lon="-1.47368">
        <ele>52.9564</ele>
        <time>2023-05-28T16:40:51.000Z</time>
      </trkpt>
      <trkpt lat="46.20709" lon="-1.47365">
        <ele>52.92407</ele>
        <time>2023-05-28T16:40:53.000Z</time>
      </trkpt>
      <trkpt lat="46.20708" lon="-1.47363">
        <ele>52.87609</ele>
        <time>2023-05-28T16:40:54.000Z</time>
      </trkpt>
      <trkpt lat="46.20706" lon="-1.4736">
        <ele>52.8457</ele>
        <time>2023-05-28T16:40:55.000Z</time>
      </trkpt>
      <trkpt lat="46.20704" lon="-1.47357">
        <ele>52.80536</ele>
        <time>2023-05-28T16:40:56.000Z</time>
      </trkpt>
      <trkpt lat="46.20702" lon="-1.47353">
        <ele>52.76532</ele>
        <time>2023-05-28T16:40:57.000Z</time>
      </trkpt>
      <trkpt lat="46.20699" lon="-1.47349">
        <ele>52.73484</ele>
        <time>2023-05-28T16:40:58.000Z</time>
      </trkpt>
      <trkpt lat="46.20696" lon="-1.47346">
        <ele>52.69508</ele>
        <time>2023-05-28T16:40:59.000Z</time>
      </trkpt>
      <trkpt lat="46.20693" lon="-1.47343">
        <ele>52.66133</ele>
        <time>2023-05-28T16:41:00.000Z</time>
      </trkpt>
      <trkpt lat="46.2069" lon="-1.4734">
        <ele>52.63726</ele>
        <time>2023-05-28T16:41:01.000Z</time>
      </trkpt>
      <trkpt lat="46.20686" lon="-1.47337">
        <ele>52.62435</ele>
        <time>2023-05-28T16:41:02.000Z</time>
      </trkpt>
      <trkpt lat="46.20682" lon="-1.47334">
        <ele>52.6414</ele>
        <time>2023-05-28T16:41:03.000Z</time>
      </trkpt>
      <trkpt lat="46.20678" lon="-1.47332">
        <ele>52.65619</ele>
        <time>2023-05-28T16:41:04.000Z</time>
      </trkpt>
      <trkpt lat="46.20675" lon="-1.47329">
        <ele>52.65891</ele>
        <time>2023-05-28T16:41:05.000Z</time>
      </trkpt>
      <trkpt lat="46.20671" lon="-1.47325">
        <ele>52.64771</ele>
        <time>2023-05-28T16:41:06.000Z</time>
      </trkpt>
      <trkpt lat="46.20668" lon="-1.47321">
        <ele>52.63169</ele>
        <time>2023-05-28T16:41:07.000Z</time>
      </trkpt>
      <trkpt lat="46.20664" lon="-1.47317">
        <ele>52.58988</ele>
        <time>2023-05-28T16:41:08.000Z</time>
      </trkpt>
      <trkpt lat="46.20662" lon="-1.47313">
        <ele>52.55433</ele>
        <time>2023-05-28T16:41:09.000Z</time>
      </trkpt>
      <trkpt lat="46.20659" lon="-1.47309">
        <ele>52.49535</ele>
        <time>2023-05-28T16:41:10.000Z</time>
      </trkpt>
      <trkpt lat="46.20656" lon="-1.47305">
        <ele>52.44236</ele>
        <time>2023-05-28T16:41:11.000Z</time>
      </trkpt>
      <trkpt lat="46.20653" lon="-1.473">
        <ele>52.37566</ele>
        <time>2023-05-28T16:41:12.000Z</time>
      </trkpt>
      <trkpt lat="46.2065" lon="-1.47295">
        <ele>52.33193</ele>
        <time>2023-05-28T16:41:13.000Z</time>
      </trkpt>
      <trkpt lat="46.20646" lon="-1.4729">
        <ele>52.31466</ele>
        <time>2023-05-28T16:41:14.000Z</time>
      </trkpt>
      <trkpt lat="46.20644" lon="-1.47286">
        <ele>52.32627</ele>
        <time>2023-05-28T16:41:15.000Z</time>
      </trkpt>
      <trkpt lat="46.20641" lon="-1.47281">
        <ele>52.37688</ele>
        <time>2023-05-28T16:41:16.000Z</time>
      </trkpt>
      <trkpt lat="46.20638" lon="-1.47277">
        <ele>52.42432</ele>
        <time>2023-05-28T16:41:17.000Z</time>
      </trkpt>
      <trkpt lat="46.20635" lon="-1.47274">
        <ele>52.46351</ele>
        <time>2023-05-28T16:41:18.000Z</time>
      </trkpt>
      <trkpt lat="46.20633" lon="-1.4727">
        <ele>52.53828</ele>
        <time>2023-05-28T16:41:19.000Z</time>
      </trkpt>
      <trkpt lat="46.2063" lon="-1.47267">
        <ele>52.6675</ele>
        <time>2023-05-28T16:41:20.000Z</time>
      </trkpt>
      <trkpt lat="46.20626" lon="-1.47263">
        <ele>52.79119</ele>
        <time>2023-05-28T16:41:21.000Z</time>
      </trkpt>
      <trkpt lat="46.20623" lon="-1.47261">
        <ele>52.8355</ele>
        <time>2023-05-28T16:41:22.000Z</time>
      </trkpt>
      <trkpt lat="46.20619" lon="-1.47258">
        <ele>52.88411</ele>
        <time>2023-05-28T16:41:23.000Z</time>
      </trkpt>
      <trkpt lat="46.20615" lon="-1.47256">
        <ele>52.92848</ele>
        <time>2023-05-28T16:41:24.000Z</time>
      </trkpt>
      <trkpt lat="46.20612" lon="-1.47254">
        <ele>52.9771</ele>
        <time>2023-05-28T16:41:25.000Z</time>
      </trkpt>
      <trkpt lat="46.20609" lon="-1.47253">
        <ele>53.01226</ele>
        <time>2023-05-28T16:41:26.000Z</time>
      </trkpt>
      <trkpt lat="46.20605" lon="-1.47252">
        <ele>53.09272</ele>
        <time>2023-05-28T16:41:27.000Z</time>
      </trkpt>
      <trkpt lat="46.20601" lon="-1.47251">
        <ele>53.20519</ele>
        <time>2023-05-28T16:41:28.000Z</time>
      </trkpt>
      <trkpt lat="46.20598" lon="-1.4725">
        <ele>53.27489</ele>
        <time>2023-05-28T16:41:29.000Z</time>
      </trkpt>
      <trkpt lat="46.20595" lon="-1.47249">
        <ele>53.34798</ele>
        <time>2023-05-28T16:41:30.000Z</time>
      </trkpt>
      <trkpt lat="46.20592" lon="-1.47248">
        <ele>53.38814</ele>
        <time>2023-05-28T16:41:31.000Z</time>
      </trkpt>
      <trkpt lat="46.20589" lon="-1.47245">
        <ele>53.43219</ele>
        <time>2023-05-28T16:41:32.000Z</time>
      </trkpt>
      <trkpt lat="46.20586" lon="-1.47242">
        <ele>53.46078</ele>
        <time>2023-05-28T16:41:33.000Z</time>
      </trkpt>
      <trkpt lat="46.20585" lon="-1.47237">
        <ele>53.47126</ele>
        <time>2023-05-28T16:41:34.000Z</time>
      </trkpt>
      <trkpt lat="46.20584" lon="-1.47232">
        <ele>53.46149</ele>
        <time>2023-05-28T16:41:35.000Z</time>
      </trkpt>
      <trkpt lat="46.20584" lon="-1.47226">
        <ele>53.44262</ele>
        <time>2023-05-28T16:41:36.000Z</time>
      </trkpt>
      <trkpt lat="46.20584" lon="-1.4722">
        <ele>53.38523</ele>
        <time>2023-05-28T16:41:37.000Z</time>
      </trkpt>
      <trkpt lat="46.20583" lon="-1.47214">
        <ele>53.32211</ele>
        <time>2023-05-28T16:41:38.000Z</time>
      </trkpt>
      <trkpt lat="46.20583" lon="-1.47205">
        <ele>53.22998</ele>
        <time>2023-05-28T16:41:39.000Z</time>
      </trkpt>
      <trkpt lat="46.20582" lon="-1.47199">
        <ele>53.0535</ele>
        <time>2023-05-28T16:41:40.000Z</time>
      </trkpt>
      <trkpt lat="46.2058" lon="-1.47194">
        <ele>52.91094</ele>
        <time>2023-05-28T16:41:41.000Z</time>
      </trkpt>
      <trkpt lat="46.20579" lon="-1.47189">
        <ele>52.82681</ele>
        <time>2023-05-28T16:41:42.000Z</time>
      </trkpt>
      <trkpt lat="46.20579" lon="-1.47185">
        <ele>52.74429</ele>
        <time>2023-05-28T16:41:43.000Z</time>
      </trkpt>
      <trkpt lat="46.20577" lon="-1.47182">
        <ele>52.63535</ele>
        <time>2023-05-28T16:41:44.000Z</time>
      </trkpt>
      <trkpt lat="46.20576" lon="-1.47177">
        <ele>52.58038</ele>
        <time>2023-05-28T16:41:45.000Z</time>
      </trkpt>
      <trkpt lat="46.20576" lon="-1.47172">
        <ele>52.48894</ele>
        <time>2023-05-28T16:41:46.000Z</time>
      </trkpt>
      <trkpt lat="46.20574" lon="-1.47169">
        <ele>52.30981</ele>
        <time>2023-05-28T16:41:47.000Z</time>
      </trkpt>
      <trkpt lat="46.20573" lon="-1.47164">
        <ele>52.09265</ele>
        <time>2023-05-28T16:41:48.000Z</time>
      </trkpt>
      <trkpt lat="46.20572" lon="-1.4716">
        <ele>51.91294</ele>
        <time>2023-05-28T16:41:49.000Z</time>
      </trkpt>
      <trkpt lat="46.20572" lon="-1.47156">
        <ele>51.76937</ele>
        <time>2023-05-28T16:41:50.000Z</time>
      </trkpt>
      <trkpt lat="46.20571" lon="-1.47152">
        <ele>51.68113</ele>
        <time>2023-05-28T16:41:51.000Z</time>
      </trkpt>
      <trkpt lat="46.2057" lon="-1.47148">
        <ele>51.59998</ele>
        <time>2023-05-28T16:41:52.000Z</time>
      </trkpt>
      <trkpt lat="46.20569" lon="-1.47145">
        <ele>51.48097</ele>
        <time>2023-05-28T16:41:53.000Z</time>
      </trkpt>
      <trkpt lat="46.20568" lon="-1.47141">
        <ele>51.34661</ele>
        <time>2023-05-28T16:41:54.000Z</time>
      </trkpt>
      <trkpt lat="46.20566" lon="-1.47136">
        <ele>51.242</ele>
        <time>2023-05-28T16:41:55.000Z</time>
      </trkpt>
      <trkpt lat="46.20566" lon="-1.47133">
        <ele>51.16527</ele>
        <time>2023-05-28T16:41:56.000Z</time>
      </trkpt>
      <trkpt lat="46.20567" lon="-1.4713">
        <ele>51.10111</ele>
        <time>2023-05-28T16:41:57.000Z</time>
      </trkpt>
      <trkpt lat="46.2057" lon="-1.47127">
        <ele>51.01605</ele>
        <time>2023-05-28T16:41:58.000Z</time>
      </trkpt>
      <trkpt lat="46.20573" lon="-1.47126">
        <ele>50.9425</ele>
        <time>2023-05-28T16:41:59.000Z</time>
      </trkpt>
      <trkpt lat="46.20575" lon="-1.47124">
        <ele>50.90052</ele>
        <time>2023-05-28T16:42:00.000Z</time>
      </trkpt>
      <trkpt lat="46.20578" lon="-1.47123">
        <ele>50.84321</ele>
        <time>2023-05-28T16:42:01.000Z</time>
      </trkpt>
      <trkpt lat="46.2058" lon="-1.47121">
        <ele>50.76231</ele>
        <time>2023-05-28T16:42:02.000Z</time>
      </trkpt>
      <trkpt lat="46.20583" lon="-1.4712">
        <ele>50.68565</ele>
        <time>2023-05-28T16:42:03.000Z</time>
      </trkpt>
      <trkpt lat="46.20586" lon="-1.47119">
        <ele>50.61174</ele>
        <time>2023-05-28T16:42:04.000Z</time>
      </trkpt>
      <trkpt lat="46.20589" lon="-1.47117">
        <ele>50.50198</ele>
        <time>2023-05-28T16:42:05.000Z</time>
      </trkpt>
      <trkpt lat="46.20591" lon="-1.47115">
        <ele>50.45069</ele>
        <time>2023-05-28T16:42:06.000Z</time>
      </trkpt>
      <trkpt lat="46.20594" lon="-1.47114">
        <ele>50.46263</ele>
        <time>2023-05-28T16:42:07.000Z</time>
      </trkpt>
      <trkpt lat="46.20597" lon="-1.47112">
        <ele>50.49479</ele>
        <time>2023-05-28T16:42:08.000Z</time>
      </trkpt>
      <trkpt lat="46.206" lon="-1.47109">
        <ele>50.52081</ele>
        <time>2023-05-28T16:42:09.000Z</time>
      </trkpt>
      <trkpt lat="46.20603" lon="-1.47106">
        <ele>50.53751</ele>
        <time>2023-05-28T16:42:10.000Z</time>
      </trkpt>
      <trkpt lat="46.20607" lon="-1.47104">
        <ele>50.53213</ele>
        <time>2023-05-28T16:42:11.000Z</time>
      </trkpt>
      <trkpt lat="46.20609" lon="-1.47102">
        <ele>50.53775</ele>
        <time>2023-05-28T16:42:12.000Z</time>
      </trkpt>
      <trkpt lat="46.20612" lon="-1.47099">
        <ele>50.58104</ele>
        <time>2023-05-28T16:42:13.000Z</time>
      </trkpt>
      <trkpt lat="46.20615" lon="-1.47097">
        <ele>50.62598</ele>
        <time>2023-05-28T16:42:14.000Z</time>
      </trkpt>
      <trkpt lat="46.20622" lon="-1.47093">
        <ele>50.66349</ele>
        <time>2023-05-28T16:42:15.000Z</time>
      </trkpt>
      <trkpt lat="46.20625" lon="-1.47089">
        <ele>50.64809</ele>
        <time>2023-05-28T16:42:16.000Z</time>
      </trkpt>
      <trkpt lat="46.2063" lon="-1.47086">
        <ele>50.60534</ele>
        <time>2023-05-28T16:42:17.000Z</time>
      </trkpt>
      <trkpt lat="46.20635" lon="-1.47081">
        <ele>50.53184</ele>
        <time>2023-05-28T16:42:18.000Z</time>
      </trkpt>
      <trkpt lat="46.20639" lon="-1.47078">
        <ele>50.42648</ele>
        <time>2023-05-28T16:42:19.000Z</time>
      </trkpt>
      <trkpt lat="46.20643" lon="-1.47076">
        <ele>50.32822</ele>
        <time>2023-05-28T16:42:20.000Z</time>
      </trkpt>
      <trkpt lat="46.20647" lon="-1.47074">
        <ele>50.23978</ele>
        <time>2023-05-28T16:42:21.000Z</time>
      </trkpt>
      <trkpt lat="46.20652" lon="-1.47071">
        <ele>50.20212</ele>
        <time>2023-05-28T16:42:22.000Z</time>
      </trkpt>
      <trkpt lat="46.20657" lon="-1.47068">
        <ele>50.12663</ele>
        <time>2023-05-28T16:42:23.000Z</time>
      </trkpt>
      <trkpt lat="46.20662" lon="-1.47066">
        <ele>50.10544</ele>
        <time>2023-05-28T16:42:24.000Z</time>
      </trkpt>
      <trkpt lat="46.20667" lon="-1.47063">
        <ele>50.09482</ele>
        <time>2023-05-28T16:42:25.000Z</time>
      </trkpt>
      <trkpt lat="46.20672" lon="-1.47061">
        <ele>50.09657</ele>
        <time>2023-05-28T16:42:26.000Z</time>
      </trkpt>
      <trkpt lat="46.20676" lon="-1.47059">
        <ele>50.11347</ele>
        <time>2023-05-28T16:42:27.000Z</time>
      </trkpt>
      <trkpt lat="46.20681" lon="-1.47057">
        <ele>50.13124</ele>
        <time>2023-05-28T16:42:28.000Z</time>
      </trkpt>
      <trkpt lat="46.20686" lon="-1.47057">
        <ele>50.14109</ele>
        <time>2023-05-28T16:42:29.000Z</time>
      </trkpt>
      <trkpt lat="46.2069" lon="-1.47056">
        <ele>50.14335</ele>
        <time>2023-05-28T16:42:30.000Z</time>
      </trkpt>
      <trkpt lat="46.20695" lon="-1.47054">
        <ele>50.14144</ele>
        <time>2023-05-28T16:42:31.000Z</time>
      </trkpt>
      <trkpt lat="46.207" lon="-1.47053">
        <ele>50.15826</ele>
        <time>2023-05-28T16:42:32.000Z</time>
      </trkpt>
      <trkpt lat="46.20705" lon="-1.47053">
        <ele>50.18357</ele>
        <time>2023-05-28T16:42:33.000Z</time>
      </trkpt>
      <trkpt lat="46.2071" lon="-1.47052">
        <ele>50.21716</ele>
        <time>2023-05-28T16:42:34.000Z</time>
      </trkpt>
      <trkpt lat="46.20715" lon="-1.47051">
        <ele>50.23514</ele>
        <time>2023-05-28T16:42:35.000Z</time>
      </trkpt>
      <trkpt lat="46.2072" lon="-1.4705">
        <ele>50.28956</ele>
        <time>2023-05-28T16:42:36.000Z</time>
      </trkpt>
      <trkpt lat="46.20726" lon="-1.47048">
        <ele>50.39616</ele>
        <time>2023-05-28T16:42:37.000Z</time>
      </trkpt>
      <trkpt lat="46.2073" lon="-1.47046">
        <ele>50.54699</ele>
        <time>2023-05-28T16:42:38.000Z</time>
      </trkpt>
      <trkpt lat="46.20735" lon="-1.47044">
        <ele>50.71507</ele>
        <time>2023-05-28T16:42:39.000Z</time>
      </trkpt>
      <trkpt lat="46.2074" lon="-1.47041">
        <ele>50.85824</ele>
        <time>2023-05-28T16:42:40.000Z</time>
      </trkpt>
      <trkpt lat="46.20744" lon="-1.47038">
        <ele>50.97672</ele>
        <time>2023-05-28T16:42:41.000Z</time>
      </trkpt>
      <trkpt lat="46.20748" lon="-1.47035">
        <ele>51.0757</ele>
        <time>2023-05-28T16:42:42.000Z</time>
      </trkpt>
      <trkpt lat="46.20753" lon="-1.47031">
        <ele>51.18392</ele>
        <time>2023-05-28T16:42:43.000Z</time>
      </trkpt>
      <trkpt lat="46.20757" lon="-1.47028">
        <ele>51.26746</ele>
        <time>2023-05-28T16:42:44.000Z</time>
      </trkpt>
      <trkpt lat="46.20762" lon="-1.47025">
        <ele>51.35269</ele>
        <time>2023-05-28T16:42:45.000Z</time>
      </trkpt>
      <trkpt lat="46.20766" lon="-1.47021">
        <ele>51.40162</ele>
        <time>2023-05-28T16:42:46.000Z</time>
      </trkpt>
      <trkpt lat="46.2077" lon="-1.47017">
        <ele>51.43227</ele>
        <time>2023-05-28T16:42:47.000Z</time>
      </trkpt>
      <trkpt lat="46.20774" lon="-1.47014">
        <ele>51.45982</ele>
        <time>2023-05-28T16:42:48.000Z</time>
      </trkpt>
      <trkpt lat="46.20779" lon="-1.4701">
        <ele>51.48057</ele>
        <time>2023-05-28T16:42:49.000Z</time>
      </trkpt>
      <trkpt lat="46.20783" lon="-1.47006">
        <ele>51.52434</ele>
        <time>2023-05-28T16:42:50.000Z</time>
      </trkpt>
      <trkpt lat="46.20787" lon="-1.47003">
        <ele>51.59721</ele>
        <time>2023-05-28T16:42:51.000Z</time>
      </trkpt>
      <trkpt lat="46.20791" lon="-1.46998">
        <ele>51.64147</ele>
        <time>2023-05-28T16:42:52.000Z</time>
      </trkpt>
      <trkpt lat="46.20795" lon="-1.46995">
        <ele>51.67857</ele>
        <time>2023-05-28T16:42:53.000Z</time>
      </trkpt>
      <trkpt lat="46.208" lon="-1.46992">
        <ele>51.71204</ele>
        <time>2023-05-28T16:42:54.000Z</time>
      </trkpt>
      <trkpt lat="46.20804" lon="-1.46989">
        <ele>51.74535</ele>
        <time>2023-05-28T16:42:55.000Z</time>
      </trkpt>
      <trkpt lat="46.20808" lon="-1.46986">
        <ele>51.74978</ele>
        <time>2023-05-28T16:42:56.000Z</time>
      </trkpt>
      <trkpt lat="46.20812" lon="-1.46982">
        <ele>51.76385</ele>
        <time>2023-05-28T16:42:57.000Z</time>
      </trkpt>
      <trkpt lat="46.20817" lon="-1.46979">
        <ele>51.79626</ele>
        <time>2023-05-28T16:42:58.000Z</time>
      </trkpt>
      <trkpt lat="46.2082" lon="-1.46975">
        <ele>51.82551</ele>
        <time>2023-05-28T16:42:59.000Z</time>
      </trkpt>
      <trkpt lat="46.20824" lon="-1.46973">
        <ele>51.87331</ele>
        <time>2023-05-28T16:43:00.000Z</time>
      </trkpt>
      <trkpt lat="46.20828" lon="-1.4697">
        <ele>51.92242</ele>
        <time>2023-05-28T16:43:01.000Z</time>
      </trkpt>
      <trkpt lat="46.20831" lon="-1.46967">
        <ele>51.97821</ele>
        <time>2023-05-28T16:43:02.000Z</time>
      </trkpt>
      <trkpt lat="46.20835" lon="-1.46965">
        <ele>52.03192</ele>
        <time>2023-05-28T16:43:03.000Z</time>
      </trkpt>
      <trkpt lat="46.20839" lon="-1.46962">
        <ele>52.07299</ele>
        <time>2023-05-28T16:43:04.000Z</time>
      </trkpt>
      <trkpt lat="46.20843" lon="-1.46958">
        <ele>52.07434</ele>
        <time>2023-05-28T16:43:05.000Z</time>
      </trkpt>
      <trkpt lat="46.20847" lon="-1.46956">
        <ele>52.09641</ele>
        <time>2023-05-28T16:43:06.000Z</time>
      </trkpt>
      <trkpt lat="46.20852" lon="-1.46952">
        <ele>52.11932</ele>
        <time>2023-05-28T16:43:07.000Z</time>
      </trkpt>
      <trkpt lat="46.20856" lon="-1.46949">
        <ele>52.117</ele>
        <time>2023-05-28T16:43:08.000Z</time>
      </trkpt>
      <trkpt lat="46.20861" lon="-1.46945">
        <ele>52.14172</ele>
        <time>2023-05-28T16:43:09.000Z</time>
      </trkpt>
      <trkpt lat="46.20866" lon="-1.46942">
        <ele>52.15531</ele>
        <time>2023-05-28T16:43:10.000Z</time>
      </trkpt>
      <trkpt lat="46.2087" lon="-1.46938">
        <ele>52.13105</ele>
        <time>2023-05-28T16:43:11.000Z</time>
      </trkpt>
      <trkpt lat="46.20874" lon="-1.46935">
        <ele>52.13401</ele>
        <time>2023-05-28T16:43:12.000Z</time>
      </trkpt>
      <trkpt lat="46.20879" lon="-1.46931">
        <ele>52.13081</ele>
        <time>2023-05-28T16:43:13.000Z</time>
      </trkpt>
      <trkpt lat="46.20884" lon="-1.46927">
        <ele>52.14026</ele>
        <time>2023-05-28T16:43:14.000Z</time>
      </trkpt>
      <trkpt lat="46.20889" lon="-1.46924">
        <ele>52.14418</ele>
        <time>2023-05-28T16:43:15.000Z</time>
      </trkpt>
      <trkpt lat="46.20893" lon="-1.46921">
        <ele>52.15626</ele>
        <time>2023-05-28T16:43:16.000Z</time>
      </trkpt>
      <trkpt lat="46.20897" lon="-1.46917">
        <ele>52.13935</ele>
        <time>2023-05-28T16:43:17.000Z</time>
      </trkpt>
      <trkpt lat="46.20901" lon="-1.46913">
        <ele>52.10411</ele>
        <time>2023-05-28T16:43:18.000Z</time>
      </trkpt>
      <trkpt lat="46.20906" lon="-1.4691">
        <ele>52.09338</ele>
        <time>2023-05-28T16:43:19.000Z</time>
      </trkpt>
      <trkpt lat="46.2091" lon="-1.46906">
        <ele>52.06648</ele>
        <time>2023-05-28T16:43:20.000Z</time>
      </trkpt>
      <trkpt lat="46.20914" lon="-1.46902">
        <ele>52.02651</ele>
        <time>2023-05-28T16:43:21.000Z</time>
      </trkpt>
      <trkpt lat="46.20918" lon="-1.46899">
        <ele>51.99627</ele>
        <time>2023-05-28T16:43:22.000Z</time>
      </trkpt>
      <trkpt lat="46.20923" lon="-1.46896">
        <ele>51.98075</ele>
        <time>2023-05-28T16:43:23.000Z</time>
      </trkpt>
      <trkpt lat="46.20928" lon="-1.46892">
        <ele>51.96802</ele>
        <time>2023-05-28T16:43:24.000Z</time>
      </trkpt>
      <trkpt lat="46.20932" lon="-1.46889">
        <ele>51.97715</ele>
        <time>2023-05-28T16:43:25.000Z</time>
      </trkpt>
      <trkpt lat="46.20936" lon="-1.46886">
        <ele>51.96943</ele>
        <time>2023-05-28T16:43:26.000Z</time>
      </trkpt>
      <trkpt lat="46.2094" lon="-1.46883">
        <ele>51.93345</ele>
        <time>2023-05-28T16:43:27.000Z</time>
      </trkpt>
      <trkpt lat="46.20945" lon="-1.4688">
        <ele>51.92705</ele>
        <time>2023-05-28T16:43:28.000Z</time>
      </trkpt>
      <trkpt lat="46.2095" lon="-1.46877">
        <ele>51.92288</ele>
        <time>2023-05-28T16:43:29.000Z</time>
      </trkpt>
      <trkpt lat="46.20954" lon="-1.46874">
        <ele>51.91326</ele>
        <time>2023-05-28T16:43:30.000Z</time>
      </trkpt>
      <trkpt lat="46.20959" lon="-1.4687">
        <ele>51.9157</ele>
        <time>2023-05-28T16:43:31.000Z</time>
      </trkpt>
      <trkpt lat="46.20963" lon="-1.46866">
        <ele>51.91167</ele>
        <time>2023-05-28T16:43:32.000Z</time>
      </trkpt>
      <trkpt lat="46.20967" lon="-1.46863">
        <ele>51.90913</ele>
        <time>2023-05-28T16:43:33.000Z</time>
      </trkpt>
      <trkpt lat="46.20972" lon="-1.46859">
        <ele>51.9096</ele>
        <time>2023-05-28T16:43:34.000Z</time>
      </trkpt>
      <trkpt lat="46.20977" lon="-1.46855">
        <ele>51.91787</ele>
        <time>2023-05-28T16:43:35.000Z</time>
      </trkpt>
      <trkpt lat="46.20981" lon="-1.46852">
        <ele>51.92427</ele>
        <time>2023-05-28T16:43:36.000Z</time>
      </trkpt>
      <trkpt lat="46.20985" lon="-1.46848">
        <ele>51.95057</ele>
        <time>2023-05-28T16:43:37.000Z</time>
      </trkpt>
      <trkpt lat="46.20988" lon="-1.46844">
        <ele>51.99193</ele>
        <time>2023-05-28T16:43:38.000Z</time>
      </trkpt>
      <trkpt lat="46.20991" lon="-1.4684">
        <ele>52.01591</ele>
        <time>2023-05-28T16:43:39.000Z</time>
      </trkpt>
      <trkpt lat="46.20995" lon="-1.46835">
        <ele>52.07261</ele>
        <time>2023-05-28T16:43:40.000Z</time>
      </trkpt>
      <trkpt lat="46.20998" lon="-1.4683">
        <ele>52.12498</ele>
        <time>2023-05-28T16:43:41.000Z</time>
      </trkpt>
      <trkpt lat="46.21" lon="-1.46825">
        <ele>52.19735</ele>
        <time>2023-05-28T16:43:42.000Z</time>
      </trkpt>
      <trkpt lat="46.21001" lon="-1.46818">
        <ele>52.26445</ele>
        <time>2023-05-28T16:43:43.000Z</time>
      </trkpt>
      <trkpt lat="46.21002" lon="-1.46811">
        <ele>52.35252</ele>
        <time>2023-05-28T16:43:44.000Z</time>
      </trkpt>
      <trkpt lat="46.21004" lon="-1.46804">
        <ele>52.44559</ele>
        <time>2023-05-28T16:43:45.000Z</time>
      </trkpt>
      <trkpt lat="46.21005" lon="-1.46797">
        <ele>52.54064</ele>
        <time>2023-05-28T16:43:46.000Z</time>
      </trkpt>
      <trkpt lat="46.21008" lon="-1.4679">
        <ele>52.66282</ele>
        <time>2023-05-28T16:43:47.000Z</time>
      </trkpt>
      <trkpt lat="46.2101" lon="-1.46784">
        <ele>52.74099</ele>
        <time>2023-05-28T16:43:48.000Z</time>
      </trkpt>
      <trkpt lat="46.21013" lon="-1.46778">
        <ele>52.79679</ele>
        <time>2023-05-28T16:43:49.000Z</time>
      </trkpt>
      <trkpt lat="46.21017" lon="-1.46773">
        <ele>52.84588</ele>
        <time>2023-05-28T16:43:50.000Z</time>
      </trkpt>
      <trkpt lat="46.2102" lon="-1.46769">
        <ele>52.90636</ele>
        <time>2023-05-28T16:43:51.000Z</time>
      </trkpt>
      <trkpt lat="46.21022" lon="-1.46764">
        <ele>52.95414</ele>
        <time>2023-05-28T16:43:52.000Z</time>
      </trkpt>
      <trkpt lat="46.21025" lon="-1.4676">
        <ele>53.03395</ele>
        <time>2023-05-28T16:43:53.000Z</time>
      </trkpt>
      <trkpt lat="46.21027" lon="-1.46755">
        <ele>53.08193</ele>
        <time>2023-05-28T16:43:54.000Z</time>
      </trkpt>
      <trkpt lat="46.2103" lon="-1.4675">
        <ele>53.10593</ele>
        <time>2023-05-28T16:43:55.000Z</time>
      </trkpt>
      <trkpt lat="46.21032" lon="-1.46744">
        <ele>53.12484</ele>
        <time>2023-05-28T16:43:56.000Z</time>
      </trkpt>
      <trkpt lat="46.21035" lon="-1.46738">
        <ele>53.14321</ele>
        <time>2023-05-28T16:43:57.000Z</time>
      </trkpt>
      <trkpt lat="46.21036" lon="-1.46733">
        <ele>53.15668</ele>
        <time>2023-05-28T16:43:58.000Z</time>
      </trkpt>
      <trkpt lat="46.21038" lon="-1.46726">
        <ele>53.169</ele>
        <time>2023-05-28T16:43:59.000Z</time>
      </trkpt>
      <trkpt lat="46.2104" lon="-1.46721">
        <ele>53.15032</ele>
        <time>2023-05-28T16:44:00.000Z</time>
      </trkpt>
      <trkpt lat="46.21042" lon="-1.46714">
        <ele>53.14206</ele>
        <time>2023-05-28T16:44:01.000Z</time>
      </trkpt>
      <trkpt lat="46.21044" lon="-1.46708">
        <ele>53.08057</ele>
        <time>2023-05-28T16:44:02.000Z</time>
      </trkpt>
      <trkpt lat="46.21045" lon="-1.46702">
        <ele>53.00587</ele>
        <time>2023-05-28T16:44:03.000Z</time>
      </trkpt>
      <trkpt lat="46.21047" lon="-1.46695">
        <ele>52.88774</ele>
        <time>2023-05-28T16:44:04.000Z</time>
      </trkpt>
      <trkpt lat="46.21048" lon="-1.46689">
        <ele>52.77303</ele>
        <time>2023-05-28T16:44:05.000Z</time>
      </trkpt>
      <trkpt lat="46.2105" lon="-1.46682">
        <ele>52.65383</ele>
        <time>2023-05-28T16:44:06.000Z</time>
      </trkpt>
      <trkpt lat="46.21052" lon="-1.46675">
        <ele>52.54456</ele>
        <time>2023-05-28T16:44:07.000Z</time>
      </trkpt>
      <trkpt lat="46.21053" lon="-1.46669">
        <ele>52.43853</ele>
        <time>2023-05-28T16:44:08.000Z</time>
      </trkpt>
      <trkpt lat="46.21054" lon="-1.46663">
        <ele>52.34297</ele>
        <time>2023-05-28T16:44:09.000Z</time>
      </trkpt>
      <trkpt lat="46.21054" lon="-1.46657">
        <ele>52.25328</ele>
        <time>2023-05-28T16:44:10.000Z</time>
      </trkpt>
      <trkpt lat="46.21055" lon="-1.4665">
        <ele>52.15223</ele>
        <time>2023-05-28T16:44:11.000Z</time>
      </trkpt>
      <trkpt lat="46.21056" lon="-1.46644">
        <ele>52.07241</ele>
        <time>2023-05-28T16:44:12.000Z</time>
      </trkpt>
      <trkpt lat="46.21056" lon="-1.46637">
        <ele>51.94978</ele>
        <time>2023-05-28T16:44:13.000Z</time>
      </trkpt>
      <trkpt lat="46.21056" lon="-1.46631">
        <ele>51.86825</ele>
        <time>2023-05-28T16:44:14.000Z</time>
      </trkpt>
      <trkpt lat="46.21057" lon="-1.46626">
        <ele>51.79194</ele>
        <time>2023-05-28T16:44:15.000Z</time>
      </trkpt>
      <trkpt lat="46.21057" lon="-1.4662">
        <ele>51.76152</ele>
        <time>2023-05-28T16:44:16.000Z</time>
      </trkpt>
      <trkpt lat="46.21059" lon="-1.46615">
        <ele>51.73083</ele>
        <time>2023-05-28T16:44:17.000Z</time>
      </trkpt>
      <trkpt lat="46.21059" lon="-1.46608">
        <ele>51.72966</ele>
        <time>2023-05-28T16:44:18.000Z</time>
      </trkpt>
      <trkpt lat="46.2106" lon="-1.46601">
        <ele>51.75735</ele>
        <time>2023-05-28T16:44:19.000Z</time>
      </trkpt>
      <trkpt lat="46.2106" lon="-1.46594">
        <ele>51.79012</ele>
        <time>2023-05-28T16:44:20.000Z</time>
      </trkpt>
      <trkpt lat="46.21061" lon="-1.46587">
        <ele>51.82012</ele>
        <time>2023-05-28T16:44:21.000Z</time>
      </trkpt>
      <trkpt lat="46.21061" lon="-1.46579">
        <ele>51.86457</ele>
        <time>2023-05-28T16:44:22.000Z</time>
      </trkpt>
      <trkpt lat="46.2106" lon="-1.46573">
        <ele>51.91177</ele>
        <time>2023-05-28T16:44:23.000Z</time>
      </trkpt>
      <trkpt lat="46.21061" lon="-1.46567">
        <ele>51.98987</ele>
        <time>2023-05-28T16:44:24.000Z</time>
      </trkpt>
      <trkpt lat="46.21062" lon="-1.4656">
        <ele>52.06399</ele>
        <time>2023-05-28T16:44:25.000Z</time>
      </trkpt>
      <trkpt lat="46.21062" lon="-1.46553">
        <ele>52.13943</ele>
        <time>2023-05-28T16:44:26.000Z</time>
      </trkpt>
      <trkpt lat="46.21062" lon="-1.46546">
        <ele>52.20439</ele>
        <time>2023-05-28T16:44:27.000Z</time>
      </trkpt>
      <trkpt lat="46.21063" lon="-1.4654">
        <ele>52.28534</ele>
        <time>2023-05-28T16:44:28.000Z</time>
      </trkpt>
      <trkpt lat="46.21063" lon="-1.46533">
        <ele>52.35183</ele>
        <time>2023-05-28T16:44:29.000Z</time>
      </trkpt>
      <trkpt lat="46.21064" lon="-1.46526">
        <ele>52.42625</ele>
        <time>2023-05-28T16:44:30.000Z</time>
      </trkpt>
      <trkpt lat="46.21064" lon="-1.46519">
        <ele>52.50012</ele>
        <time>2023-05-28T16:44:31.000Z</time>
      </trkpt>
      <trkpt lat="46.21064" lon="-1.46513">
        <ele>52.5684</ele>
        <time>2023-05-28T16:44:32.000Z</time>
      </trkpt>
      <trkpt lat="46.21064" lon="-1.46506">
        <ele>52.65076</ele>
        <time>2023-05-28T16:44:33.000Z</time>
      </trkpt>
      <trkpt lat="46.21065" lon="-1.46499">
        <ele>52.71388</ele>
        <time>2023-05-28T16:44:34.000Z</time>
      </trkpt>
      <trkpt lat="46.21065" lon="-1.46492">
        <ele>52.80361</ele>
        <time>2023-05-28T16:44:35.000Z</time>
      </trkpt>
      <trkpt lat="46.21065" lon="-1.46485">
        <ele>52.85246</ele>
        <time>2023-05-28T16:44:36.000Z</time>
      </trkpt>
      <trkpt lat="46.21065" lon="-1.46479">
        <ele>52.89341</ele>
        <time>2023-05-28T16:44:37.000Z</time>
      </trkpt>
      <trkpt lat="46.21065" lon="-1.46473">
        <ele>52.90549</ele>
        <time>2023-05-28T16:44:38.000Z</time>
      </trkpt>
      <trkpt lat="46.21066" lon="-1.46466">
        <ele>52.88994</ele>
        <time>2023-05-28T16:44:39.000Z</time>
      </trkpt>
      <trkpt lat="46.21067" lon="-1.4646">
        <ele>52.87272</ele>
        <time>2023-05-28T16:44:40.000Z</time>
      </trkpt>
      <trkpt lat="46.21068" lon="-1.46454">
        <ele>52.86232</ele>
        <time>2023-05-28T16:44:41.000Z</time>
      </trkpt>
      <trkpt lat="46.21069" lon="-1.46447">
        <ele>52.8673</ele>
        <time>2023-05-28T16:44:42.000Z</time>
      </trkpt>
      <trkpt lat="46.2107" lon="-1.46442">
        <ele>52.88599</ele>
        <time>2023-05-28T16:44:43.000Z</time>
      </trkpt>
      <trkpt lat="46.21071" lon="-1.46436">
        <ele>52.90368</ele>
        <time>2023-05-28T16:44:44.000Z</time>
      </trkpt>
      <trkpt lat="46.21072" lon="-1.4643">
        <ele>52.9104</ele>
        <time>2023-05-28T16:44:45.000Z</time>
      </trkpt>
      <trkpt lat="46.21073" lon="-1.46423">
        <ele>52.9093</ele>
        <time>2023-05-28T16:44:46.000Z</time>
      </trkpt>
      <trkpt lat="46.21073" lon="-1.46417">
        <ele>52.91604</ele>
        <time>2023-05-28T16:44:47.000Z</time>
      </trkpt>
      <trkpt lat="46.21074" lon="-1.4641">
        <ele>52.91846</ele>
        <time>2023-05-28T16:44:48.000Z</time>
      </trkpt>
      <trkpt lat="46.21075" lon="-1.46404">
        <ele>52.92917</ele>
        <time>2023-05-28T16:44:49.000Z</time>
      </trkpt>
      <trkpt lat="46.21075" lon="-1.46397">
        <ele>52.93816</ele>
        <time>2023-05-28T16:44:50.000Z</time>
      </trkpt>
      <trkpt lat="46.21077" lon="-1.46391">
        <ele>52.97714</ele>
        <time>2023-05-28T16:44:51.000Z</time>
      </trkpt>
      <trkpt lat="46.21076" lon="-1.46385">
        <ele>52.99049</ele>
        <time>2023-05-28T16:44:52.000Z</time>
      </trkpt>
      <trkpt lat="46.21076" lon="-1.46379">
        <ele>53.02452</ele>
        <time>2023-05-28T16:44:53.000Z</time>
      </trkpt>
      <trkpt lat="46.21077" lon="-1.46374">
        <ele>53.06332</ele>
        <time>2023-05-28T16:44:54.000Z</time>
      </trkpt>
      <trkpt lat="46.21079" lon="-1.46368">
        <ele>53.06908</ele>
        <time>2023-05-28T16:44:55.000Z</time>
      </trkpt>
      <trkpt lat="46.21079" lon="-1.46362">
        <ele>53.06869</ele>
        <time>2023-05-28T16:44:56.000Z</time>
      </trkpt>
      <trkpt lat="46.2108" lon="-1.46356">
        <ele>53.0721</ele>
        <time>2023-05-28T16:44:57.000Z</time>
      </trkpt>
      <trkpt lat="46.21081" lon="-1.46351">
        <ele>53.06278</ele>
        <time>2023-05-28T16:44:58.000Z</time>
      </trkpt>
      <trkpt lat="46.21082" lon="-1.46345">
        <ele>53.04469</ele>
        <time>2023-05-28T16:44:59.000Z</time>
      </trkpt>
      <trkpt lat="46.21083" lon="-1.46338">
        <ele>53.01041</ele>
        <time>2023-05-28T16:45:00.000Z</time>
      </trkpt>
      <trkpt lat="46.21084" lon="-1.46332">
        <ele>52.97689</ele>
        <time>2023-05-28T16:45:01.000Z</time>
      </trkpt>
      <trkpt lat="46.21085" lon="-1.46326">
        <ele>52.93958</ele>
        <time>2023-05-28T16:45:02.000Z</time>
      </trkpt>
      <trkpt lat="46.21086" lon="-1.46321">
        <ele>52.90642</ele>
        <time>2023-05-28T16:45:03.000Z</time>
      </trkpt>
      <trkpt lat="46.21087" lon="-1.46315">
        <ele>52.85691</ele>
        <time>2023-05-28T16:45:04.000Z</time>
      </trkpt>
      <trkpt lat="46.21089" lon="-1.46309">
        <ele>52.82886</ele>
        <time>2023-05-28T16:45:05.000Z</time>
      </trkpt>
      <trkpt lat="46.2109" lon="-1.46303">
        <ele>52.82678</ele>
        <time>2023-05-28T16:45:06.000Z</time>
      </trkpt>
      <trkpt lat="46.21092" lon="-1.46297">
        <ele>52.81218</ele>
        <time>2023-05-28T16:45:07.000Z</time>
      </trkpt>
      <trkpt lat="46.21093" lon="-1.46291">
        <ele>52.80223</ele>
        <time>2023-05-28T16:45:08.000Z</time>
      </trkpt>
      <trkpt lat="46.21094" lon="-1.46285">
        <ele>52.7893</ele>
        <time>2023-05-28T16:45:09.000Z</time>
      </trkpt>
      <trkpt lat="46.21095" lon="-1.46279">
        <ele>52.76704</ele>
        <time>2023-05-28T16:45:10.000Z</time>
      </trkpt>
      <trkpt lat="46.21096" lon="-1.46273">
        <ele>52.7176</ele>
        <time>2023-05-28T16:45:11.000Z</time>
      </trkpt>
      <trkpt lat="46.21097" lon="-1.46267">
        <ele>52.67689</ele>
        <time>2023-05-28T16:45:12.000Z</time>
      </trkpt>
      <trkpt lat="46.21098" lon="-1.46261">
        <ele>52.59735</ele>
        <time>2023-05-28T16:45:13.000Z</time>
      </trkpt>
      <trkpt lat="46.211" lon="-1.46255">
        <ele>52.52284</ele>
        <time>2023-05-28T16:45:14.000Z</time>
      </trkpt>
      <trkpt lat="46.21101" lon="-1.4625">
        <ele>52.44713</ele>
        <time>2023-05-28T16:45:15.000Z</time>
      </trkpt>
      <trkpt lat="46.21101" lon="-1.46244">
        <ele>52.38448</ele>
        <time>2023-05-28T16:45:16.000Z</time>
      </trkpt>
      <trkpt lat="46.21102" lon="-1.46238">
        <ele>52.32222</ele>
        <time>2023-05-28T16:45:17.000Z</time>
      </trkpt>
      <trkpt lat="46.21103" lon="-1.46233">
        <ele>52.28692</ele>
        <time>2023-05-28T16:45:18.000Z</time>
      </trkpt>
      <trkpt lat="46.21104" lon="-1.46227">
        <ele>52.26895</ele>
        <time>2023-05-28T16:45:19.000Z</time>
      </trkpt>
      <trkpt lat="46.21105" lon="-1.46221">
        <ele>52.29668</ele>
        <time>2023-05-28T16:45:20.000Z</time>
      </trkpt>
      <trkpt lat="46.21107" lon="-1.46215">
        <ele>52.31524</ele>
        <time>2023-05-28T16:45:21.000Z</time>
      </trkpt>
      <trkpt lat="46.21109" lon="-1.46209">
        <ele>52.31066</ele>
        <time>2023-05-28T16:45:22.000Z</time>
      </trkpt>
      <trkpt lat="46.2111" lon="-1.46202">
        <ele>52.2821</ele>
        <time>2023-05-28T16:45:23.000Z</time>
      </trkpt>
      <trkpt lat="46.21111" lon="-1.46196">
        <ele>52.24382</ele>
        <time>2023-05-28T16:45:24.000Z</time>
      </trkpt>
      <trkpt lat="46.21113" lon="-1.46189">
        <ele>52.18733</ele>
        <time>2023-05-28T16:45:25.000Z</time>
      </trkpt>
      <trkpt lat="46.21115" lon="-1.46183">
        <ele>52.10619</ele>
        <time>2023-05-28T16:45:26.000Z</time>
      </trkpt>
      <trkpt lat="46.21117" lon="-1.46176">
        <ele>52.02235</ele>
        <time>2023-05-28T16:45:27.000Z</time>
      </trkpt>
      <trkpt lat="46.21118" lon="-1.4617">
        <ele>51.95341</ele>
        <time>2023-05-28T16:45:28.000Z</time>
      </trkpt>
      <trkpt lat="46.21119" lon="-1.46163">
        <ele>51.88807</ele>
        <time>2023-05-28T16:45:29.000Z</time>
      </trkpt>
      <trkpt lat="46.2112" lon="-1.46157">
        <ele>51.823</ele>
        <time>2023-05-28T16:45:30.000Z</time>
      </trkpt>
      <trkpt lat="46.21121" lon="-1.46151">
        <ele>51.74894</ele>
        <time>2023-05-28T16:45:31.000Z</time>
      </trkpt>
      <trkpt lat="46.21121" lon="-1.46144">
        <ele>51.67334</ele>
        <time>2023-05-28T16:45:32.000Z</time>
      </trkpt>
      <trkpt lat="46.21121" lon="-1.46139">
        <ele>51.61532</ele>
        <time>2023-05-28T16:45:33.000Z</time>
      </trkpt>
      <trkpt lat="46.21121" lon="-1.46133">
        <ele>51.5614</ele>
        <time>2023-05-28T16:45:34.000Z</time>
      </trkpt>
      <trkpt lat="46.21121" lon="-1.46127">
        <ele>51.51698</ele>
        <time>2023-05-28T16:45:35.000Z</time>
      </trkpt>
      <trkpt lat="46.21121" lon="-1.46122">
        <ele>51.46696</ele>
        <time>2023-05-28T16:45:36.000Z</time>
      </trkpt>
      <trkpt lat="46.2112" lon="-1.46117">
        <ele>51.43334</ele>
        <time>2023-05-28T16:45:37.000Z</time>
      </trkpt>
      <trkpt lat="46.2112" lon="-1.46113">
        <ele>51.40171</ele>
        <time>2023-05-28T16:45:38.000Z</time>
      </trkpt>
      <trkpt lat="46.2112" lon="-1.46108">
        <ele>51.37078</ele>
        <time>2023-05-28T16:45:39.000Z</time>
      </trkpt>
      <trkpt lat="46.21119" lon="-1.46103">
        <ele>51.30972</ele>
        <time>2023-05-28T16:45:40.000Z</time>
      </trkpt>
      <trkpt lat="46.21119" lon="-1.46099">
        <ele>51.25649</ele>
        <time>2023-05-28T16:45:41.000Z</time>
      </trkpt>
      <trkpt lat="46.21119" lon="-1.46094">
        <ele>51.20281</ele>
        <time>2023-05-28T16:45:42.000Z</time>
      </trkpt>
      <trkpt lat="46.21119" lon="-1.46089">
        <ele>51.13195</ele>
        <time>2023-05-28T16:45:43.000Z</time>
      </trkpt>
      <trkpt lat="46.21118" lon="-1.46084">
        <ele>51.08592</ele>
        <time>2023-05-28T16:45:44.000Z</time>
      </trkpt>
      <trkpt lat="46.21118" lon="-1.46078">
        <ele>51.05087</ele>
        <time>2023-05-28T16:45:45.000Z</time>
      </trkpt>
      <trkpt lat="46.21119" lon="-1.46073">
        <ele>51.03046</ele>
        <time>2023-05-28T16:45:46.000Z</time>
      </trkpt>
      <trkpt lat="46.21119" lon="-1.46069">
        <ele>51.01904</ele>
        <time>2023-05-28T16:45:47.000Z</time>
      </trkpt>
      <trkpt lat="46.2112" lon="-1.46064">
        <ele>50.98667</ele>
        <time>2023-05-28T16:45:48.000Z</time>
      </trkpt>
      <trkpt lat="46.2112" lon="-1.46059">
        <ele>50.9643</ele>
        <time>2023-05-28T16:45:49.000Z</time>
      </trkpt>
      <trkpt lat="46.21121" lon="-1.46054">
        <ele>50.97364</ele>
        <time>2023-05-28T16:45:50.000Z</time>
      </trkpt>
      <trkpt lat="46.21121" lon="-1.4605">
        <ele>50.99795</ele>
        <time>2023-05-28T16:45:51.000Z</time>
      </trkpt>
      <trkpt lat="46.21121" lon="-1.46046">
        <ele>51.04856</ele>
        <time>2023-05-28T16:45:52.000Z</time>
      </trkpt>
      <trkpt lat="46.21121" lon="-1.46042">
        <ele>51.0931</ele>
        <time>2023-05-28T16:45:53.000Z</time>
      </trkpt>
      <trkpt lat="46.2112" lon="-1.46038">
        <ele>51.10972</ele>
        <time>2023-05-28T16:45:54.000Z</time>
      </trkpt>
      <trkpt lat="46.2112" lon="-1.46034">
        <ele>51.12181</ele>
        <time>2023-05-28T16:45:55.000Z</time>
      </trkpt>
      <trkpt lat="46.2112" lon="-1.46031">
        <ele>51.13891</ele>
        <time>2023-05-28T16:45:56.000Z</time>
      </trkpt>
      <trkpt lat="46.21119" lon="-1.46028">
        <ele>51.13366</ele>
        <time>2023-05-28T16:45:57.000Z</time>
      </trkpt>
      <trkpt lat="46.21119" lon="-1.46025">
        <ele>51.11676</ele>
        <time>2023-05-28T16:45:58.000Z</time>
      </trkpt>
      <trkpt lat="46.21119" lon="-1.46022">
        <ele>51.0872</ele>
        <time>2023-05-28T16:45:59.000Z</time>
      </trkpt>
      <trkpt lat="46.21119" lon="-1.4602">
        <ele>51.07186</ele>
        <time>2023-05-28T16:46:00.000Z</time>
      </trkpt>
      <trkpt lat="46.21119" lon="-1.46017">
        <ele>51.0481</ele>
        <time>2023-05-28T16:46:01.000Z</time>
      </trkpt>
      <trkpt lat="46.21118" lon="-1.46014">
        <ele>51.0307</ele>
        <time>2023-05-28T16:46:02.000Z</time>
      </trkpt>
      <trkpt lat="46.21116" lon="-1.46012">
        <ele>51.03797</ele>
        <time>2023-05-28T16:46:03.000Z</time>
      </trkpt>
      <trkpt lat="46.21113" lon="-1.4601">
        <ele>51.04398</ele>
        <time>2023-05-28T16:46:04.000Z</time>
      </trkpt>
      <trkpt lat="46.21111" lon="-1.46008">
        <ele>51.03194</ele>
        <time>2023-05-28T16:46:05.000Z</time>
      </trkpt>
      <trkpt lat="46.21109" lon="-1.46005">
        <ele>51.02781</ele>
        <time>2023-05-28T16:46:06.000Z</time>
      </trkpt>
      <trkpt lat="46.21107" lon="-1.46001">
        <ele>51.02223</ele>
        <time>2023-05-28T16:46:07.000Z</time>
      </trkpt>
      <trkpt lat="46.21106" lon="-1.45998">
        <ele>51.04618</ele>
        <time>2023-05-28T16:46:08.000Z</time>
      </trkpt>
      <trkpt lat="46.21104" lon="-1.45994">
        <ele>51.06013</ele>
        <time>2023-05-28T16:46:09.000Z</time>
      </trkpt>
      <trkpt lat="46.21102" lon="-1.45991">
        <ele>51.07533</ele>
        <time>2023-05-28T16:46:10.000Z</time>
      </trkpt>
      <trkpt lat="46.211" lon="-1.45988">
        <ele>51.07967</ele>
        <time>2023-05-28T16:46:11.000Z</time>
      </trkpt>
      <trkpt lat="46.21097" lon="-1.45984">
        <ele>51.06841</ele>
        <time>2023-05-28T16:46:12.000Z</time>
      </trkpt>
      <trkpt lat="46.21096" lon="-1.4598">
        <ele>51.06252</ele>
        <time>2023-05-28T16:46:13.000Z</time>
      </trkpt>
      <trkpt lat="46.21094" lon="-1.45975">
        <ele>51.06149</ele>
        <time>2023-05-28T16:46:14.000Z</time>
      </trkpt>
      <trkpt lat="46.21093" lon="-1.4597">
        <ele>51.06575</ele>
        <time>2023-05-28T16:46:15.000Z</time>
      </trkpt>
      <trkpt lat="46.21092" lon="-1.45965">
        <ele>51.04714</ele>
        <time>2023-05-28T16:46:16.000Z</time>
      </trkpt>
      <trkpt lat="46.21092" lon="-1.45959">
        <ele>51.03104</ele>
        <time>2023-05-28T16:46:17.000Z</time>
      </trkpt>
      <trkpt lat="46.21091" lon="-1.45954">
        <ele>51.02504</ele>
        <time>2023-05-28T16:46:18.000Z</time>
      </trkpt>
      <trkpt lat="46.2109" lon="-1.45948">
        <ele>51.02468</ele>
        <time>2023-05-28T16:46:19.000Z</time>
      </trkpt>
      <trkpt lat="46.21089" lon="-1.45943">
        <ele>51.01883</ele>
        <time>2023-05-28T16:46:20.000Z</time>
      </trkpt>
      <trkpt lat="46.21088" lon="-1.45937">
        <ele>51.02097</ele>
        <time>2023-05-28T16:46:21.000Z</time>
      </trkpt>
      <trkpt lat="46.21087" lon="-1.45931">
        <ele>51.04302</ele>
        <time>2023-05-28T16:46:22.000Z</time>
      </trkpt>
      <trkpt lat="46.21087" lon="-1.45925">
        <ele>51.08582</ele>
        <time>2023-05-28T16:46:23.000Z</time>
      </trkpt>
      <trkpt lat="46.21086" lon="-1.4592">
        <ele>51.1415</ele>
        <time>2023-05-28T16:46:24.000Z</time>
      </trkpt>
      <trkpt lat="46.21086" lon="-1.45913">
        <ele>51.23114</ele>
        <time>2023-05-28T16:46:25.000Z</time>
      </trkpt>
      <trkpt lat="46.21085" lon="-1.45907">
        <ele>51.31809</ele>
        <time>2023-05-28T16:46:26.000Z</time>
      </trkpt>
      <trkpt lat="46.21085" lon="-1.45901">
        <ele>51.40287</ele>
        <time>2023-05-28T16:46:27.000Z</time>
      </trkpt>
      <trkpt lat="46.21084" lon="-1.45895">
        <ele>51.47991</ele>
        <time>2023-05-28T16:46:28.000Z</time>
      </trkpt>
      <trkpt lat="46.21083" lon="-1.45889">
        <ele>51.57095</ele>
        <time>2023-05-28T16:46:29.000Z</time>
      </trkpt>
      <trkpt lat="46.21083" lon="-1.45882">
        <ele>51.61755</ele>
        <time>2023-05-28T16:46:30.000Z</time>
      </trkpt>
      <trkpt lat="46.21082" lon="-1.45875">
        <ele>51.66571</ele>
        <time>2023-05-28T16:46:31.000Z</time>
      </trkpt>
      <trkpt lat="46.21081" lon="-1.45867">
        <ele>51.70771</ele>
        <time>2023-05-28T16:46:32.000Z</time>
      </trkpt>
      <trkpt lat="46.21081" lon="-1.4586">
        <ele>51.75164</ele>
        <time>2023-05-28T16:46:33.000Z</time>
      </trkpt>
      <trkpt lat="46.21079" lon="-1.45852">
        <ele>51.80129</ele>
        <time>2023-05-28T16:46:34.000Z</time>
      </trkpt>
      <trkpt lat="46.21078" lon="-1.45844">
        <ele>51.8652</ele>
        <time>2023-05-28T16:46:35.000Z</time>
      </trkpt>
      <trkpt lat="46.21077" lon="-1.45835">
        <ele>51.94949</ele>
        <time>2023-05-28T16:46:36.000Z</time>
      </trkpt>
      <trkpt lat="46.21075" lon="-1.45828">
        <ele>52.03517</ele>
        <time>2023-05-28T16:46:37.000Z</time>
      </trkpt>
      <trkpt lat="46.21074" lon="-1.4582">
        <ele>52.11577</ele>
        <time>2023-05-28T16:46:38.000Z</time>
      </trkpt>
      <trkpt lat="46.21072" lon="-1.45811">
        <ele>52.17712</ele>
        <time>2023-05-28T16:46:39.000Z</time>
      </trkpt>
      <trkpt lat="46.21071" lon="-1.45803">
        <ele>52.23814</ele>
        <time>2023-05-28T16:46:40.000Z</time>
      </trkpt>
      <trkpt lat="46.21068" lon="-1.45793">
        <ele>52.29321</ele>
        <time>2023-05-28T16:46:41.000Z</time>
      </trkpt>
      <trkpt lat="46.21066" lon="-1.45785">
        <ele>52.32147</ele>
        <time>2023-05-28T16:46:42.000Z</time>
      </trkpt>
      <trkpt lat="46.21065" lon="-1.45777">
        <ele>52.31869</ele>
        <time>2023-05-28T16:46:43.000Z</time>
      </trkpt>
      <trkpt lat="46.21063" lon="-1.45769">
        <ele>52.29531</ele>
        <time>2023-05-28T16:46:44.000Z</time>
      </trkpt>
      <trkpt lat="46.21062" lon="-1.45761">
        <ele>52.23674</ele>
        <time>2023-05-28T16:46:45.000Z</time>
      </trkpt>
      <trkpt lat="46.2106" lon="-1.45753">
        <ele>52.18082</ele>
        <time>2023-05-28T16:46:46.000Z</time>
      </trkpt>
      <trkpt lat="46.21058" lon="-1.45746">
        <ele>52.12629</ele>
        <time>2023-05-28T16:46:47.000Z</time>
      </trkpt>
      <trkpt lat="46.21057" lon="-1.45739">
        <ele>52.05561</ele>
        <time>2023-05-28T16:46:48.000Z</time>
      </trkpt>
      <trkpt lat="46.21056" lon="-1.45732">
        <ele>51.97478</ele>
        <time>2023-05-28T16:46:49.000Z</time>
      </trkpt>
      <trkpt lat="46.21055" lon="-1.45726">
        <ele>51.92149</ele>
        <time>2023-05-28T16:46:50.000Z</time>
      </trkpt>
      <trkpt lat="46.21053" lon="-1.45718">
        <ele>51.86232</ele>
        <time>2023-05-28T16:46:51.000Z</time>
      </trkpt>
      <trkpt lat="46.21052" lon="-1.45711">
        <ele>51.77812</ele>
        <time>2023-05-28T16:46:52.000Z</time>
      </trkpt>
      <trkpt lat="46.2105" lon="-1.45704">
        <ele>51.6837</ele>
        <time>2023-05-28T16:46:53.000Z</time>
      </trkpt>
      <trkpt lat="46.21049" lon="-1.45698">
        <ele>51.60306</ele>
        <time>2023-05-28T16:46:54.000Z</time>
      </trkpt>
      <trkpt lat="46.21047" lon="-1.45692">
        <ele>51.50063</ele>
        <time>2023-05-28T16:46:55.000Z</time>
      </trkpt>
      <trkpt lat="46.21046" lon="-1.45685">
        <ele>51.38613</ele>
        <time>2023-05-28T16:46:56.000Z</time>
      </trkpt>
      <trkpt lat="46.21044" lon="-1.45679">
        <ele>51.26227</ele>
        <time>2023-05-28T16:46:57.000Z</time>
      </trkpt>
      <trkpt lat="46.21042" lon="-1.45674">
        <ele>51.12988</ele>
        <time>2023-05-28T16:46:58.000Z</time>
      </trkpt>
      <trkpt lat="46.21041" lon="-1.45667">
        <ele>50.99271</ele>
        <time>2023-05-28T16:46:59.000Z</time>
      </trkpt>
      <trkpt lat="46.21041" lon="-1.45661">
        <ele>50.88741</ele>
        <time>2023-05-28T16:47:00.000Z</time>
      </trkpt>
      <trkpt lat="46.2104" lon="-1.45655">
        <ele>50.78999</ele>
        <time>2023-05-28T16:47:01.000Z</time>
      </trkpt>
      <trkpt lat="46.21039" lon="-1.45649">
        <ele>50.71791</ele>
        <time>2023-05-28T16:47:02.000Z</time>
      </trkpt>
      <trkpt lat="46.21038" lon="-1.45644">
        <ele>50.67898</ele>
        <time>2023-05-28T16:47:03.000Z</time>
      </trkpt>
      <trkpt lat="46.21037" lon="-1.45638">
        <ele>50.66285</ele>
        <time>2023-05-28T16:47:04.000Z</time>
      </trkpt>
      <trkpt lat="46.21035" lon="-1.45632">
        <ele>50.66468</ele>
        <time>2023-05-28T16:47:05.000Z</time>
      </trkpt>
      <trkpt lat="46.21034" lon="-1.45626">
        <ele>50.6427</ele>
        <time>2023-05-28T16:47:06.000Z</time>
      </trkpt>
      <trkpt lat="46.21033" lon="-1.45621">
        <ele>50.6168</ele>
        <time>2023-05-28T16:47:07.000Z</time>
      </trkpt>
      <trkpt lat="46.21032" lon="-1.45615">
        <ele>50.59912</ele>
        <time>2023-05-28T16:47:08.000Z</time>
      </trkpt>
      <trkpt lat="46.2103" lon="-1.45609">
        <ele>50.58343</ele>
        <time>2023-05-28T16:47:09.000Z</time>
      </trkpt>
      <trkpt lat="46.21028" lon="-1.45603">
        <ele>50.55837</ele>
        <time>2023-05-28T16:47:10.000Z</time>
      </trkpt>
      <trkpt lat="46.21026" lon="-1.45598">
        <ele>50.52504</ele>
        <time>2023-05-28T16:47:11.000Z</time>
      </trkpt>
      <trkpt lat="46.21024" lon="-1.45591">
        <ele>50.5097</ele>
        <time>2023-05-28T16:47:12.000Z</time>
      </trkpt>
      <trkpt lat="46.21022" lon="-1.45585">
        <ele>50.49701</ele>
        <time>2023-05-28T16:47:13.000Z</time>
      </trkpt>
      <trkpt lat="46.21019" lon="-1.45579">
        <ele>50.45692</ele>
        <time>2023-05-28T16:47:14.000Z</time>
      </trkpt>
      <trkpt lat="46.21017" lon="-1.45572">
        <ele>50.43123</ele>
        <time>2023-05-28T16:47:15.000Z</time>
      </trkpt>
      <trkpt lat="46.21015" lon="-1.45565">
        <ele>50.42616</ele>
        <time>2023-05-28T16:47:16.000Z</time>
      </trkpt>
      <trkpt lat="46.21014" lon="-1.45559">
        <ele>50.45387</ele>
        <time>2023-05-28T16:47:17.000Z</time>
      </trkpt>
      <trkpt lat="46.21013" lon="-1.45551">
        <ele>50.46303</ele>
        <time>2023-05-28T16:47:18.000Z</time>
      </trkpt>
      <trkpt lat="46.21011" lon="-1.45545">
        <ele>50.50227</ele>
        <time>2023-05-28T16:47:19.000Z</time>
      </trkpt>
      <trkpt lat="46.21009" lon="-1.45538">
        <ele>50.49171</ele>
        <time>2023-05-28T16:47:20.000Z</time>
      </trkpt>
      <trkpt lat="46.21007" lon="-1.45531">
        <ele>50.48886</ele>
        <time>2023-05-28T16:47:21.000Z</time>
      </trkpt>
      <trkpt lat="46.21005" lon="-1.45525">
        <ele>50.47619</ele>
        <time>2023-05-28T16:47:22.000Z</time>
      </trkpt>
      <trkpt lat="46.21003" lon="-1.45518">
        <ele>50.42293</ele>
        <time>2023-05-28T16:47:23.000Z</time>
      </trkpt>
      <trkpt lat="46.21001" lon="-1.45513">
        <ele>50.33564</ele>
        <time>2023-05-28T16:47:24.000Z</time>
      </trkpt>
      <trkpt lat="46.20999" lon="-1.45506">
        <ele>50.26009</ele>
        <time>2023-05-28T16:47:25.000Z</time>
      </trkpt>
      <trkpt lat="46.20997" lon="-1.455">
        <ele>50.19842</ele>
        <time>2023-05-28T16:47:26.000Z</time>
      </trkpt>
      <trkpt lat="46.20994" lon="-1.45493">
        <ele>50.16519</ele>
        <time>2023-05-28T16:47:27.000Z</time>
      </trkpt>
      <trkpt lat="46.20992" lon="-1.45487">
        <ele>50.12293</ele>
        <time>2023-05-28T16:47:28.000Z</time>
      </trkpt>
      <trkpt lat="46.2099" lon="-1.45481">
        <ele>50.0911</ele>
        <time>2023-05-28T16:47:29.000Z</time>
      </trkpt>
      <trkpt lat="46.20987" lon="-1.45475">
        <ele>50.06396</ele>
        <time>2023-05-28T16:47:30.000Z</time>
      </trkpt>
      <trkpt lat="46.20984" lon="-1.45468">
        <ele>50.03536</ele>
        <time>2023-05-28T16:47:31.000Z</time>
      </trkpt>
      <trkpt lat="46.20982" lon="-1.45462">
        <ele>50.02466</ele>
        <time>2023-05-28T16:47:32.000Z</time>
      </trkpt>
      <trkpt lat="46.2098" lon="-1.45456">
        <ele>50.01511</ele>
        <time>2023-05-28T16:47:33.000Z</time>
      </trkpt>
      <trkpt lat="46.20977" lon="-1.4545">
        <ele>50.02103</ele>
        <time>2023-05-28T16:47:34.000Z</time>
      </trkpt>
      <trkpt lat="46.20975" lon="-1.45443">
        <ele>50.02578</ele>
        <time>2023-05-28T16:47:35.000Z</time>
      </trkpt>
      <trkpt lat="46.20973" lon="-1.45436">
        <ele>50.0283</ele>
        <time>2023-05-28T16:47:36.000Z</time>
      </trkpt>
      <trkpt lat="46.2097" lon="-1.4543">
        <ele>50.00326</ele>
        <time>2023-05-28T16:47:37.000Z</time>
      </trkpt>
      <trkpt lat="46.20968" lon="-1.45425">
        <ele>49.99569</ele>
        <time>2023-05-28T16:47:38.000Z</time>
      </trkpt>
      <trkpt lat="46.20965" lon="-1.45419">
        <ele>49.99518</ele>
        <time>2023-05-28T16:47:39.000Z</time>
      </trkpt>
      <trkpt lat="46.20964" lon="-1.45413">
        <ele>50.01597</ele>
        <time>2023-05-28T16:47:40.000Z</time>
      </trkpt>
      <trkpt lat="46.20961" lon="-1.45407">
        <ele>50.01244</ele>
        <time>2023-05-28T16:47:41.000Z</time>
      </trkpt>
      <trkpt lat="46.20959" lon="-1.45402">
        <ele>50.00032</ele>
        <time>2023-05-28T16:47:42.000Z</time>
      </trkpt>
      <trkpt lat="46.20956" lon="-1.45396">
        <ele>50.00946</ele>
        <time>2023-05-28T16:47:43.000Z</time>
      </trkpt>
      <trkpt lat="46.20954" lon="-1.4539">
        <ele>50.04586</ele>
        <time>2023-05-28T16:47:44.000Z</time>
      </trkpt>
      <trkpt lat="46.20952" lon="-1.45383">
        <ele>50.06253</ele>
        <time>2023-05-28T16:47:45.000Z</time>
      </trkpt>
      <trkpt lat="46.20951" lon="-1.45375">
        <ele>50.08443</ele>
        <time>2023-05-28T16:47:46.000Z</time>
      </trkpt>
      <trkpt lat="46.20951" lon="-1.45368">
        <ele>50.10849</ele>
        <time>2023-05-28T16:47:47.000Z</time>
      </trkpt>
      <trkpt lat="46.2095" lon="-1.45361">
        <ele>50.16259</ele>
        <time>2023-05-28T16:47:48.000Z</time>
      </trkpt>
      <trkpt lat="46.2095" lon="-1.45354">
        <ele>50.20856</ele>
        <time>2023-05-28T16:47:49.000Z</time>
      </trkpt>
      <trkpt lat="46.20948" lon="-1.45349">
        <ele>50.20385</ele>
        <time>2023-05-28T16:47:50.000Z</time>
      </trkpt>
      <trkpt lat="46.20946" lon="-1.45343">
        <ele>50.21164</ele>
        <time>2023-05-28T16:47:51.000Z</time>
      </trkpt>
      <trkpt lat="46.20945" lon="-1.45338">
        <ele>50.18485</ele>
        <time>2023-05-28T16:47:52.000Z</time>
      </trkpt>
      <trkpt lat="46.20943" lon="-1.45333">
        <ele>50.14894</ele>
        <time>2023-05-28T16:47:53.000Z</time>
      </trkpt>
      <trkpt lat="46.20942" lon="-1.45328">
        <ele>50.12326</ele>
        <time>2023-05-28T16:47:54.000Z</time>
      </trkpt>
      <trkpt lat="46.2094" lon="-1.45323">
        <ele>50.09404</ele>
        <time>2023-05-28T16:47:55.000Z</time>
      </trkpt>
      <trkpt lat="46.20938" lon="-1.45318">
        <ele>50.0537</ele>
        <time>2023-05-28T16:47:56.000Z</time>
      </trkpt>
      <trkpt lat="46.20936" lon="-1.45313">
        <ele>50.02232</ele>
        <time>2023-05-28T16:47:57.000Z</time>
      </trkpt>
      <trkpt lat="46.20935" lon="-1.45308">
        <ele>50.00488</ele>
        <time>2023-05-28T16:47:58.000Z</time>
      </trkpt>
      <trkpt lat="46.20933" lon="-1.45303">
        <ele>49.98231</ele>
        <time>2023-05-28T16:47:59.000Z</time>
      </trkpt>
      <trkpt lat="46.20931" lon="-1.45298">
        <ele>49.91813</ele>
        <time>2023-05-28T16:48:00.000Z</time>
      </trkpt>
      <trkpt lat="46.2093" lon="-1.45292">
        <ele>49.8794</ele>
        <time>2023-05-28T16:48:01.000Z</time>
      </trkpt>
      <trkpt lat="46.20928" lon="-1.45287">
        <ele>49.84159</ele>
        <time>2023-05-28T16:48:02.000Z</time>
      </trkpt>
      <trkpt lat="46.20926" lon="-1.45282">
        <ele>49.80418</ele>
        <time>2023-05-28T16:48:03.000Z</time>
      </trkpt>
      <trkpt lat="46.20924" lon="-1.45277">
        <ele>49.75076</ele>
        <time>2023-05-28T16:48:04.000Z</time>
      </trkpt>
      <trkpt lat="46.20922" lon="-1.45272">
        <ele>49.7042</ele>
        <time>2023-05-28T16:48:05.000Z</time>
      </trkpt>
      <trkpt lat="46.2092" lon="-1.45267">
        <ele>49.66199</ele>
        <time>2023-05-28T16:48:06.000Z</time>
      </trkpt>
      <trkpt lat="46.20919" lon="-1.45262">
        <ele>49.58374</ele>
        <time>2023-05-28T16:48:07.000Z</time>
      </trkpt>
      <trkpt lat="46.20917" lon="-1.45257">
        <ele>49.46989</ele>
        <time>2023-05-28T16:48:08.000Z</time>
      </trkpt>
      <trkpt lat="46.20915" lon="-1.45252">
        <ele>49.3556</ele>
        <time>2023-05-28T16:48:09.000Z</time>
      </trkpt>
      <trkpt lat="46.20913" lon="-1.45247">
        <ele>49.29011</ele>
        <time>2023-05-28T16:48:10.000Z</time>
      </trkpt>
      <trkpt lat="46.20911" lon="-1.45242">
        <ele>49.24331</ele>
        <time>2023-05-28T16:48:11.000Z</time>
      </trkpt>
      <trkpt lat="46.2091" lon="-1.45237">
        <ele>49.22772</ele>
        <time>2023-05-28T16:48:12.000Z</time>
      </trkpt>
      <trkpt lat="46.20908" lon="-1.45232">
        <ele>49.22788</ele>
        <time>2023-05-28T16:48:13.000Z</time>
      </trkpt>
      <trkpt lat="46.20906" lon="-1.45226">
        <ele>49.23322</ele>
        <time>2023-05-28T16:48:14.000Z</time>
      </trkpt>
      <trkpt lat="46.20905" lon="-1.45221">
        <ele>49.24895</ele>
        <time>2023-05-28T16:48:15.000Z</time>
      </trkpt>
      <trkpt lat="46.20903" lon="-1.45216">
        <ele>49.27752</ele>
        <time>2023-05-28T16:48:16.000Z</time>
      </trkpt>
      <trkpt lat="46.20901" lon="-1.4521">
        <ele>49.30556</ele>
        <time>2023-05-28T16:48:17.000Z</time>
      </trkpt>
      <trkpt lat="46.209" lon="-1.45204">
        <ele>49.32538</ele>
        <time>2023-05-28T16:48:18.000Z</time>
      </trkpt>
      <trkpt lat="46.20898" lon="-1.45198">
        <ele>49.33932</ele>
        <time>2023-05-28T16:48:19.000Z</time>
      </trkpt>
      <trkpt lat="46.20896" lon="-1.45193">
        <ele>49.38193</ele>
        <time>2023-05-28T16:48:20.000Z</time>
      </trkpt>
      <trkpt lat="46.20894" lon="-1.45188">
        <ele>49.4228</ele>
        <time>2023-05-28T16:48:21.000Z</time>
      </trkpt>
      <trkpt lat="46.20892" lon="-1.45182">
        <ele>49.46203</ele>
        <time>2023-05-28T16:48:22.000Z</time>
      </trkpt>
      <trkpt lat="46.20891" lon="-1.45176">
        <ele>49.49949</ele>
        <time>2023-05-28T16:48:23.000Z</time>
      </trkpt>
      <trkpt lat="46.20888" lon="-1.45171">
        <ele>49.54863</ele>
        <time>2023-05-28T16:48:24.000Z</time>
      </trkpt>
      <trkpt lat="46.20886" lon="-1.45165">
        <ele>49.582</ele>
        <time>2023-05-28T16:48:25.000Z</time>
      </trkpt>
      <trkpt lat="46.20884" lon="-1.4516">
        <ele>49.59978</ele>
        <time>2023-05-28T16:48:26.000Z</time>
      </trkpt>
      <trkpt lat="46.20882" lon="-1.45154">
        <ele>49.63573</ele>
        <time>2023-05-28T16:48:27.000Z</time>
      </trkpt>
      <trkpt lat="46.2088" lon="-1.45147">
        <ele>49.69292</ele>
        <time>2023-05-28T16:48:28.000Z</time>
      </trkpt>
      <trkpt lat="46.20878" lon="-1.45141">
        <ele>49.74725</ele>
        <time>2023-05-28T16:48:29.000Z</time>
      </trkpt>
      <trkpt lat="46.20876" lon="-1.45134">
        <ele>49.78551</ele>
        <time>2023-05-28T16:48:30.000Z</time>
      </trkpt>
      <trkpt lat="46.20874" lon="-1.45128">
        <ele>49.82517</ele>
        <time>2023-05-28T16:48:31.000Z</time>
      </trkpt>
      <trkpt lat="46.20872" lon="-1.45122">
        <ele>49.85248</ele>
        <time>2023-05-28T16:48:32.000Z</time>
      </trkpt>
      <trkpt lat="46.2087" lon="-1.45115">
        <ele>49.88403</ele>
        <time>2023-05-28T16:48:33.000Z</time>
      </trkpt>
      <trkpt lat="46.20869" lon="-1.45109">
        <ele>49.89936</ele>
        <time>2023-05-28T16:48:34.000Z</time>
      </trkpt>
      <trkpt lat="46.20867" lon="-1.45103">
        <ele>49.90464</ele>
        <time>2023-05-28T16:48:35.000Z</time>
      </trkpt>
      <trkpt lat="46.20864" lon="-1.45096">
        <ele>49.89704</ele>
        <time>2023-05-28T16:48:36.000Z</time>
      </trkpt>
      <trkpt lat="46.20862" lon="-1.4509">
        <ele>49.88688</ele>
        <time>2023-05-28T16:48:37.000Z</time>
      </trkpt>
      <trkpt lat="46.2086" lon="-1.45084">
        <ele>49.88815</ele>
        <time>2023-05-28T16:48:38.000Z</time>
      </trkpt>
      <trkpt lat="46.20858" lon="-1.45077">
        <ele>49.89314</ele>
        <time>2023-05-28T16:48:39.000Z</time>
      </trkpt>
      <trkpt lat="46.20856" lon="-1.45071">
        <ele>49.90324</ele>
        <time>2023-05-28T16:48:40.000Z</time>
      </trkpt>
      <trkpt lat="46.20855" lon="-1.45064">
        <ele>49.89953</ele>
        <time>2023-05-28T16:48:41.000Z</time>
      </trkpt>
      <trkpt lat="46.20853" lon="-1.45058">
        <ele>49.91353</ele>
        <time>2023-05-28T16:48:42.000Z</time>
      </trkpt>
      <trkpt lat="46.2085" lon="-1.45051">
        <ele>49.92881</ele>
        <time>2023-05-28T16:48:43.000Z</time>
      </trkpt>
      <trkpt lat="46.20848" lon="-1.45045">
        <ele>49.94309</ele>
        <time>2023-05-28T16:48:44.000Z</time>
      </trkpt>
      <trkpt lat="46.20846" lon="-1.45038">
        <ele>49.96982</ele>
        <time>2023-05-28T16:48:45.000Z</time>
      </trkpt>
      <trkpt lat="46.20844" lon="-1.45032">
        <ele>50.00388</ele>
        <time>2023-05-28T16:48:46.000Z</time>
      </trkpt>
      <trkpt lat="46.20842" lon="-1.45026">
        <ele>50.03764</ele>
        <time>2023-05-28T16:48:47.000Z</time>
      </trkpt>
      <trkpt lat="46.2084" lon="-1.45019">
        <ele>50.05975</ele>
        <time>2023-05-28T16:48:48.000Z</time>
      </trkpt>
      <trkpt lat="46.20838" lon="-1.45012">
        <ele>50.0806</ele>
        <time>2023-05-28T16:48:49.000Z</time>
      </trkpt>
      <trkpt lat="46.20835" lon="-1.45006">
        <ele>50.11243</ele>
        <time>2023-05-28T16:48:50.000Z</time>
      </trkpt>
      <trkpt lat="46.20833" lon="-1.44999">
        <ele>50.12595</ele>
        <time>2023-05-28T16:48:51.000Z</time>
      </trkpt>
      <trkpt lat="46.20831" lon="-1.44992">
        <ele>50.1584</ele>
        <time>2023-05-28T16:48:52.000Z</time>
      </trkpt>
      <trkpt lat="46.20829" lon="-1.44986">
        <ele>50.19544</ele>
        <time>2023-05-28T16:48:53.000Z</time>
      </trkpt>
      <trkpt lat="46.20827" lon="-1.44981">
        <ele>50.21396</ele>
        <time>2023-05-28T16:48:54.000Z</time>
      </trkpt>
      <trkpt lat="46.20824" lon="-1.44974">
        <ele>50.22458</ele>
        <time>2023-05-28T16:48:55.000Z</time>
      </trkpt>
      <trkpt lat="46.20822" lon="-1.44967">
        <ele>50.24255</ele>
        <time>2023-05-28T16:48:56.000Z</time>
      </trkpt>
      <trkpt lat="46.2082" lon="-1.44961">
        <ele>50.25002</ele>
        <time>2023-05-28T16:48:57.000Z</time>
      </trkpt>
      <trkpt lat="46.20816" lon="-1.44955">
        <ele>50.2389</ele>
        <time>2023-05-28T16:48:58.000Z</time>
      </trkpt>
      <trkpt lat="46.20814" lon="-1.44948">
        <ele>50.20929</ele>
        <time>2023-05-28T16:48:59.000Z</time>
      </trkpt>
      <trkpt lat="46.20812" lon="-1.44941">
        <ele>50.17941</ele>
        <time>2023-05-28T16:49:00.000Z</time>
      </trkpt>
      <trkpt lat="46.2081" lon="-1.44934">
        <ele>50.15794</ele>
        <time>2023-05-28T16:49:01.000Z</time>
      </trkpt>
      <trkpt lat="46.20808" lon="-1.44927">
        <ele>50.14822</ele>
        <time>2023-05-28T16:49:02.000Z</time>
      </trkpt>
      <trkpt lat="46.20805" lon="-1.44921">
        <ele>50.14208</ele>
        <time>2023-05-28T16:49:03.000Z</time>
      </trkpt>
      <trkpt lat="46.20803" lon="-1.44914">
        <ele>50.13441</ele>
        <time>2023-05-28T16:49:04.000Z</time>
      </trkpt>
      <trkpt lat="46.208" lon="-1.44909">
        <ele>50.10868</ele>
        <time>2023-05-28T16:49:05.000Z</time>
      </trkpt>
      <trkpt lat="46.20798" lon="-1.44902">
        <ele>50.088</ele>
        <time>2023-05-28T16:49:06.000Z</time>
      </trkpt>
      <trkpt lat="46.20796" lon="-1.44895">
        <ele>50.06051</ele>
        <time>2023-05-28T16:49:07.000Z</time>
      </trkpt>
      <trkpt lat="46.20794" lon="-1.44887">
        <ele>50.04604</ele>
        <time>2023-05-28T16:49:08.000Z</time>
      </trkpt>
      <trkpt lat="46.20792" lon="-1.44879">
        <ele>50.0491</ele>
        <time>2023-05-28T16:49:09.000Z</time>
      </trkpt>
      <trkpt lat="46.2079" lon="-1.44872">
        <ele>50.0538</ele>
        <time>2023-05-28T16:49:10.000Z</time>
      </trkpt>
      <trkpt lat="46.20787" lon="-1.44865">
        <ele>50.05216</ele>
        <time>2023-05-28T16:49:11.000Z</time>
      </trkpt>
      <trkpt lat="46.20785" lon="-1.4486">
        <ele>50.02685</ele>
        <time>2023-05-28T16:49:12.000Z</time>
      </trkpt>
      <trkpt lat="46.20783" lon="-1.44852">
        <ele>50.01555</ele>
        <time>2023-05-28T16:49:13.000Z</time>
      </trkpt>
      <trkpt lat="46.2078" lon="-1.44845">
        <ele>49.97978</ele>
        <time>2023-05-28T16:49:14.000Z</time>
      </trkpt>
      <trkpt lat="46.20778" lon="-1.44838">
        <ele>49.95693</ele>
        <time>2023-05-28T16:49:15.000Z</time>
      </trkpt>
      <trkpt lat="46.20775" lon="-1.44831">
        <ele>49.91755</ele>
        <time>2023-05-28T16:49:16.000Z</time>
      </trkpt>
      <trkpt lat="46.20772" lon="-1.44823">
        <ele>49.89014</ele>
        <time>2023-05-28T16:49:17.000Z</time>
      </trkpt>
      <trkpt lat="46.2077" lon="-1.44816">
        <ele>49.8658</ele>
        <time>2023-05-28T16:49:18.000Z</time>
      </trkpt>
      <trkpt lat="46.20767" lon="-1.44809">
        <ele>49.86291</ele>
        <time>2023-05-28T16:49:19.000Z</time>
      </trkpt>
      <trkpt lat="46.20764" lon="-1.44801">
        <ele>49.86945</ele>
        <time>2023-05-28T16:49:20.000Z</time>
      </trkpt>
      <trkpt lat="46.20762" lon="-1.44793">
        <ele>49.88726</ele>
        <time>2023-05-28T16:49:21.000Z</time>
      </trkpt>
      <trkpt lat="46.20759" lon="-1.44785">
        <ele>49.89097</ele>
        <time>2023-05-28T16:49:22.000Z</time>
      </trkpt>
      <trkpt lat="46.20757" lon="-1.44777">
        <ele>49.87635</ele>
        <time>2023-05-28T16:49:23.000Z</time>
      </trkpt>
      <trkpt lat="46.20755" lon="-1.44769">
        <ele>49.85334</ele>
        <time>2023-05-28T16:49:24.000Z</time>
      </trkpt>
      <trkpt lat="46.20752" lon="-1.44761">
        <ele>49.86476</ele>
        <time>2023-05-28T16:49:25.000Z</time>
      </trkpt>
      <trkpt lat="46.2075" lon="-1.44753">
        <ele>49.8771</ele>
        <time>2023-05-28T16:49:26.000Z</time>
      </trkpt>
      <trkpt lat="46.20748" lon="-1.44746">
        <ele>49.89303</ele>
        <time>2023-05-28T16:49:27.000Z</time>
      </trkpt>
      <trkpt lat="46.20745" lon="-1.44738">
        <ele>49.89518</ele>
        <time>2023-05-28T16:49:28.000Z</time>
      </trkpt>
      <trkpt lat="46.20742" lon="-1.44731">
        <ele>49.87243</ele>
        <time>2023-05-28T16:49:29.000Z</time>
      </trkpt>
      <trkpt lat="46.2074" lon="-1.44723">
        <ele>49.85452</ele>
        <time>2023-05-28T16:49:30.000Z</time>
      </trkpt>
      <trkpt lat="46.20738" lon="-1.44715">
        <ele>49.83436</ele>
        <time>2023-05-28T16:49:31.000Z</time>
      </trkpt>
      <trkpt lat="46.20735" lon="-1.44707">
        <ele>49.83712</ele>
        <time>2023-05-28T16:49:32.000Z</time>
      </trkpt>
      <trkpt lat="46.20733" lon="-1.44699">
        <ele>49.805</ele>
        <time>2023-05-28T16:49:33.000Z</time>
      </trkpt>
      <trkpt lat="46.2073" lon="-1.44691">
        <ele>49.83035</ele>
        <time>2023-05-28T16:49:34.000Z</time>
      </trkpt>
      <trkpt lat="46.20727" lon="-1.44683">
        <ele>49.84907</ele>
        <time>2023-05-28T16:49:35.000Z</time>
      </trkpt>
      <trkpt lat="46.20724" lon="-1.44676">
        <ele>49.87669</ele>
        <time>2023-05-28T16:49:36.000Z</time>
      </trkpt>
      <trkpt lat="46.20721" lon="-1.44669">
        <ele>49.85025</ele>
        <time>2023-05-28T16:49:37.000Z</time>
      </trkpt>
      <trkpt lat="46.20719" lon="-1.44661">
        <ele>49.83725</ele>
        <time>2023-05-28T16:49:38.000Z</time>
      </trkpt>
      <trkpt lat="46.20716" lon="-1.44653">
        <ele>49.83289</ele>
        <time>2023-05-28T16:49:39.000Z</time>
      </trkpt>
      <trkpt lat="46.20714" lon="-1.44644">
        <ele>49.8231</ele>
        <time>2023-05-28T16:49:40.000Z</time>
      </trkpt>
      <trkpt lat="46.20711" lon="-1.44637">
        <ele>49.77846</ele>
        <time>2023-05-28T16:49:41.000Z</time>
      </trkpt>
      <trkpt lat="46.20708" lon="-1.4463">
        <ele>49.73759</ele>
        <time>2023-05-28T16:49:42.000Z</time>
      </trkpt>
      <trkpt lat="46.20706" lon="-1.44622">
        <ele>49.71093</ele>
        <time>2023-05-28T16:49:43.000Z</time>
      </trkpt>
      <trkpt lat="46.20703" lon="-1.44614">
        <ele>49.68742</ele>
        <time>2023-05-28T16:49:44.000Z</time>
      </trkpt>
      <trkpt lat="46.20701" lon="-1.44605">
        <ele>49.67207</ele>
        <time>2023-05-28T16:49:45.000Z</time>
      </trkpt>
      <trkpt lat="46.20699" lon="-1.44597">
        <ele>49.65395</ele>
        <time>2023-05-28T16:49:46.000Z</time>
      </trkpt>
      <trkpt lat="46.20696" lon="-1.4459">
        <ele>49.65796</ele>
        <time>2023-05-28T16:49:47.000Z</time>
      </trkpt>
      <trkpt lat="46.20693" lon="-1.44582">
        <ele>49.66003</ele>
        <time>2023-05-28T16:49:48.000Z</time>
      </trkpt>
      <trkpt lat="46.20691" lon="-1.44574">
        <ele>49.66911</ele>
        <time>2023-05-28T16:49:49.000Z</time>
      </trkpt>
      <trkpt lat="46.20688" lon="-1.44567">
        <ele>49.68653</ele>
        <time>2023-05-28T16:49:50.000Z</time>
      </trkpt>
      <trkpt lat="46.20686" lon="-1.44559">
        <ele>49.72143</ele>
        <time>2023-05-28T16:49:51.000Z</time>
      </trkpt>
      <trkpt lat="46.20684" lon="-1.44551">
        <ele>49.74274</ele>
        <time>2023-05-28T16:49:52.000Z</time>
      </trkpt>
      <trkpt lat="46.20681" lon="-1.44543">
        <ele>49.76136</ele>
        <time>2023-05-28T16:49:53.000Z</time>
      </trkpt>
      <trkpt lat="46.20678" lon="-1.44535">
        <ele>49.77946</ele>
        <time>2023-05-28T16:49:54.000Z</time>
      </trkpt>
      <trkpt lat="46.20676" lon="-1.44526">
        <ele>49.7854</ele>
        <time>2023-05-28T16:49:55.000Z</time>
      </trkpt>
      <trkpt lat="46.20673" lon="-1.44518">
        <ele>49.81342</ele>
        <time>2023-05-28T16:49:56.000Z</time>
      </trkpt>
      <trkpt lat="46.2067" lon="-1.44511">
        <ele>49.87691</ele>
        <time>2023-05-28T16:49:57.000Z</time>
      </trkpt>
      <trkpt lat="46.20667" lon="-1.44503">
        <ele>49.92812</ele>
        <time>2023-05-28T16:49:58.000Z</time>
      </trkpt>
      <trkpt lat="46.20664" lon="-1.44495">
        <ele>49.98251</ele>
        <time>2023-05-28T16:49:59.000Z</time>
      </trkpt>
      <trkpt lat="46.20662" lon="-1.44486">
        <ele>50.0392</ele>
        <time>2023-05-28T16:50:00.000Z</time>
      </trkpt>
      <trkpt lat="46.20659" lon="-1.44478">
        <ele>50.09626</ele>
        <time>2023-05-28T16:50:01.000Z</time>
      </trkpt>
      <trkpt lat="46.20656" lon="-1.4447">
        <ele>50.15777</ele>
        <time>2023-05-28T16:50:02.000Z</time>
      </trkpt>
      <trkpt lat="46.20654" lon="-1.44462">
        <ele>50.22004</ele>
        <time>2023-05-28T16:50:03.000Z</time>
      </trkpt>
      <trkpt lat="46.20652" lon="-1.44455">
        <ele>50.26737</ele>
        <time>2023-05-28T16:50:04.000Z</time>
      </trkpt>
      <trkpt lat="46.2065" lon="-1.44449">
        <ele>50.28138</ele>
        <time>2023-05-28T16:50:05.000Z</time>
      </trkpt>
      <trkpt lat="46.20648" lon="-1.44443">
        <ele>50.28568</ele>
        <time>2023-05-28T16:50:06.000Z</time>
      </trkpt>
      <trkpt lat="46.20646" lon="-1.44438">
        <ele>50.24335</ele>
        <time>2023-05-28T16:50:07.000Z</time>
      </trkpt>
      <trkpt lat="46.20644" lon="-1.44432">
        <ele>50.19568</ele>
        <time>2023-05-28T16:50:08.000Z</time>
      </trkpt>
      <trkpt lat="46.20642" lon="-1.44427">
        <ele>50.15889</ele>
        <time>2023-05-28T16:50:09.000Z</time>
      </trkpt>
      <trkpt lat="46.2064" lon="-1.44421">
        <ele>50.11697</ele>
        <time>2023-05-28T16:50:10.000Z</time>
      </trkpt>
      <trkpt lat="46.20638" lon="-1.44416">
        <ele>50.07283</ele>
        <time>2023-05-28T16:50:11.000Z</time>
      </trkpt>
      <trkpt lat="46.20636" lon="-1.44411">
        <ele>50.03007</ele>
        <time>2023-05-28T16:50:12.000Z</time>
      </trkpt>
      <trkpt lat="46.20634" lon="-1.44407">
        <ele>50.01766</ele>
        <time>2023-05-28T16:50:13.000Z</time>
      </trkpt>
      <trkpt lat="46.20634" lon="-1.44403">
        <ele>49.99715</ele>
        <time>2023-05-28T16:50:14.000Z</time>
      </trkpt>
      <trkpt lat="46.20633" lon="-1.44398">
        <ele>49.9956</ele>
        <time>2023-05-28T16:50:15.000Z</time>
      </trkpt>
      <trkpt lat="46.20632" lon="-1.44394">
        <ele>49.93829</ele>
        <time>2023-05-28T16:50:16.000Z</time>
      </trkpt>
      <trkpt lat="46.20631" lon="-1.4439">
        <ele>49.92049</ele>
        <time>2023-05-28T16:50:17.000Z</time>
      </trkpt>
      <trkpt lat="46.2063" lon="-1.44386">
        <ele>49.91524</ele>
        <time>2023-05-28T16:50:18.000Z</time>
      </trkpt>
      <trkpt lat="46.20629" lon="-1.44382">
        <ele>49.90038</ele>
        <time>2023-05-28T16:50:19.000Z</time>
      </trkpt>
      <trkpt lat="46.20627" lon="-1.44378">
        <ele>49.88258</ele>
        <time>2023-05-28T16:50:20.000Z</time>
      </trkpt>
      <trkpt lat="46.20625" lon="-1.44374">
        <ele>49.87693</ele>
        <time>2023-05-28T16:50:21.000Z</time>
      </trkpt>
      <trkpt lat="46.20624" lon="-1.4437">
        <ele>49.85785</ele>
        <time>2023-05-28T16:50:22.000Z</time>
      </trkpt>
      <trkpt lat="46.20622" lon="-1.44366">
        <ele>49.80926</ele>
        <time>2023-05-28T16:50:23.000Z</time>
      </trkpt>
      <trkpt lat="46.20621" lon="-1.44362">
        <ele>49.77153</ele>
        <time>2023-05-28T16:50:24.000Z</time>
      </trkpt>
      <trkpt lat="46.2062" lon="-1.44358">
        <ele>49.75566</ele>
        <time>2023-05-28T16:50:25.000Z</time>
      </trkpt>
      <trkpt lat="46.20619" lon="-1.44354">
        <ele>49.7598</ele>
        <time>2023-05-28T16:50:26.000Z</time>
      </trkpt>
      <trkpt lat="46.20618" lon="-1.4435">
        <ele>49.77474</ele>
        <time>2023-05-28T16:50:27.000Z</time>
      </trkpt>
      <trkpt lat="46.20616" lon="-1.44346">
        <ele>49.81286</ele>
        <time>2023-05-28T16:50:28.000Z</time>
      </trkpt>
      <trkpt lat="46.20615" lon="-1.44342">
        <ele>49.85223</ele>
        <time>2023-05-28T16:50:29.000Z</time>
      </trkpt>
      <trkpt lat="46.20614" lon="-1.44338">
        <ele>49.86695</ele>
        <time>2023-05-28T16:50:30.000Z</time>
      </trkpt>
      <trkpt lat="46.20613" lon="-1.44334">
        <ele>49.89806</ele>
        <time>2023-05-28T16:50:31.000Z</time>
      </trkpt>
      <trkpt lat="46.20612" lon="-1.44331">
        <ele>49.92476</ele>
        <time>2023-05-28T16:50:32.000Z</time>
      </trkpt>
      <trkpt lat="46.20611" lon="-1.44327">
        <ele>49.93361</ele>
        <time>2023-05-28T16:50:33.000Z</time>
      </trkpt>
      <trkpt lat="46.2061" lon="-1.44324">
        <ele>49.94669</ele>
        <time>2023-05-28T16:50:34.000Z</time>
      </trkpt>
      <trkpt lat="46.20608" lon="-1.44321">
        <ele>49.94784</ele>
        <time>2023-05-28T16:50:35.000Z</time>
      </trkpt>
      <trkpt lat="46.20607" lon="-1.44317">
        <ele>49.99664</ele>
        <time>2023-05-28T16:50:36.000Z</time>
      </trkpt>
      <trkpt lat="46.20605" lon="-1.44314">
        <ele>50.04038</ele>
        <time>2023-05-28T16:50:37.000Z</time>
      </trkpt>
      <trkpt lat="46.20604" lon="-1.4431">
        <ele>50.07145</ele>
        <time>2023-05-28T16:50:38.000Z</time>
      </trkpt>
      <trkpt lat="46.20602" lon="-1.44306">
        <ele>50.09258</ele>
        <time>2023-05-28T16:50:39.000Z</time>
      </trkpt>
      <trkpt lat="46.20601" lon="-1.44303">
        <ele>50.11716</ele>
        <time>2023-05-28T16:50:40.000Z</time>
      </trkpt>
      <trkpt lat="46.206" lon="-1.44299">
        <ele>50.12751</ele>
        <time>2023-05-28T16:50:41.000Z</time>
      </trkpt>
      <trkpt lat="46.20599" lon="-1.44296">
        <ele>50.13548</ele>
        <time>2023-05-28T16:50:42.000Z</time>
      </trkpt>
      <trkpt lat="46.20597" lon="-1.44292">
        <ele>50.19416</ele>
        <time>2023-05-28T16:50:43.000Z</time>
      </trkpt>
      <trkpt lat="46.20596" lon="-1.44288">
        <ele>50.24852</ele>
        <time>2023-05-28T16:50:44.000Z</time>
      </trkpt>
      <trkpt lat="46.20595" lon="-1.44285">
        <ele>50.3095</ele>
        <time>2023-05-28T16:50:45.000Z</time>
      </trkpt>
      <trkpt lat="46.20593" lon="-1.44281">
        <ele>50.33939</ele>
        <time>2023-05-28T16:50:46.000Z</time>
      </trkpt>
      <trkpt lat="46.20592" lon="-1.44277">
        <ele>50.40113</ele>
        <time>2023-05-28T16:50:47.000Z</time>
      </trkpt>
      <trkpt lat="46.20591" lon="-1.44273">
        <ele>50.45403</ele>
        <time>2023-05-28T16:50:48.000Z</time>
      </trkpt>
      <trkpt lat="46.2059" lon="-1.4427">
        <ele>50.45603</ele>
        <time>2023-05-28T16:50:49.000Z</time>
      </trkpt>
      <trkpt lat="46.20589" lon="-1.44266">
        <ele>50.47329</ele>
        <time>2023-05-28T16:50:50.000Z</time>
      </trkpt>
      <trkpt lat="46.20588" lon="-1.44262">
        <ele>50.466</ele>
        <time>2023-05-28T16:50:51.000Z</time>
      </trkpt>
      <trkpt lat="46.20587" lon="-1.44258">
        <ele>50.48818</ele>
        <time>2023-05-28T16:50:52.000Z</time>
      </trkpt>
      <trkpt lat="46.20585" lon="-1.44253">
        <ele>50.53257</ele>
        <time>2023-05-28T16:50:53.000Z</time>
      </trkpt>
      <trkpt lat="46.20584" lon="-1.44249">
        <ele>50.56425</ele>
        <time>2023-05-28T16:50:54.000Z</time>
      </trkpt>
      <trkpt lat="46.20582" lon="-1.44245">
        <ele>50.59695</ele>
        <time>2023-05-28T16:50:55.000Z</time>
      </trkpt>
      <trkpt lat="46.2058" lon="-1.4424">
        <ele>50.61761</ele>
        <time>2023-05-28T16:50:56.000Z</time>
      </trkpt>
      <trkpt lat="46.20578" lon="-1.44236">
        <ele>50.62819</ele>
        <time>2023-05-28T16:50:57.000Z</time>
      </trkpt>
      <trkpt lat="46.20577" lon="-1.44231">
        <ele>50.63475</ele>
        <time>2023-05-28T16:50:58.000Z</time>
      </trkpt>
      <trkpt lat="46.20575" lon="-1.44227">
        <ele>50.63596</ele>
        <time>2023-05-28T16:50:59.000Z</time>
      </trkpt>
      <trkpt lat="46.20573" lon="-1.44222">
        <ele>50.63201</ele>
        <time>2023-05-28T16:51:00.000Z</time>
      </trkpt>
      <trkpt lat="46.20571" lon="-1.44218">
        <ele>50.64859</ele>
        <time>2023-05-28T16:51:01.000Z</time>
      </trkpt>
      <trkpt lat="46.20569" lon="-1.44213">
        <ele>50.65913</ele>
        <time>2023-05-28T16:51:02.000Z</time>
      </trkpt>
      <trkpt lat="46.20567" lon="-1.44208">
        <ele>50.65314</ele>
        <time>2023-05-28T16:51:03.000Z</time>
      </trkpt>
      <trkpt lat="46.20565" lon="-1.44203">
        <ele>50.64544</ele>
        <time>2023-05-28T16:51:04.000Z</time>
      </trkpt>
      <trkpt lat="46.20563" lon="-1.44198">
        <ele>50.63165</ele>
        <time>2023-05-28T16:51:05.000Z</time>
      </trkpt>
      <trkpt lat="46.20562" lon="-1.44193">
        <ele>50.64168</ele>
        <time>2023-05-28T16:51:06.000Z</time>
      </trkpt>
      <trkpt lat="46.2056" lon="-1.44188">
        <ele>50.62047</ele>
        <time>2023-05-28T16:51:07.000Z</time>
      </trkpt>
      <trkpt lat="46.20558" lon="-1.44183">
        <ele>50.59012</ele>
        <time>2023-05-28T16:51:08.000Z</time>
      </trkpt>
      <trkpt lat="46.20556" lon="-1.44177">
        <ele>50.61939</ele>
        <time>2023-05-28T16:51:09.000Z</time>
      </trkpt>
      <trkpt lat="46.20554" lon="-1.44172">
        <ele>50.65263</ele>
        <time>2023-05-28T16:51:10.000Z</time>
      </trkpt>
      <trkpt lat="46.20552" lon="-1.44166">
        <ele>50.67681</ele>
        <time>2023-05-28T16:51:11.000Z</time>
      </trkpt>
      <trkpt lat="46.2055" lon="-1.4416">
        <ele>50.66563</ele>
        <time>2023-05-28T16:51:12.000Z</time>
      </trkpt>
      <trkpt lat="46.20548" lon="-1.44155">
        <ele>50.61358</ele>
        <time>2023-05-28T16:51:13.000Z</time>
      </trkpt>
      <trkpt lat="46.20545" lon="-1.4415">
        <ele>50.56921</ele>
        <time>2023-05-28T16:51:14.000Z</time>
      </trkpt>
      <trkpt lat="46.20542" lon="-1.44144">
        <ele>50.5354</ele>
        <time>2023-05-28T16:51:15.000Z</time>
      </trkpt>
      <trkpt lat="46.2054" lon="-1.44138">
        <ele>50.49463</ele>
        <time>2023-05-28T16:51:16.000Z</time>
      </trkpt>
      <trkpt lat="46.20537" lon="-1.44133">
        <ele>50.44621</ele>
        <time>2023-05-28T16:51:17.000Z</time>
      </trkpt>
      <trkpt lat="46.20535" lon="-1.44127">
        <ele>50.39651</ele>
        <time>2023-05-28T16:51:18.000Z</time>
      </trkpt>
      <trkpt lat="46.20533" lon="-1.44122">
        <ele>50.33294</ele>
        <time>2023-05-28T16:51:19.000Z</time>
      </trkpt>
      <trkpt lat="46.20531" lon="-1.44116">
        <ele>50.2955</ele>
        <time>2023-05-28T16:51:20.000Z</time>
      </trkpt>
      <trkpt lat="46.20528" lon="-1.4411">
        <ele>50.27152</ele>
        <time>2023-05-28T16:51:21.000Z</time>
      </trkpt>
      <trkpt lat="46.20525" lon="-1.44104">
        <ele>50.25695</ele>
        <time>2023-05-28T16:51:22.000Z</time>
      </trkpt>
      <trkpt lat="46.20523" lon="-1.44097">
        <ele>50.24273</ele>
        <time>2023-05-28T16:51:23.000Z</time>
      </trkpt>
      <trkpt lat="46.2052" lon="-1.4409">
        <ele>50.2216</ele>
        <time>2023-05-28T16:51:24.000Z</time>
      </trkpt>
      <trkpt lat="46.20517" lon="-1.44084">
        <ele>50.17833</ele>
        <time>2023-05-28T16:51:25.000Z</time>
      </trkpt>
      <trkpt lat="46.20514" lon="-1.44078">
        <ele>50.1317</ele>
        <time>2023-05-28T16:51:26.000Z</time>
      </trkpt>
      <trkpt lat="46.20512" lon="-1.44071">
        <ele>50.08315</ele>
        <time>2023-05-28T16:51:27.000Z</time>
      </trkpt>
      <trkpt lat="46.20509" lon="-1.44065">
        <ele>50.02755</ele>
        <time>2023-05-28T16:51:28.000Z</time>
      </trkpt>
      <trkpt lat="46.20507" lon="-1.44059">
        <ele>49.96513</ele>
        <time>2023-05-28T16:51:29.000Z</time>
      </trkpt>
      <trkpt lat="46.20504" lon="-1.44051">
        <ele>49.88853</ele>
        <time>2023-05-28T16:51:30.000Z</time>
      </trkpt>
      <trkpt lat="46.20501" lon="-1.44044">
        <ele>49.84165</ele>
        <time>2023-05-28T16:51:31.000Z</time>
      </trkpt>
      <trkpt lat="46.20499" lon="-1.44037">
        <ele>49.82465</ele>
        <time>2023-05-28T16:51:32.000Z</time>
      </trkpt>
      <trkpt lat="46.20496" lon="-1.44031">
        <ele>49.82764</ele>
        <time>2023-05-28T16:51:33.000Z</time>
      </trkpt>
      <trkpt lat="46.20494" lon="-1.44024">
        <ele>49.82375</ele>
        <time>2023-05-28T16:51:34.000Z</time>
      </trkpt>
      <trkpt lat="46.20491" lon="-1.44017">
        <ele>49.79754</ele>
        <time>2023-05-28T16:51:35.000Z</time>
      </trkpt>
      <trkpt lat="46.20489" lon="-1.4401">
        <ele>49.76382</ele>
        <time>2023-05-28T16:51:36.000Z</time>
      </trkpt>
      <trkpt lat="46.20486" lon="-1.44003">
        <ele>49.74799</ele>
        <time>2023-05-28T16:51:37.000Z</time>
      </trkpt>
      <trkpt lat="46.20483" lon="-1.43996">
        <ele>49.72807</ele>
        <time>2023-05-28T16:51:38.000Z</time>
      </trkpt>
      <trkpt lat="46.2048" lon="-1.43989">
        <ele>49.72797</ele>
        <time>2023-05-28T16:51:39.000Z</time>
      </trkpt>
      <trkpt lat="46.20477" lon="-1.43981">
        <ele>49.70514</ele>
        <time>2023-05-28T16:51:40.000Z</time>
      </trkpt>
      <trkpt lat="46.20473" lon="-1.43974">
        <ele>49.64386</ele>
        <time>2023-05-28T16:51:41.000Z</time>
      </trkpt>
      <trkpt lat="46.2047" lon="-1.43967">
        <ele>49.58243</ele>
        <time>2023-05-28T16:51:42.000Z</time>
      </trkpt>
      <trkpt lat="46.20468" lon="-1.43958">
        <ele>49.52302</ele>
        <time>2023-05-28T16:51:43.000Z</time>
      </trkpt>
      <trkpt lat="46.20464" lon="-1.43951">
        <ele>49.47219</ele>
        <time>2023-05-28T16:51:44.000Z</time>
      </trkpt>
      <trkpt lat="46.20462" lon="-1.43943">
        <ele>49.43647</ele>
        <time>2023-05-28T16:51:45.000Z</time>
      </trkpt>
      <trkpt lat="46.20459" lon="-1.43936">
        <ele>49.40908</ele>
        <time>2023-05-28T16:51:46.000Z</time>
      </trkpt>
      <trkpt lat="46.20456" lon="-1.43928">
        <ele>49.40273</ele>
        <time>2023-05-28T16:51:47.000Z</time>
      </trkpt>
      <trkpt lat="46.20453" lon="-1.4392">
        <ele>49.41407</ele>
        <time>2023-05-28T16:51:48.000Z</time>
      </trkpt>
      <trkpt lat="46.2045" lon="-1.43913">
        <ele>49.40752</ele>
        <time>2023-05-28T16:51:49.000Z</time>
      </trkpt>
      <trkpt lat="46.20448" lon="-1.43905">
        <ele>49.42744</ele>
        <time>2023-05-28T16:51:50.000Z</time>
      </trkpt>
      <trkpt lat="46.20445" lon="-1.43898">
        <ele>49.42544</ele>
        <time>2023-05-28T16:51:51.000Z</time>
      </trkpt>
      <trkpt lat="46.20442" lon="-1.4389">
        <ele>49.40802</ele>
        <time>2023-05-28T16:51:52.000Z</time>
      </trkpt>
      <trkpt lat="46.20438" lon="-1.43883">
        <ele>49.394</ele>
        <time>2023-05-28T16:51:53.000Z</time>
      </trkpt>
      <trkpt lat="46.20435" lon="-1.43876">
        <ele>49.39147</ele>
        <time>2023-05-28T16:51:54.000Z</time>
      </trkpt>
      <trkpt lat="46.20432" lon="-1.43869">
        <ele>49.39049</ele>
        <time>2023-05-28T16:51:55.000Z</time>
      </trkpt>
      <trkpt lat="46.20429" lon="-1.43861">
        <ele>49.39418</ele>
        <time>2023-05-28T16:51:56.000Z</time>
      </trkpt>
      <trkpt lat="46.20427" lon="-1.43854">
        <ele>49.37731</ele>
        <time>2023-05-28T16:51:57.000Z</time>
      </trkpt>
      <trkpt lat="46.20423" lon="-1.43846">
        <ele>49.37951</ele>
        <time>2023-05-28T16:51:58.000Z</time>
      </trkpt>
      <trkpt lat="46.2042" lon="-1.43839">
        <ele>49.3894</ele>
        <time>2023-05-28T16:51:59.000Z</time>
      </trkpt>
      <trkpt lat="46.20416" lon="-1.43831">
        <ele>49.40007</ele>
        <time>2023-05-28T16:52:00.000Z</time>
      </trkpt>
      <trkpt lat="46.20414" lon="-1.43823">
        <ele>49.41276</ele>
        <time>2023-05-28T16:52:01.000Z</time>
      </trkpt>
      <trkpt lat="46.2041" lon="-1.43815">
        <ele>49.40496</ele>
        <time>2023-05-28T16:52:02.000Z</time>
      </trkpt>
      <trkpt lat="46.20407" lon="-1.43807">
        <ele>49.42013</ele>
        <time>2023-05-28T16:52:03.000Z</time>
      </trkpt>
      <trkpt lat="46.20404" lon="-1.438">
        <ele>49.4504</ele>
        <time>2023-05-28T16:52:04.000Z</time>
      </trkpt>
      <trkpt lat="46.20401" lon="-1.43791">
        <ele>49.49123</ele>
        <time>2023-05-28T16:52:05.000Z</time>
      </trkpt>
      <trkpt lat="46.20398" lon="-1.43783">
        <ele>49.54628</ele>
        <time>2023-05-28T16:52:06.000Z</time>
      </trkpt>
      <trkpt lat="46.20395" lon="-1.43775">
        <ele>49.58594</ele>
        <time>2023-05-28T16:52:07.000Z</time>
      </trkpt>
      <trkpt lat="46.20392" lon="-1.43767">
        <ele>49.63427</ele>
        <time>2023-05-28T16:52:08.000Z</time>
      </trkpt>
      <trkpt lat="46.20388" lon="-1.43759">
        <ele>49.69442</ele>
        <time>2023-05-28T16:52:09.000Z</time>
      </trkpt>
      <trkpt lat="46.20385" lon="-1.43751">
        <ele>49.72359</ele>
        <time>2023-05-28T16:52:10.000Z</time>
      </trkpt>
      <trkpt lat="46.20381" lon="-1.43743">
        <ele>49.70239</ele>
        <time>2023-05-28T16:52:11.000Z</time>
      </trkpt>
      <trkpt lat="46.20378" lon="-1.43736">
        <ele>49.67797</ele>
        <time>2023-05-28T16:52:12.000Z</time>
      </trkpt>
      <trkpt lat="46.20375" lon="-1.43728">
        <ele>49.66122</ele>
        <time>2023-05-28T16:52:13.000Z</time>
      </trkpt>
      <trkpt lat="46.20372" lon="-1.4372">
        <ele>49.64325</ele>
        <time>2023-05-28T16:52:14.000Z</time>
      </trkpt>
      <trkpt lat="46.20368" lon="-1.43712">
        <ele>49.6521</ele>
        <time>2023-05-28T16:52:15.000Z</time>
      </trkpt>
      <trkpt lat="46.20365" lon="-1.43705">
        <ele>49.66098</ele>
        <time>2023-05-28T16:52:16.000Z</time>
      </trkpt>
      <trkpt lat="46.20362" lon="-1.43696">
        <ele>49.67533</ele>
        <time>2023-05-28T16:52:17.000Z</time>
      </trkpt>
      <trkpt lat="46.20359" lon="-1.43689">
        <ele>49.65684</ele>
        <time>2023-05-28T16:52:18.000Z</time>
      </trkpt>
      <trkpt lat="46.20356" lon="-1.43681">
        <ele>49.64535</ele>
        <time>2023-05-28T16:52:19.000Z</time>
      </trkpt>
      <trkpt lat="46.20353" lon="-1.43674">
        <ele>49.62856</ele>
        <time>2023-05-28T16:52:20.000Z</time>
      </trkpt>
      <trkpt lat="46.2035" lon="-1.43666">
        <ele>49.64962</ele>
        <time>2023-05-28T16:52:21.000Z</time>
      </trkpt>
      <trkpt lat="46.20346" lon="-1.43657">
        <ele>49.67768</ele>
        <time>2023-05-28T16:52:22.000Z</time>
      </trkpt>
      <trkpt lat="46.20343" lon="-1.43649">
        <ele>49.67788</ele>
        <time>2023-05-28T16:52:23.000Z</time>
      </trkpt>
      <trkpt lat="46.2034" lon="-1.43641">
        <ele>49.67326</ele>
        <time>2023-05-28T16:52:24.000Z</time>
      </trkpt>
      <trkpt lat="46.20337" lon="-1.43633">
        <ele>49.64227</ele>
        <time>2023-05-28T16:52:25.000Z</time>
      </trkpt>
      <trkpt lat="46.20334" lon="-1.43626">
        <ele>49.60662</ele>
        <time>2023-05-28T16:52:26.000Z</time>
      </trkpt>
      <trkpt lat="46.20331" lon="-1.43618">
        <ele>49.56701</ele>
        <time>2023-05-28T16:52:27.000Z</time>
      </trkpt>
      <trkpt lat="46.20329" lon="-1.4361">
        <ele>49.53783</ele>
        <time>2023-05-28T16:52:28.000Z</time>
      </trkpt>
      <trkpt lat="46.20326" lon="-1.43602">
        <ele>49.49263</ele>
        <time>2023-05-28T16:52:29.000Z</time>
      </trkpt>
      <trkpt lat="46.20323" lon="-1.43594">
        <ele>49.4804</ele>
        <time>2023-05-28T16:52:30.000Z</time>
      </trkpt>
      <trkpt lat="46.2032" lon="-1.43586">
        <ele>49.53178</ele>
        <time>2023-05-28T16:52:31.000Z</time>
      </trkpt>
      <trkpt lat="46.20317" lon="-1.43579">
        <ele>49.59422</ele>
        <time>2023-05-28T16:52:32.000Z</time>
      </trkpt>
      <trkpt lat="46.20314" lon="-1.43572">
        <ele>49.64061</ele>
        <time>2023-05-28T16:52:33.000Z</time>
      </trkpt>
      <trkpt lat="46.20311" lon="-1.43564">
        <ele>49.6441</ele>
        <time>2023-05-28T16:52:34.000Z</time>
      </trkpt>
      <trkpt lat="46.20309" lon="-1.43556">
        <ele>49.63609</ele>
        <time>2023-05-28T16:52:35.000Z</time>
      </trkpt>
      <trkpt lat="46.20305" lon="-1.43547">
        <ele>49.66323</ele>
        <time>2023-05-28T16:52:36.000Z</time>
      </trkpt>
      <trkpt lat="46.20302" lon="-1.4354">
        <ele>49.68438</ele>
        <time>2023-05-28T16:52:37.000Z</time>
      </trkpt>
      <trkpt lat="46.20298" lon="-1.43532">
        <ele>49.72451</ele>
        <time>2023-05-28T16:52:38.000Z</time>
      </trkpt>
      <trkpt lat="46.20295" lon="-1.43524">
        <ele>49.73988</ele>
        <time>2023-05-28T16:52:39.000Z</time>
      </trkpt>
      <trkpt lat="46.20292" lon="-1.43516">
        <ele>49.77116</ele>
        <time>2023-05-28T16:52:40.000Z</time>
      </trkpt>
      <trkpt lat="46.20289" lon="-1.43508">
        <ele>49.78883</ele>
        <time>2023-05-28T16:52:41.000Z</time>
      </trkpt>
      <trkpt lat="46.20286" lon="-1.435">
        <ele>49.80947</ele>
        <time>2023-05-28T16:52:42.000Z</time>
      </trkpt>
      <trkpt lat="46.20283" lon="-1.43493">
        <ele>49.82104</ele>
        <time>2023-05-28T16:52:43.000Z</time>
      </trkpt>
      <trkpt lat="46.2028" lon="-1.43485">
        <ele>49.82618</ele>
        <time>2023-05-28T16:52:44.000Z</time>
      </trkpt>
      <trkpt lat="46.20277" lon="-1.43478">
        <ele>49.84379</ele>
        <time>2023-05-28T16:52:45.000Z</time>
      </trkpt>
      <trkpt lat="46.20275" lon="-1.43471">
        <ele>49.81377</ele>
        <time>2023-05-28T16:52:46.000Z</time>
      </trkpt>
      <trkpt lat="46.20271" lon="-1.43463">
        <ele>49.80082</ele>
        <time>2023-05-28T16:52:47.000Z</time>
      </trkpt>
      <trkpt lat="46.20268" lon="-1.43456">
        <ele>49.78512</ele>
        <time>2023-05-28T16:52:48.000Z</time>
      </trkpt>
      <trkpt lat="46.20265" lon="-1.43449">
        <ele>49.78462</ele>
        <time>2023-05-28T16:52:49.000Z</time>
      </trkpt>
      <trkpt lat="46.20262" lon="-1.4344">
        <ele>49.75807</ele>
        <time>2023-05-28T16:52:50.000Z</time>
      </trkpt>
      <trkpt lat="46.20259" lon="-1.43433">
        <ele>49.72039</ele>
        <time>2023-05-28T16:52:51.000Z</time>
      </trkpt>
      <trkpt lat="46.20256" lon="-1.43425">
        <ele>49.67225</ele>
        <time>2023-05-28T16:52:52.000Z</time>
      </trkpt>
      <trkpt lat="46.20253" lon="-1.43418">
        <ele>49.64112</ele>
        <time>2023-05-28T16:52:53.000Z</time>
      </trkpt>
      <trkpt lat="46.2025" lon="-1.4341">
        <ele>49.63235</ele>
        <time>2023-05-28T16:52:54.000Z</time>
      </trkpt>
      <trkpt lat="46.20247" lon="-1.43402">
        <ele>49.61545</ele>
        <time>2023-05-28T16:52:55.000Z</time>
      </trkpt>
      <trkpt lat="46.20244" lon="-1.43394">
        <ele>49.577</ele>
        <time>2023-05-28T16:52:56.000Z</time>
      </trkpt>
      <trkpt lat="46.20242" lon="-1.43387">
        <ele>49.53809</ele>
        <time>2023-05-28T16:52:57.000Z</time>
      </trkpt>
      <trkpt lat="46.20238" lon="-1.43378">
        <ele>49.50908</ele>
        <time>2023-05-28T16:52:58.000Z</time>
      </trkpt>
      <trkpt lat="46.20235" lon="-1.4337">
        <ele>49.48273</ele>
        <time>2023-05-28T16:52:59.000Z</time>
      </trkpt>
      <trkpt lat="46.20231" lon="-1.43362">
        <ele>49.45637</ele>
        <time>2023-05-28T16:53:00.000Z</time>
      </trkpt>
      <trkpt lat="46.20227" lon="-1.43354">
        <ele>49.4199</ele>
        <time>2023-05-28T16:53:01.000Z</time>
      </trkpt>
      <trkpt lat="46.20224" lon="-1.43345">
        <ele>49.44007</ele>
        <time>2023-05-28T16:53:02.000Z</time>
      </trkpt>
      <trkpt lat="46.20221" lon="-1.43337">
        <ele>49.46371</ele>
        <time>2023-05-28T16:53:03.000Z</time>
      </trkpt>
      <trkpt lat="46.20218" lon="-1.4333">
        <ele>49.49792</ele>
        <time>2023-05-28T16:53:04.000Z</time>
      </trkpt>
      <trkpt lat="46.20215" lon="-1.43322">
        <ele>49.5093</ele>
        <time>2023-05-28T16:53:05.000Z</time>
      </trkpt>
      <trkpt lat="46.20213" lon="-1.43313">
        <ele>49.56334</ele>
        <time>2023-05-28T16:53:06.000Z</time>
      </trkpt>
      <trkpt lat="46.2021" lon="-1.43306">
        <ele>49.60291</ele>
        <time>2023-05-28T16:53:07.000Z</time>
      </trkpt>
      <trkpt lat="46.20206" lon="-1.43298">
        <ele>49.65105</ele>
        <time>2023-05-28T16:53:08.000Z</time>
      </trkpt>
      <trkpt lat="46.20203" lon="-1.4329">
        <ele>49.69447</ele>
        <time>2023-05-28T16:53:09.000Z</time>
      </trkpt>
      <trkpt lat="46.202" lon="-1.43282">
        <ele>49.75113</ele>
        <time>2023-05-28T16:53:10.000Z</time>
      </trkpt>
      <trkpt lat="46.20197" lon="-1.43274">
        <ele>49.8026</ele>
        <time>2023-05-28T16:53:11.000Z</time>
      </trkpt>
      <trkpt lat="46.20194" lon="-1.43266">
        <ele>49.82897</ele>
        <time>2023-05-28T16:53:12.000Z</time>
      </trkpt>
      <trkpt lat="46.20191" lon="-1.43258">
        <ele>49.84792</ele>
        <time>2023-05-28T16:53:13.000Z</time>
      </trkpt>
      <trkpt lat="46.20188" lon="-1.43251">
        <ele>49.87617</ele>
        <time>2023-05-28T16:53:14.000Z</time>
      </trkpt>
      <trkpt lat="46.20186" lon="-1.43243">
        <ele>49.91592</ele>
        <time>2023-05-28T16:53:15.000Z</time>
      </trkpt>
      <trkpt lat="46.20182" lon="-1.43235">
        <ele>49.9483</ele>
        <time>2023-05-28T16:53:16.000Z</time>
      </trkpt>
      <trkpt lat="46.20178" lon="-1.43227">
        <ele>49.96448</ele>
        <time>2023-05-28T16:53:17.000Z</time>
      </trkpt>
      <trkpt lat="46.20175" lon="-1.43219">
        <ele>49.96662</ele>
        <time>2023-05-28T16:53:18.000Z</time>
      </trkpt>
      <trkpt lat="46.20172" lon="-1.43211">
        <ele>49.9713</ele>
        <time>2023-05-28T16:53:19.000Z</time>
      </trkpt>
      <trkpt lat="46.20169" lon="-1.43205">
        <ele>49.97537</ele>
        <time>2023-05-28T16:53:20.000Z</time>
      </trkpt>
      <trkpt lat="46.20166" lon="-1.43198">
        <ele>49.98794</ele>
        <time>2023-05-28T16:53:21.000Z</time>
      </trkpt>
      <trkpt lat="46.20164" lon="-1.4319">
        <ele>49.96397</ele>
        <time>2023-05-28T16:53:22.000Z</time>
      </trkpt>
      <trkpt lat="46.2016" lon="-1.43183">
        <ele>49.94084</ele>
        <time>2023-05-28T16:53:23.000Z</time>
      </trkpt>
      <trkpt lat="46.20158" lon="-1.43176">
        <ele>49.90447</ele>
        <time>2023-05-28T16:53:24.000Z</time>
      </trkpt>
      <trkpt lat="46.20155" lon="-1.43169">
        <ele>49.89611</ele>
        <time>2023-05-28T16:53:25.000Z</time>
      </trkpt>
      <trkpt lat="46.20152" lon="-1.43162">
        <ele>49.88047</ele>
        <time>2023-05-28T16:53:26.000Z</time>
      </trkpt>
      <trkpt lat="46.20149" lon="-1.43154">
        <ele>49.87737</ele>
        <time>2023-05-28T16:53:27.000Z</time>
      </trkpt>
      <trkpt lat="46.20146" lon="-1.43147">
        <ele>49.84201</ele>
        <time>2023-05-28T16:53:28.000Z</time>
      </trkpt>
      <trkpt lat="46.20143" lon="-1.43139">
        <ele>49.78796</ele>
        <time>2023-05-28T16:53:29.000Z</time>
      </trkpt>
      <trkpt lat="46.2014" lon="-1.43132">
        <ele>49.70581</ele>
        <time>2023-05-28T16:53:30.000Z</time>
      </trkpt>
      <trkpt lat="46.20138" lon="-1.43125">
        <ele>49.64668</ele>
        <time>2023-05-28T16:53:31.000Z</time>
      </trkpt>
      <trkpt lat="46.20135" lon="-1.43117">
        <ele>49.61546</ele>
        <time>2023-05-28T16:53:32.000Z</time>
      </trkpt>
      <trkpt lat="46.20131" lon="-1.4311">
        <ele>49.58149</ele>
        <time>2023-05-28T16:53:33.000Z</time>
      </trkpt>
      <trkpt lat="46.20129" lon="-1.43102">
        <ele>49.53452</ele>
        <time>2023-05-28T16:53:34.000Z</time>
      </trkpt>
      <trkpt lat="46.20126" lon="-1.43095">
        <ele>49.49176</ele>
        <time>2023-05-28T16:53:35.000Z</time>
      </trkpt>
      <trkpt lat="46.20123" lon="-1.43088">
        <ele>49.47155</ele>
        <time>2023-05-28T16:53:36.000Z</time>
      </trkpt>
      <trkpt lat="46.20121" lon="-1.4308">
        <ele>49.4689</ele>
        <time>2023-05-28T16:53:37.000Z</time>
      </trkpt>
      <trkpt lat="46.20118" lon="-1.43073">
        <ele>49.48833</ele>
        <time>2023-05-28T16:53:38.000Z</time>
      </trkpt>
      <trkpt lat="46.20115" lon="-1.43065">
        <ele>49.52387</ele>
        <time>2023-05-28T16:53:39.000Z</time>
      </trkpt>
      <trkpt lat="46.20113" lon="-1.43057">
        <ele>49.53192</ele>
        <time>2023-05-28T16:53:40.000Z</time>
      </trkpt>
      <trkpt lat="46.2011" lon="-1.43049">
        <ele>49.54368</ele>
        <time>2023-05-28T16:53:41.000Z</time>
      </trkpt>
      <trkpt lat="46.20107" lon="-1.43042">
        <ele>49.53051</ele>
        <time>2023-05-28T16:53:42.000Z</time>
      </trkpt>
      <trkpt lat="46.20104" lon="-1.43035">
        <ele>49.50908</ele>
        <time>2023-05-28T16:53:43.000Z</time>
      </trkpt>
      <trkpt lat="46.20101" lon="-1.43028">
        <ele>49.50029</ele>
        <time>2023-05-28T16:53:44.000Z</time>
      </trkpt>
      <trkpt lat="46.20098" lon="-1.43022">
        <ele>49.47394</ele>
        <time>2023-05-28T16:53:45.000Z</time>
      </trkpt>
      <trkpt lat="46.20095" lon="-1.43015">
        <ele>49.43131</ele>
        <time>2023-05-28T16:53:46.000Z</time>
      </trkpt>
      <trkpt lat="46.20092" lon="-1.43009">
        <ele>49.38086</ele>
        <time>2023-05-28T16:53:47.000Z</time>
      </trkpt>
      <trkpt lat="46.20089" lon="-1.43002">
        <ele>49.37116</ele>
        <time>2023-05-28T16:53:48.000Z</time>
      </trkpt>
      <trkpt lat="46.20086" lon="-1.42995">
        <ele>49.36255</ele>
        <time>2023-05-28T16:53:49.000Z</time>
      </trkpt>
      <trkpt lat="46.20083" lon="-1.42989">
        <ele>49.3838</ele>
        <time>2023-05-28T16:53:50.000Z</time>
      </trkpt>
      <trkpt lat="46.20081" lon="-1.42983">
        <ele>49.39264</ele>
        <time>2023-05-28T16:53:51.000Z</time>
      </trkpt>
      <trkpt lat="46.20079" lon="-1.42976">
        <ele>49.4017</ele>
        <time>2023-05-28T16:53:52.000Z</time>
      </trkpt>
      <trkpt lat="46.20076" lon="-1.4297">
        <ele>49.39634</ele>
        <time>2023-05-28T16:53:53.000Z</time>
      </trkpt>
      <trkpt lat="46.20074" lon="-1.42963">
        <ele>49.41225</ele>
        <time>2023-05-28T16:53:54.000Z</time>
      </trkpt>
      <trkpt lat="46.20071" lon="-1.42956">
        <ele>49.42793</ele>
        <time>2023-05-28T16:53:55.000Z</time>
      </trkpt>
      <trkpt lat="46.20068" lon="-1.4295">
        <ele>49.44038</ele>
        <time>2023-05-28T16:53:56.000Z</time>
      </trkpt>
      <trkpt lat="46.20065" lon="-1.42944">
        <ele>49.46019</ele>
        <time>2023-05-28T16:53:57.000Z</time>
      </trkpt>
      <trkpt lat="46.20062" lon="-1.42936">
        <ele>49.46107</ele>
        <time>2023-05-28T16:53:58.000Z</time>
      </trkpt>
      <trkpt lat="46.2006" lon="-1.42929">
        <ele>49.46466</ele>
        <time>2023-05-28T16:53:59.000Z</time>
      </trkpt>
      <trkpt lat="46.20057" lon="-1.42922">
        <ele>49.46839</ele>
        <time>2023-05-28T16:54:00.000Z</time>
      </trkpt>
      <trkpt lat="46.20055" lon="-1.42915">
        <ele>49.47746</ele>
        <time>2023-05-28T16:54:01.000Z</time>
      </trkpt>
      <trkpt lat="46.20052" lon="-1.42909">
        <ele>49.49767</ele>
        <time>2023-05-28T16:54:02.000Z</time>
      </trkpt>
      <trkpt lat="46.2005" lon="-1.42902">
        <ele>49.49493</ele>
        <time>2023-05-28T16:54:03.000Z</time>
      </trkpt>
      <trkpt lat="46.20047" lon="-1.42896">
        <ele>49.47744</ele>
        <time>2023-05-28T16:54:04.000Z</time>
      </trkpt>
      <trkpt lat="46.20044" lon="-1.4289">
        <ele>49.4893</ele>
        <time>2023-05-28T16:54:05.000Z</time>
      </trkpt>
      <trkpt lat="46.20042" lon="-1.42884">
        <ele>49.50922</ele>
        <time>2023-05-28T16:54:06.000Z</time>
      </trkpt>
      <trkpt lat="46.2004" lon="-1.42879">
        <ele>49.53854</ele>
        <time>2023-05-28T16:54:07.000Z</time>
      </trkpt>
      <trkpt lat="46.20038" lon="-1.42873">
        <ele>49.53255</ele>
        <time>2023-05-28T16:54:08.000Z</time>
      </trkpt>
      <trkpt lat="46.20036" lon="-1.42868">
        <ele>49.51064</ele>
        <time>2023-05-28T16:54:09.000Z</time>
      </trkpt>
      <trkpt lat="46.20034" lon="-1.42863">
        <ele>49.47858</ele>
        <time>2023-05-28T16:54:10.000Z</time>
      </trkpt>
      <trkpt lat="46.20033" lon="-1.42858">
        <ele>49.42302</ele>
        <time>2023-05-28T16:54:11.000Z</time>
      </trkpt>
      <trkpt lat="46.20031" lon="-1.42853">
        <ele>49.37565</ele>
        <time>2023-05-28T16:54:12.000Z</time>
      </trkpt>
      <trkpt lat="46.20028" lon="-1.42848">
        <ele>49.36139</ele>
        <time>2023-05-28T16:54:13.000Z</time>
      </trkpt>
      <trkpt lat="46.20026" lon="-1.42843">
        <ele>49.34789</ele>
        <time>2023-05-28T16:54:14.000Z</time>
      </trkpt>
      <trkpt lat="46.20024" lon="-1.42838">
        <ele>49.31961</ele>
        <time>2023-05-28T16:54:15.000Z</time>
      </trkpt>
      <trkpt lat="46.20022" lon="-1.42834">
        <ele>49.26348</ele>
        <time>2023-05-28T16:54:16.000Z</time>
      </trkpt>
      <trkpt lat="46.2002" lon="-1.42829">
        <ele>49.20084</ele>
        <time>2023-05-28T16:54:17.000Z</time>
      </trkpt>
      <trkpt lat="46.20018" lon="-1.42824">
        <ele>49.13874</ele>
        <time>2023-05-28T16:54:18.000Z</time>
      </trkpt>
      <trkpt lat="46.20015" lon="-1.42819">
        <ele>49.04649</ele>
        <time>2023-05-28T16:54:19.000Z</time>
      </trkpt>
      <trkpt lat="46.20013" lon="-1.42815">
        <ele>48.96078</ele>
        <time>2023-05-28T16:54:20.000Z</time>
      </trkpt>
      <trkpt lat="46.20011" lon="-1.4281">
        <ele>48.85828</ele>
        <time>2023-05-28T16:54:21.000Z</time>
      </trkpt>
      <trkpt lat="46.20009" lon="-1.42806">
        <ele>48.75047</ele>
        <time>2023-05-28T16:54:22.000Z</time>
      </trkpt>
      <trkpt lat="46.20007" lon="-1.42801">
        <ele>48.68257</ele>
        <time>2023-05-28T16:54:23.000Z</time>
      </trkpt>
      <trkpt lat="46.20005" lon="-1.42796">
        <ele>48.63527</ele>
        <time>2023-05-28T16:54:24.000Z</time>
      </trkpt>
      <trkpt lat="46.20003" lon="-1.42792">
        <ele>48.56842</ele>
        <time>2023-05-28T16:54:25.000Z</time>
      </trkpt>
      <trkpt lat="46.20001" lon="-1.42787">
        <ele>48.51233</ele>
        <time>2023-05-28T16:54:26.000Z</time>
      </trkpt>
      <trkpt lat="46.19999" lon="-1.42783">
        <ele>48.44793</ele>
        <time>2023-05-28T16:54:27.000Z</time>
      </trkpt>
      <trkpt lat="46.19998" lon="-1.42779">
        <ele>48.4168</ele>
        <time>2023-05-28T16:54:28.000Z</time>
      </trkpt>
      <trkpt lat="46.19996" lon="-1.42775">
        <ele>48.41238</ele>
        <time>2023-05-28T16:54:29.000Z</time>
      </trkpt>
      <trkpt lat="46.19995" lon="-1.42771">
        <ele>48.40289</ele>
        <time>2023-05-28T16:54:30.000Z</time>
      </trkpt>
      <trkpt lat="46.19993" lon="-1.42767">
        <ele>48.43082</ele>
        <time>2023-05-28T16:54:31.000Z</time>
      </trkpt>
      <trkpt lat="46.19992" lon="-1.42764">
        <ele>48.49263</ele>
        <time>2023-05-28T16:54:32.000Z</time>
      </trkpt>
      <trkpt lat="46.19991" lon="-1.42761">
        <ele>48.49816</ele>
        <time>2023-05-28T16:54:33.000Z</time>
      </trkpt>
      <trkpt lat="46.1999" lon="-1.42758">
        <ele>48.49612</ele>
        <time>2023-05-28T16:54:34.000Z</time>
      </trkpt>
      <trkpt lat="46.19988" lon="-1.42755">
        <ele>48.5078</ele>
        <time>2023-05-28T16:54:35.000Z</time>
      </trkpt>
      <trkpt lat="46.19987" lon="-1.42752">
        <ele>48.54655</ele>
        <time>2023-05-28T16:54:36.000Z</time>
      </trkpt>
      <trkpt lat="46.19986" lon="-1.4275">
        <ele>48.60709</ele>
        <time>2023-05-28T16:54:37.000Z</time>
      </trkpt>
      <trkpt lat="46.19985" lon="-1.42748">
        <ele>48.66562</ele>
        <time>2023-05-28T16:54:38.000Z</time>
      </trkpt>
      <trkpt lat="46.19983" lon="-1.42745">
        <ele>48.74111</ele>
        <time>2023-05-28T16:54:39.000Z</time>
      </trkpt>
      <trkpt lat="46.19981" lon="-1.42743">
        <ele>48.81028</ele>
        <time>2023-05-28T16:54:40.000Z</time>
      </trkpt>
      <trkpt lat="46.19979" lon="-1.42741">
        <ele>48.88145</ele>
        <time>2023-05-28T16:54:41.000Z</time>
      </trkpt>
      <trkpt lat="46.19977" lon="-1.4274">
        <ele>48.97107</ele>
        <time>2023-05-28T16:54:42.000Z</time>
      </trkpt>
      <trkpt lat="46.19974" lon="-1.42739">
        <ele>49.02914</ele>
        <time>2023-05-28T16:54:43.000Z</time>
      </trkpt>
      <trkpt lat="46.1997" lon="-1.42739">
        <ele>49.07938</ele>
        <time>2023-05-28T16:54:44.000Z</time>
      </trkpt>
      <trkpt lat="46.19967" lon="-1.42739">
        <ele>49.11118</ele>
        <time>2023-05-28T16:54:45.000Z</time>
      </trkpt>
      <trkpt lat="46.19964" lon="-1.42739">
        <ele>49.15048</ele>
        <time>2023-05-28T16:54:46.000Z</time>
      </trkpt>
      <trkpt lat="46.1996" lon="-1.42739">
        <ele>49.18859</ele>
        <time>2023-05-28T16:54:47.000Z</time>
      </trkpt>
      <trkpt lat="46.19957" lon="-1.42739">
        <ele>49.22078</ele>
        <time>2023-05-28T16:54:48.000Z</time>
      </trkpt>
      <trkpt lat="46.19953" lon="-1.4274">
        <ele>49.26281</ele>
        <time>2023-05-28T16:54:49.000Z</time>
      </trkpt>
      <trkpt lat="46.1995" lon="-1.42741">
        <ele>49.32061</ele>
        <time>2023-05-28T16:54:50.000Z</time>
      </trkpt>
      <trkpt lat="46.19946" lon="-1.42743">
        <ele>49.36498</ele>
        <time>2023-05-28T16:54:51.000Z</time>
      </trkpt>
      <trkpt lat="46.19942" lon="-1.42745">
        <ele>49.35294</ele>
        <time>2023-05-28T16:54:52.000Z</time>
      </trkpt>
      <trkpt lat="46.19938" lon="-1.42748">
        <ele>49.37911</ele>
        <time>2023-05-28T16:54:53.000Z</time>
      </trkpt>
      <trkpt lat="46.19934" lon="-1.4275">
        <ele>49.4108</ele>
        <time>2023-05-28T16:54:54.000Z</time>
      </trkpt>
      <trkpt lat="46.1993" lon="-1.42751">
        <ele>49.43255</ele>
        <time>2023-05-28T16:54:55.000Z</time>
      </trkpt>
      <trkpt lat="46.19925" lon="-1.42752">
        <ele>49.43279</ele>
        <time>2023-05-28T16:54:56.000Z</time>
      </trkpt>
      <trkpt lat="46.19921" lon="-1.42752">
        <ele>49.43516</ele>
        <time>2023-05-28T16:54:57.000Z</time>
      </trkpt>
      <trkpt lat="46.19916" lon="-1.42753">
        <ele>49.4744</ele>
        <time>2023-05-28T16:54:58.000Z</time>
      </trkpt>
      <trkpt lat="46.19912" lon="-1.42753">
        <ele>49.51484</ele>
        <time>2023-05-28T16:54:59.000Z</time>
      </trkpt>
      <trkpt lat="46.19908" lon="-1.42752">
        <ele>49.56525</ele>
        <time>2023-05-28T16:55:00.000Z</time>
      </trkpt>
      <trkpt lat="46.19903" lon="-1.42751">
        <ele>49.64028</ele>
        <time>2023-05-28T16:55:01.000Z</time>
      </trkpt>
      <trkpt lat="46.199" lon="-1.42749">
        <ele>49.69458</ele>
        <time>2023-05-28T16:55:02.000Z</time>
      </trkpt>
      <trkpt lat="46.19897" lon="-1.42746">
        <ele>49.78476</ele>
        <time>2023-05-28T16:55:03.000Z</time>
      </trkpt>
      <trkpt lat="46.19895" lon="-1.42743">
        <ele>49.84964</ele>
        <time>2023-05-28T16:55:04.000Z</time>
      </trkpt>
      <trkpt lat="46.19893" lon="-1.42739">
        <ele>49.91877</ele>
        <time>2023-05-28T16:55:05.000Z</time>
      </trkpt>
      <trkpt lat="46.19891" lon="-1.42736">
        <ele>49.95128</ele>
        <time>2023-05-28T16:55:06.000Z</time>
      </trkpt>
      <trkpt lat="46.19889" lon="-1.42733">
        <ele>49.98822</ele>
        <time>2023-05-28T16:55:07.000Z</time>
      </trkpt>
      <trkpt lat="46.19886" lon="-1.42729">
        <ele>49.99059</ele>
        <time>2023-05-28T16:55:08.000Z</time>
      </trkpt>
      <trkpt lat="46.19884" lon="-1.42726">
        <ele>50.00358</ele>
        <time>2023-05-28T16:55:09.000Z</time>
      </trkpt>
      <trkpt lat="46.19882" lon="-1.42722">
        <ele>49.98768</ele>
        <time>2023-05-28T16:55:10.000Z</time>
      </trkpt>
      <trkpt lat="46.19881" lon="-1.42718">
        <ele>49.96598</ele>
        <time>2023-05-28T16:55:11.000Z</time>
      </trkpt>
      <trkpt lat="46.19879" lon="-1.42714">
        <ele>49.94651</ele>
        <time>2023-05-28T16:55:12.000Z</time>
      </trkpt>
      <trkpt lat="46.19878" lon="-1.4271">
        <ele>49.90806</ele>
        <time>2023-05-28T16:55:13.000Z</time>
      </trkpt>
      <trkpt lat="46.19876" lon="-1.42705">
        <ele>49.86807</ele>
        <time>2023-05-28T16:55:14.000Z</time>
      </trkpt>
      <trkpt lat="46.19874" lon="-1.427">
        <ele>49.83517</ele>
        <time>2023-05-28T16:55:15.000Z</time>
      </trkpt>
      <trkpt lat="46.19872" lon="-1.42695">
        <ele>49.82069</ele>
        <time>2023-05-28T16:55:16.000Z</time>
      </trkpt>
      <trkpt lat="46.19872" lon="-1.4269">
        <ele>49.79134</ele>
        <time>2023-05-28T16:55:17.000Z</time>
      </trkpt>
      <trkpt lat="46.19871" lon="-1.42684">
        <ele>49.741</ele>
        <time>2023-05-28T16:55:18.000Z</time>
      </trkpt>
      <trkpt lat="46.19871" lon="-1.42678">
        <ele>49.68237</ele>
        <time>2023-05-28T16:55:19.000Z</time>
      </trkpt>
      <trkpt lat="46.1987" lon="-1.42673">
        <ele>49.62215</ele>
        <time>2023-05-28T16:55:20.000Z</time>
      </trkpt>
      <trkpt lat="46.19869" lon="-1.42667">
        <ele>49.54753</ele>
        <time>2023-05-28T16:55:21.000Z</time>
      </trkpt>
      <trkpt lat="46.19868" lon="-1.42661">
        <ele>49.47607</ele>
        <time>2023-05-28T16:55:22.000Z</time>
      </trkpt>
      <trkpt lat="46.19867" lon="-1.42656">
        <ele>49.40308</ele>
        <time>2023-05-28T16:55:23.000Z</time>
      </trkpt>
      <trkpt lat="46.19866" lon="-1.42651">
        <ele>49.3531</ele>
        <time>2023-05-28T16:55:24.000Z</time>
      </trkpt>
      <trkpt lat="46.19864" lon="-1.42646">
        <ele>49.32086</ele>
        <time>2023-05-28T16:55:25.000Z</time>
      </trkpt>
      <trkpt lat="46.19863" lon="-1.42642">
        <ele>49.29988</ele>
        <time>2023-05-28T16:55:26.000Z</time>
      </trkpt>
      <trkpt lat="46.19861" lon="-1.42638">
        <ele>49.28371</ele>
        <time>2023-05-28T16:55:27.000Z</time>
      </trkpt>
      <trkpt lat="46.19859" lon="-1.42635">
        <ele>49.27558</ele>
        <time>2023-05-28T16:55:28.000Z</time>
      </trkpt>
      <trkpt lat="46.19857" lon="-1.42632">
        <ele>49.25518</ele>
        <time>2023-05-28T16:55:29.000Z</time>
      </trkpt>
      <trkpt lat="46.19854" lon="-1.4263">
        <ele>49.25885</ele>
        <time>2023-05-28T16:55:30.000Z</time>
      </trkpt>
      <trkpt lat="46.19852" lon="-1.42628">
        <ele>49.26962</ele>
        <time>2023-05-28T16:55:31.000Z</time>
      </trkpt>
      <trkpt lat="46.19849" lon="-1.42626">
        <ele>49.28135</ele>
        <time>2023-05-28T16:55:32.000Z</time>
      </trkpt>
      <trkpt lat="46.19847" lon="-1.42624">
        <ele>49.31785</ele>
        <time>2023-05-28T16:55:33.000Z</time>
      </trkpt>
      <trkpt lat="46.19845" lon="-1.42623">
        <ele>49.34007</ele>
        <time>2023-05-28T16:55:34.000Z</time>
      </trkpt>
      <trkpt lat="46.19844" lon="-1.42621">
        <ele>49.37022</ele>
        <time>2023-05-28T16:55:35.000Z</time>
      </trkpt>
      <trkpt lat="46.19842" lon="-1.4262">
        <ele>49.39971</ele>
        <time>2023-05-28T16:55:36.000Z</time>
      </trkpt>
      <trkpt lat="46.1984" lon="-1.4262">
        <ele>49.40566</ele>
        <time>2023-05-28T16:55:37.000Z</time>
      </trkpt>
      <trkpt lat="46.19838" lon="-1.42624">
        <ele>49.42529</ele>
        <time>2023-05-28T16:55:39.000Z</time>
      </trkpt>
      <trkpt lat="46.19837" lon="-1.42627">
        <ele>49.45604</ele>
        <time>2023-05-28T16:55:41.000Z</time>
      </trkpt>
      <trkpt lat="46.19833" lon="-1.42628">
        <ele>49.51456</ele>
        <time>2023-05-28T16:55:43.000Z</time>
      </trkpt>
      <trkpt lat="46.19831" lon="-1.42627">
        <ele>49.57439</ele>
        <time>2023-05-28T16:55:44.000Z</time>
      </trkpt>
      <trkpt lat="46.19829" lon="-1.42625">
        <ele>49.61197</ele>
        <time>2023-05-28T16:55:45.000Z</time>
      </trkpt>
      <trkpt lat="46.19828" lon="-1.42622">
        <ele>49.6513</ele>
        <time>2023-05-28T16:55:46.000Z</time>
      </trkpt>
      <trkpt lat="46.19828" lon="-1.42619">
        <ele>49.68962</ele>
        <time>2023-05-28T16:55:47.000Z</time>
      </trkpt>
      <trkpt lat="46.1983" lon="-1.42615">
        <ele>49.72279</ele>
        <time>2023-05-28T16:55:49.000Z</time>
      </trkpt>
      <trkpt lat="46.19832" lon="-1.42612">
        <ele>49.74931</ele>
        <time>2023-05-28T16:55:51.000Z</time>
      </trkpt>
      <trkpt lat="46.19833" lon="-1.42609">
        <ele>49.7762</ele>
        <time>2023-05-28T16:55:54.000Z</time>
      </trkpt>
      <trkpt lat="46.19833" lon="-1.42605">
        <ele>49.75809</ele>
        <time>2023-05-28T16:55:57.000Z</time>
      </trkpt>
      <trkpt lat="46.19832" lon="-1.42601">
        <ele>49.78382</ele>
        <time>2023-05-28T16:55:59.000Z</time>
      </trkpt>
      <trkpt lat="46.19829" lon="-1.42599">
        <ele>49.80829</ele>
        <time>2023-05-28T16:56:01.000Z</time>
      </trkpt>
      <trkpt lat="46.19827" lon="-1.42597">
        <ele>49.81897</ele>
        <time>2023-05-28T16:56:02.000Z</time>
      </trkpt>
      <trkpt lat="46.19825" lon="-1.42596">
        <ele>49.83429</ele>
        <time>2023-05-28T16:56:03.000Z</time>
      </trkpt>
      <trkpt lat="46.19823" lon="-1.42594">
        <ele>49.86612</ele>
        <time>2023-05-28T16:56:04.000Z</time>
      </trkpt>
      <trkpt lat="46.19821" lon="-1.42593">
        <ele>49.88703</ele>
        <time>2023-05-28T16:56:05.000Z</time>
      </trkpt>
      <trkpt lat="46.1982" lon="-1.42591">
        <ele>49.89524</ele>
        <time>2023-05-28T16:56:06.000Z</time>
      </trkpt>
      <trkpt lat="46.19818" lon="-1.42588">
        <ele>49.90173</ele>
        <time>2023-05-28T16:56:08.000Z</time>
      </trkpt>
      <trkpt lat="46.19815" lon="-1.42585">
        <ele>49.95271</ele>
        <time>2023-05-28T16:56:10.000Z</time>
      </trkpt>
      <trkpt lat="46.19814" lon="-1.42584">
        <ele>49.97446</ele>
        <time>2023-05-28T16:56:11.000Z</time>
      </trkpt>
      <trkpt lat="46.19812" lon="-1.42582">
        <ele>49.98539</ele>
        <time>2023-05-28T16:56:12.000Z</time>
      </trkpt>
      <trkpt lat="46.19811" lon="-1.4258">
        <ele>49.95961</ele>
        <time>2023-05-28T16:56:13.000Z</time>
      </trkpt>
      <trkpt lat="46.19809" lon="-1.42576">
        <ele>49.92152</ele>
        <time>2023-05-28T16:56:15.000Z</time>
      </trkpt>
      <trkpt lat="46.19806" lon="-1.42574">
        <ele>49.90293</ele>
        <time>2023-05-28T16:56:17.000Z</time>
      </trkpt>
      <trkpt lat="46.19804" lon="-1.42572">
        <ele>49.87024</ele>
        <time>2023-05-28T16:56:18.000Z</time>
      </trkpt>
      <trkpt lat="46.19803" lon="-1.4257">
        <ele>49.8549</ele>
        <time>2023-05-28T16:56:19.000Z</time>
      </trkpt>
      <trkpt lat="46.19801" lon="-1.42569">
        <ele>49.83161</ele>
        <time>2023-05-28T16:56:20.000Z</time>
      </trkpt>
      <trkpt lat="46.198" lon="-1.42566">
        <ele>49.83427</ele>
        <time>2023-05-28T16:56:21.000Z</time>
      </trkpt>
      <trkpt lat="46.19798" lon="-1.42564">
        <ele>49.8327</ele>
        <time>2023-05-28T16:56:22.000Z</time>
      </trkpt>
      <trkpt lat="46.19797" lon="-1.42562">
        <ele>49.85606</ele>
        <time>2023-05-28T16:56:23.000Z</time>
      </trkpt>
      <trkpt lat="46.19796" lon="-1.4256">
        <ele>49.81665</ele>
        <time>2023-05-28T16:56:24.000Z</time>
      </trkpt>
      <trkpt lat="46.19794" lon="-1.42558">
        <ele>49.77583</ele>
        <time>2023-05-28T16:56:25.000Z</time>
      </trkpt>
      <trkpt lat="46.19793" lon="-1.42556">
        <ele>49.74219</ele>
        <time>2023-05-28T16:56:26.000Z</time>
      </trkpt>
      <trkpt lat="46.19791" lon="-1.42554">
        <ele>49.71474</ele>
        <time>2023-05-28T16:56:27.000Z</time>
      </trkpt>
      <trkpt lat="46.19789" lon="-1.42551">
        <ele>49.6993</ele>
        <time>2023-05-28T16:56:28.000Z</time>
      </trkpt>
      <trkpt lat="46.19788" lon="-1.42549">
        <ele>49.69534</ele>
        <time>2023-05-28T16:56:29.000Z</time>
      </trkpt>
      <trkpt lat="46.19786" lon="-1.42546">
        <ele>49.69587</ele>
        <time>2023-05-28T16:56:30.000Z</time>
      </trkpt>
      <trkpt lat="46.19784" lon="-1.42544">
        <ele>49.70203</ele>
        <time>2023-05-28T16:56:31.000Z</time>
      </trkpt>
      <trkpt lat="46.19782" lon="-1.42542">
        <ele>49.66805</ele>
        <time>2023-05-28T16:56:32.000Z</time>
      </trkpt>
      <trkpt lat="46.19781" lon="-1.42539">
        <ele>49.63667</ele>
        <time>2023-05-28T16:56:33.000Z</time>
      </trkpt>
      <trkpt lat="46.19779" lon="-1.42537">
        <ele>49.60806</ele>
        <time>2023-05-28T16:56:34.000Z</time>
      </trkpt>
      <trkpt lat="46.19777" lon="-1.42535">
        <ele>49.58484</ele>
        <time>2023-05-28T16:56:35.000Z</time>
      </trkpt>
      <trkpt lat="46.19775" lon="-1.42533">
        <ele>49.54837</ele>
        <time>2023-05-28T16:56:36.000Z</time>
      </trkpt>
      <trkpt lat="46.19773" lon="-1.42531">
        <ele>49.51625</ele>
        <time>2023-05-28T16:56:37.000Z</time>
      </trkpt>
      <trkpt lat="46.19771" lon="-1.42529">
        <ele>49.46818</ele>
        <time>2023-05-28T16:56:38.000Z</time>
      </trkpt>
      <trkpt lat="46.19769" lon="-1.42526">
        <ele>49.40709</ele>
        <time>2023-05-28T16:56:39.000Z</time>
      </trkpt>
      <trkpt lat="46.19767" lon="-1.42524">
        <ele>49.39037</ele>
        <time>2023-05-28T16:56:40.000Z</time>
      </trkpt>
      <trkpt lat="46.19765" lon="-1.42521">
        <ele>49.36126</ele>
        <time>2023-05-28T16:56:41.000Z</time>
      </trkpt>
      <trkpt lat="46.19764" lon="-1.42518">
        <ele>49.33018</ele>
        <time>2023-05-28T16:56:42.000Z</time>
      </trkpt>
      <trkpt lat="46.19762" lon="-1.42515">
        <ele>49.29423</ele>
        <time>2023-05-28T16:56:43.000Z</time>
      </trkpt>
      <trkpt lat="46.19761" lon="-1.42512">
        <ele>49.26661</ele>
        <time>2023-05-28T16:56:44.000Z</time>
      </trkpt>
      <trkpt lat="46.19759" lon="-1.4251">
        <ele>49.22292</ele>
        <time>2023-05-28T16:56:45.000Z</time>
      </trkpt>
      <trkpt lat="46.19757" lon="-1.42507">
        <ele>49.18381</ele>
        <time>2023-05-28T16:56:46.000Z</time>
      </trkpt>
      <trkpt lat="46.19755" lon="-1.42505">
        <ele>49.14798</ele>
        <time>2023-05-28T16:56:47.000Z</time>
      </trkpt>
      <trkpt lat="46.19753" lon="-1.42503">
        <ele>49.09075</ele>
        <time>2023-05-28T16:56:48.000Z</time>
      </trkpt>
      <trkpt lat="46.19751" lon="-1.425">
        <ele>49.05482</ele>
        <time>2023-05-28T16:56:49.000Z</time>
      </trkpt>
      <trkpt lat="46.19749" lon="-1.42497">
        <ele>49.01543</ele>
        <time>2023-05-28T16:56:50.000Z</time>
      </trkpt>
      <trkpt lat="46.19747" lon="-1.42494">
        <ele>48.95734</ele>
        <time>2023-05-28T16:56:51.000Z</time>
      </trkpt>
      <trkpt lat="46.19745" lon="-1.42492">
        <ele>48.92498</ele>
        <time>2023-05-28T16:56:52.000Z</time>
      </trkpt>
      <trkpt lat="46.19743" lon="-1.42489">
        <ele>48.90379</ele>
        <time>2023-05-28T16:56:53.000Z</time>
      </trkpt>
      <trkpt lat="46.19742" lon="-1.42485">
        <ele>48.87548</ele>
        <time>2023-05-28T16:56:54.000Z</time>
      </trkpt>
      <trkpt lat="46.19741" lon="-1.42482">
        <ele>48.86573</ele>
        <time>2023-05-28T16:56:55.000Z</time>
      </trkpt>
      <trkpt lat="46.19742" lon="-1.42477">
        <ele>48.86624</ele>
        <time>2023-05-28T16:56:56.000Z</time>
      </trkpt>
      <trkpt lat="46.19745" lon="-1.42472">
        <ele>48.85064</ele>
        <time>2023-05-28T16:56:57.000Z</time>
      </trkpt>
      <trkpt lat="46.19747" lon="-1.42468">
        <ele>48.86316</ele>
        <time>2023-05-28T16:56:58.000Z</time>
      </trkpt>
      <trkpt lat="46.1975" lon="-1.42465">
        <ele>48.86839</ele>
        <time>2023-05-28T16:56:59.000Z</time>
      </trkpt>
      <trkpt lat="46.19752" lon="-1.4246">
        <ele>48.83631</ele>
        <time>2023-05-28T16:57:00.000Z</time>
      </trkpt>
      <trkpt lat="46.19755" lon="-1.42456">
        <ele>48.82343</ele>
        <time>2023-05-28T16:57:01.000Z</time>
      </trkpt>
      <trkpt lat="46.19757" lon="-1.42452">
        <ele>48.78816</ele>
        <time>2023-05-28T16:57:02.000Z</time>
      </trkpt>
      <trkpt lat="46.19758" lon="-1.42448">
        <ele>48.80282</ele>
        <time>2023-05-28T16:57:03.000Z</time>
      </trkpt>
      <trkpt lat="46.19759" lon="-1.42444">
        <ele>48.82175</ele>
        <time>2023-05-28T16:57:04.000Z</time>
      </trkpt>
      <trkpt lat="46.19761" lon="-1.42441">
        <ele>48.85578</ele>
        <time>2023-05-28T16:57:05.000Z</time>
      </trkpt>
      <trkpt lat="46.19763" lon="-1.42437">
        <ele>48.88336</ele>
        <time>2023-05-28T16:57:06.000Z</time>
      </trkpt>
      <trkpt lat="46.19764" lon="-1.42433">
        <ele>48.88126</ele>
        <time>2023-05-28T16:57:07.000Z</time>
      </trkpt>
      <trkpt lat="46.19765" lon="-1.42429">
        <ele>48.88158</ele>
        <time>2023-05-28T16:57:08.000Z</time>
      </trkpt>
      <trkpt lat="46.19766" lon="-1.42424">
        <ele>48.8819</ele>
        <time>2023-05-28T16:57:09.000Z</time>
      </trkpt>
      <trkpt lat="46.19765" lon="-1.4242">
        <ele>48.90713</ele>
        <time>2023-05-28T16:57:10.000Z</time>
      </trkpt>
      <trkpt lat="46.19762" lon="-1.42416">
        <ele>48.92406</ele>
        <time>2023-05-28T16:57:11.000Z</time>
      </trkpt>
      <trkpt lat="46.19759" lon="-1.42413">
        <ele>48.93616</ele>
        <time>2023-05-28T16:57:12.000Z</time>
      </trkpt>
      <trkpt lat="46.19756" lon="-1.42411">
        <ele>48.95979</ele>
        <time>2023-05-28T16:57:13.000Z</time>
      </trkpt>
      <trkpt lat="46.19753" lon="-1.42409">
        <ele>49.01283</ele>
        <time>2023-05-28T16:57:14.000Z</time>
      </trkpt>
      <trkpt lat="46.1975" lon="-1.42406">
        <ele>49.06303</ele>
        <time>2023-05-28T16:57:15.000Z</time>
      </trkpt>
      <trkpt lat="46.19747" lon="-1.42403">
        <ele>49.12381</ele>
        <time>2023-05-28T16:57:16.000Z</time>
      </trkpt>
      <trkpt lat="46.19744" lon="-1.424">
        <ele>49.21273</ele>
        <time>2023-05-28T16:57:17.000Z</time>
      </trkpt>
      <trkpt lat="46.19741" lon="-1.42398">
        <ele>49.26443</ele>
        <time>2023-05-28T16:57:18.000Z</time>
      </trkpt>
      <trkpt lat="46.19739" lon="-1.42396">
        <ele>49.31651</ele>
        <time>2023-05-28T16:57:19.000Z</time>
      </trkpt>
      <trkpt lat="46.19737" lon="-1.42393">
        <ele>49.35377</ele>
        <time>2023-05-28T16:57:20.000Z</time>
      </trkpt>
      <trkpt lat="46.19734" lon="-1.42391">
        <ele>49.37851</ele>
        <time>2023-05-28T16:57:21.000Z</time>
      </trkpt>
      <trkpt lat="46.19732" lon="-1.42388">
        <ele>49.43685</ele>
        <time>2023-05-28T16:57:22.000Z</time>
      </trkpt>
      <trkpt lat="46.1973" lon="-1.42385">
        <ele>49.42568</ele>
        <time>2023-05-28T16:57:23.000Z</time>
      </trkpt>
      <trkpt lat="46.19729" lon="-1.42382">
        <ele>49.40642</ele>
        <time>2023-05-28T16:57:24.000Z</time>
      </trkpt>
      <trkpt lat="46.19727" lon="-1.42379">
        <ele>49.41182</ele>
        <time>2023-05-28T16:57:25.000Z</time>
      </trkpt>
      <trkpt lat="46.19724" lon="-1.42377">
        <ele>49.4168</ele>
        <time>2023-05-28T16:57:26.000Z</time>
      </trkpt>
      <trkpt lat="46.19721" lon="-1.42374">
        <ele>49.4773</ele>
        <time>2023-05-28T16:57:27.000Z</time>
      </trkpt>
      <trkpt lat="46.19719" lon="-1.42372">
        <ele>49.52121</ele>
        <time>2023-05-28T16:57:28.000Z</time>
      </trkpt>
      <trkpt lat="46.19716" lon="-1.42369">
        <ele>49.54424</ele>
        <time>2023-05-28T16:57:29.000Z</time>
      </trkpt>
      <trkpt lat="46.19714" lon="-1.42367">
        <ele>49.5535</ele>
        <time>2023-05-28T16:57:30.000Z</time>
      </trkpt>
      <trkpt lat="46.19711" lon="-1.42365">
        <ele>49.57288</ele>
        <time>2023-05-28T16:57:31.000Z</time>
      </trkpt>
      <trkpt lat="46.19709" lon="-1.42363">
        <ele>49.59267</ele>
        <time>2023-05-28T16:57:32.000Z</time>
      </trkpt>
      <trkpt lat="46.19707" lon="-1.4236">
        <ele>49.60223</ele>
        <time>2023-05-28T16:57:33.000Z</time>
      </trkpt>
      <trkpt lat="46.19704" lon="-1.42357">
        <ele>49.59557</ele>
        <time>2023-05-28T16:57:34.000Z</time>
      </trkpt>
      <trkpt lat="46.19702" lon="-1.42354">
        <ele>49.54252</ele>
        <time>2023-05-28T16:57:35.000Z</time>
      </trkpt>
      <trkpt lat="46.197" lon="-1.42351">
        <ele>49.50282</ele>
        <time>2023-05-28T16:57:36.000Z</time>
      </trkpt>
      <trkpt lat="46.19698" lon="-1.42349">
        <ele>49.44358</ele>
        <time>2023-05-28T16:57:37.000Z</time>
      </trkpt>
      <trkpt lat="46.19696" lon="-1.42346">
        <ele>49.44012</ele>
        <time>2023-05-28T16:57:38.000Z</time>
      </trkpt>
      <trkpt lat="46.19694" lon="-1.42343">
        <ele>49.44291</ele>
        <time>2023-05-28T16:57:39.000Z</time>
      </trkpt>
      <trkpt lat="46.19692" lon="-1.4234">
        <ele>49.48544</ele>
        <time>2023-05-28T16:57:40.000Z</time>
      </trkpt>
      <trkpt lat="46.1969" lon="-1.42337">
        <ele>49.53368</ele>
        <time>2023-05-28T16:57:41.000Z</time>
      </trkpt>
      <trkpt lat="46.19688" lon="-1.42333">
        <ele>49.53708</ele>
        <time>2023-05-28T16:57:42.000Z</time>
      </trkpt>
      <trkpt lat="46.19687" lon="-1.42329">
        <ele>49.60349</ele>
        <time>2023-05-28T16:57:43.000Z</time>
      </trkpt>
      <trkpt lat="46.19685" lon="-1.42326">
        <ele>49.66661</ele>
        <time>2023-05-28T16:57:44.000Z</time>
      </trkpt>
      <trkpt lat="46.19684" lon="-1.42323">
        <ele>49.68949</ele>
        <time>2023-05-28T16:57:45.000Z</time>
      </trkpt>
      <trkpt lat="46.19683" lon="-1.4232">
        <ele>49.74932</ele>
        <time>2023-05-28T16:57:46.000Z</time>
      </trkpt>
      <trkpt lat="46.19682" lon="-1.42317">
        <ele>49.78614</ele>
        <time>2023-05-28T16:57:47.000Z</time>
      </trkpt>
      <trkpt lat="46.19681" lon="-1.42313">
        <ele>49.82183</ele>
        <time>2023-05-28T16:57:48.000Z</time>
      </trkpt>
      <trkpt lat="46.19679" lon="-1.4231">
        <ele>49.88107</ele>
        <time>2023-05-28T16:57:49.000Z</time>
      </trkpt>
      <trkpt lat="46.19678" lon="-1.42306">
        <ele>49.95787</ele>
        <time>2023-05-28T16:57:50.000Z</time>
      </trkpt>
      <trkpt lat="46.19676" lon="-1.42303">
        <ele>50.03314</ele>
        <time>2023-05-28T16:57:51.000Z</time>
      </trkpt>
      <trkpt lat="46.19674" lon="-1.423">
        <ele>50.10546</ele>
        <time>2023-05-28T16:57:52.000Z</time>
      </trkpt>
      <trkpt lat="46.19672" lon="-1.42297">
        <ele>50.15589</ele>
        <time>2023-05-28T16:57:53.000Z</time>
      </trkpt>
      <trkpt lat="46.1967" lon="-1.42294">
        <ele>50.2209</ele>
        <time>2023-05-28T16:57:54.000Z</time>
      </trkpt>
      <trkpt lat="46.19669" lon="-1.4229">
        <ele>50.33092</ele>
        <time>2023-05-28T16:57:55.000Z</time>
      </trkpt>
      <trkpt lat="46.19667" lon="-1.42287">
        <ele>50.4299</ele>
        <time>2023-05-28T16:57:56.000Z</time>
      </trkpt>
      <trkpt lat="46.19666" lon="-1.42283">
        <ele>50.5467</ele>
        <time>2023-05-28T16:57:57.000Z</time>
      </trkpt>
      <trkpt lat="46.19665" lon="-1.42279">
        <ele>50.61248</ele>
        <time>2023-05-28T16:57:58.000Z</time>
      </trkpt>
      <trkpt lat="46.19663" lon="-1.42276">
        <ele>50.66844</ele>
        <time>2023-05-28T16:57:59.000Z</time>
      </trkpt>
      <trkpt lat="46.19661" lon="-1.42272">
        <ele>50.70569</ele>
        <time>2023-05-28T16:58:00.000Z</time>
      </trkpt>
      <trkpt lat="46.1966" lon="-1.42269">
        <ele>50.72363</ele>
        <time>2023-05-28T16:58:01.000Z</time>
      </trkpt>
      <trkpt lat="46.19658" lon="-1.42265">
        <ele>50.77139</ele>
        <time>2023-05-28T16:58:02.000Z</time>
      </trkpt>
      <trkpt lat="46.19657" lon="-1.42262">
        <ele>50.78452</ele>
        <time>2023-05-28T16:58:03.000Z</time>
      </trkpt>
      <trkpt lat="46.19655" lon="-1.42258">
        <ele>50.8208</ele>
        <time>2023-05-28T16:58:04.000Z</time>
      </trkpt>
      <trkpt lat="46.19654" lon="-1.42255">
        <ele>50.88978</ele>
        <time>2023-05-28T16:58:05.000Z</time>
      </trkpt>
      <trkpt lat="46.19653" lon="-1.42251">
        <ele>50.92589</ele>
        <time>2023-05-28T16:58:06.000Z</time>
      </trkpt>
      <trkpt lat="46.19651" lon="-1.42248">
        <ele>50.93931</ele>
        <time>2023-05-28T16:58:07.000Z</time>
      </trkpt>
      <trkpt lat="46.19651" lon="-1.42244">
        <ele>50.93913</ele>
        <time>2023-05-28T16:58:08.000Z</time>
      </trkpt>
      <trkpt lat="46.1965" lon="-1.42241">
        <ele>50.93018</ele>
        <time>2023-05-28T16:58:09.000Z</time>
      </trkpt>
      <trkpt lat="46.1965" lon="-1.42238">
        <ele>50.88008</ele>
        <time>2023-05-28T16:58:10.000Z</time>
      </trkpt>
      <trkpt lat="46.1965" lon="-1.42233">
        <ele>50.84434</ele>
        <time>2023-05-28T16:58:12.000Z</time>
      </trkpt>
      <trkpt lat="46.1965" lon="-1.42229">
        <ele>50.78547</ele>
        <time>2023-05-28T16:58:13.000Z</time>
      </trkpt>
      <trkpt lat="46.1965" lon="-1.42225">
        <ele>50.73663</ele>
        <time>2023-05-28T16:58:14.000Z</time>
      </trkpt>
      <trkpt lat="46.1965" lon="-1.42221">
        <ele>50.67536</ele>
        <time>2023-05-28T16:58:15.000Z</time>
      </trkpt>
      <trkpt lat="46.1965" lon="-1.42217">
        <ele>50.60398</ele>
        <time>2023-05-28T16:58:16.000Z</time>
      </trkpt>
      <trkpt lat="46.1965" lon="-1.42213">
        <ele>50.49387</ele>
        <time>2023-05-28T16:58:17.000Z</time>
      </trkpt>
      <trkpt lat="46.1965" lon="-1.42209">
        <ele>50.38148</ele>
        <time>2023-05-28T16:58:18.000Z</time>
      </trkpt>
      <trkpt lat="46.19649" lon="-1.42205">
        <ele>50.27599</ele>
        <time>2023-05-28T16:58:19.000Z</time>
      </trkpt>
      <trkpt lat="46.19649" lon="-1.42201">
        <ele>50.1907</ele>
        <time>2023-05-28T16:58:20.000Z</time>
      </trkpt>
      <trkpt lat="46.19649" lon="-1.42197">
        <ele>50.07289</ele>
        <time>2023-05-28T16:58:21.000Z</time>
      </trkpt>
      <trkpt lat="46.19649" lon="-1.42193">
        <ele>49.97147</ele>
        <time>2023-05-28T16:58:22.000Z</time>
      </trkpt>
      <trkpt lat="46.19648" lon="-1.4219">
        <ele>49.85806</ele>
        <time>2023-05-28T16:58:23.000Z</time>
      </trkpt>
      <trkpt lat="46.19648" lon="-1.42186">
        <ele>49.90295</ele>
        <time>2023-05-28T16:58:24.000Z</time>
      </trkpt>
      <trkpt lat="46.19647" lon="-1.42183">
        <ele>49.95246</ele>
        <time>2023-05-28T16:58:25.000Z</time>
      </trkpt>
      <trkpt lat="46.19647" lon="-1.42179">
        <ele>49.98106</ele>
        <time>2023-05-28T16:58:26.000Z</time>
      </trkpt>
      <trkpt lat="46.19647" lon="-1.42177">
        <ele>49.96349</ele>
        <time>2023-05-28T16:58:27.000Z</time>
      </trkpt>
      <trkpt lat="46.19647" lon="-1.42174">
        <ele>49.97165</ele>
        <time>2023-05-28T16:58:28.000Z</time>
      </trkpt>
      <trkpt lat="46.19646" lon="-1.4217">
        <ele>49.99471</ele>
        <time>2023-05-28T16:58:29.000Z</time>
      </trkpt>
      <trkpt lat="46.19646" lon="-1.42167">
        <ele>50.01923</ele>
        <time>2023-05-28T16:58:30.000Z</time>
      </trkpt>
      <trkpt lat="46.19646" lon="-1.42164">
        <ele>50.06202</ele>
        <time>2023-05-28T16:58:31.000Z</time>
      </trkpt>
      <trkpt lat="46.19645" lon="-1.42161">
        <ele>50.10757</ele>
        <time>2023-05-28T16:58:32.000Z</time>
      </trkpt>
      <trkpt lat="46.19645" lon="-1.42158">
        <ele>50.17583</ele>
        <time>2023-05-28T16:58:33.000Z</time>
      </trkpt>
      <trkpt lat="46.19645" lon="-1.42155">
        <ele>50.25513</ele>
        <time>2023-05-28T16:58:34.000Z</time>
      </trkpt>
      <trkpt lat="46.19645" lon="-1.42152">
        <ele>50.33347</ele>
        <time>2023-05-28T16:58:35.000Z</time>
      </trkpt>
      <trkpt lat="46.19645" lon="-1.42148">
        <ele>50.43964</ele>
        <time>2023-05-28T16:58:36.000Z</time>
      </trkpt>
      <trkpt lat="46.19645" lon="-1.42145">
        <ele>50.59081</ele>
        <time>2023-05-28T16:58:37.000Z</time>
      </trkpt>
      <trkpt lat="46.19645" lon="-1.42141">
        <ele>50.78367</ele>
        <time>2023-05-28T16:58:38.000Z</time>
      </trkpt>
      <trkpt lat="46.19645" lon="-1.42137">
        <ele>51.02936</ele>
        <time>2023-05-28T16:58:39.000Z</time>
      </trkpt>
      <trkpt lat="46.19644" lon="-1.42133">
        <ele>51.26628</ele>
        <time>2023-05-28T16:58:40.000Z</time>
      </trkpt>
      <trkpt lat="46.19644" lon="-1.4213">
        <ele>51.51863</ele>
        <time>2023-05-28T16:58:41.000Z</time>
      </trkpt>
      <trkpt lat="46.19643" lon="-1.42126">
        <ele>51.76805</ele>
        <time>2023-05-28T16:58:42.000Z</time>
      </trkpt>
      <trkpt lat="46.19643" lon="-1.42122">
        <ele>52.03758</ele>
        <time>2023-05-28T16:58:43.000Z</time>
      </trkpt>
      <trkpt lat="46.19642" lon="-1.42118">
        <ele>52.11565</ele>
        <time>2023-05-28T16:58:44.000Z</time>
      </trkpt>
      <trkpt lat="46.19642" lon="-1.42115">
        <ele>52.19298</ele>
        <time>2023-05-28T16:58:45.000Z</time>
      </trkpt>
      <trkpt lat="46.19642" lon="-1.42111">
        <ele>52.27764</ele>
        <time>2023-05-28T16:58:46.000Z</time>
      </trkpt>
      <trkpt lat="46.19641" lon="-1.42107">
        <ele>52.41064</ele>
        <time>2023-05-28T16:58:47.000Z</time>
      </trkpt>
      <trkpt lat="46.19641" lon="-1.42104">
        <ele>52.54803</ele>
        <time>2023-05-28T16:58:48.000Z</time>
      </trkpt>
      <trkpt lat="46.1964" lon="-1.42101">
        <ele>52.69128</ele>
        <time>2023-05-28T16:58:49.000Z</time>
      </trkpt>
      <trkpt lat="46.1964" lon="-1.42097">
        <ele>52.83695</ele>
        <time>2023-05-28T16:58:50.000Z</time>
      </trkpt>
      <trkpt lat="46.19639" lon="-1.42094">
        <ele>52.93319</ele>
        <time>2023-05-28T16:58:51.000Z</time>
      </trkpt>
      <trkpt lat="46.19638" lon="-1.42091">
        <ele>53.02076</ele>
        <time>2023-05-28T16:58:52.000Z</time>
      </trkpt>
      <trkpt lat="46.19637" lon="-1.42087">
        <ele>53.08507</ele>
        <time>2023-05-28T16:58:53.000Z</time>
      </trkpt>
      <trkpt lat="46.19636" lon="-1.42083">
        <ele>53.15557</ele>
        <time>2023-05-28T16:58:54.000Z</time>
      </trkpt>
      <trkpt lat="46.19636" lon="-1.4208">
        <ele>53.24158</ele>
        <time>2023-05-28T16:58:55.000Z</time>
      </trkpt>
      <trkpt lat="46.19635" lon="-1.42076">
        <ele>53.31791</ele>
        <time>2023-05-28T16:58:56.000Z</time>
      </trkpt>
      <trkpt lat="46.19634" lon="-1.42072">
        <ele>53.38794</ele>
        <time>2023-05-28T16:58:57.000Z</time>
      </trkpt>
      <trkpt lat="46.19632" lon="-1.42069">
        <ele>53.3999</ele>
        <time>2023-05-28T16:58:58.000Z</time>
      </trkpt>
      <trkpt lat="46.19631" lon="-1.42066">
        <ele>53.37635</ele>
        <time>2023-05-28T16:58:59.000Z</time>
      </trkpt>
      <trkpt lat="46.1963" lon="-1.42062">
        <ele>53.36242</ele>
        <time>2023-05-28T16:59:00.000Z</time>
      </trkpt>
      <trkpt lat="46.1963" lon="-1.42059">
        <ele>53.34326</ele>
        <time>2023-05-28T16:59:01.000Z</time>
      </trkpt>
      <trkpt lat="46.19629" lon="-1.42055">
        <ele>53.32026</ele>
        <time>2023-05-28T16:59:02.000Z</time>
      </trkpt>
      <trkpt lat="46.19628" lon="-1.42051">
        <ele>53.29993</ele>
        <time>2023-05-28T16:59:03.000Z</time>
      </trkpt>
      <trkpt lat="46.19627" lon="-1.42048">
        <ele>53.34088</ele>
        <time>2023-05-28T16:59:04.000Z</time>
      </trkpt>
      <trkpt lat="46.19627" lon="-1.42044">
        <ele>53.35751</ele>
        <time>2023-05-28T16:59:05.000Z</time>
      </trkpt>
      <trkpt lat="46.19626" lon="-1.4204">
        <ele>53.36808</ele>
        <time>2023-05-28T16:59:06.000Z</time>
      </trkpt>
      <trkpt lat="46.19625" lon="-1.42037">
        <ele>53.36314</ele>
        <time>2023-05-28T16:59:07.000Z</time>
      </trkpt>
      <trkpt lat="46.19624" lon="-1.42033">
        <ele>53.35483</ele>
        <time>2023-05-28T16:59:08.000Z</time>
      </trkpt>
      <trkpt lat="46.19624" lon="-1.42029">
        <ele>53.3557</ele>
        <time>2023-05-28T16:59:09.000Z</time>
      </trkpt>
      <trkpt lat="46.19623" lon="-1.42025">
        <ele>53.35262</ele>
        <time>2023-05-28T16:59:10.000Z</time>
      </trkpt>
      <trkpt lat="46.19622" lon="-1.42021">
        <ele>53.40383</ele>
        <time>2023-05-28T16:59:11.000Z</time>
      </trkpt>
      <trkpt lat="46.19622" lon="-1.42017">
        <ele>53.47418</ele>
        <time>2023-05-28T16:59:12.000Z</time>
      </trkpt>
      <trkpt lat="46.19621" lon="-1.42013">
        <ele>53.55264</ele>
        <time>2023-05-28T16:59:13.000Z</time>
      </trkpt>
      <trkpt lat="46.1962" lon="-1.42009">
        <ele>53.62279</ele>
        <time>2023-05-28T16:59:14.000Z</time>
      </trkpt>
      <trkpt lat="46.19619" lon="-1.42005">
        <ele>53.63896</ele>
        <time>2023-05-28T16:59:15.000Z</time>
      </trkpt>
      <trkpt lat="46.19618" lon="-1.42002">
        <ele>53.63312</ele>
        <time>2023-05-28T16:59:16.000Z</time>
      </trkpt>
      <trkpt lat="46.19617" lon="-1.41999">
        <ele>53.62586</ele>
        <time>2023-05-28T16:59:17.000Z</time>
      </trkpt>
      <trkpt lat="46.19616" lon="-1.41996">
        <ele>53.62519</ele>
        <time>2023-05-28T16:59:18.000Z</time>
      </trkpt>
      <trkpt lat="46.19615" lon="-1.41992">
        <ele>53.64355</ele>
        <time>2023-05-28T16:59:19.000Z</time>
      </trkpt>
      <trkpt lat="46.19613" lon="-1.41988">
        <ele>53.64232</ele>
        <time>2023-05-28T16:59:20.000Z</time>
      </trkpt>
      <trkpt lat="46.19611" lon="-1.41986">
        <ele>53.66253</ele>
        <time>2023-05-28T16:59:21.000Z</time>
      </trkpt>
      <trkpt lat="46.19608" lon="-1.41985">
        <ele>53.67124</ele>
        <time>2023-05-28T16:59:22.000Z</time>
      </trkpt>
      <trkpt lat="46.19606" lon="-1.41986">
        <ele>53.66344</ele>
        <time>2023-05-28T16:59:23.000Z</time>
      </trkpt>
      <trkpt lat="46.19603" lon="-1.41989">
        <ele>53.63887</ele>
        <time>2023-05-28T16:59:24.000Z</time>
      </trkpt>
      <trkpt lat="46.19601" lon="-1.41991">
        <ele>53.62249</ele>
        <time>2023-05-28T16:59:25.000Z</time>
      </trkpt>
      <trkpt lat="46.19598" lon="-1.41994">
        <ele>53.60142</ele>
        <time>2023-05-28T16:59:26.000Z</time>
      </trkpt>
      <trkpt lat="46.19595" lon="-1.41996">
        <ele>53.6002</ele>
        <time>2023-05-28T16:59:27.000Z</time>
      </trkpt>
      <trkpt lat="46.19592" lon="-1.41999">
        <ele>53.56914</ele>
        <time>2023-05-28T16:59:28.000Z</time>
      </trkpt>
      <trkpt lat="46.1959" lon="-1.42001">
        <ele>53.54471</ele>
        <time>2023-05-28T16:59:29.000Z</time>
      </trkpt>
      <trkpt lat="46.19587" lon="-1.42004">
        <ele>53.52291</ele>
        <time>2023-05-28T16:59:30.000Z</time>
      </trkpt>
      <trkpt lat="46.19585" lon="-1.42007">
        <ele>53.4824</ele>
        <time>2023-05-28T16:59:31.000Z</time>
      </trkpt>
      <trkpt lat="46.19583" lon="-1.4201">
        <ele>53.4211</ele>
        <time>2023-05-28T16:59:32.000Z</time>
      </trkpt>
      <trkpt lat="46.1958" lon="-1.42012">
        <ele>53.38586</ele>
        <time>2023-05-28T16:59:33.000Z</time>
      </trkpt>
      <trkpt lat="46.19578" lon="-1.42015">
        <ele>53.37828</ele>
        <time>2023-05-28T16:59:34.000Z</time>
      </trkpt>
      <trkpt lat="46.19576" lon="-1.42018">
        <ele>53.41094</ele>
        <time>2023-05-28T16:59:35.000Z</time>
      </trkpt>
      <trkpt lat="46.19574" lon="-1.42021">
        <ele>53.44836</ele>
        <time>2023-05-28T16:59:36.000Z</time>
      </trkpt>
      <trkpt lat="46.19572" lon="-1.42024">
        <ele>53.45375</ele>
        <time>2023-05-28T16:59:37.000Z</time>
      </trkpt>
      <trkpt lat="46.1957" lon="-1.42027">
        <ele>53.47859</ele>
        <time>2023-05-28T16:59:38.000Z</time>
      </trkpt>
      <trkpt lat="46.19568" lon="-1.4203">
        <ele>53.49228</ele>
        <time>2023-05-28T16:59:39.000Z</time>
      </trkpt>
      <trkpt lat="46.19567" lon="-1.42033">
        <ele>53.5193</ele>
        <time>2023-05-28T16:59:40.000Z</time>
      </trkpt>
      <trkpt lat="46.19565" lon="-1.42036">
        <ele>53.53051</ele>
        <time>2023-05-28T16:59:41.000Z</time>
      </trkpt>
      <trkpt lat="46.19564" lon="-1.42038">
        <ele>53.52543</ele>
        <time>2023-05-28T16:59:42.000Z</time>
      </trkpt>
      <trkpt lat="46.19562" lon="-1.42041">
        <ele>53.53082</ele>
        <time>2023-05-28T16:59:43.000Z</time>
      </trkpt>
      <trkpt lat="46.1956" lon="-1.42044">
        <ele>53.536</ele>
        <time>2023-05-28T16:59:44.000Z</time>
      </trkpt>
      <trkpt lat="46.19558" lon="-1.42046">
        <ele>53.55416</ele>
        <time>2023-05-28T16:59:45.000Z</time>
      </trkpt>
      <trkpt lat="46.19555" lon="-1.42049">
        <ele>53.5996</ele>
        <time>2023-05-28T16:59:46.000Z</time>
      </trkpt>
      <trkpt lat="46.19553" lon="-1.42052">
        <ele>53.65705</ele>
        <time>2023-05-28T16:59:47.000Z</time>
      </trkpt>
      <trkpt lat="46.19551" lon="-1.42055">
        <ele>53.71096</ele>
        <time>2023-05-28T16:59:48.000Z</time>
      </trkpt>
      <trkpt lat="46.19548" lon="-1.42057">
        <ele>53.75122</ele>
        <time>2023-05-28T16:59:49.000Z</time>
      </trkpt>
      <trkpt lat="46.19546" lon="-1.42058">
        <ele>53.79648</ele>
        <time>2023-05-28T16:59:50.000Z</time>
      </trkpt>
      <trkpt lat="46.19543" lon="-1.42058">
        <ele>53.85266</ele>
        <time>2023-05-28T16:59:51.000Z</time>
      </trkpt>
      <trkpt lat="46.1954" lon="-1.42056">
        <ele>53.91144</ele>
        <time>2023-05-28T16:59:52.000Z</time>
      </trkpt>
      <trkpt lat="46.19538" lon="-1.42052">
        <ele>53.94596</ele>
        <time>2023-05-28T16:59:53.000Z</time>
      </trkpt>
      <trkpt lat="46.19536" lon="-1.42048">
        <ele>53.92023</ele>
        <time>2023-05-28T16:59:54.000Z</time>
      </trkpt>
      <trkpt lat="46.19535" lon="-1.42043">
        <ele>53.88204</ele>
        <time>2023-05-28T16:59:55.000Z</time>
      </trkpt>
      <trkpt lat="46.19534" lon="-1.42039">
        <ele>53.84758</ele>
        <time>2023-05-28T16:59:56.000Z</time>
      </trkpt>
      <trkpt lat="46.19534" lon="-1.42034">
        <ele>53.84174</ele>
        <time>2023-05-28T16:59:57.000Z</time>
      </trkpt>
      <trkpt lat="46.19533" lon="-1.42029">
        <ele>53.82811</ele>
        <time>2023-05-28T16:59:58.000Z</time>
      </trkpt>
      <trkpt lat="46.19534" lon="-1.42025">
        <ele>53.812</ele>
        <time>2023-05-28T16:59:59.000Z</time>
      </trkpt>
      <trkpt lat="46.19534" lon="-1.42021">
        <ele>53.7911</ele>
        <time>2023-05-28T17:00:00.000Z</time>
      </trkpt>
      <trkpt lat="46.19533" lon="-1.42017">
        <ele>53.79523</ele>
        <time>2023-05-28T17:00:01.000Z</time>
      </trkpt>
      <trkpt lat="46.19533" lon="-1.42013">
        <ele>53.77937</ele>
        <time>2023-05-28T17:00:02.000Z</time>
      </trkpt>
      <trkpt lat="46.19533" lon="-1.42008">
        <ele>53.77595</ele>
        <time>2023-05-28T17:00:03.000Z</time>
      </trkpt>
      <trkpt lat="46.19532" lon="-1.42004">
        <ele>53.78763</ele>
        <time>2023-05-28T17:00:04.000Z</time>
      </trkpt>
      <trkpt lat="46.19532" lon="-1.42001">
        <ele>53.78638</ele>
        <time>2023-05-28T17:00:05.000Z</time>
      </trkpt>
      <trkpt lat="46.19532" lon="-1.41997">
        <ele>53.76394</ele>
        <time>2023-05-28T17:00:06.000Z</time>
      </trkpt>
      <trkpt lat="46.19532" lon="-1.41993">
        <ele>53.71241</ele>
        <time>2023-05-28T17:00:07.000Z</time>
      </trkpt>
      <trkpt lat="46.19532" lon="-1.41989">
        <ele>53.69694</ele>
        <time>2023-05-28T17:00:08.000Z</time>
      </trkpt>
      <trkpt lat="46.19532" lon="-1.41984">
        <ele>53.6801</ele>
        <time>2023-05-28T17:00:09.000Z</time>
      </trkpt>
      <trkpt lat="46.19531" lon="-1.4198">
        <ele>53.65464</ele>
        <time>2023-05-28T17:00:10.000Z</time>
      </trkpt>
      <trkpt lat="46.19532" lon="-1.41975">
        <ele>53.64651</ele>
        <time>2023-05-28T17:00:11.000Z</time>
      </trkpt>
      <trkpt lat="46.19532" lon="-1.41971">
        <ele>53.59058</ele>
        <time>2023-05-28T17:00:12.000Z</time>
      </trkpt>
      <trkpt lat="46.19532" lon="-1.41966">
        <ele>53.54984</ele>
        <time>2023-05-28T17:00:13.000Z</time>
      </trkpt>
      <trkpt lat="46.19532" lon="-1.41961">
        <ele>53.54778</ele>
        <time>2023-05-28T17:00:14.000Z</time>
      </trkpt>
      <trkpt lat="46.19532" lon="-1.41957">
        <ele>53.54119</ele>
        <time>2023-05-28T17:00:15.000Z</time>
      </trkpt>
      <trkpt lat="46.19532" lon="-1.41953">
        <ele>53.53225</ele>
        <time>2023-05-28T17:00:16.000Z</time>
      </trkpt>
      <trkpt lat="46.19532" lon="-1.41949">
        <ele>53.51001</ele>
        <time>2023-05-28T17:00:17.000Z</time>
      </trkpt>
      <trkpt lat="46.19532" lon="-1.41945">
        <ele>53.48168</ele>
        <time>2023-05-28T17:00:18.000Z</time>
      </trkpt>
      <trkpt lat="46.19532" lon="-1.4194">
        <ele>53.4693</ele>
        <time>2023-05-28T17:00:19.000Z</time>
      </trkpt>
      <trkpt lat="46.19531" lon="-1.41936">
        <ele>53.45354</ele>
        <time>2023-05-28T17:00:20.000Z</time>
      </trkpt>
      <trkpt lat="46.19529" lon="-1.41932">
        <ele>53.41582</ele>
        <time>2023-05-28T17:00:21.000Z</time>
      </trkpt>
      <trkpt lat="46.19526" lon="-1.4193">
        <ele>53.43361</ele>
        <time>2023-05-28T17:00:22.000Z</time>
      </trkpt>
      <trkpt lat="46.19523" lon="-1.41929">
        <ele>53.45398</ele>
        <time>2023-05-28T17:00:23.000Z</time>
      </trkpt>
      <trkpt lat="46.1952" lon="-1.41928">
        <ele>53.479</ele>
        <time>2023-05-28T17:00:24.000Z</time>
      </trkpt>
      <trkpt lat="46.19517" lon="-1.41928">
        <ele>53.48191</ele>
        <time>2023-05-28T17:00:25.000Z</time>
      </trkpt>
      <trkpt lat="46.19513" lon="-1.41928">
        <ele>53.47224</ele>
        <time>2023-05-28T17:00:26.000Z</time>
      </trkpt>
      <trkpt lat="46.1951" lon="-1.41928">
        <ele>53.47846</ele>
        <time>2023-05-28T17:00:27.000Z</time>
      </trkpt>
      <trkpt lat="46.19507" lon="-1.41928">
        <ele>53.47338</ele>
        <time>2023-05-28T17:00:28.000Z</time>
      </trkpt>
      <trkpt lat="46.19504" lon="-1.41928">
        <ele>53.46366</ele>
        <time>2023-05-28T17:00:29.000Z</time>
      </trkpt>
      <trkpt lat="46.195" lon="-1.41927">
        <ele>53.45348</ele>
        <time>2023-05-28T17:00:30.000Z</time>
      </trkpt>
      <trkpt lat="46.19497" lon="-1.41926">
        <ele>53.44201</ele>
        <time>2023-05-28T17:00:31.000Z</time>
      </trkpt>
      <trkpt lat="46.19494" lon="-1.41926">
        <ele>53.4969</ele>
        <time>2023-05-28T17:00:32.000Z</time>
      </trkpt>
      <trkpt lat="46.19491" lon="-1.41926">
        <ele>53.52828</ele>
        <time>2023-05-28T17:00:33.000Z</time>
      </trkpt>
      <trkpt lat="46.19487" lon="-1.41925">
        <ele>53.54626</ele>
        <time>2023-05-28T17:00:34.000Z</time>
      </trkpt>
      <trkpt lat="46.19485" lon="-1.41925">
        <ele>53.58419</ele>
        <time>2023-05-28T17:00:35.000Z</time>
      </trkpt>
      <trkpt lat="46.19481" lon="-1.41925">
        <ele>53.62238</ele>
        <time>2023-05-28T17:00:36.000Z</time>
      </trkpt>
      <trkpt lat="46.19478" lon="-1.41925">
        <ele>53.68616</ele>
        <time>2023-05-28T17:00:37.000Z</time>
      </trkpt>
      <trkpt lat="46.19475" lon="-1.41926">
        <ele>53.67902</ele>
        <time>2023-05-28T17:00:38.000Z</time>
      </trkpt>
      <trkpt lat="46.19472" lon="-1.41927">
        <ele>53.63715</ele>
        <time>2023-05-28T17:00:39.000Z</time>
      </trkpt>
      <trkpt lat="46.19469" lon="-1.41927">
        <ele>53.58008</ele>
        <time>2023-05-28T17:00:40.000Z</time>
      </trkpt>
      <trkpt lat="46.19467" lon="-1.41927">
        <ele>53.53795</ele>
        <time>2023-05-28T17:00:41.000Z</time>
      </trkpt>
      <trkpt lat="46.19464" lon="-1.41926">
        <ele>53.48861</ele>
        <time>2023-05-28T17:00:42.000Z</time>
      </trkpt>
      <trkpt lat="46.19461" lon="-1.41925">
        <ele>53.44133</ele>
        <time>2023-05-28T17:00:43.000Z</time>
      </trkpt>
      <trkpt lat="46.19458" lon="-1.41924">
        <ele>53.39093</ele>
        <time>2023-05-28T17:00:44.000Z</time>
      </trkpt>
      <trkpt lat="46.19455" lon="-1.41923">
        <ele>53.36737</ele>
        <time>2023-05-28T17:00:45.000Z</time>
      </trkpt>
      <trkpt lat="46.19452" lon="-1.41922">
        <ele>53.33367</ele>
        <time>2023-05-28T17:00:46.000Z</time>
      </trkpt>
      <trkpt lat="46.19449" lon="-1.41922">
        <ele>53.27854</ele>
        <time>2023-05-28T17:00:47.000Z</time>
      </trkpt>
      <trkpt lat="46.19446" lon="-1.41921">
        <ele>53.22035</ele>
        <time>2023-05-28T17:00:48.000Z</time>
      </trkpt>
      <trkpt lat="46.19444" lon="-1.41921">
        <ele>53.144</ele>
        <time>2023-05-28T17:00:49.000Z</time>
      </trkpt>
      <trkpt lat="46.19441" lon="-1.4192">
        <ele>53.08342</ele>
        <time>2023-05-28T17:00:50.000Z</time>
      </trkpt>
      <trkpt lat="46.19437" lon="-1.4192">
        <ele>52.99655</ele>
        <time>2023-05-28T17:00:51.000Z</time>
      </trkpt>
      <trkpt lat="46.19434" lon="-1.41919">
        <ele>52.87008</ele>
        <time>2023-05-28T17:00:52.000Z</time>
      </trkpt>
      <trkpt lat="46.19431" lon="-1.41918">
        <ele>52.76789</ele>
        <time>2023-05-28T17:00:53.000Z</time>
      </trkpt>
      <trkpt lat="46.19428" lon="-1.41917">
        <ele>52.69368</ele>
        <time>2023-05-28T17:00:54.000Z</time>
      </trkpt>
      <trkpt lat="46.19425" lon="-1.41916">
        <ele>52.54551</ele>
        <time>2023-05-28T17:00:55.000Z</time>
      </trkpt>
      <trkpt lat="46.19422" lon="-1.41915">
        <ele>52.39359</ele>
        <time>2023-05-28T17:00:56.000Z</time>
      </trkpt>
      <trkpt lat="46.19418" lon="-1.41913">
        <ele>52.25008</ele>
        <time>2023-05-28T17:00:57.000Z</time>
      </trkpt>
      <trkpt lat="46.19415" lon="-1.41912">
        <ele>52.19283</ele>
        <time>2023-05-28T17:00:58.000Z</time>
      </trkpt>
      <trkpt lat="46.19412" lon="-1.4191">
        <ele>52.15199</ele>
        <time>2023-05-28T17:00:59.000Z</time>
      </trkpt>
      <trkpt lat="46.1941" lon="-1.41909">
        <ele>52.14956</ele>
        <time>2023-05-28T17:01:00.000Z</time>
      </trkpt>
      <trkpt lat="46.19407" lon="-1.41908">
        <ele>52.12623</ele>
        <time>2023-05-28T17:01:01.000Z</time>
      </trkpt>
      <trkpt lat="46.19404" lon="-1.41907">
        <ele>52.11097</ele>
        <time>2023-05-28T17:01:02.000Z</time>
      </trkpt>
      <trkpt lat="46.19402" lon="-1.41906">
        <ele>52.09547</ele>
        <time>2023-05-28T17:01:03.000Z</time>
      </trkpt>
      <trkpt lat="46.19401" lon="-1.41903">
        <ele>52.07167</ele>
        <time>2023-05-28T17:01:04.000Z</time>
      </trkpt>
      <trkpt lat="46.194" lon="-1.41901">
        <ele>52.0326</ele>
        <time>2023-05-28T17:01:05.000Z</time>
      </trkpt>
      <trkpt lat="46.19399" lon="-1.41898">
        <ele>52.00659</ele>
        <time>2023-05-28T17:01:06.000Z</time>
      </trkpt>
      <trkpt lat="46.19398" lon="-1.41894">
        <ele>52.01022</ele>
        <time>2023-05-28T17:01:07.000Z</time>
      </trkpt>
      <trkpt lat="46.19398" lon="-1.41891">
        <ele>52.00315</ele>
        <time>2023-05-28T17:01:08.000Z</time>
      </trkpt>
      <trkpt lat="46.19399" lon="-1.41887">
        <ele>52.01731</ele>
        <time>2023-05-28T17:01:09.000Z</time>
      </trkpt>
      <trkpt lat="46.19401" lon="-1.41884">
        <ele>52.01234</ele>
        <time>2023-05-28T17:01:10.000Z</time>
      </trkpt>
      <trkpt lat="46.19402" lon="-1.41881">
        <ele>52.02206</ele>
        <time>2023-05-28T17:01:11.000Z</time>
      </trkpt>
      <trkpt lat="46.19404" lon="-1.41877">
        <ele>52.05732</ele>
        <time>2023-05-28T17:01:12.000Z</time>
      </trkpt>
      <trkpt lat="46.19405" lon="-1.41873">
        <ele>52.10029</ele>
        <time>2023-05-28T17:01:13.000Z</time>
      </trkpt>
      <trkpt lat="46.19408" lon="-1.41868">
        <ele>52.11156</ele>
        <time>2023-05-28T17:01:14.000Z</time>
      </trkpt>
      <trkpt lat="46.19411" lon="-1.41862">
        <ele>52.172</ele>
        <time>2023-05-28T17:01:15.000Z</time>
      </trkpt>
      <trkpt lat="46.19413" lon="-1.41854">
        <ele>52.24084</ele>
        <time>2023-05-28T17:01:16.000Z</time>
      </trkpt>
      <trkpt lat="46.19414" lon="-1.41846">
        <ele>52.28597</ele>
        <time>2023-05-28T17:01:17.000Z</time>
      </trkpt>
      <trkpt lat="46.19415" lon="-1.41839">
        <ele>52.30415</ele>
        <time>2023-05-28T17:01:18.000Z</time>
      </trkpt>
      <trkpt lat="46.19416" lon="-1.41831">
        <ele>52.32379</ele>
        <time>2023-05-28T17:01:19.000Z</time>
      </trkpt>
      <trkpt lat="46.19417" lon="-1.41825">
        <ele>52.36034</ele>
        <time>2023-05-28T17:01:20.000Z</time>
      </trkpt>
      <trkpt lat="46.19419" lon="-1.41818">
        <ele>52.36066</ele>
        <time>2023-05-28T17:01:21.000Z</time>
      </trkpt>
      <trkpt lat="46.1942" lon="-1.41812">
        <ele>52.36685</ele>
        <time>2023-05-28T17:01:22.000Z</time>
      </trkpt>
      <trkpt lat="46.1942" lon="-1.41805">
        <ele>52.36351</ele>
        <time>2023-05-28T17:01:23.000Z</time>
      </trkpt>
      <trkpt lat="46.19419" lon="-1.41799">
        <ele>52.35772</ele>
        <time>2023-05-28T17:01:24.000Z</time>
      </trkpt>
      <trkpt lat="46.19419" lon="-1.41793">
        <ele>52.36051</ele>
        <time>2023-05-28T17:01:25.000Z</time>
      </trkpt>
      <trkpt lat="46.19418" lon="-1.41787">
        <ele>52.38223</ele>
        <time>2023-05-28T17:01:26.000Z</time>
      </trkpt>
      <trkpt lat="46.19418" lon="-1.41781">
        <ele>52.40281</ele>
        <time>2023-05-28T17:01:27.000Z</time>
      </trkpt>
      <trkpt lat="46.19417" lon="-1.41776">
        <ele>52.41628</ele>
        <time>2023-05-28T17:01:28.000Z</time>
      </trkpt>
      <trkpt lat="46.19416" lon="-1.4177">
        <ele>52.41564</ele>
        <time>2023-05-28T17:01:29.000Z</time>
      </trkpt>
      <trkpt lat="46.19415" lon="-1.41763">
        <ele>52.4322</ele>
        <time>2023-05-28T17:01:30.000Z</time>
      </trkpt>
      <trkpt lat="46.19414" lon="-1.41757">
        <ele>52.44247</ele>
        <time>2023-05-28T17:01:31.000Z</time>
      </trkpt>
      <trkpt lat="46.19413" lon="-1.41751">
        <ele>52.44965</ele>
        <time>2023-05-28T17:01:32.000Z</time>
      </trkpt>
      <trkpt lat="46.19411" lon="-1.41745">
        <ele>52.47981</ele>
        <time>2023-05-28T17:01:33.000Z</time>
      </trkpt>
      <trkpt lat="46.19411" lon="-1.41739">
        <ele>52.52198</ele>
        <time>2023-05-28T17:01:34.000Z</time>
      </trkpt>
      <trkpt lat="46.1941" lon="-1.41732">
        <ele>52.53971</ele>
        <time>2023-05-28T17:01:35.000Z</time>
      </trkpt>
      <trkpt lat="46.1941" lon="-1.41726">
        <ele>52.55726</ele>
        <time>2023-05-28T17:01:36.000Z</time>
      </trkpt>
      <trkpt lat="46.19409" lon="-1.41721">
        <ele>52.59479</ele>
        <time>2023-05-28T17:01:37.000Z</time>
      </trkpt>
      <trkpt lat="46.19407" lon="-1.41716">
        <ele>52.63961</ele>
        <time>2023-05-28T17:01:38.000Z</time>
      </trkpt>
      <trkpt lat="46.19404" lon="-1.41711">
        <ele>52.67123</ele>
        <time>2023-05-28T17:01:39.000Z</time>
      </trkpt>
      <trkpt lat="46.19403" lon="-1.41706">
        <ele>52.67292</ele>
        <time>2023-05-28T17:01:40.000Z</time>
      </trkpt>
      <trkpt lat="46.194" lon="-1.41701">
        <ele>52.72094</ele>
        <time>2023-05-28T17:01:41.000Z</time>
      </trkpt>
      <trkpt lat="46.19398" lon="-1.41696">
        <ele>52.7443</ele>
        <time>2023-05-28T17:01:42.000Z</time>
      </trkpt>
      <trkpt lat="46.19396" lon="-1.41691">
        <ele>52.74372</ele>
        <time>2023-05-28T17:01:43.000Z</time>
      </trkpt>
      <trkpt lat="46.19394" lon="-1.41686">
        <ele>52.73719</ele>
        <time>2023-05-28T17:01:44.000Z</time>
      </trkpt>
      <trkpt lat="46.19392" lon="-1.41681">
        <ele>52.74944</ele>
        <time>2023-05-28T17:01:45.000Z</time>
      </trkpt>
      <trkpt lat="46.1939" lon="-1.41675">
        <ele>52.73885</ele>
        <time>2023-05-28T17:01:46.000Z</time>
      </trkpt>
      <trkpt lat="46.19387" lon="-1.4167">
        <ele>52.7156</ele>
        <time>2023-05-28T17:01:47.000Z</time>
      </trkpt>
      <trkpt lat="46.19385" lon="-1.41665">
        <ele>52.70494</ele>
        <time>2023-05-28T17:01:48.000Z</time>
      </trkpt>
      <trkpt lat="46.19383" lon="-1.4166">
        <ele>52.69493</ele>
        <time>2023-05-28T17:01:49.000Z</time>
      </trkpt>
      <trkpt lat="46.1938" lon="-1.41654">
        <ele>52.71805</ele>
        <time>2023-05-28T17:01:50.000Z</time>
      </trkpt>
      <trkpt lat="46.19378" lon="-1.41648">
        <ele>52.74247</ele>
        <time>2023-05-28T17:01:51.000Z</time>
      </trkpt>
      <trkpt lat="46.19377" lon="-1.41642">
        <ele>52.76882</ele>
        <time>2023-05-28T17:01:52.000Z</time>
      </trkpt>
      <trkpt lat="46.19375" lon="-1.41636">
        <ele>52.77301</ele>
        <time>2023-05-28T17:01:53.000Z</time>
      </trkpt>
      <trkpt lat="46.19374" lon="-1.4163">
        <ele>52.77601</ele>
        <time>2023-05-28T17:01:54.000Z</time>
      </trkpt>
      <trkpt lat="46.19373" lon="-1.41623">
        <ele>52.80737</ele>
        <time>2023-05-28T17:01:55.000Z</time>
      </trkpt>
      <trkpt lat="46.19372" lon="-1.41617">
        <ele>52.84825</ele>
        <time>2023-05-28T17:01:56.000Z</time>
      </trkpt>
      <trkpt lat="46.19372" lon="-1.4161">
        <ele>52.87551</ele>
        <time>2023-05-28T17:01:57.000Z</time>
      </trkpt>
      <trkpt lat="46.19371" lon="-1.41603">
        <ele>52.91594</ele>
        <time>2023-05-28T17:01:58.000Z</time>
      </trkpt>
      <trkpt lat="46.1937" lon="-1.41597">
        <ele>52.91046</ele>
        <time>2023-05-28T17:01:59.000Z</time>
      </trkpt>
      <trkpt lat="46.1937" lon="-1.4159">
        <ele>52.90936</ele>
        <time>2023-05-28T17:02:00.000Z</time>
      </trkpt>
      <trkpt lat="46.1937" lon="-1.41584">
        <ele>52.91886</ele>
        <time>2023-05-28T17:02:01.000Z</time>
      </trkpt>
      <trkpt lat="46.19369" lon="-1.41578">
        <ele>52.93919</ele>
        <time>2023-05-28T17:02:02.000Z</time>
      </trkpt>
      <trkpt lat="46.19368" lon="-1.41571">
        <ele>52.98303</ele>
        <time>2023-05-28T17:02:03.000Z</time>
      </trkpt>
      <trkpt lat="46.19368" lon="-1.41564">
        <ele>53.02491</ele>
        <time>2023-05-28T17:02:04.000Z</time>
      </trkpt>
      <trkpt lat="46.19368" lon="-1.41558">
        <ele>53.03888</ele>
        <time>2023-05-28T17:02:05.000Z</time>
      </trkpt>
      <trkpt lat="46.19368" lon="-1.41551">
        <ele>53.07497</ele>
        <time>2023-05-28T17:02:06.000Z</time>
      </trkpt>
      <trkpt lat="46.19367" lon="-1.41544">
        <ele>53.14818</ele>
        <time>2023-05-28T17:02:07.000Z</time>
      </trkpt>
      <trkpt lat="46.19367" lon="-1.41538">
        <ele>53.21435</ele>
        <time>2023-05-28T17:02:08.000Z</time>
      </trkpt>
      <trkpt lat="46.19366" lon="-1.41531">
        <ele>53.29432</ele>
        <time>2023-05-28T17:02:09.000Z</time>
      </trkpt>
      <trkpt lat="46.19365" lon="-1.41524">
        <ele>53.28461</ele>
        <time>2023-05-28T17:02:10.000Z</time>
      </trkpt>
      <trkpt lat="46.19365" lon="-1.41517">
        <ele>53.29463</ele>
        <time>2023-05-28T17:02:11.000Z</time>
      </trkpt>
      <trkpt lat="46.19364" lon="-1.41511">
        <ele>53.31299</ele>
        <time>2023-05-28T17:02:12.000Z</time>
      </trkpt>
      <trkpt lat="46.19362" lon="-1.41504">
        <ele>53.31467</ele>
        <time>2023-05-28T17:02:13.000Z</time>
      </trkpt>
      <trkpt lat="46.19361" lon="-1.41498">
        <ele>53.30671</ele>
        <time>2023-05-28T17:02:14.000Z</time>
      </trkpt>
      <trkpt lat="46.19359" lon="-1.41492">
        <ele>53.28944</ele>
        <time>2023-05-28T17:02:15.000Z</time>
      </trkpt>
      <trkpt lat="46.19358" lon="-1.41485">
        <ele>53.27444</ele>
        <time>2023-05-28T17:02:16.000Z</time>
      </trkpt>
      <trkpt lat="46.19356" lon="-1.41479">
        <ele>53.24679</ele>
        <time>2023-05-28T17:02:17.000Z</time>
      </trkpt>
      <trkpt lat="46.19355" lon="-1.41474">
        <ele>53.19997</ele>
        <time>2023-05-28T17:02:18.000Z</time>
      </trkpt>
      <trkpt lat="46.19352" lon="-1.41468">
        <ele>53.22845</ele>
        <time>2023-05-28T17:02:19.000Z</time>
      </trkpt>
      <trkpt lat="46.19351" lon="-1.41461">
        <ele>53.2799</ele>
        <time>2023-05-28T17:02:20.000Z</time>
      </trkpt>
      <trkpt lat="46.19348" lon="-1.41454">
        <ele>53.3244</ele>
        <time>2023-05-28T17:02:21.000Z</time>
      </trkpt>
      <trkpt lat="46.19347" lon="-1.41448">
        <ele>53.37407</ele>
        <time>2023-05-28T17:02:22.000Z</time>
      </trkpt>
      <trkpt lat="46.19345" lon="-1.41442">
        <ele>53.3818</ele>
        <time>2023-05-28T17:02:23.000Z</time>
      </trkpt>
      <trkpt lat="46.19344" lon="-1.41436">
        <ele>53.40263</ele>
        <time>2023-05-28T17:02:24.000Z</time>
      </trkpt>
      <trkpt lat="46.19343" lon="-1.41429">
        <ele>53.44218</ele>
        <time>2023-05-28T17:02:25.000Z</time>
      </trkpt>
      <trkpt lat="46.19342" lon="-1.41423">
        <ele>53.44902</ele>
        <time>2023-05-28T17:02:26.000Z</time>
      </trkpt>
      <trkpt lat="46.19341" lon="-1.41417">
        <ele>53.41091</ele>
        <time>2023-05-28T17:02:27.000Z</time>
      </trkpt>
      <trkpt lat="46.1934" lon="-1.41411">
        <ele>53.40669</ele>
        <time>2023-05-28T17:02:28.000Z</time>
      </trkpt>
      <trkpt lat="46.1934" lon="-1.41405">
        <ele>53.40132</ele>
        <time>2023-05-28T17:02:29.000Z</time>
      </trkpt>
      <trkpt lat="46.1934" lon="-1.41398">
        <ele>53.44336</ele>
        <time>2023-05-28T17:02:30.000Z</time>
      </trkpt>
      <trkpt lat="46.1934" lon="-1.41392">
        <ele>53.41394</ele>
        <time>2023-05-28T17:02:31.000Z</time>
      </trkpt>
      <trkpt lat="46.1934" lon="-1.41386">
        <ele>53.37833</ele>
        <time>2023-05-28T17:02:32.000Z</time>
      </trkpt>
      <trkpt lat="46.1934" lon="-1.41379">
        <ele>53.33107</ele>
        <time>2023-05-28T17:02:33.000Z</time>
      </trkpt>
      <trkpt lat="46.1934" lon="-1.41372">
        <ele>53.29275</ele>
        <time>2023-05-28T17:02:34.000Z</time>
      </trkpt>
      <trkpt lat="46.19341" lon="-1.41365">
        <ele>53.27703</ele>
        <time>2023-05-28T17:02:35.000Z</time>
      </trkpt>
      <trkpt lat="46.19342" lon="-1.41359">
        <ele>53.26816</ele>
        <time>2023-05-28T17:02:36.000Z</time>
      </trkpt>
      <trkpt lat="46.19343" lon="-1.41352">
        <ele>53.27818</ele>
        <time>2023-05-28T17:02:37.000Z</time>
      </trkpt>
      <trkpt lat="46.19345" lon="-1.41346">
        <ele>53.28291</ele>
        <time>2023-05-28T17:02:38.000Z</time>
      </trkpt>
      <trkpt lat="46.19346" lon="-1.4134">
        <ele>53.27114</ele>
        <time>2023-05-28T17:02:39.000Z</time>
      </trkpt>
      <trkpt lat="46.19348" lon="-1.41335">
        <ele>53.25029</ele>
        <time>2023-05-28T17:02:40.000Z</time>
      </trkpt>
      <trkpt lat="46.19351" lon="-1.41329">
        <ele>53.22893</ele>
        <time>2023-05-28T17:02:41.000Z</time>
      </trkpt>
      <trkpt lat="46.19354" lon="-1.41324">
        <ele>53.20904</ele>
        <time>2023-05-28T17:02:42.000Z</time>
      </trkpt>
      <trkpt lat="46.19357" lon="-1.41319">
        <ele>53.19313</ele>
        <time>2023-05-28T17:02:43.000Z</time>
      </trkpt>
      <trkpt lat="46.1936" lon="-1.41314">
        <ele>53.17504</ele>
        <time>2023-05-28T17:02:44.000Z</time>
      </trkpt>
      <trkpt lat="46.19363" lon="-1.41308">
        <ele>53.1279</ele>
        <time>2023-05-28T17:02:45.000Z</time>
      </trkpt>
      <trkpt lat="46.19365" lon="-1.41303">
        <ele>53.12218</ele>
        <time>2023-05-28T17:02:46.000Z</time>
      </trkpt>
      <trkpt lat="46.19368" lon="-1.41296">
        <ele>53.1056</ele>
        <time>2023-05-28T17:02:47.000Z</time>
      </trkpt>
      <trkpt lat="46.1937" lon="-1.41291">
        <ele>53.06622</ele>
        <time>2023-05-28T17:02:48.000Z</time>
      </trkpt>
      <trkpt lat="46.19373" lon="-1.41284">
        <ele>53.0306</ele>
        <time>2023-05-28T17:02:49.000Z</time>
      </trkpt>
      <trkpt lat="46.19374" lon="-1.41278">
        <ele>53.0041</ele>
        <time>2023-05-28T17:02:50.000Z</time>
      </trkpt>
      <trkpt lat="46.19376" lon="-1.41272">
        <ele>53.04021</ele>
        <time>2023-05-28T17:02:51.000Z</time>
      </trkpt>
      <trkpt lat="46.19378" lon="-1.41264">
        <ele>53.07861</ele>
        <time>2023-05-28T17:02:52.000Z</time>
      </trkpt>
      <trkpt lat="46.19379" lon="-1.41257">
        <ele>53.12592</ele>
        <time>2023-05-28T17:02:53.000Z</time>
      </trkpt>
      <trkpt lat="46.1938" lon="-1.41251">
        <ele>53.18893</ele>
        <time>2023-05-28T17:02:54.000Z</time>
      </trkpt>
      <trkpt lat="46.1938" lon="-1.41244">
        <ele>53.24381</ele>
        <time>2023-05-28T17:02:55.000Z</time>
      </trkpt>
      <trkpt lat="46.19381" lon="-1.41237">
        <ele>53.29029</ele>
        <time>2023-05-28T17:02:56.000Z</time>
      </trkpt>
      <trkpt lat="46.19382" lon="-1.4123">
        <ele>53.28738</ele>
        <time>2023-05-28T17:02:57.000Z</time>
      </trkpt>
      <trkpt lat="46.19383" lon="-1.41223">
        <ele>53.29067</ele>
        <time>2023-05-28T17:02:58.000Z</time>
      </trkpt>
      <trkpt lat="46.19384" lon="-1.41216">
        <ele>53.29928</ele>
        <time>2023-05-28T17:02:59.000Z</time>
      </trkpt>
      <trkpt lat="46.19385" lon="-1.41209">
        <ele>53.28753</ele>
        <time>2023-05-28T17:03:00.000Z</time>
      </trkpt>
      <trkpt lat="46.19386" lon="-1.41202">
        <ele>53.28347</ele>
        <time>2023-05-28T17:03:01.000Z</time>
      </trkpt>
      <trkpt lat="46.19387" lon="-1.41194">
        <ele>53.26294</ele>
        <time>2023-05-28T17:03:02.000Z</time>
      </trkpt>
      <trkpt lat="46.19388" lon="-1.41187">
        <ele>53.26825</ele>
        <time>2023-05-28T17:03:03.000Z</time>
      </trkpt>
      <trkpt lat="46.19389" lon="-1.4118">
        <ele>53.27691</ele>
        <time>2023-05-28T17:03:04.000Z</time>
      </trkpt>
      <trkpt lat="46.1939" lon="-1.41173">
        <ele>53.29189</ele>
        <time>2023-05-28T17:03:05.000Z</time>
      </trkpt>
      <trkpt lat="46.19391" lon="-1.41166">
        <ele>53.26521</ele>
        <time>2023-05-28T17:03:06.000Z</time>
      </trkpt>
      <trkpt lat="46.19392" lon="-1.41158">
        <ele>53.27588</ele>
        <time>2023-05-28T17:03:07.000Z</time>
      </trkpt>
      <trkpt lat="46.19393" lon="-1.41152">
        <ele>53.23883</ele>
        <time>2023-05-28T17:03:08.000Z</time>
      </trkpt>
      <trkpt lat="46.19395" lon="-1.41145">
        <ele>53.19427</ele>
        <time>2023-05-28T17:03:09.000Z</time>
      </trkpt>
      <trkpt lat="46.19396" lon="-1.41139">
        <ele>53.0527</ele>
        <time>2023-05-28T17:03:10.000Z</time>
      </trkpt>
      <trkpt lat="46.19398" lon="-1.41132">
        <ele>52.90264</ele>
        <time>2023-05-28T17:03:11.000Z</time>
      </trkpt>
      <trkpt lat="46.19401" lon="-1.41125">
        <ele>52.77355</ele>
        <time>2023-05-28T17:03:12.000Z</time>
      </trkpt>
      <trkpt lat="46.19402" lon="-1.41118">
        <ele>52.6547</ele>
        <time>2023-05-28T17:03:13.000Z</time>
      </trkpt>
      <trkpt lat="46.19403" lon="-1.41112">
        <ele>52.49098</ele>
        <time>2023-05-28T17:03:14.000Z</time>
      </trkpt>
      <trkpt lat="46.19406" lon="-1.41106">
        <ele>52.34095</ele>
        <time>2023-05-28T17:03:15.000Z</time>
      </trkpt>
      <trkpt lat="46.19406" lon="-1.411">
        <ele>52.16532</ele>
        <time>2023-05-28T17:03:16.000Z</time>
      </trkpt>
      <trkpt lat="46.19407" lon="-1.41093">
        <ele>52.05216</ele>
        <time>2023-05-28T17:03:17.000Z</time>
      </trkpt>
      <trkpt lat="46.19409" lon="-1.41087">
        <ele>52.00822</ele>
        <time>2023-05-28T17:03:18.000Z</time>
      </trkpt>
      <trkpt lat="46.19411" lon="-1.4108">
        <ele>51.96676</ele>
        <time>2023-05-28T17:03:19.000Z</time>
      </trkpt>
      <trkpt lat="46.19413" lon="-1.41074">
        <ele>51.92112</ele>
        <time>2023-05-28T17:03:20.000Z</time>
      </trkpt>
      <trkpt lat="46.19414" lon="-1.41066">
        <ele>51.88885</ele>
        <time>2023-05-28T17:03:21.000Z</time>
      </trkpt>
      <trkpt lat="46.19414" lon="-1.41059">
        <ele>51.81634</ele>
        <time>2023-05-28T17:03:22.000Z</time>
      </trkpt>
      <trkpt lat="46.19414" lon="-1.41052">
        <ele>51.77366</ele>
        <time>2023-05-28T17:03:23.000Z</time>
      </trkpt>
      <trkpt lat="46.19413" lon="-1.41045">
        <ele>51.72659</ele>
        <time>2023-05-28T17:03:24.000Z</time>
      </trkpt>
      <trkpt lat="46.19412" lon="-1.41038">
        <ele>51.69857</ele>
        <time>2023-05-28T17:03:25.000Z</time>
      </trkpt>
      <trkpt lat="46.19411" lon="-1.41032">
        <ele>51.70009</ele>
        <time>2023-05-28T17:03:26.000Z</time>
      </trkpt>
      <trkpt lat="46.1941" lon="-1.41024">
        <ele>51.70853</ele>
        <time>2023-05-28T17:03:27.000Z</time>
      </trkpt>
      <trkpt lat="46.19409" lon="-1.41018">
        <ele>51.76455</ele>
        <time>2023-05-28T17:03:28.000Z</time>
      </trkpt>
      <trkpt lat="46.19408" lon="-1.4101">
        <ele>51.83205</ele>
        <time>2023-05-28T17:03:29.000Z</time>
      </trkpt>
      <trkpt lat="46.19406" lon="-1.41003">
        <ele>51.98407</ele>
        <time>2023-05-28T17:03:30.000Z</time>
      </trkpt>
      <trkpt lat="46.19403" lon="-1.40997">
        <ele>52.13229</ele>
        <time>2023-05-28T17:03:31.000Z</time>
      </trkpt>
      <trkpt lat="46.19402" lon="-1.40991">
        <ele>52.28576</ele>
        <time>2023-05-28T17:03:32.000Z</time>
      </trkpt>
      <trkpt lat="46.194" lon="-1.40984">
        <ele>52.44254</ele>
        <time>2023-05-28T17:03:33.000Z</time>
      </trkpt>
      <trkpt lat="46.19399" lon="-1.40977">
        <ele>52.57856</ele>
        <time>2023-05-28T17:03:34.000Z</time>
      </trkpt>
      <trkpt lat="46.19398" lon="-1.40971">
        <ele>52.70443</ele>
        <time>2023-05-28T17:03:35.000Z</time>
      </trkpt>
      <trkpt lat="46.19397" lon="-1.40964">
        <ele>52.82152</ele>
        <time>2023-05-28T17:03:36.000Z</time>
      </trkpt>
      <trkpt lat="46.19395" lon="-1.40958">
        <ele>52.93913</ele>
        <time>2023-05-28T17:03:37.000Z</time>
      </trkpt>
      <trkpt lat="46.19393" lon="-1.40951">
        <ele>53.01321</ele>
        <time>2023-05-28T17:03:38.000Z</time>
      </trkpt>
      <trkpt lat="46.19392" lon="-1.40944">
        <ele>53.06925</ele>
        <time>2023-05-28T17:03:39.000Z</time>
      </trkpt>
      <trkpt lat="46.19391" lon="-1.40937">
        <ele>53.12655</ele>
        <time>2023-05-28T17:03:40.000Z</time>
      </trkpt>
      <trkpt lat="46.19389" lon="-1.4093">
        <ele>53.19332</ele>
        <time>2023-05-28T17:03:41.000Z</time>
      </trkpt>
      <trkpt lat="46.19387" lon="-1.40924">
        <ele>53.27235</ele>
        <time>2023-05-28T17:03:42.000Z</time>
      </trkpt>
      <trkpt lat="46.19385" lon="-1.40918">
        <ele>53.32941</ele>
        <time>2023-05-28T17:03:43.000Z</time>
      </trkpt>
      <trkpt lat="46.19383" lon="-1.40911">
        <ele>53.39079</ele>
        <time>2023-05-28T17:03:44.000Z</time>
      </trkpt>
      <trkpt lat="46.19381" lon="-1.40904">
        <ele>53.45699</ele>
        <time>2023-05-28T17:03:45.000Z</time>
      </trkpt>
      <trkpt lat="46.1938" lon="-1.40898">
        <ele>53.50037</ele>
        <time>2023-05-28T17:03:46.000Z</time>
      </trkpt>
      <trkpt lat="46.19378" lon="-1.40891">
        <ele>53.53256</ele>
        <time>2023-05-28T17:03:47.000Z</time>
      </trkpt>
      <trkpt lat="46.19377" lon="-1.40885">
        <ele>53.57758</ele>
        <time>2023-05-28T17:03:48.000Z</time>
      </trkpt>
      <trkpt lat="46.19375" lon="-1.40879">
        <ele>53.62089</ele>
        <time>2023-05-28T17:03:49.000Z</time>
      </trkpt>
      <trkpt lat="46.19374" lon="-1.40873">
        <ele>53.64961</ele>
        <time>2023-05-28T17:03:50.000Z</time>
      </trkpt>
      <trkpt lat="46.19373" lon="-1.40867">
        <ele>53.67596</ele>
        <time>2023-05-28T17:03:51.000Z</time>
      </trkpt>
      <trkpt lat="46.19372" lon="-1.40861">
        <ele>53.65906</ele>
        <time>2023-05-28T17:03:52.000Z</time>
      </trkpt>
      <trkpt lat="46.1937" lon="-1.40854">
        <ele>53.64827</ele>
        <time>2023-05-28T17:03:53.000Z</time>
      </trkpt>
      <trkpt lat="46.19369" lon="-1.40848">
        <ele>53.6819</ele>
        <time>2023-05-28T17:03:54.000Z</time>
      </trkpt>
      <trkpt lat="46.19367" lon="-1.40843">
        <ele>53.69201</ele>
        <time>2023-05-28T17:03:55.000Z</time>
      </trkpt>
      <trkpt lat="46.19365" lon="-1.40837">
        <ele>53.71989</ele>
        <time>2023-05-28T17:03:56.000Z</time>
      </trkpt>
      <trkpt lat="46.19363" lon="-1.4083">
        <ele>53.69135</ele>
        <time>2023-05-28T17:03:57.000Z</time>
      </trkpt>
      <trkpt lat="46.19361" lon="-1.40824">
        <ele>53.6302</ele>
        <time>2023-05-28T17:03:58.000Z</time>
      </trkpt>
      <trkpt lat="46.1936" lon="-1.40818">
        <ele>53.57257</ele>
        <time>2023-05-28T17:03:59.000Z</time>
      </trkpt>
      <trkpt lat="46.19358" lon="-1.4081">
        <ele>53.52831</ele>
        <time>2023-05-28T17:04:00.000Z</time>
      </trkpt>
      <trkpt lat="46.19356" lon="-1.40803">
        <ele>53.45905</ele>
        <time>2023-05-28T17:04:01.000Z</time>
      </trkpt>
      <trkpt lat="46.19355" lon="-1.40797">
        <ele>53.41583</ele>
        <time>2023-05-28T17:04:02.000Z</time>
      </trkpt>
      <trkpt lat="46.19354" lon="-1.40792">
        <ele>53.389</ele>
        <time>2023-05-28T17:04:03.000Z</time>
      </trkpt>
      <trkpt lat="46.19352" lon="-1.40785">
        <ele>53.34505</ele>
        <time>2023-05-28T17:04:04.000Z</time>
      </trkpt>
      <trkpt lat="46.19351" lon="-1.40778">
        <ele>53.30408</ele>
        <time>2023-05-28T17:04:05.000Z</time>
      </trkpt>
      <trkpt lat="46.19349" lon="-1.40771">
        <ele>53.2793</ele>
        <time>2023-05-28T17:04:06.000Z</time>
      </trkpt>
      <trkpt lat="46.19347" lon="-1.40764">
        <ele>53.23547</ele>
        <time>2023-05-28T17:04:07.000Z</time>
      </trkpt>
      <trkpt lat="46.19345" lon="-1.40758">
        <ele>53.17601</ele>
        <time>2023-05-28T17:04:08.000Z</time>
      </trkpt>
      <trkpt lat="46.19343" lon="-1.40751">
        <ele>53.07327</ele>
        <time>2023-05-28T17:04:09.000Z</time>
      </trkpt>
      <trkpt lat="46.19341" lon="-1.40744">
        <ele>52.99268</ele>
        <time>2023-05-28T17:04:10.000Z</time>
      </trkpt>
      <trkpt lat="46.1934" lon="-1.40738">
        <ele>52.92484</ele>
        <time>2023-05-28T17:04:11.000Z</time>
      </trkpt>
      <trkpt lat="46.19338" lon="-1.40732">
        <ele>52.86409</ele>
        <time>2023-05-28T17:04:12.000Z</time>
      </trkpt>
      <trkpt lat="46.19337" lon="-1.40726">
        <ele>52.78682</ele>
        <time>2023-05-28T17:04:13.000Z</time>
      </trkpt>
      <trkpt lat="46.19334" lon="-1.40718">
        <ele>52.69912</ele>
        <time>2023-05-28T17:04:14.000Z</time>
      </trkpt>
      <trkpt lat="46.19333" lon="-1.40711">
        <ele>52.65754</ele>
        <time>2023-05-28T17:04:15.000Z</time>
      </trkpt>
      <trkpt lat="46.19331" lon="-1.40705">
        <ele>52.60436</ele>
        <time>2023-05-28T17:04:16.000Z</time>
      </trkpt>
      <trkpt lat="46.19329" lon="-1.40697">
        <ele>52.59203</ele>
        <time>2023-05-28T17:04:17.000Z</time>
      </trkpt>
      <trkpt lat="46.19327" lon="-1.40689">
        <ele>52.59789</ele>
        <time>2023-05-28T17:04:18.000Z</time>
      </trkpt>
      <trkpt lat="46.19326" lon="-1.40682">
        <ele>52.63939</ele>
        <time>2023-05-28T17:04:19.000Z</time>
      </trkpt>
      <trkpt lat="46.19324" lon="-1.40675">
        <ele>52.67141</ele>
        <time>2023-05-28T17:04:20.000Z</time>
      </trkpt>
      <trkpt lat="46.19323" lon="-1.40667">
        <ele>52.69612</ele>
        <time>2023-05-28T17:04:21.000Z</time>
      </trkpt>
      <trkpt lat="46.19321" lon="-1.40661">
        <ele>52.72996</ele>
        <time>2023-05-28T17:04:22.000Z</time>
      </trkpt>
      <trkpt lat="46.1932" lon="-1.40653">
        <ele>52.74349</ele>
        <time>2023-05-28T17:04:23.000Z</time>
      </trkpt>
      <trkpt lat="46.1932" lon="-1.40646">
        <ele>52.7501</ele>
        <time>2023-05-28T17:04:24.000Z</time>
      </trkpt>
      <trkpt lat="46.19319" lon="-1.40638">
        <ele>52.73321</ele>
        <time>2023-05-28T17:04:25.000Z</time>
      </trkpt>
      <trkpt lat="46.19318" lon="-1.4063">
        <ele>52.70549</ele>
        <time>2023-05-28T17:04:26.000Z</time>
      </trkpt>
      <trkpt lat="46.19316" lon="-1.40622">
        <ele>52.51102</ele>
        <time>2023-05-28T17:04:27.000Z</time>
      </trkpt>
      <trkpt lat="46.19314" lon="-1.40615">
        <ele>52.31422</ele>
        <time>2023-05-28T17:04:28.000Z</time>
      </trkpt>
      <trkpt lat="46.19312" lon="-1.40608">
        <ele>52.13298</ele>
        <time>2023-05-28T17:04:29.000Z</time>
      </trkpt>
      <trkpt lat="46.19309" lon="-1.406">
        <ele>51.93565</ele>
        <time>2023-05-28T17:04:30.000Z</time>
      </trkpt>
      <trkpt lat="46.19308" lon="-1.40592">
        <ele>51.72359</ele>
        <time>2023-05-28T17:04:31.000Z</time>
      </trkpt>
      <trkpt lat="46.19306" lon="-1.40584">
        <ele>51.50758</ele>
        <time>2023-05-28T17:04:32.000Z</time>
      </trkpt>
      <trkpt lat="46.19304" lon="-1.40577">
        <ele>51.2943</ele>
        <time>2023-05-28T17:04:33.000Z</time>
      </trkpt>
      <trkpt lat="46.19302" lon="-1.40569">
        <ele>51.10122</ele>
        <time>2023-05-28T17:04:34.000Z</time>
      </trkpt>
      <trkpt lat="46.19299" lon="-1.40562">
        <ele>50.90128</ele>
        <time>2023-05-28T17:04:35.000Z</time>
      </trkpt>
      <trkpt lat="46.19298" lon="-1.40554">
        <ele>50.72823</ele>
        <time>2023-05-28T17:04:36.000Z</time>
      </trkpt>
      <trkpt lat="46.19296" lon="-1.40548">
        <ele>50.56216</ele>
        <time>2023-05-28T17:04:37.000Z</time>
      </trkpt>
      <trkpt lat="46.19294" lon="-1.40541">
        <ele>50.40787</ele>
        <time>2023-05-28T17:04:38.000Z</time>
      </trkpt>
      <trkpt lat="46.19292" lon="-1.40534">
        <ele>50.2291</ele>
        <time>2023-05-28T17:04:39.000Z</time>
      </trkpt>
      <trkpt lat="46.1929" lon="-1.40529">
        <ele>50.05018</ele>
        <time>2023-05-28T17:04:40.000Z</time>
      </trkpt>
      <trkpt lat="46.19288" lon="-1.40523">
        <ele>49.88428</ele>
        <time>2023-05-28T17:04:41.000Z</time>
      </trkpt>
      <trkpt lat="46.19286" lon="-1.40517">
        <ele>49.71279</ele>
        <time>2023-05-28T17:04:42.000Z</time>
      </trkpt>
      <trkpt lat="46.19285" lon="-1.40511">
        <ele>49.53049</ele>
        <time>2023-05-28T17:04:43.000Z</time>
      </trkpt>
      <trkpt lat="46.19285" lon="-1.40505">
        <ele>49.36998</ele>
        <time>2023-05-28T17:04:44.000Z</time>
      </trkpt>
      <trkpt lat="46.19284" lon="-1.40499">
        <ele>49.20498</ele>
        <time>2023-05-28T17:04:45.000Z</time>
      </trkpt>
      <trkpt lat="46.19284" lon="-1.40493">
        <ele>49.01783</ele>
        <time>2023-05-28T17:04:46.000Z</time>
      </trkpt>
      <trkpt lat="46.19283" lon="-1.40488">
        <ele>49.00656</ele>
        <time>2023-05-28T17:04:47.000Z</time>
      </trkpt>
      <trkpt lat="46.19282" lon="-1.40484">
        <ele>48.99671</ele>
        <time>2023-05-28T17:04:48.000Z</time>
      </trkpt>
      <trkpt lat="46.1928" lon="-1.4048">
        <ele>49.00747</ele>
        <time>2023-05-28T17:04:49.000Z</time>
      </trkpt>
      <trkpt lat="46.19278" lon="-1.40477">
        <ele>49.00904</ele>
        <time>2023-05-28T17:04:50.000Z</time>
      </trkpt>
      <trkpt lat="46.19276" lon="-1.40474">
        <ele>49.01621</ele>
        <time>2023-05-28T17:04:51.000Z</time>
      </trkpt>
      <trkpt lat="46.19275" lon="-1.4047">
        <ele>49.04866</ele>
        <time>2023-05-28T17:04:53.000Z</time>
      </trkpt>
      <trkpt lat="46.19275" lon="-1.40465">
        <ele>49.01989</ele>
        <time>2023-05-28T17:05:01.000Z</time>
      </trkpt>
      <trkpt lat="46.19274" lon="-1.40462">
        <ele>49.04087</ele>
        <time>2023-05-28T17:05:02.000Z</time>
      </trkpt>
      <trkpt lat="46.19273" lon="-1.40459">
        <ele>49.07611</ele>
        <time>2023-05-28T17:05:03.000Z</time>
      </trkpt>
      <trkpt lat="46.19273" lon="-1.40455">
        <ele>49.09834</ele>
        <time>2023-05-28T17:05:04.000Z</time>
      </trkpt>
      <trkpt lat="46.19272" lon="-1.40452">
        <ele>49.09998</ele>
        <time>2023-05-28T17:05:05.000Z</time>
      </trkpt>
      <trkpt lat="46.19271" lon="-1.4045">
        <ele>49.09064</ele>
        <time>2023-05-28T17:05:06.000Z</time>
      </trkpt>
      <trkpt lat="46.19269" lon="-1.40448">
        <ele>49.07487</ele>
        <time>2023-05-28T17:05:07.000Z</time>
      </trkpt>
      <trkpt lat="46.19268" lon="-1.40446">
        <ele>49.06731</ele>
        <time>2023-05-28T17:05:08.000Z</time>
      </trkpt>
      <trkpt lat="46.19267" lon="-1.40443">
        <ele>49.05358</ele>
        <time>2023-05-28T17:05:09.000Z</time>
      </trkpt>
      <trkpt lat="46.19266" lon="-1.40441">
        <ele>49.05887</ele>
        <time>2023-05-28T17:05:10.000Z</time>
      </trkpt>
      <trkpt lat="46.19267" lon="-1.40437">
        <ele>49.0836</ele>
        <time>2023-05-28T17:05:11.000Z</time>
      </trkpt>
      <trkpt lat="46.19267" lon="-1.40434">
        <ele>49.10184</ele>
        <time>2023-05-28T17:05:12.000Z</time>
      </trkpt>
      <trkpt lat="46.19267" lon="-1.4043">
        <ele>49.11674</ele>
        <time>2023-05-28T17:05:13.000Z</time>
      </trkpt>
      <trkpt lat="46.19267" lon="-1.40426">
        <ele>49.12845</ele>
        <time>2023-05-28T17:05:14.000Z</time>
      </trkpt>
      <trkpt lat="46.19266" lon="-1.40423">
        <ele>49.19836</ele>
        <time>2023-05-28T17:05:15.000Z</time>
      </trkpt>
      <trkpt lat="46.19265" lon="-1.40419">
        <ele>49.30486</ele>
        <time>2023-05-28T17:05:16.000Z</time>
      </trkpt>
      <trkpt lat="46.19264" lon="-1.40415">
        <ele>49.42539</ele>
        <time>2023-05-28T17:05:17.000Z</time>
      </trkpt>
      <trkpt lat="46.19263" lon="-1.40412">
        <ele>49.54976</ele>
        <time>2023-05-28T17:05:18.000Z</time>
      </trkpt>
      <trkpt lat="46.19262" lon="-1.40409">
        <ele>49.68361</ele>
        <time>2023-05-28T17:05:19.000Z</time>
      </trkpt>
      <trkpt lat="46.1926" lon="-1.40406">
        <ele>49.80888</ele>
        <time>2023-05-28T17:05:20.000Z</time>
      </trkpt>
      <trkpt lat="46.19259" lon="-1.40402">
        <ele>49.99152</ele>
        <time>2023-05-28T17:05:21.000Z</time>
      </trkpt>
      <trkpt lat="46.19258" lon="-1.40398">
        <ele>50.11556</ele>
        <time>2023-05-28T17:05:22.000Z</time>
      </trkpt>
      <trkpt lat="46.19257" lon="-1.40394">
        <ele>50.20648</ele>
        <time>2023-05-28T17:05:23.000Z</time>
      </trkpt>
      <trkpt lat="46.19256" lon="-1.40388">
        <ele>50.30511</ele>
        <time>2023-05-28T17:05:24.000Z</time>
      </trkpt>
      <trkpt lat="46.19255" lon="-1.40382">
        <ele>50.41911</ele>
        <time>2023-05-28T17:05:25.000Z</time>
      </trkpt>
      <trkpt lat="46.19254" lon="-1.40376">
        <ele>50.52071</ele>
        <time>2023-05-28T17:05:26.000Z</time>
      </trkpt>
      <trkpt lat="46.19253" lon="-1.4037">
        <ele>50.61878</ele>
        <time>2023-05-28T17:05:27.000Z</time>
      </trkpt>
      <trkpt lat="46.19251" lon="-1.40363">
        <ele>50.69603</ele>
        <time>2023-05-28T17:05:28.000Z</time>
      </trkpt>
      <trkpt lat="46.19249" lon="-1.40356">
        <ele>50.76416</ele>
        <time>2023-05-28T17:05:29.000Z</time>
      </trkpt>
      <trkpt lat="46.19247" lon="-1.40349">
        <ele>50.84609</ele>
        <time>2023-05-28T17:05:30.000Z</time>
      </trkpt>
      <trkpt lat="46.19245" lon="-1.40342">
        <ele>50.92971</ele>
        <time>2023-05-28T17:05:31.000Z</time>
      </trkpt>
      <trkpt lat="46.19242" lon="-1.40335">
        <ele>51.02255</ele>
        <time>2023-05-28T17:05:32.000Z</time>
      </trkpt>
      <trkpt lat="46.19239" lon="-1.40329">
        <ele>51.0194</ele>
        <time>2023-05-28T17:05:33.000Z</time>
      </trkpt>
      <trkpt lat="46.19237" lon="-1.40322">
        <ele>51.05019</ele>
        <time>2023-05-28T17:05:34.000Z</time>
      </trkpt>
      <trkpt lat="46.19235" lon="-1.40314">
        <ele>51.04135</ele>
        <time>2023-05-28T17:05:35.000Z</time>
      </trkpt>
      <trkpt lat="46.19232" lon="-1.40307">
        <ele>51.00739</ele>
        <time>2023-05-28T17:05:36.000Z</time>
      </trkpt>
      <trkpt lat="46.19231" lon="-1.403">
        <ele>50.95817</ele>
        <time>2023-05-28T17:05:37.000Z</time>
      </trkpt>
      <trkpt lat="46.19229" lon="-1.40293">
        <ele>50.91444</ele>
        <time>2023-05-28T17:05:38.000Z</time>
      </trkpt>
      <trkpt lat="46.19228" lon="-1.40286">
        <ele>50.84569</ele>
        <time>2023-05-28T17:05:39.000Z</time>
      </trkpt>
      <trkpt lat="46.19226" lon="-1.40278">
        <ele>50.79519</ele>
        <time>2023-05-28T17:05:40.000Z</time>
      </trkpt>
      <trkpt lat="46.19224" lon="-1.4027">
        <ele>50.75658</ele>
        <time>2023-05-28T17:05:41.000Z</time>
      </trkpt>
      <trkpt lat="46.19222" lon="-1.40262">
        <ele>50.71932</ele>
        <time>2023-05-28T17:05:42.000Z</time>
      </trkpt>
      <trkpt lat="46.1922" lon="-1.40254">
        <ele>50.62806</ele>
        <time>2023-05-28T17:05:43.000Z</time>
      </trkpt>
      <trkpt lat="46.19218" lon="-1.40247">
        <ele>50.71033</ele>
        <time>2023-05-28T17:05:44.000Z</time>
      </trkpt>
      <trkpt lat="46.19217" lon="-1.40239">
        <ele>50.78999</ele>
        <time>2023-05-28T17:05:45.000Z</time>
      </trkpt>
      <trkpt lat="46.19215" lon="-1.40231">
        <ele>50.85232</ele>
        <time>2023-05-28T17:05:46.000Z</time>
      </trkpt>
      <trkpt lat="46.19213" lon="-1.40223">
        <ele>50.90008</ele>
        <time>2023-05-28T17:05:47.000Z</time>
      </trkpt>
      <trkpt lat="46.19211" lon="-1.40216">
        <ele>50.96508</ele>
        <time>2023-05-28T17:05:48.000Z</time>
      </trkpt>
      <trkpt lat="46.19209" lon="-1.40209">
        <ele>51.04137</ele>
        <time>2023-05-28T17:05:49.000Z</time>
      </trkpt>
      <trkpt lat="46.19207" lon="-1.40202">
        <ele>51.10358</ele>
        <time>2023-05-28T17:05:50.000Z</time>
      </trkpt>
      <trkpt lat="46.19205" lon="-1.40196">
        <ele>51.13651</ele>
        <time>2023-05-28T17:05:51.000Z</time>
      </trkpt>
      <trkpt lat="46.19203" lon="-1.40189">
        <ele>51.13262</ele>
        <time>2023-05-28T17:05:52.000Z</time>
      </trkpt>
      <trkpt lat="46.19202" lon="-1.40182">
        <ele>51.23891</ele>
        <time>2023-05-28T17:05:53.000Z</time>
      </trkpt>
      <trkpt lat="46.19201" lon="-1.40176">
        <ele>51.34646</ele>
        <time>2023-05-28T17:05:54.000Z</time>
      </trkpt>
      <trkpt lat="46.192" lon="-1.40169">
        <ele>51.43555</ele>
        <time>2023-05-28T17:05:55.000Z</time>
      </trkpt>
      <trkpt lat="46.19198" lon="-1.40163">
        <ele>51.52328</ele>
        <time>2023-05-28T17:05:56.000Z</time>
      </trkpt>
      <trkpt lat="46.19197" lon="-1.40156">
        <ele>51.60087</ele>
        <time>2023-05-28T17:05:57.000Z</time>
      </trkpt>
      <trkpt lat="46.19195" lon="-1.40151">
        <ele>51.68556</ele>
        <time>2023-05-28T17:05:58.000Z</time>
      </trkpt>
      <trkpt lat="46.19193" lon="-1.40144">
        <ele>51.78794</ele>
        <time>2023-05-28T17:05:59.000Z</time>
      </trkpt>
      <trkpt lat="46.19191" lon="-1.40137">
        <ele>51.87447</ele>
        <time>2023-05-28T17:06:00.000Z</time>
      </trkpt>
      <trkpt lat="46.1919" lon="-1.4013">
        <ele>51.94208</ele>
        <time>2023-05-28T17:06:01.000Z</time>
      </trkpt>
      <trkpt lat="46.19188" lon="-1.40122">
        <ele>52.01038</ele>
        <time>2023-05-28T17:06:02.000Z</time>
      </trkpt>
      <trkpt lat="46.19186" lon="-1.40115">
        <ele>52.16636</ele>
        <time>2023-05-28T17:06:03.000Z</time>
      </trkpt>
      <trkpt lat="46.19184" lon="-1.40108">
        <ele>52.14993</ele>
        <time>2023-05-28T17:06:04.000Z</time>
      </trkpt>
      <trkpt lat="46.19182" lon="-1.40101">
        <ele>52.03162</ele>
        <time>2023-05-28T17:06:05.000Z</time>
      </trkpt>
      <trkpt lat="46.1918" lon="-1.40094">
        <ele>51.94828</ele>
        <time>2023-05-28T17:06:06.000Z</time>
      </trkpt>
      <trkpt lat="46.19178" lon="-1.40088">
        <ele>51.89075</ele>
        <time>2023-05-28T17:06:07.000Z</time>
      </trkpt>
      <trkpt lat="46.19177" lon="-1.4008">
        <ele>51.81947</ele>
        <time>2023-05-28T17:06:08.000Z</time>
      </trkpt>
      <trkpt lat="46.19175" lon="-1.40073">
        <ele>51.7449</ele>
        <time>2023-05-28T17:06:09.000Z</time>
      </trkpt>
      <trkpt lat="46.19173" lon="-1.40066">
        <ele>51.64722</ele>
        <time>2023-05-28T17:06:10.000Z</time>
      </trkpt>
      <trkpt lat="46.19172" lon="-1.40058">
        <ele>51.55816</ele>
        <time>2023-05-28T17:06:11.000Z</time>
      </trkpt>
      <trkpt lat="46.19169" lon="-1.40051">
        <ele>51.5797</ele>
        <time>2023-05-28T17:06:12.000Z</time>
      </trkpt>
      <trkpt lat="46.19168" lon="-1.40045">
        <ele>51.60653</ele>
        <time>2023-05-28T17:06:13.000Z</time>
      </trkpt>
      <trkpt lat="46.19166" lon="-1.40037">
        <ele>51.63393</ele>
        <time>2023-05-28T17:06:14.000Z</time>
      </trkpt>
      <trkpt lat="46.19164" lon="-1.4003">
        <ele>51.64808</ele>
        <time>2023-05-28T17:06:15.000Z</time>
      </trkpt>
      <trkpt lat="46.19162" lon="-1.40023">
        <ele>51.6688</ele>
        <time>2023-05-28T17:06:16.000Z</time>
      </trkpt>
      <trkpt lat="46.19159" lon="-1.40018">
        <ele>51.70378</ele>
        <time>2023-05-28T17:06:17.000Z</time>
      </trkpt>
      <trkpt lat="46.19156" lon="-1.40011">
        <ele>51.73632</ele>
        <time>2023-05-28T17:06:18.000Z</time>
      </trkpt>
      <trkpt lat="46.19154" lon="-1.40004">
        <ele>51.78135</ele>
        <time>2023-05-28T17:06:19.000Z</time>
      </trkpt>
      <trkpt lat="46.19152" lon="-1.39997">
        <ele>51.69075</ele>
        <time>2023-05-28T17:06:20.000Z</time>
      </trkpt>
      <trkpt lat="46.19151" lon="-1.3999">
        <ele>51.57922</ele>
        <time>2023-05-28T17:06:21.000Z</time>
      </trkpt>
      <trkpt lat="46.19149" lon="-1.39983">
        <ele>51.62927</ele>
        <time>2023-05-28T17:06:22.000Z</time>
      </trkpt>
      <trkpt lat="46.19147" lon="-1.39975">
        <ele>51.65506</ele>
        <time>2023-05-28T17:06:23.000Z</time>
      </trkpt>
      <trkpt lat="46.19145" lon="-1.39968">
        <ele>51.67594</ele>
        <time>2023-05-28T17:06:24.000Z</time>
      </trkpt>
      <trkpt lat="46.19142" lon="-1.39961">
        <ele>51.79903</ele>
        <time>2023-05-28T17:06:25.000Z</time>
      </trkpt>
      <trkpt lat="46.1914" lon="-1.39955">
        <ele>51.82458</ele>
        <time>2023-05-28T17:06:26.000Z</time>
      </trkpt>
      <trkpt lat="46.19137" lon="-1.39948">
        <ele>51.8905</ele>
        <time>2023-05-28T17:06:27.000Z</time>
      </trkpt>
      <trkpt lat="46.19135" lon="-1.39941">
        <ele>51.97454</ele>
        <time>2023-05-28T17:06:28.000Z</time>
      </trkpt>
      <trkpt lat="46.19133" lon="-1.39934">
        <ele>52.06629</ele>
        <time>2023-05-28T17:06:29.000Z</time>
      </trkpt>
      <trkpt lat="46.19131" lon="-1.39927">
        <ele>52.16833</ele>
        <time>2023-05-28T17:06:30.000Z</time>
      </trkpt>
      <trkpt lat="46.19129" lon="-1.3992">
        <ele>52.26935</ele>
        <time>2023-05-28T17:06:31.000Z</time>
      </trkpt>
      <trkpt lat="46.19126" lon="-1.39913">
        <ele>52.31704</ele>
        <time>2023-05-28T17:06:32.000Z</time>
      </trkpt>
      <trkpt lat="46.19124" lon="-1.39905">
        <ele>52.36768</ele>
        <time>2023-05-28T17:06:33.000Z</time>
      </trkpt>
      <trkpt lat="46.19122" lon="-1.39898">
        <ele>52.34484</ele>
        <time>2023-05-28T17:06:34.000Z</time>
      </trkpt>
      <trkpt lat="46.19119" lon="-1.39891">
        <ele>52.42429</ele>
        <time>2023-05-28T17:06:35.000Z</time>
      </trkpt>
      <trkpt lat="46.19118" lon="-1.39884">
        <ele>52.48668</ele>
        <time>2023-05-28T17:06:36.000Z</time>
      </trkpt>
      <trkpt lat="46.19115" lon="-1.39877">
        <ele>52.55598</ele>
        <time>2023-05-28T17:06:37.000Z</time>
      </trkpt>
      <trkpt lat="46.19112" lon="-1.39869">
        <ele>52.6012</ele>
        <time>2023-05-28T17:06:38.000Z</time>
      </trkpt>
      <trkpt lat="46.19109" lon="-1.39861">
        <ele>52.66007</ele>
        <time>2023-05-28T17:06:39.000Z</time>
      </trkpt>
      <trkpt lat="46.19107" lon="-1.39854">
        <ele>52.83968</ele>
        <time>2023-05-28T17:06:40.000Z</time>
      </trkpt>
      <trkpt lat="46.19104" lon="-1.39847">
        <ele>53.06193</ele>
        <time>2023-05-28T17:06:41.000Z</time>
      </trkpt>
      <trkpt lat="46.19102" lon="-1.39839">
        <ele>53.14078</ele>
        <time>2023-05-28T17:06:42.000Z</time>
      </trkpt>
      <trkpt lat="46.191" lon="-1.39832">
        <ele>53.2175</ele>
        <time>2023-05-28T17:06:43.000Z</time>
      </trkpt>
      <trkpt lat="46.19098" lon="-1.39825">
        <ele>53.24775</ele>
        <time>2023-05-28T17:06:44.000Z</time>
      </trkpt>
      <trkpt lat="46.19096" lon="-1.39818">
        <ele>53.284</ele>
        <time>2023-05-28T17:06:45.000Z</time>
      </trkpt>
      <trkpt lat="46.19094" lon="-1.39812">
        <ele>53.42228</ele>
        <time>2023-05-28T17:06:46.000Z</time>
      </trkpt>
      <trkpt lat="46.19091" lon="-1.39806">
        <ele>53.51199</ele>
        <time>2023-05-28T17:06:47.000Z</time>
      </trkpt>
      <trkpt lat="46.19088" lon="-1.39801">
        <ele>53.56669</ele>
        <time>2023-05-28T17:06:48.000Z</time>
      </trkpt>
      <trkpt lat="46.19085" lon="-1.39795">
        <ele>53.59817</ele>
        <time>2023-05-28T17:06:49.000Z</time>
      </trkpt>
      <trkpt lat="46.19084" lon="-1.39789">
        <ele>53.63303</ele>
        <time>2023-05-28T17:06:50.000Z</time>
      </trkpt>
      <trkpt lat="46.19081" lon="-1.39783">
        <ele>53.66477</ele>
        <time>2023-05-28T17:06:51.000Z</time>
      </trkpt>
      <trkpt lat="46.19079" lon="-1.39777">
        <ele>53.72086</ele>
        <time>2023-05-28T17:06:52.000Z</time>
      </trkpt>
      <trkpt lat="46.19077" lon="-1.39771">
        <ele>53.77634</ele>
        <time>2023-05-28T17:06:53.000Z</time>
      </trkpt>
      <trkpt lat="46.19075" lon="-1.39764">
        <ele>53.90856</ele>
        <time>2023-05-28T17:06:54.000Z</time>
      </trkpt>
      <trkpt lat="46.19072" lon="-1.39758">
        <ele>53.94216</ele>
        <time>2023-05-28T17:06:55.000Z</time>
      </trkpt>
      <trkpt lat="46.1907" lon="-1.39752">
        <ele>53.98755</ele>
        <time>2023-05-28T17:06:56.000Z</time>
      </trkpt>
      <trkpt lat="46.19067" lon="-1.39746">
        <ele>54.02273</ele>
        <time>2023-05-28T17:06:57.000Z</time>
      </trkpt>
      <trkpt lat="46.19065" lon="-1.3974">
        <ele>54.0866</ele>
        <time>2023-05-28T17:06:58.000Z</time>
      </trkpt>
      <trkpt lat="46.19063" lon="-1.39734">
        <ele>54.10875</ele>
        <time>2023-05-28T17:06:59.000Z</time>
      </trkpt>
      <trkpt lat="46.19061" lon="-1.39727">
        <ele>54.13278</ele>
        <time>2023-05-28T17:07:00.000Z</time>
      </trkpt>
      <trkpt lat="46.19059" lon="-1.39721">
        <ele>54.13408</ele>
        <time>2023-05-28T17:07:01.000Z</time>
      </trkpt>
      <trkpt lat="46.19057" lon="-1.39714">
        <ele>54.12485</ele>
        <time>2023-05-28T17:07:02.000Z</time>
      </trkpt>
      <trkpt lat="46.19055" lon="-1.39708">
        <ele>54.09938</ele>
        <time>2023-05-28T17:07:03.000Z</time>
      </trkpt>
      <trkpt lat="46.19053" lon="-1.39702">
        <ele>54.11657</ele>
        <time>2023-05-28T17:07:04.000Z</time>
      </trkpt>
      <trkpt lat="46.1905" lon="-1.39696">
        <ele>54.1311</ele>
        <time>2023-05-28T17:07:05.000Z</time>
      </trkpt>
      <trkpt lat="46.19048" lon="-1.39689">
        <ele>54.12162</ele>
        <time>2023-05-28T17:07:06.000Z</time>
      </trkpt>
      <trkpt lat="46.19045" lon="-1.39683">
        <ele>54.10393</ele>
        <time>2023-05-28T17:07:07.000Z</time>
      </trkpt>
      <trkpt lat="46.19044" lon="-1.39677">
        <ele>54.112</ele>
        <time>2023-05-28T17:07:08.000Z</time>
      </trkpt>
      <trkpt lat="46.19042" lon="-1.3967">
        <ele>54.12651</ele>
        <time>2023-05-28T17:07:09.000Z</time>
      </trkpt>
      <trkpt lat="46.1904" lon="-1.39664">
        <ele>53.99321</ele>
        <time>2023-05-28T17:07:10.000Z</time>
      </trkpt>
      <trkpt lat="46.19038" lon="-1.39658">
        <ele>53.86247</ele>
        <time>2023-05-28T17:07:11.000Z</time>
      </trkpt>
      <trkpt lat="46.19036" lon="-1.39652">
        <ele>53.81885</ele>
        <time>2023-05-28T17:07:12.000Z</time>
      </trkpt>
      <trkpt lat="46.19034" lon="-1.39647">
        <ele>53.76347</ele>
        <time>2023-05-28T17:07:13.000Z</time>
      </trkpt>
      <trkpt lat="46.19032" lon="-1.39643">
        <ele>53.71059</ele>
        <time>2023-05-28T17:07:14.000Z</time>
      </trkpt>
      <trkpt lat="46.19031" lon="-1.39638">
        <ele>53.68526</ele>
        <time>2023-05-28T17:07:15.000Z</time>
      </trkpt>
      <trkpt lat="46.1903" lon="-1.39634">
        <ele>53.54082</ele>
        <time>2023-05-28T17:07:16.000Z</time>
      </trkpt>
      <trkpt lat="46.19029" lon="-1.39629">
        <ele>53.40742</ele>
        <time>2023-05-28T17:07:17.000Z</time>
      </trkpt>
      <trkpt lat="46.19027" lon="-1.39625">
        <ele>53.2671</ele>
        <time>2023-05-28T17:07:18.000Z</time>
      </trkpt>
      <trkpt lat="46.19025" lon="-1.39621">
        <ele>53.11801</ele>
        <time>2023-05-28T17:07:19.000Z</time>
      </trkpt>
      <trkpt lat="46.19024" lon="-1.39616">
        <ele>52.97683</ele>
        <time>2023-05-28T17:07:20.000Z</time>
      </trkpt>
      <trkpt lat="46.19023" lon="-1.39612">
        <ele>52.85101</ele>
        <time>2023-05-28T17:07:21.000Z</time>
      </trkpt>
      <trkpt lat="46.19023" lon="-1.39608">
        <ele>52.73173</ele>
        <time>2023-05-28T17:07:22.000Z</time>
      </trkpt>
      <trkpt lat="46.19022" lon="-1.39604">
        <ele>52.62859</ele>
        <time>2023-05-28T17:07:23.000Z</time>
      </trkpt>
      <trkpt lat="46.19021" lon="-1.396">
        <ele>52.62675</ele>
        <time>2023-05-28T17:07:24.000Z</time>
      </trkpt>
      <trkpt lat="46.19019" lon="-1.39596">
        <ele>52.62337</ele>
        <time>2023-05-28T17:07:25.000Z</time>
      </trkpt>
      <trkpt lat="46.19017" lon="-1.39592">
        <ele>52.62355</ele>
        <time>2023-05-28T17:07:26.000Z</time>
      </trkpt>
      <trkpt lat="46.19015" lon="-1.39588">
        <ele>52.62981</ele>
        <time>2023-05-28T17:07:27.000Z</time>
      </trkpt>
      <trkpt lat="46.19013" lon="-1.39584">
        <ele>52.6174</ele>
        <time>2023-05-28T17:07:28.000Z</time>
      </trkpt>
      <trkpt lat="46.19011" lon="-1.39579">
        <ele>52.52636</ele>
        <time>2023-05-28T17:07:29.000Z</time>
      </trkpt>
      <trkpt lat="46.19009" lon="-1.39575">
        <ele>52.59011</ele>
        <time>2023-05-28T17:07:30.000Z</time>
      </trkpt>
      <trkpt lat="46.19007" lon="-1.3957">
        <ele>52.7767</ele>
        <time>2023-05-28T17:07:31.000Z</time>
      </trkpt>
      <trkpt lat="46.19005" lon="-1.39566">
        <ele>52.72429</ele>
        <time>2023-05-28T17:07:32.000Z</time>
      </trkpt>
      <trkpt lat="46.19003" lon="-1.39561">
        <ele>52.68592</ele>
        <time>2023-05-28T17:07:33.000Z</time>
      </trkpt>
      <trkpt lat="46.19" lon="-1.39556">
        <ele>52.64141</ele>
        <time>2023-05-28T17:07:34.000Z</time>
      </trkpt>
      <trkpt lat="46.18998" lon="-1.39551">
        <ele>52.58403</ele>
        <time>2023-05-28T17:07:35.000Z</time>
      </trkpt>
      <trkpt lat="46.18997" lon="-1.39545">
        <ele>52.62144</ele>
        <time>2023-05-28T17:07:36.000Z</time>
      </trkpt>
      <trkpt lat="46.18995" lon="-1.3954">
        <ele>52.6499</ele>
        <time>2023-05-28T17:07:37.000Z</time>
      </trkpt>
      <trkpt lat="46.18993" lon="-1.39535">
        <ele>52.68911</ele>
        <time>2023-05-28T17:07:38.000Z</time>
      </trkpt>
      <trkpt lat="46.1899" lon="-1.3953">
        <ele>52.75145</ele>
        <time>2023-05-28T17:07:39.000Z</time>
      </trkpt>
      <trkpt lat="46.18988" lon="-1.39525">
        <ele>52.75297</ele>
        <time>2023-05-28T17:07:40.000Z</time>
      </trkpt>
      <trkpt lat="46.18986" lon="-1.3952">
        <ele>52.75803</ele>
        <time>2023-05-28T17:07:41.000Z</time>
      </trkpt>
      <trkpt lat="46.18984" lon="-1.39515">
        <ele>52.71004</ele>
        <time>2023-05-28T17:07:42.000Z</time>
      </trkpt>
      <trkpt lat="46.18982" lon="-1.3951">
        <ele>52.76697</ele>
        <time>2023-05-28T17:07:43.000Z</time>
      </trkpt>
      <trkpt lat="46.18981" lon="-1.39506">
        <ele>52.70437</ele>
        <time>2023-05-28T17:07:44.000Z</time>
      </trkpt>
      <trkpt lat="46.18979" lon="-1.39502">
        <ele>52.6241</ele>
        <time>2023-05-28T17:07:45.000Z</time>
      </trkpt>
      <trkpt lat="46.18977" lon="-1.39498">
        <ele>52.54015</ele>
        <time>2023-05-28T17:07:46.000Z</time>
      </trkpt>
      <trkpt lat="46.18976" lon="-1.39494">
        <ele>52.45703</ele>
        <time>2023-05-28T17:07:47.000Z</time>
      </trkpt>
      <trkpt lat="46.18975" lon="-1.3949">
        <ele>52.37024</ele>
        <time>2023-05-28T17:07:48.000Z</time>
      </trkpt>
      <trkpt lat="46.18973" lon="-1.39487">
        <ele>52.36662</ele>
        <time>2023-05-28T17:07:49.000Z</time>
      </trkpt>
      <trkpt lat="46.18973" lon="-1.39484">
        <ele>52.34684</ele>
        <time>2023-05-28T17:07:50.000Z</time>
      </trkpt>
      <trkpt lat="46.18972" lon="-1.39481">
        <ele>52.15982</ele>
        <time>2023-05-28T17:07:51.000Z</time>
      </trkpt>
      <trkpt lat="46.18972" lon="-1.39478">
        <ele>52.06092</ele>
        <time>2023-05-28T17:07:52.000Z</time>
      </trkpt>
      <trkpt lat="46.18972" lon="-1.39475">
        <ele>52.05392</ele>
        <time>2023-05-28T17:07:53.000Z</time>
      </trkpt>
      <trkpt lat="46.18972" lon="-1.39471">
        <ele>52.03638</ele>
        <time>2023-05-28T17:07:54.000Z</time>
      </trkpt>
      <trkpt lat="46.18972" lon="-1.39467">
        <ele>52.00404</ele>
        <time>2023-05-28T17:07:55.000Z</time>
      </trkpt>
      <trkpt lat="46.18971" lon="-1.39463">
        <ele>51.98778</ele>
        <time>2023-05-28T17:07:56.000Z</time>
      </trkpt>
      <trkpt lat="46.1897" lon="-1.39459">
        <ele>51.98981</ele>
        <time>2023-05-28T17:07:57.000Z</time>
      </trkpt>
      <trkpt lat="46.1897" lon="-1.39456">
        <ele>51.9829</ele>
        <time>2023-05-28T17:07:58.000Z</time>
      </trkpt>
      <trkpt lat="46.18969" lon="-1.39453">
        <ele>51.99372</ele>
        <time>2023-05-28T17:07:59.000Z</time>
      </trkpt>
      <trkpt lat="46.18968" lon="-1.3945">
        <ele>52.04024</ele>
        <time>2023-05-28T17:08:00.000Z</time>
      </trkpt>
      <trkpt lat="46.18966" lon="-1.39447">
        <ele>52.07557</ele>
        <time>2023-05-28T17:08:02.000Z</time>
      </trkpt>
      <trkpt lat="46.18964" lon="-1.39447">
        <ele>52.13581</ele>
        <time>2023-05-28T17:08:03.000Z</time>
      </trkpt>
      <trkpt lat="46.18961" lon="-1.39446">
        <ele>52.07978</ele>
        <time>2023-05-28T17:08:04.000Z</time>
      </trkpt>
      <trkpt lat="46.18959" lon="-1.39445">
        <ele>52.04359</ele>
        <time>2023-05-28T17:08:05.000Z</time>
      </trkpt>
      <trkpt lat="46.18957" lon="-1.39443">
        <ele>51.97398</ele>
        <time>2023-05-28T17:08:06.000Z</time>
      </trkpt>
      <trkpt lat="46.18955" lon="-1.39441">
        <ele>51.88142</ele>
        <time>2023-05-28T17:08:07.000Z</time>
      </trkpt>
      <trkpt lat="46.18954" lon="-1.39437">
        <ele>51.88549</ele>
        <time>2023-05-28T17:08:08.000Z</time>
      </trkpt>
      <trkpt lat="46.18953" lon="-1.39434">
        <ele>51.88237</ele>
        <time>2023-05-28T17:08:09.000Z</time>
      </trkpt>
      <trkpt lat="46.18952" lon="-1.3943">
        <ele>51.89379</ele>
        <time>2023-05-28T17:08:10.000Z</time>
      </trkpt>
      <trkpt lat="46.18951" lon="-1.39426">
        <ele>51.91992</ele>
        <time>2023-05-28T17:08:11.000Z</time>
      </trkpt>
      <trkpt lat="46.18949" lon="-1.39423">
        <ele>52.01837</ele>
        <time>2023-05-28T17:08:12.000Z</time>
      </trkpt>
      <trkpt lat="46.18947" lon="-1.39419">
        <ele>52.05096</ele>
        <time>2023-05-28T17:08:13.000Z</time>
      </trkpt>
      <trkpt lat="46.18946" lon="-1.39416">
        <ele>52.16939</ele>
        <time>2023-05-28T17:08:14.000Z</time>
      </trkpt>
      <trkpt lat="46.18945" lon="-1.39412">
        <ele>52.29485</ele>
        <time>2023-05-28T17:08:15.000Z</time>
      </trkpt>
      <trkpt lat="46.18943" lon="-1.39408">
        <ele>52.42714</ele>
        <time>2023-05-28T17:08:16.000Z</time>
      </trkpt>
      <trkpt lat="46.18942" lon="-1.39404">
        <ele>52.55616</ele>
        <time>2023-05-28T17:08:17.000Z</time>
      </trkpt>
      <trkpt lat="46.1894" lon="-1.394">
        <ele>52.66808</ele>
        <time>2023-05-28T17:08:18.000Z</time>
      </trkpt>
      <trkpt lat="46.18939" lon="-1.39396">
        <ele>52.78036</ele>
        <time>2023-05-28T17:08:19.000Z</time>
      </trkpt>
      <trkpt lat="46.18938" lon="-1.39392">
        <ele>52.85325</ele>
        <time>2023-05-28T17:08:20.000Z</time>
      </trkpt>
      <trkpt lat="46.18936" lon="-1.39389">
        <ele>52.92315</ele>
        <time>2023-05-28T17:08:21.000Z</time>
      </trkpt>
      <trkpt lat="46.18935" lon="-1.39386">
        <ele>53.05822</ele>
        <time>2023-05-28T17:08:22.000Z</time>
      </trkpt>
      <trkpt lat="46.18933" lon="-1.39382">
        <ele>53.20928</ele>
        <time>2023-05-28T17:08:23.000Z</time>
      </trkpt>
      <trkpt lat="46.18931" lon="-1.39379">
        <ele>53.36058</ele>
        <time>2023-05-28T17:08:24.000Z</time>
      </trkpt>
      <trkpt lat="46.1893" lon="-1.39375">
        <ele>53.51183</ele>
        <time>2023-05-28T17:08:25.000Z</time>
      </trkpt>
      <trkpt lat="46.18929" lon="-1.39371">
        <ele>53.69739</ele>
        <time>2023-05-28T17:08:26.000Z</time>
      </trkpt>
      <trkpt lat="46.18929" lon="-1.39367">
        <ele>53.90197</ele>
        <time>2023-05-28T17:08:27.000Z</time>
      </trkpt>
      <trkpt lat="46.18929" lon="-1.39364">
        <ele>54.02338</ele>
        <time>2023-05-28T17:08:28.000Z</time>
      </trkpt>
      <trkpt lat="46.18928" lon="-1.39361">
        <ele>54.16677</ele>
        <time>2023-05-28T17:08:29.000Z</time>
      </trkpt>
      <trkpt lat="46.18928" lon="-1.39357">
        <ele>54.2909</ele>
        <time>2023-05-28T17:08:30.000Z</time>
      </trkpt>
      <trkpt lat="46.18927" lon="-1.39354">
        <ele>54.41084</ele>
        <time>2023-05-28T17:08:31.000Z</time>
      </trkpt>
      <trkpt lat="46.18926" lon="-1.39352">
        <ele>54.50959</ele>
        <time>2023-05-28T17:08:32.000Z</time>
      </trkpt>
      <trkpt lat="46.18925" lon="-1.3935">
        <ele>54.69298</ele>
        <time>2023-05-28T17:08:33.000Z</time>
      </trkpt>
      <trkpt lat="46.18923" lon="-1.39348">
        <ele>54.69458</ele>
        <time>2023-05-28T17:08:34.000Z</time>
      </trkpt>
      <trkpt lat="46.1892" lon="-1.39347">
        <ele>54.72076</ele>
        <time>2023-05-28T17:08:35.000Z</time>
      </trkpt>
      <trkpt lat="46.18919" lon="-1.39345">
        <ele>54.52759</ele>
        <time>2023-05-28T17:08:36.000Z</time>
      </trkpt>
      <trkpt lat="46.18918" lon="-1.39341">
        <ele>54.43453</ele>
        <time>2023-05-28T17:08:38.000Z</time>
      </trkpt>
      <trkpt lat="46.18919" lon="-1.39337">
        <ele>54.33124</ele>
        <time>2023-05-28T17:08:40.000Z</time>
      </trkpt>
      <trkpt lat="46.18922" lon="-1.39334">
        <ele>54.24012</ele>
        <time>2023-05-28T17:08:42.000Z</time>
      </trkpt>
      <trkpt lat="46.18925" lon="-1.39334">
        <ele>54.18923</ele>
        <time>2023-05-28T17:08:43.000Z</time>
      </trkpt>
      <trkpt lat="46.18928" lon="-1.39335">
        <ele>54.14305</ele>
        <time>2023-05-28T17:08:44.000Z</time>
      </trkpt>
      <trkpt lat="46.18932" lon="-1.39335">
        <ele>54.00904</ele>
        <time>2023-05-28T17:08:45.000Z</time>
      </trkpt>
      <trkpt lat="46.18936" lon="-1.39335">
        <ele>53.88114</ele>
        <time>2023-05-28T17:08:46.000Z</time>
      </trkpt>
      <trkpt lat="46.18941" lon="-1.39335">
        <ele>53.78374</ele>
        <time>2023-05-28T17:08:47.000Z</time>
      </trkpt>
      <trkpt lat="46.18945" lon="-1.39335">
        <ele>53.59908</ele>
        <time>2023-05-28T17:08:48.000Z</time>
      </trkpt>
      <trkpt lat="46.18949" lon="-1.39335">
        <ele>53.59696</ele>
        <time>2023-05-28T17:08:49.000Z</time>
      </trkpt>
      <trkpt lat="46.18953" lon="-1.39335">
        <ele>53.64063</ele>
        <time>2023-05-28T17:08:50.000Z</time>
      </trkpt>
      <trkpt lat="46.18956" lon="-1.39336">
        <ele>53.68263</ele>
        <time>2023-05-28T17:08:51.000Z</time>
      </trkpt>
      <trkpt lat="46.18959" lon="-1.39336">
        <ele>53.72929</ele>
        <time>2023-05-28T17:08:52.000Z</time>
      </trkpt>
      <trkpt lat="46.18961" lon="-1.39334">
        <ele>53.80602</ele>
        <time>2023-05-28T17:08:54.000Z</time>
      </trkpt>
      <trkpt lat="46.18959" lon="-1.39333">
        <ele>53.74308</ele>
        <time>2023-05-28T17:09:04.000Z</time>
      </trkpt>
      <trkpt lat="46.18956" lon="-1.39334">
        <ele>53.67091</ele>
        <time>2023-05-28T17:09:05.000Z</time>
      </trkpt>
      <trkpt lat="46.18954" lon="-1.39335">
        <ele>53.60382</ele>
        <time>2023-05-28T17:09:06.000Z</time>
      </trkpt>
      <trkpt lat="46.18951" lon="-1.39337">
        <ele>53.54697</ele>
        <time>2023-05-28T17:09:07.000Z</time>
      </trkpt>
      <trkpt lat="46.18948" lon="-1.39338">
        <ele>53.46327</ele>
        <time>2023-05-28T17:09:08.000Z</time>
      </trkpt>
      <trkpt lat="46.18945" lon="-1.39339">
        <ele>53.59371</ele>
        <time>2023-05-28T17:09:09.000Z</time>
      </trkpt>
      <trkpt lat="46.18942" lon="-1.39339">
        <ele>53.60899</ele>
        <time>2023-05-28T17:09:10.000Z</time>
      </trkpt>
      <trkpt lat="46.18939" lon="-1.39339">
        <ele>53.63264</ele>
        <time>2023-05-28T17:09:11.000Z</time>
      </trkpt>
      <trkpt lat="46.18936" lon="-1.39339">
        <ele>53.62236</ele>
        <time>2023-05-28T17:09:12.000Z</time>
      </trkpt>
      <trkpt lat="46.18933" lon="-1.39339">
        <ele>53.53205</ele>
        <time>2023-05-28T17:09:13.000Z</time>
      </trkpt>
      <trkpt lat="46.1893" lon="-1.39339">
        <ele>53.43937</ele>
        <time>2023-05-28T17:09:14.000Z</time>
      </trkpt>
      <trkpt lat="46.18926" lon="-1.39339">
        <ele>53.37142</ele>
        <time>2023-05-28T17:09:15.000Z</time>
      </trkpt>
      <trkpt lat="46.18923" lon="-1.39339">
        <ele>53.26594</ele>
        <time>2023-05-28T17:09:16.000Z</time>
      </trkpt>
      <trkpt lat="46.18921" lon="-1.39339">
        <ele>53.22992</ele>
        <time>2023-05-28T17:09:17.000Z</time>
      </trkpt>
      <trkpt lat="46.18918" lon="-1.39337">
        <ele>53.2746</ele>
        <time>2023-05-28T17:09:18.000Z</time>
      </trkpt>
      <trkpt lat="46.18916" lon="-1.39334">
        <ele>53.15479</ele>
        <time>2023-05-28T17:09:19.000Z</time>
      </trkpt>
      <trkpt lat="46.18914" lon="-1.39329">
        <ele>53.00909</ele>
        <time>2023-05-28T17:09:20.000Z</time>
      </trkpt>
      <trkpt lat="46.18912" lon="-1.39324">
        <ele>52.84788</ele>
        <time>2023-05-28T17:09:21.000Z</time>
      </trkpt>
      <trkpt lat="46.18911" lon="-1.39319">
        <ele>52.68034</ele>
        <time>2023-05-28T17:09:22.000Z</time>
      </trkpt>
      <trkpt lat="46.18909" lon="-1.39314">
        <ele>52.48367</ele>
        <time>2023-05-28T17:09:23.000Z</time>
      </trkpt>
      <trkpt lat="46.18908" lon="-1.39308">
        <ele>52.42635</ele>
        <time>2023-05-28T17:09:24.000Z</time>
      </trkpt>
      <trkpt lat="46.18907" lon="-1.39303">
        <ele>52.37202</ele>
        <time>2023-05-28T17:09:25.000Z</time>
      </trkpt>
      <trkpt lat="46.18907" lon="-1.39297">
        <ele>52.29694</ele>
        <time>2023-05-28T17:09:26.000Z</time>
      </trkpt>
      <trkpt lat="46.18906" lon="-1.39292">
        <ele>52.22185</ele>
        <time>2023-05-28T17:09:27.000Z</time>
      </trkpt>
      <trkpt lat="46.18905" lon="-1.39287">
        <ele>52.14506</ele>
        <time>2023-05-28T17:09:28.000Z</time>
      </trkpt>
      <trkpt lat="46.18903" lon="-1.39282">
        <ele>52.03827</ele>
        <time>2023-05-28T17:09:29.000Z</time>
      </trkpt>
      <trkpt lat="46.18902" lon="-1.39277">
        <ele>51.94158</ele>
        <time>2023-05-28T17:09:30.000Z</time>
      </trkpt>
      <trkpt lat="46.18901" lon="-1.39272">
        <ele>51.83022</ele>
        <time>2023-05-28T17:09:31.000Z</time>
      </trkpt>
      <trkpt lat="46.189" lon="-1.39267">
        <ele>51.70512</ele>
        <time>2023-05-28T17:09:32.000Z</time>
      </trkpt>
      <trkpt lat="46.18899" lon="-1.39262">
        <ele>51.74559</ele>
        <time>2023-05-28T17:09:33.000Z</time>
      </trkpt>
      <trkpt lat="46.18898" lon="-1.39257">
        <ele>51.78046</ele>
        <time>2023-05-28T17:09:34.000Z</time>
      </trkpt>
      <trkpt lat="46.18897" lon="-1.39252">
        <ele>51.82546</ele>
        <time>2023-05-28T17:09:35.000Z</time>
      </trkpt>
      <trkpt lat="46.18897" lon="-1.39247">
        <ele>51.89736</ele>
        <time>2023-05-28T17:09:36.000Z</time>
      </trkpt>
      <trkpt lat="46.18896" lon="-1.39243">
        <ele>51.80538</ele>
        <time>2023-05-28T17:09:37.000Z</time>
      </trkpt>
      <trkpt lat="46.18896" lon="-1.39238">
        <ele>51.72892</ele>
        <time>2023-05-28T17:09:38.000Z</time>
      </trkpt>
      <trkpt lat="46.18896" lon="-1.39234">
        <ele>51.62562</ele>
        <time>2023-05-28T17:09:39.000Z</time>
      </trkpt>
      <trkpt lat="46.18895" lon="-1.39229">
        <ele>51.62839</ele>
        <time>2023-05-28T17:09:40.000Z</time>
      </trkpt>
      <trkpt lat="46.18895" lon="-1.39224">
        <ele>51.6021</ele>
        <time>2023-05-28T17:09:41.000Z</time>
      </trkpt>
      <trkpt lat="46.18894" lon="-1.3922">
        <ele>51.56592</ele>
        <time>2023-05-28T17:09:42.000Z</time>
      </trkpt>
      <trkpt lat="46.18894" lon="-1.39215">
        <ele>51.56705</ele>
        <time>2023-05-28T17:09:43.000Z</time>
      </trkpt>
      <trkpt lat="46.18894" lon="-1.3921">
        <ele>51.5769</ele>
        <time>2023-05-28T17:09:44.000Z</time>
      </trkpt>
      <trkpt lat="46.18893" lon="-1.39206">
        <ele>51.56127</ele>
        <time>2023-05-28T17:09:45.000Z</time>
      </trkpt>
      <trkpt lat="46.18893" lon="-1.39201">
        <ele>51.54797</ele>
        <time>2023-05-28T17:09:46.000Z</time>
      </trkpt>
      <trkpt lat="46.18893" lon="-1.39197">
        <ele>51.52411</ele>
        <time>2023-05-28T17:09:47.000Z</time>
      </trkpt>
      <trkpt lat="46.18892" lon="-1.39192">
        <ele>51.50535</ele>
        <time>2023-05-28T17:09:48.000Z</time>
      </trkpt>
      <trkpt lat="46.18892" lon="-1.39187">
        <ele>51.51659</ele>
        <time>2023-05-28T17:09:49.000Z</time>
      </trkpt>
      <trkpt lat="46.18892" lon="-1.39183">
        <ele>51.53242</ele>
        <time>2023-05-28T17:09:50.000Z</time>
      </trkpt>
      <trkpt lat="46.18892" lon="-1.39178">
        <ele>51.54432</ele>
        <time>2023-05-28T17:09:51.000Z</time>
      </trkpt>
      <trkpt lat="46.18892" lon="-1.39173">
        <ele>51.57407</ele>
        <time>2023-05-28T17:09:52.000Z</time>
      </trkpt>
      <trkpt lat="46.18891" lon="-1.39169">
        <ele>51.50101</ele>
        <time>2023-05-28T17:09:53.000Z</time>
      </trkpt>
      <trkpt lat="46.18891" lon="-1.39164">
        <ele>51.45027</ele>
        <time>2023-05-28T17:09:54.000Z</time>
      </trkpt>
      <trkpt lat="46.18891" lon="-1.39159">
        <ele>51.49406</ele>
        <time>2023-05-28T17:09:55.000Z</time>
      </trkpt>
      <trkpt lat="46.18891" lon="-1.39154">
        <ele>51.53295</ele>
        <time>2023-05-28T17:09:56.000Z</time>
      </trkpt>
      <trkpt lat="46.1889" lon="-1.39149">
        <ele>51.68029</ele>
        <time>2023-05-28T17:09:57.000Z</time>
      </trkpt>
      <trkpt lat="46.1889" lon="-1.39144">
        <ele>51.82241</ele>
        <time>2023-05-28T17:09:58.000Z</time>
      </trkpt>
      <trkpt lat="46.18889" lon="-1.39139">
        <ele>51.96997</ele>
        <time>2023-05-28T17:09:59.000Z</time>
      </trkpt>
      <trkpt lat="46.18889" lon="-1.39134">
        <ele>52.00286</ele>
        <time>2023-05-28T17:10:00.000Z</time>
      </trkpt>
      <trkpt lat="46.18889" lon="-1.39128">
        <ele>52.08865</ele>
        <time>2023-05-28T17:10:01.000Z</time>
      </trkpt>
      <trkpt lat="46.18888" lon="-1.39123">
        <ele>52.16959</ele>
        <time>2023-05-28T17:10:02.000Z</time>
      </trkpt>
      <trkpt lat="46.18888" lon="-1.39118">
        <ele>52.22536</ele>
        <time>2023-05-28T17:10:03.000Z</time>
      </trkpt>
      <trkpt lat="46.18888" lon="-1.39112">
        <ele>52.25919</ele>
        <time>2023-05-28T17:10:04.000Z</time>
      </trkpt>
      <trkpt lat="46.18888" lon="-1.39107">
        <ele>52.32716</ele>
        <time>2023-05-28T17:10:05.000Z</time>
      </trkpt>
      <trkpt lat="46.18887" lon="-1.39101">
        <ele>52.40803</ele>
        <time>2023-05-28T17:10:06.000Z</time>
      </trkpt>
      <trkpt lat="46.18887" lon="-1.39095">
        <ele>52.48778</ele>
        <time>2023-05-28T17:10:07.000Z</time>
      </trkpt>
      <trkpt lat="46.18886" lon="-1.3909">
        <ele>52.58655</ele>
        <time>2023-05-28T17:10:08.000Z</time>
      </trkpt>
      <trkpt lat="46.18886" lon="-1.39084">
        <ele>52.6891</ele>
        <time>2023-05-28T17:10:09.000Z</time>
      </trkpt>
      <trkpt lat="46.18885" lon="-1.39079">
        <ele>52.82003</ele>
        <time>2023-05-28T17:10:10.000Z</time>
      </trkpt>
      <trkpt lat="46.18885" lon="-1.39073">
        <ele>52.96998</ele>
        <time>2023-05-28T17:10:11.000Z</time>
      </trkpt>
      <trkpt lat="46.18885" lon="-1.39068">
        <ele>53.13591</ele>
        <time>2023-05-28T17:10:12.000Z</time>
      </trkpt>
      <trkpt lat="46.18885" lon="-1.39063">
        <ele>53.30571</ele>
        <time>2023-05-28T17:10:13.000Z</time>
      </trkpt>
      <trkpt lat="46.18884" lon="-1.39058">
        <ele>53.44939</ele>
        <time>2023-05-28T17:10:14.000Z</time>
      </trkpt>
      <trkpt lat="46.18884" lon="-1.39053">
        <ele>53.48186</ele>
        <time>2023-05-28T17:10:15.000Z</time>
      </trkpt>
      <trkpt lat="46.18883" lon="-1.39048">
        <ele>53.53187</ele>
        <time>2023-05-28T17:10:16.000Z</time>
      </trkpt>
      <trkpt lat="46.18883" lon="-1.39043">
        <ele>53.54855</ele>
        <time>2023-05-28T17:10:17.000Z</time>
      </trkpt>
      <trkpt lat="46.18882" lon="-1.39038">
        <ele>53.56174</ele>
        <time>2023-05-28T17:10:18.000Z</time>
      </trkpt>
      <trkpt lat="46.18882" lon="-1.39033">
        <ele>53.59342</ele>
        <time>2023-05-28T17:10:19.000Z</time>
      </trkpt>
      <trkpt lat="46.18882" lon="-1.39029">
        <ele>53.63528</ele>
        <time>2023-05-28T17:10:20.000Z</time>
      </trkpt>
      <trkpt lat="46.18882" lon="-1.39024">
        <ele>53.64051</ele>
        <time>2023-05-28T17:10:21.000Z</time>
      </trkpt>
      <trkpt lat="46.18882" lon="-1.39019">
        <ele>53.68115</ele>
        <time>2023-05-28T17:10:22.000Z</time>
      </trkpt>
      <trkpt lat="46.18881" lon="-1.39014">
        <ele>53.69603</ele>
        <time>2023-05-28T17:10:23.000Z</time>
      </trkpt>
      <trkpt lat="46.18881" lon="-1.3901">
        <ele>53.71898</ele>
        <time>2023-05-28T17:10:24.000Z</time>
      </trkpt>
      <trkpt lat="46.1888" lon="-1.39005">
        <ele>53.73661</ele>
        <time>2023-05-28T17:10:25.000Z</time>
      </trkpt>
      <trkpt lat="46.18878" lon="-1.39001">
        <ele>53.76373</ele>
        <time>2023-05-28T17:10:26.000Z</time>
      </trkpt>
      <trkpt lat="46.18877" lon="-1.38996">
        <ele>53.78367</ele>
        <time>2023-05-28T17:10:27.000Z</time>
      </trkpt>
      <trkpt lat="46.18877" lon="-1.38992">
        <ele>53.79182</ele>
        <time>2023-05-28T17:10:28.000Z</time>
      </trkpt>
      <trkpt lat="46.18876" lon="-1.38988">
        <ele>53.78833</ele>
        <time>2023-05-28T17:10:29.000Z</time>
      </trkpt>
      <trkpt lat="46.18876" lon="-1.38984">
        <ele>53.86658</ele>
        <time>2023-05-28T17:10:30.000Z</time>
      </trkpt>
      <trkpt lat="46.18876" lon="-1.3898">
        <ele>53.70996</ele>
        <time>2023-05-28T17:10:31.000Z</time>
      </trkpt>
      <trkpt lat="46.18877" lon="-1.38977">
        <ele>53.70564</ele>
        <time>2023-05-28T17:10:32.000Z</time>
      </trkpt>
      <trkpt lat="46.18877" lon="-1.38973">
        <ele>53.69395</ele>
        <time>2023-05-28T17:10:33.000Z</time>
      </trkpt>
      <trkpt lat="46.18878" lon="-1.3897">
        <ele>53.71168</ele>
        <time>2023-05-28T17:10:34.000Z</time>
      </trkpt>
      <trkpt lat="46.18877" lon="-1.38966">
        <ele>53.73298</ele>
        <time>2023-05-28T17:10:35.000Z</time>
      </trkpt>
      <trkpt lat="46.18877" lon="-1.38963">
        <ele>53.80507</ele>
        <time>2023-05-28T17:10:36.000Z</time>
      </trkpt>
      <trkpt lat="46.18877" lon="-1.38959">
        <ele>53.87233</ele>
        <time>2023-05-28T17:10:37.000Z</time>
      </trkpt>
      <trkpt lat="46.18877" lon="-1.38956">
        <ele>53.94037</ele>
        <time>2023-05-28T17:10:38.000Z</time>
      </trkpt>
      <trkpt lat="46.18876" lon="-1.38953">
        <ele>54.02013</ele>
        <time>2023-05-28T17:10:39.000Z</time>
      </trkpt>
      <trkpt lat="46.18876" lon="-1.38951">
        <ele>53.98295</ele>
        <time>2023-05-28T17:10:40.000Z</time>
      </trkpt>
      <trkpt lat="46.18874" lon="-1.38948">
        <ele>54.06941</ele>
        <time>2023-05-28T17:10:42.000Z</time>
      </trkpt>
    </trkseg>
  </trk>
</gpx>